<?xml version='1.0' encoding='UTF-8'?><gpx version="1.1" creator="JPX - https://github.com/jenetics/jpx" xmlns="http://www.topografix.com/GPX/1/1"><trk><trkseg><trkpt lat="44.77365229060759" lon="10.26264046963901"><ele>86.0</ele><time>2026-04-25T07:07:22.58Z</time></trkpt><trkpt lat="44.77358519877437" lon="10.26262039833309"><ele>86.0</ele><time>2026-04-25T07:07:52.993Z</time></trkpt><trkpt lat="44.773586235297564" lon="10.262711401203974"><ele>86.0</ele><time>2026-04-25T07:11:55.001Z</time></trkpt><trkpt lat="44.773611702128875" lon="10.262818559430963"><ele>86.0</ele><time>2026-04-25T07:11:57.001Z</time></trkpt><trkpt lat="44.77367152140613" lon="10.262912255687745"><ele>86.0</ele><time>2026-04-25T07:11:59.001Z</time></trkpt><trkpt lat="44.77373917510853" lon="10.263014467910251"><ele>86.0</ele><time>2026-04-25T07:12:01.001Z</time></trkpt><trkpt lat="44.77382280789371" lon="10.26305326870963"><ele>86.0</ele><time>2026-04-25T07:12:03Z</time></trkpt><trkpt lat="44.77390761965296" lon="10.263039730825493"><ele>86.0</ele><time>2026-04-25T07:12:05Z</time></trkpt><trkpt lat="44.773974675263354" lon="10.263026366590713"><ele>86.0</ele><time>2026-04-25T07:12:07Z</time></trkpt><trkpt lat="44.77403600706711" lon="10.263098241577124"><ele>86.0</ele><time>2026-04-25T07:12:10Z</time></trkpt><trkpt lat="44.77401696710957" lon="10.263186810593652"><ele>86.0</ele><time>2026-04-25T07:12:13Z</time></trkpt><trkpt lat="44.77395661348162" lon="10.263291435134292"><ele>86.0</ele><time>2026-04-25T07:12:41Z</time></trkpt><trkpt lat="44.773922673616156" lon="10.263410797600672"><ele>85.83333333333334</ele><time>2026-04-25T07:12:43Z</time></trkpt><trkpt lat="44.77387743553336" lon="10.263520300240037"><ele>85.66666666666667</ele><time>2026-04-25T07:12:45Z</time></trkpt><trkpt lat="44.77379432250312" lon="10.263519223214592"><ele>85.5</ele><time>2026-04-25T07:12:47Z</time></trkpt><trkpt lat="44.77375919919958" lon="10.263439635299273"><ele>85.33333333333333</ele><time>2026-04-25T07:12:48Z</time></trkpt><trkpt lat="44.773722070942135" lon="10.26333020397473"><ele>85.16666666666666</ele><time>2026-04-25T07:12:49Z</time></trkpt><trkpt lat="44.773685585368646" lon="10.263230994469083"><ele>85.0</ele><time>2026-04-25T07:12:50Z</time></trkpt><trkpt lat="44.77364144393109" lon="10.263141879940228"><ele>85.16666666666666</ele><time>2026-04-25T07:12:51Z</time></trkpt><trkpt lat="44.77359157782258" lon="10.263042517371368"><ele>85.33333333333333</ele><time>2026-04-25T07:12:52Z</time></trkpt><trkpt lat="44.77354138405976" lon="10.262947115510794"><ele>85.5</ele><time>2026-04-25T07:12:53Z</time></trkpt><trkpt lat="44.77349757204744" lon="10.262852147590351"><ele>85.66666666666667</ele><time>2026-04-25T07:12:54Z</time></trkpt><trkpt lat="44.77345052487661" lon="10.262746672304296"><ele>85.83333333333334</ele><time>2026-04-25T07:12:55Z</time></trkpt><trkpt lat="44.77340128360706" lon="10.26264023590245"><ele>86.0</ele><time>2026-04-25T07:12:56Z</time></trkpt><trkpt lat="44.773349169735084" lon="10.262530858636277"><ele>86.4</ele><time>2026-04-25T07:12:57Z</time></trkpt><trkpt lat="44.77329480249375" lon="10.262419581276824"><ele>86.8</ele><time>2026-04-25T07:12:58Z</time></trkpt><trkpt lat="44.773242299940044" lon="10.26230605248019"><ele>87.2</ele><time>2026-04-25T07:12:59Z</time></trkpt><trkpt lat="44.7731840158597" lon="10.262196893801416"><ele>87.60000000000001</ele><time>2026-04-25T07:13:00Z</time></trkpt><trkpt lat="44.77312869136864" lon="10.262081861659613"><ele>88.0</ele><time>2026-04-25T07:13:01Z</time></trkpt><trkpt lat="44.773074229917206" lon="10.261969158496049"><ele>88.0</ele><time>2026-04-25T07:13:02Z</time></trkpt><trkpt lat="44.77302632897878" lon="10.261862852932937"><ele>88.0</ele><time>2026-04-25T07:13:03Z</time></trkpt><trkpt lat="44.772982856888454" lon="10.261774411001221"><ele>88.0</ele><time>2026-04-25T07:13:04Z</time></trkpt><trkpt lat="44.77293429504175" lon="10.261699639959689"><ele>88.0</ele><time>2026-04-25T07:13:05Z</time></trkpt><trkpt lat="44.77290292729692" lon="10.26161534697176"><ele>88.0</ele><time>2026-04-25T07:13:06Z</time></trkpt><trkpt lat="44.772777281762274" lon="10.26166437409172"><ele>88.0</ele><time>2026-04-25T07:13:07Z</time></trkpt><trkpt lat="44.77268984017801" lon="10.261732963863848"><ele>88.4</ele><time>2026-04-25T07:13:08Z</time></trkpt><trkpt lat="44.772606629512104" lon="10.261828063886508"><ele>88.80000000000001</ele><time>2026-04-25T07:13:09Z</time></trkpt><trkpt lat="44.77252031111384" lon="10.261918825751946"><ele>89.2</ele><time>2026-04-25T07:13:10Z</time></trkpt><trkpt lat="44.77242889807228" lon="10.262004796667092"><ele>89.6</ele><time>2026-04-25T07:13:11Z</time></trkpt><trkpt lat="44.7723314102579" lon="10.262095515847793"><ele>90.0</ele><time>2026-04-25T07:13:12Z</time></trkpt><trkpt lat="44.772232102204846" lon="10.262188639303913"><ele>90.0</ele><time>2026-04-25T07:13:13Z</time></trkpt><trkpt lat="44.77212918545486" lon="10.262286247002756"><ele>90.0</ele><time>2026-04-25T07:13:14Z</time></trkpt><trkpt lat="44.77202397475349" lon="10.262379675476039"><ele>90.0</ele><time>2026-04-25T07:13:15Z</time></trkpt><trkpt lat="44.77191535172915" lon="10.262476524818624"><ele>90.0</ele><time>2026-04-25T07:13:16Z</time></trkpt><trkpt lat="44.77180571610712" lon="10.262575239092827"><ele>90.0</ele><time>2026-04-25T07:13:17Z</time></trkpt><trkpt lat="44.77169745138594" lon="10.262675374505594"><ele>90.0</ele><time>2026-04-25T07:13:18Z</time></trkpt><trkpt lat="44.771591137278875" lon="10.26277341212364"><ele>90.0</ele><time>2026-04-25T07:13:19Z</time></trkpt><trkpt lat="44.771486775875736" lon="10.26287308418612"><ele>90.0</ele><time>2026-04-25T07:13:20Z</time></trkpt><trkpt lat="44.771383139809934" lon="10.262976521532234"><ele>90.0</ele><time>2026-04-25T07:13:21Z</time></trkpt><trkpt lat="44.77128365472147" lon="10.263074781519075"><ele>90.0</ele><time>2026-04-25T07:13:22Z</time></trkpt><trkpt lat="44.77119482645957" lon="10.263160541216827"><ele>90.0</ele><time>2026-04-25T07:13:23Z</time></trkpt><trkpt lat="44.77109724918551" lon="10.263214772929468"><ele>90.0</ele><time>2026-04-25T07:13:24Z</time></trkpt><trkpt lat="44.771008293024366" lon="10.26327483115842"><ele>90.0</ele><time>2026-04-25T07:13:25Z</time></trkpt><trkpt lat="44.7708707928077" lon="10.263165358976897"><ele>90.0</ele><time>2026-04-25T07:13:26Z</time></trkpt><trkpt lat="44.77075937048799" lon="10.263087409367563"><ele>90.0</ele><time>2026-04-25T07:13:27Z</time></trkpt><trkpt lat="44.77065483922679" lon="10.263012391274128"><ele>90.0</ele><time>2026-04-25T07:13:28Z</time></trkpt><trkpt lat="44.77055371026841" lon="10.262936161169264"><ele>90.0</ele><time>2026-04-25T07:13:29Z</time></trkpt><trkpt lat="44.770455470197376" lon="10.262862642571744"><ele>90.0</ele><time>2026-04-25T07:13:30Z</time></trkpt><trkpt lat="44.77035338686806" lon="10.26282314637405"><ele>90.0</ele><time>2026-04-25T07:13:31Z</time></trkpt><trkpt lat="44.770303863741375" lon="10.262626223668237"><ele>90.0</ele><time>2026-04-25T07:13:32Z</time></trkpt><trkpt lat="44.770229801207094" lon="10.26246940830488"><ele>90.0</ele><time>2026-04-25T07:13:33Z</time></trkpt><trkpt lat="44.77016067345183" lon="10.262300885845386"><ele>90.25</ele><time>2026-04-25T07:13:34Z</time></trkpt><trkpt lat="44.77007749166212" lon="10.262133067776869"><ele>90.5</ele><time>2026-04-25T07:13:35Z</time></trkpt><trkpt lat="44.769994465456044" lon="10.26196047063615"><ele>90.75</ele><time>2026-04-25T07:13:36Z</time></trkpt><trkpt lat="44.76990968216327" lon="10.261779247462984"><ele>91.0</ele><time>2026-04-25T07:13:37Z</time></trkpt><trkpt lat="44.76982218809478" lon="10.26159867048165"><ele>91.33333333333333</ele><time>2026-04-25T07:13:38Z</time></trkpt><trkpt lat="44.76973384032005" lon="10.261417211494452"><ele>91.66666666666667</ele><time>2026-04-25T07:13:39Z</time></trkpt><trkpt lat="44.76964428476002" lon="10.261235914454922"><ele>92.0</ele><time>2026-04-25T07:13:40Z</time></trkpt><trkpt lat="44.76955054609257" lon="10.261043073686462"><ele>92.0</ele><time>2026-04-25T07:13:41Z</time></trkpt><trkpt lat="44.76946329491105" lon="10.260854631205103"><ele>92.0</ele><time>2026-04-25T07:13:42.001Z</time></trkpt><trkpt lat="44.76937419821846" lon="10.260665231315677"><ele>92.0</ele><time>2026-04-25T07:13:43.001Z</time></trkpt><trkpt lat="44.76928641622255" lon="10.260476749905374"><ele>92.33333333333334</ele><time>2026-04-25T07:13:44.001Z</time></trkpt><trkpt lat="44.76919314109818" lon="10.260288500115035"><ele>92.66666666666667</ele><time>2026-04-25T07:13:45.001Z</time></trkpt><trkpt lat="44.76910517213312" lon="10.260102067382839"><ele>93.0</ele><time>2026-04-25T07:13:46.001Z</time></trkpt><trkpt lat="44.769006472552626" lon="10.259909443971907"><ele>93.0</ele><time>2026-04-25T07:13:47.001Z</time></trkpt><trkpt lat="44.76893404362445" lon="10.259749471566215"><ele>93.0</ele><time>2026-04-25T07:13:48.001Z</time></trkpt><trkpt lat="44.7689026087784" lon="10.259603867924527"><ele>93.0</ele><time>2026-04-25T07:13:49.001Z</time></trkpt><trkpt lat="44.76874796121921" lon="10.25936613244387"><ele>93.0</ele><time>2026-04-25T07:13:50Z</time></trkpt><trkpt lat="44.7686604241702" lon="10.259175043036166"><ele>93.0</ele><time>2026-04-25T07:13:51Z</time></trkpt><trkpt lat="44.768577436818624" lon="10.258991657433349"><ele>93.0</ele><time>2026-04-25T07:13:52Z</time></trkpt><trkpt lat="44.7684919683235" lon="10.258807542983176"><ele>93.33333333333333</ele><time>2026-04-25T07:13:53Z</time></trkpt><trkpt lat="44.76840697636977" lon="10.258618252878863"><ele>93.66666666666666</ele><time>2026-04-25T07:13:54Z</time></trkpt><trkpt lat="44.768320930492905" lon="10.258429696331424"><ele>94.0</ele><time>2026-04-25T07:13:55Z</time></trkpt><trkpt lat="44.768231904243635" lon="10.25824028520275"><ele>93.66666666666666</ele><time>2026-04-25T07:13:56Z</time></trkpt><trkpt lat="44.76814525225403" lon="10.258048252302277"><ele>93.33333333333333</ele><time>2026-04-25T07:13:57Z</time></trkpt><trkpt lat="44.76805607565586" lon="10.257853043079187"><ele>93.0</ele><time>2026-04-25T07:13:58Z</time></trkpt><trkpt lat="44.7679688681364" lon="10.257659486317149"><ele>93.0</ele><time>2026-04-25T07:13:59Z</time></trkpt><trkpt lat="44.76788417300195" lon="10.257475666958726"><ele>93.0</ele><time>2026-04-25T07:14:00Z</time></trkpt><trkpt lat="44.7677927681783" lon="10.257285554838095"><ele>93.0</ele><time>2026-04-25T07:14:01Z</time></trkpt><trkpt lat="44.76770423783247" lon="10.257091729563333"><ele>93.66666666666667</ele><time>2026-04-25T07:14:02Z</time></trkpt><trkpt lat="44.76761706762334" lon="10.25689768391775"><ele>94.33333333333334</ele><time>2026-04-25T07:14:03Z</time></trkpt><trkpt lat="44.76752887071568" lon="10.2567085212085"><ele>95.0</ele><time>2026-04-25T07:14:04Z</time></trkpt><trkpt lat="44.76743956024309" lon="10.25652305081164"><ele>95.0</ele><time>2026-04-25T07:14:05Z</time></trkpt><trkpt lat="44.76735039675877" lon="10.256339440154346"><ele>95.0</ele><time>2026-04-25T07:14:06Z</time></trkpt><trkpt lat="44.76726645219787" lon="10.25615845477728"><ele>95.0</ele><time>2026-04-25T07:14:07Z</time></trkpt><trkpt lat="44.767177757782385" lon="10.255978017760645"><ele>95.0</ele><time>2026-04-25T07:14:08Z</time></trkpt><trkpt lat="44.76710817181549" lon="10.255789605999544"><ele>95.0</ele><time>2026-04-25T07:14:09Z</time></trkpt><trkpt lat="44.76703257996325" lon="10.255615171226644"><ele>95.0</ele><time>2026-04-25T07:14:10Z</time></trkpt><trkpt lat="44.76694756849001" lon="10.255449467670873"><ele>95.0</ele><time>2026-04-25T07:14:11Z</time></trkpt><trkpt lat="44.76686756243078" lon="10.255288891160099"><ele>95.0</ele><time>2026-04-25T07:14:12Z</time></trkpt><trkpt lat="44.766793638672986" lon="10.255132787227893"><ele>95.0</ele><time>2026-04-25T07:14:13Z</time></trkpt><trkpt lat="44.7667222764347" lon="10.254971083762957"><ele>95.0</ele><time>2026-04-25T07:14:14Z</time></trkpt><trkpt lat="44.766650281111566" lon="10.254812939873586"><ele>95.0</ele><time>2026-04-25T07:14:15Z</time></trkpt><trkpt lat="44.76657583393677" lon="10.254655821759131"><ele>95.25</ele><time>2026-04-25T07:14:16Z</time></trkpt><trkpt lat="44.76649852295039" lon="10.254490916636971"><ele>95.5</ele><time>2026-04-25T07:14:17Z</time></trkpt><trkpt lat="44.76642527108959" lon="10.254325778257702"><ele>95.75</ele><time>2026-04-25T07:14:18Z</time></trkpt><trkpt lat="44.766352452920906" lon="10.254156198778078"><ele>96.0</ele><time>2026-04-25T07:14:19Z</time></trkpt><trkpt lat="44.76627865061017" lon="10.253985328048625"><ele>96.5</ele><time>2026-04-25T07:14:20Z</time></trkpt><trkpt lat="44.766200180220686" lon="10.253813575555617"><ele>97.0</ele><time>2026-04-25T07:14:21Z</time></trkpt><trkpt lat="44.76611914884196" lon="10.253636968653725"><ele>97.5</ele><time>2026-04-25T07:14:22Z</time></trkpt><trkpt lat="44.766037972484874" lon="10.25345994422382"><ele>98.0</ele><time>2026-04-25T07:14:23Z</time></trkpt><trkpt lat="44.76595156093076" lon="10.253279491141292"><ele>98.0</ele><time>2026-04-25T07:14:24Z</time></trkpt><trkpt lat="44.76586625343674" lon="10.253091901299895"><ele>98.0</ele><time>2026-04-25T07:14:25Z</time></trkpt><trkpt lat="44.765781196553306" lon="10.252903490523504"><ele>98.0</ele><time>2026-04-25T07:14:26Z</time></trkpt><trkpt lat="44.76569806672987" lon="10.252731524940481"><ele>98.0</ele><time>2026-04-25T07:14:27Z</time></trkpt><trkpt lat="44.765637138260715" lon="10.252605978558012"><ele>98.0</ele><time>2026-04-25T07:14:28Z</time></trkpt><trkpt lat="44.7655747337999" lon="10.252482270846505"><ele>98.0</ele><time>2026-04-25T07:14:29Z</time></trkpt><trkpt lat="44.765429449761896" lon="10.252135077859771"><ele>97.66666666666666</ele><time>2026-04-25T07:14:30Z</time></trkpt><trkpt lat="44.76533961147624" lon="10.251942478633033"><ele>97.33333333333334</ele><time>2026-04-25T07:14:31Z</time></trkpt><trkpt lat="44.76525090216001" lon="10.251746497808849"><ele>97.0</ele><time>2026-04-25T07:14:32Z</time></trkpt><trkpt lat="44.76516395962591" lon="10.251549474506959"><ele>97.33333333333334</ele><time>2026-04-25T07:14:33Z</time></trkpt><trkpt lat="44.76507476548583" lon="10.251349954611603"><ele>97.66666666666666</ele><time>2026-04-25T07:14:34Z</time></trkpt><trkpt lat="44.76498751115684" lon="10.251152207666184"><ele>98.0</ele><time>2026-04-25T07:14:35Z</time></trkpt><trkpt lat="44.76489811828583" lon="10.250958675076651"><ele>98.0</ele><time>2026-04-25T07:14:36Z</time></trkpt><trkpt lat="44.76480594563731" lon="10.250763901276338"><ele>98.0</ele><time>2026-04-25T07:14:37Z</time></trkpt><trkpt lat="44.764723419713235" lon="10.250585458776264"><ele>98.0</ele><time>2026-04-25T07:14:38Z</time></trkpt><trkpt lat="44.76464851754609" lon="10.25041779920824"><ele>98.0</ele><time>2026-04-25T07:14:39Z</time></trkpt><trkpt lat="44.764568926714" lon="10.250240636874906"><ele>98.0</ele><time>2026-04-25T07:14:40Z</time></trkpt><trkpt lat="44.764487091717335" lon="10.250066971616409"><ele>98.0</ele><time>2026-04-25T07:14:41Z</time></trkpt><trkpt lat="44.76440949110013" lon="10.249896518697733"><ele>98.0</ele><time>2026-04-25T07:14:42Z</time></trkpt><trkpt lat="44.76433568791585" lon="10.249733159392552"><ele>99.0</ele><time>2026-04-25T07:14:43Z</time></trkpt><trkpt lat="44.76426023322879" lon="10.24956778660351"><ele>100.0</ele><time>2026-04-25T07:14:44Z</time></trkpt><trkpt lat="44.76418781945721" lon="10.249402738133988"><ele>101.0</ele><time>2026-04-25T07:14:45Z</time></trkpt><trkpt lat="44.7641128341455" lon="10.249241600108245"><ele>102.0</ele><time>2026-04-25T07:14:46Z</time></trkpt><trkpt lat="44.76404041920698" lon="10.24908836325174"><ele>101.75</ele><time>2026-04-25T07:14:47Z</time></trkpt><trkpt lat="44.76396667308214" lon="10.248939365588877"><ele>101.5</ele><time>2026-04-25T07:14:48Z</time></trkpt><trkpt lat="44.7638949108728" lon="10.248792579069569"><ele>101.25</ele><time>2026-04-25T07:14:49Z</time></trkpt><trkpt lat="44.76383248071746" lon="10.24865296241759"><ele>101.0</ele><time>2026-04-25T07:14:50Z</time></trkpt><trkpt lat="44.76376595313443" lon="10.24850766299762"><ele>101.0</ele><time>2026-04-25T07:14:51Z</time></trkpt><trkpt lat="44.76369706622804" lon="10.248363345214816"><ele>101.0</ele><time>2026-04-25T07:14:52Z</time></trkpt><trkpt lat="44.76361912945076" lon="10.248217566170856"><ele>101.0</ele><time>2026-04-25T07:14:53Z</time></trkpt><trkpt lat="44.7635508397466" lon="10.248065553601599"><ele>101.0</ele><time>2026-04-25T07:14:54Z</time></trkpt><trkpt lat="44.76348486961603" lon="10.247912669590121"><ele>101.5</ele><time>2026-04-25T07:14:55Z</time></trkpt><trkpt lat="44.76341342784409" lon="10.247764833051273"><ele>102.0</ele><time>2026-04-25T07:14:56Z</time></trkpt><trkpt lat="44.763337163155086" lon="10.247614940030411"><ele>102.5</ele><time>2026-04-25T07:14:57Z</time></trkpt><trkpt lat="44.763258871264114" lon="10.247457059634026"><ele>103.0</ele><time>2026-04-25T07:14:58Z</time></trkpt><trkpt lat="44.76318479233101" lon="10.247284079526818"><ele>103.0</ele><time>2026-04-25T07:14:59Z</time></trkpt><trkpt lat="44.763104577886025" lon="10.247115710445344"><ele>103.0</ele><time>2026-04-25T07:15:00Z</time></trkpt><trkpt lat="44.76301773388536" lon="10.246955645977692"><ele>103.0</ele><time>2026-04-25T07:15:01Z</time></trkpt><trkpt lat="44.76294126124829" lon="10.246785013878457"><ele>103.0</ele><time>2026-04-25T07:15:02Z</time></trkpt><trkpt lat="44.7628642147208" lon="10.24662064490029"><ele>102.75</ele><time>2026-04-25T07:15:03Z</time></trkpt><trkpt lat="44.76278517754649" lon="10.246448962911364"><ele>102.5</ele><time>2026-04-25T07:15:04Z</time></trkpt><trkpt lat="44.762702869458124" lon="10.24627927393277"><ele>102.25</ele><time>2026-04-25T07:15:05Z</time></trkpt><trkpt lat="44.76262243738058" lon="10.246098422988235"><ele>102.0</ele><time>2026-04-25T07:15:06Z</time></trkpt><trkpt lat="44.762545098954014" lon="10.245923978946124"><ele>102.0</ele><time>2026-04-25T07:15:07Z</time></trkpt><trkpt lat="44.7624673320488" lon="10.245746735114691"><ele>102.0</ele><time>2026-04-25T07:15:08Z</time></trkpt><trkpt lat="44.762390477969646" lon="10.245574171098596"><ele>102.0</ele><time>2026-04-25T07:15:09Z</time></trkpt><trkpt lat="44.76231056844245" lon="10.245405137575899"><ele>102.0</ele><time>2026-04-25T07:15:10Z</time></trkpt><trkpt lat="44.762234229509936" lon="10.245225681660184"><ele>102.0</ele><time>2026-04-25T07:15:11Z</time></trkpt><trkpt lat="44.762154763989265" lon="10.245046225461154"><ele>102.0</ele><time>2026-04-25T07:15:12Z</time></trkpt><trkpt lat="44.76207370026553" lon="10.24486374810413"><ele>102.0</ele><time>2026-04-25T07:15:12.999Z</time></trkpt><trkpt lat="44.76199077763891" lon="10.244683041807441"><ele>102.0</ele><time>2026-04-25T07:15:13.999Z</time></trkpt><trkpt lat="44.7619010240686" lon="10.244502043644134"><ele>102.0</ele><time>2026-04-25T07:15:14.999Z</time></trkpt><trkpt lat="44.76181687479556" lon="10.244310575706384"><ele>102.0</ele><time>2026-04-25T07:15:15.999Z</time></trkpt><trkpt lat="44.7617258775098" lon="10.244127244590137"><ele>102.33333333333334</ele><time>2026-04-25T07:15:16.999Z</time></trkpt><trkpt lat="44.76164221320133" lon="10.2439455149051"><ele>102.66666666666667</ele><time>2026-04-25T07:15:17.999Z</time></trkpt><trkpt lat="44.76155664183369" lon="10.243771494790366"><ele>103.0</ele><time>2026-04-25T07:15:18.999Z</time></trkpt><trkpt lat="44.761473373087114" lon="10.24359083943557"><ele>103.0</ele><time>2026-04-25T07:15:19.999Z</time></trkpt><trkpt lat="44.76138593167683" lon="10.24341437948879"><ele>103.0</ele><time>2026-04-25T07:15:20.999Z</time></trkpt><trkpt lat="44.761298412933606" lon="10.243239081927426"><ele>103.0</ele><time>2026-04-25T07:15:21.999Z</time></trkpt><trkpt lat="44.76120943594351" lon="10.24306234434151"><ele>104.0</ele><time>2026-04-25T07:15:22.999Z</time></trkpt><trkpt lat="44.761120781785706" lon="10.242885818351635"><ele>105.0</ele><time>2026-04-25T07:15:23.999Z</time></trkpt><trkpt lat="44.76103577599852" lon="10.242714209414492"><ele>106.0</ele><time>2026-04-25T07:15:24.999Z</time></trkpt><trkpt lat="44.760946186640844" lon="10.242536733956607"><ele>107.0</ele><time>2026-04-25T07:15:25.999Z</time></trkpt><trkpt lat="44.76086088088763" lon="10.242359320214556"><ele>108.0</ele><time>2026-04-25T07:15:26.999Z</time></trkpt><trkpt lat="44.760776101786725" lon="10.242181566525012"><ele>109.0</ele><time>2026-04-25T07:15:27.999Z</time></trkpt><trkpt lat="44.7606943270189" lon="10.241999122184613"><ele>109.0</ele><time>2026-04-25T07:15:28.999Z</time></trkpt><trkpt lat="44.76060696271633" lon="10.241816585913112"><ele>109.0</ele><time>2026-04-25T07:15:29.999Z</time></trkpt><trkpt lat="44.76052452655622" lon="10.241640985511646"><ele>109.0</ele><time>2026-04-25T07:15:30.999Z</time></trkpt><trkpt lat="44.76043667759317" lon="10.241457452564012"><ele>109.33333333333334</ele><time>2026-04-25T07:15:31.999Z</time></trkpt><trkpt lat="44.76035142957501" lon="10.241276791350057"><ele>109.66666666666666</ele><time>2026-04-25T07:15:32.999Z</time></trkpt><trkpt lat="44.760271743562946" lon="10.241093944674105"><ele>110.0</ele><time>2026-04-25T07:15:33.999Z</time></trkpt><trkpt lat="44.76018949151524" lon="10.240911063318817"><ele>110.33333333333333</ele><time>2026-04-25T07:15:34.999Z</time></trkpt><trkpt lat="44.76010669876372" lon="10.240731829731626"><ele>110.66666666666666</ele><time>2026-04-25T07:15:35.999Z</time></trkpt><trkpt lat="44.76002268287963" lon="10.240555047782497"><ele>111.0</ele><time>2026-04-25T07:15:36.999Z</time></trkpt><trkpt lat="44.75993893449369" lon="10.240380086909065"><ele>111.33333333333334</ele><time>2026-04-25T07:15:37.999Z</time></trkpt><trkpt lat="44.759857708137574" lon="10.240201553226008"><ele>111.66666666666667</ele><time>2026-04-25T07:15:38.999Z</time></trkpt><trkpt lat="44.75977305099529" lon="10.240019746865954"><ele>112.0</ele><time>2026-04-25T07:15:39.999Z</time></trkpt><trkpt lat="44.759687462207715" lon="10.239833155023367"><ele>110.33333333333334</ele><time>2026-04-25T07:15:40.999Z</time></trkpt><trkpt lat="44.75960140324272" lon="10.239645912995819"><ele>108.66666666666666</ele><time>2026-04-25T07:15:41.999Z</time></trkpt><trkpt lat="44.75951863816905" lon="10.23946206515217"><ele>107.0</ele><time>2026-04-25T07:15:42.999Z</time></trkpt><trkpt lat="44.75943640786114" lon="10.239281600186363"><ele>107.25</ele><time>2026-04-25T07:15:43.999Z</time></trkpt><trkpt lat="44.7593568286243" lon="10.239112122171438"><ele>107.5</ele><time>2026-04-25T07:15:44.999Z</time></trkpt><trkpt lat="44.759276892099315" lon="10.23894486559378"><ele>107.75</ele><time>2026-04-25T07:15:45.999Z</time></trkpt><trkpt lat="44.75919979232681" lon="10.238779537410938"><ele>108.0</ele><time>2026-04-25T07:15:46.999Z</time></trkpt><trkpt lat="44.75912406611229" lon="10.23861381693206"><ele>108.0</ele><time>2026-04-25T07:15:48Z</time></trkpt><trkpt lat="44.75904731386107" lon="10.238448150292966"><ele>108.0</ele><time>2026-04-25T07:15:49Z</time></trkpt><trkpt lat="44.75896927012703" lon="10.238279030840227"><ele>108.0</ele><time>2026-04-25T07:15:50Z</time></trkpt><trkpt lat="44.75888936715333" lon="10.23811108526035"><ele>108.0</ele><time>2026-04-25T07:15:51Z</time></trkpt><trkpt lat="44.75880919458365" lon="10.237946259587806"><ele>108.0</ele><time>2026-04-25T07:15:52Z</time></trkpt><trkpt lat="44.75873425511775" lon="10.237784600486624"><ele>108.0</ele><time>2026-04-25T07:15:53Z</time></trkpt><trkpt lat="44.75866445173564" lon="10.237628869785167"><ele>108.0</ele><time>2026-04-25T07:15:54Z</time></trkpt><trkpt lat="44.75859600327664" lon="10.237476847102092"><ele>108.0</ele><time>2026-04-25T07:15:55Z</time></trkpt><trkpt lat="44.758527237891286" lon="10.237328906939428"><ele>108.0</ele><time>2026-04-25T07:15:56Z</time></trkpt><trkpt lat="44.758462402661145" lon="10.237182840121685"><ele>108.0</ele><time>2026-04-25T07:15:57Z</time></trkpt><trkpt lat="44.75839490848361" lon="10.237030110469222"><ele>108.0</ele><time>2026-04-25T07:15:58Z</time></trkpt><trkpt lat="44.75832620082061" lon="10.236870927039481"><ele>108.0</ele><time>2026-04-25T07:15:59Z</time></trkpt><trkpt lat="44.75824928599167" lon="10.236703599873872"><ele>108.0</ele><time>2026-04-25T07:16:00Z</time></trkpt><trkpt lat="44.75816381460619" lon="10.236522521494738"><ele>108.0</ele><time>2026-04-25T07:16:01Z</time></trkpt><trkpt lat="44.758078576925385" lon="10.2363375082698"><ele>108.0</ele><time>2026-04-25T07:16:02Z</time></trkpt><trkpt lat="44.75799596422398" lon="10.236154315541953"><ele>108.0</ele><time>2026-04-25T07:16:03Z</time></trkpt><trkpt lat="44.75790911008857" lon="10.23596696642935"><ele>108.0</ele><time>2026-04-25T07:16:04Z</time></trkpt><trkpt lat="44.75781946514798" lon="10.23576597560046"><ele>108.0</ele><time>2026-04-25T07:16:05Z</time></trkpt><trkpt lat="44.75773137425629" lon="10.23556759257018"><ele>109.0</ele><time>2026-04-25T07:16:06Z</time></trkpt><trkpt lat="44.75763642051803" lon="10.235361121167546"><ele>110.0</ele><time>2026-04-25T07:16:07Z</time></trkpt><trkpt lat="44.75754370098311" lon="10.23516515964619"><ele>111.0</ele><time>2026-04-25T07:16:08Z</time></trkpt><trkpt lat="44.75744874249116" lon="10.2349604714574"><ele>111.0</ele><time>2026-04-25T07:16:09Z</time></trkpt><trkpt lat="44.75735761668105" lon="10.234758632602528"><ele>111.0</ele><time>2026-04-25T07:16:10Z</time></trkpt><trkpt lat="44.75726711462036" lon="10.234563407074154"><ele>111.0</ele><time>2026-04-25T07:16:11Z</time></trkpt><trkpt lat="44.75717535718179" lon="10.234361438657649"><ele>111.0</ele><time>2026-04-25T07:16:12Z</time></trkpt><trkpt lat="44.7570898120943" lon="10.234168673024442"><ele>111.0</ele><time>2026-04-25T07:16:13Z</time></trkpt><trkpt lat="44.75700390505559" lon="10.233974320344627"><ele>111.0</ele><time>2026-04-25T07:16:14Z</time></trkpt><trkpt lat="44.7569180203373" lon="10.233786161625632"><ele>111.0</ele><time>2026-04-25T07:16:15Z</time></trkpt><trkpt lat="44.75683220829333" lon="10.233610808805247"><ele>111.0</ele><time>2026-04-25T07:16:16Z</time></trkpt><trkpt lat="44.75675051997456" lon="10.233464277598847"><ele>111.0</ele><time>2026-04-25T07:16:17Z</time></trkpt><trkpt lat="44.75669137217279" lon="10.233307316823456"><ele>111.0</ele><time>2026-04-25T07:16:18Z</time></trkpt><trkpt lat="44.75662725971893" lon="10.233167313202832"><ele>110.25</ele><time>2026-04-25T07:16:19Z</time></trkpt><trkpt lat="44.7565635245341" lon="10.233045561883642"><ele>109.5</ele><time>2026-04-25T07:16:20Z</time></trkpt><trkpt lat="44.756501656256944" lon="10.232912522612523"><ele>108.75</ele><time>2026-04-25T07:16:21Z</time></trkpt><trkpt lat="44.75643931808018" lon="10.232768698034667"><ele>108.0</ele><time>2026-04-25T07:16:22Z</time></trkpt><trkpt lat="44.75637478997632" lon="10.232623573832516"><ele>108.0</ele><time>2026-04-25T07:16:23Z</time></trkpt><trkpt lat="44.75632135895744" lon="10.232482346344913"><ele>108.00000000000001</ele><time>2026-04-25T07:16:24Z</time></trkpt><trkpt lat="44.75627598471753" lon="10.232345638328296"><ele>108.00000000000001</ele><time>2026-04-25T07:16:25Z</time></trkpt><trkpt lat="44.75623821426657" lon="10.232199574978612"><ele>108.0</ele><time>2026-04-25T07:16:26Z</time></trkpt><trkpt lat="44.756210505024924" lon="10.23206626440112"><ele>108.0</ele><time>2026-04-25T07:16:27Z</time></trkpt><trkpt lat="44.75618494882261" lon="10.231931990898294"><ele>107.80000000000001</ele><time>2026-04-25T07:16:28Z</time></trkpt><trkpt lat="44.75616041883609" lon="10.231792948683074"><ele>107.60000000000001</ele><time>2026-04-25T07:16:29Z</time></trkpt><trkpt lat="44.756141831567135" lon="10.231663768891217"><ele>107.39999999999999</ele><time>2026-04-25T07:16:30Z</time></trkpt><trkpt lat="44.75613138993916" lon="10.231531447294504"><ele>107.19999999999999</ele><time>2026-04-25T07:16:31Z</time></trkpt><trkpt lat="44.75613540261915" lon="10.23139021875783"><ele>107.0</ele><time>2026-04-25T07:16:32Z</time></trkpt><trkpt lat="44.75615323813956" lon="10.23124255178887"><ele>107.75</ele><time>2026-04-25T07:16:33Z</time></trkpt><trkpt lat="44.75616241598651" lon="10.231077765914044"><ele>108.5</ele><time>2026-04-25T07:16:34Z</time></trkpt><trkpt lat="44.75615468247323" lon="10.230901474957651"><ele>109.25</ele><time>2026-04-25T07:16:35Z</time></trkpt><trkpt lat="44.75615459329976" lon="10.230745386051213"><ele>110.0</ele><time>2026-04-25T07:16:36Z</time></trkpt><trkpt lat="44.75617939075116" lon="10.230592180768394"><ele>111.0</ele><time>2026-04-25T07:16:37Z</time></trkpt><trkpt lat="44.75620699463851" lon="10.230437372576858"><ele>112.0</ele><time>2026-04-25T07:16:38Z</time></trkpt><trkpt lat="44.756285439388876" lon="10.230286726115366"><ele>113.0</ele><time>2026-04-25T07:16:39Z</time></trkpt><trkpt lat="44.75635268424002" lon="10.230146365561525"><ele>114.0</ele><time>2026-04-25T07:16:40Z</time></trkpt><trkpt lat="44.75642826224842" lon="10.23000751455026"><ele>114.0</ele><time>2026-04-25T07:16:41Z</time></trkpt><trkpt lat="44.75650920523714" lon="10.229871108625836"><ele>114.0</ele><time>2026-04-25T07:16:42Z</time></trkpt><trkpt lat="44.75659452898245" lon="10.229743638732447"><ele>114.0</ele><time>2026-04-25T07:16:43Z</time></trkpt><trkpt lat="44.75667904797533" lon="10.229623380069903"><ele>114.0</ele><time>2026-04-25T07:16:44Z</time></trkpt><trkpt lat="44.756758375647976" lon="10.22951426135294"><ele>113.75</ele><time>2026-04-25T07:16:45Z</time></trkpt><trkpt lat="44.7568401565618" lon="10.229407108852437"><ele>113.5</ele><time>2026-04-25T07:16:46Z</time></trkpt><trkpt lat="44.756926008556675" lon="10.229294621795239"><ele>113.25</ele><time>2026-04-25T07:16:47Z</time></trkpt><trkpt lat="44.757014962060396" lon="10.229164027863282"><ele>113.0</ele><time>2026-04-25T07:16:48Z</time></trkpt><trkpt lat="44.75709775701597" lon="10.229020681375722"><ele>111.5</ele><time>2026-04-25T07:16:49Z</time></trkpt><trkpt lat="44.75717692060074" lon="10.228874310964695"><ele>110.0</ele><time>2026-04-25T07:16:50Z</time></trkpt><trkpt lat="44.75725084178674" lon="10.22873504801042"><ele>108.5</ele><time>2026-04-25T07:16:51Z</time></trkpt><trkpt lat="44.757321144875746" lon="10.22859584216621"><ele>107.0</ele><time>2026-04-25T07:16:52Z</time></trkpt><trkpt lat="44.757390123797286" lon="10.228446789008114"><ele>107.0</ele><time>2026-04-25T07:16:53Z</time></trkpt><trkpt lat="44.75745831467351" lon="10.228296846433846"><ele>107.0</ele><time>2026-04-25T07:16:54Z</time></trkpt><trkpt lat="44.75751865636472" lon="10.228154123772262"><ele>107.0</ele><time>2026-04-25T07:16:55Z</time></trkpt><trkpt lat="44.75757404823879" lon="10.228020448805758"><ele>107.0</ele><time>2026-04-25T07:16:56Z</time></trkpt><trkpt lat="44.75763104407456" lon="10.227877917223703"><ele>107.6</ele><time>2026-04-25T07:16:57Z</time></trkpt><trkpt lat="44.75768353182857" lon="10.227736916268256"><ele>108.19999999999999</ele><time>2026-04-25T07:16:58Z</time></trkpt><trkpt lat="44.757730222178" lon="10.22760290291498"><ele>108.8</ele><time>2026-04-25T07:16:59Z</time></trkpt><trkpt lat="44.75777842436171" lon="10.227461856736756"><ele>109.4</ele><time>2026-04-25T07:17:00Z</time></trkpt><trkpt lat="44.75782406200682" lon="10.227318638605347"><ele>110.0</ele><time>2026-04-25T07:17:01Z</time></trkpt><trkpt lat="44.75786597602467" lon="10.227174452105176"><ele>110.0</ele><time>2026-04-25T07:17:02Z</time></trkpt><trkpt lat="44.75790910105458" lon="10.227019494290019"><ele>110.0</ele><time>2026-04-25T07:17:03Z</time></trkpt><trkpt lat="44.75795446815444" lon="10.22685548124288"><ele>110.0</ele><time>2026-04-25T07:17:04Z</time></trkpt><trkpt lat="44.75799790763048" lon="10.226677319908568"><ele>110.0</ele><time>2026-04-25T07:17:04.999Z</time></trkpt><trkpt lat="44.75803851567198" lon="10.226489732013537"><ele>110.0</ele><time>2026-04-25T07:17:05.999Z</time></trkpt><trkpt lat="44.758075143824435" lon="10.22629822824734"><ele>110.0</ele><time>2026-04-25T07:17:06.999Z</time></trkpt><trkpt lat="44.75811036354905" lon="10.226082851556233"><ele>110.0</ele><time>2026-04-25T07:17:07.999Z</time></trkpt><trkpt lat="44.7581411179427" lon="10.225858665308861"><ele>110.33333333333333</ele><time>2026-04-25T07:17:08.999Z</time></trkpt><trkpt lat="44.75816817976714" lon="10.225623576940245"><ele>110.66666666666666</ele><time>2026-04-25T07:17:09.999Z</time></trkpt><trkpt lat="44.75818735567118" lon="10.225384625541137"><ele>111.0</ele><time>2026-04-25T07:17:10.999Z</time></trkpt><trkpt lat="44.758201274906774" lon="10.225134321406578"><ele>111.0</ele><time>2026-04-25T07:17:11.999Z</time></trkpt><trkpt lat="44.758210858715785" lon="10.224884396932746"><ele>111.0</ele><time>2026-04-25T07:17:12.999Z</time></trkpt><trkpt lat="44.75821846607414" lon="10.224635641387271"><ele>111.0</ele><time>2026-04-25T07:17:13.999Z</time></trkpt><trkpt lat="44.75821785826213" lon="10.22437465205792"><ele>110.33333333333334</ele><time>2026-04-25T07:17:14.999Z</time></trkpt><trkpt lat="44.75820947582418" lon="10.224127052827386"><ele>109.66666666666667</ele><time>2026-04-25T07:17:15.999Z</time></trkpt><trkpt lat="44.75819603556815" lon="10.223877903786283"><ele>109.0</ele><time>2026-04-25T07:17:16.999Z</time></trkpt><trkpt lat="44.758175075252154" lon="10.22363837192521"><ele>109.0</ele><time>2026-04-25T07:17:17.999Z</time></trkpt><trkpt lat="44.75814780748874" lon="10.223404708225036"><ele>109.0</ele><time>2026-04-25T07:17:18.999Z</time></trkpt><trkpt lat="44.75811678720781" lon="10.223173649652956"><ele>109.0</ele><time>2026-04-25T07:17:19.999Z</time></trkpt><trkpt lat="44.75807930132508" lon="10.222941237162216"><ele>109.0</ele><time>2026-04-25T07:17:20.999Z</time></trkpt><trkpt lat="44.75803617611339" lon="10.222707199483452"><ele>109.0</ele><time>2026-04-25T07:17:21.999Z</time></trkpt><trkpt lat="44.75799313009409" lon="10.222477819116062"><ele>109.0</ele><time>2026-04-25T07:17:22.999Z</time></trkpt><trkpt lat="44.757953714466495" lon="10.222241493850085"><ele>109.33333333333334</ele><time>2026-04-25T07:17:23.999Z</time></trkpt><trkpt lat="44.757920581212545" lon="10.222005385040788"><ele>109.66666666666666</ele><time>2026-04-25T07:17:24.999Z</time></trkpt><trkpt lat="44.757886729482664" lon="10.221764758958438"><ele>110.0</ele><time>2026-04-25T07:17:25.999Z</time></trkpt><trkpt lat="44.75785249374509" lon="10.221537459820086"><ele>109.66666666666666</ele><time>2026-04-25T07:17:26.999Z</time></trkpt><trkpt lat="44.75781425859962" lon="10.221298551725841"><ele>109.33333333333334</ele><time>2026-04-25T07:17:27.999Z</time></trkpt><trkpt lat="44.75777337827641" lon="10.221059889892112"><ele>109.0</ele><time>2026-04-25T07:17:28.999Z</time></trkpt><trkpt lat="44.75773398110234" lon="10.22082256987799"><ele>108.66666666666667</ele><time>2026-04-25T07:17:29.999Z</time></trkpt><trkpt lat="44.7576929017618" lon="10.220580843380466"><ele>108.33333333333334</ele><time>2026-04-25T07:17:30.999Z</time></trkpt><trkpt lat="44.75765477943782" lon="10.220342341443962"><ele>108.0</ele><time>2026-04-25T07:17:31.999Z</time></trkpt><trkpt lat="44.75761639224736" lon="10.220099392365922"><ele>108.0</ele><time>2026-04-25T07:17:32.999Z</time></trkpt><trkpt lat="44.757578635750654" lon="10.219854060638049"><ele>108.0</ele><time>2026-04-25T07:17:33.999Z</time></trkpt><trkpt lat="44.75753917189229" lon="10.2196097735218"><ele>108.0</ele><time>2026-04-25T07:17:34.999Z</time></trkpt><trkpt lat="44.757502718543826" lon="10.21937082692461"><ele>108.33333333333334</ele><time>2026-04-25T07:17:35.999Z</time></trkpt><trkpt lat="44.757464402369635" lon="10.219126784867168"><ele>108.66666666666667</ele><time>2026-04-25T07:17:36.999Z</time></trkpt><trkpt lat="44.7574265607274" lon="10.218884100232886"><ele>109.0</ele><time>2026-04-25T07:17:37.999Z</time></trkpt><trkpt lat="44.75739087316062" lon="10.218639726169116"><ele>109.0</ele><time>2026-04-25T07:17:38.999Z</time></trkpt><trkpt lat="44.75735857308001" lon="10.218400103113355"><ele>109.0</ele><time>2026-04-25T07:17:39.999Z</time></trkpt><trkpt lat="44.75732905750585" lon="10.21815610819212"><ele>109.0</ele><time>2026-04-25T07:17:40.999Z</time></trkpt><trkpt lat="44.75730547687324" lon="10.217912350222527"><ele>108.0</ele><time>2026-04-25T07:17:41.999Z</time></trkpt><trkpt lat="44.75728649182171" lon="10.2176652105772"><ele>107.0</ele><time>2026-04-25T07:17:42.999Z</time></trkpt><trkpt lat="44.7572742523285" lon="10.21741675270956"><ele>106.0</ele><time>2026-04-25T07:17:43.999Z</time></trkpt><trkpt lat="44.75726506328119" lon="10.217168974929093"><ele>106.0</ele><time>2026-04-25T07:17:44.999Z</time></trkpt><trkpt lat="44.75725937980685" lon="10.216918749499415"><ele>106.0</ele><time>2026-04-25T07:17:45.999Z</time></trkpt><trkpt lat="44.7572586312162" lon="10.21666995116038"><ele>106.0</ele><time>2026-04-25T07:17:46.999Z</time></trkpt><trkpt lat="44.757260005819674" lon="10.216424470026649"><ele>106.66666666666667</ele><time>2026-04-25T07:17:47.999Z</time></trkpt><trkpt lat="44.7572671320357" lon="10.216181550337145"><ele>107.33333333333334</ele><time>2026-04-25T07:17:48.999Z</time></trkpt><trkpt lat="44.757281949505504" lon="10.215937089768445"><ele>108.0</ele><time>2026-04-25T07:17:49.999Z</time></trkpt><trkpt lat="44.75729987555558" lon="10.215688941188578"><ele>107.66666666666666</ele><time>2026-04-25T07:17:50.999Z</time></trkpt><trkpt lat="44.75731543117616" lon="10.215444741198601"><ele>107.33333333333333</ele><time>2026-04-25T07:17:51.999Z</time></trkpt><trkpt lat="44.75732469936606" lon="10.2152022524614"><ele>107.0</ele><time>2026-04-25T07:17:52.999Z</time></trkpt><trkpt lat="44.75735175886037" lon="10.21495262712025"><ele>107.0</ele><time>2026-04-25T07:17:54Z</time></trkpt><trkpt lat="44.757364733561175" lon="10.21470012205241"><ele>107.0</ele><time>2026-04-25T07:17:55Z</time></trkpt><trkpt lat="44.75738955786618" lon="10.214448565321518"><ele>107.0</ele><time>2026-04-25T07:17:56Z</time></trkpt><trkpt lat="44.757419606311956" lon="10.214204157999914"><ele>106.33333333333333</ele><time>2026-04-25T07:17:57Z</time></trkpt><trkpt lat="44.757458351959855" lon="10.213951223758993"><ele>105.66666666666666</ele><time>2026-04-25T07:17:58Z</time></trkpt><trkpt lat="44.757503991258076" lon="10.21370350166407"><ele>105.0</ele><time>2026-04-25T07:17:59Z</time></trkpt><trkpt lat="44.75755200514014" lon="10.213472209704026"><ele>105.0</ele><time>2026-04-25T07:18:00Z</time></trkpt><trkpt lat="44.7576042944616" lon="10.213250230669843"><ele>105.0</ele><time>2026-04-25T07:18:01Z</time></trkpt><trkpt lat="44.75766096494901" lon="10.213026661710723"><ele>105.0</ele><time>2026-04-25T07:18:02Z</time></trkpt><trkpt lat="44.75772248287129" lon="10.212786820336696"><ele>104.66666666666666</ele><time>2026-04-25T07:18:03Z</time></trkpt><trkpt lat="44.75778844998296" lon="10.212556676799464"><ele>104.33333333333333</ele><time>2026-04-25T07:18:04Z</time></trkpt><trkpt lat="44.757857707270894" lon="10.212332276283844"><ele>104.0</ele><time>2026-04-25T07:18:05Z</time></trkpt><trkpt lat="44.75792864260501" lon="10.212107891667003"><ele>104.0</ele><time>2026-04-25T07:18:06Z</time></trkpt><trkpt lat="44.75800725480047" lon="10.211897905670822"><ele>104.0</ele><time>2026-04-25T07:18:07Z</time></trkpt><trkpt lat="44.758085308938156" lon="10.211706036466227"><ele>104.0</ele><time>2026-04-25T07:18:08Z</time></trkpt><trkpt lat="44.758161736455406" lon="10.211510666384116"><ele>104.66666666666666</ele><time>2026-04-25T07:18:09Z</time></trkpt><trkpt lat="44.758237592812456" lon="10.211306657372466"><ele>105.33333333333334</ele><time>2026-04-25T07:18:10Z</time></trkpt><trkpt lat="44.75832118252952" lon="10.211089819598971"><ele>106.0</ele><time>2026-04-25T07:18:11Z</time></trkpt><trkpt lat="44.758408323635145" lon="10.210878862171906"><ele>106.0</ele><time>2026-04-25T07:18:12Z</time></trkpt><trkpt lat="44.758490810639614" lon="10.210676929026334"><ele>106.0</ele><time>2026-04-25T07:18:13Z</time></trkpt><trkpt lat="44.75857053846062" lon="10.21047877402815"><ele>106.0</ele><time>2026-04-25T07:18:14Z</time></trkpt><trkpt lat="44.75864852142489" lon="10.21027626164259"><ele>104.66666666666667</ele><time>2026-04-25T07:18:15Z</time></trkpt><trkpt lat="44.758724591193875" lon="10.210072051662001"><ele>103.33333333333334</ele><time>2026-04-25T07:18:16Z</time></trkpt><trkpt lat="44.7588004331099" lon="10.209869684325078"><ele>102.0</ele><time>2026-04-25T07:18:17Z</time></trkpt><trkpt lat="44.7588785735361" lon="10.209663125783841"><ele>102.0</ele><time>2026-04-25T07:18:18Z</time></trkpt><trkpt lat="44.75895951047359" lon="10.209453930701292"><ele>102.0</ele><time>2026-04-25T07:18:19Z</time></trkpt><trkpt lat="44.759040724743215" lon="10.209244383684617"><ele>102.0</ele><time>2026-04-25T07:18:20Z</time></trkpt><trkpt lat="44.75912535693567" lon="10.209033820675607"><ele>101.66666666666666</ele><time>2026-04-25T07:18:21Z</time></trkpt><trkpt lat="44.75920985996172" lon="10.208818927036646"><ele>101.33333333333333</ele><time>2026-04-25T07:18:22Z</time></trkpt><trkpt lat="44.759292010900026" lon="10.208605035190716"><ele>101.0</ele><time>2026-04-25T07:18:23Z</time></trkpt><trkpt lat="44.75937081928191" lon="10.208386979315923"><ele>100.66666666666666</ele><time>2026-04-25T07:18:24Z</time></trkpt><trkpt lat="44.759439270956996" lon="10.208158315683571"><ele>100.33333333333334</ele><time>2026-04-25T07:18:25Z</time></trkpt><trkpt lat="44.75949312339823" lon="10.207915052341127"><ele>100.0</ele><time>2026-04-25T07:18:26Z</time></trkpt><trkpt lat="44.759538052945" lon="10.20766907347262"><ele>100.0</ele><time>2026-04-25T07:18:27Z</time></trkpt><trkpt lat="44.75957145735968" lon="10.207418691379273"><ele>100.0</ele><time>2026-04-25T07:18:28Z</time></trkpt><trkpt lat="44.7595967033962" lon="10.207163969118225"><ele>100.0</ele><time>2026-04-25T07:18:29Z</time></trkpt><trkpt lat="44.7596110604316" lon="10.206927364755057"><ele>98.66666666666667</ele><time>2026-04-25T07:18:30Z</time></trkpt><trkpt lat="44.7596102316437" lon="10.206689702546267"><ele>97.33333333333334</ele><time>2026-04-25T07:18:31Z</time></trkpt><trkpt lat="44.75960280763252" lon="10.206472090098746"><ele>96.0</ele><time>2026-04-25T07:18:32Z</time></trkpt><trkpt lat="44.75958822697571" lon="10.206267583698342"><ele>96.0</ele><time>2026-04-25T07:18:33Z</time></trkpt><trkpt lat="44.75956163380442" lon="10.206067551720995"><ele>96.0</ele><time>2026-04-25T07:18:34Z</time></trkpt><trkpt lat="44.75953041409569" lon="10.205859269878799"><ele>96.0</ele><time>2026-04-25T07:18:35Z</time></trkpt><trkpt lat="44.759492105215635" lon="10.20564481671636"><ele>96.25</ele><time>2026-04-25T07:18:36Z</time></trkpt><trkpt lat="44.75944881078772" lon="10.205439759860521"><ele>96.5</ele><time>2026-04-25T07:18:37Z</time></trkpt><trkpt lat="44.75940030270984" lon="10.2052463761489"><ele>96.75</ele><time>2026-04-25T07:18:38Z</time></trkpt><trkpt lat="44.75935518334296" lon="10.205063461541288"><ele>97.0</ele><time>2026-04-25T07:18:39Z</time></trkpt><trkpt lat="44.75931752656827" lon="10.20489021111825"><ele>97.6</ele><time>2026-04-25T07:18:40Z</time></trkpt><trkpt lat="44.759292430434826" lon="10.2047311498927"><ele>98.19999999999999</ele><time>2026-04-25T07:18:41Z</time></trkpt><trkpt lat="44.75926402698716" lon="10.204579145114216"><ele>98.8</ele><time>2026-04-25T07:18:42Z</time></trkpt><trkpt lat="44.75922908595965" lon="10.204441477072574"><ele>99.4</ele><time>2026-04-25T07:18:43Z</time></trkpt><trkpt lat="44.75921807434254" lon="10.20431438613771"><ele>100.0</ele><time>2026-04-25T07:18:44Z</time></trkpt><trkpt lat="44.75924314470785" lon="10.204188991829236"><ele>100.0</ele><time>2026-04-25T07:18:45Z</time></trkpt><trkpt lat="44.75930232123109" lon="10.204057279490726"><ele>100.0</ele><time>2026-04-25T07:18:46Z</time></trkpt><trkpt lat="44.75937782973139" lon="10.203923734949313"><ele>100.0</ele><time>2026-04-25T07:18:47Z</time></trkpt><trkpt lat="44.75943561866579" lon="10.203755840402948"><ele>100.0</ele><time>2026-04-25T07:18:48Z</time></trkpt><trkpt lat="44.75944399108824" lon="10.203568662145521"><ele>99.66666666666667</ele><time>2026-04-25T07:18:49Z</time></trkpt><trkpt lat="44.759406408375945" lon="10.203370808621452"><ele>99.33333333333334</ele><time>2026-04-25T07:18:50Z</time></trkpt><trkpt lat="44.75933202096992" lon="10.20318300724254"><ele>99.0</ele><time>2026-04-25T07:18:51Z</time></trkpt><trkpt lat="44.75925884958753" lon="10.202987760918184"><ele>99.0</ele><time>2026-04-25T07:18:52Z</time></trkpt><trkpt lat="44.75923002307904" lon="10.202772785924804"><ele>99.0</ele><time>2026-04-25T07:18:53Z</time></trkpt><trkpt lat="44.75920572560697" lon="10.202548524299283"><ele>99.0</ele><time>2026-04-25T07:18:54Z</time></trkpt><trkpt lat="44.759327758590715" lon="10.202298888981334"><ele>98.66666666666666</ele><time>2026-04-25T07:18:55Z</time></trkpt><trkpt lat="44.759414499063666" lon="10.202040801564785"><ele>98.33333333333333</ele><time>2026-04-25T07:18:56Z</time></trkpt><trkpt lat="44.75949493232343" lon="10.201745423780151"><ele>98.0</ele><time>2026-04-25T07:18:57Z</time></trkpt><trkpt lat="44.759570822740606" lon="10.201446570306489"><ele>98.0</ele><time>2026-04-25T07:18:58Z</time></trkpt><trkpt lat="44.75965132944771" lon="10.201125151230414"><ele>98.0</ele><time>2026-04-25T07:18:59Z</time></trkpt><trkpt lat="44.75973671496319" lon="10.200773650738842"><ele>97.0</ele><time>2026-04-25T07:19:00Z</time></trkpt><trkpt lat="44.75982442612669" lon="10.20041559014219"><ele>96.0</ele><time>2026-04-25T07:19:01Z</time></trkpt><trkpt lat="44.75990509749477" lon="10.200093595374545"><ele>96.0</ele><time>2026-04-25T07:19:02Z</time></trkpt><trkpt lat="44.759982095661044" lon="10.19979116744703"><ele>96.0</ele><time>2026-04-25T07:19:03Z</time></trkpt><trkpt lat="44.76005910545422" lon="10.199485921775842"><ele>96.0</ele><time>2026-04-25T07:19:04Z</time></trkpt><trkpt lat="44.76014115823638" lon="10.199167134314964"><ele>96.0</ele><time>2026-04-25T07:19:05Z</time></trkpt><trkpt lat="44.76022277682446" lon="10.198853573688071"><ele>97.0</ele><time>2026-04-25T07:19:05.999Z</time></trkpt><trkpt lat="44.76030458175883" lon="10.198539039042064"><ele>98.0</ele><time>2026-04-25T07:19:06.999Z</time></trkpt><trkpt lat="44.76038380032329" lon="10.198229721403496"><ele>97.5</ele><time>2026-04-25T07:19:07.999Z</time></trkpt><trkpt lat="44.76045933393469" lon="10.19792106119489"><ele>97.0</ele><time>2026-04-25T07:19:08.999Z</time></trkpt><trkpt lat="44.7605380137142" lon="10.197613361186308"><ele>96.0</ele><time>2026-04-25T07:19:09.999Z</time></trkpt><trkpt lat="44.76061948212953" lon="10.197307912169666"><ele>95.0</ele><time>2026-04-25T07:19:10.999Z</time></trkpt><trkpt lat="44.76070555419441" lon="10.197002513435681"><ele>95.0</ele><time>2026-04-25T07:19:11.999Z</time></trkpt><trkpt lat="44.76079697650659" lon="10.196684448315573"><ele>95.0</ele><time>2026-04-25T07:19:12.999Z</time></trkpt><trkpt lat="44.76089377594093" lon="10.19635453571045"><ele>94.5</ele><time>2026-04-25T07:19:13.999Z</time></trkpt><trkpt lat="44.76099588305784" lon="10.196023760086193"><ele>94.0</ele><time>2026-04-25T07:19:14.999Z</time></trkpt><trkpt lat="44.76110047306739" lon="10.195685163224379"><ele>93.0</ele><time>2026-04-25T07:19:15.999Z</time></trkpt><trkpt lat="44.761209183447434" lon="10.195351523828082"><ele>92.0</ele><time>2026-04-25T07:19:16.999Z</time></trkpt><trkpt lat="44.76131747555401" lon="10.195013511967431"><ele>92.0</ele><time>2026-04-25T07:19:17.999Z</time></trkpt><trkpt lat="44.76142532638413" lon="10.194671055509602"><ele>92.0</ele><time>2026-04-25T07:19:18.999Z</time></trkpt><trkpt lat="44.76153314961912" lon="10.194335248308679"><ele>92.5</ele><time>2026-04-25T07:19:19.999Z</time></trkpt><trkpt lat="44.7616402179383" lon="10.194004859385705"><ele>93.0</ele><time>2026-04-25T07:19:20.999Z</time></trkpt><trkpt lat="44.76175170562403" lon="10.193667300995523"><ele>93.0</ele><time>2026-04-25T07:19:21.999Z</time></trkpt><trkpt lat="44.761858680421426" lon="10.193337480110056"><ele>93.0</ele><time>2026-04-25T07:19:22.999Z</time></trkpt><trkpt lat="44.7619655325129" lon="10.193006581698885"><ele>92.0</ele><time>2026-04-25T07:19:23.999Z</time></trkpt><trkpt lat="44.76208989815854" lon="10.192653795958423"><ele>91.0</ele><time>2026-04-25T07:19:24.999Z</time></trkpt><trkpt lat="44.7621878144525" lon="10.192334570640774"><ele>91.0</ele><time>2026-04-25T07:19:25.999Z</time></trkpt><trkpt lat="44.76229420882709" lon="10.192003968109297"><ele>91.0</ele><time>2026-04-25T07:19:26.999Z</time></trkpt><trkpt lat="44.76240174496802" lon="10.19167551608255"><ele>91.0</ele><time>2026-04-25T07:19:27.999Z</time></trkpt><trkpt lat="44.76250558812995" lon="10.191344345621776"><ele>91.0</ele><time>2026-04-25T07:19:28.999Z</time></trkpt><trkpt lat="44.762605535991966" lon="10.191024433096628"><ele>90.0</ele><time>2026-04-25T07:19:29.999Z</time></trkpt><trkpt lat="44.76270809186589" lon="10.190703261178536"><ele>89.0</ele><time>2026-04-25T07:19:30.999Z</time></trkpt><trkpt lat="44.762809973203325" lon="10.190378932885913"><ele>88.0</ele><time>2026-04-25T07:19:31.999Z</time></trkpt><trkpt lat="44.76291582816758" lon="10.19005976304018"><ele>87.0</ele><time>2026-04-25T07:19:32.999Z</time></trkpt><trkpt lat="44.76302546635794" lon="10.189732619031389"><ele>87.0</ele><time>2026-04-25T07:19:33.999Z</time></trkpt><trkpt lat="44.763133800441686" lon="10.189397239331035"><ele>87.0</ele><time>2026-04-25T07:19:34.999Z</time></trkpt><trkpt lat="44.76324415904371" lon="10.189059585082134"><ele>88.0</ele><time>2026-04-25T07:19:35.999Z</time></trkpt><trkpt lat="44.76335867734831" lon="10.188721197890942"><ele>89.0</ele><time>2026-04-25T07:19:36.999Z</time></trkpt><trkpt lat="44.76347211890076" lon="10.188380786056978"><ele>90.0</ele><time>2026-04-25T07:19:37.999Z</time></trkpt><trkpt lat="44.76358653949511" lon="10.188030171948059"><ele>91.0</ele><time>2026-04-25T07:19:38.999Z</time></trkpt><trkpt lat="44.76370085051834" lon="10.187686760017128"><ele>91.5</ele><time>2026-04-25T07:19:39.999Z</time></trkpt><trkpt lat="44.76381192662079" lon="10.187332778679231"><ele>92.0</ele><time>2026-04-25T07:19:40.999Z</time></trkpt><trkpt lat="44.76392724633205" lon="10.186982840067854"><ele>92.0</ele><time>2026-04-25T07:19:41.999Z</time></trkpt><trkpt lat="44.76403936620824" lon="10.186635588444057"><ele>92.0</ele><time>2026-04-25T07:19:42.999Z</time></trkpt><trkpt lat="44.76414967609315" lon="10.186268208911432"><ele>92.0</ele><time>2026-04-25T07:19:43.999Z</time></trkpt><trkpt lat="44.764264536830225" lon="10.185910022449086"><ele>92.0</ele><time>2026-04-25T07:19:44.999Z</time></trkpt><trkpt lat="44.76438325918553" lon="10.185542814946624"><ele>89.5</ele><time>2026-04-25T07:19:45.999Z</time></trkpt><trkpt lat="44.76450230619" lon="10.185177927059499"><ele>87.0</ele><time>2026-04-25T07:19:46.999Z</time></trkpt><trkpt lat="44.76461999419418" lon="10.184811797826274"><ele>85.5</ele><time>2026-04-25T07:19:47.999Z</time></trkpt><trkpt lat="44.764739500818685" lon="10.184439021046208"><ele>84.0</ele><time>2026-04-25T07:19:48.999Z</time></trkpt><trkpt lat="44.76486090387298" lon="10.184078637448378"><ele>83.0</ele><time>2026-04-25T07:19:49.999Z</time></trkpt><trkpt lat="44.76498094689162" lon="10.18371004382208"><ele>82.0</ele><time>2026-04-25T07:19:50.999Z</time></trkpt><trkpt lat="44.76510210047867" lon="10.18333021873973"><ele>82.0</ele><time>2026-04-25T07:19:51.999Z</time></trkpt><trkpt lat="44.76522157163698" lon="10.182960603557618"><ele>82.0</ele><time>2026-04-25T07:19:52.999Z</time></trkpt><trkpt lat="44.765343228565015" lon="10.182583683892112"><ele>81.5</ele><time>2026-04-25T07:19:53.999Z</time></trkpt><trkpt lat="44.76546277080015" lon="10.182207293782271"><ele>81.0</ele><time>2026-04-25T07:19:54.999Z</time></trkpt><trkpt lat="44.765586916040576" lon="10.181829899092607"><ele>81.0</ele><time>2026-04-25T07:19:55.999Z</time></trkpt><trkpt lat="44.765712545939714" lon="10.181444709718212"><ele>81.0</ele><time>2026-04-25T07:19:56.999Z</time></trkpt><trkpt lat="44.765839282294095" lon="10.181059733651036"><ele>81.5</ele><time>2026-04-25T07:19:57.999Z</time></trkpt><trkpt lat="44.76596418115079" lon="10.180671922354241"><ele>82.0</ele><time>2026-04-25T07:19:58.999Z</time></trkpt><trkpt lat="44.76608817063469" lon="10.180285367316266"><ele>82.0</ele><time>2026-04-25T07:20:00Z</time></trkpt><trkpt lat="44.76621344913989" lon="10.17989986393239"><ele>82.0</ele><time>2026-04-25T07:20:01Z</time></trkpt><trkpt lat="44.76633819952" lon="10.179516107255955"><ele>82.5</ele><time>2026-04-25T07:20:02Z</time></trkpt><trkpt lat="44.7664629265524" lon="10.179133278601121"><ele>83.0</ele><time>2026-04-25T07:20:03Z</time></trkpt><trkpt lat="44.76658830882863" lon="10.178753639334161"><ele>84.0</ele><time>2026-04-25T07:20:04Z</time></trkpt><trkpt lat="44.76671228884736" lon="10.17837448174025"><ele>85.0</ele><time>2026-04-25T07:20:05Z</time></trkpt><trkpt lat="44.76683634074358" lon="10.178001304688348"><ele>85.0</ele><time>2026-04-25T07:20:06Z</time></trkpt><trkpt lat="44.76695811644823" lon="10.1776246295902"><ele>85.0</ele><time>2026-04-25T07:20:07Z</time></trkpt><trkpt lat="44.76707880432098" lon="10.177250919761416"><ele>85.0</ele><time>2026-04-25T07:20:08Z</time></trkpt><trkpt lat="44.76719731886446" lon="10.17688243486016"><ele>85.0</ele><time>2026-04-25T07:20:09Z</time></trkpt><trkpt lat="44.76731696030155" lon="10.176506333678969"><ele>85.0</ele><time>2026-04-25T07:20:10Z</time></trkpt><trkpt lat="44.76743905580408" lon="10.176134596218038"><ele>85.0</ele><time>2026-04-25T07:20:11Z</time></trkpt><trkpt lat="44.76756699188199" lon="10.175761956778711"><ele>84.5</ele><time>2026-04-25T07:20:12Z</time></trkpt><trkpt lat="44.767698501342494" lon="10.175383285565406"><ele>84.0</ele><time>2026-04-25T07:20:13Z</time></trkpt><trkpt lat="44.7678330437285" lon="10.17500116245665"><ele>83.0</ele><time>2026-04-25T07:20:14Z</time></trkpt><trkpt lat="44.76797199450878" lon="10.174620897964063"><ele>82.0</ele><time>2026-04-25T07:20:15Z</time></trkpt><trkpt lat="44.76811899120669" lon="10.174240727479171"><ele>82.0</ele><time>2026-04-25T07:20:16Z</time></trkpt><trkpt lat="44.76827400267304" lon="10.173868421436579"><ele>82.0</ele><time>2026-04-25T07:20:17Z</time></trkpt><trkpt lat="44.768435216009074" lon="10.173503639348745"><ele>83.5</ele><time>2026-04-25T07:20:18Z</time></trkpt><trkpt lat="44.76859672390197" lon="10.173144496018576"><ele>85.0</ele><time>2026-04-25T07:20:19Z</time></trkpt><trkpt lat="44.76876075669239" lon="10.17279668539014"><ele>85.0</ele><time>2026-04-25T07:20:20Z</time></trkpt><trkpt lat="44.768931863466854" lon="10.172446331612743"><ele>85.0</ele><time>2026-04-25T07:20:21Z</time></trkpt><trkpt lat="44.76911240663093" lon="10.172089566049287"><ele>85.0</ele><time>2026-04-25T07:20:22Z</time></trkpt><trkpt lat="44.76928721343217" lon="10.171763920523063"><ele>85.0</ele><time>2026-04-25T07:20:23Z</time></trkpt><trkpt lat="44.76944777754489" lon="10.171463891845324"><ele>86.0</ele><time>2026-04-25T07:20:24Z</time></trkpt><trkpt lat="44.769594500462006" lon="10.17120466063595"><ele>87.0</ele><time>2026-04-25T07:20:25Z</time></trkpt><trkpt lat="44.76973241520437" lon="10.170971190169704"><ele>87.0</ele><time>2026-04-25T07:20:26Z</time></trkpt><trkpt lat="44.76986162508499" lon="10.17075196571178"><ele>87.0</ele><time>2026-04-25T07:20:27Z</time></trkpt><trkpt lat="44.769974207198615" lon="10.170565252581827"><ele>87.0</ele><time>2026-04-25T07:20:28Z</time></trkpt><trkpt lat="44.77008091731155" lon="10.170391001742345"><ele>87.0</ele><time>2026-04-25T07:20:29Z</time></trkpt><trkpt lat="44.770178401616256" lon="10.170241716445531"><ele>87.0</ele><time>2026-04-25T07:20:30Z</time></trkpt><trkpt lat="44.77026336229719" lon="10.17011063960908"><ele>87.0</ele><time>2026-04-25T07:20:31Z</time></trkpt><trkpt lat="44.770355233133024" lon="10.170012724728206"><ele>87.0</ele><time>2026-04-25T07:20:32Z</time></trkpt><trkpt lat="44.770457804264886" lon="10.16995566777473"><ele>87.0</ele><time>2026-04-25T07:20:33Z</time></trkpt><trkpt lat="44.770564018554055" lon="10.169939985452425"><ele>87.0</ele><time>2026-04-25T07:20:34Z</time></trkpt><trkpt lat="44.77066434214568" lon="10.169909115083529"><ele>87.0</ele><time>2026-04-25T07:20:35Z</time></trkpt><trkpt lat="44.77075464742171" lon="10.169826926763673"><ele>87.0</ele><time>2026-04-25T07:20:36Z</time></trkpt><trkpt lat="44.77081604974358" lon="10.169704578371245"><ele>87.0</ele><time>2026-04-25T07:20:37Z</time></trkpt><trkpt lat="44.77083795946082" lon="10.169544782071911"><ele>86.25</ele><time>2026-04-25T07:20:38Z</time></trkpt><trkpt lat="44.7708031062577" lon="10.169392668358771"><ele>85.5</ele><time>2026-04-25T07:20:39Z</time></trkpt><trkpt lat="44.77072079716351" lon="10.169278869186451"><ele>84.75</ele><time>2026-04-25T07:20:40Z</time></trkpt><trkpt lat="44.77061064306651" lon="10.16922582652934"><ele>84.0</ele><time>2026-04-25T07:20:41Z</time></trkpt><trkpt lat="44.77049601187639" lon="10.169243225492782"><ele>84.0</ele><time>2026-04-25T07:20:42Z</time></trkpt><trkpt lat="44.77038665035351" lon="10.169316788949741"><ele>84.0</ele><time>2026-04-25T07:20:43Z</time></trkpt><trkpt lat="44.770325687096566" lon="10.169438641133253"><ele>84.0</ele><time>2026-04-25T07:20:44Z</time></trkpt><trkpt lat="44.77029192385831" lon="10.169528384344677"><ele>84.0</ele><time>2026-04-25T07:20:46Z</time></trkpt><trkpt lat="44.77023218357308" lon="10.169470832132305"><ele>84.0</ele><time>2026-04-25T07:20:47Z</time></trkpt><trkpt lat="44.77019488650369" lon="10.16938310331207"><ele>84.0</ele><time>2026-04-25T07:21:00Z</time></trkpt><trkpt lat="44.77012476338821" lon="10.169355561205"><ele>84.0</ele><time>2026-04-25T07:21:01Z</time></trkpt><trkpt lat="44.77001039603675" lon="10.16933014102758"><ele>84.0</ele><time>2026-04-25T07:21:02Z</time></trkpt><trkpt lat="44.769887973357086" lon="10.169279602198221"><ele>84.0</ele><time>2026-04-25T07:21:03Z</time></trkpt><trkpt lat="44.76974423860801" lon="10.169193493678609"><ele>84.0</ele><time>2026-04-25T07:21:04Z</time></trkpt><trkpt lat="44.76966074416104" lon="10.169141142899214"><ele>84.0</ele><time>2026-04-25T07:21:05Z</time></trkpt><trkpt lat="44.76956395130627" lon="10.169054093000335"><ele>84.0</ele><time>2026-04-25T07:21:06Z</time></trkpt><trkpt lat="44.76948187315271" lon="10.168963545042548"><ele>84.0</ele><time>2026-04-25T07:21:07Z</time></trkpt><trkpt lat="44.769403566142095" lon="10.168876059776153"><ele>84.0</ele><time>2026-04-25T07:21:07.999Z</time></trkpt><trkpt lat="44.7693214439826" lon="10.1687854790176"><ele>84.0</ele><time>2026-04-25T07:21:08.999Z</time></trkpt><trkpt lat="44.769226458444756" lon="10.168697314797454"><ele>84.75</ele><time>2026-04-25T07:21:09.999Z</time></trkpt><trkpt lat="44.769132171878574" lon="10.168591260720937"><ele>85.5</ele><time>2026-04-25T07:21:10.999Z</time></trkpt><trkpt lat="44.76903531368927" lon="10.168487794700125"><ele>86.25</ele><time>2026-04-25T07:21:11.999Z</time></trkpt><trkpt lat="44.768939449475404" lon="10.168383607195794"><ele>87.0</ele><time>2026-04-25T07:21:12.999Z</time></trkpt><trkpt lat="44.76884482268256" lon="10.168280050074365"><ele>86.8</ele><time>2026-04-25T07:21:13.999Z</time></trkpt><trkpt lat="44.768755986322454" lon="10.168183389043953"><ele>86.6</ele><time>2026-04-25T07:21:14.999Z</time></trkpt><trkpt lat="44.76868160938636" lon="10.168102010203047"><ele>86.39999999999999</ele><time>2026-04-25T07:21:15.999Z</time></trkpt><trkpt lat="44.7686103770658" lon="10.168025522168788"><ele>86.19999999999999</ele><time>2026-04-25T07:21:16.999Z</time></trkpt><trkpt lat="44.76853684102624" lon="10.167944222306764"><ele>86.0</ele><time>2026-04-25T07:21:17.999Z</time></trkpt><trkpt lat="44.768464083155166" lon="10.167864833159587"><ele>86.0</ele><time>2026-04-25T07:21:18.999Z</time></trkpt><trkpt lat="44.76841420425538" lon="10.167806644535057"><ele>86.0</ele><time>2026-04-25T07:21:19.999Z</time></trkpt><trkpt lat="44.76847761121298" lon="10.167969345978655"><ele>86.0</ele><time>2026-04-25T07:21:27.999Z</time></trkpt><trkpt lat="44.76858527504334" lon="10.16806505605376"><ele>86.0</ele><time>2026-04-25T07:21:28.999Z</time></trkpt><trkpt lat="44.76873235343951" lon="10.168217740063296"><ele>86.33333333333334</ele><time>2026-04-25T07:21:29.999Z</time></trkpt><trkpt lat="44.76888053565492" lon="10.168388867740623"><ele>86.66666666666667</ele><time>2026-04-25T07:21:30.999Z</time></trkpt><trkpt lat="44.76906569369406" lon="10.16858970648226"><ele>87.0</ele><time>2026-04-25T07:21:31.999Z</time></trkpt><trkpt lat="44.76924598761391" lon="10.16877775301104"><ele>86.0</ele><time>2026-04-25T07:21:32.999Z</time></trkpt><trkpt lat="44.769429524575855" lon="10.168977201506376"><ele>85.0</ele><time>2026-04-25T07:21:33.999Z</time></trkpt><trkpt lat="44.7695772773895" lon="10.169152687516846"><ele>84.0</ele><time>2026-04-25T07:21:34.999Z</time></trkpt><trkpt lat="44.7697060186325" lon="10.16928206069275"><ele>84.0</ele><time>2026-04-25T07:21:35.999Z</time></trkpt><trkpt lat="44.769832572144416" lon="10.1693449362965"><ele>84.0</ele><time>2026-04-25T07:21:36.999Z</time></trkpt><trkpt lat="44.76995512313441" lon="10.169359670378704"><ele>84.0</ele><time>2026-04-25T07:21:37.999Z</time></trkpt><trkpt lat="44.77006014340978" lon="10.169391526562466"><ele>84.0</ele><time>2026-04-25T07:21:38.999Z</time></trkpt><trkpt lat="44.770147782195906" lon="10.169427025325273"><ele>84.0</ele><time>2026-04-25T07:21:39.999Z</time></trkpt><trkpt lat="44.77022672878355" lon="10.169454988005638"><ele>84.0</ele><time>2026-04-25T07:21:40.999Z</time></trkpt><trkpt lat="44.770285005449665" lon="10.169493719137664"><ele>84.0</ele><time>2026-04-25T07:21:41.999Z</time></trkpt><trkpt lat="44.77031669554078" lon="10.169580187555022"><ele>84.0</ele><time>2026-04-25T07:21:43.999Z</time></trkpt><trkpt lat="44.77034353971324" lon="10.169692557595068"><ele>84.0</ele><time>2026-04-25T07:21:45.999Z</time></trkpt><trkpt lat="44.770404611948045" lon="10.169836456299796"><ele>84.0</ele><time>2026-04-25T07:21:46.999Z</time></trkpt><trkpt lat="44.770495808225526" lon="10.169911470139613"><ele>84.0</ele><time>2026-04-25T07:21:47.999Z</time></trkpt><trkpt lat="44.770616139539754" lon="10.169914778209527"><ele>84.0</ele><time>2026-04-25T07:21:48.999Z</time></trkpt><trkpt lat="44.770736395457476" lon="10.169848628377292"><ele>84.0</ele><time>2026-04-25T07:21:49.999Z</time></trkpt><trkpt lat="44.770819882175395" lon="10.169718661703872"><ele>84.0</ele><time>2026-04-25T07:21:50.999Z</time></trkpt><trkpt lat="44.77086029667392" lon="10.169540415974591"><ele>84.0</ele><time>2026-04-25T07:21:51.999Z</time></trkpt><trkpt lat="44.770877758922204" lon="10.169334706539281"><ele>84.0</ele><time>2026-04-25T07:21:52.999Z</time></trkpt><trkpt lat="44.77090343542011" lon="10.169159049357747"><ele>84.0</ele><time>2026-04-25T07:21:53.999Z</time></trkpt><trkpt lat="44.7710470812697" lon="10.168999707612176"><ele>84.66666666666667</ele><time>2026-04-25T07:21:54.999Z</time></trkpt><trkpt lat="44.771173535031124" lon="10.168835136031518"><ele>85.33333333333334</ele><time>2026-04-25T07:21:55.999Z</time></trkpt><trkpt lat="44.77129289373241" lon="10.168655695877872"><ele>86.0</ele><time>2026-04-25T07:21:56.999Z</time></trkpt><trkpt lat="44.77142812751049" lon="10.16845915792887"><ele>86.0</ele><time>2026-04-25T07:21:57.999Z</time></trkpt><trkpt lat="44.771580047752124" lon="10.168297632118911"><ele>86.0</ele><time>2026-04-25T07:21:58.999Z</time></trkpt><trkpt lat="44.77170682369878" lon="10.168131124678418"><ele>86.0</ele><time>2026-04-25T07:21:59.999Z</time></trkpt><trkpt lat="44.771843425171845" lon="10.167978334336818"><ele>85.66666666666667</ele><time>2026-04-25T07:22:00.999Z</time></trkpt><trkpt lat="44.771980856222534" lon="10.167815079004368"><ele>85.33333333333333</ele><time>2026-04-25T07:22:01.999Z</time></trkpt><trkpt lat="44.77213020529302" lon="10.167645754486028"><ele>85.0</ele><time>2026-04-25T07:22:02.999Z</time></trkpt><trkpt lat="44.77228756645056" lon="10.167468681633071"><ele>85.33333333333333</ele><time>2026-04-25T07:22:03.999Z</time></trkpt><trkpt lat="44.77243619646763" lon="10.167313081693358"><ele>85.66666666666667</ele><time>2026-04-25T07:22:04.999Z</time></trkpt><trkpt lat="44.77259753463607" lon="10.167144064323233"><ele>86.0</ele><time>2026-04-25T07:22:06Z</time></trkpt><trkpt lat="44.772758560270056" lon="10.166974813807292"><ele>86.33333333333334</ele><time>2026-04-25T07:22:07Z</time></trkpt><trkpt lat="44.772927780285926" lon="10.166798658703105"><ele>86.66666666666667</ele><time>2026-04-25T07:22:08Z</time></trkpt><trkpt lat="44.77309859314284" lon="10.166617165664144"><ele>87.0</ele><time>2026-04-25T07:22:09Z</time></trkpt><trkpt lat="44.77327135540261" lon="10.166427919248411"><ele>87.5</ele><time>2026-04-25T07:22:10Z</time></trkpt><trkpt lat="44.773469545755646" lon="10.166249761110041"><ele>88.0</ele><time>2026-04-25T07:22:11Z</time></trkpt><trkpt lat="44.773676420657786" lon="10.166038416110865"><ele>88.0</ele><time>2026-04-25T07:22:12Z</time></trkpt><trkpt lat="44.77389924033107" lon="10.165811036334565"><ele>88.0</ele><time>2026-04-25T07:22:13Z</time></trkpt><trkpt lat="44.77411102749011" lon="10.16557458003091"><ele>88.0</ele><time>2026-04-25T07:22:14Z</time></trkpt><trkpt lat="44.77434049257245" lon="10.165361480673715"><ele>88.0</ele><time>2026-04-25T07:22:15Z</time></trkpt><trkpt lat="44.77457166979111" lon="10.165142896411949"><ele>88.0</ele><time>2026-04-25T07:22:16Z</time></trkpt><trkpt lat="44.77480991222694" lon="10.16490260194204"><ele>88.0</ele><time>2026-04-25T07:22:17Z</time></trkpt><trkpt lat="44.77504269241962" lon="10.164663593594248"><ele>91.0</ele><time>2026-04-25T07:22:18Z</time></trkpt><trkpt lat="44.77527957905004" lon="10.164418696520332"><ele>94.0</ele><time>2026-04-25T07:22:19Z</time></trkpt><trkpt lat="44.77551028107025" lon="10.164177793689818"><ele>97.5</ele><time>2026-04-25T07:22:20Z</time></trkpt><trkpt lat="44.775741181736855" lon="10.1639412249107"><ele>101.0</ele><time>2026-04-25T07:22:21Z</time></trkpt><trkpt lat="44.77597380440079" lon="10.163707166109472"><ele>103.5</ele><time>2026-04-25T07:22:22Z</time></trkpt><trkpt lat="44.77620720296204" lon="10.163464587172768"><ele>106.0</ele><time>2026-04-25T07:22:23Z</time></trkpt><trkpt lat="44.77644457933923" lon="10.163223303819848"><ele>105.0</ele><time>2026-04-25T07:22:24Z</time></trkpt><trkpt lat="44.77668760590306" lon="10.162973438791452"><ele>104.0</ele><time>2026-04-25T07:22:25Z</time></trkpt><trkpt lat="44.77692904418921" lon="10.162728195220774"><ele>104.0</ele><time>2026-04-25T07:22:26Z</time></trkpt><trkpt lat="44.7771737471883" lon="10.162480431428921"><ele>104.0</ele><time>2026-04-25T07:22:27Z</time></trkpt><trkpt lat="44.77740577662798" lon="10.162237452439697"><ele>102.5</ele><time>2026-04-25T07:22:28Z</time></trkpt><trkpt lat="44.777634569721286" lon="10.16199677919626"><ele>101.0</ele><time>2026-04-25T07:22:29Z</time></trkpt><trkpt lat="44.7778721211563" lon="10.16176217359002"><ele>101.0</ele><time>2026-04-25T07:22:30Z</time></trkpt><trkpt lat="44.77809903689624" lon="10.161535841194198"><ele>101.0</ele><time>2026-04-25T07:22:31Z</time></trkpt><trkpt lat="44.778318356862265" lon="10.161310273882417"><ele>101.0</ele><time>2026-04-25T07:22:32Z</time></trkpt><trkpt lat="44.77853202564298" lon="10.161091557085351"><ele>101.0</ele><time>2026-04-25T07:22:33Z</time></trkpt><trkpt lat="44.778740867847716" lon="10.160870043931483"><ele>102.5</ele><time>2026-04-25T07:22:34Z</time></trkpt><trkpt lat="44.7789554546663" lon="10.160648383598726"><ele>104.0</ele><time>2026-04-25T07:22:35Z</time></trkpt><trkpt lat="44.77916603351101" lon="10.160430934756883"><ele>105.5</ele><time>2026-04-25T07:22:36Z</time></trkpt><trkpt lat="44.77937121308518" lon="10.160213274276849"><ele>107.0</ele><time>2026-04-25T07:22:37Z</time></trkpt><trkpt lat="44.779556062708316" lon="10.16000635291452"><ele>107.66666666666666</ele><time>2026-04-25T07:22:38Z</time></trkpt><trkpt lat="44.779711953325204" lon="10.159820486576244"><ele>108.33333333333334</ele><time>2026-04-25T07:22:39Z</time></trkpt><trkpt lat="44.77984316197204" lon="10.159657438441505"><ele>109.0</ele><time>2026-04-25T07:22:40Z</time></trkpt><trkpt lat="44.77997063638556" lon="10.159533386296278"><ele>109.0</ele><time>2026-04-25T07:22:41Z</time></trkpt><trkpt lat="44.780056733486816" lon="10.159409075899086"><ele>109.0</ele><time>2026-04-25T07:22:42Z</time></trkpt><trkpt lat="44.780140643579706" lon="10.159365594750243"><ele>109.0</ele><time>2026-04-25T07:22:43Z</time></trkpt><trkpt lat="44.7802301327843" lon="10.159372491672968"><ele>109.0</ele><time>2026-04-25T07:22:44Z</time></trkpt><trkpt lat="44.78034676587915" lon="10.159381021281265"><ele>109.0</ele><time>2026-04-25T07:22:45Z</time></trkpt><trkpt lat="44.780457666617714" lon="10.159351366633015"><ele>109.0</ele><time>2026-04-25T07:22:46Z</time></trkpt><trkpt lat="44.780550196077115" lon="10.159257802038457"><ele>109.0</ele><time>2026-04-25T07:22:47Z</time></trkpt><trkpt lat="44.780627090871626" lon="10.159094070131104"><ele>109.0</ele><time>2026-04-25T07:22:48Z</time></trkpt><trkpt lat="44.78066349141461" lon="10.158877355939724"><ele>109.0</ele><time>2026-04-25T07:22:49Z</time></trkpt><trkpt lat="44.78070497240953" lon="10.158660449360333"><ele>109.0</ele><time>2026-04-25T07:22:50Z</time></trkpt><trkpt lat="44.78082157513055" lon="10.158479719933315"><ele>109.0</ele><time>2026-04-25T07:22:51Z</time></trkpt><trkpt lat="44.780996409184866" lon="10.158330109929677"><ele>109.0</ele><time>2026-04-25T07:22:52Z</time></trkpt><trkpt lat="44.7811680408851" lon="10.15817571039231"><ele>109.66666666666667</ele><time>2026-04-25T07:22:53Z</time></trkpt><trkpt lat="44.7813104253216" lon="10.158029593664667"><ele>110.33333333333334</ele><time>2026-04-25T07:22:54Z</time></trkpt><trkpt lat="44.78149496055206" lon="10.157782805313886"><ele>111.0</ele><time>2026-04-25T07:22:55Z</time></trkpt><trkpt lat="44.78168032481287" lon="10.157566132454185"><ele>111.33333333333334</ele><time>2026-04-25T07:22:56Z</time></trkpt><trkpt lat="44.78185229598838" lon="10.157358331961602"><ele>111.66666666666667</ele><time>2026-04-25T07:22:57Z</time></trkpt><trkpt lat="44.78201782684457" lon="10.157163386086978"><ele>112.0</ele><time>2026-04-25T07:22:58Z</time></trkpt><trkpt lat="44.7821648937615" lon="10.156978054437102"><ele>112.0</ele><time>2026-04-25T07:22:59Z</time></trkpt><trkpt lat="44.78230153225329" lon="10.156803082960483"><ele>112.0</ele><time>2026-04-25T07:23:00Z</time></trkpt><trkpt lat="44.78246651655756" lon="10.15663676741545"><ele>112.0</ele><time>2026-04-25T07:23:01Z</time></trkpt><trkpt lat="44.782633912805885" lon="10.156443371111358"><ele>111.0</ele><time>2026-04-25T07:23:02Z</time></trkpt><trkpt lat="44.78281411364347" lon="10.156212546048954"><ele>110.0</ele><time>2026-04-25T07:23:03Z</time></trkpt><trkpt lat="44.783017195524586" lon="10.15600145736488"><ele>110.0</ele><time>2026-04-25T07:23:04Z</time></trkpt><trkpt lat="44.78322715766262" lon="10.155770181627952"><ele>110.0</ele><time>2026-04-25T07:23:05Z</time></trkpt><trkpt lat="44.78344424012144" lon="10.155511106509172"><ele>108.5</ele><time>2026-04-25T07:23:06Z</time></trkpt><trkpt lat="44.783668713098834" lon="10.155239443536724"><ele>107.0</ele><time>2026-04-25T07:23:07Z</time></trkpt><trkpt lat="44.7838939136942" lon="10.154970414044364"><ele>107.5</ele><time>2026-04-25T07:23:08Z</time></trkpt><trkpt lat="44.78411424683966" lon="10.154711209532763"><ele>108.0</ele><time>2026-04-25T07:23:09Z</time></trkpt><trkpt lat="44.78434178994084" lon="10.154445906431693"><ele>108.0</ele><time>2026-04-25T07:23:10Z</time></trkpt><trkpt lat="44.78457792094554" lon="10.154176703804692"><ele>108.0</ele><time>2026-04-25T07:23:11Z</time></trkpt><trkpt lat="44.784818602356836" lon="10.153898928846438"><ele>107.5</ele><time>2026-04-25T07:23:12Z</time></trkpt><trkpt lat="44.78505787275302" lon="10.15362302273924"><ele>107.0</ele><time>2026-04-25T07:23:12.999Z</time></trkpt><trkpt lat="44.785290835175466" lon="10.153354199804985"><ele>106.5</ele><time>2026-04-25T07:23:13.999Z</time></trkpt><trkpt lat="44.78552182267114" lon="10.15309082713621"><ele>106.0</ele><time>2026-04-25T07:23:14.999Z</time></trkpt><trkpt lat="44.785753370816494" lon="10.15282301283638"><ele>106.0</ele><time>2026-04-25T07:23:15.999Z</time></trkpt><trkpt lat="44.7859839552926" lon="10.152556862717857"><ele>106.0</ele><time>2026-04-25T07:23:16.999Z</time></trkpt><trkpt lat="44.78621376750406" lon="10.152286662811992"><ele>106.0</ele><time>2026-04-25T07:23:17.999Z</time></trkpt><trkpt lat="44.786446863801075" lon="10.152017523456784"><ele>106.0</ele><time>2026-04-25T07:23:18.999Z</time></trkpt><trkpt lat="44.78667973531583" lon="10.151745262660668"><ele>106.0</ele><time>2026-04-25T07:23:19.999Z</time></trkpt><trkpt lat="44.78691167259707" lon="10.151471536203319"><ele>106.0</ele><time>2026-04-25T07:23:20.999Z</time></trkpt><trkpt lat="44.78714801044925" lon="10.151199700899996"><ele>106.0</ele><time>2026-04-25T07:23:21.999Z</time></trkpt><trkpt lat="44.78738177838163" lon="10.150938300078955"><ele>106.0</ele><time>2026-04-25T07:23:22.999Z</time></trkpt><trkpt lat="44.787615115773264" lon="10.150676425028864"><ele>104.5</ele><time>2026-04-25T07:23:23.999Z</time></trkpt><trkpt lat="44.7878378458472" lon="10.150408959546496"><ele>103.0</ele><time>2026-04-25T07:23:24.999Z</time></trkpt><trkpt lat="44.78806183646119" lon="10.150146600192219"><ele>103.0</ele><time>2026-04-25T07:23:25.999Z</time></trkpt><trkpt lat="44.78828313056534" lon="10.149890359930783"><ele>103.0</ele><time>2026-04-25T07:23:26.999Z</time></trkpt><trkpt lat="44.78849970830145" lon="10.149638566585562"><ele>100.5</ele><time>2026-04-25T07:23:27.999Z</time></trkpt><trkpt lat="44.788716559253054" lon="10.149395455487898"><ele>98.0</ele><time>2026-04-25T07:23:28.999Z</time></trkpt><trkpt lat="44.788926720883666" lon="10.14915690323857"><ele>99.0</ele><time>2026-04-25T07:23:29.999Z</time></trkpt><trkpt lat="44.789128190109956" lon="10.14892176722896"><ele>100.0</ele><time>2026-04-25T07:23:30.999Z</time></trkpt><trkpt lat="44.789306568198896" lon="10.148706049993852"><ele>99.5</ele><time>2026-04-25T07:23:31.999Z</time></trkpt><trkpt lat="44.789490450363964" lon="10.148492352850331"><ele>99.0</ele><time>2026-04-25T07:23:32.999Z</time></trkpt><trkpt lat="44.789664187442014" lon="10.14829368358574"><ele>98.66666666666666</ele><time>2026-04-25T07:23:33.999Z</time></trkpt><trkpt lat="44.78982461895303" lon="10.14810148872777"><ele>98.33333333333333</ele><time>2026-04-25T07:23:34.999Z</time></trkpt><trkpt lat="44.789981446299656" lon="10.147915271527378"><ele>98.0</ele><time>2026-04-25T07:23:35.999Z</time></trkpt><trkpt lat="44.79012821811838" lon="10.147735826877481"><ele>98.0</ele><time>2026-04-25T07:23:36.999Z</time></trkpt><trkpt lat="44.790255805379516" lon="10.14758320249788"><ele>98.0</ele><time>2026-04-25T07:23:37.999Z</time></trkpt><trkpt lat="44.79036808448785" lon="10.147459443796409"><ele>98.0</ele><time>2026-04-25T07:23:38.999Z</time></trkpt><trkpt lat="44.79046507966843" lon="10.14738066396171"><ele>98.0</ele><time>2026-04-25T07:23:39.999Z</time></trkpt><trkpt lat="44.79057570074782" lon="10.14741559845037"><ele>97.80000000000001</ele><time>2026-04-25T07:23:40.999Z</time></trkpt><trkpt lat="44.79067173341824" lon="10.147361122389805"><ele>97.6</ele><time>2026-04-25T07:23:41.999Z</time></trkpt><trkpt lat="44.79075018711768" lon="10.147310695292136"><ele>97.4</ele><time>2026-04-25T07:23:42.999Z</time></trkpt><trkpt lat="44.79076834168846" lon="10.147167469930928"><ele>97.19999999999999</ele><time>2026-04-25T07:23:43.999Z</time></trkpt><trkpt lat="44.79073712496296" lon="10.147040723434493"><ele>97.0</ele><time>2026-04-25T07:23:44.999Z</time></trkpt><trkpt lat="44.790647757592275" lon="10.14693583635741"><ele>97.0</ele><time>2026-04-25T07:23:45.999Z</time></trkpt><trkpt lat="44.79052483607014" lon="10.146804330928479"><ele>97.0</ele><time>2026-04-25T07:23:46.999Z</time></trkpt><trkpt lat="44.79041776663418" lon="10.146618181695676"><ele>97.0</ele><time>2026-04-25T07:23:47.999Z</time></trkpt><trkpt lat="44.79038799257263" lon="10.146317596845073"><ele>97.66666666666667</ele><time>2026-04-25T07:23:48.999Z</time></trkpt><trkpt lat="44.79032075984504" lon="10.146057792734451"><ele>98.33333333333334</ele><time>2026-04-25T07:23:49.999Z</time></trkpt><trkpt lat="44.79025598341633" lon="10.14580748017036"><ele>99.0</ele><time>2026-04-25T07:23:50.999Z</time></trkpt><trkpt lat="44.79019075722881" lon="10.1455894286259"><ele>99.66666666666666</ele><time>2026-04-25T07:23:51.999Z</time></trkpt><trkpt lat="44.79009866988693" lon="10.145426476544475"><ele>100.33333333333333</ele><time>2026-04-25T07:23:52.999Z</time></trkpt><trkpt lat="44.78997456706164" lon="10.1452948384447"><ele>101.0</ele><time>2026-04-25T07:23:53.999Z</time></trkpt><trkpt lat="44.78979569135379" lon="10.145156696058894"><ele>101.0</ele><time>2026-04-25T07:23:54.999Z</time></trkpt><trkpt lat="44.78961392940149" lon="10.145009906639038"><ele>101.0</ele><time>2026-04-25T07:23:55.999Z</time></trkpt><trkpt lat="44.78942211371234" lon="10.144842899008815"><ele>101.0</ele><time>2026-04-25T07:23:56.999Z</time></trkpt><trkpt lat="44.789226069288596" lon="10.144674840359157"><ele>101.0</ele><time>2026-04-25T07:23:57.999Z</time></trkpt><trkpt lat="44.789038192186304" lon="10.144514899475594"><ele>101.0</ele><time>2026-04-25T07:23:58.999Z</time></trkpt><trkpt lat="44.78882927114128" lon="10.144337043811445"><ele>101.0</ele><time>2026-04-25T07:23:59.999Z</time></trkpt><trkpt lat="44.78854750657451" lon="10.144345647418502"><ele>101.0</ele><time>2026-04-25T07:24:00.999Z</time></trkpt><trkpt lat="44.78833830540369" lon="10.144277493166967"><ele>101.66666666666666</ele><time>2026-04-25T07:24:01.999Z</time></trkpt><trkpt lat="44.788155330474865" lon="10.144162543920304"><ele>102.33333333333334</ele><time>2026-04-25T07:24:02.999Z</time></trkpt><trkpt lat="44.787996072555124" lon="10.143996275818788"><ele>103.0</ele><time>2026-04-25T07:24:03.999Z</time></trkpt><trkpt lat="44.78781747830563" lon="10.143790358541407"><ele>103.33333333333334</ele><time>2026-04-25T07:24:04.999Z</time></trkpt><trkpt lat="44.78764647032423" lon="10.143599314707634"><ele>103.66666666666666</ele><time>2026-04-25T07:24:05.999Z</time></trkpt><trkpt lat="44.787474193762364" lon="10.143422738786217"><ele>104.0</ele><time>2026-04-25T07:24:06.999Z</time></trkpt><trkpt lat="44.78730155950503" lon="10.143250684132687"><ele>104.0</ele><time>2026-04-25T07:24:07.999Z</time></trkpt><trkpt lat="44.78713371445277" lon="10.143076539665596"><ele>104.0</ele><time>2026-04-25T07:24:08.999Z</time></trkpt><trkpt lat="44.786968316391736" lon="10.142896858903683"><ele>104.0</ele><time>2026-04-25T07:24:09.999Z</time></trkpt><trkpt lat="44.78680943999429" lon="10.142701885472087"><ele>104.66666666666666</ele><time>2026-04-25T07:24:10.999Z</time></trkpt><trkpt lat="44.78667139092713" lon="10.142515174790848"><ele>105.33333333333334</ele><time>2026-04-25T07:24:12Z</time></trkpt><trkpt lat="44.786523824327176" lon="10.142324756788595"><ele>106.0</ele><time>2026-04-25T07:24:13Z</time></trkpt><trkpt lat="44.786358220814954" lon="10.142145778193065"><ele>106.66666666666667</ele><time>2026-04-25T07:24:14Z</time></trkpt><trkpt lat="44.78618239795582" lon="10.141957517141014"><ele>107.33333333333334</ele><time>2026-04-25T07:24:15Z</time></trkpt><trkpt lat="44.786010068804664" lon="10.14176798239423"><ele>108.0</ele><time>2026-04-25T07:24:16Z</time></trkpt><trkpt lat="44.785825063152785" lon="10.141578398037865"><ele>109.0</ele><time>2026-04-25T07:24:17Z</time></trkpt><trkpt lat="44.7856275202322" lon="10.14141609001223"><ele>110.0</ele><time>2026-04-25T07:24:18Z</time></trkpt><trkpt lat="44.7854213349666" lon="10.141271654016805"><ele>110.0</ele><time>2026-04-25T07:24:19Z</time></trkpt><trkpt lat="44.78522848119126" lon="10.1411323904975"><ele>110.0</ele><time>2026-04-25T07:24:20Z</time></trkpt><trkpt lat="44.78504329959922" lon="10.140994512719029"><ele>110.0</ele><time>2026-04-25T07:24:21Z</time></trkpt><trkpt lat="44.78485887147546" lon="10.14086040431098"><ele>110.33333333333333</ele><time>2026-04-25T07:24:22Z</time></trkpt><trkpt lat="44.784670585990995" lon="10.140733768796437"><ele>110.66666666666666</ele><time>2026-04-25T07:24:23Z</time></trkpt><trkpt lat="44.784480968066305" lon="10.140623352961684"><ele>111.0</ele><time>2026-04-25T07:24:24Z</time></trkpt><trkpt lat="44.78428340154048" lon="10.140538615396888"><ele>112.0</ele><time>2026-04-25T07:24:25Z</time></trkpt><trkpt lat="44.7840757589769" lon="10.140499019507494"><ele>113.0</ele><time>2026-04-25T07:24:26Z</time></trkpt><trkpt lat="44.78387246725313" lon="10.140477630573313"><ele>114.0</ele><time>2026-04-25T07:24:27Z</time></trkpt><trkpt lat="44.78369612892231" lon="10.140464130747496"><ele>114.0</ele><time>2026-04-25T07:24:28Z</time></trkpt><trkpt lat="44.783564647747205" lon="10.140451637001561"><ele>114.0</ele><time>2026-04-25T07:24:29Z</time></trkpt><trkpt lat="44.783437634963505" lon="10.140434256638821"><ele>114.0</ele><time>2026-04-25T07:24:30Z</time></trkpt><trkpt lat="44.783313837175434" lon="10.140411730641523"><ele>114.0</ele><time>2026-04-25T07:24:31Z</time></trkpt><trkpt lat="44.78319296514594" lon="10.140395977390522"><ele>114.25</ele><time>2026-04-25T07:24:32Z</time></trkpt><trkpt lat="44.783064004444554" lon="10.140373719466194"><ele>114.5</ele><time>2026-04-25T07:24:33Z</time></trkpt><trkpt lat="44.78291908258958" lon="10.140360768596736"><ele>114.75</ele><time>2026-04-25T07:24:34Z</time></trkpt><trkpt lat="44.782763506727825" lon="10.140334084215157"><ele>115.0</ele><time>2026-04-25T07:24:35Z</time></trkpt><trkpt lat="44.7825855263223" lon="10.140307259048427"><ele>115.0</ele><time>2026-04-25T07:24:36Z</time></trkpt><trkpt lat="44.78239333832774" lon="10.140282514690306"><ele>115.0</ele><time>2026-04-25T07:24:37Z</time></trkpt><trkpt lat="44.7821864592452" lon="10.140260592977862"><ele>115.0</ele><time>2026-04-25T07:24:38Z</time></trkpt><trkpt lat="44.78198623152811" lon="10.140235036464176"><ele>115.0</ele><time>2026-04-25T07:24:39Z</time></trkpt><trkpt lat="44.78178707528786" lon="10.140208081563468"><ele>115.0</ele><time>2026-04-25T07:24:40Z</time></trkpt><trkpt lat="44.781582348655526" lon="10.140173812276403"><ele>115.0</ele><time>2026-04-25T07:24:41Z</time></trkpt><trkpt lat="44.78138438142289" lon="10.140125722441526"><ele>115.0</ele><time>2026-04-25T07:24:42Z</time></trkpt><trkpt lat="44.78118988657965" lon="10.140052832416417"><ele>115.0</ele><time>2026-04-25T07:24:43Z</time></trkpt><trkpt lat="44.78099115070394" lon="10.139949446404778"><ele>115.0</ele><time>2026-04-25T07:24:44Z</time></trkpt><trkpt lat="44.78078229695898" lon="10.13981851891551"><ele>115.5</ele><time>2026-04-25T07:24:45Z</time></trkpt><trkpt lat="44.78057262931458" lon="10.139685534256477"><ele>116.0</ele><time>2026-04-25T07:24:46Z</time></trkpt><trkpt lat="44.78035615732616" lon="10.139563922711599"><ele>116.0</ele><time>2026-04-25T07:24:47Z</time></trkpt><trkpt lat="44.780130270812094" lon="10.13944241792564"><ele>116.0</ele><time>2026-04-25T07:24:48Z</time></trkpt><trkpt lat="44.779889405385596" lon="10.139316150891847"><ele>116.0</ele><time>2026-04-25T07:24:49Z</time></trkpt><trkpt lat="44.77965402891129" lon="10.139192027174623"><ele>116.0</ele><time>2026-04-25T07:24:50Z</time></trkpt><trkpt lat="44.77942159632407" lon="10.139065838978302"><ele>119.0</ele><time>2026-04-25T07:24:51Z</time></trkpt><trkpt lat="44.77918220026178" lon="10.138933318063904"><ele>122.0</ele><time>2026-04-25T07:24:52Z</time></trkpt><trkpt lat="44.77894814702213" lon="10.138803065811056"><ele>122.0</ele><time>2026-04-25T07:24:53Z</time></trkpt><trkpt lat="44.77871484365184" lon="10.138672940483119"><ele>122.0</ele><time>2026-04-25T07:24:54Z</time></trkpt><trkpt lat="44.778481602364344" lon="10.138540339219384"><ele>120.5</ele><time>2026-04-25T07:24:55Z</time></trkpt><trkpt lat="44.778262544043955" lon="10.13838159968071"><ele>119.0</ele><time>2026-04-25T07:24:56Z</time></trkpt><trkpt lat="44.77802598242299" lon="10.138279113554843"><ele>122.5</ele><time>2026-04-25T07:24:57Z</time></trkpt><trkpt lat="44.777804120195704" lon="10.138156801298338"><ele>126.0</ele><time>2026-04-25T07:24:58Z</time></trkpt><trkpt lat="44.77759321866893" lon="10.13800673565199"><ele>127.5</ele><time>2026-04-25T07:24:59Z</time></trkpt><trkpt lat="44.77738084185832" lon="10.137856317183752"><ele>129.0</ele><time>2026-04-25T07:25:00Z</time></trkpt><trkpt lat="44.777170704018836" lon="10.137703705223448"><ele>129.0</ele><time>2026-04-25T07:25:01Z</time></trkpt><trkpt lat="44.77695287329699" lon="10.13757529597827"><ele>129.0</ele><time>2026-04-25T07:25:02Z</time></trkpt><trkpt lat="44.776734933745466" lon="10.13743891542652"><ele>132.5</ele><time>2026-04-25T07:25:03Z</time></trkpt><trkpt lat="44.77650066708536" lon="10.137326112860578"><ele>136.0</ele><time>2026-04-25T07:25:04Z</time></trkpt><trkpt lat="44.7762615536991" lon="10.137236840515689"><ele>135.0</ele><time>2026-04-25T07:25:05Z</time></trkpt><trkpt lat="44.77601693609823" lon="10.13713781030863"><ele>134.0</ele><time>2026-04-25T07:25:06Z</time></trkpt><trkpt lat="44.775770547621796" lon="10.137064518802697"><ele>134.0</ele><time>2026-04-25T07:25:07Z</time></trkpt><trkpt lat="44.7755309069393" lon="10.136995074427977"><ele>134.0</ele><time>2026-04-25T07:25:08Z</time></trkpt><trkpt lat="44.7752869353982" lon="10.136924375029944"><ele>133.5</ele><time>2026-04-25T07:25:09Z</time></trkpt><trkpt lat="44.775042223240696" lon="10.13685269764423"><ele>133.0</ele><time>2026-04-25T07:25:10Z</time></trkpt><trkpt lat="44.77479619721247" lon="10.136780468721774"><ele>133.0</ele><time>2026-04-25T07:25:11Z</time></trkpt><trkpt lat="44.77455146941316" lon="10.13671205960005"><ele>133.0</ele><time>2026-04-25T07:25:12Z</time></trkpt><trkpt lat="44.774308778960346" lon="10.136644221877022"><ele>133.0</ele><time>2026-04-25T07:25:13Z</time></trkpt><trkpt lat="44.77407146312767" lon="10.13657693935193"><ele>133.0</ele><time>2026-04-25T07:25:14Z</time></trkpt><trkpt lat="44.77384930295764" lon="10.136515942259537"><ele>133.0</ele><time>2026-04-25T07:25:15Z</time></trkpt><trkpt lat="44.77363128866504" lon="10.136456317619963"><ele>133.0</ele><time>2026-04-25T07:25:16Z</time></trkpt><trkpt lat="44.77341782719788" lon="10.136360666572317"><ele>133.0</ele><time>2026-04-25T07:25:17Z</time></trkpt><trkpt lat="44.77321660891811" lon="10.136228152005565"><ele>130.33333333333334</ele><time>2026-04-25T07:25:18Z</time></trkpt><trkpt lat="44.773040074259754" lon="10.136100983852305"><ele>127.66666666666666</ele><time>2026-04-25T07:25:19Z</time></trkpt><trkpt lat="44.77286611329713" lon="10.135968749624283"><ele>125.0</ele><time>2026-04-25T07:25:19.999Z</time></trkpt><trkpt lat="44.77270882475383" lon="10.135844231240087"><ele>127.0</ele><time>2026-04-25T07:25:20.999Z</time></trkpt><trkpt lat="44.77254226628301" lon="10.135714574905569"><ele>129.0</ele><time>2026-04-25T07:25:21.999Z</time></trkpt><trkpt lat="44.77236132960891" lon="10.135574617182082"><ele>131.0</ele><time>2026-04-25T07:25:22.999Z</time></trkpt><trkpt lat="44.77215786514333" lon="10.135442262099545"><ele>131.0</ele><time>2026-04-25T07:25:23.999Z</time></trkpt><trkpt lat="44.7719669845739" lon="10.135281024332654"><ele>131.0</ele><time>2026-04-25T07:25:24.999Z</time></trkpt><trkpt lat="44.771802332192" lon="10.135066056037227"><ele>131.0</ele><time>2026-04-25T07:25:25.999Z</time></trkpt><trkpt lat="44.77165358664623" lon="10.134806628468958"><ele>131.33333333333331</ele><time>2026-04-25T07:25:26.999Z</time></trkpt><trkpt lat="44.771493809541006" lon="10.134519621048192"><ele>131.66666666666666</ele><time>2026-04-25T07:25:27.999Z</time></trkpt><trkpt lat="44.771387682750756" lon="10.134343703565065"><ele>132.0</ele><time>2026-04-25T07:25:28.999Z</time></trkpt><trkpt lat="44.771272023298415" lon="10.134143624206827"><ele>132.75</ele><time>2026-04-25T07:25:29.999Z</time></trkpt><trkpt lat="44.771192824188205" lon="10.133958450796994"><ele>133.5</ele><time>2026-04-25T07:25:30.999Z</time></trkpt><trkpt lat="44.77116508643604" lon="10.133791825405835"><ele>134.25</ele><time>2026-04-25T07:25:31.999Z</time></trkpt><trkpt lat="44.771201192194326" lon="10.133618020190635"><ele>135.0</ele><time>2026-04-25T07:25:32.999Z</time></trkpt><trkpt lat="44.77126786362746" lon="10.13341005468969"><ele>136.66666666666666</ele><time>2026-04-25T07:25:33.999Z</time></trkpt><trkpt lat="44.771314658941805" lon="10.133173394516646"><ele>138.33333333333331</ele><time>2026-04-25T07:25:34.999Z</time></trkpt><trkpt lat="44.77132578511505" lon="10.132970969932972"><ele>140.0</ele><time>2026-04-25T07:25:35.999Z</time></trkpt><trkpt lat="44.77125178544714" lon="10.13278577210343"><ele>140.0</ele><time>2026-04-25T07:25:36.999Z</time></trkpt><trkpt lat="44.7711261624094" lon="10.132591342835582"><ele>140.0</ele><time>2026-04-25T07:25:37.999Z</time></trkpt><trkpt lat="44.77100925522601" lon="10.132360411748847"><ele>140.0</ele><time>2026-04-25T07:25:38.999Z</time></trkpt><trkpt lat="44.770916462090135" lon="10.132147887003462"><ele>138.0</ele><time>2026-04-25T07:25:39.999Z</time></trkpt><trkpt lat="44.7708101057646" lon="10.131978055842618"><ele>136.0</ele><time>2026-04-25T07:25:40.999Z</time></trkpt><trkpt lat="44.77067879974211" lon="10.131864567607392"><ele>134.0</ele><time>2026-04-25T07:25:41.999Z</time></trkpt><trkpt lat="44.77052374088624" lon="10.131820616842592"><ele>134.0</ele><time>2026-04-25T07:25:42.999Z</time></trkpt><trkpt lat="44.770360226954544" lon="10.131824936708961"><ele>134.0</ele><time>2026-04-25T07:25:43.999Z</time></trkpt><trkpt lat="44.77023344904631" lon="10.131820212371839"><ele>134.0</ele><time>2026-04-25T07:25:44.999Z</time></trkpt><trkpt lat="44.77015960382347" lon="10.131793813640307"><ele>134.0</ele><time>2026-04-25T07:25:45.999Z</time></trkpt><trkpt lat="44.77006561131615" lon="10.13171763221874"><ele>132.5</ele><time>2026-04-25T07:25:47.999Z</time></trkpt><trkpt lat="44.7699883836764" lon="10.131307068469573"><ele>131.0</ele><time>2026-04-25T07:25:49.999Z</time></trkpt><trkpt lat="44.76992117661837" lon="10.131080470600736"><ele>131.0</ele><time>2026-04-25T07:25:50.999Z</time></trkpt><trkpt lat="44.76983641504671" lon="10.130806242567605"><ele>131.0</ele><time>2026-04-25T07:25:51.999Z</time></trkpt><trkpt lat="44.76974812341854" lon="10.130506090235064"><ele>131.0</ele><time>2026-04-25T07:25:52.999Z</time></trkpt><trkpt lat="44.76965211695001" lon="10.13019740117446"><ele>133.5</ele><time>2026-04-25T07:25:53.999Z</time></trkpt><trkpt lat="44.769548527986736" lon="10.129847720140297"><ele>136.0</ele><time>2026-04-25T07:25:54.999Z</time></trkpt><trkpt lat="44.76943677244462" lon="10.129473550082956"><ele>133.5</ele><time>2026-04-25T07:25:55.999Z</time></trkpt><trkpt lat="44.76932705115614" lon="10.12910361556179"><ele>131.0</ele><time>2026-04-25T07:25:56.999Z</time></trkpt><trkpt lat="44.76920929839468" lon="10.128706898455901"><ele>131.0</ele><time>2026-04-25T07:25:57.999Z</time></trkpt><trkpt lat="44.76909770938915" lon="10.128326821799453"><ele>131.0</ele><time>2026-04-25T07:25:58.999Z</time></trkpt><trkpt lat="44.76898967064412" lon="10.127966955759572"><ele>132.0</ele><time>2026-04-25T07:25:59.999Z</time></trkpt><trkpt lat="44.76888282990612" lon="10.127609929062187"><ele>133.0</ele><time>2026-04-25T07:26:00.999Z</time></trkpt><trkpt lat="44.76877470265798" lon="10.127256318643331"><ele>133.5</ele><time>2026-04-25T07:26:01.999Z</time></trkpt><trkpt lat="44.76866609997791" lon="10.126915328894412"><ele>134.0</ele><time>2026-04-25T07:26:02.999Z</time></trkpt><trkpt lat="44.76856361767235" lon="10.126569244633089"><ele>132.0</ele><time>2026-04-25T07:26:03.999Z</time></trkpt><trkpt lat="44.768474226034044" lon="10.126225546287957"><ele>130.0</ele><time>2026-04-25T07:26:04.999Z</time></trkpt><trkpt lat="44.76839410972121" lon="10.125866500888865"><ele>131.0</ele><time>2026-04-25T07:26:05.999Z</time></trkpt><trkpt lat="44.76832195342104" lon="10.125514611100089"><ele>132.0</ele><time>2026-04-25T07:26:06.999Z</time></trkpt><trkpt lat="44.76825223401189" lon="10.125159368224491"><ele>132.5</ele><time>2026-04-25T07:26:07.999Z</time></trkpt><trkpt lat="44.76818431517639" lon="10.124812767510525"><ele>133.0</ele><time>2026-04-25T07:26:08.999Z</time></trkpt><trkpt lat="44.76811838716326" lon="10.124471748124089"><ele>133.0</ele><time>2026-04-25T07:26:09.999Z</time></trkpt><trkpt lat="44.7680586654547" lon="10.124144991873367"><ele>133.0</ele><time>2026-04-25T07:26:10.999Z</time></trkpt><trkpt lat="44.76801161841725" lon="10.123824777120449"><ele>135.5</ele><time>2026-04-25T07:26:11.999Z</time></trkpt><trkpt lat="44.767985864528505" lon="10.123483927985957"><ele>138.0</ele><time>2026-04-25T07:26:12.999Z</time></trkpt><trkpt lat="44.767985543955135" lon="10.123167066331037"><ele>139.0</ele><time>2026-04-25T07:26:13.999Z</time></trkpt><trkpt lat="44.76798534627194" lon="10.122875809304729"><ele>140.0</ele><time>2026-04-25T07:26:14.999Z</time></trkpt><trkpt lat="44.76796466687374" lon="10.122605411265223"><ele>141.0</ele><time>2026-04-25T07:26:15.999Z</time></trkpt><trkpt lat="44.76792532034251" lon="10.122307423117789"><ele>141.66666666666666</ele><time>2026-04-25T07:26:16.999Z</time></trkpt><trkpt lat="44.767861979560465" lon="10.122041099753302"><ele>142.33333333333331</ele><time>2026-04-25T07:26:18Z</time></trkpt><trkpt lat="44.76780046112357" lon="10.12178497850728"><ele>143.0</ele><time>2026-04-25T07:26:19Z</time></trkpt><trkpt lat="44.76774514765208" lon="10.121525571337411"><ele>140.66666666666666</ele><time>2026-04-25T07:26:20Z</time></trkpt><trkpt lat="44.76769047751609" lon="10.12126321926238"><ele>138.33333333333334</ele><time>2026-04-25T07:26:21Z</time></trkpt><trkpt lat="44.76763696394216" lon="10.12100447289096"><ele>136.0</ele><time>2026-04-25T07:26:22Z</time></trkpt><trkpt lat="44.76759096768282" lon="10.120763163064554"><ele>136.33333333333334</ele><time>2026-04-25T07:26:23Z</time></trkpt><trkpt lat="44.76755076108926" lon="10.120543914632675"><ele>136.66666666666666</ele><time>2026-04-25T07:26:24Z</time></trkpt><trkpt lat="44.76751368426273" lon="10.120315724265767"><ele>137.0</ele><time>2026-04-25T07:26:25Z</time></trkpt><trkpt lat="44.76748379901373" lon="10.120069244157158"><ele>137.66666666666666</ele><time>2026-04-25T07:26:26Z</time></trkpt><trkpt lat="44.76746294783268" lon="10.119812876905845"><ele>138.33333333333334</ele><time>2026-04-25T07:26:27Z</time></trkpt><trkpt lat="44.76744441150098" lon="10.119541469605846"><ele>139.0</ele><time>2026-04-25T07:26:28Z</time></trkpt><trkpt lat="44.7674238374343" lon="10.119265011601312"><ele>138.66666666666669</ele><time>2026-04-25T07:26:29Z</time></trkpt><trkpt lat="44.767401400229474" lon="10.118970130559747"><ele>138.33333333333334</ele><time>2026-04-25T07:26:30Z</time></trkpt><trkpt lat="44.76738229776591" lon="10.118697974271514"><ele>138.0</ele><time>2026-04-25T07:26:31Z</time></trkpt><trkpt lat="44.767368307624515" lon="10.118433335652723"><ele>139.33333333333334</ele><time>2026-04-25T07:26:32Z</time></trkpt><trkpt lat="44.767351746269306" lon="10.118189231677706"><ele>140.66666666666669</ele><time>2026-04-25T07:26:33Z</time></trkpt><trkpt lat="44.76733282213198" lon="10.117928930439849"><ele>142.0</ele><time>2026-04-25T07:26:34Z</time></trkpt><trkpt lat="44.767310491829065" lon="10.117673502905214"><ele>141.66666666666669</ele><time>2026-04-25T07:26:35Z</time></trkpt><trkpt lat="44.76728737789599" lon="10.117402068288287"><ele>141.33333333333334</ele><time>2026-04-25T07:26:36Z</time></trkpt><trkpt lat="44.767260351612414" lon="10.117114673088748"><ele>141.0</ele><time>2026-04-25T07:26:37Z</time></trkpt><trkpt lat="44.76722295026837" lon="10.116789576779956"><ele>142.0</ele><time>2026-04-25T07:26:38Z</time></trkpt><trkpt lat="44.767193074216195" lon="10.116419765631703"><ele>143.0</ele><time>2026-04-25T07:26:39Z</time></trkpt><trkpt lat="44.767178469678164" lon="10.116064740240965"><ele>143.0</ele><time>2026-04-25T07:26:40Z</time></trkpt><trkpt lat="44.76715824435164" lon="10.11571411849924"><ele>143.0</ele><time>2026-04-25T07:26:41Z</time></trkpt><trkpt lat="44.76713828444139" lon="10.115341701674643"><ele>143.0</ele><time>2026-04-25T07:26:42Z</time></trkpt><trkpt lat="44.7671120436127" lon="10.114971351841572"><ele>143.0</ele><time>2026-04-25T07:26:43Z</time></trkpt><trkpt lat="44.76708328111947" lon="10.114599213391802"><ele>143.5</ele><time>2026-04-25T07:26:44Z</time></trkpt><trkpt lat="44.76705623814301" lon="10.11422529775514"><ele>144.0</ele><time>2026-04-25T07:26:45Z</time></trkpt><trkpt lat="44.76702823900136" lon="10.11384858090958"><ele>144.5</ele><time>2026-04-25T07:26:46Z</time></trkpt><trkpt lat="44.76699811854852" lon="10.113473565409544"><ele>145.0</ele><time>2026-04-25T07:26:47Z</time></trkpt><trkpt lat="44.766965459606965" lon="10.113100790645523"><ele>144.5</ele><time>2026-04-25T07:26:48Z</time></trkpt><trkpt lat="44.766930056601645" lon="10.112733613917166"><ele>144.0</ele><time>2026-04-25T07:26:49Z</time></trkpt><trkpt lat="44.76692907163894" lon="10.112375109362647"><ele>144.0</ele><time>2026-04-25T07:26:50Z</time></trkpt><trkpt lat="44.76692251987392" lon="10.112004396504005"><ele>144.0</ele><time>2026-04-25T07:26:51Z</time></trkpt><trkpt lat="44.76692466343121" lon="10.111628057265541"><ele>144.0</ele><time>2026-04-25T07:26:52Z</time></trkpt><trkpt lat="44.766926931459174" lon="10.111249060547115"><ele>144.0</ele><time>2026-04-25T07:26:53Z</time></trkpt><trkpt lat="44.766929480266356" lon="10.110879038771541"><ele>144.5</ele><time>2026-04-25T07:26:54Z</time></trkpt><trkpt lat="44.766921878074044" lon="10.110520368703577"><ele>145.0</ele><time>2026-04-25T07:26:55Z</time></trkpt><trkpt lat="44.76692401486172" lon="10.110155904521065"><ele>144.5</ele><time>2026-04-25T07:26:56Z</time></trkpt><trkpt lat="44.76692400645958" lon="10.10979453288428"><ele>144.0</ele><time>2026-04-25T07:26:57Z</time></trkpt><trkpt lat="44.7669314058284" lon="10.10945105389078"><ele>144.0</ele><time>2026-04-25T07:26:58Z</time></trkpt><trkpt lat="44.766937972613206" lon="10.109097339552537"><ele>144.0</ele><time>2026-04-25T07:26:59Z</time></trkpt><trkpt lat="44.76694247753258" lon="10.108753146370942"><ele>144.0</ele><time>2026-04-25T07:27:00Z</time></trkpt><trkpt lat="44.7669474984021" lon="10.10841140554517"><ele>144.0</ele><time>2026-04-25T07:27:01Z</time></trkpt><trkpt lat="44.76695659195506" lon="10.10806390508869"><ele>143.5</ele><time>2026-04-25T07:27:02Z</time></trkpt><trkpt lat="44.76696365176532" lon="10.107722268988315"><ele>143.0</ele><time>2026-04-25T07:27:03Z</time></trkpt><trkpt lat="44.7669754940393" lon="10.107376601851726"><ele>144.5</ele><time>2026-04-25T07:27:04Z</time></trkpt><trkpt lat="44.7669850079574" lon="10.107033823251758"><ele>146.0</ele><time>2026-04-25T07:27:05Z</time></trkpt><trkpt lat="44.766994114003495" lon="10.106680691279447"><ele>147.0</ele><time>2026-04-25T07:27:06Z</time></trkpt><trkpt lat="44.76700090447759" lon="10.106342248225411"><ele>148.0</ele><time>2026-04-25T07:27:07Z</time></trkpt><trkpt lat="44.767005074180105" lon="10.10600088090915"><ele>148.0</ele><time>2026-04-25T07:27:08Z</time></trkpt><trkpt lat="44.76701738120883" lon="10.105647270452868"><ele>148.0</ele><time>2026-04-25T07:27:09Z</time></trkpt><trkpt lat="44.767029617544345" lon="10.105294755689057"><ele>148.0</ele><time>2026-04-25T07:27:10Z</time></trkpt><trkpt lat="44.76703677206006" lon="10.104931789095064"><ele>148.0</ele><time>2026-04-25T07:27:11Z</time></trkpt><trkpt lat="44.767045994844025" lon="10.104570336654604"><ele>148.5</ele><time>2026-04-25T07:27:12Z</time></trkpt><trkpt lat="44.76705711072751" lon="10.104215235097922"><ele>149.0</ele><time>2026-04-25T07:27:13Z</time></trkpt><trkpt lat="44.76706420474795" lon="10.103856224616361"><ele>149.5</ele><time>2026-04-25T07:27:14Z</time></trkpt><trkpt lat="44.76707065409055" lon="10.103499962532185"><ele>150.0</ele><time>2026-04-25T07:27:15Z</time></trkpt><trkpt lat="44.7670795139993" lon="10.103137066817572"><ele>151.0</ele><time>2026-04-25T07:27:16Z</time></trkpt><trkpt lat="44.76708737251856" lon="10.102775053626553"><ele>152.0</ele><time>2026-04-25T07:27:17Z</time></trkpt><trkpt lat="44.76709435718349" lon="10.102419889609656"><ele>152.5</ele><time>2026-04-25T07:27:18Z</time></trkpt><trkpt lat="44.76710236924056" lon="10.102064725765805"><ele>153.0</ele><time>2026-04-25T07:27:19Z</time></trkpt><trkpt lat="44.76711168562351" lon="10.101723825896194"><ele>153.5</ele><time>2026-04-25T07:27:20Z</time></trkpt><trkpt lat="44.76712314342012" lon="10.101378709776727"><ele>154.0</ele><time>2026-04-25T07:27:21Z</time></trkpt><trkpt lat="44.76713345756901" lon="10.101026967281745"><ele>153.5</ele><time>2026-04-25T07:27:22Z</time></trkpt><trkpt lat="44.76713890071162" lon="10.100680113501534"><ele>153.0</ele><time>2026-04-25T07:27:23Z</time></trkpt><trkpt lat="44.767159054515865" lon="10.100342270421375"><ele>153.0</ele><time>2026-04-25T07:27:24Z</time></trkpt><trkpt lat="44.76716575127459" lon="10.100005434236838"><ele>153.0</ele><time>2026-04-25T07:27:25Z</time></trkpt><trkpt lat="44.76717292721264" lon="10.099656024249908"><ele>153.0</ele><time>2026-04-25T07:27:26Z</time></trkpt><trkpt lat="44.76718046364226" lon="10.099299896219561"><ele>153.0</ele><time>2026-04-25T07:27:26.999Z</time></trkpt><trkpt lat="44.767188340120946" lon="10.098927699451817"><ele>153.0</ele><time>2026-04-25T07:27:27.999Z</time></trkpt><trkpt lat="44.767196390798446" lon="10.098547271147558"><ele>153.0</ele><time>2026-04-25T07:27:28.999Z</time></trkpt><trkpt lat="44.767204672858945" lon="10.098155909069439"><ele>153.5</ele><time>2026-04-25T07:27:29.999Z</time></trkpt><trkpt lat="44.767213004237384" lon="10.097762216464169"><ele>154.0</ele><time>2026-04-25T07:27:30.999Z</time></trkpt><trkpt lat="44.767220807959845" lon="10.097369003224168"><ele>155.0</ele><time>2026-04-25T07:27:31.999Z</time></trkpt><trkpt lat="44.767215790686656" lon="10.096962821598904"><ele>156.0</ele><time>2026-04-25T07:27:32.999Z</time></trkpt><trkpt lat="44.76722221230612" lon="10.096553078615123"><ele>157.0</ele><time>2026-04-25T07:27:33.999Z</time></trkpt><trkpt lat="44.767227239613995" lon="10.096154543238034"><ele>158.0</ele><time>2026-04-25T07:27:34.999Z</time></trkpt><trkpt lat="44.76724084289299" lon="10.095755815840544"><ele>158.5</ele><time>2026-04-25T07:27:35.999Z</time></trkpt><trkpt lat="44.767270893591096" lon="10.095362024327047"><ele>159.0</ele><time>2026-04-25T07:27:36.999Z</time></trkpt><trkpt lat="44.76732270431847" lon="10.094974581650666"><ele>160.0</ele><time>2026-04-25T07:27:37.999Z</time></trkpt><trkpt lat="44.76739076227151" lon="10.094600913649295"><ele>161.0</ele><time>2026-04-25T07:27:38.999Z</time></trkpt><trkpt lat="44.76746041891643" lon="10.094249707456374"><ele>161.0</ele><time>2026-04-25T07:27:39.999Z</time></trkpt><trkpt lat="44.76751326291263" lon="10.093882440570251"><ele>161.0</ele><time>2026-04-25T07:27:40.999Z</time></trkpt><trkpt lat="44.7675416384369" lon="10.093494122198905"><ele>161.5</ele><time>2026-04-25T07:27:41.999Z</time></trkpt><trkpt lat="44.76755165930622" lon="10.093100178305361"><ele>162.0</ele><time>2026-04-25T07:27:42.999Z</time></trkpt><trkpt lat="44.767560082119296" lon="10.092708723597875"><ele>161.5</ele><time>2026-04-25T07:27:43.999Z</time></trkpt><trkpt lat="44.76757085221084" lon="10.092324821460206"><ele>161.0</ele><time>2026-04-25T07:27:44.999Z</time></trkpt><trkpt lat="44.76758227432847" lon="10.091941604045928"><ele>161.5</ele><time>2026-04-25T07:27:45.999Z</time></trkpt><trkpt lat="44.767592513555954" lon="10.091567413230356"><ele>162.0</ele><time>2026-04-25T07:27:46.999Z</time></trkpt><trkpt lat="44.767606089794214" lon="10.091213961071581"><ele>162.0</ele><time>2026-04-25T07:27:47.999Z</time></trkpt><trkpt lat="44.76762392246006" lon="10.090877021479807"><ele>162.0</ele><time>2026-04-25T07:27:48.999Z</time></trkpt><trkpt lat="44.76763970945943" lon="10.090554476116248"><ele>163.0</ele><time>2026-04-25T07:27:49.999Z</time></trkpt><trkpt lat="44.76765184381448" lon="10.090255879388046"><ele>164.0</ele><time>2026-04-25T07:27:50.999Z</time></trkpt><trkpt lat="44.767661794341954" lon="10.089947497030648"><ele>165.0</ele><time>2026-04-25T07:27:51.999Z</time></trkpt><trkpt lat="44.7676623071056" lon="10.089660995903184"><ele>165.33333333333334</ele><time>2026-04-25T07:27:52.999Z</time></trkpt><trkpt lat="44.7676267127992" lon="10.089368103618224"><ele>165.66666666666669</ele><time>2026-04-25T07:27:53.999Z</time></trkpt><trkpt lat="44.7675620438525" lon="10.089046841200048"><ele>166.0</ele><time>2026-04-25T07:27:54.999Z</time></trkpt><trkpt lat="44.76749714743008" lon="10.088769371704174"><ele>167.0</ele><time>2026-04-25T07:27:55.999Z</time></trkpt><trkpt lat="44.7674421678594" lon="10.088510325533564"><ele>168.0</ele><time>2026-04-25T07:27:56.999Z</time></trkpt><trkpt lat="44.767388660852504" lon="10.088263561793847"><ele>169.0</ele><time>2026-04-25T07:27:57.999Z</time></trkpt><trkpt lat="44.767333322447115" lon="10.088017763988159"><ele>169.33333333333334</ele><time>2026-04-25T07:27:58.999Z</time></trkpt><trkpt lat="44.76728022555008" lon="10.087773453879828"><ele>169.66666666666666</ele><time>2026-04-25T07:27:59.999Z</time></trkpt><trkpt lat="44.76722356724142" lon="10.087516185855817"><ele>170.0</ele><time>2026-04-25T07:28:00.999Z</time></trkpt><trkpt lat="44.767164954907734" lon="10.08724694357316"><ele>170.66666666666666</ele><time>2026-04-25T07:28:01.999Z</time></trkpt><trkpt lat="44.767105718054545" lon="10.086970510575012"><ele>171.33333333333334</ele><time>2026-04-25T07:28:02.999Z</time></trkpt><trkpt lat="44.767045510426726" lon="10.08668643414282"><ele>172.0</ele><time>2026-04-25T07:28:03.999Z</time></trkpt><trkpt lat="44.76698264698808" lon="10.086389407024228"><ele>172.5</ele><time>2026-04-25T07:28:04.999Z</time></trkpt><trkpt lat="44.76691810966679" lon="10.086084333441118"><ele>173.0</ele><time>2026-04-25T07:28:05.999Z</time></trkpt><trkpt lat="44.76686210005367" lon="10.085762276860327"><ele>172.0</ele><time>2026-04-25T07:28:06.999Z</time></trkpt><trkpt lat="44.766806627900756" lon="10.085430506451397"><ele>171.0</ele><time>2026-04-25T07:28:07.999Z</time></trkpt><trkpt lat="44.76674603613024" lon="10.085097769196974"><ele>172.5</ele><time>2026-04-25T07:28:08.999Z</time></trkpt><trkpt lat="44.766681732061286" lon="10.084757040559113"><ele>174.0</ele><time>2026-04-25T07:28:09.999Z</time></trkpt><trkpt lat="44.76661896835075" lon="10.084417902780672"><ele>174.5</ele><time>2026-04-25T07:28:10.999Z</time></trkpt><trkpt lat="44.76655730507772" lon="10.08406690858474"><ele>175.0</ele><time>2026-04-25T07:28:11.999Z</time></trkpt><trkpt lat="44.76649155887169" lon="10.083711990742758"><ele>175.0</ele><time>2026-04-25T07:28:12.999Z</time></trkpt><trkpt lat="44.76642210861676" lon="10.083359827149922"><ele>175.0</ele><time>2026-04-25T07:28:13.999Z</time></trkpt><trkpt lat="44.766349298564194" lon="10.083003231786737"><ele>177.0</ele><time>2026-04-25T07:28:14.999Z</time></trkpt><trkpt lat="44.766265939204395" lon="10.082642953176135"><ele>179.0</ele><time>2026-04-25T07:28:15.999Z</time></trkpt><trkpt lat="44.76619131058107" lon="10.082282876096592"><ele>180.0</ele><time>2026-04-25T07:28:16.999Z</time></trkpt><trkpt lat="44.76611383418176" lon="10.081936781054182"><ele>181.0</ele><time>2026-04-25T07:28:17.999Z</time></trkpt><trkpt lat="44.76604467829589" lon="10.081595672797516"><ele>177.5</ele><time>2026-04-25T07:28:18.999Z</time></trkpt><trkpt lat="44.765973228093465" lon="10.081250128454494"><ele>174.0</ele><time>2026-04-25T07:28:19.999Z</time></trkpt><trkpt lat="44.76590288851573" lon="10.08090106557966"><ele>175.5</ele><time>2026-04-25T07:28:20.999Z</time></trkpt><trkpt lat="44.765832696465026" lon="10.08055621967338"><ele>177.0</ele><time>2026-04-25T07:28:21.999Z</time></trkpt><trkpt lat="44.76577099231793" lon="10.080235192340316"><ele>178.5</ele><time>2026-04-25T07:28:22.999Z</time></trkpt><trkpt lat="44.76570667205224" lon="10.079932391730491"><ele>180.0</ele><time>2026-04-25T07:28:24Z</time></trkpt><trkpt lat="44.765618924895556" lon="10.079639712858416"><ele>180.0</ele><time>2026-04-25T07:28:25Z</time></trkpt><trkpt lat="44.76549731900701" lon="10.079360311273668"><ele>180.0</ele><time>2026-04-25T07:28:26Z</time></trkpt><trkpt lat="44.76533818772465" lon="10.079082995105427"><ele>178.0</ele><time>2026-04-25T07:28:27Z</time></trkpt><trkpt lat="44.76517568704773" lon="10.078795282948693"><ele>176.0</ele><time>2026-04-25T07:28:28Z</time></trkpt><trkpt lat="44.765040092262375" lon="10.078527239408722"><ele>176.0</ele><time>2026-04-25T07:28:29Z</time></trkpt><trkpt lat="44.764913530949755" lon="10.07827351153111"><ele>176.0</ele><time>2026-04-25T07:28:30Z</time></trkpt><trkpt lat="44.76479824669349" lon="10.078036581358896"><ele>176.0</ele><time>2026-04-25T07:28:31Z</time></trkpt><trkpt lat="44.76470191014028" lon="10.077778502373986"><ele>176.0</ele><time>2026-04-25T07:28:32Z</time></trkpt><trkpt lat="44.76463651404053" lon="10.07747602901585"><ele>176.0</ele><time>2026-04-25T07:28:33Z</time></trkpt><trkpt lat="44.76461359867541" lon="10.077136729465117"><ele>176.5</ele><time>2026-04-25T07:28:34Z</time></trkpt><trkpt lat="44.764624853086026" lon="10.076775578362858"><ele>177.0</ele><time>2026-04-25T07:28:35Z</time></trkpt><trkpt lat="44.76464473973327" lon="10.076409931494819"><ele>177.0</ele><time>2026-04-25T07:28:36Z</time></trkpt><trkpt lat="44.764650726675534" lon="10.07604671878635"><ele>177.0</ele><time>2026-04-25T07:28:37Z</time></trkpt><trkpt lat="44.76464754953172" lon="10.07567735161207"><ele>177.5</ele><time>2026-04-25T07:28:38Z</time></trkpt><trkpt lat="44.76465431541907" lon="10.075330127223696"><ele>178.0</ele><time>2026-04-25T07:28:39Z</time></trkpt><trkpt lat="44.76466167141496" lon="10.074980784842532"><ele>179.0</ele><time>2026-04-25T07:28:40Z</time></trkpt><trkpt lat="44.764668048570535" lon="10.074632767004415"><ele>180.0</ele><time>2026-04-25T07:28:41Z</time></trkpt><trkpt lat="44.764682755771936" lon="10.074269442816838"><ele>182.0</ele><time>2026-04-25T07:28:42Z</time></trkpt><trkpt lat="44.76471361188437" lon="10.073918747808401"><ele>184.0</ele><time>2026-04-25T07:28:43Z</time></trkpt><trkpt lat="44.76476163073799" lon="10.073567831569754"><ele>185.5</ele><time>2026-04-25T07:28:44Z</time></trkpt><trkpt lat="44.7648163329337" lon="10.073226909825708"><ele>187.0</ele><time>2026-04-25T07:28:45Z</time></trkpt><trkpt lat="44.76486334324657" lon="10.072904595480349"><ele>187.0</ele><time>2026-04-25T07:28:46Z</time></trkpt><trkpt lat="44.76489076400258" lon="10.072586230340471"><ele>187.0</ele><time>2026-04-25T07:28:47Z</time></trkpt><trkpt lat="44.76489795482783" lon="10.072266328036134"><ele>188.0</ele><time>2026-04-25T07:28:48Z</time></trkpt><trkpt lat="44.76488876804656" lon="10.071955777502309"><ele>189.0</ele><time>2026-04-25T07:28:49Z</time></trkpt><trkpt lat="44.76485876652096" lon="10.07165163251597"><ele>190.0</ele><time>2026-04-25T07:28:50Z</time></trkpt><trkpt lat="44.764824407135734" lon="10.071333114852422"><ele>191.0</ele><time>2026-04-25T07:28:51Z</time></trkpt><trkpt lat="44.76478817043127" lon="10.071045102236477"><ele>192.0</ele><time>2026-04-25T07:28:52Z</time></trkpt><trkpt lat="44.764748486363125" lon="10.07073846366601"><ele>193.0</ele><time>2026-04-25T07:28:53Z</time></trkpt><trkpt lat="44.76468677247823" lon="10.070406529102529"><ele>194.0</ele><time>2026-04-25T07:28:54Z</time></trkpt><trkpt lat="44.7646437182732" lon="10.070067922231562"><ele>195.0</ele><time>2026-04-25T07:28:55Z</time></trkpt><trkpt lat="44.764597620676795" lon="10.069720067579949"><ele>196.0</ele><time>2026-04-25T07:28:56Z</time></trkpt><trkpt lat="44.76455119999318" lon="10.069386252087087"><ele>197.0</ele><time>2026-04-25T07:28:57Z</time></trkpt><trkpt lat="44.764503995136835" lon="10.069045041572485"><ele>197.5</ele><time>2026-04-25T07:28:58Z</time></trkpt><trkpt lat="44.76445650353128" lon="10.068710355681857"><ele>198.0</ele><time>2026-04-25T07:28:59Z</time></trkpt><trkpt lat="44.764414184095344" lon="10.068381796892472"><ele>199.0</ele><time>2026-04-25T07:29:00Z</time></trkpt><trkpt lat="44.76437106854766" lon="10.068054947376638"><ele>200.0</ele><time>2026-04-25T07:29:01Z</time></trkpt><trkpt lat="44.76433050524547" lon="10.067738595575284"><ele>197.33333333333334</ele><time>2026-04-25T07:29:02Z</time></trkpt><trkpt lat="44.76429086197308" lon="10.067425066110113"><ele>194.66666666666669</ele><time>2026-04-25T07:29:03Z</time></trkpt><trkpt lat="44.76425402246566" lon="10.067127099942898"><ele>192.0</ele><time>2026-04-25T07:29:04Z</time></trkpt><trkpt lat="44.76421571876081" lon="10.066841569377516"><ele>192.33333333333331</ele><time>2026-04-25T07:29:05Z</time></trkpt><trkpt lat="44.76416940861255" lon="10.066553812783658"><ele>192.66666666666666</ele><time>2026-04-25T07:29:06Z</time></trkpt><trkpt lat="44.764110879209206" lon="10.066276053638584"><ele>193.0</ele><time>2026-04-25T07:29:07Z</time></trkpt><trkpt lat="44.76403644595469" lon="10.06601073308032"><ele>194.66666666666666</ele><time>2026-04-25T07:29:08Z</time></trkpt><trkpt lat="44.76392772205973" lon="10.065767222360444"><ele>196.33333333333331</ele><time>2026-04-25T07:29:09Z</time></trkpt><trkpt lat="44.763789221007926" lon="10.065544703461407"><ele>198.0</ele><time>2026-04-25T07:29:10Z</time></trkpt><trkpt lat="44.763641663178014" lon="10.065329434716872"><ele>197.5</ele><time>2026-04-25T07:29:11Z</time></trkpt><trkpt lat="44.76350204466858" lon="10.065055827723352"><ele>197.0</ele><time>2026-04-25T07:29:12Z</time></trkpt><trkpt lat="44.7633555612005" lon="10.064805152931333"><ele>197.0</ele><time>2026-04-25T07:29:13Z</time></trkpt><trkpt lat="44.763221189452935" lon="10.064564365586248"><ele>197.0</ele><time>2026-04-25T07:29:14Z</time></trkpt><trkpt lat="44.7630942664222" lon="10.064348720007876"><ele>197.0</ele><time>2026-04-25T07:29:15Z</time></trkpt><trkpt lat="44.76298762178137" lon="10.064096552745838"><ele>198.66666666666669</ele><time>2026-04-25T07:29:16Z</time></trkpt><trkpt lat="44.76289606681098" lon="10.06382545452038"><ele>200.33333333333331</ele><time>2026-04-25T07:29:17Z</time></trkpt><trkpt lat="44.76285981165199" lon="10.063521765531986"><ele>202.0</ele><time>2026-04-25T07:29:18Z</time></trkpt><trkpt lat="44.76283914418552" lon="10.063180444573621"><ele>204.0</ele><time>2026-04-25T07:29:19Z</time></trkpt><trkpt lat="44.76282301402963" lon="10.062817458150919"><ele>206.0</ele><time>2026-04-25T07:29:20Z</time></trkpt><trkpt lat="44.76281420554214" lon="10.062469171989937"><ele>211.0</ele><time>2026-04-25T07:29:21Z</time></trkpt><trkpt lat="44.762786749140815" lon="10.062130769853415"><ele>216.0</ele><time>2026-04-25T07:29:22Z</time></trkpt><trkpt lat="44.762738586151414" lon="10.061797193830014"><ele>207.0</ele><time>2026-04-25T07:29:23Z</time></trkpt><trkpt lat="44.76268240309737" lon="10.06146275941459"><ele>198.0</ele><time>2026-04-25T07:29:24Z</time></trkpt><trkpt lat="44.762625412944516" lon="10.061129378288356"><ele>198.0</ele><time>2026-04-25T07:29:25Z</time></trkpt><trkpt lat="44.76256993390381" lon="10.0608078455939"><ele>198.0</ele><time>2026-04-25T07:29:26Z</time></trkpt><trkpt lat="44.76250961429127" lon="10.060504025813952"><ele>198.66666666666669</ele><time>2026-04-25T07:29:27Z</time></trkpt><trkpt lat="44.76244353148413" lon="10.060215235405584"><ele>199.33333333333334</ele><time>2026-04-25T07:29:28Z</time></trkpt><trkpt lat="44.76235195028261" lon="10.05993015684763"><ele>200.0</ele><time>2026-04-25T07:29:29Z</time></trkpt><trkpt lat="44.762219855060934" lon="10.059647968223421"><ele>202.5</ele><time>2026-04-25T07:29:30Z</time></trkpt><trkpt lat="44.76206099364591" lon="10.059393753474131"><ele>205.0</ele><time>2026-04-25T07:29:30.999Z</time></trkpt><trkpt lat="44.76190358922261" lon="10.059127322417666"><ele>201.0</ele><time>2026-04-25T07:29:31.999Z</time></trkpt><trkpt lat="44.76175180152593" lon="10.058854114422266"><ele>197.0</ele><time>2026-04-25T07:29:32.999Z</time></trkpt><trkpt lat="44.761601960016186" lon="10.058587482847749"><ele>197.0</ele><time>2026-04-25T07:29:33.999Z</time></trkpt><trkpt lat="44.761439862507316" lon="10.058326125913327"><ele>197.0</ele><time>2026-04-25T07:29:34.999Z</time></trkpt><trkpt lat="44.761272059947984" lon="10.058080964400897"><ele>197.0</ele><time>2026-04-25T07:29:35.999Z</time></trkpt><trkpt lat="44.761106172922666" lon="10.057846341689734"><ele>197.0</ele><time>2026-04-25T07:29:36.999Z</time></trkpt><trkpt lat="44.76095115066049" lon="10.057586770392739"><ele>198.0</ele><time>2026-04-25T07:29:37.999Z</time></trkpt><trkpt lat="44.76077456065419" lon="10.057361648726184"><ele>199.0</ele><time>2026-04-25T07:29:38.999Z</time></trkpt><trkpt lat="44.76061280537285" lon="10.057124076116247"><ele>199.0</ele><time>2026-04-25T07:29:39.999Z</time></trkpt><trkpt lat="44.76045370200331" lon="10.056889519964955"><ele>199.0</ele><time>2026-04-25T07:29:40.999Z</time></trkpt><trkpt lat="44.760289381280906" lon="10.05665323057579"><ele>196.0</ele><time>2026-04-25T07:29:41.999Z</time></trkpt><trkpt lat="44.7601237780346" lon="10.0564116891479"><ele>193.0</ele><time>2026-04-25T07:29:42.999Z</time></trkpt><trkpt lat="44.75996295308075" lon="10.056175393765644"><ele>193.0</ele><time>2026-04-25T07:29:43.999Z</time></trkpt><trkpt lat="44.759801868764114" lon="10.055939763845792"><ele>193.0</ele><time>2026-04-25T07:29:44.999Z</time></trkpt><trkpt lat="44.75964415831304" lon="10.055705823535396"><ele>192.0</ele><time>2026-04-25T07:29:45.999Z</time></trkpt><trkpt lat="44.75948429076943" lon="10.05546898604907"><ele>191.0</ele><time>2026-04-25T07:29:46.999Z</time></trkpt><trkpt lat="44.75932429642767" lon="10.055235058693196"><ele>191.0</ele><time>2026-04-25T07:29:47.999Z</time></trkpt><trkpt lat="44.75916400628897" lon="10.05500005018258"><ele>191.0</ele><time>2026-04-25T07:29:48.999Z</time></trkpt><trkpt lat="44.75900494645535" lon="10.054766271755312"><ele>193.0</ele><time>2026-04-25T07:29:49.999Z</time></trkpt><trkpt lat="44.75884423705402" lon="10.054528689934694"><ele>195.0</ele><time>2026-04-25T07:29:50.999Z</time></trkpt><trkpt lat="44.758688540041845" lon="10.054301515995657"><ele>194.33333333333331</ele><time>2026-04-25T07:29:51.999Z</time></trkpt><trkpt lat="44.75855694227466" lon="10.054041789856287"><ele>193.66666666666666</ele><time>2026-04-25T07:29:52.999Z</time></trkpt><trkpt lat="44.75844745071193" lon="10.053768278262963"><ele>193.0</ele><time>2026-04-25T07:29:53.999Z</time></trkpt><trkpt lat="44.7583731068903" lon="10.05345595246539"><ele>194.0</ele><time>2026-04-25T07:29:54.999Z</time></trkpt><trkpt lat="44.75830101652167" lon="10.053135239055168"><ele>195.0</ele><time>2026-04-25T07:29:55.999Z</time></trkpt><trkpt lat="44.75825701714109" lon="10.052792024672398"><ele>195.0</ele><time>2026-04-25T07:29:56.999Z</time></trkpt><trkpt lat="44.7582102187777" lon="10.052458667136587"><ele>195.0</ele><time>2026-04-25T07:29:57.999Z</time></trkpt><trkpt lat="44.75816035355601" lon="10.052129230942915"><ele>195.5</ele><time>2026-04-25T07:29:58.999Z</time></trkpt><trkpt lat="44.75810851650074" lon="10.051792022610215"><ele>196.0</ele><time>2026-04-25T07:29:59.999Z</time></trkpt><trkpt lat="44.75805569149695" lon="10.051450121010662"><ele>197.0</ele><time>2026-04-25T07:30:00.999Z</time></trkpt><trkpt lat="44.75800376259634" lon="10.051107415339855"><ele>198.0</ele><time>2026-04-25T07:30:01.999Z</time></trkpt><trkpt lat="44.757953844646515" lon="10.05076835764767"><ele>198.5</ele><time>2026-04-25T07:30:02.999Z</time></trkpt><trkpt lat="44.75790263664934" lon="10.050432202468574"><ele>199.0</ele><time>2026-04-25T07:30:03.999Z</time></trkpt><trkpt lat="44.75784881418682" lon="10.050087511280053"><ele>199.5</ele><time>2026-04-25T07:30:04.999Z</time></trkpt><trkpt lat="44.757798434843984" lon="10.049756905270662"><ele>200.0</ele><time>2026-04-25T07:30:05.999Z</time></trkpt><trkpt lat="44.75775312455237" lon="10.049439863727681"><ele>201.0</ele><time>2026-04-25T07:30:06.999Z</time></trkpt><trkpt lat="44.75770352124318" lon="10.049114233708055"><ele>202.0</ele><time>2026-04-25T07:30:07.999Z</time></trkpt><trkpt lat="44.75765821417081" lon="10.048794093456243"><ele>202.0</ele><time>2026-04-25T07:30:08.999Z</time></trkpt><trkpt lat="44.757610353666855" lon="10.048463615564305"><ele>202.0</ele><time>2026-04-25T07:30:09.999Z</time></trkpt><trkpt lat="44.75756432235179" lon="10.048135406689966"><ele>202.0</ele><time>2026-04-25T07:30:10.999Z</time></trkpt><trkpt lat="44.75752540936874" lon="10.047790855425756"><ele>202.0</ele><time>2026-04-25T07:30:11.999Z</time></trkpt><trkpt lat="44.75750508479544" lon="10.04744538506405"><ele>202.0</ele><time>2026-04-25T07:30:12.999Z</time></trkpt><trkpt lat="44.75750541526001" lon="10.047080944581193"><ele>202.0</ele><time>2026-04-25T07:30:13.999Z</time></trkpt><trkpt lat="44.757515776058625" lon="10.046729528779684"><ele>202.5</ele><time>2026-04-25T07:30:14.999Z</time></trkpt><trkpt lat="44.75752630232991" lon="10.046397115412377"><ele>203.0</ele><time>2026-04-25T07:30:15.999Z</time></trkpt><trkpt lat="44.75753498355318" lon="10.046064552327671"><ele>203.5</ele><time>2026-04-25T07:30:16.999Z</time></trkpt><trkpt lat="44.757540488672454" lon="10.045733561410941"><ele>204.0</ele><time>2026-04-25T07:30:17.999Z</time></trkpt><trkpt lat="44.75754440407451" lon="10.045383977530088"><ele>204.0</ele><time>2026-04-25T07:30:18.999Z</time></trkpt><trkpt lat="44.75754867979231" lon="10.045040668148024"><ele>204.0</ele><time>2026-04-25T07:30:19.999Z</time></trkpt><trkpt lat="44.757553804303626" lon="10.044710040578662"><ele>205.0</ele><time>2026-04-25T07:30:20.999Z</time></trkpt><trkpt lat="44.75756571865494" lon="10.044406673813972"><ele>206.0</ele><time>2026-04-25T07:30:21.999Z</time></trkpt><trkpt lat="44.757605237277424" lon="10.044099981171867"><ele>207.0</ele><time>2026-04-25T07:30:22.999Z</time></trkpt><trkpt lat="44.75766558342928" lon="10.043801522130352"><ele>210.66666666666669</ele><time>2026-04-25T07:30:23.999Z</time></trkpt><trkpt lat="44.75770841142254" lon="10.043516795758176"><ele>214.33333333333334</ele><time>2026-04-25T07:30:24.999Z</time></trkpt><trkpt lat="44.75772049589332" lon="10.043255954376464"><ele>218.0</ele><time>2026-04-25T07:30:25.999Z</time></trkpt><trkpt lat="44.75771033980653" lon="10.042990658697072"><ele>216.33333333333334</ele><time>2026-04-25T07:30:26.999Z</time></trkpt><trkpt lat="44.75766660379762" lon="10.042767762398356"><ele>214.66666666666669</ele><time>2026-04-25T07:30:27.999Z</time></trkpt><trkpt lat="44.75758353928607" lon="10.042557544235601"><ele>213.0</ele><time>2026-04-25T07:30:28.999Z</time></trkpt><trkpt lat="44.757466197515534" lon="10.042376304941477"><ele>213.0</ele><time>2026-04-25T07:30:30Z</time></trkpt><trkpt lat="44.75733947812417" lon="10.042221716767843"><ele>213.0</ele><time>2026-04-25T07:30:31Z</time></trkpt><trkpt lat="44.75723131947395" lon="10.042072221860622"><ele>213.0</ele><time>2026-04-25T07:30:32Z</time></trkpt><trkpt lat="44.75713593543994" lon="10.041926968872703"><ele>213.0</ele><time>2026-04-25T07:30:33Z</time></trkpt><trkpt lat="44.75704866514577" lon="10.041789214127588"><ele>213.0</ele><time>2026-04-25T07:30:34Z</time></trkpt><trkpt lat="44.756968509794525" lon="10.041658792398145"><ele>213.0</ele><time>2026-04-25T07:30:35Z</time></trkpt><trkpt lat="44.75688592238178" lon="10.04152392210558"><ele>213.0</ele><time>2026-04-25T07:30:36Z</time></trkpt><trkpt lat="44.75679783188687" lon="10.041383742794013"><ele>212.0</ele><time>2026-04-25T07:30:37Z</time></trkpt><trkpt lat="44.75671992825932" lon="10.041262861148816"><ele>211.0</ele><time>2026-04-25T07:30:38Z</time></trkpt><trkpt lat="44.756646339550194" lon="10.041130906211409"><ele>210.0</ele><time>2026-04-25T07:30:39Z</time></trkpt><trkpt lat="44.75656755437504" lon="10.04094568715056"><ele>209.0</ele><time>2026-04-25T07:30:40Z</time></trkpt><trkpt lat="44.75649454799864" lon="10.040701385939816"><ele>209.0</ele><time>2026-04-25T07:30:41Z</time></trkpt><trkpt lat="44.756454395478436" lon="10.040391780939332"><ele>209.0</ele><time>2026-04-25T07:30:42Z</time></trkpt><trkpt lat="44.756440556998506" lon="10.040061879876648"><ele>210.33333333333334</ele><time>2026-04-25T07:30:43Z</time></trkpt><trkpt lat="44.75642069932949" lon="10.039745379786337"><ele>211.66666666666669</ele><time>2026-04-25T07:30:44Z</time></trkpt><trkpt lat="44.7563908058325" lon="10.039466711072567"><ele>213.0</ele><time>2026-04-25T07:30:45Z</time></trkpt><trkpt lat="44.756349700858166" lon="10.039216895047238"><ele>215.66666666666669</ele><time>2026-04-25T07:30:46Z</time></trkpt><trkpt lat="44.75628285594361" lon="10.038958236849723"><ele>218.33333333333334</ele><time>2026-04-25T07:30:47Z</time></trkpt><trkpt lat="44.756187880489776" lon="10.038701085905995"><ele>221.0</ele><time>2026-04-25T07:30:48Z</time></trkpt><trkpt lat="44.75607555234095" lon="10.03844633314755"><ele>219.0</ele><time>2026-04-25T07:30:49Z</time></trkpt><trkpt lat="44.755963769590394" lon="10.038221379747904"><ele>217.0</ele><time>2026-04-25T07:30:50Z</time></trkpt><trkpt lat="44.75584416335176" lon="10.038006374846502"><ele>215.0</ele><time>2026-04-25T07:30:51Z</time></trkpt><trkpt lat="44.755709082659976" lon="10.037804879608931"><ele>215.0</ele><time>2026-04-25T07:30:52Z</time></trkpt><trkpt lat="44.755553674122126" lon="10.03761795803805"><ele>215.0</ele><time>2026-04-25T07:30:53Z</time></trkpt><trkpt lat="44.75538564934625" lon="10.037449797651266"><ele>215.0</ele><time>2026-04-25T07:30:54Z</time></trkpt><trkpt lat="44.75522112312974" lon="10.037283029747659"><ele>216.33333333333334</ele><time>2026-04-25T07:30:55Z</time></trkpt><trkpt lat="44.75506660720021" lon="10.037117163419664"><ele>217.66666666666669</ele><time>2026-04-25T07:30:56Z</time></trkpt><trkpt lat="44.75491671880435" lon="10.036945461695137"><ele>219.0</ele><time>2026-04-25T07:30:57Z</time></trkpt><trkpt lat="44.754765076973285" lon="10.036771130139492"><ele>219.0</ele><time>2026-04-25T07:30:58Z</time></trkpt><trkpt lat="44.754609557354854" lon="10.036600844973718"><ele>219.0</ele><time>2026-04-25T07:30:59Z</time></trkpt><trkpt lat="44.754459252876515" lon="10.03642630243254"><ele>219.0</ele><time>2026-04-25T07:31:00Z</time></trkpt><trkpt lat="44.75430923595633" lon="10.036260706522404"><ele>219.0</ele><time>2026-04-25T07:31:01Z</time></trkpt><trkpt lat="44.75415930727602" lon="10.036086524400611"><ele>219.0</ele><time>2026-04-25T07:31:02Z</time></trkpt><trkpt lat="44.75401577828216" lon="10.035923853284043"><ele>219.0</ele><time>2026-04-25T07:31:03Z</time></trkpt><trkpt lat="44.75388960164739" lon="10.035785449082907"><ele>219.0</ele><time>2026-04-25T07:31:04Z</time></trkpt><trkpt lat="44.75377804280349" lon="10.035658610146678"><ele>219.0</ele><time>2026-04-25T07:31:05Z</time></trkpt><trkpt lat="44.75366999551626" lon="10.035538044225863"><ele>219.0</ele><time>2026-04-25T07:31:06Z</time></trkpt><trkpt lat="44.75355286394565" lon="10.035406590822811"><ele>219.0</ele><time>2026-04-25T07:31:07Z</time></trkpt><trkpt lat="44.7534353890662" lon="10.035288580748563"><ele>219.0</ele><time>2026-04-25T07:31:08Z</time></trkpt><trkpt lat="44.75333008062816" lon="10.035182329434935"><ele>219.0</ele><time>2026-04-25T07:31:09Z</time></trkpt><trkpt lat="44.753232129914025" lon="10.035068055831315"><ele>219.0</ele><time>2026-04-25T07:31:10Z</time></trkpt><trkpt lat="44.753128792945944" lon="10.034952297016751"><ele>219.0</ele><time>2026-04-25T07:31:11Z</time></trkpt><trkpt lat="44.75303277356782" lon="10.034845579578434"><ele>221.0</ele><time>2026-04-25T07:31:12Z</time></trkpt><trkpt lat="44.7529385371768" lon="10.034719252622553"><ele>223.0</ele><time>2026-04-25T07:31:13Z</time></trkpt><trkpt lat="44.75286591549559" lon="10.034542597135118"><ele>225.0</ele><time>2026-04-25T07:31:14Z</time></trkpt><trkpt lat="44.752831150605665" lon="10.034290657525572"><ele>226.33333333333331</ele><time>2026-04-25T07:31:15Z</time></trkpt><trkpt lat="44.7528462787982" lon="10.034039854762165"><ele>227.66666666666666</ele><time>2026-04-25T07:31:16Z</time></trkpt><trkpt lat="44.75288632601033" lon="10.03377773474879"><ele>229.0</ele><time>2026-04-25T07:31:17Z</time></trkpt><trkpt lat="44.752926823993654" lon="10.033564103783704"><ele>229.0</ele><time>2026-04-25T07:31:18Z</time></trkpt><trkpt lat="44.752955989038085" lon="10.033340372362868"><ele>229.0</ele><time>2026-04-25T07:31:19Z</time></trkpt><trkpt lat="44.75297425223005" lon="10.033122202337285"><ele>229.0</ele><time>2026-04-25T07:31:20Z</time></trkpt><trkpt lat="44.752941766869334" lon="10.03289212297678"><ele>229.0</ele><time>2026-04-25T07:31:21Z</time></trkpt><trkpt lat="44.752845668391096" lon="10.032683914880256"><ele>229.0</ele><time>2026-04-25T07:31:22Z</time></trkpt><trkpt lat="44.75274166330261" lon="10.032448808036706"><ele>229.0</ele><time>2026-04-25T07:31:23Z</time></trkpt><trkpt lat="44.75262255636684" lon="10.032227101757222"><ele>229.0</ele><time>2026-04-25T07:31:24Z</time></trkpt><trkpt lat="44.752517486831145" lon="10.0319914745364"><ele>229.0</ele><time>2026-04-25T07:31:25Z</time></trkpt><trkpt lat="44.75241372614013" lon="10.031755836427976"><ele>229.0</ele><time>2026-04-25T07:31:26Z</time></trkpt><trkpt lat="44.75230869889546" lon="10.031520392372139"><ele>229.33333333333331</ele><time>2026-04-25T07:31:27Z</time></trkpt><trkpt lat="44.7522066121509" lon="10.031298032120757"><ele>229.66666666666669</ele><time>2026-04-25T07:31:28Z</time></trkpt><trkpt lat="44.75210663380966" lon="10.031096471927045"><ele>230.0</ele><time>2026-04-25T07:31:29Z</time></trkpt><trkpt lat="44.75197041895682" lon="10.030939047638075"><ele>231.0</ele><time>2026-04-25T07:31:30Z</time></trkpt><trkpt lat="44.751824236497285" lon="10.030797534496859"><ele>232.0</ele><time>2026-04-25T07:31:31Z</time></trkpt><trkpt lat="44.751657821282265" lon="10.030675775297757"><ele>233.0</ele><time>2026-04-25T07:31:32Z</time></trkpt><trkpt lat="44.75148844381485" lon="10.03055815942025"><ele>233.0</ele><time>2026-04-25T07:31:33Z</time></trkpt><trkpt lat="44.751318299069816" lon="10.0304517652882"><ele>233.0</ele><time>2026-04-25T07:31:34Z</time></trkpt><trkpt lat="44.75115858335994" lon="10.030323828945043"><ele>233.0</ele><time>2026-04-25T07:31:35Z</time></trkpt><trkpt lat="44.75104430566077" lon="10.030111923334177"><ele>233.0</ele><time>2026-04-25T07:31:36Z</time></trkpt><trkpt lat="44.75092260340956" lon="10.029875479562829"><ele>233.0</ele><time>2026-04-25T07:31:37Z</time></trkpt><trkpt lat="44.75079260455706" lon="10.029640344610522"><ele>233.0</ele><time>2026-04-25T07:31:38Z</time></trkpt><trkpt lat="44.750703054964276" lon="10.02942629542403"><ele>233.0</ele><time>2026-04-25T07:31:39Z</time></trkpt><trkpt lat="44.75064304097455" lon="10.029237369399116"><ele>233.0</ele><time>2026-04-25T07:31:40Z</time></trkpt><trkpt lat="44.75056114848048" lon="10.029039199449565"><ele>233.0</ele><time>2026-04-25T07:31:40.999Z</time></trkpt><trkpt lat="44.750476626527956" lon="10.028838541574949"><ele>233.33333333333334</ele><time>2026-04-25T07:31:41.999Z</time></trkpt><trkpt lat="44.75038736171042" lon="10.028636674519156"><ele>233.66666666666669</ele><time>2026-04-25T07:31:42.999Z</time></trkpt><trkpt lat="44.75029745428643" lon="10.028442855891026"><ele>234.0</ele><time>2026-04-25T07:31:43.999Z</time></trkpt><trkpt lat="44.750204110609275" lon="10.028255084144998"><ele>234.75</ele><time>2026-04-25T07:31:44.999Z</time></trkpt><trkpt lat="44.750105551215135" lon="10.028067271706115"><ele>235.5</ele><time>2026-04-25T07:31:45.999Z</time></trkpt><trkpt lat="44.75001215942861" lon="10.027902982249675"><ele>236.25</ele><time>2026-04-25T07:31:46.999Z</time></trkpt><trkpt lat="44.749923851013214" lon="10.027761146513074"><ele>237.0</ele><time>2026-04-25T07:31:47.999Z</time></trkpt><trkpt lat="44.74983372259823" lon="10.02762553089996"><ele>237.0</ele><time>2026-04-25T07:31:48.999Z</time></trkpt><trkpt lat="44.74975324345309" lon="10.02751821987907"><ele>237.0</ele><time>2026-04-25T07:31:49.999Z</time></trkpt><trkpt lat="44.749690428835585" lon="10.027407613067394"><ele>237.0</ele><time>2026-04-25T07:31:50.999Z</time></trkpt><trkpt lat="44.74962173182294" lon="10.02730875130559"><ele>237.0</ele><time>2026-04-25T07:31:51.999Z</time></trkpt><trkpt lat="44.74954973762151" lon="10.027204730413196"><ele>237.0</ele><time>2026-04-25T07:31:52.999Z</time></trkpt><trkpt lat="44.749467353325215" lon="10.027116930761059"><ele>237.0</ele><time>2026-04-25T07:31:53.999Z</time></trkpt><trkpt lat="44.74939618413022" lon="10.026992990088113"><ele>237.0</ele><time>2026-04-25T07:31:54.999Z</time></trkpt><trkpt lat="44.74932243858805" lon="10.026862776522776"><ele>237.0</ele><time>2026-04-25T07:31:55.999Z</time></trkpt><trkpt lat="44.749247991767284" lon="10.02672478095433"><ele>237.0</ele><time>2026-04-25T07:31:56.999Z</time></trkpt><trkpt lat="44.74917302099962" lon="10.026589072100784"><ele>238.0</ele><time>2026-04-25T07:31:57.999Z</time></trkpt><trkpt lat="44.749107668780105" lon="10.026471065495985"><ele>239.0</ele><time>2026-04-25T07:31:58.999Z</time></trkpt><trkpt lat="44.74903921731023" lon="10.026372278134124"><ele>240.0</ele><time>2026-04-25T07:31:59.999Z</time></trkpt><trkpt lat="44.748974149042276" lon="10.026289899914346"><ele>241.0</ele><time>2026-04-25T07:32:00.999Z</time></trkpt><trkpt lat="44.74888386630696" lon="10.026251523872919"><ele>242.0</ele><time>2026-04-25T07:32:01.999Z</time></trkpt><trkpt lat="44.74884565843821" lon="10.02611664222937"><ele>242.0</ele><time>2026-04-25T07:32:02.999Z</time></trkpt><trkpt lat="44.74876119691971" lon="10.02593870537618"><ele>242.0</ele><time>2026-04-25T07:32:03.999Z</time></trkpt><trkpt lat="44.748688366404046" lon="10.025728131563742"><ele>242.0</ele><time>2026-04-25T07:32:04.999Z</time></trkpt><trkpt lat="44.74860911091509" lon="10.025541914030487"><ele>240.75</ele><time>2026-04-25T07:32:05.999Z</time></trkpt><trkpt lat="44.74851946558409" lon="10.025384256302608"><ele>239.5</ele><time>2026-04-25T07:32:06.999Z</time></trkpt><trkpt lat="44.748408076693615" lon="10.025253572880615"><ele>238.25</ele><time>2026-04-25T07:32:07.999Z</time></trkpt><trkpt lat="44.74826055325211" lon="10.025189181800982"><ele>237.0</ele><time>2026-04-25T07:32:08.999Z</time></trkpt><trkpt lat="44.74809229128908" lon="10.025216352778449"><ele>237.0</ele><time>2026-04-25T07:32:09.999Z</time></trkpt><trkpt lat="44.74793476218519" lon="10.025320100942642"><ele>237.0</ele><time>2026-04-25T07:32:10.999Z</time></trkpt><trkpt lat="44.74779424455385" lon="10.025496605088584"><ele>237.0</ele><time>2026-04-25T07:32:11.999Z</time></trkpt><trkpt lat="44.747628475372814" lon="10.025637220585624"><ele>237.33333333333331</ele><time>2026-04-25T07:32:12.999Z</time></trkpt><trkpt lat="44.747478351960666" lon="10.025759446359825"><ele>237.66666666666666</ele><time>2026-04-25T07:32:13.999Z</time></trkpt><trkpt lat="44.747323786729396" lon="10.025853111288999"><ele>238.0</ele><time>2026-04-25T07:32:14.999Z</time></trkpt><trkpt lat="44.74714474333479" lon="10.025909094279834"><ele>237.33333333333331</ele><time>2026-04-25T07:32:15.999Z</time></trkpt><trkpt lat="44.7469442759356" lon="10.025929562470916"><ele>236.66666666666669</ele><time>2026-04-25T07:32:16.999Z</time></trkpt><trkpt lat="44.746723780450665" lon="10.025925351845862"><ele>236.0</ele><time>2026-04-25T07:32:17.999Z</time></trkpt><trkpt lat="44.7465020172019" lon="10.025840442031367"><ele>237.0</ele><time>2026-04-25T07:32:18.999Z</time></trkpt><trkpt lat="44.746280279978734" lon="10.02575606691626"><ele>238.0</ele><time>2026-04-25T07:32:19.999Z</time></trkpt><trkpt lat="44.74606194623852" lon="10.02565053044793"><ele>238.0</ele><time>2026-04-25T07:32:20.999Z</time></trkpt><trkpt lat="44.74583653586021" lon="10.025542279616184"><ele>238.0</ele><time>2026-04-25T07:32:21.999Z</time></trkpt><trkpt lat="44.74562330209915" lon="10.025400200050518"><ele>238.0</ele><time>2026-04-25T07:32:22.999Z</time></trkpt><trkpt lat="44.745438016539225" lon="10.025234973225988"><ele>238.0</ele><time>2026-04-25T07:32:23.999Z</time></trkpt><trkpt lat="44.745197161327205" lon="10.025018428424248"><ele>240.0</ele><time>2026-04-25T07:32:24.999Z</time></trkpt><trkpt lat="44.74498186019557" lon="10.024813398732832"><ele>242.0</ele><time>2026-04-25T07:32:25.999Z</time></trkpt><trkpt lat="44.74475839392597" lon="10.02462436960516"><ele>242.0</ele><time>2026-04-25T07:32:26.999Z</time></trkpt><trkpt lat="44.74455186002632" lon="10.024417657223749"><ele>242.0</ele><time>2026-04-25T07:32:27.999Z</time></trkpt><trkpt lat="44.74435269836612" lon="10.024192844827853"><ele>243.5</ele><time>2026-04-25T07:32:28.999Z</time></trkpt><trkpt lat="44.744150928937415" lon="10.023996611962607"><ele>245.0</ele><time>2026-04-25T07:32:29.999Z</time></trkpt><trkpt lat="44.743962807641076" lon="10.023841832629717"><ele>245.0</ele><time>2026-04-25T07:32:30.999Z</time></trkpt><trkpt lat="44.743780106707256" lon="10.02366092650448"><ele>245.0</ele><time>2026-04-25T07:32:31.999Z</time></trkpt><trkpt lat="44.74359909584053" lon="10.02347774977611"><ele>245.0</ele><time>2026-04-25T07:32:32.999Z</time></trkpt><trkpt lat="44.74342267304006" lon="10.023299062253779"><ele>248.0</ele><time>2026-04-25T07:32:33.999Z</time></trkpt><trkpt lat="44.743247627404465" lon="10.023124139091138"><ele>251.0</ele><time>2026-04-25T07:32:34.999Z</time></trkpt><trkpt lat="44.74307868933295" lon="10.022959038864142"><ele>254.0</ele><time>2026-04-25T07:32:36Z</time></trkpt><trkpt lat="44.74291432297602" lon="10.022811395348075"><ele>254.0</ele><time>2026-04-25T07:32:37Z</time></trkpt><trkpt lat="44.74274796552035" lon="10.022684559762878"><ele>254.0</ele><time>2026-04-25T07:32:38Z</time></trkpt><trkpt lat="44.74254030684679" lon="10.022569314379439"><ele>254.0</ele><time>2026-04-25T07:32:39Z</time></trkpt><trkpt lat="44.742324387299035" lon="10.022440540655742"><ele>263.6666666666667</ele><time>2026-04-25T07:32:40Z</time></trkpt><trkpt lat="44.74215574900212" lon="10.022379777936333"><ele>273.3333333333333</ele><time>2026-04-25T07:32:42Z</time></trkpt><trkpt lat="44.74200472948094" lon="10.0223046548147"><ele>283.0</ele><time>2026-04-25T07:32:43Z</time></trkpt><trkpt lat="44.741849272980325" lon="10.022239075563807"><ele>286.66666666666663</ele><time>2026-04-25T07:32:44Z</time></trkpt><trkpt lat="44.74169284703415" lon="10.022175770976654"><ele>290.3333333333333</ele><time>2026-04-25T07:32:45Z</time></trkpt><trkpt lat="44.741543808984304" lon="10.022109864073453"><ele>294.0</ele><time>2026-04-25T07:32:46Z</time></trkpt><trkpt lat="44.741397419228775" lon="10.02204513514618"><ele>294.0</ele><time>2026-04-25T07:32:47Z</time></trkpt><trkpt lat="44.74125438991921" lon="10.022007956305211"><ele>294.0</ele><time>2026-04-25T07:32:48Z</time></trkpt><trkpt lat="44.74111017006366" lon="10.021958971628562"><ele>294.0</ele><time>2026-04-25T07:32:49Z</time></trkpt><trkpt lat="44.74096904129018" lon="10.021862091181"><ele>290.0</ele><time>2026-04-25T07:32:50Z</time></trkpt><trkpt lat="44.740821076680085" lon="10.021744434352275"><ele>286.0</ele><time>2026-04-25T07:32:51Z</time></trkpt><trkpt lat="44.740665540914094" lon="10.021639634017006"><ele>282.0</ele><time>2026-04-25T07:32:52Z</time></trkpt><trkpt lat="44.74052160647783" lon="10.0215420698339"><ele>283.5</ele><time>2026-04-25T07:32:53Z</time></trkpt><trkpt lat="44.740393710107924" lon="10.021472175524211"><ele>285.0</ele><time>2026-04-25T07:32:54Z</time></trkpt><trkpt lat="44.74027155213327" lon="10.02143960755082"><ele>286.5</ele><time>2026-04-25T07:32:55Z</time></trkpt><trkpt lat="44.740175309306935" lon="10.021368866053406"><ele>288.0</ele><time>2026-04-25T07:32:56Z</time></trkpt><trkpt lat="44.740094835467744" lon="10.021291884311927"><ele>288.0</ele><time>2026-04-25T07:32:57Z</time></trkpt><trkpt lat="44.74004592975494" lon="10.021200267186904"><ele>288.0</ele><time>2026-04-25T07:32:58Z</time></trkpt><trkpt lat="44.74000449897177" lon="10.02106821604367"><ele>288.0</ele><time>2026-04-25T07:32:59Z</time></trkpt><trkpt lat="44.73998001695826" lon="10.02089088215493"><ele>288.0</ele><time>2026-04-25T07:33:00Z</time></trkpt><trkpt lat="44.73996219978556" lon="10.020706703688074"><ele>288.0</ele><time>2026-04-25T07:33:01Z</time></trkpt><trkpt lat="44.73993521343613" lon="10.020571052368863"><ele>289.2</ele><time>2026-04-25T07:33:02Z</time></trkpt><trkpt lat="44.73990446430076" lon="10.020482596454267"><ele>290.4</ele><time>2026-04-25T07:33:03Z</time></trkpt><trkpt lat="44.73984656969977" lon="10.02044023125996"><ele>291.59999999999997</ele><time>2026-04-25T07:33:04Z</time></trkpt><trkpt lat="44.73978799714144" lon="10.020375870120594"><ele>292.8</ele><time>2026-04-25T07:33:05Z</time></trkpt><trkpt lat="44.73970682199498" lon="10.020273677169888"><ele>294.0</ele><time>2026-04-25T07:33:06Z</time></trkpt><trkpt lat="44.73960282261362" lon="10.020129897917187"><ele>294.25</ele><time>2026-04-25T07:33:07Z</time></trkpt><trkpt lat="44.7395173500826" lon="10.0199608640063"><ele>294.5</ele><time>2026-04-25T07:33:08Z</time></trkpt><trkpt lat="44.73943811975964" lon="10.019811293637533"><ele>294.75</ele><time>2026-04-25T07:33:09Z</time></trkpt><trkpt lat="44.73939178378864" lon="10.019666096669123"><ele>295.0</ele><time>2026-04-25T07:33:10Z</time></trkpt><trkpt lat="44.73933493292921" lon="10.019564601895308"><ele>293.66666666666663</ele><time>2026-04-25T07:33:11Z</time></trkpt><trkpt lat="44.73926098078297" lon="10.019503708859515"><ele>292.3333333333333</ele><time>2026-04-25T07:33:12Z</time></trkpt><trkpt lat="44.73916947507613" lon="10.019491960911395"><ele>291.0</ele><time>2026-04-25T07:33:13Z</time></trkpt><trkpt lat="44.73909748351249" lon="10.019448639347887"><ele>289.6666666666667</ele><time>2026-04-25T07:33:14Z</time></trkpt><trkpt lat="44.73902057671343" lon="10.01937758738221"><ele>288.33333333333337</ele><time>2026-04-25T07:33:15Z</time></trkpt><trkpt lat="44.73895669132575" lon="10.019294635744185"><ele>287.0</ele><time>2026-04-25T07:33:16Z</time></trkpt><trkpt lat="44.73888987580152" lon="10.019220816291442"><ele>287.0</ele><time>2026-04-25T07:33:17Z</time></trkpt><trkpt lat="44.73881649690405" lon="10.019148372160235"><ele>287.0</ele><time>2026-04-25T07:33:18Z</time></trkpt><trkpt lat="44.73874097078031" lon="10.019067534153448"><ele>287.0</ele><time>2026-04-25T07:33:19Z</time></trkpt><trkpt lat="44.73867449611507" lon="10.018988342013582"><ele>287.0</ele><time>2026-04-25T07:33:20Z</time></trkpt><trkpt lat="44.7386066476235" lon="10.018913234861929"><ele>287.0</ele><time>2026-04-25T07:33:21Z</time></trkpt><trkpt lat="44.73855353437909" lon="10.01880560629776"><ele>285.8</ele><time>2026-04-25T07:33:22Z</time></trkpt><trkpt lat="44.73850293482032" lon="10.018686659152547"><ele>284.6</ele><time>2026-04-25T07:33:23Z</time></trkpt><trkpt lat="44.738444801005016" lon="10.0185601902793"><ele>283.40000000000003</ele><time>2026-04-25T07:33:24Z</time></trkpt><trkpt lat="44.73838083396618" lon="10.018447617608022"><ele>282.2</ele><time>2026-04-25T07:33:25Z</time></trkpt><trkpt lat="44.738292468543136" lon="10.01834710636959"><ele>281.0</ele><time>2026-04-25T07:33:26Z</time></trkpt><trkpt lat="44.73823563373308" lon="10.018238212025675"><ele>280.2</ele><time>2026-04-25T07:33:27Z</time></trkpt><trkpt lat="44.7382008165251" lon="10.018126732345477"><ele>279.40000000000003</ele><time>2026-04-25T07:33:28Z</time></trkpt><trkpt lat="44.73815716234428" lon="10.01801508769784"><ele>278.6</ele><time>2026-04-25T07:33:29Z</time></trkpt><trkpt lat="44.73815180140092" lon="10.017829094892443"><ele>277.8</ele><time>2026-04-25T07:33:30Z</time></trkpt><trkpt lat="44.73816045196231" lon="10.017672370205105"><ele>277.0</ele><time>2026-04-25T07:33:31Z</time></trkpt><trkpt lat="44.73816947642825" lon="10.01751294282085"><ele>278.5</ele><time>2026-04-25T07:33:32Z</time></trkpt><trkpt lat="44.738170364070115" lon="10.017357187398616"><ele>280.0</ele><time>2026-04-25T07:33:33Z</time></trkpt><trkpt lat="44.738127843604666" lon="10.017217797017262"><ele>281.5</ele><time>2026-04-25T07:33:34Z</time></trkpt><trkpt lat="44.73804698589968" lon="10.017091693943781"><ele>283.0</ele><time>2026-04-25T07:33:35Z</time></trkpt><trkpt lat="44.73794235095798" lon="10.016979301775095"><ele>283.0</ele><time>2026-04-25T07:33:36Z</time></trkpt><trkpt lat="44.73784356443378" lon="10.016865809602713"><ele>283.0</ele><time>2026-04-25T07:33:37Z</time></trkpt><trkpt lat="44.73779054600847" lon="10.016696815317458"><ele>283.0</ele><time>2026-04-25T07:33:38Z</time></trkpt><trkpt lat="44.737723248166816" lon="10.01652377133439"><ele>283.0</ele><time>2026-04-25T07:33:39Z</time></trkpt><trkpt lat="44.73766372740053" lon="10.016340734307667"><ele>281.75</ele><time>2026-04-25T07:33:40Z</time></trkpt><trkpt lat="44.737598381524656" lon="10.016163482150336"><ele>280.5</ele><time>2026-04-25T07:33:41Z</time></trkpt><trkpt lat="44.73752943169816" lon="10.015991874684609"><ele>279.25</ele><time>2026-04-25T07:33:42Z</time></trkpt><trkpt lat="44.737453012230056" lon="10.015802302390506"><ele>278.0</ele><time>2026-04-25T07:33:43Z</time></trkpt><trkpt lat="44.737381610668976" lon="10.015623402634358"><ele>278.0</ele><time>2026-04-25T07:33:43.999Z</time></trkpt><trkpt lat="44.73731537653477" lon="10.015457459163267"><ele>278.0</ele><time>2026-04-25T07:33:44.999Z</time></trkpt><trkpt lat="44.73723866472058" lon="10.015282488520564"><ele>278.0</ele><time>2026-04-25T07:33:45.999Z</time></trkpt><trkpt lat="44.73717370244293" lon="10.015120753585093"><ele>278.0</ele><time>2026-04-25T07:33:46.999Z</time></trkpt><trkpt lat="44.73711752014379" lon="10.01494843190926"><ele>277.75</ele><time>2026-04-25T07:33:47.999Z</time></trkpt><trkpt lat="44.737071174867985" lon="10.014764783459986"><ele>277.5</ele><time>2026-04-25T07:33:48.999Z</time></trkpt><trkpt lat="44.73703579423583" lon="10.014574384326389"><ele>277.25</ele><time>2026-04-25T07:33:49.999Z</time></trkpt><trkpt lat="44.73700527768429" lon="10.014390011834251"><ele>277.0</ele><time>2026-04-25T07:33:50.999Z</time></trkpt><trkpt lat="44.73697698392061" lon="10.014216794029988"><ele>277.8</ele><time>2026-04-25T07:33:51.999Z</time></trkpt><trkpt lat="44.73695125820326" lon="10.014056889640555"><ele>278.6</ele><time>2026-04-25T07:33:52.999Z</time></trkpt><trkpt lat="44.736935627875994" lon="10.013915204064604"><ele>279.40000000000003</ele><time>2026-04-25T07:33:53.999Z</time></trkpt><trkpt lat="44.736910040968205" lon="10.0138047106749"><ele>280.2</ele><time>2026-04-25T07:33:54.999Z</time></trkpt><trkpt lat="44.73690972980366" lon="10.013601267726946"><ele>281.0</ele><time>2026-04-25T07:33:56.999Z</time></trkpt><trkpt lat="44.73696956638144" lon="10.013458495239966"><ele>286.75</ele><time>2026-04-25T07:33:57.999Z</time></trkpt><trkpt lat="44.73706174041179" lon="10.013321596175583"><ele>292.5</ele><time>2026-04-25T07:33:58.999Z</time></trkpt><trkpt lat="44.73718036398494" lon="10.013255719080037"><ele>298.25</ele><time>2026-04-25T07:33:59.999Z</time></trkpt><trkpt lat="44.73728200074507" lon="10.013232585550188"><ele>304.0</ele><time>2026-04-25T07:34:00.999Z</time></trkpt><trkpt lat="44.73740322659404" lon="10.013218541433874"><ele>304.0</ele><time>2026-04-25T07:34:01.999Z</time></trkpt><trkpt lat="44.7375145033205" lon="10.013319157167107"><ele>304.0</ele><time>2026-04-25T07:34:02.999Z</time></trkpt><trkpt lat="44.73762541286267" lon="10.013387097128724"><ele>304.0</ele><time>2026-04-25T07:34:03.999Z</time></trkpt><trkpt lat="44.73771728412679" lon="10.013466650604036"><ele>304.0</ele><time>2026-04-25T07:34:04.999Z</time></trkpt><trkpt lat="44.73779117958456" lon="10.013517040957751"><ele>304.0</ele><time>2026-04-25T07:34:05.999Z</time></trkpt><trkpt lat="44.73786931908146" lon="10.013557955833639"><ele>300.59999999999997</ele><time>2026-04-25T07:34:06.999Z</time></trkpt><trkpt lat="44.73794320941164" lon="10.013566424245692"><ele>297.2</ele><time>2026-04-25T07:34:07.999Z</time></trkpt><trkpt lat="44.738031159375566" lon="10.013556476280618"><ele>293.79999999999995</ele><time>2026-04-25T07:34:08.999Z</time></trkpt><trkpt lat="44.73816673545485" lon="10.01354182661053"><ele>290.4</ele><time>2026-04-25T07:34:09.999Z</time></trkpt><trkpt lat="44.738291408799476" lon="10.013523432335106"><ele>287.0</ele><time>2026-04-25T07:34:10.999Z</time></trkpt><trkpt lat="44.73839439112061" lon="10.01350288316963"><ele>287.0</ele><time>2026-04-25T07:34:11.999Z</time></trkpt><trkpt lat="44.73848469385573" lon="10.0134676647994"><ele>287.0</ele><time>2026-04-25T07:34:12.999Z</time></trkpt><trkpt lat="44.73856171935763" lon="10.013409245627441"><ele>287.0</ele><time>2026-04-25T07:34:13.999Z</time></trkpt><trkpt lat="44.73861767447993" lon="10.013321694409568"><ele>287.0</ele><time>2026-04-25T07:34:14.999Z</time></trkpt><trkpt lat="44.738654575533324" lon="10.013203620774991"><ele>287.0</ele><time>2026-04-25T07:34:15.999Z</time></trkpt><trkpt lat="44.738675915027805" lon="10.0130765730875"><ele>287.0</ele><time>2026-04-25T07:34:16.999Z</time></trkpt><trkpt lat="44.738691782653596" lon="10.012972728223415"><ele>290.8</ele><time>2026-04-25T07:34:17.999Z</time></trkpt><trkpt lat="44.7387108279387" lon="10.012874818978302"><ele>294.6</ele><time>2026-04-25T07:34:18.999Z</time></trkpt><trkpt lat="44.73873432086937" lon="10.012769005838061"><ele>298.40000000000003</ele><time>2026-04-25T07:34:19.999Z</time></trkpt><trkpt lat="44.73874903498778" lon="10.012646711609243"><ele>302.2</ele><time>2026-04-25T07:34:20.999Z</time></trkpt><trkpt lat="44.73877832078578" lon="10.012515757929055"><ele>306.0</ele><time>2026-04-25T07:34:21.999Z</time></trkpt><trkpt lat="44.73880408713012" lon="10.012357175580744"><ele>306.0</ele><time>2026-04-25T07:34:22.999Z</time></trkpt><trkpt lat="44.738840177135465" lon="10.012180597861366"><ele>306.0</ele><time>2026-04-25T07:34:23.999Z</time></trkpt><trkpt lat="44.738884446968314" lon="10.011959627219968"><ele>306.0</ele><time>2026-04-25T07:34:24.999Z</time></trkpt><trkpt lat="44.738936070751116" lon="10.011721812977592"><ele>306.6666666666667</ele><time>2026-04-25T07:34:25.999Z</time></trkpt><trkpt lat="44.73897970304813" lon="10.011478511649813"><ele>307.33333333333337</ele><time>2026-04-25T07:34:26.999Z</time></trkpt><trkpt lat="44.73902449145472" lon="10.011244925463734"><ele>308.0</ele><time>2026-04-25T07:34:27.999Z</time></trkpt><trkpt lat="44.73904186111293" lon="10.011039195377268"><ele>308.6666666666667</ele><time>2026-04-25T07:34:28.999Z</time></trkpt><trkpt lat="44.73902577057383" lon="10.010821128550232"><ele>309.3333333333333</ele><time>2026-04-25T07:34:29.999Z</time></trkpt><trkpt lat="44.73897751866745" lon="10.010586478384926"><ele>310.0</ele><time>2026-04-25T07:34:30.999Z</time></trkpt><trkpt lat="44.73893661984593" lon="10.010381914160257"><ele>310.0</ele><time>2026-04-25T07:34:31.999Z</time></trkpt><trkpt lat="44.73891235988758" lon="10.01018359004908"><ele>310.0</ele><time>2026-04-25T07:34:32.999Z</time></trkpt><trkpt lat="44.738895124850146" lon="10.009994069256692"><ele>310.0</ele><time>2026-04-25T07:34:33.999Z</time></trkpt><trkpt lat="44.73889401437429" lon="10.009839741648756"><ele>310.0</ele><time>2026-04-25T07:34:34.999Z</time></trkpt><trkpt lat="44.738933537873024" lon="10.00974291441993"><ele>309.25</ele><time>2026-04-25T07:34:35.999Z</time></trkpt><trkpt lat="44.73900659858063" lon="10.00962531945515"><ele>308.5</ele><time>2026-04-25T07:34:36.999Z</time></trkpt><trkpt lat="44.739103572857445" lon="10.009520034368736"><ele>307.75</ele><time>2026-04-25T07:34:37.999Z</time></trkpt><trkpt lat="44.73917095634091" lon="10.009387042956824"><ele>307.0</ele><time>2026-04-25T07:34:38.999Z</time></trkpt><trkpt lat="44.73920618975844" lon="10.009190361176085"><ele>303.3333333333333</ele><time>2026-04-25T07:34:39.999Z</time></trkpt><trkpt lat="44.73920659588771" lon="10.008947087200372"><ele>299.6666666666667</ele><time>2026-04-25T07:34:40.999Z</time></trkpt><trkpt lat="44.7392107335235" lon="10.008738186931671"><ele>296.0</ele><time>2026-04-25T07:34:42Z</time></trkpt><trkpt lat="44.73926427916485" lon="10.008566610594109"><ele>296.0</ele><time>2026-04-25T07:34:43Z</time></trkpt><trkpt lat="44.73933850038882" lon="10.008391768090126"><ele>296.0</ele><time>2026-04-25T07:34:44Z</time></trkpt><trkpt lat="44.739414730319545" lon="10.008190681029763"><ele>296.0</ele><time>2026-04-25T07:34:45Z</time></trkpt><trkpt lat="44.73948362572047" lon="10.008017662366068"><ele>296.0</ele><time>2026-04-25T07:34:46Z</time></trkpt><trkpt lat="44.739574130197404" lon="10.007868407251573"><ele>299.5</ele><time>2026-04-25T07:34:47Z</time></trkpt><trkpt lat="44.73967843425598" lon="10.00772458501575"><ele>303.0</ele><time>2026-04-25T07:34:48Z</time></trkpt><trkpt lat="44.739812066009584" lon="10.00763105205755"><ele>306.5</ele><time>2026-04-25T07:34:49Z</time></trkpt><trkpt lat="44.739913310484525" lon="10.007540392924614"><ele>310.0</ele><time>2026-04-25T07:34:50Z</time></trkpt><trkpt lat="44.739991054877244" lon="10.007462455641909"><ele>310.0</ele><time>2026-04-25T07:34:51Z</time></trkpt><trkpt lat="44.74003717010461" lon="10.007314430484266"><ele>310.0</ele><time>2026-04-25T07:34:52Z</time></trkpt><trkpt lat="44.740035935520964" lon="10.007109908762102"><ele>310.0</ele><time>2026-04-25T07:34:53Z</time></trkpt><trkpt lat="44.74003464560937" lon="10.006943664228396"><ele>310.0</ele><time>2026-04-25T07:34:54Z</time></trkpt><trkpt lat="44.740142258633135" lon="10.006790918700968"><ele>317.0</ele><time>2026-04-25T07:34:55Z</time></trkpt><trkpt lat="44.74026547614581" lon="10.006626682748191"><ele>324.0</ele><time>2026-04-25T07:34:56Z</time></trkpt><trkpt lat="44.74037867184318" lon="10.006447821624391"><ele>331.0</ele><time>2026-04-25T07:34:57Z</time></trkpt><trkpt lat="44.7404912291355" lon="10.0062791892828"><ele>331.0</ele><time>2026-04-25T07:34:58Z</time></trkpt><trkpt lat="44.74058861759818" lon="10.006098004161027"><ele>331.0</ele><time>2026-04-25T07:34:59Z</time></trkpt><trkpt lat="44.740670846314615" lon="10.00592768063162"><ele>331.0</ele><time>2026-04-25T07:35:00Z</time></trkpt><trkpt lat="44.740721182772745" lon="10.005760479873771"><ele>331.0</ele><time>2026-04-25T07:35:01Z</time></trkpt><trkpt lat="44.74076484525049" lon="10.005618419182287"><ele>333.25</ele><time>2026-04-25T07:35:02Z</time></trkpt><trkpt lat="44.7408288015239" lon="10.005529468763418"><ele>335.5</ele><time>2026-04-25T07:35:03Z</time></trkpt><trkpt lat="44.74094732341466" lon="10.005511912353091"><ele>337.75</ele><time>2026-04-25T07:35:04Z</time></trkpt><trkpt lat="44.74109531982231" lon="10.005492386975872"><ele>340.0</ele><time>2026-04-25T07:35:05Z</time></trkpt><trkpt lat="44.74126602739822" lon="10.005460511789916"><ele>340.0</ele><time>2026-04-25T07:35:06Z</time></trkpt><trkpt lat="44.74142703233601" lon="10.005435354884613"><ele>340.0</ele><time>2026-04-25T07:35:07Z</time></trkpt><trkpt lat="44.7415820679875" lon="10.005417422554386"><ele>340.0</ele><time>2026-04-25T07:35:08Z</time></trkpt><trkpt lat="44.74168094078928" lon="10.005379969126343"><ele>340.0</ele><time>2026-04-25T07:35:09Z</time></trkpt><trkpt lat="44.741743111338046" lon="10.005306106997969"><ele>340.0</ele><time>2026-04-25T07:35:10Z</time></trkpt><trkpt lat="44.74177288340185" lon="10.005181929653645"><ele>340.0</ele><time>2026-04-25T07:35:11Z</time></trkpt><trkpt lat="44.7417519108733" lon="10.005035315613126"><ele>340.0</ele><time>2026-04-25T07:35:12Z</time></trkpt><trkpt lat="44.74167253071292" lon="10.004899666695664"><ele>340.0</ele><time>2026-04-25T07:35:13Z</time></trkpt><trkpt lat="44.74155115730202" lon="10.004759847154183"><ele>341.75</ele><time>2026-04-25T07:35:14Z</time></trkpt><trkpt lat="44.74147255619794" lon="10.004602271438639"><ele>343.5</ele><time>2026-04-25T07:35:15Z</time></trkpt><trkpt lat="44.74143669484213" lon="10.004483921101144"><ele>345.25</ele><time>2026-04-25T07:35:16Z</time></trkpt><trkpt lat="44.74142818822983" lon="10.00428366869315"><ele>347.0</ele><time>2026-04-25T07:35:17Z</time></trkpt><trkpt lat="44.741465276061874" lon="10.00411211827749"><ele>347.33333333333337</ele><time>2026-04-25T07:35:18Z</time></trkpt><trkpt lat="44.74162448075883" lon="10.003741005895154"><ele>347.6666666666667</ele><time>2026-04-25T07:35:19Z</time></trkpt><trkpt lat="44.74161372973055" lon="10.003650250759986"><ele>348.0</ele><time>2026-04-25T07:35:21Z</time></trkpt><trkpt lat="44.74158309374737" lon="10.003479703613463"><ele>346.4</ele><time>2026-04-25T07:35:22Z</time></trkpt><trkpt lat="44.741497518998145" lon="10.003323419011357"><ele>344.79999999999995</ele><time>2026-04-25T07:35:23Z</time></trkpt><trkpt lat="44.741413166477194" lon="10.003179250291954"><ele>343.2</ele><time>2026-04-25T07:35:24Z</time></trkpt><trkpt lat="44.7414275284534" lon="10.003058739468278"><ele>341.6</ele><time>2026-04-25T07:35:25Z</time></trkpt><trkpt lat="44.741465082964524" lon="10.002981645101872"><ele>340.0</ele><time>2026-04-25T07:35:26Z</time></trkpt><trkpt lat="44.741530408493496" lon="10.002863707505057"><ele>340.0</ele><time>2026-04-25T07:35:27Z</time></trkpt><trkpt lat="44.74161161164985" lon="10.002785349938547"><ele>340.0</ele><time>2026-04-25T07:35:28Z</time></trkpt><trkpt lat="44.741721175072044" lon="10.002767728543349"><ele>340.0</ele><time>2026-04-25T07:35:29Z</time></trkpt><trkpt lat="44.741850767292185" lon="10.002804965636903"><ele>340.0</ele><time>2026-04-25T07:35:30Z</time></trkpt><trkpt lat="44.74202952645901" lon="10.0028418625589"><ele>345.0</ele><time>2026-04-25T07:35:31Z</time></trkpt><trkpt lat="44.742194205141026" lon="10.002820954168655"><ele>350.0</ele><time>2026-04-25T07:35:32Z</time></trkpt><trkpt lat="44.74235732566447" lon="10.002788072041508"><ele>355.0</ele><time>2026-04-25T07:35:33Z</time></trkpt><trkpt lat="44.742511608375644" lon="10.002731285633237"><ele>355.0</ele><time>2026-04-25T07:35:34Z</time></trkpt><trkpt lat="44.742658503389144" lon="10.00267964504525"><ele>355.0</ele><time>2026-04-25T07:35:35Z</time></trkpt><trkpt lat="44.74280073992283" lon="10.002590229427188"><ele>355.0</ele><time>2026-04-25T07:35:36Z</time></trkpt><trkpt lat="44.74292550409364" lon="10.002480172220414"><ele>358.4</ele><time>2026-04-25T07:35:37Z</time></trkpt><trkpt lat="44.74304668281208" lon="10.002437641240157"><ele>361.8</ele><time>2026-04-25T07:35:38Z</time></trkpt><trkpt lat="44.743141373557144" lon="10.00238595059244"><ele>365.20000000000005</ele><time>2026-04-25T07:35:39Z</time></trkpt><trkpt lat="44.74320775506748" lon="10.002301205965523"><ele>368.6</ele><time>2026-04-25T07:35:40Z</time></trkpt><trkpt lat="44.74320111635051" lon="10.002147796020285"><ele>372.0</ele><time>2026-04-25T07:35:41Z</time></trkpt><trkpt lat="44.74312126571538" lon="10.001949051414075"><ele>372.0</ele><time>2026-04-25T07:35:42Z</time></trkpt><trkpt lat="44.74301143872624" lon="10.001777276042162"><ele>372.0</ele><time>2026-04-25T07:35:43Z</time></trkpt><trkpt lat="44.742954372072234" lon="10.001628181075969"><ele>372.0</ele><time>2026-04-25T07:35:44Z</time></trkpt><trkpt lat="44.742932776482434" lon="10.001484256175432"><ele>372.0</ele><time>2026-04-25T07:35:45Z</time></trkpt><trkpt lat="44.74295427536321" lon="10.001339990217998"><ele>372.0</ele><time>2026-04-25T07:35:46Z</time></trkpt><trkpt lat="44.74300715202814" lon="10.001211027140972"><ele>372.0</ele><time>2026-04-25T07:35:47Z</time></trkpt><trkpt lat="44.743083101117634" lon="10.001067135542762"><ele>372.0</ele><time>2026-04-25T07:35:48Z</time></trkpt><trkpt lat="44.74315621901374" lon="10.000902507949236"><ele>372.0</ele><time>2026-04-25T07:35:49Z</time></trkpt><trkpt lat="44.74322012398857" lon="10.000778840212826"><ele>372.0</ele><time>2026-04-25T07:35:50Z</time></trkpt><trkpt lat="44.743230495301894" lon="10.000653935190574"><ele>372.0</ele><time>2026-04-25T07:35:50.999Z</time></trkpt><trkpt lat="44.743183748076824" lon="10.000542435975351"><ele>372.0</ele><time>2026-04-25T07:35:51.999Z</time></trkpt><trkpt lat="44.74308931134872" lon="10.000462007952967"><ele>372.0</ele><time>2026-04-25T07:35:52.999Z</time></trkpt><trkpt lat="44.74295198650733" lon="10.000397759638206"><ele>372.0</ele><time>2026-04-25T07:35:53.999Z</time></trkpt><trkpt lat="44.7428102463482" lon="10.000293967208577"><ele>368.5</ele><time>2026-04-25T07:35:54.999Z</time></trkpt><trkpt lat="44.74268156793409" lon="10.000167944191933"><ele>365.0</ele><time>2026-04-25T07:35:55.999Z</time></trkpt><trkpt lat="44.74256124255215" lon="10.000037565673459"><ele>361.5</ele><time>2026-04-25T07:35:56.999Z</time></trkpt><trkpt lat="44.74244769747642" lon="9.999956637286093"><ele>358.0</ele><time>2026-04-25T07:35:57.999Z</time></trkpt><trkpt lat="44.74233438187495" lon="9.999923400760279"><ele>358.0</ele><time>2026-04-25T07:35:58.999Z</time></trkpt><trkpt lat="44.742227462023486" lon="9.999906824145516"><ele>358.0</ele><time>2026-04-25T07:35:59.999Z</time></trkpt><trkpt lat="44.742168954779515" lon="9.999809832125079"><ele>358.0</ele><time>2026-04-25T07:36:00.999Z</time></trkpt><trkpt lat="44.74214375933513" lon="9.999719683754558"><ele>358.0</ele><time>2026-04-25T07:36:01.999Z</time></trkpt><trkpt lat="44.74218285678622" lon="9.999542469388954"><ele>358.0</ele><time>2026-04-25T07:36:02.999Z</time></trkpt><trkpt lat="44.742196829511634" lon="9.999349892569594"><ele>358.0</ele><time>2026-04-25T07:36:03.999Z</time></trkpt><trkpt lat="44.74221689104136" lon="9.999193395732528"><ele>358.0</ele><time>2026-04-25T07:36:04.999Z</time></trkpt><trkpt lat="44.74228608229638" lon="9.999048883679373"><ele>358.0</ele><time>2026-04-25T07:36:05.999Z</time></trkpt><trkpt lat="44.74238128994276" lon="9.99887815639835"><ele>358.0</ele><time>2026-04-25T07:36:06.999Z</time></trkpt><trkpt lat="44.74248211846861" lon="9.998683397076505"><ele>360.66666666666663</ele><time>2026-04-25T07:36:07.999Z</time></trkpt><trkpt lat="44.742587761248394" lon="9.99848845346484"><ele>363.3333333333333</ele><time>2026-04-25T07:36:08.999Z</time></trkpt><trkpt lat="44.74265672063603" lon="9.998273624126007"><ele>366.0</ele><time>2026-04-25T07:36:09.999Z</time></trkpt><trkpt lat="44.742714652486136" lon="9.998074132899964"><ele>370.5</ele><time>2026-04-25T07:36:10.999Z</time></trkpt><trkpt lat="44.74284742457202" lon="9.99797711411693"><ele>375.0</ele><time>2026-04-25T07:36:11.999Z</time></trkpt><trkpt lat="44.74293063182591" lon="9.997822988048545"><ele>379.5</ele><time>2026-04-25T07:36:12.999Z</time></trkpt><trkpt lat="44.74302069726873" lon="9.997660500905221"><ele>384.0</ele><time>2026-04-25T07:36:13.999Z</time></trkpt><trkpt lat="44.743098667348036" lon="9.997449691294"><ele>384.0</ele><time>2026-04-25T07:36:14.999Z</time></trkpt><trkpt lat="44.74318675531522" lon="9.997240338820104"><ele>384.0</ele><time>2026-04-25T07:36:15.999Z</time></trkpt><trkpt lat="44.743264726504336" lon="9.997053933459343"><ele>384.0</ele><time>2026-04-25T07:36:16.999Z</time></trkpt><trkpt lat="44.743326739308046" lon="9.996850173882047"><ele>383.75</ele><time>2026-04-25T07:36:17.999Z</time></trkpt><trkpt lat="44.74335489927278" lon="9.996632218552746"><ele>383.5</ele><time>2026-04-25T07:36:18.999Z</time></trkpt><trkpt lat="44.743383681385076" lon="9.996444878783112"><ele>383.25</ele><time>2026-04-25T07:36:19.999Z</time></trkpt><trkpt lat="44.743446718909205" lon="9.996256362792488"><ele>383.0</ele><time>2026-04-25T07:36:20.999Z</time></trkpt><trkpt lat="44.74349130510579" lon="9.996031501031013"><ele>388.0</ele><time>2026-04-25T07:36:21.999Z</time></trkpt><trkpt lat="44.743563697964916" lon="9.995781649315923"><ele>393.0</ele><time>2026-04-25T07:36:22.999Z</time></trkpt><trkpt lat="44.743647208636894" lon="9.99551096911394"><ele>398.0</ele><time>2026-04-25T07:36:23.999Z</time></trkpt><trkpt lat="44.74374323694296" lon="9.995296398081113"><ele>398.0</ele><time>2026-04-25T07:36:24.999Z</time></trkpt><trkpt lat="44.74382827345" lon="9.995086758957196"><ele>398.0</ele><time>2026-04-25T07:36:25.999Z</time></trkpt><trkpt lat="44.74388955112934" lon="9.994857596382078"><ele>398.0</ele><time>2026-04-25T07:36:26.999Z</time></trkpt><trkpt lat="44.743948823894854" lon="9.994642923972487"><ele>397.5</ele><time>2026-04-25T07:36:27.999Z</time></trkpt><trkpt lat="44.743995320919986" lon="9.994469918117739"><ele>397.0</ele><time>2026-04-25T07:36:28.999Z</time></trkpt><trkpt lat="44.74402994048253" lon="9.9943377024285"><ele>396.5</ele><time>2026-04-25T07:36:29.999Z</time></trkpt><trkpt lat="44.744054339580785" lon="9.99418327938275"><ele>396.0</ele><time>2026-04-25T07:36:31.999Z</time></trkpt><trkpt lat="44.744024021589766" lon="9.993988144650608"><ele>394.33333333333337</ele><time>2026-04-25T07:36:33.999Z</time></trkpt><trkpt lat="44.74391579013959" lon="9.993851517031667"><ele>392.6666666666667</ele><time>2026-04-25T07:36:34.999Z</time></trkpt><trkpt lat="44.74378624366348" lon="9.993732382303676"><ele>391.0</ele><time>2026-04-25T07:36:35.999Z</time></trkpt><trkpt lat="44.74360404887187" lon="9.993645050901995"><ele>387.6666666666667</ele><time>2026-04-25T07:36:36.999Z</time></trkpt><trkpt lat="44.743429014192714" lon="9.993555747296572"><ele>384.33333333333337</ele><time>2026-04-25T07:36:37.999Z</time></trkpt><trkpt lat="44.74327410196019" lon="9.993435790902815"><ele>381.0</ele><time>2026-04-25T07:36:38.999Z</time></trkpt><trkpt lat="44.74313145036842" lon="9.993301439192257"><ele>380.6666666666667</ele><time>2026-04-25T07:36:39.999Z</time></trkpt><trkpt lat="44.74300508911515" lon="9.99316901369521"><ele>380.33333333333337</ele><time>2026-04-25T07:36:40.999Z</time></trkpt><trkpt lat="44.742895484846585" lon="9.993012726475582"><ele>380.0</ele><time>2026-04-25T07:36:41.999Z</time></trkpt><trkpt lat="44.74279822964915" lon="9.992816054791781"><ele>380.33333333333337</ele><time>2026-04-25T07:36:42.999Z</time></trkpt><trkpt lat="44.74270616540405" lon="9.992593771296296"><ele>380.6666666666667</ele><time>2026-04-25T07:36:43.999Z</time></trkpt><trkpt lat="44.742648659775945" lon="9.992375857586698"><ele>381.0</ele><time>2026-04-25T07:36:44.999Z</time></trkpt><trkpt lat="44.74261335724585" lon="9.992184465500726"><ele>381.0</ele><time>2026-04-25T07:36:45.999Z</time></trkpt><trkpt lat="44.74256706480301" lon="9.992104532296114"><ele>381.0</ele><time>2026-04-25T07:36:46.999Z</time></trkpt><trkpt lat="44.742501377913555" lon="9.992039198906498"><ele>381.0</ele><time>2026-04-25T07:36:48Z</time></trkpt><trkpt lat="44.742378172234304" lon="9.992065790478923"><ele>381.0</ele><time>2026-04-25T07:36:49Z</time></trkpt><trkpt lat="44.742230575562324" lon="9.99213561338989"><ele>381.0</ele><time>2026-04-25T07:36:50Z</time></trkpt><trkpt lat="44.74205231678943" lon="9.992187089217397"><ele>381.0</ele><time>2026-04-25T07:36:51Z</time></trkpt><trkpt lat="44.74188567148709" lon="9.992232773413493"><ele>381.0</ele><time>2026-04-25T07:36:52Z</time></trkpt><trkpt lat="44.74175461216415" lon="9.992263901763232"><ele>381.0</ele><time>2026-04-25T07:36:53Z</time></trkpt><trkpt lat="44.74166009760975" lon="9.992266742006764"><ele>381.0</ele><time>2026-04-25T07:36:54Z</time></trkpt><trkpt lat="44.74156855862773" lon="9.992222339102787"><ele>382.75</ele><time>2026-04-25T07:36:55Z</time></trkpt><trkpt lat="44.741455952586996" lon="9.99211650011009"><ele>384.5</ele><time>2026-04-25T07:36:56Z</time></trkpt><trkpt lat="44.741348416008805" lon="9.991970182005609"><ele>386.25</ele><time>2026-04-25T07:36:57Z</time></trkpt><trkpt lat="44.74125989954686" lon="9.991825891733095"><ele>388.0</ele><time>2026-04-25T07:36:58Z</time></trkpt><trkpt lat="44.74120078053264" lon="9.991700912561365"><ele>389.5</ele><time>2026-04-25T07:36:59Z</time></trkpt><trkpt lat="44.741188982955904" lon="9.991559457734368"><ele>391.0</ele><time>2026-04-25T07:37:00Z</time></trkpt><trkpt lat="44.74119754071881" lon="9.991383572300863"><ele>392.5</ele><time>2026-04-25T07:37:01Z</time></trkpt><trkpt lat="44.74124027223003" lon="9.991159808652837"><ele>394.0</ele><time>2026-04-25T07:37:02Z</time></trkpt><trkpt lat="44.74127286726134" lon="9.99090516452194"><ele>393.6666666666667</ele><time>2026-04-25T07:37:03Z</time></trkpt><trkpt lat="44.74131285393749" lon="9.990666981488651"><ele>393.33333333333337</ele><time>2026-04-25T07:37:04Z</time></trkpt><trkpt lat="44.74134220820186" lon="9.990445071620446"><ele>393.0</ele><time>2026-04-25T07:37:05Z</time></trkpt><trkpt lat="44.74135616355688" lon="9.990231800984715"><ele>393.0</ele><time>2026-04-25T07:37:06Z</time></trkpt><trkpt lat="44.741328713110825" lon="9.990011128178294"><ele>393.0</ele><time>2026-04-25T07:37:07Z</time></trkpt><trkpt lat="44.741247755955555" lon="9.989788062696261"><ele>393.0</ele><time>2026-04-25T07:37:08Z</time></trkpt><trkpt lat="44.74113526038234" lon="9.989575724163569"><ele>393.33333333333337</ele><time>2026-04-25T07:37:09Z</time></trkpt><trkpt lat="44.74104821293813" lon="9.989364687912664"><ele>393.6666666666667</ele><time>2026-04-25T07:37:10Z</time></trkpt><trkpt lat="44.74095955781784" lon="9.989149400477405"><ele>394.0</ele><time>2026-04-25T07:37:11Z</time></trkpt><trkpt lat="44.74088187718106" lon="9.988932318049548"><ele>397.33333333333337</ele><time>2026-04-25T07:37:12Z</time></trkpt><trkpt lat="44.74079183705826" lon="9.988751460638323"><ele>400.66666666666663</ele><time>2026-04-25T07:37:13Z</time></trkpt><trkpt lat="44.74070094096669" lon="9.988578505970683"><ele>404.0</ele><time>2026-04-25T07:37:14Z</time></trkpt><trkpt lat="44.740566389750676" lon="9.988418727031803"><ele>406.66666666666663</ele><time>2026-04-25T07:37:15Z</time></trkpt><trkpt lat="44.74044172492417" lon="9.988216073995277"><ele>409.33333333333337</ele><time>2026-04-25T07:37:16Z</time></trkpt><trkpt lat="44.740323838505745" lon="9.988015056243524"><ele>412.0</ele><time>2026-04-25T07:37:17Z</time></trkpt><trkpt lat="44.740211123143865" lon="9.987824827077045"><ele>410.0</ele><time>2026-04-25T07:37:18Z</time></trkpt><trkpt lat="44.740097407303246" lon="9.987625724811055"><ele>408.0</ele><time>2026-04-25T07:37:19Z</time></trkpt><trkpt lat="44.73998803949256" lon="9.987425187211333"><ele>406.0</ele><time>2026-04-25T07:37:20Z</time></trkpt><trkpt lat="44.73986680810502" lon="9.987238693495698"><ele>406.0</ele><time>2026-04-25T07:37:21Z</time></trkpt><trkpt lat="44.73976123117393" lon="9.98705938284852"><ele>406.0</ele><time>2026-04-25T07:37:22Z</time></trkpt><trkpt lat="44.73965469441781" lon="9.986894986082612"><ele>406.0</ele><time>2026-04-25T07:37:23Z</time></trkpt><trkpt lat="44.7395507706445" lon="9.986767163833996"><ele>406.0</ele><time>2026-04-25T07:37:24Z</time></trkpt><trkpt lat="44.739406287200154" lon="9.986658777215013"><ele>406.0</ele><time>2026-04-25T07:37:25Z</time></trkpt><trkpt lat="44.739236870150364" lon="9.9866133228657"><ele>406.0</ele><time>2026-04-25T07:37:26Z</time></trkpt><trkpt lat="44.73906424801842" lon="9.986587834700801"><ele>406.0</ele><time>2026-04-25T07:37:27Z</time></trkpt><trkpt lat="44.73892154863622" lon="9.98651514799571"><ele>406.0</ele><time>2026-04-25T07:37:28Z</time></trkpt><trkpt lat="44.73879778901277" lon="9.986458717595134"><ele>406.0</ele><time>2026-04-25T07:37:29Z</time></trkpt><trkpt lat="44.73866741413709" lon="9.986448775816132"><ele>406.0</ele><time>2026-04-25T07:37:30Z</time></trkpt><trkpt lat="44.73854610670736" lon="9.986484473064632"><ele>404.33333333333337</ele><time>2026-04-25T07:37:31Z</time></trkpt><trkpt lat="44.738419142307976" lon="9.986605714718836"><ele>402.66666666666663</ele><time>2026-04-25T07:37:32Z</time></trkpt><trkpt lat="44.73828560438175" lon="9.986785749014233"><ele>401.0</ele><time>2026-04-25T07:37:33Z</time></trkpt><trkpt lat="44.73815198127744" lon="9.986927287742937"><ele>401.0</ele><time>2026-04-25T07:37:34Z</time></trkpt><trkpt lat="44.73804257755966" lon="9.987016882947161"><ele>401.0</ele><time>2026-04-25T07:37:35Z</time></trkpt><trkpt lat="44.737935179886335" lon="9.987071937725029"><ele>401.0</ele><time>2026-04-25T07:37:36Z</time></trkpt><trkpt lat="44.73779875676527" lon="9.987088807659365"><ele>401.0</ele><time>2026-04-25T07:37:37Z</time></trkpt><trkpt lat="44.73764076420163" lon="9.987101904204469"><ele>405.0</ele><time>2026-04-25T07:37:38Z</time></trkpt><trkpt lat="44.73748088624647" lon="9.987104373092246"><ele>409.0</ele><time>2026-04-25T07:37:39Z</time></trkpt><trkpt lat="44.73735866505908" lon="9.98710824392944"><ele>413.0</ele><time>2026-04-25T07:37:40Z</time></trkpt><trkpt lat="44.7371429500207" lon="9.987086888566184"><ele>413.0</ele><time>2026-04-25T07:37:41Z</time></trkpt><trkpt lat="44.7369934478413" lon="9.987029989462915"><ele>413.0</ele><time>2026-04-25T07:37:42Z</time></trkpt><trkpt lat="44.73686688450462" lon="9.986933717489135"><ele>413.0</ele><time>2026-04-25T07:37:43Z</time></trkpt><trkpt lat="44.73675652145948" lon="9.986803582958855"><ele>413.0</ele><time>2026-04-25T07:37:44Z</time></trkpt><trkpt lat="44.736664961431195" lon="9.986631312797927"><ele>418.3333333333333</ele><time>2026-04-25T07:37:45Z</time></trkpt><trkpt lat="44.736561859224395" lon="9.986439158246663"><ele>423.66666666666663</ele><time>2026-04-25T07:37:46Z</time></trkpt><trkpt lat="44.73645071821408" lon="9.986233434566977"><ele>429.0</ele><time>2026-04-25T07:37:47Z</time></trkpt><trkpt lat="44.73633395814838" lon="9.986027420987005"><ele>429.0</ele><time>2026-04-25T07:37:48Z</time></trkpt><trkpt lat="44.73622558264312" lon="9.985848150447502"><ele>429.0</ele><time>2026-04-25T07:37:49Z</time></trkpt><trkpt lat="44.73611728936578" lon="9.985722790004198"><ele>429.0</ele><time>2026-04-25T07:37:50Z</time></trkpt><trkpt lat="44.736022283282196" lon="9.985638835854168"><ele>429.0</ele><time>2026-04-25T07:37:51Z</time></trkpt><trkpt lat="44.73590860687542" lon="9.985595901757058"><ele>431.25</ele><time>2026-04-25T07:37:52Z</time></trkpt><trkpt lat="44.73580855322689" lon="9.985658583168899"><ele>433.5</ele><time>2026-04-25T07:37:53Z</time></trkpt><trkpt lat="44.73571687224635" lon="9.985746197011105"><ele>435.75</ele><time>2026-04-25T07:37:54Z</time></trkpt><trkpt lat="44.735650576235756" lon="9.985893251632065"><ele>438.0</ele><time>2026-04-25T07:37:55Z</time></trkpt><trkpt lat="44.735634901520164" lon="9.986106614160256"><ele>438.0</ele><time>2026-04-25T07:37:56Z</time></trkpt><trkpt lat="44.73561585147765" lon="9.986342250707656"><ele>438.0</ele><time>2026-04-25T07:37:57Z</time></trkpt><trkpt lat="44.7355664581495" lon="9.986531244920645"><ele>438.0</ele><time>2026-04-25T07:37:57.999Z</time></trkpt><trkpt lat="44.73547908869438" lon="9.986646185754351"><ele>438.0</ele><time>2026-04-25T07:37:58.999Z</time></trkpt><trkpt lat="44.73537709369238" lon="9.986791527593963"><ele>437.25</ele><time>2026-04-25T07:37:59.999Z</time></trkpt><trkpt lat="44.73526775460895" lon="9.986942753452778"><ele>436.5</ele><time>2026-04-25T07:38:00.999Z</time></trkpt><trkpt lat="44.73517776876536" lon="9.987037478558209"><ele>435.75</ele><time>2026-04-25T07:38:01.999Z</time></trkpt><trkpt lat="44.73508828605806" lon="9.987076560341126"><ele>435.0</ele><time>2026-04-25T07:38:02.999Z</time></trkpt><trkpt lat="44.73499793872248" lon="9.987040185133742"><ele>437.25</ele><time>2026-04-25T07:38:03.999Z</time></trkpt><trkpt lat="44.73492235480454" lon="9.986929323215627"><ele>439.5</ele><time>2026-04-25T07:38:04.999Z</time></trkpt><trkpt lat="44.73479131771051" lon="9.986809982603786"><ele>441.75</ele><time>2026-04-25T07:38:05.999Z</time></trkpt><trkpt lat="44.73465517375858" lon="9.986704275381483"><ele>444.0</ele><time>2026-04-25T07:38:06.999Z</time></trkpt><trkpt lat="44.73450671256005" lon="9.986685835882767"><ele>444.0</ele><time>2026-04-25T07:38:07.999Z</time></trkpt><trkpt lat="44.734424507308894" lon="9.986760720322557"><ele>444.0</ele><time>2026-04-25T07:38:08.999Z</time></trkpt><trkpt lat="44.73431158656971" lon="9.986803101889393"><ele>444.0</ele><time>2026-04-25T07:38:09.999Z</time></trkpt><trkpt lat="44.73417743305982" lon="9.986835296279901"><ele>444.0</ele><time>2026-04-25T07:38:10.999Z</time></trkpt><trkpt lat="44.734021240118416" lon="9.98683856593881"><ele>446.0</ele><time>2026-04-25T07:38:11.999Z</time></trkpt><trkpt lat="44.733855210385705" lon="9.986842448537763"><ele>448.0</ele><time>2026-04-25T07:38:12.999Z</time></trkpt><trkpt lat="44.73368538634179" lon="9.986867609025762"><ele>450.0</ele><time>2026-04-25T07:38:13.999Z</time></trkpt><trkpt lat="44.73355524501317" lon="9.986810391800233"><ele>450.0</ele><time>2026-04-25T07:38:14.999Z</time></trkpt><trkpt lat="44.73347500306631" lon="9.986742255141987"><ele>450.0</ele><time>2026-04-25T07:38:15.999Z</time></trkpt><trkpt lat="44.73341702508318" lon="9.98662086834283"><ele>450.0</ele><time>2026-04-25T07:38:16.999Z</time></trkpt><trkpt lat="44.73335563497573" lon="9.986449668680754"><ele>450.0</ele><time>2026-04-25T07:38:17.999Z</time></trkpt><trkpt lat="44.733313533852964" lon="9.98624742091449"><ele>456.66666666666663</ele><time>2026-04-25T07:38:18.999Z</time></trkpt><trkpt lat="44.733287415899774" lon="9.98601634763016"><ele>463.3333333333333</ele><time>2026-04-25T07:38:19.999Z</time></trkpt><trkpt lat="44.73324710508847" lon="9.985735209916163"><ele>470.0</ele><time>2026-04-25T07:38:20.999Z</time></trkpt><trkpt lat="44.73324170539426" lon="9.985496278119596"><ele>473.66666666666663</ele><time>2026-04-25T07:38:21.999Z</time></trkpt><trkpt lat="44.73323370991005" lon="9.985256299679637"><ele>477.33333333333337</ele><time>2026-04-25T07:38:22.999Z</time></trkpt><trkpt lat="44.733248779027264" lon="9.98499444323222"><ele>481.0</ele><time>2026-04-25T07:38:23.999Z</time></trkpt><trkpt lat="44.733286305775515" lon="9.98472455004523"><ele>483.33333333333337</ele><time>2026-04-25T07:38:24.999Z</time></trkpt><trkpt lat="44.73330530975114" lon="9.984462210649852"><ele>485.66666666666663</ele><time>2026-04-25T07:38:25.999Z</time></trkpt><trkpt lat="44.73334083189967" lon="9.98422394931662"><ele>488.0</ele><time>2026-04-25T07:38:26.999Z</time></trkpt><trkpt lat="44.73337016900053" lon="9.984028682736506"><ele>488.0</ele><time>2026-04-25T07:38:27.999Z</time></trkpt><trkpt lat="44.733416806529384" lon="9.983929742793954"><ele>487.99999999999994</ele><time>2026-04-25T07:38:28.999Z</time></trkpt><trkpt lat="44.73348705798877" lon="9.983929192979659"><ele>487.99999999999994</ele><time>2026-04-25T07:38:30.999Z</time></trkpt><trkpt lat="44.733540512522254" lon="9.984012569891966"><ele>488.0</ele><time>2026-04-25T07:38:31.999Z</time></trkpt><trkpt lat="44.73355190132127" lon="9.984191972476278"><ele>488.0</ele><time>2026-04-25T07:38:32.999Z</time></trkpt><trkpt lat="44.73358415392543" lon="9.98443630378132"><ele>490.0</ele><time>2026-04-25T07:38:33.999Z</time></trkpt><trkpt lat="44.73360075539023" lon="9.984688275731541"><ele>492.0</ele><time>2026-04-25T07:38:34.999Z</time></trkpt><trkpt lat="44.73362971570188" lon="9.98489617683881"><ele>494.0</ele><time>2026-04-25T07:38:35.999Z</time></trkpt><trkpt lat="44.73366908215439" lon="9.985007553891789"><ele>496.0</ele><time>2026-04-25T07:38:36.999Z</time></trkpt><trkpt lat="44.73378386707717" lon="9.985030636237648"><ele>499.5</ele><time>2026-04-25T07:38:38.999Z</time></trkpt><trkpt lat="44.733850934336644" lon="9.98495561674084"><ele>503.0</ele><time>2026-04-25T07:38:39.999Z</time></trkpt><trkpt lat="44.73387301799721" lon="9.984805552115889"><ele>506.5</ele><time>2026-04-25T07:38:40.999Z</time></trkpt><trkpt lat="44.73384698451397" lon="9.98460036039853"><ele>510.0</ele><time>2026-04-25T07:38:41.999Z</time></trkpt><trkpt lat="44.73383658321815" lon="9.984365691286989"><ele>512.6666666666666</ele><time>2026-04-25T07:38:42.999Z</time></trkpt><trkpt lat="44.73388269125762" lon="9.984137789435344"><ele>515.3333333333333</ele><time>2026-04-25T07:38:43.999Z</time></trkpt><trkpt lat="44.733925234885135" lon="9.983894854954494"><ele>518.0</ele><time>2026-04-25T07:38:44.999Z</time></trkpt><trkpt lat="44.733985524851384" lon="9.983642228843923"><ele>518.0</ele><time>2026-04-25T07:38:45.999Z</time></trkpt><trkpt lat="44.73403093696139" lon="9.983384883645533"><ele>518.0</ele><time>2026-04-25T07:38:46.999Z</time></trkpt><trkpt lat="44.734116509834976" lon="9.983176709466735"><ele>518.0</ele><time>2026-04-25T07:38:47.999Z</time></trkpt><trkpt lat="44.73416919219189" lon="9.982946722791349"><ele>519.0</ele><time>2026-04-25T07:38:48.999Z</time></trkpt><trkpt lat="44.73422576218332" lon="9.982733402733766"><ele>520.0</ele><time>2026-04-25T07:38:49.999Z</time></trkpt><trkpt lat="44.73431462892382" lon="9.982533645209173"><ele>521.0</ele><time>2026-04-25T07:38:50.999Z</time></trkpt><trkpt lat="44.7344009094271" lon="9.98231052626823"><ele>526.3333333333333</ele><time>2026-04-25T07:38:51.999Z</time></trkpt><trkpt lat="44.73449676140374" lon="9.982114764460825"><ele>531.6666666666666</ele><time>2026-04-25T07:38:52.999Z</time></trkpt><trkpt lat="44.73456908027823" lon="9.981913756362648"><ele>537.0</ele><time>2026-04-25T07:38:54Z</time></trkpt><trkpt lat="44.73461011691065" lon="9.981726108263075"><ele>537.25</ele><time>2026-04-25T07:38:55Z</time></trkpt><trkpt lat="44.73462932108491" lon="9.981548343779389"><ele>537.5</ele><time>2026-04-25T07:38:56Z</time></trkpt><trkpt lat="44.73460891265703" lon="9.981354985771485"><ele>537.75</ele><time>2026-04-25T07:38:57Z</time></trkpt><trkpt lat="44.73453525402652" lon="9.981138631236437"><ele>538.0</ele><time>2026-04-25T07:38:58Z</time></trkpt><trkpt lat="44.73445769208263" lon="9.980928587728888"><ele>536.75</ele><time>2026-04-25T07:38:59Z</time></trkpt><trkpt lat="44.73438939316495" lon="9.980736800397553"><ele>535.5</ele><time>2026-04-25T07:39:00Z</time></trkpt><trkpt lat="44.73434897878722" lon="9.98055018891072"><ele>534.25</ele><time>2026-04-25T07:39:01Z</time></trkpt><trkpt lat="44.73431222078095" lon="9.980349487425338"><ele>533.0</ele><time>2026-04-25T07:39:02Z</time></trkpt><trkpt lat="44.73429077722101" lon="9.98011256790775"><ele>533.5</ele><time>2026-04-25T07:39:03Z</time></trkpt><trkpt lat="44.734252428684755" lon="9.979887156448092"><ele>534.0</ele><time>2026-04-25T07:39:04Z</time></trkpt><trkpt lat="44.73423622570358" lon="9.979722175961971"><ele>534.5</ele><time>2026-04-25T07:39:05Z</time></trkpt><trkpt lat="44.734205908806764" lon="9.979632675686117"><ele>535.0</ele><time>2026-04-25T07:39:06Z</time></trkpt><trkpt lat="44.73408901859929" lon="9.979503837495127"><ele>535.0</ele><time>2026-04-25T07:39:08Z</time></trkpt><trkpt lat="44.734047348355276" lon="9.979378101083075"><ele>535.0</ele><time>2026-04-25T07:39:09Z</time></trkpt><trkpt lat="44.73404028774347" lon="9.97924503676896"><ele>535.0</ele><time>2026-04-25T07:39:10Z</time></trkpt><trkpt lat="44.734074338086685" lon="9.979114262351024"><ele>535.0</ele><time>2026-04-25T07:39:11Z</time></trkpt><trkpt lat="44.73410439743336" lon="9.978916398292672"><ele>535.0</ele><time>2026-04-25T07:39:12Z</time></trkpt><trkpt lat="44.734142534935366" lon="9.97869329296509"><ele>535.75</ele><time>2026-04-25T07:39:13Z</time></trkpt><trkpt lat="44.73417275597708" lon="9.978498237182961"><ele>536.5</ele><time>2026-04-25T07:39:14Z</time></trkpt><trkpt lat="44.73418417309295" lon="9.97834346991975"><ele>537.25</ele><time>2026-04-25T07:39:15Z</time></trkpt><trkpt lat="44.7341761014825" lon="9.978212132115836"><ele>538.0</ele><time>2026-04-25T07:39:16Z</time></trkpt><trkpt lat="44.73414611370928" lon="9.978029782204297"><ele>538.0</ele><time>2026-04-25T07:39:17Z</time></trkpt><trkpt lat="44.73408690150634" lon="9.977794116429234"><ele>538.0</ele><time>2026-04-25T07:39:18Z</time></trkpt><trkpt lat="44.73402941530747" lon="9.977533757517953"><ele>538.0</ele><time>2026-04-25T07:39:19Z</time></trkpt><trkpt lat="44.733975922961406" lon="9.9772635283559"><ele>536.0</ele><time>2026-04-25T07:39:20Z</time></trkpt><trkpt lat="44.73392747060851" lon="9.977005448784588"><ele>534.0</ele><time>2026-04-25T07:39:21Z</time></trkpt><trkpt lat="44.73390816100288" lon="9.976759207894435"><ele>532.0</ele><time>2026-04-25T07:39:22Z</time></trkpt><trkpt lat="44.73386946609754" lon="9.976556389378786"><ele>531.0</ele><time>2026-04-25T07:39:23Z</time></trkpt><trkpt lat="44.73384055857957" lon="9.976406751993528"><ele>530.0</ele><time>2026-04-25T07:39:24Z</time></trkpt><trkpt lat="44.73377056474809" lon="9.976252275529632"><ele>529.0</ele><time>2026-04-25T07:39:25Z</time></trkpt><trkpt lat="44.73366205707356" lon="9.976079652254382"><ele>528.0</ele><time>2026-04-25T07:39:26Z</time></trkpt><trkpt lat="44.733603022513975" lon="9.975886478852315"><ele>528.0</ele><time>2026-04-25T07:39:27Z</time></trkpt><trkpt lat="44.73356231162293" lon="9.97570312489639"><ele>528.0</ele><time>2026-04-25T07:39:28Z</time></trkpt><trkpt lat="44.73351445760959" lon="9.975511795267883"><ele>528.0</ele><time>2026-04-25T07:39:29Z</time></trkpt><trkpt lat="44.7334797552854" lon="9.97530723232572"><ele>528.0</ele><time>2026-04-25T07:39:30Z</time></trkpt><trkpt lat="44.733411007898816" lon="9.975148165144931"><ele>528.0</ele><time>2026-04-25T07:39:31Z</time></trkpt><trkpt lat="44.73330113446672" lon="9.975021160711107"><ele>528.0</ele><time>2026-04-25T07:39:32Z</time></trkpt><trkpt lat="44.733223947982616" lon="9.974888588593245"><ele>528.0</ele><time>2026-04-25T07:39:33Z</time></trkpt><trkpt lat="44.733196327300575" lon="9.974752601306461"><ele>528.0</ele><time>2026-04-25T07:39:34Z</time></trkpt><trkpt lat="44.73320775658878" lon="9.974572531132699"><ele>528.0</ele><time>2026-04-25T07:39:35Z</time></trkpt><trkpt lat="44.73320347614504" lon="9.974349417503252"><ele>528.0</ele><time>2026-04-25T07:39:36Z</time></trkpt><trkpt lat="44.73321439097181" lon="9.974159107213763"><ele>528.0</ele><time>2026-04-25T07:39:37Z</time></trkpt><trkpt lat="44.73319402613697" lon="9.974001555816072"><ele>528.0</ele><time>2026-04-25T07:39:38Z</time></trkpt><trkpt lat="44.73311299324173" lon="9.973882195875547"><ele>526.0</ele><time>2026-04-25T07:39:39Z</time></trkpt><trkpt lat="44.73299073296446" lon="9.973797179604068"><ele>524.0</ele><time>2026-04-25T07:39:40Z</time></trkpt><trkpt lat="44.73283986070851" lon="9.973710236529513"><ele>522.0</ele><time>2026-04-25T07:39:41Z</time></trkpt><trkpt lat="44.73268927866613" lon="9.97362579964664"><ele>516.6666666666666</ele><time>2026-04-25T07:39:42Z</time></trkpt><trkpt lat="44.732528201893416" lon="9.973566365146128"><ele>511.3333333333333</ele><time>2026-04-25T07:39:43Z</time></trkpt><trkpt lat="44.73235107302507" lon="9.973556421136136"><ele>506.0</ele><time>2026-04-25T07:39:44Z</time></trkpt><trkpt lat="44.73217182713915" lon="9.973597630628777"><ele>506.0</ele><time>2026-04-25T07:39:45Z</time></trkpt><trkpt lat="44.732023469723515" lon="9.973595906350331"><ele>506.0</ele><time>2026-04-25T07:39:46Z</time></trkpt><trkpt lat="44.73191191300021" lon="9.97356026155476"><ele>506.0</ele><time>2026-04-25T07:39:47Z</time></trkpt><trkpt lat="44.73182545574864" lon="9.97344578737439"><ele>506.0</ele><time>2026-04-25T07:39:48Z</time></trkpt><trkpt lat="44.73171843400849" lon="9.973320018591485"><ele>508.75</ele><time>2026-04-25T07:39:49Z</time></trkpt><trkpt lat="44.731605058702165" lon="9.973228365124415"><ele>511.5</ele><time>2026-04-25T07:39:50Z</time></trkpt><trkpt lat="44.731493719280415" lon="9.973198363202798"><ele>514.25</ele><time>2026-04-25T07:39:51Z</time></trkpt><trkpt lat="44.73134278006122" lon="9.973224240627973"><ele>517.0</ele><time>2026-04-25T07:39:52Z</time></trkpt><trkpt lat="44.73120044135483" lon="9.973251519125878"><ele>517.0</ele><time>2026-04-25T07:39:53Z</time></trkpt><trkpt lat="44.73110657652314" lon="9.973232777282782"><ele>517.0</ele><time>2026-04-25T07:39:54Z</time></trkpt><trkpt lat="44.73103044387721" lon="9.973116609040266"><ele>517.0</ele><time>2026-04-25T07:39:55Z</time></trkpt><trkpt lat="44.73090036685026" lon="9.972981149222097"><ele>517.0</ele><time>2026-04-25T07:39:56Z</time></trkpt><trkpt lat="44.7307485073422" lon="9.972848672484508"><ele>517.0</ele><time>2026-04-25T07:39:57Z</time></trkpt><trkpt lat="44.730598329116766" lon="9.972694075994193"><ele>517.0</ele><time>2026-04-25T07:39:58Z</time></trkpt><trkpt lat="44.73047312548059" lon="9.972559496924598"><ele>517.0</ele><time>2026-04-25T07:39:59Z</time></trkpt><trkpt lat="44.73034783617485" lon="9.972428727940434"><ele>521.6666666666667</ele><time>2026-04-25T07:40:00Z</time></trkpt><trkpt lat="44.73022220156753" lon="9.972324742376449"><ele>526.3333333333334</ele><time>2026-04-25T07:40:01Z</time></trkpt><trkpt lat="44.73007250236776" lon="9.972272384741254"><ele>531.0</ele><time>2026-04-25T07:40:02Z</time></trkpt><trkpt lat="44.729919294687065" lon="9.972242571141148"><ele>531.0</ele><time>2026-04-25T07:40:03Z</time></trkpt><trkpt lat="44.729795195259065" lon="9.972227313327657"><ele>531.0</ele><time>2026-04-25T07:40:04Z</time></trkpt><trkpt lat="44.72971745807721" lon="9.97222223077523"><ele>531.0</ele><time>2026-04-25T07:40:04.999Z</time></trkpt><trkpt lat="44.72966063763545" lon="9.972148429868726"><ele>531.0</ele><time>2026-04-25T07:40:06.999Z</time></trkpt><trkpt lat="44.7296669993818" lon="9.972000341752805"><ele>531.0</ele><time>2026-04-25T07:40:08.999Z</time></trkpt><trkpt lat="44.72967488945582" lon="9.971829079958292"><ele>535.0</ele><time>2026-04-25T07:40:09.999Z</time></trkpt><trkpt lat="44.72970218613533" lon="9.971630204412614"><ele>539.0</ele><time>2026-04-25T07:40:10.999Z</time></trkpt><trkpt lat="44.72970061992061" lon="9.971419992290407"><ele>543.0</ele><time>2026-04-25T07:40:11.999Z</time></trkpt><trkpt lat="44.72963390586268" lon="9.971219190977314"><ele>543.0</ele><time>2026-04-25T07:40:12.999Z</time></trkpt><trkpt lat="44.72949428034101" lon="9.97106823765709"><ele>543.0</ele><time>2026-04-25T07:40:13.999Z</time></trkpt><trkpt lat="44.72930430465315" lon="9.97097221856239"><ele>543.0</ele><time>2026-04-25T07:40:14.999Z</time></trkpt><trkpt lat="44.729131720953006" lon="9.970858976226385"><ele>543.5</ele><time>2026-04-25T07:40:15.999Z</time></trkpt><trkpt lat="44.72900502875916" lon="9.970737912004987"><ele>544.0</ele><time>2026-04-25T07:40:16.999Z</time></trkpt><trkpt lat="44.72893210730293" lon="9.970584024015237"><ele>544.5</ele><time>2026-04-25T07:40:17.999Z</time></trkpt><trkpt lat="44.72889488400254" lon="9.970362084472457"><ele>545.0</ele><time>2026-04-25T07:40:18.999Z</time></trkpt><trkpt lat="44.72882324814986" lon="9.970153484805268"><ele>542.0</ele><time>2026-04-25T07:40:19.999Z</time></trkpt><trkpt lat="44.728707329433526" lon="9.969975618127437"><ele>539.0</ele><time>2026-04-25T07:40:20.999Z</time></trkpt><trkpt lat="44.72855448122696" lon="9.969789919268734"><ele>536.0</ele><time>2026-04-25T07:40:21.999Z</time></trkpt><trkpt lat="44.72838677405601" lon="9.969647174748042"><ele>536.0</ele><time>2026-04-25T07:40:22.999Z</time></trkpt><trkpt lat="44.72833692389485" lon="9.969495606750451"><ele>536.0</ele><time>2026-04-25T07:40:23.999Z</time></trkpt><trkpt lat="44.72833316728333" lon="9.969326987086632"><ele>536.0</ele><time>2026-04-25T07:40:24.999Z</time></trkpt><trkpt lat="44.72840326534217" lon="9.969117818364388"><ele>536.0</ele><time>2026-04-25T07:40:25.999Z</time></trkpt><trkpt lat="44.728484932165216" lon="9.968845864331241"><ele>540.6666666666666</ele><time>2026-04-25T07:40:26.999Z</time></trkpt><trkpt lat="44.72857789207174" lon="9.968608209262424"><ele>545.3333333333334</ele><time>2026-04-25T07:40:27.999Z</time></trkpt><trkpt lat="44.72863375492315" lon="9.968383750601173"><ele>550.0</ele><time>2026-04-25T07:40:28.999Z</time></trkpt><trkpt lat="44.72864486257061" lon="9.968143777853117"><ele>550.0</ele><time>2026-04-25T07:40:29.999Z</time></trkpt><trkpt lat="44.72860011400946" lon="9.967870096446385"><ele>550.0</ele><time>2026-04-25T07:40:30.999Z</time></trkpt><trkpt lat="44.72853952038546" lon="9.967612566332251"><ele>550.0</ele><time>2026-04-25T07:40:31.999Z</time></trkpt><trkpt lat="44.72847116947509" lon="9.967338684321653"><ele>540.0</ele><time>2026-04-25T07:40:32.999Z</time></trkpt><trkpt lat="44.72835613311415" lon="9.96707045221505"><ele>530.0</ele><time>2026-04-25T07:40:33.999Z</time></trkpt><trkpt lat="44.72820360819986" lon="9.966799541142013"><ele>531.6666666666666</ele><time>2026-04-25T07:40:34.999Z</time></trkpt><trkpt lat="44.728074763810014" lon="9.966538790881595"><ele>533.3333333333334</ele><time>2026-04-25T07:40:35.999Z</time></trkpt><trkpt lat="44.72796469523082" lon="9.96630259905204"><ele>535.0</ele><time>2026-04-25T07:40:36.999Z</time></trkpt><trkpt lat="44.72786308255728" lon="9.966081257038825"><ele>535.0</ele><time>2026-04-25T07:40:37.999Z</time></trkpt><trkpt lat="44.727741359467444" lon="9.965887478101536"><ele>535.0</ele><time>2026-04-25T07:40:38.999Z</time></trkpt><trkpt lat="44.72758002342962" lon="9.96573220245027"><ele>535.0</ele><time>2026-04-25T07:40:39.999Z</time></trkpt><trkpt lat="44.7273791051821" lon="9.965599223396202"><ele>531.6666666666667</ele><time>2026-04-25T07:40:40.999Z</time></trkpt><trkpt lat="44.727192953797456" lon="9.96547613960413"><ele>528.3333333333334</ele><time>2026-04-25T07:40:41.999Z</time></trkpt><trkpt lat="44.72704105314082" lon="9.965349517349704"><ele>525.0</ele><time>2026-04-25T07:40:42.999Z</time></trkpt><trkpt lat="44.726966120850406" lon="9.965200494528382"><ele>525.0</ele><time>2026-04-25T07:40:43.999Z</time></trkpt><trkpt lat="44.72692456337109" lon="9.965029624782831"><ele>525.0</ele><time>2026-04-25T07:40:44.999Z</time></trkpt><trkpt lat="44.72689172260227" lon="9.964781343490998"><ele>525.0</ele><time>2026-04-25T07:40:45.999Z</time></trkpt><trkpt lat="44.726881927983776" lon="9.964488157535037"><ele>521.0</ele><time>2026-04-25T07:40:46.999Z</time></trkpt><trkpt lat="44.726859172370084" lon="9.96418936650466"><ele>517.0</ele><time>2026-04-25T07:40:47.999Z</time></trkpt><trkpt lat="44.726817376712454" lon="9.963871310905887"><ele>513.0</ele><time>2026-04-25T07:40:48.999Z</time></trkpt><trkpt lat="44.726782306007884" lon="9.96359442902206"><ele>513.0</ele><time>2026-04-25T07:40:49.999Z</time></trkpt><trkpt lat="44.72676297284239" lon="9.96333978695173"><ele>513.0</ele><time>2026-04-25T07:40:50.999Z</time></trkpt><trkpt lat="44.72681558808444" lon="9.96310583144468"><ele>513.0</ele><time>2026-04-25T07:40:51.999Z</time></trkpt><trkpt lat="44.72688464671066" lon="9.962849789473061"><ele>518.0</ele><time>2026-04-25T07:40:52.999Z</time></trkpt><trkpt lat="44.726955646257494" lon="9.96261216334746"><ele>523.0</ele><time>2026-04-25T07:40:53.999Z</time></trkpt><trkpt lat="44.72699428472475" lon="9.962402961973194"><ele>528.0</ele><time>2026-04-25T07:40:54.999Z</time></trkpt><trkpt lat="44.72696607697081" lon="9.962203724268262"><ele>523.0</ele><time>2026-04-25T07:40:55.999Z</time></trkpt><trkpt lat="44.72684428998959" lon="9.962000901765865"><ele>518.0</ele><time>2026-04-25T07:40:56.999Z</time></trkpt><trkpt lat="44.72667923995565" lon="9.961770341413514"><ele>513.0</ele><time>2026-04-25T07:40:57.999Z</time></trkpt><trkpt lat="44.72655331460574" lon="9.961535065546391"><ele>513.0</ele><time>2026-04-25T07:40:58.999Z</time></trkpt><trkpt lat="44.72643400359729" lon="9.961334710699845"><ele>513.0</ele><time>2026-04-25T07:41:00Z</time></trkpt><trkpt lat="44.726392037288015" lon="9.961118241507693"><ele>513.0</ele><time>2026-04-25T07:41:01Z</time></trkpt><trkpt lat="44.72639684761298" lon="9.960897504944372"><ele>514.3333333333334</ele><time>2026-04-25T07:41:02Z</time></trkpt><trkpt lat="44.72639843250782" lon="9.960633011147957"><ele>515.6666666666667</ele><time>2026-04-25T07:41:03Z</time></trkpt><trkpt lat="44.726418063158256" lon="9.960352288376601"><ele>517.0</ele><time>2026-04-25T07:41:04Z</time></trkpt><trkpt lat="44.72642130244074" lon="9.960078137870102"><ele>516.6666666666667</ele><time>2026-04-25T07:41:05Z</time></trkpt><trkpt lat="44.72638596492581" lon="9.959802708340872"><ele>516.3333333333334</ele><time>2026-04-25T07:41:06Z</time></trkpt><trkpt lat="44.72629158422225" lon="9.959520270812812"><ele>516.0</ele><time>2026-04-25T07:41:07Z</time></trkpt><trkpt lat="44.726164576562766" lon="9.959230919359351"><ele>507.5</ele><time>2026-04-25T07:41:08Z</time></trkpt><trkpt lat="44.72604344727075" lon="9.958949827798364"><ele>499.0</ele><time>2026-04-25T07:41:09Z</time></trkpt><trkpt lat="44.725927138984915" lon="9.95868327476633"><ele>499.0</ele><time>2026-04-25T07:41:10Z</time></trkpt><trkpt lat="44.72579957929935" lon="9.958440940416576"><ele>499.0</ele><time>2026-04-25T07:41:11Z</time></trkpt><trkpt lat="44.72566240477836" lon="9.958208414912804"><ele>499.0</ele><time>2026-04-25T07:41:12Z</time></trkpt><trkpt lat="44.72556217234549" lon="9.957988968349753"><ele>500.75</ele><time>2026-04-25T07:41:13Z</time></trkpt><trkpt lat="44.72547328211986" lon="9.957844368140934"><ele>502.5</ele><time>2026-04-25T07:41:14Z</time></trkpt><trkpt lat="44.72544048613428" lon="9.957702486123132"><ele>504.25</ele><time>2026-04-25T07:41:15Z</time></trkpt><trkpt lat="44.725466697134266" lon="9.957523247902818"><ele>506.0</ele><time>2026-04-25T07:41:16Z</time></trkpt><trkpt lat="44.725570517110036" lon="9.95737608459356"><ele>506.66666666666663</ele><time>2026-04-25T07:41:17Z</time></trkpt><trkpt lat="44.72573202329226" lon="9.95730227162069"><ele>507.33333333333337</ele><time>2026-04-25T07:41:18Z</time></trkpt><trkpt lat="44.7258991435918" lon="9.957182556859808"><ele>508.0</ele><time>2026-04-25T07:41:19Z</time></trkpt><trkpt lat="44.72607695057122" lon="9.95708115367015"><ele>508.75</ele><time>2026-04-25T07:41:20Z</time></trkpt><trkpt lat="44.72621914847106" lon="9.956971799897415"><ele>509.5</ele><time>2026-04-25T07:41:21Z</time></trkpt><trkpt lat="44.72634048364733" lon="9.956862024902875"><ele>510.25</ele><time>2026-04-25T07:41:22Z</time></trkpt><trkpt lat="44.72642924390637" lon="9.95672534770922"><ele>511.0</ele><time>2026-04-25T07:41:23Z</time></trkpt><trkpt lat="44.726454603040004" lon="9.956537605680758"><ele>511.0</ele><time>2026-04-25T07:41:24Z</time></trkpt><trkpt lat="44.72640796576244" lon="9.956325148511015"><ele>511.0</ele><time>2026-04-25T07:41:25Z</time></trkpt><trkpt lat="44.726315236518786" lon="9.956143955957115"><ele>511.0</ele><time>2026-04-25T07:41:26Z</time></trkpt><trkpt lat="44.726260016122225" lon="9.955982979189425"><ele>511.0</ele><time>2026-04-25T07:41:27Z</time></trkpt><trkpt lat="44.72628232548873" lon="9.955796964124465"><ele>510.6666666666667</ele><time>2026-04-25T07:41:28Z</time></trkpt><trkpt lat="44.72639415376411" lon="9.95560666508581"><ele>510.33333333333337</ele><time>2026-04-25T07:41:29Z</time></trkpt><trkpt lat="44.72648200414611" lon="9.95537581945827"><ele>510.0</ele><time>2026-04-25T07:41:30Z</time></trkpt><trkpt lat="44.72659518814131" lon="9.955225559427621"><ele>510.0</ele><time>2026-04-25T07:41:31Z</time></trkpt><trkpt lat="44.72672441952176" lon="9.95514549159902"><ele>510.0</ele><time>2026-04-25T07:41:32Z</time></trkpt><trkpt lat="44.726854141016894" lon="9.95506392277903"><ele>510.0</ele><time>2026-04-25T07:41:33Z</time></trkpt><trkpt lat="44.72695357702908" lon="9.95494985673249"><ele>510.0</ele><time>2026-04-25T07:41:34Z</time></trkpt><trkpt lat="44.72699734319003" lon="9.954771562862213"><ele>512.0</ele><time>2026-04-25T07:41:35Z</time></trkpt><trkpt lat="44.72697987892498" lon="9.95455716229934"><ele>514.0</ele><time>2026-04-25T07:41:36Z</time></trkpt><trkpt lat="44.72693197433254" lon="9.954347775302185"><ele>516.0</ele><time>2026-04-25T07:41:37Z</time></trkpt><trkpt lat="44.726890153359996" lon="9.954159654419808"><ele>512.0</ele><time>2026-04-25T07:41:38Z</time></trkpt><trkpt lat="44.72685020859515" lon="9.954000098981343"><ele>508.0</ele><time>2026-04-25T07:41:39Z</time></trkpt><trkpt lat="44.726799046158995" lon="9.953810165569331"><ele>504.0</ele><time>2026-04-25T07:41:40Z</time></trkpt><trkpt lat="44.72667184030801" lon="9.953613386248104"><ele>504.0</ele><time>2026-04-25T07:41:41Z</time></trkpt><trkpt lat="44.726547355855175" lon="9.953466420873006"><ele>504.0</ele><time>2026-04-25T07:41:42Z</time></trkpt><trkpt lat="44.726389683963205" lon="9.953393598015879"><ele>504.0</ele><time>2026-04-25T07:41:43Z</time></trkpt><trkpt lat="44.72620585406197" lon="9.953371898285283"><ele>500.33333333333337</ele><time>2026-04-25T07:41:44Z</time></trkpt><trkpt lat="44.72601627865612" lon="9.953402870648041"><ele>496.6666666666667</ele><time>2026-04-25T07:41:45Z</time></trkpt><trkpt lat="44.72583129131688" lon="9.95347130398707"><ele>493.0</ele><time>2026-04-25T07:41:46Z</time></trkpt><trkpt lat="44.72562734155449" lon="9.953613370908048"><ele>493.0</ele><time>2026-04-25T07:41:47Z</time></trkpt><trkpt lat="44.725413434477915" lon="9.953723253788949"><ele>493.0</ele><time>2026-04-25T07:41:48Z</time></trkpt><trkpt lat="44.725199719323285" lon="9.953823979330386"><ele>493.0</ele><time>2026-04-25T07:41:49Z</time></trkpt><trkpt lat="44.72500307893447" lon="9.953907327268867"><ele>493.0</ele><time>2026-04-25T07:41:50Z</time></trkpt><trkpt lat="44.72481296882895" lon="9.953970177553803"><ele>493.0</ele><time>2026-04-25T07:41:51Z</time></trkpt><trkpt lat="44.72462096317652" lon="9.954028003359662"><ele>493.0</ele><time>2026-04-25T07:41:52Z</time></trkpt><trkpt lat="44.72445264265736" lon="9.954072615899976"><ele>493.0</ele><time>2026-04-25T07:41:53Z</time></trkpt><trkpt lat="44.724316212366595" lon="9.954075087724837"><ele>493.0</ele><time>2026-04-25T07:41:54Z</time></trkpt><trkpt lat="44.724197944235165" lon="9.954008968773993"><ele>493.0</ele><time>2026-04-25T07:41:55Z</time></trkpt><trkpt lat="44.72403753323597" lon="9.953901367005981"><ele>494.33333333333337</ele><time>2026-04-25T07:41:56Z</time></trkpt><trkpt lat="44.72385068764783" lon="9.953826627034202"><ele>495.66666666666663</ele><time>2026-04-25T07:41:57Z</time></trkpt><trkpt lat="44.72366465143033" lon="9.953783827978933"><ele>497.0</ele><time>2026-04-25T07:41:58Z</time></trkpt><trkpt lat="44.72351999979702" lon="9.953732071935649"><ele>499.66666666666663</ele><time>2026-04-25T07:41:59Z</time></trkpt><trkpt lat="44.723323848344705" lon="9.953647614695381"><ele>502.33333333333337</ele><time>2026-04-25T07:42:00Z</time></trkpt><trkpt lat="44.723192422603645" lon="9.953503491429874"><ele>505.0</ele><time>2026-04-25T07:42:01Z</time></trkpt><trkpt lat="44.72306677976033" lon="9.953302001253522"><ele>505.0</ele><time>2026-04-25T07:42:02Z</time></trkpt><trkpt lat="44.722952367285856" lon="9.953078566703885"><ele>505.0</ele><time>2026-04-25T07:42:03Z</time></trkpt><trkpt lat="44.72285685111869" lon="9.95288195243934"><ele>505.0</ele><time>2026-04-25T07:42:04Z</time></trkpt><trkpt lat="44.722744332607434" lon="9.952735101656364"><ele>496.33333333333337</ele><time>2026-04-25T07:42:05Z</time></trkpt><trkpt lat="44.72259719975729" lon="9.952633397817296"><ele>487.66666666666663</ele><time>2026-04-25T07:42:06Z</time></trkpt><trkpt lat="44.722409828465885" lon="9.952603209427581"><ele>479.0</ele><time>2026-04-25T07:42:07Z</time></trkpt><trkpt lat="44.7222328614838" lon="9.952631570643813"><ele>479.0</ele><time>2026-04-25T07:42:07.999Z</time></trkpt><trkpt lat="44.72213374575945" lon="9.95259238617959"><ele>479.0</ele><time>2026-04-25T07:42:08.999Z</time></trkpt><trkpt lat="44.721992037727546" lon="9.95255218335732"><ele>479.0</ele><time>2026-04-25T07:42:09.999Z</time></trkpt><trkpt lat="44.721875138567206" lon="9.95242275183132"><ele>479.0</ele><time>2026-04-25T07:42:10.999Z</time></trkpt><trkpt lat="44.72176394603693" lon="9.952199747013841"><ele>481.0</ele><time>2026-04-25T07:42:11.999Z</time></trkpt><trkpt lat="44.72166489480701" lon="9.95195918686107"><ele>483.0</ele><time>2026-04-25T07:42:12.999Z</time></trkpt><trkpt lat="44.721597805667194" lon="9.951704947853885"><ele>485.0</ele><time>2026-04-25T07:42:13.999Z</time></trkpt><trkpt lat="44.72156043301662" lon="9.951429190266838"><ele>487.66666666666663</ele><time>2026-04-25T07:42:14.999Z</time></trkpt><trkpt lat="44.72153482230673" lon="9.951179784318334"><ele>490.33333333333337</ele><time>2026-04-25T07:42:15.999Z</time></trkpt><trkpt lat="44.721556494745066" lon="9.950966498209704"><ele>493.0</ele><time>2026-04-25T07:42:16.999Z</time></trkpt><trkpt lat="44.721635185015984" lon="9.950773598252558"><ele>493.0</ele><time>2026-04-25T07:42:17.999Z</time></trkpt><trkpt lat="44.72174889448903" lon="9.950544041895117"><ele>493.0</ele><time>2026-04-25T07:42:18.999Z</time></trkpt><trkpt lat="44.72188629449885" lon="9.950326820463252"><ele>493.0</ele><time>2026-04-25T07:42:19.999Z</time></trkpt><trkpt lat="44.722003384868856" lon="9.950095886740113"><ele>496.6666666666667</ele><time>2026-04-25T07:42:20.999Z</time></trkpt><trkpt lat="44.72208165702338" lon="9.949846715933793"><ele>500.33333333333337</ele><time>2026-04-25T07:42:21.999Z</time></trkpt><trkpt lat="44.72214626169873" lon="9.949579690168216"><ele>504.0</ele><time>2026-04-25T07:42:22.999Z</time></trkpt><trkpt lat="44.722189107812035" lon="9.949323942479301"><ele>504.33333333333337</ele><time>2026-04-25T07:42:23.999Z</time></trkpt><trkpt lat="44.72218699207488" lon="9.949092231535223"><ele>504.6666666666667</ele><time>2026-04-25T07:42:24.999Z</time></trkpt><trkpt lat="44.72213422648113" lon="9.94887758703318"><ele>505.0</ele><time>2026-04-25T07:42:25.999Z</time></trkpt><trkpt lat="44.722001495859296" lon="9.948681955181828"><ele>499.0</ele><time>2026-04-25T07:42:26.999Z</time></trkpt><trkpt lat="44.721854681000764" lon="9.948502521067528"><ele>493.0</ele><time>2026-04-25T07:42:27.999Z</time></trkpt><trkpt lat="44.72177981640984" lon="9.948309649318562"><ele>487.0</ele><time>2026-04-25T07:42:28.999Z</time></trkpt><trkpt lat="44.72174385532852" lon="9.94810017107553"><ele>487.0</ele><time>2026-04-25T07:42:29.999Z</time></trkpt><trkpt lat="44.72171527532979" lon="9.947853627612135"><ele>487.0</ele><time>2026-04-25T07:42:30.999Z</time></trkpt><trkpt lat="44.72170782400281" lon="9.947567575017805"><ele>487.0</ele><time>2026-04-25T07:42:31.999Z</time></trkpt><trkpt lat="44.72169329334256" lon="9.947277737516588"><ele>487.33333333333337</ele><time>2026-04-25T07:42:32.999Z</time></trkpt><trkpt lat="44.721674306825584" lon="9.947003312983709"><ele>487.66666666666663</ele><time>2026-04-25T07:42:33.999Z</time></trkpt><trkpt lat="44.721639629056305" lon="9.946764455478837"><ele>488.0</ele><time>2026-04-25T07:42:34.999Z</time></trkpt><trkpt lat="44.72154435561675" lon="9.946575912139386"><ele>490.0</ele><time>2026-04-25T07:42:35.999Z</time></trkpt><trkpt lat="44.721433415148496" lon="9.946385781500574"><ele>492.0</ele><time>2026-04-25T07:42:36.999Z</time></trkpt><trkpt lat="44.72137952733342" lon="9.946158726184004"><ele>494.0</ele><time>2026-04-25T07:42:37.999Z</time></trkpt><trkpt lat="44.72133320750263" lon="9.945927978720759"><ele>494.0</ele><time>2026-04-25T07:42:38.999Z</time></trkpt><trkpt lat="44.72133356200496" lon="9.945730085290593"><ele>494.0</ele><time>2026-04-25T07:42:39.999Z</time></trkpt><trkpt lat="44.72136975965084" lon="9.945577921716046"><ele>494.0</ele><time>2026-04-25T07:42:40.999Z</time></trkpt><trkpt lat="44.721444283638256" lon="9.945432267269124"><ele>494.0</ele><time>2026-04-25T07:42:41.999Z</time></trkpt><trkpt lat="44.72158403707214" lon="9.945321262273188"><ele>494.0</ele><time>2026-04-25T07:42:42.999Z</time></trkpt><trkpt lat="44.72175240778887" lon="9.945176568665978"><ele>494.0</ele><time>2026-04-25T07:42:43.999Z</time></trkpt><trkpt lat="44.72195126757991" lon="9.945069074627055"><ele>494.0</ele><time>2026-04-25T07:42:44.999Z</time></trkpt><trkpt lat="44.722130886903614" lon="9.944946471868073"><ele>494.0</ele><time>2026-04-25T07:42:45.999Z</time></trkpt><trkpt lat="44.72226833128138" lon="9.944783906960932"><ele>494.0</ele><time>2026-04-25T07:42:46.999Z</time></trkpt><trkpt lat="44.72235680980026" lon="9.944551424718467"><ele>494.0</ele><time>2026-04-25T07:42:47.999Z</time></trkpt><trkpt lat="44.72240187575736" lon="9.944253920089414"><ele>492.0</ele><time>2026-04-25T07:42:48.999Z</time></trkpt><trkpt lat="44.72244869586298" lon="9.943939770295733"><ele>490.0</ele><time>2026-04-25T07:42:49.999Z</time></trkpt><trkpt lat="44.722513648403506" lon="9.943629151992859"><ele>490.5</ele><time>2026-04-25T07:42:50.999Z</time></trkpt><trkpt lat="44.722582492144255" lon="9.943325711202762"><ele>491.0</ele><time>2026-04-25T07:42:51.999Z</time></trkpt><trkpt lat="44.72265326150542" lon="9.943018462649786"><ele>491.0</ele><time>2026-04-25T07:42:52.999Z</time></trkpt><trkpt lat="44.72272064028684" lon="9.942714093860825"><ele>491.0</ele><time>2026-04-25T07:42:53.999Z</time></trkpt><trkpt lat="44.72278983045568" lon="9.942401911293148"><ele>480.5</ele><time>2026-04-25T07:42:54.999Z</time></trkpt><trkpt lat="44.72286135687176" lon="9.942091045154557"><ele>470.0</ele><time>2026-04-25T07:42:55.999Z</time></trkpt><trkpt lat="44.72292970757464" lon="9.941779721217616"><ele>469.0</ele><time>2026-04-25T07:42:56.999Z</time></trkpt><trkpt lat="44.72298062546602" lon="9.941469508596086"><ele>468.0</ele><time>2026-04-25T07:42:57.999Z</time></trkpt><trkpt lat="44.72302309310873" lon="9.94118325881146"><ele>467.0</ele><time>2026-04-25T07:42:58.999Z</time></trkpt><trkpt lat="44.723104972186135" lon="9.940929613775584"><ele>467.3333333333333</ele><time>2026-04-25T07:42:59.999Z</time></trkpt><trkpt lat="44.72322203132694" lon="9.940717239083272"><ele>467.66666666666663</ele><time>2026-04-25T07:43:00.999Z</time></trkpt><trkpt lat="44.72335214082625" lon="9.940523636444127"><ele>468.0</ele><time>2026-04-25T07:43:01.999Z</time></trkpt><trkpt lat="44.72347516420713" lon="9.940384806611597"><ele>468.0</ele><time>2026-04-25T07:43:02.999Z</time></trkpt><trkpt lat="44.72354382223298" lon="9.940255754483807"><ele>468.0</ele><time>2026-04-25T07:43:03.999Z</time></trkpt><trkpt lat="44.723581709641316" lon="9.94008418589729"><ele>468.0</ele><time>2026-04-25T07:43:04.999Z</time></trkpt><trkpt lat="44.72355984174379" lon="9.939885454494924"><ele>468.0</ele><time>2026-04-25T07:43:06Z</time></trkpt><trkpt lat="44.72346757981719" lon="9.9396875603699"><ele>468.0</ele><time>2026-04-25T07:43:07Z</time></trkpt><trkpt lat="44.72331492720194" lon="9.939504145559145"><ele>468.0</ele><time>2026-04-25T07:43:08Z</time></trkpt><trkpt lat="44.723158774543904" lon="9.939288069650319"><ele>468.0</ele><time>2026-04-25T07:43:09Z</time></trkpt><trkpt lat="44.723003602813876" lon="9.939060940281369"><ele>466.66666666666663</ele><time>2026-04-25T07:43:10Z</time></trkpt><trkpt lat="44.7228451774971" lon="9.938829048274831"><ele>465.3333333333333</ele><time>2026-04-25T07:43:11Z</time></trkpt><trkpt lat="44.72269711865" lon="9.938612331217744"><ele>464.0</ele><time>2026-04-25T07:43:12Z</time></trkpt><trkpt lat="44.72254668760898" lon="9.938420785195818"><ele>462.0</ele><time>2026-04-25T07:43:13Z</time></trkpt><trkpt lat="44.72241743823217" lon="9.938202395567084"><ele>460.0</ele><time>2026-04-25T07:43:14Z</time></trkpt><trkpt lat="44.722281498345886" lon="9.93800316130768"><ele>458.0</ele><time>2026-04-25T07:43:15Z</time></trkpt><trkpt lat="44.722148628237434" lon="9.937807365642335"><ele>458.0</ele><time>2026-04-25T07:43:16Z</time></trkpt><trkpt lat="44.72205462670172" lon="9.937663347103122"><ele>457.99999999999994</ele><time>2026-04-25T07:43:17Z</time></trkpt><trkpt lat="44.72199870944271" lon="9.937544344290393"><ele>457.99999999999994</ele><time>2026-04-25T07:43:18Z</time></trkpt><trkpt lat="44.721986435372706" lon="9.937434038336356"><ele>458.0</ele><time>2026-04-25T07:43:19Z</time></trkpt><trkpt lat="44.722052440572796" lon="9.937329485534514"><ele>458.0</ele><time>2026-04-25T07:43:20Z</time></trkpt><trkpt lat="44.72217066678711" lon="9.937295700727741"><ele>455.0</ele><time>2026-04-25T07:43:21Z</time></trkpt><trkpt lat="44.72229685628148" lon="9.937271607971937"><ele>452.0</ele><time>2026-04-25T07:43:22Z</time></trkpt><trkpt lat="44.72245334396156" lon="9.93728393626019"><ele>449.0</ele><time>2026-04-25T07:43:23Z</time></trkpt><trkpt lat="44.722623606823355" lon="9.937258734526653"><ele>449.0</ele><time>2026-04-25T07:43:24Z</time></trkpt><trkpt lat="44.72280947473728" lon="9.937225782776599"><ele>449.0</ele><time>2026-04-25T07:43:25Z</time></trkpt><trkpt lat="44.723006887308536" lon="9.937191754386685"><ele>449.0</ele><time>2026-04-25T07:43:26Z</time></trkpt><trkpt lat="44.723197599899166" lon="9.93715768002203"><ele>449.0</ele><time>2026-04-25T07:43:27Z</time></trkpt><trkpt lat="44.72337345664325" lon="9.937129610844105"><ele>449.0</ele><time>2026-04-25T07:43:28Z</time></trkpt><trkpt lat="44.723544773543914" lon="9.93710506018946"><ele>449.0</ele><time>2026-04-25T07:43:29Z</time></trkpt><trkpt lat="44.723712412402406" lon="9.937082328237784"><ele>446.66666666666663</ele><time>2026-04-25T07:43:30Z</time></trkpt><trkpt lat="44.72387676131461" lon="9.937052897395226"><ele>444.33333333333337</ele><time>2026-04-25T07:43:31Z</time></trkpt><trkpt lat="44.72403999318586" lon="9.937011030048122"><ele>442.0</ele><time>2026-04-25T07:43:32Z</time></trkpt><trkpt lat="44.72420037006809" lon="9.936945380624223"><ele>442.0</ele><time>2026-04-25T07:43:33Z</time></trkpt><trkpt lat="44.7243572772878" lon="9.936856789617723"><ele>442.0</ele><time>2026-04-25T07:43:34Z</time></trkpt><trkpt lat="44.72451019163635" lon="9.936757793523148"><ele>442.0</ele><time>2026-04-25T07:43:35Z</time></trkpt><trkpt lat="44.72465753704538" lon="9.936665692637806"><ele>440.0</ele><time>2026-04-25T07:43:36Z</time></trkpt><trkpt lat="44.72480771565935" lon="9.936570637644014"><ele>438.0</ele><time>2026-04-25T07:43:37Z</time></trkpt><trkpt lat="44.72494706899795" lon="9.936481469330923"><ele>436.0</ele><time>2026-04-25T07:43:38Z</time></trkpt><trkpt lat="44.72508799911838" lon="9.936396687582908"><ele>434.6666666666667</ele><time>2026-04-25T07:43:39Z</time></trkpt><trkpt lat="44.725236197006154" lon="9.936299381164519"><ele>433.33333333333337</ele><time>2026-04-25T07:43:40Z</time></trkpt><trkpt lat="44.725383008174205" lon="9.936234030470663"><ele>432.0</ele><time>2026-04-25T07:43:41Z</time></trkpt><trkpt lat="44.72552567876093" lon="9.936166293131622"><ele>432.0</ele><time>2026-04-25T07:43:42Z</time></trkpt><trkpt lat="44.725673949675524" lon="9.936115641437596"><ele>432.0</ele><time>2026-04-25T07:43:43Z</time></trkpt><trkpt lat="44.725825338660535" lon="9.936073649751098"><ele>432.0</ele><time>2026-04-25T07:43:44Z</time></trkpt><trkpt lat="44.72597153724539" lon="9.9360317839483"><ele>432.0</ele><time>2026-04-25T07:43:45Z</time></trkpt><trkpt lat="44.72611819698795" lon="9.935980348897592"><ele>432.0</ele><time>2026-04-25T07:43:46Z</time></trkpt><trkpt lat="44.72626296628959" lon="9.935929775009258"><ele>432.0</ele><time>2026-04-25T07:43:47Z</time></trkpt><trkpt lat="44.726409903718704" lon="9.935884771611997"><ele>432.0</ele><time>2026-04-25T07:43:48Z</time></trkpt><trkpt lat="44.726557139419924" lon="9.935833244696779"><ele>432.0</ele><time>2026-04-25T07:43:49Z</time></trkpt><trkpt lat="44.72670735999287" lon="9.935779793984542"><ele>432.0</ele><time>2026-04-25T07:43:50Z</time></trkpt><trkpt lat="44.72684653662396" lon="9.935737025952013"><ele>432.0</ele><time>2026-04-25T07:43:51Z</time></trkpt><trkpt lat="44.72699556531399" lon="9.935699005244722"><ele>431.75</ele><time>2026-04-25T07:43:52Z</time></trkpt><trkpt lat="44.72713928257582" lon="9.935651443382"><ele>431.5</ele><time>2026-04-25T07:43:53Z</time></trkpt><trkpt lat="44.727281130289356" lon="9.935607001531364"><ele>431.25</ele><time>2026-04-25T07:43:54Z</time></trkpt><trkpt lat="44.727418872184835" lon="9.935558240440358"><ele>431.0</ele><time>2026-04-25T07:43:55Z</time></trkpt><trkpt lat="44.72756088729688" lon="9.935514471067187"><ele>431.0</ele><time>2026-04-25T07:43:56Z</time></trkpt><trkpt lat="44.72770038737464" lon="9.935468723993253"><ele>431.0</ele><time>2026-04-25T07:43:57Z</time></trkpt><trkpt lat="44.72784197004103" lon="9.935423332209293"><ele>431.0</ele><time>2026-04-25T07:43:58Z</time></trkpt><trkpt lat="44.727977498189816" lon="9.9353666842647"><ele>431.0</ele><time>2026-04-25T07:43:59Z</time></trkpt><trkpt lat="44.72810714633682" lon="9.935287550344654"><ele>431.3333333333333</ele><time>2026-04-25T07:44:00Z</time></trkpt><trkpt lat="44.72822391240069" lon="9.935161236192878"><ele>431.66666666666663</ele><time>2026-04-25T07:44:01Z</time></trkpt><trkpt lat="44.72831776243267" lon="9.93496602814043"><ele>432.0</ele><time>2026-04-25T07:44:02Z</time></trkpt><trkpt lat="44.72842602844631" lon="9.934786895420414"><ele>432.0</ele><time>2026-04-25T07:44:03Z</time></trkpt><trkpt lat="44.72854309528948" lon="9.934603801339776"><ele>432.0</ele><time>2026-04-25T07:44:04Z</time></trkpt><trkpt lat="44.728640863832524" lon="9.934441680093649"><ele>432.0</ele><time>2026-04-25T07:44:05Z</time></trkpt><trkpt lat="44.728747768264206" lon="9.934244816898723"><ele>432.33333333333337</ele><time>2026-04-25T07:44:06Z</time></trkpt><trkpt lat="44.728856044344404" lon="9.934049794693884"><ele>432.6666666666667</ele><time>2026-04-25T07:44:07Z</time></trkpt><trkpt lat="44.72896406834716" lon="9.933844637416318"><ele>433.0</ele><time>2026-04-25T07:44:08Z</time></trkpt><trkpt lat="44.729072748527386" lon="9.933642453766513"><ele>433.0</ele><time>2026-04-25T07:44:09Z</time></trkpt><trkpt lat="44.72917994596946" lon="9.933426362739866"><ele>433.0</ele><time>2026-04-25T07:44:10Z</time></trkpt><trkpt lat="44.72927976547663" lon="9.933223414506173"><ele>433.0</ele><time>2026-04-25T07:44:11Z</time></trkpt><trkpt lat="44.72938704316782" lon="9.93301705449662"><ele>433.0</ele><time>2026-04-25T07:44:12Z</time></trkpt><trkpt lat="44.72949317534948" lon="9.932812357264877"><ele>433.0</ele><time>2026-04-25T07:44:13Z</time></trkpt><trkpt lat="44.72959875629041" lon="9.932604676942036"><ele>433.0</ele><time>2026-04-25T07:44:14Z</time></trkpt><trkpt lat="44.72970405985148" lon="9.932404453492001"><ele>433.0</ele><time>2026-04-25T07:44:15Z</time></trkpt><trkpt lat="44.72980535268497" lon="9.932210254883328"><ele>433.0</ele><time>2026-04-25T07:44:16Z</time></trkpt><trkpt lat="44.729905879081485" lon="9.932008348392072"><ele>433.0</ele><time>2026-04-25T07:44:16.999Z</time></trkpt><trkpt lat="44.73000423154482" lon="9.931821705564493"><ele>432.75</ele><time>2026-04-25T07:44:17.999Z</time></trkpt><trkpt lat="44.73009696348353" lon="9.931650970257161"><ele>432.5</ele><time>2026-04-25T07:44:18.999Z</time></trkpt><trkpt lat="44.730184574082195" lon="9.931490551295742"><ele>432.25</ele><time>2026-04-25T07:44:19.999Z</time></trkpt><trkpt lat="44.73026709236847" lon="9.931338097201358"><ele>432.0</ele><time>2026-04-25T07:44:20.999Z</time></trkpt><trkpt lat="44.73034220331277" lon="9.931188413325515"><ele>432.0</ele><time>2026-04-25T07:44:21.999Z</time></trkpt><trkpt lat="44.730419386523195" lon="9.931014520760668"><ele>432.0</ele><time>2026-04-25T07:44:22.999Z</time></trkpt><trkpt lat="44.730494956632775" lon="9.930834502658413"><ele>432.0</ele><time>2026-04-25T07:44:23.999Z</time></trkpt><trkpt lat="44.730577970528216" lon="9.930645999258592"><ele>430.66666666666663</ele><time>2026-04-25T07:44:24.999Z</time></trkpt><trkpt lat="44.73066521939033" lon="9.930454078614396"><ele>429.3333333333333</ele><time>2026-04-25T07:44:25.999Z</time></trkpt><trkpt lat="44.730751133679945" lon="9.930262140441606"><ele>428.0</ele><time>2026-04-25T07:44:26.999Z</time></trkpt><trkpt lat="44.73083022173398" lon="9.930087283936427"><ele>428.0</ele><time>2026-04-25T07:44:27.999Z</time></trkpt><trkpt lat="44.73090649723893" lon="9.929910516301309"><ele>428.0</ele><time>2026-04-25T07:44:28.999Z</time></trkpt><trkpt lat="44.73098249970196" lon="9.929739989431948"><ele>428.0</ele><time>2026-04-25T07:44:29.999Z</time></trkpt><trkpt lat="44.731058956013854" lon="9.92957511294693"><ele>428.0</ele><time>2026-04-25T07:44:30.999Z</time></trkpt><trkpt lat="44.7311335762791" lon="9.929409283765048"><ele>428.0</ele><time>2026-04-25T07:44:31.999Z</time></trkpt><trkpt lat="44.731204757575256" lon="9.92923264272591"><ele>428.0</ele><time>2026-04-25T07:44:32.999Z</time></trkpt><trkpt lat="44.73128199668037" lon="9.929062562060453"><ele>428.0</ele><time>2026-04-25T07:44:33.999Z</time></trkpt><trkpt lat="44.73136349002668" lon="9.928889421460056"><ele>428.0</ele><time>2026-04-25T07:44:34.999Z</time></trkpt><trkpt lat="44.73144977676046" lon="9.928725832435838"><ele>426.79999999999995</ele><time>2026-04-25T07:44:35.999Z</time></trkpt><trkpt lat="44.731544819381014" lon="9.928584692179536"><ele>425.59999999999997</ele><time>2026-04-25T07:44:36.999Z</time></trkpt><trkpt lat="44.731640146177746" lon="9.928473176840086"><ele>424.4</ele><time>2026-04-25T07:44:37.999Z</time></trkpt><trkpt lat="44.73172432326969" lon="9.928381509246861"><ele>423.20000000000005</ele><time>2026-04-25T07:44:38.999Z</time></trkpt><trkpt lat="44.731782604629366" lon="9.928309976808933"><ele>422.0</ele><time>2026-04-25T07:44:39.999Z</time></trkpt><trkpt lat="44.73182402646831" lon="9.928142751957408"><ele>420.8</ele><time>2026-04-25T07:44:41.999Z</time></trkpt><trkpt lat="44.731782743790276" lon="9.928057295141068"><ele>419.6</ele><time>2026-04-25T07:44:42.999Z</time></trkpt><trkpt lat="44.731713568683766" lon="9.927983450817749"><ele>418.40000000000003</ele><time>2026-04-25T07:44:43.999Z</time></trkpt><trkpt lat="44.73163161793579" lon="9.92787177208505"><ele>417.20000000000005</ele><time>2026-04-25T07:44:44.999Z</time></trkpt><trkpt lat="44.731572523520875" lon="9.927751638788651"><ele>416.0</ele><time>2026-04-25T07:44:45.999Z</time></trkpt><trkpt lat="44.73148875913307" lon="9.927615866563176"><ele>415.5</ele><time>2026-04-25T07:44:46.999Z</time></trkpt><trkpt lat="44.73140421509178" lon="9.927463773516255"><ele>415.0</ele><time>2026-04-25T07:44:47.999Z</time></trkpt><trkpt lat="44.73135411788569" lon="9.927290165996153"><ele>414.5</ele><time>2026-04-25T07:44:48.999Z</time></trkpt><trkpt lat="44.73139946484867" lon="9.927101388613588"><ele>414.0</ele><time>2026-04-25T07:44:49.999Z</time></trkpt><trkpt lat="44.73145402625313" lon="9.926868952568082"><ele>415.0</ele><time>2026-04-25T07:44:50.999Z</time></trkpt><trkpt lat="44.73151623000454" lon="9.926612826059939"><ele>416.0</ele><time>2026-04-25T07:44:51.999Z</time></trkpt><trkpt lat="44.73158268419679" lon="9.926352708551896"><ele>417.0</ele><time>2026-04-25T07:44:52.999Z</time></trkpt><trkpt lat="44.73164156751761" lon="9.926091027184942"><ele>418.33333333333337</ele><time>2026-04-25T07:44:53.999Z</time></trkpt><trkpt lat="44.731696494090144" lon="9.925864267039888"><ele>419.6666666666667</ele><time>2026-04-25T07:44:54.999Z</time></trkpt><trkpt lat="44.731746137141066" lon="9.925662546508255"><ele>421.0</ele><time>2026-04-25T07:44:55.999Z</time></trkpt><trkpt lat="44.73178798206412" lon="9.925477976289566"><ele>421.0</ele><time>2026-04-25T07:44:56.999Z</time></trkpt><trkpt lat="44.731826023801524" lon="9.92529393261347"><ele>421.0</ele><time>2026-04-25T07:44:57.999Z</time></trkpt><trkpt lat="44.73185487968096" lon="9.925133624674814"><ele>421.0</ele><time>2026-04-25T07:44:58.999Z</time></trkpt><trkpt lat="44.73188472153123" lon="9.92500423022141"><ele>421.0</ele><time>2026-04-25T07:44:59.999Z</time></trkpt><trkpt lat="44.73194091697407" lon="9.924900346387156"><ele>421.0</ele><time>2026-04-25T07:45:00.999Z</time></trkpt><trkpt lat="44.73199244723673" lon="9.924794904293606"><ele>422.5</ele><time>2026-04-25T07:45:01.999Z</time></trkpt><trkpt lat="44.73202180233601" lon="9.924693378363392"><ele>424.0</ele><time>2026-04-25T07:45:02.999Z</time></trkpt><trkpt lat="44.73202405199885" lon="9.924601278089089"><ele>425.5</ele><time>2026-04-25T07:45:04.999Z</time></trkpt><trkpt lat="44.73188744429498" lon="9.924349763564562"><ele>427.0</ele><time>2026-04-25T07:45:07.999Z</time></trkpt><trkpt lat="44.73179699113928" lon="9.924197394013612"><ele>427.33333333333337</ele><time>2026-04-25T07:45:08.999Z</time></trkpt><trkpt lat="44.73171984957234" lon="9.924031605346924"><ele>427.66666666666663</ele><time>2026-04-25T07:45:09.999Z</time></trkpt><trkpt lat="44.73161132250267" lon="9.923817108275315"><ele>428.0</ele><time>2026-04-25T07:45:10.999Z</time></trkpt><trkpt lat="44.73149138278944" lon="9.923604988169883"><ele>428.0</ele><time>2026-04-25T07:45:12Z</time></trkpt><trkpt lat="44.7313906829867" lon="9.92339725864647"><ele>428.0</ele><time>2026-04-25T07:45:13Z</time></trkpt><trkpt lat="44.7312966496512" lon="9.923223022972259"><ele>428.0</ele><time>2026-04-25T07:45:14Z</time></trkpt><trkpt lat="44.73121760974646" lon="9.923073034996"><ele>427.75</ele><time>2026-04-25T07:45:15Z</time></trkpt><trkpt lat="44.731157153266636" lon="9.92292933376644"><ele>427.5</ele><time>2026-04-25T07:45:16Z</time></trkpt><trkpt lat="44.73113345618349" lon="9.922796091121635"><ele>427.25</ele><time>2026-04-25T07:45:17Z</time></trkpt><trkpt lat="44.731150702470956" lon="9.92264756969973"><ele>427.0</ele><time>2026-04-25T07:45:18Z</time></trkpt><trkpt lat="44.73126330513812" lon="9.922532864902161"><ele>428.6666666666667</ele><time>2026-04-25T07:45:19Z</time></trkpt><trkpt lat="44.73138702320561" lon="9.922430055636175"><ele>430.33333333333337</ele><time>2026-04-25T07:45:20Z</time></trkpt><trkpt lat="44.73151983350867" lon="9.922308815827488"><ele>432.0</ele><time>2026-04-25T07:45:21Z</time></trkpt><trkpt lat="44.731652235144715" lon="9.922196015862282"><ele>432.0</ele><time>2026-04-25T07:45:22Z</time></trkpt><trkpt lat="44.73175285410931" lon="9.92208158834868"><ele>432.00000000000006</ele><time>2026-04-25T07:45:23Z</time></trkpt><trkpt lat="44.731809937537854" lon="9.921948257674012"><ele>432.00000000000006</ele><time>2026-04-25T07:45:24Z</time></trkpt><trkpt lat="44.73181523643159" lon="9.921818808769464"><ele>432.0</ele><time>2026-04-25T07:45:25Z</time></trkpt><trkpt lat="44.73180089451927" lon="9.921702018409489"><ele>432.0</ele><time>2026-04-25T07:45:26Z</time></trkpt><trkpt lat="44.731728478869634" lon="9.921605874762502"><ele>432.0</ele><time>2026-04-25T07:45:27Z</time></trkpt><trkpt lat="44.731614917167846" lon="9.921601526285803"><ele>432.0</ele><time>2026-04-25T07:45:28Z</time></trkpt><trkpt lat="44.7314819476787" lon="9.921710189649499"><ele>432.0</ele><time>2026-04-25T07:45:29Z</time></trkpt><trkpt lat="44.73132861218823" lon="9.921785901246169"><ele>432.0</ele><time>2026-04-25T07:45:30Z</time></trkpt><trkpt lat="44.73115861979064" lon="9.921788867784224"><ele>435.5</ele><time>2026-04-25T07:45:31Z</time></trkpt><trkpt lat="44.73099596848882" lon="9.92177282283863"><ele>439.0</ele><time>2026-04-25T07:45:32Z</time></trkpt><trkpt lat="44.73086511881117" lon="9.921756531932186"><ele>442.5</ele><time>2026-04-25T07:45:33Z</time></trkpt><trkpt lat="44.73078136379293" lon="9.921737607417766"><ele>446.0</ele><time>2026-04-25T07:45:34Z</time></trkpt><trkpt lat="44.73070982814407" lon="9.92162681303469"><ele>446.75</ele><time>2026-04-25T07:45:36Z</time></trkpt><trkpt lat="44.73074118582023" lon="9.921506847815461"><ele>447.5</ele><time>2026-04-25T07:45:37Z</time></trkpt><trkpt lat="44.730827014721854" lon="9.921368495249878"><ele>448.25</ele><time>2026-04-25T07:45:38Z</time></trkpt><trkpt lat="44.73095426950584" lon="9.921226240622671"><ele>449.0</ele><time>2026-04-25T07:45:39Z</time></trkpt><trkpt lat="44.73110378284498" lon="9.921150077603835"><ele>448.25</ele><time>2026-04-25T07:45:40Z</time></trkpt><trkpt lat="44.731249883762175" lon="9.921059865793495"><ele>447.5</ele><time>2026-04-25T07:45:41Z</time></trkpt><trkpt lat="44.73136383196953" lon="9.920990888458022"><ele>446.75</ele><time>2026-04-25T07:45:42Z</time></trkpt><trkpt lat="44.731445409675395" lon="9.920883842099979"><ele>446.0</ele><time>2026-04-25T07:45:43Z</time></trkpt><trkpt lat="44.73149216493964" lon="9.920713378185688"><ele>446.0</ele><time>2026-04-25T07:45:44Z</time></trkpt><trkpt lat="44.73150607021498" lon="9.920475600530112"><ele>446.0</ele><time>2026-04-25T07:45:45Z</time></trkpt><trkpt lat="44.73147949820734" lon="9.920240405766375"><ele>446.0</ele><time>2026-04-25T07:45:46Z</time></trkpt><trkpt lat="44.73142315896559" lon="9.920049417933564"><ele>448.3333333333333</ele><time>2026-04-25T07:45:47Z</time></trkpt><trkpt lat="44.73133736301101" lon="9.919893616774868"><ele>450.66666666666663</ele><time>2026-04-25T07:45:48Z</time></trkpt><trkpt lat="44.73121429619867" lon="9.919747368745352"><ele>453.0</ele><time>2026-04-25T07:45:49Z</time></trkpt><trkpt lat="44.73110307592735" lon="9.919582733922768"><ele>455.5</ele><time>2026-04-25T07:45:50Z</time></trkpt><trkpt lat="44.73101529201657" lon="9.919426830391236"><ele>458.0</ele><time>2026-04-25T07:45:51Z</time></trkpt><trkpt lat="44.73097504207235" lon="9.91926401037183"><ele>460.5</ele><time>2026-04-25T07:45:52Z</time></trkpt><trkpt lat="44.73098656637977" lon="9.919064629081518"><ele>463.0</ele><time>2026-04-25T07:45:53Z</time></trkpt><trkpt lat="44.73096448747021" lon="9.918835047276515"><ele>463.0</ele><time>2026-04-25T07:45:54Z</time></trkpt><trkpt lat="44.730950691991104" lon="9.918604986614797"><ele>463.0</ele><time>2026-04-25T07:45:55Z</time></trkpt><trkpt lat="44.730907462093114" lon="9.918382345685538"><ele>463.0</ele><time>2026-04-25T07:45:56Z</time></trkpt><trkpt lat="44.73083314060431" lon="9.918190403856938"><ele>463.75</ele><time>2026-04-25T07:45:57Z</time></trkpt><trkpt lat="44.7307774604198" lon="9.918053108504846"><ele>464.5</ele><time>2026-04-25T07:45:58Z</time></trkpt><trkpt lat="44.73078686651969" lon="9.917939089345705"><ele>465.25</ele><time>2026-04-25T07:45:59Z</time></trkpt><trkpt lat="44.73088732406483" lon="9.917845683802124"><ele>466.0</ele><time>2026-04-25T07:46:00Z</time></trkpt><trkpt lat="44.730971709144505" lon="9.91768972677439"><ele>466.25</ele><time>2026-04-25T07:46:01Z</time></trkpt><trkpt lat="44.73107391436713" lon="9.917546064180675"><ele>466.5</ele><time>2026-04-25T07:46:02Z</time></trkpt><trkpt lat="44.73114031363174" lon="9.917425285644713"><ele>466.75</ele><time>2026-04-25T07:46:03Z</time></trkpt><trkpt lat="44.73110470645144" lon="9.917275391392483"><ele>467.0</ele><time>2026-04-25T07:46:05Z</time></trkpt><trkpt lat="44.73098098803124" lon="9.917276983016865"><ele>466.66666666666663</ele><time>2026-04-25T07:46:06Z</time></trkpt><trkpt lat="44.73086320694304" lon="9.917354537724325"><ele>466.33333333333337</ele><time>2026-04-25T07:46:07Z</time></trkpt><trkpt lat="44.73072986770261" lon="9.917483293119632"><ele>466.0</ele><time>2026-04-25T07:46:08Z</time></trkpt><trkpt lat="44.7305765858024" lon="9.91759047479575"><ele>466.0</ele><time>2026-04-25T07:46:09Z</time></trkpt><trkpt lat="44.73042966487605" lon="9.917621728904953"><ele>466.0</ele><time>2026-04-25T07:46:10Z</time></trkpt><trkpt lat="44.730277643505524" lon="9.917618226952579"><ele>466.0</ele><time>2026-04-25T07:46:11Z</time></trkpt><trkpt lat="44.73011494485487" lon="9.917652310129794"><ele>469.33333333333337</ele><time>2026-04-25T07:46:12Z</time></trkpt><trkpt lat="44.72992618053726" lon="9.917704297279695"><ele>472.66666666666663</ele><time>2026-04-25T07:46:13Z</time></trkpt><trkpt lat="44.729757671007654" lon="9.917821920414813"><ele>476.0</ele><time>2026-04-25T07:46:14Z</time></trkpt><trkpt lat="44.72961666995188" lon="9.91793925371862"><ele>476.0</ele><time>2026-04-25T07:46:15Z</time></trkpt><trkpt lat="44.729522156340025" lon="9.918000805664835"><ele>476.0</ele><time>2026-04-25T07:46:16Z</time></trkpt><trkpt lat="44.72946020128095" lon="9.91796742776321"><ele>476.0</ele><time>2026-04-25T07:46:17Z</time></trkpt><trkpt lat="44.72944401461303" lon="9.917794799112567"><ele>476.0</ele><time>2026-04-25T07:46:18.999Z</time></trkpt><trkpt lat="44.72954012421861" lon="9.917678418212278"><ele>476.0</ele><time>2026-04-25T07:46:19.999Z</time></trkpt><trkpt lat="44.7296239721918" lon="9.917485908187336"><ele>478.66666666666663</ele><time>2026-04-25T07:46:20.999Z</time></trkpt><trkpt lat="44.729741578713856" lon="9.917310496989494"><ele>481.33333333333337</ele><time>2026-04-25T07:46:21.999Z</time></trkpt><trkpt lat="44.72987815425639" lon="9.917115527701647"><ele>484.0</ele><time>2026-04-25T07:46:22.999Z</time></trkpt><trkpt lat="44.73002370288822" lon="9.916949229483121"><ele>484.0</ele><time>2026-04-25T07:46:23.999Z</time></trkpt><trkpt lat="44.73017044653337" lon="9.916769064596808"><ele>484.0</ele><time>2026-04-25T07:46:24.999Z</time></trkpt><trkpt lat="44.73030482368313" lon="9.91654193350972"><ele>484.0</ele><time>2026-04-25T07:46:25.999Z</time></trkpt><trkpt lat="44.73043055362135" lon="9.916321733226217"><ele>483.33333333333337</ele><time>2026-04-25T07:46:26.999Z</time></trkpt><trkpt lat="44.730555012479286" lon="9.916141328795508"><ele>482.66666666666663</ele><time>2026-04-25T07:46:27.999Z</time></trkpt><trkpt lat="44.73067377122515" lon="9.91597437998379"><ele>482.0</ele><time>2026-04-25T07:46:28.999Z</time></trkpt><trkpt lat="44.730778976484274" lon="9.915784175410845"><ele>479.66666666666663</ele><time>2026-04-25T07:46:29.999Z</time></trkpt><trkpt lat="44.73087945789203" lon="9.915559203471988"><ele>477.33333333333337</ele><time>2026-04-25T07:46:30.999Z</time></trkpt><trkpt lat="44.73099564580901" lon="9.915368116036577"><ele>475.0</ele><time>2026-04-25T07:46:31.999Z</time></trkpt><trkpt lat="44.73110682679667" lon="9.915228023024078"><ele>475.0</ele><time>2026-04-25T07:46:32.999Z</time></trkpt><trkpt lat="44.731190498473744" lon="9.915127323853927"><ele>475.0</ele><time>2026-04-25T07:46:33.999Z</time></trkpt><trkpt lat="44.731246078342565" lon="9.91507195396743"><ele>475.0</ele><time>2026-04-25T07:46:34.999Z</time></trkpt><trkpt lat="44.73126567098051" lon="9.91493660146878"><ele>475.0</ele><time>2026-04-25T07:46:36.999Z</time></trkpt><trkpt lat="44.73115634951466" lon="9.914883008446141"><ele>475.0</ele><time>2026-04-25T07:46:37.999Z</time></trkpt><trkpt lat="44.73105593308838" lon="9.914914082904339"><ele>479.25</ele><time>2026-04-25T07:46:38.999Z</time></trkpt><trkpt lat="44.73095242363632" lon="9.915031469009232"><ele>483.5</ele><time>2026-04-25T07:46:39.999Z</time></trkpt><trkpt lat="44.73084595013799" lon="9.91520409139286"><ele>487.75</ele><time>2026-04-25T07:46:40.999Z</time></trkpt><trkpt lat="44.730740247385114" lon="9.915359770541075"><ele>492.0</ele><time>2026-04-25T07:46:41.999Z</time></trkpt><trkpt lat="44.73062928579434" lon="9.915431602935094"><ele>492.0</ele><time>2026-04-25T07:46:42.999Z</time></trkpt><trkpt lat="44.73050652715277" lon="9.9154599640881"><ele>492.0</ele><time>2026-04-25T07:46:43.999Z</time></trkpt><trkpt lat="44.73035348751284" lon="9.915503319565827"><ele>492.0</ele><time>2026-04-25T07:46:44.999Z</time></trkpt><trkpt lat="44.73020145350244" lon="9.915585850799793"><ele>492.0</ele><time>2026-04-25T07:46:45.999Z</time></trkpt><trkpt lat="44.73008610228191" lon="9.915734241092993"><ele>492.5</ele><time>2026-04-25T07:46:46.999Z</time></trkpt><trkpt lat="44.72999613446177" lon="9.915878939509994"><ele>493.0</ele><time>2026-04-25T07:46:47.999Z</time></trkpt><trkpt lat="44.72989098934346" lon="9.915920691589182"><ele>493.5</ele><time>2026-04-25T07:46:48.999Z</time></trkpt><trkpt lat="44.72977147665244" lon="9.915914362333313"><ele>494.0</ele><time>2026-04-25T07:46:49.999Z</time></trkpt><trkpt lat="44.72962027339568" lon="9.915890011129"><ele>497.5</ele><time>2026-04-25T07:46:50.999Z</time></trkpt><trkpt lat="44.72945075588004" lon="9.915862818849067"><ele>501.0</ele><time>2026-04-25T07:46:51.999Z</time></trkpt><trkpt lat="44.729315703385346" lon="9.915857825465523"><ele>504.5</ele><time>2026-04-25T07:46:52.999Z</time></trkpt><trkpt lat="44.72924708823695" lon="9.915802643284453"><ele>508.0</ele><time>2026-04-25T07:46:53.999Z</time></trkpt><trkpt lat="44.72922786676483" lon="9.915694895737573"><ele>508.0</ele><time>2026-04-25T07:46:55.999Z</time></trkpt><trkpt lat="44.7292944028543" lon="9.915632760929343"><ele>508.0</ele><time>2026-04-25T07:46:56.999Z</time></trkpt><trkpt lat="44.7294080658033" lon="9.915666550041438"><ele>508.0</ele><time>2026-04-25T07:46:57.999Z</time></trkpt><trkpt lat="44.72954785398561" lon="9.915652636727662"><ele>508.0</ele><time>2026-04-25T07:46:58.999Z</time></trkpt><trkpt lat="44.729680661594394" lon="9.91562411172629"><ele>508.0</ele><time>2026-04-25T07:46:59.999Z</time></trkpt><trkpt lat="44.72978410321041" lon="9.915551870375596"><ele>508.0</ele><time>2026-04-25T07:47:00.999Z</time></trkpt><trkpt lat="44.72983412263308" lon="9.915423215896785"><ele>508.0</ele><time>2026-04-25T07:47:01.999Z</time></trkpt><trkpt lat="44.729908297375225" lon="9.915217678560555"><ele>508.0</ele><time>2026-04-25T07:47:02.999Z</time></trkpt><trkpt lat="44.729988914617486" lon="9.914972455804984"><ele>508.0</ele><time>2026-04-25T07:47:03.999Z</time></trkpt><trkpt lat="44.73010907375652" lon="9.914788619253837"><ele>508.0</ele><time>2026-04-25T07:47:04.999Z</time></trkpt><trkpt lat="44.730241797396594" lon="9.914597577825926"><ele>508.0</ele><time>2026-04-25T07:47:05.999Z</time></trkpt><trkpt lat="44.73033270474102" lon="9.914420822264338"><ele>510.33333333333337</ele><time>2026-04-25T07:47:06.999Z</time></trkpt><trkpt lat="44.730438038722205" lon="9.914160095439462"><ele>512.6666666666666</ele><time>2026-04-25T07:47:07.999Z</time></trkpt><trkpt lat="44.730487185248855" lon="9.913976240914929"><ele>515.0</ele><time>2026-04-25T07:47:08.999Z</time></trkpt><trkpt lat="44.73052866374358" lon="9.91383925086686"><ele>515.0</ele><time>2026-04-25T07:47:09.999Z</time></trkpt><trkpt lat="44.7305625111987" lon="9.913723185769454"><ele>515.0</ele><time>2026-04-25T07:47:10.999Z</time></trkpt><trkpt lat="44.73054154739925" lon="9.913531392588368"><ele>515.0</ele><time>2026-04-25T07:47:11.999Z</time></trkpt><trkpt lat="44.73049837375235" lon="9.913435824396531"><ele>515.0</ele><time>2026-04-25T07:47:12.999Z</time></trkpt><trkpt lat="44.730355457146786" lon="9.913040315294904"><ele>515.5</ele><time>2026-04-25T07:47:13.999Z</time></trkpt><trkpt lat="44.730366295646974" lon="9.912847880614827"><ele>516.0</ele><time>2026-04-25T07:47:14.999Z</time></trkpt><trkpt lat="44.730395920980364" lon="9.912708475123452"><ele>516.5</ele><time>2026-04-25T07:47:15.999Z</time></trkpt><trkpt lat="44.73054224303186" lon="9.912613994221587"><ele>517.0</ele><time>2026-04-25T07:47:16.999Z</time></trkpt><trkpt lat="44.73062220752529" lon="9.91251659564602"><ele>518.0</ele><time>2026-04-25T07:47:18Z</time></trkpt><trkpt lat="44.730633090538284" lon="9.912339392592914"><ele>519.0</ele><time>2026-04-25T07:47:19Z</time></trkpt><trkpt lat="44.73056806118902" lon="9.912198822958699"><ele>520.0</ele><time>2026-04-25T07:47:20Z</time></trkpt><trkpt lat="44.7304854805104" lon="9.912057197760943"><ele>521.0</ele><time>2026-04-25T07:47:21Z</time></trkpt><trkpt lat="44.73035800975807" lon="9.911996072564506"><ele>526.75</ele><time>2026-04-25T07:47:22Z</time></trkpt><trkpt lat="44.73020543553884" lon="9.91196197524011"><ele>532.5</ele><time>2026-04-25T07:47:23Z</time></trkpt><trkpt lat="44.73010850175356" lon="9.911843023462055"><ele>538.25</ele><time>2026-04-25T07:47:24Z</time></trkpt><trkpt lat="44.73003080926104" lon="9.91168321765106"><ele>544.0</ele><time>2026-04-25T07:47:25Z</time></trkpt><trkpt lat="44.729985038461194" lon="9.911450759919251"><ele>544.0</ele><time>2026-04-25T07:47:26Z</time></trkpt><trkpt lat="44.729974891228736" lon="9.911222263502186"><ele>544.0</ele><time>2026-04-25T07:47:27Z</time></trkpt><trkpt lat="44.72995243405032" lon="9.91100358055259"><ele>544.0</ele><time>2026-04-25T07:47:28Z</time></trkpt><trkpt lat="44.729908474404844" lon="9.910839897842232"><ele>544.0</ele><time>2026-04-25T07:47:29Z</time></trkpt><trkpt lat="44.7298173860357" lon="9.910692643697338"><ele>541.0</ele><time>2026-04-25T07:47:30Z</time></trkpt><trkpt lat="44.72969678568226" lon="9.910555553704762"><ele>538.0</ele><time>2026-04-25T07:47:31Z</time></trkpt><trkpt lat="44.72966568407354" lon="9.910401503134956"><ele>535.0</ele><time>2026-04-25T07:47:32Z</time></trkpt><trkpt lat="44.729688413798975" lon="9.910194872484821"><ele>532.0</ele><time>2026-04-25T07:47:33Z</time></trkpt><trkpt lat="44.72972627110701" lon="9.909989736491406"><ele>532.0</ele><time>2026-04-25T07:47:34Z</time></trkpt><trkpt lat="44.729768799996926" lon="9.909728717146248"><ele>532.0</ele><time>2026-04-25T07:47:35Z</time></trkpt><trkpt lat="44.72981745616483" lon="9.909528735301192"><ele>532.0</ele><time>2026-04-25T07:47:36Z</time></trkpt><trkpt lat="44.72987365410586" lon="9.90939620810456"><ele>532.0</ele><time>2026-04-25T07:47:37Z</time></trkpt><trkpt lat="44.72995637233748" lon="9.909315806296165"><ele>532.0</ele><time>2026-04-25T07:47:38Z</time></trkpt><trkpt lat="44.73006335745619" lon="9.909350107187407"><ele>532.0</ele><time>2026-04-25T07:47:39Z</time></trkpt><trkpt lat="44.730215720704" lon="9.909419706290565"><ele>532.0</ele><time>2026-04-25T07:47:40Z</time></trkpt><trkpt lat="44.73041024404833" lon="9.909435426876364"><ele>532.5</ele><time>2026-04-25T07:47:41Z</time></trkpt><trkpt lat="44.730589942963434" lon="9.9094610479562"><ele>533.0</ele><time>2026-04-25T07:47:42Z</time></trkpt><trkpt lat="44.730725044383554" lon="9.90945381107103"><ele>533.5</ele><time>2026-04-25T07:47:43Z</time></trkpt><trkpt lat="44.73083435779311" lon="9.909382763307786"><ele>534.0</ele><time>2026-04-25T07:47:44Z</time></trkpt><trkpt lat="44.730914058155705" lon="9.909205429252895"><ele>534.0</ele><time>2026-04-25T07:47:45Z</time></trkpt><trkpt lat="44.73099174886176" lon="9.909005408578738"><ele>534.0</ele><time>2026-04-25T07:47:46Z</time></trkpt><trkpt lat="44.73104655214562" lon="9.908755549010586"><ele>534.0</ele><time>2026-04-25T07:47:47Z</time></trkpt><trkpt lat="44.731096691267496" lon="9.908536229283266"><ele>533.25</ele><time>2026-04-25T07:47:48Z</time></trkpt><trkpt lat="44.73112773076055" lon="9.908378628203039"><ele>532.5</ele><time>2026-04-25T07:47:49Z</time></trkpt><trkpt lat="44.731207078064784" lon="9.908268571050968"><ele>531.75</ele><time>2026-04-25T07:47:50Z</time></trkpt><trkpt lat="44.73137089346292" lon="9.908279293733875"><ele>531.0</ele><time>2026-04-25T07:47:51Z</time></trkpt><trkpt lat="44.731555789013804" lon="9.908206467223932"><ele>531.0</ele><time>2026-04-25T07:47:52Z</time></trkpt><trkpt lat="44.731741988619234" lon="9.908170729474133"><ele>531.0</ele><time>2026-04-25T07:47:53Z</time></trkpt><trkpt lat="44.73191844851269" lon="9.908171175297701"><ele>531.0</ele><time>2026-04-25T07:47:54Z</time></trkpt><trkpt lat="44.73207547356744" lon="9.90813369659939"><ele>528.6666666666666</ele><time>2026-04-25T07:47:55Z</time></trkpt><trkpt lat="44.73223447915364" lon="9.908064936603516"><ele>526.3333333333333</ele><time>2026-04-25T07:47:56Z</time></trkpt><trkpt lat="44.73238662107431" lon="9.907951960701416"><ele>524.0</ele><time>2026-04-25T07:47:57Z</time></trkpt><trkpt lat="44.73251125448075" lon="9.907851410479639"><ele>524.0</ele><time>2026-04-25T07:47:58Z</time></trkpt><trkpt lat="44.73259860892917" lon="9.907755463446845"><ele>524.0</ele><time>2026-04-25T07:47:59Z</time></trkpt><trkpt lat="44.732621995897404" lon="9.907603966758726"><ele>524.0</ele><time>2026-04-25T07:48:00Z</time></trkpt><trkpt lat="44.73260946305953" lon="9.907432867165888"><ele>524.0</ele><time>2026-04-25T07:48:01Z</time></trkpt><trkpt lat="44.732552030752224" lon="9.907259678555238"><ele>523.6666666666666</ele><time>2026-04-25T07:48:02Z</time></trkpt><trkpt lat="44.732451401682205" lon="9.90706289321928"><ele>523.3333333333334</ele><time>2026-04-25T07:48:03Z</time></trkpt><trkpt lat="44.732352617826024" lon="9.906848569284197"><ele>523.0</ele><time>2026-04-25T07:48:04Z</time></trkpt><trkpt lat="44.73223202375391" lon="9.906673368312264"><ele>523.0</ele><time>2026-04-25T07:48:05Z</time></trkpt><trkpt lat="44.732078573405815" lon="9.906547383958364"><ele>523.0</ele><time>2026-04-25T07:48:06Z</time></trkpt><trkpt lat="44.73187075144675" lon="9.90642852074004"><ele>523.0</ele><time>2026-04-25T07:48:07Z</time></trkpt><trkpt lat="44.731719053486835" lon="9.906279429734198"><ele>528.3333333333334</ele><time>2026-04-25T07:48:08Z</time></trkpt><trkpt lat="44.731580960323534" lon="9.906122726305796"><ele>533.6666666666666</ele><time>2026-04-25T07:48:09Z</time></trkpt><trkpt lat="44.731467427960034" lon="9.905961843844521"><ele>539.0</ele><time>2026-04-25T07:48:10Z</time></trkpt><trkpt lat="44.73138693348349" lon="9.905796538139011"><ele>539.0</ele><time>2026-04-25T07:48:11Z</time></trkpt><trkpt lat="44.731313550024126" lon="9.905574780384955"><ele>539.0</ele><time>2026-04-25T07:48:12Z</time></trkpt><trkpt lat="44.73127830217311" lon="9.905331129594263"><ele>539.0</ele><time>2026-04-25T07:48:13Z</time></trkpt><trkpt lat="44.731238909687946" lon="9.905066748646645"><ele>537.3333333333333</ele><time>2026-04-25T07:48:14Z</time></trkpt><trkpt lat="44.7312128574208" lon="9.904812198054776"><ele>535.6666666666666</ele><time>2026-04-25T07:48:15Z</time></trkpt><trkpt lat="44.73113776937675" lon="9.904549285633065"><ele>534.0</ele><time>2026-04-25T07:48:16Z</time></trkpt><trkpt lat="44.73104672013309" lon="9.90430415965868"><ele>543.0</ele><time>2026-04-25T07:48:17Z</time></trkpt><trkpt lat="44.7309737240213" lon="9.904095386995891"><ele>552.0</ele><time>2026-04-25T07:48:18Z</time></trkpt><trkpt lat="44.73093716825892" lon="9.903905153000778"><ele>561.0</ele><time>2026-04-25T07:48:19Z</time></trkpt><trkpt lat="44.73092862512189" lon="9.903745972045606"><ele>570.0</ele><time>2026-04-25T07:48:20Z</time></trkpt><trkpt lat="44.73097794768058" lon="9.903602251237404"><ele>570.3333333333334</ele><time>2026-04-25T07:48:21Z</time></trkpt><trkpt lat="44.731037335400515" lon="9.90339762762162"><ele>570.6666666666667</ele><time>2026-04-25T07:48:22Z</time></trkpt><trkpt lat="44.7310814247204" lon="9.903185874237721"><ele>571.0</ele><time>2026-04-25T07:48:23Z</time></trkpt><trkpt lat="44.73114312556168" lon="9.902966419362007"><ele>563.3333333333334</ele><time>2026-04-25T07:48:24Z</time></trkpt><trkpt lat="44.731210288039904" lon="9.902708389143529"><ele>555.6666666666666</ele><time>2026-04-25T07:48:25Z</time></trkpt><trkpt lat="44.731283153999854" lon="9.902435862211552"><ele>548.0</ele><time>2026-04-25T07:48:26Z</time></trkpt><trkpt lat="44.73136617759507" lon="9.902169913735962"><ele>548.0</ele><time>2026-04-25T07:48:27Z</time></trkpt><trkpt lat="44.73143637410003" lon="9.901911681624352"><ele>548.0</ele><time>2026-04-25T07:48:27.999Z</time></trkpt><trkpt lat="44.73151185043439" lon="9.901674633888716"><ele>548.0</ele><time>2026-04-25T07:48:28.999Z</time></trkpt><trkpt lat="44.73161941272533" lon="9.901448670338898"><ele>551.0</ele><time>2026-04-25T07:48:29.999Z</time></trkpt><trkpt lat="44.731735211831776" lon="9.901223515051726"><ele>554.0</ele><time>2026-04-25T07:48:30.999Z</time></trkpt><trkpt lat="44.73182879714712" lon="9.901018244750173"><ele>557.0</ele><time>2026-04-25T07:48:31.999Z</time></trkpt><trkpt lat="44.73191110541476" lon="9.900842384469742"><ele>558.6</ele><time>2026-04-25T07:48:32.999Z</time></trkpt><trkpt lat="44.731957401290245" lon="9.900705840532124"><ele>560.2</ele><time>2026-04-25T07:48:33.999Z</time></trkpt><trkpt lat="44.73196581176079" lon="9.900581973675084"><ele>561.8</ele><time>2026-04-25T07:48:34.999Z</time></trkpt><trkpt lat="44.731935592952325" lon="9.90044615390532"><ele>563.4</ele><time>2026-04-25T07:48:35.999Z</time></trkpt><trkpt lat="44.731841448799535" lon="9.900333597655905"><ele>565.0</ele><time>2026-04-25T07:48:36.999Z</time></trkpt><trkpt lat="44.73170508323417" lon="9.90026122135002"><ele>565.0</ele><time>2026-04-25T07:48:37.999Z</time></trkpt><trkpt lat="44.73153937235431" lon="9.900199170693886"><ele>565.0</ele><time>2026-04-25T07:48:38.999Z</time></trkpt><trkpt lat="44.73137492104355" lon="9.900083703065734"><ele>565.0</ele><time>2026-04-25T07:48:39.999Z</time></trkpt><trkpt lat="44.73121546819093" lon="9.899975908127516"><ele>564.25</ele><time>2026-04-25T07:48:40.999Z</time></trkpt><trkpt lat="44.73110811272257" lon="9.899874967636936"><ele>563.5</ele><time>2026-04-25T07:48:41.999Z</time></trkpt><trkpt lat="44.731053911263544" lon="9.899780503834377"><ele>562.75</ele><time>2026-04-25T07:48:42.999Z</time></trkpt><trkpt lat="44.73106806513795" lon="9.899623425131324"><ele>562.0</ele><time>2026-04-25T07:48:43.999Z</time></trkpt><trkpt lat="44.731136095066766" lon="9.899478279752932"><ele>562.0</ele><time>2026-04-25T07:48:44.999Z</time></trkpt><trkpt lat="44.731246843335455" lon="9.899392025617463"><ele>562.0</ele><time>2026-04-25T07:48:45.999Z</time></trkpt><trkpt lat="44.73132335636175" lon="9.899278269127384"><ele>562.0</ele><time>2026-04-25T07:48:46.999Z</time></trkpt><trkpt lat="44.73135225664519" lon="9.89916523047559"><ele>562.0</ele><time>2026-04-25T07:48:47.999Z</time></trkpt><trkpt lat="44.731313235341496" lon="9.899022001499834"><ele>562.0</ele><time>2026-04-25T07:48:48.999Z</time></trkpt><trkpt lat="44.731212607303796" lon="9.898915476281655"><ele>562.0</ele><time>2026-04-25T07:48:49.999Z</time></trkpt><trkpt lat="44.73112433719832" lon="9.89880216411264"><ele>562.0</ele><time>2026-04-25T07:48:50.999Z</time></trkpt><trkpt lat="44.731087594860895" lon="9.898671519367166"><ele>562.0</ele><time>2026-04-25T07:48:51.999Z</time></trkpt><trkpt lat="44.73110512235854" lon="9.898537360369943"><ele>562.0</ele><time>2026-04-25T07:48:52.999Z</time></trkpt><trkpt lat="44.73123408689291" lon="9.898397531403337"><ele>562.0</ele><time>2026-04-25T07:48:53.999Z</time></trkpt><trkpt lat="44.73129415041736" lon="9.898226799651669"><ele>562.0</ele><time>2026-04-25T07:48:54.999Z</time></trkpt><trkpt lat="44.73131959360918" lon="9.898038986880186"><ele>562.0</ele><time>2026-04-25T07:48:55.999Z</time></trkpt><trkpt lat="44.73127638796168" lon="9.897859259851545"><ele>562.0</ele><time>2026-04-25T07:48:56.999Z</time></trkpt><trkpt lat="44.7311859615742" lon="9.897670245493222"><ele>563.25</ele><time>2026-04-25T07:48:57.999Z</time></trkpt><trkpt lat="44.731143197389784" lon="9.897493172729927"><ele>564.5</ele><time>2026-04-25T07:48:58.999Z</time></trkpt><trkpt lat="44.73114224617974" lon="9.897301407153192"><ele>565.75</ele><time>2026-04-25T07:48:59.999Z</time></trkpt><trkpt lat="44.73119105779435" lon="9.897065079523765"><ele>567.0</ele><time>2026-04-25T07:49:00.999Z</time></trkpt><trkpt lat="44.73125147210974" lon="9.896791760979186"><ele>569.0</ele><time>2026-04-25T07:49:01.999Z</time></trkpt><trkpt lat="44.73128182088713" lon="9.89654160567342"><ele>571.0</ele><time>2026-04-25T07:49:02.999Z</time></trkpt><trkpt lat="44.73128159001027" lon="9.896302883833098"><ele>573.0</ele><time>2026-04-25T07:49:03.999Z</time></trkpt><trkpt lat="44.73124122235681" lon="9.896069616413186"><ele>572.6666666666666</ele><time>2026-04-25T07:49:04.999Z</time></trkpt><trkpt lat="44.73115870627605" lon="9.895823527611425"><ele>572.3333333333333</ele><time>2026-04-25T07:49:05.999Z</time></trkpt><trkpt lat="44.73114626593465" lon="9.895553405188716"><ele>572.0</ele><time>2026-04-25T07:49:06.999Z</time></trkpt><trkpt lat="44.73115155670176" lon="9.895275549847158"><ele>571.25</ele><time>2026-04-25T07:49:07.999Z</time></trkpt><trkpt lat="44.73113790086875" lon="9.895076489713427"><ele>570.5</ele><time>2026-04-25T07:49:08.999Z</time></trkpt><trkpt lat="44.73109310653474" lon="9.894949136860497"><ele>569.75</ele><time>2026-04-25T07:49:09.999Z</time></trkpt><trkpt lat="44.73099602884298" lon="9.894822090530063"><ele>569.0</ele><time>2026-04-25T07:49:10.999Z</time></trkpt><trkpt lat="44.73085257076127" lon="9.894720689687968"><ele>576.0</ele><time>2026-04-25T07:49:11.999Z</time></trkpt><trkpt lat="44.73067346901685" lon="9.89461782863508"><ele>583.0</ele><time>2026-04-25T07:49:12.999Z</time></trkpt><trkpt lat="44.7305075239555" lon="9.89446797613005"><ele>590.0</ele><time>2026-04-25T07:49:13.999Z</time></trkpt><trkpt lat="44.73037559391356" lon="9.894342720591258"><ele>592.6666666666666</ele><time>2026-04-25T07:49:14.999Z</time></trkpt><trkpt lat="44.73026657911263" lon="9.89418452522213"><ele>595.3333333333334</ele><time>2026-04-25T07:49:15.999Z</time></trkpt><trkpt lat="44.73016715886639" lon="9.89398723901801"><ele>598.0</ele><time>2026-04-25T07:49:16.999Z</time></trkpt><trkpt lat="44.73006404994997" lon="9.893826499739811"><ele>598.0</ele><time>2026-04-25T07:49:17.999Z</time></trkpt><trkpt lat="44.72996906804706" lon="9.893718452962599"><ele>598.0</ele><time>2026-04-25T07:49:18.999Z</time></trkpt><trkpt lat="44.72983587303807" lon="9.893678021988595"><ele>598.0</ele><time>2026-04-25T07:49:19.999Z</time></trkpt><trkpt lat="44.72966990436675" lon="9.893677202416818"><ele>598.0</ele><time>2026-04-25T07:49:20.999Z</time></trkpt><trkpt lat="44.729503696601704" lon="9.893613446624865"><ele>598.0</ele><time>2026-04-25T07:49:21.999Z</time></trkpt><trkpt lat="44.72933187127435" lon="9.893528381254269"><ele>598.0</ele><time>2026-04-25T07:49:22.999Z</time></trkpt><trkpt lat="44.72917194565567" lon="9.893441222936309"><ele>598.0</ele><time>2026-04-25T07:49:24Z</time></trkpt><trkpt lat="44.72905400057376" lon="9.893344523061629"><ele>598.0</ele><time>2026-04-25T07:49:25Z</time></trkpt><trkpt lat="44.72900048855493" lon="9.893203085876365"><ele>598.0</ele><time>2026-04-25T07:49:26Z</time></trkpt><trkpt lat="44.72893916399096" lon="9.893034165265863"><ele>598.0</ele><time>2026-04-25T07:49:27Z</time></trkpt><trkpt lat="44.728832352350445" lon="9.892900016799189"><ele>598.0</ele><time>2026-04-25T07:49:28Z</time></trkpt><trkpt lat="44.72869824212228" lon="9.89279280289318"><ele>602.75</ele><time>2026-04-25T07:49:29Z</time></trkpt><trkpt lat="44.728550896419165" lon="9.892669481307502"><ele>607.5</ele><time>2026-04-25T07:49:30Z</time></trkpt><trkpt lat="44.728439370395684" lon="9.892554448418407"><ele>612.25</ele><time>2026-04-25T07:49:31Z</time></trkpt><trkpt lat="44.728367100178346" lon="9.892417687988084"><ele>617.0</ele><time>2026-04-25T07:49:32Z</time></trkpt><trkpt lat="44.72835771194481" lon="9.892232343668876"><ele>617.0</ele><time>2026-04-25T07:49:33Z</time></trkpt><trkpt lat="44.728377788462886" lon="9.892013875621327"><ele>617.0</ele><time>2026-04-25T07:49:34Z</time></trkpt><trkpt lat="44.72837693883683" lon="9.891791964126"><ele>617.0</ele><time>2026-04-25T07:49:35Z</time></trkpt><trkpt lat="44.72836594292014" lon="9.89161599969976"><ele>617.0</ele><time>2026-04-25T07:49:36Z</time></trkpt><trkpt lat="44.7283093530242" lon="9.89145835367603"><ele>615.0</ele><time>2026-04-25T07:49:37Z</time></trkpt><trkpt lat="44.72821174588692" lon="9.89133266031106"><ele>613.0</ele><time>2026-04-25T07:49:38Z</time></trkpt><trkpt lat="44.72807954616267" lon="9.89124209140559"><ele>611.0</ele><time>2026-04-25T07:49:39Z</time></trkpt><trkpt lat="44.727933706991784" lon="9.891144992703506"><ele>609.0</ele><time>2026-04-25T07:49:40Z</time></trkpt><trkpt lat="44.72777308554679" lon="9.891099422284537"><ele>614.3333333333334</ele><time>2026-04-25T07:49:41Z</time></trkpt><trkpt lat="44.72760254767836" lon="9.89106839614571"><ele>619.6666666666667</ele><time>2026-04-25T07:49:42Z</time></trkpt><trkpt lat="44.72739990097934" lon="9.891070932485617"><ele>625.0</ele><time>2026-04-25T07:49:43Z</time></trkpt><trkpt lat="44.7271930905031" lon="9.891071366819865"><ele>625.0</ele><time>2026-04-25T07:49:44Z</time></trkpt><trkpt lat="44.726923258601865" lon="9.891041526657423"><ele>625.0</ele><time>2026-04-25T07:49:45Z</time></trkpt><trkpt lat="44.72686091026477" lon="9.891082207868502"><ele>625.0</ele><time>2026-04-25T07:49:46Z</time></trkpt><trkpt lat="44.726674844914164" lon="9.891139160629944"><ele>627.6666666666667</ele><time>2026-04-25T07:49:47Z</time></trkpt><trkpt lat="44.72648024518594" lon="9.891244441290253"><ele>630.3333333333334</ele><time>2026-04-25T07:49:48Z</time></trkpt><trkpt lat="44.726277666347215" lon="9.891356318399835"><ele>633.0</ele><time>2026-04-25T07:49:49Z</time></trkpt><trkpt lat="44.72606549476438" lon="9.891463149514632"><ele>632.0</ele><time>2026-04-25T07:49:50Z</time></trkpt><trkpt lat="44.72586713099018" lon="9.891566392603634"><ele>631.0</ele><time>2026-04-25T07:49:51Z</time></trkpt><trkpt lat="44.72569226160445" lon="9.891618035281393"><ele>630.0</ele><time>2026-04-25T07:49:52Z</time></trkpt><trkpt lat="44.72553048455961" lon="9.891657032165067"><ele>630.0</ele><time>2026-04-25T07:49:53Z</time></trkpt><trkpt lat="44.725370266382136" lon="9.891657519375984"><ele>630.0</ele><time>2026-04-25T07:49:54Z</time></trkpt><trkpt lat="44.72522694483579" lon="9.891623561596553"><ele>630.0</ele><time>2026-04-25T07:49:55Z</time></trkpt><trkpt lat="44.72509615562386" lon="9.891569784032955"><ele>630.0</ele><time>2026-04-25T07:49:56Z</time></trkpt><trkpt lat="44.72502916810261" lon="9.891453722706244"><ele>632.0</ele><time>2026-04-25T07:49:57Z</time></trkpt><trkpt lat="44.72499743839497" lon="9.891324565248235"><ele>634.0</ele><time>2026-04-25T07:49:58Z</time></trkpt><trkpt lat="44.72497592250546" lon="9.891144637205148"><ele>636.0</ele><time>2026-04-25T07:49:59Z</time></trkpt><trkpt lat="44.72501130688247" lon="9.89093518227267"><ele>638.0</ele><time>2026-04-25T07:50:00Z</time></trkpt><trkpt lat="44.72505233537567" lon="9.890664854246543"><ele>638.0</ele><time>2026-04-25T07:50:01Z</time></trkpt><trkpt lat="44.72505179346814" lon="9.890414156854716"><ele>638.0</ele><time>2026-04-25T07:50:02Z</time></trkpt><trkpt lat="44.72505399730621" lon="9.890187502391866"><ele>638.0</ele><time>2026-04-25T07:50:03Z</time></trkpt><trkpt lat="44.72501878556276" lon="9.889980112584908"><ele>636.75</ele><time>2026-04-25T07:50:04Z</time></trkpt><trkpt lat="44.72494687486942" lon="9.889795015377375"><ele>635.5</ele><time>2026-04-25T07:50:05Z</time></trkpt><trkpt lat="44.724837327619085" lon="9.889647272222069"><ele>634.25</ele><time>2026-04-25T07:50:06Z</time></trkpt><trkpt lat="44.72472839974582" lon="9.88950884738777"><ele>633.0</ele><time>2026-04-25T07:50:07Z</time></trkpt><trkpt lat="44.72463946391667" lon="9.88939850716226"><ele>633.0</ele><time>2026-04-25T07:50:08Z</time></trkpt><trkpt lat="44.724471156926384" lon="9.889348104956817"><ele>633.0</ele><time>2026-04-25T07:50:09Z</time></trkpt><trkpt lat="44.72433998639838" lon="9.889378483685094"><ele>633.0</ele><time>2026-04-25T07:50:10Z</time></trkpt><trkpt lat="44.72415149401219" lon="9.889404706872277"><ele>633.0</ele><time>2026-04-25T07:50:11Z</time></trkpt><trkpt lat="44.72399819940241" lon="9.889316380051325"><ele>633.0</ele><time>2026-04-25T07:50:12Z</time></trkpt><trkpt lat="44.723859558659804" lon="9.889247437713527"><ele>633.0</ele><time>2026-04-25T07:50:13Z</time></trkpt><trkpt lat="44.72370792393741" lon="9.889208288260381"><ele>633.0</ele><time>2026-04-25T07:50:14Z</time></trkpt><trkpt lat="44.72356772388593" lon="9.889218608994614"><ele>633.0</ele><time>2026-04-25T07:50:15Z</time></trkpt><trkpt lat="44.723416453457816" lon="9.88931970747555"><ele>633.0</ele><time>2026-04-25T07:50:16Z</time></trkpt><trkpt lat="44.723242591206215" lon="9.889422107161758"><ele>642.3333333333334</ele><time>2026-04-25T07:50:17Z</time></trkpt><trkpt lat="44.723057806940254" lon="9.88951010988862"><ele>651.6666666666667</ele><time>2026-04-25T07:50:18Z</time></trkpt><trkpt lat="44.722880249772594" lon="9.889648646897495"><ele>661.0</ele><time>2026-04-25T07:50:19Z</time></trkpt><trkpt lat="44.72270728630141" lon="9.889796699478968"><ele>661.0</ele><time>2026-04-25T07:50:20Z</time></trkpt><trkpt lat="44.72252140402877" lon="9.889888131034427"><ele>661.0</ele><time>2026-04-25T07:50:21Z</time></trkpt><trkpt lat="44.722341596276486" lon="9.88998703183057"><ele>661.0</ele><time>2026-04-25T07:50:22Z</time></trkpt><trkpt lat="44.72217059921802" lon="9.890130243804002"><ele>667.5</ele><time>2026-04-25T07:50:23Z</time></trkpt><trkpt lat="44.722059625901" lon="9.890218719513783"><ele>674.0</ele><time>2026-04-25T07:50:24Z</time></trkpt><trkpt lat="44.72193300614751" lon="9.890284720698661"><ele>680.5</ele><time>2026-04-25T07:50:25Z</time></trkpt><trkpt lat="44.72177863815191" lon="9.890310381825266"><ele>687.0</ele><time>2026-04-25T07:50:26Z</time></trkpt><trkpt lat="44.72163219744738" lon="9.890308075327065"><ele>687.0</ele><time>2026-04-25T07:50:27Z</time></trkpt><trkpt lat="44.72155250259574" lon="9.890262037332471"><ele>687.0</ele><time>2026-04-25T07:50:28Z</time></trkpt><trkpt lat="44.72150247471851" lon="9.890174543651923"><ele>687.0</ele><time>2026-04-25T07:50:29Z</time></trkpt><trkpt lat="44.721481031086654" lon="9.89002048697639"><ele>687.0</ele><time>2026-04-25T07:50:30Z</time></trkpt><trkpt lat="44.72154182723601" lon="9.889803624608753"><ele>687.0</ele><time>2026-04-25T07:50:31Z</time></trkpt><trkpt lat="44.72154444738144" lon="9.889570891173557"><ele>679.3333333333334</ele><time>2026-04-25T07:50:31.999Z</time></trkpt><trkpt lat="44.7215106405163" lon="9.889335525567168"><ele>671.6666666666667</ele><time>2026-04-25T07:50:32.999Z</time></trkpt><trkpt lat="44.72145859171172" lon="9.88910082559032"><ele>664.0</ele><time>2026-04-25T07:50:33.999Z</time></trkpt><trkpt lat="44.72141355479658" lon="9.88889629630584"><ele>662.0</ele><time>2026-04-25T07:50:34.999Z</time></trkpt><trkpt lat="44.721347847937444" lon="9.888738899501645"><ele>660.0</ele><time>2026-04-25T07:50:35.999Z</time></trkpt><trkpt lat="44.721224638090995" lon="9.888628124417325"><ele>658.0</ele><time>2026-04-25T07:50:36.999Z</time></trkpt><trkpt lat="44.72104349807626" lon="9.888561439859917"><ele>661.0</ele><time>2026-04-25T07:50:37.999Z</time></trkpt><trkpt lat="44.72082282639226" lon="9.888499671090308"><ele>664.0</ele><time>2026-04-25T07:50:38.999Z</time></trkpt><trkpt lat="44.72059596017977" lon="9.888393546093157"><ele>664.0</ele><time>2026-04-25T07:50:39.999Z</time></trkpt><trkpt lat="44.72037027920189" lon="9.888299714007518"><ele>664.0</ele><time>2026-04-25T07:50:40.999Z</time></trkpt><trkpt lat="44.72012464249973" lon="9.88819751662927"><ele>669.0</ele><time>2026-04-25T07:50:41.999Z</time></trkpt><trkpt lat="44.71985618794149" lon="9.888085825968874"><ele>674.0</ele><time>2026-04-25T07:50:42.999Z</time></trkpt><trkpt lat="44.719720131299724" lon="9.888042098759056"><ele>679.0</ele><time>2026-04-25T07:50:43.999Z</time></trkpt><trkpt lat="44.719533061621526" lon="9.887960937151396"><ele>681.6666666666667</ele><time>2026-04-25T07:50:44.999Z</time></trkpt><trkpt lat="44.71935760455703" lon="9.887887015797128"><ele>684.3333333333334</ele><time>2026-04-25T07:50:45.999Z</time></trkpt><trkpt lat="44.71918150360047" lon="9.887822174831879"><ele>687.0</ele><time>2026-04-25T07:50:46.999Z</time></trkpt><trkpt lat="44.71897901246601" lon="9.88780121087249"><ele>687.0</ele><time>2026-04-25T07:50:47.999Z</time></trkpt><trkpt lat="44.71876161404966" lon="9.887785863412685"><ele>687.0</ele><time>2026-04-25T07:50:48.999Z</time></trkpt><trkpt lat="44.71854110162627" lon="9.887768073336023"><ele>687.0</ele><time>2026-04-25T07:50:49.999Z</time></trkpt><trkpt lat="44.7183390026582" lon="9.887772918206998"><ele>688.75</ele><time>2026-04-25T07:50:50.999Z</time></trkpt><trkpt lat="44.718177562044914" lon="9.88778668945406"><ele>690.5</ele><time>2026-04-25T07:50:51.999Z</time></trkpt><trkpt lat="44.7180512971473" lon="9.887747490062901"><ele>692.25</ele><time>2026-04-25T07:50:52.999Z</time></trkpt><trkpt lat="44.71795616393548" lon="9.887710526040117"><ele>694.0</ele><time>2026-04-25T07:50:53.999Z</time></trkpt><trkpt lat="44.717904470408804" lon="9.887625913531448"><ele>691.5714285714286</ele><time>2026-04-25T07:50:54.999Z</time></trkpt><trkpt lat="44.7178427311476" lon="9.887580052688437"><ele>689.1428571428571</ele><time>2026-04-25T07:50:55.999Z</time></trkpt><trkpt lat="44.71788590095986" lon="9.88748639957562"><ele>686.7142857142857</ele><time>2026-04-25T07:50:56.999Z</time></trkpt><trkpt lat="44.7179053635774" lon="9.887398745135043"><ele>684.2857142857142</ele><time>2026-04-25T07:55:55Z</time></trkpt><trkpt lat="44.717866403627205" lon="9.88732839073759"><ele>681.8571428571429</ele><time>2026-04-25T07:55:57Z</time></trkpt><trkpt lat="44.71784463295452" lon="9.887239119880656"><ele>679.4285714285713</ele><time>2026-04-25T07:55:58Z</time></trkpt><trkpt lat="44.717827117700196" lon="9.887109098810953"><ele>677.0</ele><time>2026-04-25T07:55:59Z</time></trkpt><trkpt lat="44.717815243624" lon="9.886967071999596"><ele>677.0</ele><time>2026-04-25T07:56:00Z</time></trkpt><trkpt lat="44.71780441409044" lon="9.886818834757268"><ele>677.0</ele><time>2026-04-25T07:56:01Z</time></trkpt><trkpt lat="44.717789899720415" lon="9.886681759061442"><ele>677.0</ele><time>2026-04-25T07:56:02Z</time></trkpt><trkpt lat="44.717775139335" lon="9.886564686926945"><ele>677.0</ele><time>2026-04-25T07:56:03Z</time></trkpt><trkpt lat="44.71776318250872" lon="9.886460658997908"><ele>677.0</ele><time>2026-04-25T07:56:04Z</time></trkpt><trkpt lat="44.7177599629225" lon="9.886349630709478"><ele>677.0</ele><time>2026-04-25T07:56:05Z</time></trkpt><trkpt lat="44.717756900940444" lon="9.886218882558525"><ele>674.25</ele><time>2026-04-25T07:56:06Z</time></trkpt><trkpt lat="44.71777002245258" lon="9.886066217661108"><ele>671.5</ele><time>2026-04-25T07:56:07Z</time></trkpt><trkpt lat="44.717810929439835" lon="9.885915982396783"><ele>668.75</ele><time>2026-04-25T07:56:08Z</time></trkpt><trkpt lat="44.71786741455562" lon="9.885771028712034"><ele>666.0</ele><time>2026-04-25T07:56:09Z</time></trkpt><trkpt lat="44.71790849712707" lon="9.885612637104314"><ele>666.0</ele><time>2026-04-25T07:56:10Z</time></trkpt><trkpt lat="44.717922727163156" lon="9.885439592309757"><ele>666.0</ele><time>2026-04-25T07:56:11Z</time></trkpt><trkpt lat="44.71790702372969" lon="9.885234397642328"><ele>666.0</ele><time>2026-04-25T07:56:12Z</time></trkpt><trkpt lat="44.71787583239076" lon="9.885009955177093"><ele>666.0</ele><time>2026-04-25T07:56:13Z</time></trkpt><trkpt lat="44.71785393487501" lon="9.884775326622236"><ele>668.0</ele><time>2026-04-25T07:56:14Z</time></trkpt><trkpt lat="44.717834583258494" lon="9.884544247141555"><ele>670.0</ele><time>2026-04-25T07:56:15Z</time></trkpt><trkpt lat="44.717822771837184" lon="9.884331021354829"><ele>672.0</ele><time>2026-04-25T07:56:16Z</time></trkpt><trkpt lat="44.71782570493872" lon="9.884113591934128"><ele>672.0</ele><time>2026-04-25T07:56:17Z</time></trkpt><trkpt lat="44.71784707079626" lon="9.883891939508313"><ele>672.0</ele><time>2026-04-25T07:56:18Z</time></trkpt><trkpt lat="44.71789320158023" lon="9.88366971866637"><ele>672.0</ele><time>2026-04-25T07:56:19Z</time></trkpt><trkpt lat="44.717957781041136" lon="9.883442037013348"><ele>674.6666666666666</ele><time>2026-04-25T07:56:20Z</time></trkpt><trkpt lat="44.7180332361814" lon="9.883206808500715"><ele>677.3333333333333</ele><time>2026-04-25T07:56:21Z</time></trkpt><trkpt lat="44.71811059970427" lon="9.882951618183645"><ele>680.0</ele><time>2026-04-25T07:56:22Z</time></trkpt><trkpt lat="44.71817515364813" lon="9.882712961829464"><ele>680.0</ele><time>2026-04-25T07:56:23Z</time></trkpt><trkpt lat="44.718232761943156" lon="9.882485379819807"><ele>680.0</ele><time>2026-04-25T07:56:24Z</time></trkpt><trkpt lat="44.718291718209485" lon="9.882269410411782"><ele>680.0</ele><time>2026-04-25T07:56:25Z</time></trkpt><trkpt lat="44.71835957669149" lon="9.882069458803668"><ele>680.0</ele><time>2026-04-25T07:56:26Z</time></trkpt><trkpt lat="44.71847102455183" lon="9.881911654451283"><ele>680.0</ele><time>2026-04-25T07:56:27Z</time></trkpt><trkpt lat="44.71859081640621" lon="9.881761675874275"><ele>680.0</ele><time>2026-04-25T07:56:28Z</time></trkpt><trkpt lat="44.718738001469326" lon="9.881626530417648"><ele>676.6666666666666</ele><time>2026-04-25T07:56:29Z</time></trkpt><trkpt lat="44.718858630216445" lon="9.88147847353514"><ele>673.3333333333334</ele><time>2026-04-25T07:56:30Z</time></trkpt><trkpt lat="44.71894688884235" lon="9.881254024167792"><ele>670.0</ele><time>2026-04-25T07:56:31Z</time></trkpt><trkpt lat="44.71903734255677" lon="9.881025556398457"><ele>670.0</ele><time>2026-04-25T07:56:32Z</time></trkpt><trkpt lat="44.71909987290959" lon="9.880780866392419"><ele>670.0</ele><time>2026-04-25T07:56:33Z</time></trkpt><trkpt lat="44.71915093245082" lon="9.880528021792836"><ele>670.0</ele><time>2026-04-25T07:56:34Z</time></trkpt><trkpt lat="44.71919366212675" lon="9.880272117074032"><ele>669.3333333333334</ele><time>2026-04-25T07:56:35Z</time></trkpt><trkpt lat="44.71923091980951" lon="9.879996399817308"><ele>668.6666666666666</ele><time>2026-04-25T07:56:36Z</time></trkpt><trkpt lat="44.719270566877086" lon="9.879731934250316"><ele>668.0</ele><time>2026-04-25T07:56:37Z</time></trkpt><trkpt lat="44.71929966744391" lon="9.8794899230074"><ele>668.0</ele><time>2026-04-25T07:56:38Z</time></trkpt><trkpt lat="44.71929081749161" lon="9.879275465822612"><ele>668.0</ele><time>2026-04-25T07:56:39Z</time></trkpt><trkpt lat="44.71921971120945" lon="9.879063138472533"><ele>668.0</ele><time>2026-04-25T07:56:40Z</time></trkpt><trkpt lat="44.719077916223384" lon="9.878827099904644"><ele>667.75</ele><time>2026-04-25T07:56:41Z</time></trkpt><trkpt lat="44.71900886050782" lon="9.878709419751694"><ele>667.5</ele><time>2026-04-25T07:56:42Z</time></trkpt><trkpt lat="44.71890861921487" lon="9.878539316230633"><ele>667.25</ele><time>2026-04-25T07:56:43Z</time></trkpt><trkpt lat="44.718846459831596" lon="9.878389659934228"><ele>667.0</ele><time>2026-04-25T07:56:44Z</time></trkpt><trkpt lat="44.71888519405112" lon="9.878209564019128"><ele>667.0</ele><time>2026-04-25T07:56:45Z</time></trkpt><trkpt lat="44.718923649731124" lon="9.877985096866745"><ele>667.0</ele><time>2026-04-25T07:56:46Z</time></trkpt><trkpt lat="44.71896300071633" lon="9.877744597535077"><ele>667.0</ele><time>2026-04-25T07:56:47Z</time></trkpt><trkpt lat="44.719005613490026" lon="9.877482346206186"><ele>666.3333333333334</ele><time>2026-04-25T07:56:48Z</time></trkpt><trkpt lat="44.71903390423889" lon="9.877217575343701"><ele>665.6666666666666</ele><time>2026-04-25T07:56:49Z</time></trkpt><trkpt lat="44.7190721666165" lon="9.876961325308164"><ele>665.0</ele><time>2026-04-25T07:56:50Z</time></trkpt><trkpt lat="44.71913721324197" lon="9.876745239940258"><ele>665.0</ele><time>2026-04-25T07:56:51Z</time></trkpt><trkpt lat="44.719212607120795" lon="9.876556911233031"><ele>665.0</ele><time>2026-04-25T07:56:52Z</time></trkpt><trkpt lat="44.71933847710941" lon="9.876402877134282"><ele>665.0</ele><time>2026-04-25T07:56:53Z</time></trkpt><trkpt lat="44.719490549916245" lon="9.87624199010834"><ele>665.0</ele><time>2026-04-25T07:56:53.999Z</time></trkpt><trkpt lat="44.71963366581198" lon="9.876065560030442"><ele>665.0</ele><time>2026-04-25T07:56:54.999Z</time></trkpt><trkpt lat="44.71976728407239" lon="9.87589005486246"><ele>665.0</ele><time>2026-04-25T07:56:55.999Z</time></trkpt><trkpt lat="44.719876982058096" lon="9.875691953706099"><ele>665.0</ele><time>2026-04-25T07:56:56.999Z</time></trkpt><trkpt lat="44.71995461536219" lon="9.875489546303264"><ele>665.0</ele><time>2026-04-25T07:56:57.999Z</time></trkpt><trkpt lat="44.719971213722786" lon="9.875246091670155"><ele>665.0</ele><time>2026-04-25T07:56:58.999Z</time></trkpt><trkpt lat="44.71999904485754" lon="9.875018923490078"><ele>664.5</ele><time>2026-04-25T07:56:59.999Z</time></trkpt><trkpt lat="44.72001329982496" lon="9.874816805347088"><ele>664.0</ele><time>2026-04-25T07:57:00.999Z</time></trkpt><trkpt lat="44.720104249707575" lon="9.87469083717322"><ele>663.5</ele><time>2026-04-25T07:57:01.999Z</time></trkpt><trkpt lat="44.72023106552418" lon="9.874574565584647"><ele>663.0</ele><time>2026-04-25T07:57:02.999Z</time></trkpt><trkpt lat="44.720366913029906" lon="9.874415359775222"><ele>662.6666666666666</ele><time>2026-04-25T07:57:03.999Z</time></trkpt><trkpt lat="44.72051712567842" lon="9.87427987186236"><ele>662.3333333333333</ele><time>2026-04-25T07:57:04.999Z</time></trkpt><trkpt lat="44.72065939569404" lon="9.874122628830412"><ele>662.0</ele><time>2026-04-25T07:57:05.999Z</time></trkpt><trkpt lat="44.720753716398974" lon="9.873931956111559"><ele>662.0</ele><time>2026-04-25T07:57:06.999Z</time></trkpt><trkpt lat="44.72080084110682" lon="9.873694734576814"><ele>662.0</ele><time>2026-04-25T07:57:07.999Z</time></trkpt><trkpt lat="44.72083721363632" lon="9.873426439847973"><ele>662.0</ele><time>2026-04-25T07:57:08.999Z</time></trkpt><trkpt lat="44.72087735226184" lon="9.873165917835758"><ele>662.0</ele><time>2026-04-25T07:57:09.999Z</time></trkpt><trkpt lat="44.720869097003614" lon="9.87289646421211"><ele>662.0</ele><time>2026-04-25T07:57:10.999Z</time></trkpt><trkpt lat="44.720855413702225" lon="9.87263928814397"><ele>662.0</ele><time>2026-04-25T07:57:11.999Z</time></trkpt><trkpt lat="44.72080859811861" lon="9.872381859190012"><ele>662.6666666666666</ele><time>2026-04-25T07:57:12.999Z</time></trkpt><trkpt lat="44.72071981713011" lon="9.872142565017205"><ele>663.3333333333334</ele><time>2026-04-25T07:57:13.999Z</time></trkpt><trkpt lat="44.72060727249635" lon="9.87196131344676"><ele>664.0</ele><time>2026-04-25T07:57:14.999Z</time></trkpt><trkpt lat="44.72054130978894" lon="9.871766092853566"><ele>666.0</ele><time>2026-04-25T07:57:15.999Z</time></trkpt><trkpt lat="44.72050739881022" lon="9.871537495488347"><ele>668.0</ele><time>2026-04-25T07:57:16.999Z</time></trkpt><trkpt lat="44.72048707153928" lon="9.871328007956508"><ele>670.0</ele><time>2026-04-25T07:57:17.999Z</time></trkpt><trkpt lat="44.72047266008244" lon="9.871082776268043"><ele>671.6666666666667</ele><time>2026-04-25T07:57:18.999Z</time></trkpt><trkpt lat="44.72049091644023" lon="9.870848240976846"><ele>673.3333333333334</ele><time>2026-04-25T07:57:19.999Z</time></trkpt><trkpt lat="44.720520360844745" lon="9.870625096406881"><ele>675.0</ele><time>2026-04-25T07:57:20.999Z</time></trkpt><trkpt lat="44.720572708050874" lon="9.870417367527876"><ele>675.0</ele><time>2026-04-25T07:57:21.999Z</time></trkpt><trkpt lat="44.72057777223264" lon="9.870198246286304"><ele>675.0</ele><time>2026-04-25T07:57:22.999Z</time></trkpt><trkpt lat="44.72054428786577" lon="9.869989184419536"><ele>675.0</ele><time>2026-04-25T07:57:23.999Z</time></trkpt><trkpt lat="44.72045531574234" lon="9.869821602467145"><ele>674.75</ele><time>2026-04-25T07:57:24.999Z</time></trkpt><trkpt lat="44.720337861510494" lon="9.869698733461439"><ele>674.5</ele><time>2026-04-25T07:57:25.999Z</time></trkpt><trkpt lat="44.72025745866671" lon="9.86955718694811"><ele>674.25</ele><time>2026-04-25T07:57:26.999Z</time></trkpt><trkpt lat="44.720205814791576" lon="9.869401824734378"><ele>674.0</ele><time>2026-04-25T07:57:27.999Z</time></trkpt><trkpt lat="44.72017424776382" lon="9.869219289157149"><ele>674.0</ele><time>2026-04-25T07:57:28.999Z</time></trkpt><trkpt lat="44.72012931288466" lon="9.869006233566843"><ele>674.0</ele><time>2026-04-25T07:57:29.999Z</time></trkpt><trkpt lat="44.720051687657985" lon="9.868806681280434"><ele>674.0</ele><time>2026-04-25T07:57:30.999Z</time></trkpt><trkpt lat="44.71997469193222" lon="9.868601729261616"><ele>677.0</ele><time>2026-04-25T07:57:31.999Z</time></trkpt><trkpt lat="44.71992028959933" lon="9.86837349874378"><ele>680.0</ele><time>2026-04-25T07:57:32.999Z</time></trkpt><trkpt lat="44.719880905683105" lon="9.868132320919488"><ele>683.0</ele><time>2026-04-25T07:57:33.999Z</time></trkpt><trkpt lat="44.719835603474394" lon="9.8678707299671"><ele>683.0</ele><time>2026-04-25T07:57:34.999Z</time></trkpt><trkpt lat="44.71981161973713" lon="9.867618108512316"><ele>683.0</ele><time>2026-04-25T07:57:35.999Z</time></trkpt><trkpt lat="44.719777040653575" lon="9.867343871007025"><ele>683.0</ele><time>2026-04-25T07:57:36.999Z</time></trkpt><trkpt lat="44.71971806445128" lon="9.867083422947744"><ele>686.0</ele><time>2026-04-25T07:57:37.999Z</time></trkpt><trkpt lat="44.719654816504665" lon="9.866817845638545"><ele>689.0</ele><time>2026-04-25T07:57:38.999Z</time></trkpt><trkpt lat="44.71961361910986" lon="9.866588957067655"><ele>692.0</ele><time>2026-04-25T07:57:39.999Z</time></trkpt><trkpt lat="44.7195758560372" lon="9.866356513474598"><ele>693.3333333333333</ele><time>2026-04-25T07:57:40.999Z</time></trkpt><trkpt lat="44.71950417935975" lon="9.866145681476585"><ele>694.6666666666666</ele><time>2026-04-25T07:57:41.999Z</time></trkpt><trkpt lat="44.71940251588995" lon="9.865967354059185"><ele>696.0</ele><time>2026-04-25T07:57:42.999Z</time></trkpt><trkpt lat="44.71936268538833" lon="9.865778852637765"><ele>689.6666666666666</ele><time>2026-04-25T07:57:43.999Z</time></trkpt><trkpt lat="44.719342337592245" lon="9.865550590570095"><ele>683.3333333333333</ele><time>2026-04-25T07:57:44.999Z</time></trkpt><trkpt lat="44.71936259144" lon="9.865313164260202"><ele>677.0</ele><time>2026-04-25T07:57:45.999Z</time></trkpt><trkpt lat="44.719397009731594" lon="9.865044043608517"><ele>682.3333333333333</ele><time>2026-04-25T07:57:46.999Z</time></trkpt><trkpt lat="44.719465346934825" lon="9.864756369783366"><ele>687.6666666666666</ele><time>2026-04-25T07:57:48Z</time></trkpt><trkpt lat="44.71952491963448" lon="9.864475080104008"><ele>693.0</ele><time>2026-04-25T07:57:49Z</time></trkpt><trkpt lat="44.7195823019067" lon="9.864193945022405"><ele>693.6666666666666</ele><time>2026-04-25T07:57:50Z</time></trkpt><trkpt lat="44.71962138330275" lon="9.863922964815066"><ele>694.3333333333333</ele><time>2026-04-25T07:57:51Z</time></trkpt><trkpt lat="44.71965887015403" lon="9.863678729221748"><ele>695.0</ele><time>2026-04-25T07:57:52Z</time></trkpt><trkpt lat="44.71970255347669" lon="9.863454696727814"><ele>694.0</ele><time>2026-04-25T07:57:53Z</time></trkpt><trkpt lat="44.71975180379786" lon="9.863221994186892"><ele>693.0</ele><time>2026-04-25T07:57:54Z</time></trkpt><trkpt lat="44.71984982239506" lon="9.863003738001552"><ele>692.0</ele><time>2026-04-25T07:57:55Z</time></trkpt><trkpt lat="44.719970900099035" lon="9.862775207532279"><ele>692.0</ele><time>2026-04-25T07:57:56Z</time></trkpt><trkpt lat="44.72011469311705" lon="9.862528669264458"><ele>692.0</ele><time>2026-04-25T07:57:57Z</time></trkpt><trkpt lat="44.72026578083598" lon="9.862288380124385"><ele>691.6666666666666</ele><time>2026-04-25T07:57:58Z</time></trkpt><trkpt lat="44.720407864702345" lon="9.862058770011602"><ele>691.3333333333334</ele><time>2026-04-25T07:57:59Z</time></trkpt><trkpt lat="44.72055152647295" lon="9.861816872929507"><ele>691.0</ele><time>2026-04-25T07:58:00Z</time></trkpt><trkpt lat="44.72069991947831" lon="9.861567366460392"><ele>694.0</ele><time>2026-04-25T07:58:01Z</time></trkpt><trkpt lat="44.720852192098796" lon="9.861306739301359"><ele>697.0</ele><time>2026-04-25T07:58:02Z</time></trkpt><trkpt lat="44.72100014372266" lon="9.861055468500378"><ele>699.6666666666667</ele><time>2026-04-25T07:58:03Z</time></trkpt><trkpt lat="44.72113648806641" lon="9.860827078395184"><ele>702.3333333333334</ele><time>2026-04-25T07:58:04Z</time></trkpt><trkpt lat="44.72125978863681" lon="9.860630513404905"><ele>705.0</ele><time>2026-04-25T07:58:05Z</time></trkpt><trkpt lat="44.72139213354391" lon="9.860454920079524"><ele>705.0</ele><time>2026-04-25T07:58:06Z</time></trkpt><trkpt lat="44.72156416190033" lon="9.860324488283652"><ele>705.0</ele><time>2026-04-25T07:58:07Z</time></trkpt><trkpt lat="44.72173131860943" lon="9.860196376082559"><ele>705.0</ele><time>2026-04-25T07:58:08Z</time></trkpt><trkpt lat="44.7218917501037" lon="9.860094726717298"><ele>702.6666666666666</ele><time>2026-04-25T07:58:09Z</time></trkpt><trkpt lat="44.72201947320579" lon="9.859961249131663"><ele>700.3333333333333</ele><time>2026-04-25T07:58:10Z</time></trkpt><trkpt lat="44.72211090818564" lon="9.859751735324569"><ele>698.0</ele><time>2026-04-25T07:58:11Z</time></trkpt><trkpt lat="44.72216997950123" lon="9.859481938993804"><ele>701.0</ele><time>2026-04-25T07:58:12Z</time></trkpt><trkpt lat="44.72222363715024" lon="9.85921625169386"><ele>704.0</ele><time>2026-04-25T07:58:13Z</time></trkpt><trkpt lat="44.722314846341526" lon="9.859012140183632"><ele>707.0</ele><time>2026-04-25T07:58:14Z</time></trkpt><trkpt lat="44.7224066867988" lon="9.8588443120594"><ele>707.0</ele><time>2026-04-25T07:58:15Z</time></trkpt><trkpt lat="44.72245920571749" lon="9.85865487727854"><ele>707.0</ele><time>2026-04-25T07:58:16Z</time></trkpt><trkpt lat="44.722462957737335" lon="9.858393937402443"><ele>707.0</ele><time>2026-04-25T07:58:17Z</time></trkpt><trkpt lat="44.722421078308436" lon="9.858123076600064"><ele>708.3333333333333</ele><time>2026-04-25T07:58:18Z</time></trkpt><trkpt lat="44.72243940900092" lon="9.857859136813317"><ele>709.6666666666666</ele><time>2026-04-25T07:58:19Z</time></trkpt><trkpt lat="44.722488302292504" lon="9.857579424174931"><ele>711.0</ele><time>2026-04-25T07:58:20Z</time></trkpt><trkpt lat="44.72257757595373" lon="9.857295556439611"><ele>711.3333333333334</ele><time>2026-04-25T07:58:21Z</time></trkpt><trkpt lat="44.72266001960997" lon="9.857010729534926"><ele>711.6666666666667</ele><time>2026-04-25T07:58:22Z</time></trkpt><trkpt lat="44.722746302791755" lon="9.856749323256913"><ele>712.0</ele><time>2026-04-25T07:58:23Z</time></trkpt><trkpt lat="44.722854237447955" lon="9.856499520652243"><ele>714.0</ele><time>2026-04-25T07:58:24Z</time></trkpt><trkpt lat="44.72297749918097" lon="9.856262280311164"><ele>716.0</ele><time>2026-04-25T07:58:25Z</time></trkpt><trkpt lat="44.72310601814723" lon="9.856030772410874"><ele>718.0</ele><time>2026-04-25T07:58:26Z</time></trkpt><trkpt lat="44.723229355839614" lon="9.85579830319812"><ele>720.3333333333334</ele><time>2026-04-25T07:58:27Z</time></trkpt><trkpt lat="44.72334839893928" lon="9.855565887902381"><ele>722.6666666666666</ele><time>2026-04-25T07:58:28Z</time></trkpt><trkpt lat="44.72346642718013" lon="9.855333686617325"><ele>725.0</ele><time>2026-04-25T07:58:29Z</time></trkpt><trkpt lat="44.72358682762158" lon="9.855105743669952"><ele>727.6666666666666</ele><time>2026-04-25T07:58:30Z</time></trkpt><trkpt lat="44.72370686020899" lon="9.854884223485554"><ele>730.3333333333334</ele><time>2026-04-25T07:58:31Z</time></trkpt><trkpt lat="44.72382086325655" lon="9.854663837884395"><ele>733.0</ele><time>2026-04-25T07:58:32Z</time></trkpt><trkpt lat="44.72392944321744" lon="9.854441230414796"><ele>734.6666666666667</ele><time>2026-04-25T07:58:33Z</time></trkpt><trkpt lat="44.72403044476265" lon="9.854209946967062"><ele>736.3333333333334</ele><time>2026-04-25T07:58:34Z</time></trkpt><trkpt lat="44.72412301078027" lon="9.853976266667368"><ele>738.0</ele><time>2026-04-25T07:58:35Z</time></trkpt><trkpt lat="44.72420413133219" lon="9.85372806582626"><ele>738.0</ele><time>2026-04-25T07:58:36Z</time></trkpt><trkpt lat="44.72427286416347" lon="9.853472422861559"><ele>738.0</ele><time>2026-04-25T07:58:37Z</time></trkpt><trkpt lat="44.7243444040109" lon="9.853219976629898"><ele>738.0</ele><time>2026-04-25T07:58:38Z</time></trkpt><trkpt lat="44.724423865745116" lon="9.852966276669127"><ele>741.0</ele><time>2026-04-25T07:58:39Z</time></trkpt><trkpt lat="44.72450622810017" lon="9.852708281061032"><ele>744.0</ele><time>2026-04-25T07:58:40Z</time></trkpt><trkpt lat="44.72458887159771" lon="9.852460607400403"><ele>747.0</ele><time>2026-04-25T07:58:41Z</time></trkpt><trkpt lat="44.724665840385136" lon="9.85221016528474"><ele>747.0</ele><time>2026-04-25T07:58:42Z</time></trkpt><trkpt lat="44.7247409108523" lon="9.85196388481069"><ele>747.0</ele><time>2026-04-25T07:58:43Z</time></trkpt><trkpt lat="44.724825525114625" lon="9.851725240066722"><ele>747.0</ele><time>2026-04-25T07:58:44Z</time></trkpt><trkpt lat="44.72492014014903" lon="9.851490068242757"><ele>746.6666666666666</ele><time>2026-04-25T07:58:45Z</time></trkpt><trkpt lat="44.72503416796878" lon="9.851259202938067"><ele>746.3333333333333</ele><time>2026-04-25T07:58:46Z</time></trkpt><trkpt lat="44.72515778406259" lon="9.851021998054494"><ele>746.0</ele><time>2026-04-25T07:58:47Z</time></trkpt><trkpt lat="44.72527575818774" lon="9.850784196364739"><ele>746.0</ele><time>2026-04-25T07:58:48Z</time></trkpt><trkpt lat="44.72538079631325" lon="9.850532890843608"><ele>746.0</ele><time>2026-04-25T07:58:49Z</time></trkpt><trkpt lat="44.72546162941212" lon="9.850268331161416"><ele>746.0</ele><time>2026-04-25T07:58:50Z</time></trkpt><trkpt lat="44.72552300636708" lon="9.84998001011247"><ele>742.0</ele><time>2026-04-25T07:58:51Z</time></trkpt><trkpt lat="44.72555832293088" lon="9.849670478289319"><ele>738.0</ele><time>2026-04-25T07:58:52Z</time></trkpt><trkpt lat="44.7255763158552" lon="9.849341639434051"><ele>736.3333333333334</ele><time>2026-04-25T07:58:53Z</time></trkpt><trkpt lat="44.725586667260515" lon="9.84902686314721"><ele>734.6666666666667</ele><time>2026-04-25T07:58:54Z</time></trkpt><trkpt lat="44.7256032356395" lon="9.84874103987473"><ele>733.0</ele><time>2026-04-25T07:58:55Z</time></trkpt><trkpt lat="44.72562929825084" lon="9.848470864194363"><ele>732.0</ele><time>2026-04-25T07:58:56Z</time></trkpt><trkpt lat="44.72567588750393" lon="9.848194401325149"><ele>731.0</ele><time>2026-04-25T07:58:57Z</time></trkpt><trkpt lat="44.725747374802964" lon="9.847921198920892"><ele>730.0</ele><time>2026-04-25T07:58:58Z</time></trkpt><trkpt lat="44.72582928204754" lon="9.847637216372581"><ele>728.3333333333334</ele><time>2026-04-25T07:58:59Z</time></trkpt><trkpt lat="44.72590593785782" lon="9.847347971465917"><ele>726.6666666666666</ele><time>2026-04-25T07:59:00Z</time></trkpt><trkpt lat="44.725978393670076" lon="9.847061163744032"><ele>725.0</ele><time>2026-04-25T07:59:01Z</time></trkpt><trkpt lat="44.72604968384116" lon="9.84678345650799"><ele>723.6666666666666</ele><time>2026-04-25T07:59:01.999Z</time></trkpt><trkpt lat="44.72610211201691" lon="9.846509246567585"><ele>722.3333333333334</ele><time>2026-04-25T07:59:02.999Z</time></trkpt><trkpt lat="44.726117706430465" lon="9.84622385800241"><ele>721.0</ele><time>2026-04-25T07:59:03.999Z</time></trkpt><trkpt lat="44.72611125439942" lon="9.845931347690744"><ele>721.0</ele><time>2026-04-25T07:59:04.999Z</time></trkpt><trkpt lat="44.72608674655475" lon="9.845666424923923"><ele>721.0</ele><time>2026-04-25T07:59:05.999Z</time></trkpt><trkpt lat="44.726015130124544" lon="9.845426383988531"><ele>721.0</ele><time>2026-04-25T07:59:06.999Z</time></trkpt><trkpt lat="44.72589998338616" lon="9.845216914421531"><ele>722.75</ele><time>2026-04-25T07:59:07.999Z</time></trkpt><trkpt lat="44.72582832322313" lon="9.845036427303311"><ele>724.5</ele><time>2026-04-25T07:59:08.999Z</time></trkpt><trkpt lat="44.725809733069816" lon="9.84487304428069"><ele>726.25</ele><time>2026-04-25T07:59:09.999Z</time></trkpt><trkpt lat="44.725811174344145" lon="9.844659586343898"><ele>728.0</ele><time>2026-04-25T07:59:10.999Z</time></trkpt><trkpt lat="44.72582392892108" lon="9.84440354211909"><ele>728.0</ele><time>2026-04-25T07:59:11.999Z</time></trkpt><trkpt lat="44.72586178024372" lon="9.844137564210211"><ele>728.0</ele><time>2026-04-25T07:59:12.999Z</time></trkpt><trkpt lat="44.725890870239326" lon="9.843878959202561"><ele>728.0</ele><time>2026-04-25T07:59:13.999Z</time></trkpt><trkpt lat="44.725904714305365" lon="9.843614984434394"><ele>727.75</ele><time>2026-04-25T07:59:14.999Z</time></trkpt><trkpt lat="44.72592163790142" lon="9.843381450153595"><ele>727.5</ele><time>2026-04-25T07:59:15.999Z</time></trkpt><trkpt lat="44.7259359967595" lon="9.84316206815246"><ele>727.25</ele><time>2026-04-25T07:59:16.999Z</time></trkpt><trkpt lat="44.72594167654197" lon="9.842992118238035"><ele>727.0</ele><time>2026-04-25T07:59:17.999Z</time></trkpt><trkpt lat="44.725628076801435" lon="9.842703913495189"><ele>726.3333333333334</ele><time>2026-04-25T07:59:18.999Z</time></trkpt><trkpt lat="44.725531734176954" lon="9.842411326307607"><ele>725.6666666666666</ele><time>2026-04-25T07:59:19.999Z</time></trkpt><trkpt lat="44.72545049007615" lon="9.842151255937669"><ele>725.0</ele><time>2026-04-25T07:59:20.999Z</time></trkpt><trkpt lat="44.72536289030526" lon="9.841902165649637"><ele>725.3333333333333</ele><time>2026-04-25T07:59:21.999Z</time></trkpt><trkpt lat="44.72529175768842" lon="9.841670113133857"><ele>725.6666666666666</ele><time>2026-04-25T07:59:22.999Z</time></trkpt><trkpt lat="44.7252325313304" lon="9.841456554093025"><ele>726.0</ele><time>2026-04-25T07:59:23.999Z</time></trkpt><trkpt lat="44.725173617615155" lon="9.841249081103985"><ele>726.0</ele><time>2026-04-25T07:59:24.999Z</time></trkpt><trkpt lat="44.72511341858248" lon="9.84098059382073"><ele>726.0</ele><time>2026-04-25T07:59:25.999Z</time></trkpt><trkpt lat="44.72509790456967" lon="9.840685184140645"><ele>726.0</ele><time>2026-04-25T07:59:26.999Z</time></trkpt><trkpt lat="44.725210972444025" lon="9.84053002879882"><ele>725.6666666666666</ele><time>2026-04-25T07:59:27.999Z</time></trkpt><trkpt lat="44.72525645993796" lon="9.840269427304754"><ele>725.3333333333333</ele><time>2026-04-25T07:59:28.999Z</time></trkpt><trkpt lat="44.725285231446954" lon="9.840040715039994"><ele>725.0</ele><time>2026-04-25T07:59:29.999Z</time></trkpt><trkpt lat="44.725295713690386" lon="9.839814808857499"><ele>723.6666666666666</ele><time>2026-04-25T07:59:30.999Z</time></trkpt><trkpt lat="44.7252759961937" lon="9.83956037738126"><ele>722.3333333333334</ele><time>2026-04-25T07:59:31.999Z</time></trkpt><trkpt lat="44.72520972832053" lon="9.839339060893632"><ele>721.0</ele><time>2026-04-25T07:59:32.999Z</time></trkpt><trkpt lat="44.72513116109309" lon="9.839108068641751"><ele>720.0</ele><time>2026-04-25T07:59:33.999Z</time></trkpt><trkpt lat="44.72508141649425" lon="9.838860378061106"><ele>719.0</ele><time>2026-04-25T07:59:34.999Z</time></trkpt><trkpt lat="44.72505878475536" lon="9.83858697659212"><ele>718.0</ele><time>2026-04-25T07:59:35.999Z</time></trkpt><trkpt lat="44.725024800189175" lon="9.838294673475653"><ele>718.0</ele><time>2026-04-25T07:59:36.999Z</time></trkpt><trkpt lat="44.72495548439987" lon="9.837957144659812"><ele>718.0</ele><time>2026-04-25T07:59:37.999Z</time></trkpt><trkpt lat="44.72485030278843" lon="9.837615848880407"><ele>717.6666666666667</ele><time>2026-04-25T07:59:38.999Z</time></trkpt><trkpt lat="44.724749946611986" lon="9.837304896565888"><ele>717.3333333333334</ele><time>2026-04-25T07:59:39.999Z</time></trkpt><trkpt lat="44.72468041656182" lon="9.837035971813474"><ele>717.0</ele><time>2026-04-25T07:59:40.999Z</time></trkpt><trkpt lat="44.724623918002486" lon="9.836832592138618"><ele>717.25</ele><time>2026-04-25T07:59:41.999Z</time></trkpt><trkpt lat="44.724582353461535" lon="9.836658077205616"><ele>717.5</ele><time>2026-04-25T07:59:42.999Z</time></trkpt><trkpt lat="44.72458983869668" lon="9.836478235406904"><ele>717.75</ele><time>2026-04-25T07:59:43.999Z</time></trkpt><trkpt lat="44.724680853827834" lon="9.83629911355769"><ele>718.0</ele><time>2026-04-25T07:59:44.999Z</time></trkpt><trkpt lat="44.72479218746425" lon="9.836074575534564"><ele>717.3333333333334</ele><time>2026-04-25T07:59:45.999Z</time></trkpt><trkpt lat="44.72486933579883" lon="9.835821481167047"><ele>716.6666666666666</ele><time>2026-04-25T07:59:46.999Z</time></trkpt><trkpt lat="44.72490432214634" lon="9.835571012456985"><ele>716.0</ele><time>2026-04-25T07:59:47.999Z</time></trkpt><trkpt lat="44.72490430950879" lon="9.83535083921206"><ele>716.0</ele><time>2026-04-25T07:59:48.999Z</time></trkpt><trkpt lat="44.72484188701194" lon="9.835163201695867"><ele>716.0</ele><time>2026-04-25T07:59:49.999Z</time></trkpt><trkpt lat="44.72466095251077" lon="9.835050185107896"><ele>716.0</ele><time>2026-04-25T07:59:50.999Z</time></trkpt><trkpt lat="44.72448996706049" lon="9.834975975560432"><ele>716.3333333333333</ele><time>2026-04-25T07:59:51.999Z</time></trkpt><trkpt lat="44.724306609890725" lon="9.834880913306622"><ele>716.6666666666666</ele><time>2026-04-25T07:59:52.999Z</time></trkpt><trkpt lat="44.724119948388" lon="9.834818618526585"><ele>717.0</ele><time>2026-04-25T07:59:54Z</time></trkpt><trkpt lat="44.72397916226437" lon="9.834790319876413"><ele>717.0</ele><time>2026-04-25T07:59:55Z</time></trkpt><trkpt lat="44.72388448813115" lon="9.83474467243288"><ele>717.0</ele><time>2026-04-25T07:59:56Z</time></trkpt><trkpt lat="44.72384279785247" lon="9.834599042245122"><ele>717.0</ele><time>2026-04-25T07:59:57Z</time></trkpt><trkpt lat="44.72385931360175" lon="9.834406706135727"><ele>717.0</ele><time>2026-04-25T07:59:58Z</time></trkpt><trkpt lat="44.7239326633739" lon="9.834178900922952"><ele>718.0</ele><time>2026-04-25T07:59:59Z</time></trkpt><trkpt lat="44.724036886615266" lon="9.833941706652825"><ele>719.0</ele><time>2026-04-25T08:00:00Z</time></trkpt><trkpt lat="44.72412926485175" lon="9.833712708149061"><ele>720.0</ele><time>2026-04-25T08:00:01Z</time></trkpt><trkpt lat="44.72418370686337" lon="9.833511820702224"><ele>718.6666666666666</ele><time>2026-04-25T08:00:02Z</time></trkpt><trkpt lat="44.72420563230641" lon="9.833283396661693"><ele>717.3333333333333</ele><time>2026-04-25T08:00:03Z</time></trkpt><trkpt lat="44.724199228907665" lon="9.833021236512543"><ele>716.0</ele><time>2026-04-25T08:00:04Z</time></trkpt><trkpt lat="44.72416915942674" lon="9.832759708447883"><ele>714.6666666666666</ele><time>2026-04-25T08:00:05Z</time></trkpt><trkpt lat="44.724151705195844" lon="9.832516885561418"><ele>713.3333333333334</ele><time>2026-04-25T08:00:06Z</time></trkpt><trkpt lat="44.7241737189639" lon="9.832301425214888"><ele>712.0</ele><time>2026-04-25T08:00:07Z</time></trkpt><trkpt lat="44.72422185179461" lon="9.832077169764412"><ele>712.0</ele><time>2026-04-25T08:00:08Z</time></trkpt><trkpt lat="44.72430502828096" lon="9.831879108758436"><ele>712.0</ele><time>2026-04-25T08:00:09Z</time></trkpt><trkpt lat="44.724442607493785" lon="9.831704275087068"><ele>712.0</ele><time>2026-04-25T08:00:10Z</time></trkpt><trkpt lat="44.72459079171289" lon="9.831560425852903"><ele>711.0</ele><time>2026-04-25T08:00:11Z</time></trkpt><trkpt lat="44.724709791293044" lon="9.831408495161272"><ele>710.0</ele><time>2026-04-25T08:00:12Z</time></trkpt><trkpt lat="44.72480271829302" lon="9.831217604997825"><ele>709.0</ele><time>2026-04-25T08:00:13Z</time></trkpt><trkpt lat="44.724855324385665" lon="9.83095017989145"><ele>709.0</ele><time>2026-04-25T08:00:14Z</time></trkpt><trkpt lat="44.72487895724833" lon="9.830648366510781"><ele>709.0</ele><time>2026-04-25T08:00:15Z</time></trkpt><trkpt lat="44.72483885457936" lon="9.830332188763698"><ele>709.0</ele><time>2026-04-25T08:00:16Z</time></trkpt><trkpt lat="44.72477306685237" lon="9.829992390233542"><ele>708.5</ele><time>2026-04-25T08:00:17Z</time></trkpt><trkpt lat="44.72471434486856" lon="9.829664845287883"><ele>708.0</ele><time>2026-04-25T08:00:18Z</time></trkpt><trkpt lat="44.72466773990235" lon="9.829372151299124"><ele>707.0</ele><time>2026-04-25T08:00:19Z</time></trkpt><trkpt lat="44.72461455850613" lon="9.82906671246866"><ele>706.0</ele><time>2026-04-25T08:00:20Z</time></trkpt><trkpt lat="44.724553542526934" lon="9.828757372078552"><ele>706.0</ele><time>2026-04-25T08:00:21Z</time></trkpt><trkpt lat="44.724483511508744" lon="9.828456213263136"><ele>706.0</ele><time>2026-04-25T08:00:22Z</time></trkpt><trkpt lat="44.72441248613636" lon="9.828158470886741"><ele>706.0</ele><time>2026-04-25T08:00:23Z</time></trkpt><trkpt lat="44.72433418889771" lon="9.827892128567864"><ele>704.6666666666667</ele><time>2026-04-25T08:00:24Z</time></trkpt><trkpt lat="44.72425885205462" lon="9.827663650873905"><ele>703.3333333333334</ele><time>2026-04-25T08:00:25Z</time></trkpt><trkpt lat="44.72422535033734" lon="9.8274400679208"><ele>702.0</ele><time>2026-04-25T08:00:26Z</time></trkpt><trkpt lat="44.72417349516983" lon="9.827231091944693"><ele>705.0</ele><time>2026-04-25T08:00:27Z</time></trkpt><trkpt lat="44.724102437110034" lon="9.82703258580483"><ele>708.0</ele><time>2026-04-25T08:00:28Z</time></trkpt><trkpt lat="44.723959542847126" lon="9.826873701298348"><ele>711.0</ele><time>2026-04-25T08:00:29Z</time></trkpt><trkpt lat="44.723757942537375" lon="9.826771246917408"><ele>712.3333333333334</ele><time>2026-04-25T08:00:30Z</time></trkpt><trkpt lat="44.723529476759445" lon="9.82670614458001"><ele>713.6666666666667</ele><time>2026-04-25T08:00:31Z</time></trkpt><trkpt lat="44.72333046554241" lon="9.826600746833844"><ele>715.0</ele><time>2026-04-25T08:00:32Z</time></trkpt><trkpt lat="44.72316017668669" lon="9.826522971283962"><ele>715.0</ele><time>2026-04-25T08:00:33Z</time></trkpt><trkpt lat="44.72304159784256" lon="9.826458891380048"><ele>715.0</ele><time>2026-04-25T08:00:34Z</time></trkpt><trkpt lat="44.72294315114088" lon="9.826396926778237"><ele>715.0</ele><time>2026-04-25T08:00:35Z</time></trkpt><trkpt lat="44.722893655849276" lon="9.826268722569962"><ele>715.0</ele><time>2026-04-25T08:00:36Z</time></trkpt><trkpt lat="44.722897240603835" lon="9.826106153931507"><ele>716.3333333333334</ele><time>2026-04-25T08:00:37Z</time></trkpt><trkpt lat="44.722945062041035" lon="9.825886660313259"><ele>717.6666666666666</ele><time>2026-04-25T08:00:38Z</time></trkpt><trkpt lat="44.723051854615825" lon="9.825681789905191"><ele>719.0</ele><time>2026-04-25T08:00:39Z</time></trkpt><trkpt lat="44.723205327511025" lon="9.825512423496964"><ele>719.0</ele><time>2026-04-25T08:00:40Z</time></trkpt><trkpt lat="44.72336897360931" lon="9.825336543819962"><ele>719.0</ele><time>2026-04-25T08:00:41Z</time></trkpt><trkpt lat="44.7235231662262" lon="9.825150307935754"><ele>719.0</ele><time>2026-04-25T08:00:42Z</time></trkpt><trkpt lat="44.72367209863672" lon="9.82489257564543"><ele>719.5</ele><time>2026-04-25T08:00:43Z</time></trkpt><trkpt lat="44.72382509131499" lon="9.824589257615298"><ele>720.0</ele><time>2026-04-25T08:00:44Z</time></trkpt><trkpt lat="44.72402304019595" lon="9.824219147884746"><ele>718.6666666666666</ele><time>2026-04-25T08:00:45Z</time></trkpt><trkpt lat="44.72409117168803" lon="9.824052902866248"><ele>717.3333333333333</ele><time>2026-04-25T08:00:46Z</time></trkpt><trkpt lat="44.724222806922015" lon="9.823803092577727"><ele>716.0</ele><time>2026-04-25T08:00:47Z</time></trkpt><trkpt lat="44.72434368264809" lon="9.823564793934828"><ele>715.0</ele><time>2026-04-25T08:00:48Z</time></trkpt><trkpt lat="44.72446988672735" lon="9.823340428409063"><ele>714.0</ele><time>2026-04-25T08:00:49Z</time></trkpt><trkpt lat="44.724631198045955" lon="9.823148300864005"><ele>713.0</ele><time>2026-04-25T08:00:50Z</time></trkpt><trkpt lat="44.72478198944316" lon="9.822927888079057"><ele>713.0</ele><time>2026-04-25T08:00:51Z</time></trkpt><trkpt lat="44.72493472972874" lon="9.822716149147633"><ele>713.0</ele><time>2026-04-25T08:00:52Z</time></trkpt><trkpt lat="44.72507268873117" lon="9.822476944973447"><ele>713.0</ele><time>2026-04-25T08:00:53Z</time></trkpt><trkpt lat="44.72518573232374" lon="9.822275954330188"><ele>713.25</ele><time>2026-04-25T08:00:54Z</time></trkpt><trkpt lat="44.725235901957724" lon="9.822116550206928"><ele>713.5</ele><time>2026-04-25T08:00:55Z</time></trkpt><trkpt lat="44.72523345475414" lon="9.821994795128298"><ele>713.75</ele><time>2026-04-25T08:00:56Z</time></trkpt><trkpt lat="44.72520505878226" lon="9.821854490968827"><ele>714.0</ele><time>2026-04-25T08:00:57Z</time></trkpt><trkpt lat="44.72513018918294" lon="9.821678644739324"><ele>714.3333333333334</ele><time>2026-04-25T08:00:58Z</time></trkpt><trkpt lat="44.724995143746355" lon="9.821494941465948"><ele>714.6666666666667</ele><time>2026-04-25T08:00:59Z</time></trkpt><trkpt lat="44.72489258372698" lon="9.82131701528277"><ele>715.0</ele><time>2026-04-25T08:01:00Z</time></trkpt><trkpt lat="44.72484959108238" lon="9.821120472668118"><ele>714.6666666666667</ele><time>2026-04-25T08:01:01Z</time></trkpt><trkpt lat="44.724862284658755" lon="9.820873349177653"><ele>714.3333333333334</ele><time>2026-04-25T08:01:02Z</time></trkpt><trkpt lat="44.72488149482889" lon="9.820568513898031"><ele>714.0</ele><time>2026-04-25T08:01:03Z</time></trkpt><trkpt lat="44.72490351375298" lon="9.820260258162802"><ele>714.3333333333334</ele><time>2026-04-25T08:01:04Z</time></trkpt><trkpt lat="44.72492855012783" lon="9.819981853644743"><ele>714.6666666666667</ele><time>2026-04-25T08:01:05Z</time></trkpt><trkpt lat="44.724976632605" lon="9.819745020143491"><ele>715.0</ele><time>2026-04-25T08:01:06Z</time></trkpt><trkpt lat="44.72507826789652" lon="9.819537386666267"><ele>715.0</ele><time>2026-04-25T08:01:07Z</time></trkpt><trkpt lat="44.725218526628844" lon="9.81932352302501"><ele>715.0</ele><time>2026-04-25T08:01:08Z</time></trkpt><trkpt lat="44.72537539831271" lon="9.81913845327087"><ele>715.0</ele><time>2026-04-25T08:01:08.999Z</time></trkpt><trkpt lat="44.72550339958285" lon="9.818961630824997"><ele>714.3333333333334</ele><time>2026-04-25T08:01:09.999Z</time></trkpt><trkpt lat="44.725623229082146" lon="9.818797621496671"><ele>713.6666666666666</ele><time>2026-04-25T08:01:10.999Z</time></trkpt><trkpt lat="44.7257242600627" lon="9.81856582897343"><ele>713.0</ele><time>2026-04-25T08:01:11.999Z</time></trkpt><trkpt lat="44.72580485590621" lon="9.818269642790051"><ele>714.6666666666666</ele><time>2026-04-25T08:01:12.999Z</time></trkpt><trkpt lat="44.725862180661885" lon="9.818001302693625"><ele>716.3333333333334</ele><time>2026-04-25T08:01:13.999Z</time></trkpt><trkpt lat="44.72587538215792" lon="9.817708390843402"><ele>718.0</ele><time>2026-04-25T08:01:14.999Z</time></trkpt><trkpt lat="44.72589243499607" lon="9.817392102017434"><ele>718.0</ele><time>2026-04-25T08:01:15.999Z</time></trkpt><trkpt lat="44.7258841199258" lon="9.817113079127317"><ele>718.0</ele><time>2026-04-25T08:01:16.999Z</time></trkpt><trkpt lat="44.72589608124605" lon="9.816867279212058"><ele>718.0</ele><time>2026-04-25T08:01:17.999Z</time></trkpt><trkpt lat="44.725967886338715" lon="9.816624506504864"><ele>719.0</ele><time>2026-04-25T08:01:18.999Z</time></trkpt><trkpt lat="44.72605206489038" lon="9.816335769446319"><ele>720.0</ele><time>2026-04-25T08:01:19.999Z</time></trkpt><trkpt lat="44.72614859020957" lon="9.816018560835667"><ele>719.5</ele><time>2026-04-25T08:01:20.999Z</time></trkpt><trkpt lat="44.7262597577618" lon="9.815739615141892"><ele>719.0</ele><time>2026-04-25T08:01:21.999Z</time></trkpt><trkpt lat="44.72639370006849" lon="9.8154707938757"><ele>719.0</ele><time>2026-04-25T08:01:22.999Z</time></trkpt><trkpt lat="44.72653193195146" lon="9.815209025674585"><ele>719.0</ele><time>2026-04-25T08:01:23.999Z</time></trkpt><trkpt lat="44.726665358708956" lon="9.814962150799378"><ele>718.5</ele><time>2026-04-25T08:01:24.999Z</time></trkpt><trkpt lat="44.72679255438214" lon="9.814757087248799"><ele>718.0</ele><time>2026-04-25T08:01:25.999Z</time></trkpt><trkpt lat="44.726899685216274" lon="9.81462962463865"><ele>717.5</ele><time>2026-04-25T08:01:26.999Z</time></trkpt><trkpt lat="44.72697842110928" lon="9.814525246371895"><ele>717.0</ele><time>2026-04-25T08:01:27.999Z</time></trkpt><trkpt lat="44.727009219205215" lon="9.814392412302597"><ele>718.5</ele><time>2026-04-25T08:01:28.999Z</time></trkpt><trkpt lat="44.72699379376922" lon="9.814195686954813"><ele>720.0</ele><time>2026-04-25T08:01:29.999Z</time></trkpt><trkpt lat="44.72693573889422" lon="9.81398182171012"><ele>721.5</ele><time>2026-04-25T08:01:30.999Z</time></trkpt><trkpt lat="44.726909765094135" lon="9.813780074602489"><ele>723.0</ele><time>2026-04-25T08:01:31.999Z</time></trkpt><trkpt lat="44.72696701041852" lon="9.81358477630112"><ele>725.3333333333334</ele><time>2026-04-25T08:01:32.999Z</time></trkpt><trkpt lat="44.727010020091946" lon="9.81335901208419"><ele>727.6666666666667</ele><time>2026-04-25T08:01:33.999Z</time></trkpt><trkpt lat="44.72707419722941" lon="9.813135766734053"><ele>730.0</ele><time>2026-04-25T08:01:34.999Z</time></trkpt><trkpt lat="44.727133530388464" lon="9.812950122557663"><ele>730.0</ele><time>2026-04-25T08:01:35.999Z</time></trkpt><trkpt lat="44.727208348093384" lon="9.812781497109945"><ele>730.0</ele><time>2026-04-25T08:01:36.999Z</time></trkpt><trkpt lat="44.727386537663435" lon="9.812700927459517"><ele>730.0</ele><time>2026-04-25T08:01:37.999Z</time></trkpt><trkpt lat="44.727550237307184" lon="9.812576385900895"><ele>735.0</ele><time>2026-04-25T08:01:38.999Z</time></trkpt><trkpt lat="44.727718889740586" lon="9.812466731048513"><ele>740.0</ele><time>2026-04-25T08:01:39.999Z</time></trkpt><trkpt lat="44.727884674993" lon="9.81238451593899"><ele>745.0</ele><time>2026-04-25T08:01:40.999Z</time></trkpt><trkpt lat="44.72803684642068" lon="9.812387568910696"><ele>745.0</ele><time>2026-04-25T08:01:41.999Z</time></trkpt><trkpt lat="44.72822108476694" lon="9.81230425068325"><ele>745.0</ele><time>2026-04-25T08:01:42.999Z</time></trkpt><trkpt lat="44.72844395985387" lon="9.81214282606989"><ele>745.0</ele><time>2026-04-25T08:01:43.999Z</time></trkpt><trkpt lat="44.72863597935017" lon="9.811974880658463"><ele>744.25</ele><time>2026-04-25T08:01:44.999Z</time></trkpt><trkpt lat="44.7287718014201" lon="9.811849897397142"><ele>743.5</ele><time>2026-04-25T08:01:45.999Z</time></trkpt><trkpt lat="44.72877710120998" lon="9.811670406426352"><ele>742.75</ele><time>2026-04-25T08:01:47.999Z</time></trkpt><trkpt lat="44.72882312764392" lon="9.811482306260725"><ele>742.0</ele><time>2026-04-25T08:01:48.999Z</time></trkpt><trkpt lat="44.728892334087405" lon="9.811321842627867"><ele>744.2</ele><time>2026-04-25T08:01:49.999Z</time></trkpt><trkpt lat="44.729004780416076" lon="9.811215640415332"><ele>746.4000000000001</ele><time>2026-04-25T08:01:50.999Z</time></trkpt><trkpt lat="44.729058288080445" lon="9.811141168989344"><ele>748.5999999999999</ele><time>2026-04-25T08:01:51.999Z</time></trkpt><trkpt lat="44.72905333101882" lon="9.811041552129655"><ele>750.8</ele><time>2026-04-25T08:01:52.999Z</time></trkpt><trkpt lat="44.728988024959136" lon="9.810967738300652"><ele>753.0</ele><time>2026-04-25T08:01:53.999Z</time></trkpt><trkpt lat="44.72890225634348" lon="9.810977986145994"><ele>753.0</ele><time>2026-04-25T08:01:54.999Z</time></trkpt><trkpt lat="44.72879680570752" lon="9.811093151973795"><ele>753.0</ele><time>2026-04-25T08:01:55.999Z</time></trkpt><trkpt lat="44.72870866546094" lon="9.811169743280566"><ele>753.0</ele><time>2026-04-25T08:01:56.999Z</time></trkpt><trkpt lat="44.72853032124083" lon="9.811424975638573"><ele>756.3333333333334</ele><time>2026-04-25T08:01:57.999Z</time></trkpt><trkpt lat="44.72837495968715" lon="9.811558903867422"><ele>759.6666666666667</ele><time>2026-04-25T08:01:58.999Z</time></trkpt><trkpt lat="44.72820239263389" lon="9.811537369304313"><ele>763.0</ele><time>2026-04-25T08:02:00Z</time></trkpt><trkpt lat="44.727999053626746" lon="9.81152082016341"><ele>763.0</ele><time>2026-04-25T08:02:01Z</time></trkpt><trkpt lat="44.72782507076815" lon="9.811498889857777"><ele>763.0</ele><time>2026-04-25T08:02:02Z</time></trkpt><trkpt lat="44.72771288092637" lon="9.811478431659687"><ele>763.0</ele><time>2026-04-25T08:02:03Z</time></trkpt><trkpt lat="44.72766960794745" lon="9.811358368568706"><ele>763.0</ele><time>2026-04-25T08:02:05Z</time></trkpt><trkpt lat="44.72773028587678" lon="9.811303423458128"><ele>763.0</ele><time>2026-04-25T08:02:06Z</time></trkpt><trkpt lat="44.72781145825375" lon="9.81129577396599"><ele>763.0</ele><time>2026-04-25T08:02:07Z</time></trkpt><trkpt lat="44.727945522827945" lon="9.811352245990678"><ele>763.0</ele><time>2026-04-25T08:02:08Z</time></trkpt><trkpt lat="44.728099297455024" lon="9.81136982323794"><ele>763.0</ele><time>2026-04-25T08:02:09Z</time></trkpt><trkpt lat="44.72824271102537" lon="9.811312787741032"><ele>763.0</ele><time>2026-04-25T08:02:10Z</time></trkpt><trkpt lat="44.72833565664401" lon="9.811184564149455"><ele>763.0</ele><time>2026-04-25T08:02:11Z</time></trkpt><trkpt lat="44.72838628901977" lon="9.811042511242377"><ele>763.0</ele><time>2026-04-25T08:02:12Z</time></trkpt><trkpt lat="44.72841988192334" lon="9.81084842382798"><ele>763.0</ele><time>2026-04-25T08:02:13Z</time></trkpt><trkpt lat="44.72843904634176" lon="9.810631981049925"><ele>763.3333333333334</ele><time>2026-04-25T08:02:14Z</time></trkpt><trkpt lat="44.72850527797319" lon="9.810439275953401"><ele>763.6666666666666</ele><time>2026-04-25T08:02:15Z</time></trkpt><trkpt lat="44.72859892762153" lon="9.810254834568363"><ele>764.0</ele><time>2026-04-25T08:02:16Z</time></trkpt><trkpt lat="44.72871538353472" lon="9.810096792945108"><ele>766.5</ele><time>2026-04-25T08:02:17Z</time></trkpt><trkpt lat="44.72883982269529" lon="9.809953219321445"><ele>769.0</ele><time>2026-04-25T08:02:18Z</time></trkpt><trkpt lat="44.7289503845302" lon="9.809808885246657"><ele>771.5</ele><time>2026-04-25T08:02:19Z</time></trkpt><trkpt lat="44.72904050421561" lon="9.809684618329525"><ele>774.0</ele><time>2026-04-25T08:02:20Z</time></trkpt><trkpt lat="44.729094832214585" lon="9.809523595736875"><ele>775.75</ele><time>2026-04-25T08:02:21Z</time></trkpt><trkpt lat="44.72907743606976" lon="9.80931720018787"><ele>777.5</ele><time>2026-04-25T08:02:22Z</time></trkpt><trkpt lat="44.729071658980644" lon="9.809107097281364"><ele>779.25</ele><time>2026-04-25T08:02:23Z</time></trkpt><trkpt lat="44.729058309855084" lon="9.808938714982194"><ele>781.0</ele><time>2026-04-25T08:02:24Z</time></trkpt><trkpt lat="44.729105817218844" lon="9.8088085638454"><ele>781.0</ele><time>2026-04-25T08:02:25Z</time></trkpt><trkpt lat="44.729239601777266" lon="9.808763396572353"><ele>781.0</ele><time>2026-04-25T08:02:26Z</time></trkpt><trkpt lat="44.729389441251726" lon="9.808658747622449"><ele>781.0</ele><time>2026-04-25T08:02:27Z</time></trkpt><trkpt lat="44.72953726965873" lon="9.808531009718884"><ele>784.6666666666666</ele><time>2026-04-25T08:02:28Z</time></trkpt><trkpt lat="44.729688038043165" lon="9.808395184951458"><ele>788.3333333333333</ele><time>2026-04-25T08:02:29Z</time></trkpt><trkpt lat="44.72983523182734" lon="9.808241970723966"><ele>792.0</ele><time>2026-04-25T08:02:30Z</time></trkpt><trkpt lat="44.7299819202835" lon="9.808059577655031"><ele>792.0</ele><time>2026-04-25T08:02:31Z</time></trkpt><trkpt lat="44.73011682024924" lon="9.807836698068543"><ele>792.0</ele><time>2026-04-25T08:02:32Z</time></trkpt><trkpt lat="44.730233072764435" lon="9.807572354024066"><ele>792.0</ele><time>2026-04-25T08:02:33Z</time></trkpt><trkpt lat="44.73032768941928" lon="9.807301847706665"><ele>796.3333333333333</ele><time>2026-04-25T08:02:34Z</time></trkpt><trkpt lat="44.730419913785994" lon="9.807012650265998"><ele>800.6666666666666</ele><time>2026-04-25T08:02:35Z</time></trkpt><trkpt lat="44.730508946914064" lon="9.80672584058804"><ele>805.0</ele><time>2026-04-25T08:02:36Z</time></trkpt><trkpt lat="44.73059969033076" lon="9.806449424292042"><ele>807.0</ele><time>2026-04-25T08:02:37Z</time></trkpt><trkpt lat="44.73068603022601" lon="9.806198496970365"><ele>809.0</ele><time>2026-04-25T08:02:38Z</time></trkpt><trkpt lat="44.73074476674608" lon="9.805979527126091"><ele>811.0</ele><time>2026-04-25T08:02:39Z</time></trkpt><trkpt lat="44.730717839123756" lon="9.80573978200154"><ele>811.0</ele><time>2026-04-25T08:02:40Z</time></trkpt><trkpt lat="44.730690354125095" lon="9.8054618207164"><ele>811.0</ele><time>2026-04-25T08:02:41Z</time></trkpt><trkpt lat="44.730664950405455" lon="9.805204278874923"><ele>811.0</ele><time>2026-04-25T08:02:42Z</time></trkpt><trkpt lat="44.73065754536769" lon="9.804987246765789"><ele>811.25</ele><time>2026-04-25T08:02:43Z</time></trkpt><trkpt lat="44.73068442208354" lon="9.804819438497116"><ele>811.5</ele><time>2026-04-25T08:02:44Z</time></trkpt><trkpt lat="44.730769630845614" lon="9.804677700930684"><ele>811.75</ele><time>2026-04-25T08:02:45Z</time></trkpt><trkpt lat="44.73089024980355" lon="9.804512550221569"><ele>812.0</ele><time>2026-04-25T08:02:46Z</time></trkpt><trkpt lat="44.730989786095456" lon="9.80432161965079"><ele>812.0</ele><time>2026-04-25T08:02:47Z</time></trkpt><trkpt lat="44.73105509275569" lon="9.80410055128292"><ele>812.0</ele><time>2026-04-25T08:02:48Z</time></trkpt><trkpt lat="44.73112027165003" lon="9.803892074791213"><ele>812.0</ele><time>2026-04-25T08:02:49Z</time></trkpt><trkpt lat="44.731193028962835" lon="9.803727271078076"><ele>814.0</ele><time>2026-04-25T08:02:50Z</time></trkpt><trkpt lat="44.73125404822709" lon="9.803613218926499"><ele>816.0</ele><time>2026-04-25T08:02:51Z</time></trkpt><trkpt lat="44.73136561223778" lon="9.803528715393618"><ele>818.0</ele><time>2026-04-25T08:02:53Z</time></trkpt><trkpt lat="44.73143984203118" lon="9.80358996403984"><ele>820.0</ele><time>2026-04-25T08:02:54Z</time></trkpt><trkpt lat="44.73148485760963" lon="9.803734713172942"><ele>822.0</ele><time>2026-04-25T08:02:55Z</time></trkpt><trkpt lat="44.73146190052251" lon="9.80393447542666"><ele>822.0</ele><time>2026-04-25T08:02:56Z</time></trkpt><trkpt lat="44.73147570727453" lon="9.804153965827515"><ele>822.0</ele><time>2026-04-25T08:02:57Z</time></trkpt><trkpt lat="44.73148883230841" lon="9.804315841998925"><ele>822.0</ele><time>2026-04-25T08:02:58Z</time></trkpt><trkpt lat="44.731541606674185" lon="9.804415758871027"><ele>822.0</ele><time>2026-04-25T08:03:00Z</time></trkpt><trkpt lat="44.73160696444409" lon="9.804423716225436"><ele>822.0</ele><time>2026-04-25T08:03:02Z</time></trkpt><trkpt lat="44.731718592348265" lon="9.804360465161414"><ele>822.0</ele><time>2026-04-25T08:03:04Z</time></trkpt><trkpt lat="44.73179192835515" lon="9.804244507278622"><ele>822.0</ele><time>2026-04-25T08:03:05Z</time></trkpt><trkpt lat="44.73189173453075" lon="9.804067815907143"><ele>822.0</ele><time>2026-04-25T08:03:06Z</time></trkpt><trkpt lat="44.73199060578672" lon="9.803857247020998"><ele>825.6666666666667</ele><time>2026-04-25T08:03:07Z</time></trkpt><trkpt lat="44.732080346747864" lon="9.803617840748082"><ele>829.3333333333334</ele><time>2026-04-25T08:03:08Z</time></trkpt><trkpt lat="44.73215190732311" lon="9.803387822484318"><ele>833.0</ele><time>2026-04-25T08:03:09Z</time></trkpt><trkpt lat="44.73220370054867" lon="9.803194594820756"><ele>833.0</ele><time>2026-04-25T08:03:09.999Z</time></trkpt><trkpt lat="44.73221578439195" lon="9.803033060628653"><ele>833.0</ele><time>2026-04-25T08:03:10.999Z</time></trkpt><trkpt lat="44.73216797371488" lon="9.802873815925212"><ele>833.0</ele><time>2026-04-25T08:03:11.999Z</time></trkpt><trkpt lat="44.732096300593284" lon="9.8027147906904"><ele>833.0</ele><time>2026-04-25T08:03:12.999Z</time></trkpt><trkpt lat="44.73206488626855" lon="9.802605518803544"><ele>833.0</ele><time>2026-04-25T08:03:13.999Z</time></trkpt><trkpt lat="44.73218892605634" lon="9.802536066747107"><ele>833.0</ele><time>2026-04-25T08:03:15.999Z</time></trkpt><trkpt lat="44.732276430985024" lon="9.80261912096123"><ele>833.0</ele><time>2026-04-25T08:03:16.999Z</time></trkpt><trkpt lat="44.73236064922803" lon="9.80273824470424"><ele>833.0</ele><time>2026-04-25T08:03:17.999Z</time></trkpt><trkpt lat="44.73243869416523" lon="9.802784494109213"><ele>833.0</ele><time>2026-04-25T08:03:18.999Z</time></trkpt><trkpt lat="44.73251638012974" lon="9.802730550405213"><ele>832.75</ele><time>2026-04-25T08:03:19.999Z</time></trkpt><trkpt lat="44.732554200167826" lon="9.802588160494462"><ele>832.5</ele><time>2026-04-25T08:03:20.999Z</time></trkpt><trkpt lat="44.732575236966944" lon="9.802385827315792"><ele>832.25</ele><time>2026-04-25T08:03:21.999Z</time></trkpt><trkpt lat="44.732596931002874" lon="9.80218337067943"><ele>832.0</ele><time>2026-04-25T08:03:22.999Z</time></trkpt><trkpt lat="44.73262570810287" lon="9.801995544292486"><ele>832.0</ele><time>2026-04-25T08:03:23.999Z</time></trkpt><trkpt lat="44.732647236686844" lon="9.801878499524285"><ele>832.0</ele><time>2026-04-25T08:03:24.999Z</time></trkpt><trkpt lat="44.73262183188877" lon="9.80176366162082"><ele>832.0</ele><time>2026-04-25T08:03:26.999Z</time></trkpt><trkpt lat="44.73243866749271" lon="9.801676865503913"><ele>832.0</ele><time>2026-04-25T08:03:28.999Z</time></trkpt><trkpt lat="44.73230023890219" lon="9.801634357574288"><ele>833.5</ele><time>2026-04-25T08:03:29.999Z</time></trkpt><trkpt lat="44.7321923855289" lon="9.801601229937337"><ele>835.0</ele><time>2026-04-25T08:03:30.999Z</time></trkpt><trkpt lat="44.73207754185747" lon="9.801584384179096"><ele>836.5</ele><time>2026-04-25T08:03:31.999Z</time></trkpt><trkpt lat="44.73194958911916" lon="9.801539905848479"><ele>838.0</ele><time>2026-04-25T08:03:32.999Z</time></trkpt><trkpt lat="44.731831287636936" lon="9.801515884929508"><ele>840.3333333333333</ele><time>2026-04-25T08:03:33.999Z</time></trkpt><trkpt lat="44.73169079434205" lon="9.801555046395787"><ele>842.6666666666667</ele><time>2026-04-25T08:03:34.999Z</time></trkpt><trkpt lat="44.73150888284404" lon="9.801643639531111"><ele>845.0</ele><time>2026-04-25T08:03:35.999Z</time></trkpt><trkpt lat="44.731353780360536" lon="9.801723190491927"><ele>845.0</ele><time>2026-04-25T08:03:36.999Z</time></trkpt><trkpt lat="44.73122260391745" lon="9.801743729523665"><ele>845.0</ele><time>2026-04-25T08:03:37.999Z</time></trkpt><trkpt lat="44.731102946531976" lon="9.801678100430493"><ele>845.0</ele><time>2026-04-25T08:03:38.999Z</time></trkpt><trkpt lat="44.73096445619508" lon="9.801558604477284"><ele>845.0</ele><time>2026-04-25T08:03:39.999Z</time></trkpt><trkpt lat="44.730800603164425" lon="9.801453339788898"><ele>845.25</ele><time>2026-04-25T08:03:40.999Z</time></trkpt><trkpt lat="44.73064143943324" lon="9.801395418994256"><ele>845.5</ele><time>2026-04-25T08:03:41.999Z</time></trkpt><trkpt lat="44.73049883777027" lon="9.801398596826422"><ele>845.75</ele><time>2026-04-25T08:03:42.999Z</time></trkpt><trkpt lat="44.73038129393535" lon="9.80133957731094"><ele>846.0</ele><time>2026-04-25T08:03:43.999Z</time></trkpt><trkpt lat="44.730280543244255" lon="9.80121566077117"><ele>847.0</ele><time>2026-04-25T08:03:44.999Z</time></trkpt><trkpt lat="44.73021850430136" lon="9.801076295541165"><ele>848.0</ele><time>2026-04-25T08:03:45.999Z</time></trkpt><trkpt lat="44.730197078372576" lon="9.800941487998472"><ele>849.0</ele><time>2026-04-25T08:03:46.999Z</time></trkpt><trkpt lat="44.73021314020613" lon="9.800711672728577"><ele>850.0</ele><time>2026-04-25T08:03:47.999Z</time></trkpt><trkpt lat="44.73020939393473" lon="9.800472950029462"><ele>850.0</ele><time>2026-04-25T08:03:48.999Z</time></trkpt><trkpt lat="44.73014044423268" lon="9.800265814553994"><ele>850.0</ele><time>2026-04-25T08:03:49.999Z</time></trkpt><trkpt lat="44.730019557456046" lon="9.80008229114386"><ele>850.0</ele><time>2026-04-25T08:03:50.999Z</time></trkpt><trkpt lat="44.72986252419615" lon="9.799932729359577"><ele>854.6666666666666</ele><time>2026-04-25T08:03:51.999Z</time></trkpt><trkpt lat="44.72970843662521" lon="9.7998557045313"><ele>859.3333333333333</ele><time>2026-04-25T08:03:52.999Z</time></trkpt><trkpt lat="44.72956117271157" lon="9.799859057678171"><ele>864.0</ele><time>2026-04-25T08:03:53.999Z</time></trkpt><trkpt lat="44.72941631389731" lon="9.79994086912018"><ele>863.0</ele><time>2026-04-25T08:03:54.999Z</time></trkpt><trkpt lat="44.729281557833055" lon="9.800005644810913"><ele>862.0</ele><time>2026-04-25T08:03:55.999Z</time></trkpt><trkpt lat="44.72917017669903" lon="9.7999821801951"><ele>861.0</ele><time>2026-04-25T08:03:56.999Z</time></trkpt><trkpt lat="44.72905722680283" lon="9.799882563356327"><ele>860.0</ele><time>2026-04-25T08:03:57.999Z</time></trkpt><trkpt lat="44.72897326473412" lon="9.799715061744077"><ele>860.0</ele><time>2026-04-25T08:03:58.999Z</time></trkpt><trkpt lat="44.72888515501581" lon="9.799612734512385"><ele>860.0</ele><time>2026-04-25T08:03:59.999Z</time></trkpt><trkpt lat="44.72875989953715" lon="9.799615385440411"><ele>860.0</ele><time>2026-04-25T08:04:00.999Z</time></trkpt><trkpt lat="44.72860588335625" lon="9.79967258815594"><ele>860.0</ele><time>2026-04-25T08:04:01.999Z</time></trkpt><trkpt lat="44.72848316990335" lon="9.799831177287281"><ele>861.0</ele><time>2026-04-25T08:04:02.999Z</time></trkpt><trkpt lat="44.728383747039835" lon="9.800027176664898"><ele>862.0</ele><time>2026-04-25T08:04:03.999Z</time></trkpt><trkpt lat="44.728273882249724" lon="9.800222260047844"><ele>863.0</ele><time>2026-04-25T08:04:04.999Z</time></trkpt><trkpt lat="44.728144806969865" lon="9.800377109620166"><ele>865.0</ele><time>2026-04-25T08:04:06Z</time></trkpt><trkpt lat="44.72801673259824" lon="9.800515579756658"><ele>867.0</ele><time>2026-04-25T08:04:07Z</time></trkpt><trkpt lat="44.72786600184227" lon="9.80063030421408"><ele>869.0</ele><time>2026-04-25T08:04:08Z</time></trkpt><trkpt lat="44.72770501405359" lon="9.80075645613889"><ele>869.0</ele><time>2026-04-25T08:04:09Z</time></trkpt><trkpt lat="44.72753392337677" lon="9.800858903327107"><ele>869.0</ele><time>2026-04-25T08:04:10Z</time></trkpt><trkpt lat="44.727360685510476" lon="9.80092070575931"><ele>869.0</ele><time>2026-04-25T08:04:11Z</time></trkpt><trkpt lat="44.72718496310724" lon="9.800946652985669"><ele>869.0</ele><time>2026-04-25T08:04:12Z</time></trkpt><trkpt lat="44.72702617007171" lon="9.800944403723316"><ele>869.0</ele><time>2026-04-25T08:04:13Z</time></trkpt><trkpt lat="44.726888230293596" lon="9.800913884926539"><ele>869.0</ele><time>2026-04-25T08:04:14Z</time></trkpt><trkpt lat="44.72677872376028" lon="9.800853958301401"><ele>869.0</ele><time>2026-04-25T08:04:15Z</time></trkpt><trkpt lat="44.726677437492405" lon="9.800712538240589"><ele>867.0</ele><time>2026-04-25T08:04:16Z</time></trkpt><trkpt lat="44.72660477681856" lon="9.800512912137725"><ele>865.0</ele><time>2026-04-25T08:04:17Z</time></trkpt><trkpt lat="44.72655935857964" lon="9.800267574542533"><ele>863.0</ele><time>2026-04-25T08:04:18Z</time></trkpt><trkpt lat="44.726537682419554" lon="9.799992624409414"><ele>867.0</ele><time>2026-04-25T08:04:19Z</time></trkpt><trkpt lat="44.72653268738544" lon="9.79973257574751"><ele>871.0</ele><time>2026-04-25T08:04:20Z</time></trkpt><trkpt lat="44.72652162900618" lon="9.799459889894418"><ele>875.0</ele><time>2026-04-25T08:04:21Z</time></trkpt><trkpt lat="44.72650950437539" lon="9.799203956194813"><ele>877.3333333333334</ele><time>2026-04-25T08:04:22Z</time></trkpt><trkpt lat="44.72647327353497" lon="9.79899897401136"><ele>879.6666666666667</ele><time>2026-04-25T08:04:23Z</time></trkpt><trkpt lat="44.72638670865945" lon="9.79883991176789"><ele>882.0</ele><time>2026-04-25T08:04:24Z</time></trkpt><trkpt lat="44.72624666982305" lon="9.798729643619238"><ele>882.0</ele><time>2026-04-25T08:04:25Z</time></trkpt><trkpt lat="44.7260666185045" lon="9.798659086749025"><ele>882.0</ele><time>2026-04-25T08:04:26Z</time></trkpt><trkpt lat="44.72587902207542" lon="9.79861486180657"><ele>882.0</ele><time>2026-04-25T08:04:27Z</time></trkpt><trkpt lat="44.72571829062611" lon="9.79846549384311"><ele>882.6666666666667</ele><time>2026-04-25T08:04:28Z</time></trkpt><trkpt lat="44.72555244037102" lon="9.798303631428228"><ele>883.3333333333334</ele><time>2026-04-25T08:04:29Z</time></trkpt><trkpt lat="44.72539270658954" lon="9.798103042237527"><ele>884.0</ele><time>2026-04-25T08:04:30Z</time></trkpt><trkpt lat="44.72525155606101" lon="9.797899187988298"><ele>881.6666666666667</ele><time>2026-04-25T08:04:31Z</time></trkpt><trkpt lat="44.72512693146068" lon="9.797702419866495"><ele>879.3333333333333</ele><time>2026-04-25T08:04:32Z</time></trkpt><trkpt lat="44.72501425622399" lon="9.79748927570545"><ele>877.0</ele><time>2026-04-25T08:04:33Z</time></trkpt><trkpt lat="44.72491319817295" lon="9.797238104818343"><ele>877.0</ele><time>2026-04-25T08:04:34Z</time></trkpt><trkpt lat="44.724843199344804" lon="9.796975956890297"><ele>877.0</ele><time>2026-04-25T08:04:35Z</time></trkpt><trkpt lat="44.724760344880025" lon="9.796738610640025"><ele>877.0</ele><time>2026-04-25T08:04:36Z</time></trkpt><trkpt lat="44.724663037590176" lon="9.796526171176495"><ele>872.0</ele><time>2026-04-25T08:04:37Z</time></trkpt><trkpt lat="44.72453604564602" lon="9.796351530091405"><ele>867.0</ele><time>2026-04-25T08:04:38Z</time></trkpt><trkpt lat="44.724388588161226" lon="9.796211763327552"><ele>862.0</ele><time>2026-04-25T08:04:39Z</time></trkpt><trkpt lat="44.72424257465445" lon="9.796096276523466"><ele>867.3333333333333</ele><time>2026-04-25T08:04:40Z</time></trkpt><trkpt lat="44.724123730678606" lon="9.795919871990048"><ele>872.6666666666667</ele><time>2026-04-25T08:04:41Z</time></trkpt><trkpt lat="44.72405494606913" lon="9.795647317359407"><ele>878.0</ele><time>2026-04-25T08:04:42Z</time></trkpt><trkpt lat="44.723946901545986" lon="9.795418142520408"><ele>878.0</ele><time>2026-04-25T08:04:43Z</time></trkpt><trkpt lat="44.72383782193873" lon="9.79521085894385"><ele>878.0</ele><time>2026-04-25T08:04:44Z</time></trkpt><trkpt lat="44.72369804049622" lon="9.795033101331313"><ele>878.0</ele><time>2026-04-25T08:04:45Z</time></trkpt><trkpt lat="44.72353554912836" lon="9.794861870387356"><ele>874.6666666666667</ele><time>2026-04-25T08:04:46Z</time></trkpt><trkpt lat="44.72338169996494" lon="9.794702511133083"><ele>871.3333333333333</ele><time>2026-04-25T08:04:47Z</time></trkpt><trkpt lat="44.7232411866132" lon="9.79455810123023"><ele>868.0</ele><time>2026-04-25T08:04:48Z</time></trkpt><trkpt lat="44.72309231786544" lon="9.794451188003498"><ele>868.0</ele><time>2026-04-25T08:04:49Z</time></trkpt><trkpt lat="44.72293661478271" lon="9.79443676262073"><ele>868.0</ele><time>2026-04-25T08:04:50Z</time></trkpt><trkpt lat="44.72278743610336" lon="9.794521913667396"><ele>868.0</ele><time>2026-04-25T08:04:51Z</time></trkpt><trkpt lat="44.72264010392276" lon="9.794616571579573"><ele>866.0</ele><time>2026-04-25T08:04:52Z</time></trkpt><trkpt lat="44.722500850553125" lon="9.794551125948662"><ele>864.0</ele><time>2026-04-25T08:04:53Z</time></trkpt><trkpt lat="44.722342492824815" lon="9.794493715858232"><ele>862.0</ele><time>2026-04-25T08:04:54Z</time></trkpt><trkpt lat="44.72219480865712" lon="9.794445855036756"><ele>862.0</ele><time>2026-04-25T08:04:55Z</time></trkpt><trkpt lat="44.72204751612826" lon="9.79445630405111"><ele>862.0</ele><time>2026-04-25T08:04:56Z</time></trkpt><trkpt lat="44.721903811211824" lon="9.794576339202598"><ele>862.0</ele><time>2026-04-25T08:04:57Z</time></trkpt><trkpt lat="44.7217528889698" lon="9.794791289585095"><ele>863.0</ele><time>2026-04-25T08:04:58Z</time></trkpt><trkpt lat="44.721614593553255" lon="9.795002446158255"><ele>864.0</ele><time>2026-04-25T08:04:59Z</time></trkpt><trkpt lat="44.72147862348209" lon="9.795203220086503"><ele>865.0</ele><time>2026-04-25T08:05:00Z</time></trkpt><trkpt lat="44.721376801395074" lon="9.795404039345206"><ele>862.0</ele><time>2026-04-25T08:05:01Z</time></trkpt><trkpt lat="44.72131967781764" lon="9.795564728647461"><ele>859.0</ele><time>2026-04-25T08:05:02Z</time></trkpt><trkpt lat="44.721299691298725" lon="9.795726121111482"><ele>856.0</ele><time>2026-04-25T08:05:03Z</time></trkpt><trkpt lat="44.721323717736624" lon="9.795920840921708"><ele>853.0</ele><time>2026-04-25T08:05:04Z</time></trkpt><trkpt lat="44.721400395584766" lon="9.796105810143725"><ele>851.8</ele><time>2026-04-25T08:05:05Z</time></trkpt><trkpt lat="44.72146332247548" lon="9.796230201162349"><ele>850.5999999999999</ele><time>2026-04-25T08:05:06Z</time></trkpt><trkpt lat="44.721458216472676" lon="9.796352364908325"><ele>849.4000000000001</ele><time>2026-04-25T08:05:07Z</time></trkpt><trkpt lat="44.72135227569199" lon="9.796433574318819"><ele>848.2</ele><time>2026-04-25T08:05:08Z</time></trkpt><trkpt lat="44.72124291482668" lon="9.796484158360334"><ele>847.0</ele><time>2026-04-25T08:05:09Z</time></trkpt><trkpt lat="44.721128142236104" lon="9.796358602126578"><ele>845.6666666666666</ele><time>2026-04-25T08:05:10Z</time></trkpt><trkpt lat="44.72098215843988" lon="9.796223890423448"><ele>844.3333333333333</ele><time>2026-04-25T08:05:11Z</time></trkpt><trkpt lat="44.720830594135926" lon="9.796066271870076"><ele>843.0</ele><time>2026-04-25T08:05:12Z</time></trkpt><trkpt lat="44.72066517001415" lon="9.795960800965137"><ele>846.3333333333333</ele><time>2026-04-25T08:05:12.999Z</time></trkpt><trkpt lat="44.72049363230961" lon="9.795930007776644"><ele>849.6666666666666</ele><time>2026-04-25T08:05:13.999Z</time></trkpt><trkpt lat="44.72030697359976" lon="9.795943384181252"><ele>853.0</ele><time>2026-04-25T08:05:14.999Z</time></trkpt><trkpt lat="44.72018919503845" lon="9.795970550282908"><ele>853.0</ele><time>2026-04-25T08:05:15.999Z</time></trkpt><trkpt lat="44.71994553666575" lon="9.795995630416186"><ele>853.0</ele><time>2026-04-25T08:05:16.999Z</time></trkpt><trkpt lat="44.71980826466858" lon="9.796006416392345"><ele>853.0</ele><time>2026-04-25T08:05:17.999Z</time></trkpt><trkpt lat="44.71972237112503" lon="9.795981981135624"><ele>853.0</ele><time>2026-04-25T08:05:18.999Z</time></trkpt><trkpt lat="44.719707752556445" lon="9.795880655852766"><ele>853.0</ele><time>2026-04-25T08:05:19.999Z</time></trkpt><trkpt lat="44.7197325876016" lon="9.795750616647263"><ele>853.0</ele><time>2026-04-25T08:05:20.999Z</time></trkpt><trkpt lat="44.71970840408613" lon="9.795541428208445"><ele>853.0</ele><time>2026-04-25T08:05:21.999Z</time></trkpt><trkpt lat="44.7196328218816" lon="9.795369866884045"><ele>853.0</ele><time>2026-04-25T08:05:22.999Z</time></trkpt><trkpt lat="44.719528237135044" lon="9.795201139013983"><ele>853.0</ele><time>2026-04-25T08:05:23.999Z</time></trkpt><trkpt lat="44.71945220139951" lon="9.795016669153226"><ele>853.0</ele><time>2026-04-25T08:05:24.999Z</time></trkpt><trkpt lat="44.71937315841821" lon="9.794832325712605"><ele>851.75</ele><time>2026-04-25T08:05:25.999Z</time></trkpt><trkpt lat="44.7192987828348" lon="9.794658625623976"><ele>850.5</ele><time>2026-04-25T08:05:26.999Z</time></trkpt><trkpt lat="44.719211402747675" lon="9.794513921837485"><ele>849.25</ele><time>2026-04-25T08:05:27.999Z</time></trkpt><trkpt lat="44.719159878275406" lon="9.794355782196263"><ele>848.0</ele><time>2026-04-25T08:05:28.999Z</time></trkpt><trkpt lat="44.719128639712814" lon="9.79417623923762"><ele>848.0</ele><time>2026-04-25T08:05:29.999Z</time></trkpt><trkpt lat="44.71910476083092" lon="9.793987041110757"><ele>848.0</ele><time>2026-04-25T08:05:30.999Z</time></trkpt><trkpt lat="44.71905553861132" lon="9.793804971801299"><ele>848.0</ele><time>2026-04-25T08:05:31.999Z</time></trkpt><trkpt lat="44.719015435728785" lon="9.793612816486117"><ele>848.0</ele><time>2026-04-25T08:05:32.999Z</time></trkpt><trkpt lat="44.71895756553498" lon="9.79342220383718"><ele>850.25</ele><time>2026-04-25T08:05:33.999Z</time></trkpt><trkpt lat="44.718898184416844" lon="9.793247954984137"><ele>852.5</ele><time>2026-04-25T08:05:34.999Z</time></trkpt><trkpt lat="44.71882271136831" lon="9.79310984248482"><ele>854.75</ele><time>2026-04-25T08:05:35.999Z</time></trkpt><trkpt lat="44.71873790440854" lon="9.793001756516778"><ele>857.0</ele><time>2026-04-25T08:05:36.999Z</time></trkpt><trkpt lat="44.718658526783926" lon="9.792901596998238"><ele>857.0</ele><time>2026-04-25T08:05:37.999Z</time></trkpt><trkpt lat="44.718580292297865" lon="9.792813623224237"><ele>857.0</ele><time>2026-04-25T08:05:38.999Z</time></trkpt><trkpt lat="44.71850513962002" lon="9.792733951869852"><ele>857.0</ele><time>2026-04-25T08:05:39.999Z</time></trkpt><trkpt lat="44.718426933482675" lon="9.792666548837143"><ele>857.0</ele><time>2026-04-25T08:05:40.999Z</time></trkpt><trkpt lat="44.718347569672986" lon="9.792596654139572"><ele>857.0</ele><time>2026-04-25T08:05:41.999Z</time></trkpt><trkpt lat="44.71826531263508" lon="9.792531168532818"><ele>854.6</ele><time>2026-04-25T08:05:42.999Z</time></trkpt><trkpt lat="44.71817728690401" lon="9.792463714312452"><ele>852.2</ele><time>2026-04-25T08:05:43.999Z</time></trkpt><trkpt lat="44.718117053033076" lon="9.792334823472332"><ele>849.8</ele><time>2026-04-25T08:05:44.999Z</time></trkpt><trkpt lat="44.718059647178656" lon="9.79221269260928"><ele>847.4</ele><time>2026-04-25T08:05:45.999Z</time></trkpt><trkpt lat="44.71799978856693" lon="9.792090337438134"><ele>845.0</ele><time>2026-04-25T08:05:46.999Z</time></trkpt><trkpt lat="44.717939628451816" lon="9.791982122026603"><ele>845.0</ele><time>2026-04-25T08:05:47.999Z</time></trkpt><trkpt lat="44.7178751257072" lon="9.79187504124154"><ele>845.0</ele><time>2026-04-25T08:05:48.999Z</time></trkpt><trkpt lat="44.71780657492218" lon="9.791782975468495"><ele>845.0</ele><time>2026-04-25T08:05:49.999Z</time></trkpt><trkpt lat="44.717726112697626" lon="9.79173069799489"><ele>845.0</ele><time>2026-04-25T08:05:50.999Z</time></trkpt><trkpt lat="44.71765473044653" lon="9.791669753654062"><ele>845.0</ele><time>2026-04-25T08:05:51.999Z</time></trkpt><trkpt lat="44.717576561524" lon="9.791616837687982"><ele>843.6</ele><time>2026-04-25T08:05:52.999Z</time></trkpt><trkpt lat="44.71748487717553" lon="9.791570413790884"><ele>842.2</ele><time>2026-04-25T08:05:53.999Z</time></trkpt><trkpt lat="44.71737944284684" lon="9.791525669030108"><ele>840.8</ele><time>2026-04-25T08:05:54.999Z</time></trkpt><trkpt lat="44.717273492134076" lon="9.79147344675185"><ele>839.4</ele><time>2026-04-25T08:05:55.999Z</time></trkpt><trkpt lat="44.71718014819432" lon="9.791419673084896"><ele>838.0</ele><time>2026-04-25T08:05:56.999Z</time></trkpt><trkpt lat="44.71709923202129" lon="9.791348172557875"><ele>838.0</ele><time>2026-04-25T08:05:57.999Z</time></trkpt><trkpt lat="44.717018300389654" lon="9.791300904535102"><ele>838.0</ele><time>2026-04-25T08:05:58.999Z</time></trkpt><trkpt lat="44.71693466197646" lon="9.791284441158801"><ele>838.0</ele><time>2026-04-25T08:05:59.999Z</time></trkpt><trkpt lat="44.716843148335684" lon="9.791329915309525"><ele>838.0</ele><time>2026-04-25T08:06:00.999Z</time></trkpt><trkpt lat="44.716766553376495" lon="9.791433253156152"><ele>838.0</ele><time>2026-04-25T08:06:01.999Z</time></trkpt><trkpt lat="44.71670543530899" lon="9.791570065113453"><ele>836.8</ele><time>2026-04-25T08:06:02.999Z</time></trkpt><trkpt lat="44.71662918633345" lon="9.791649738742555"><ele>835.5999999999999</ele><time>2026-04-25T08:06:03.999Z</time></trkpt><trkpt lat="44.716542892936566" lon="9.791700941243768"><ele>834.4000000000001</ele><time>2026-04-25T08:06:04.999Z</time></trkpt><trkpt lat="44.716427851095396" lon="9.79172878310567"><ele>833.2</ele><time>2026-04-25T08:06:05.999Z</time></trkpt><trkpt lat="44.71632612887604" lon="9.791758854190297"><ele>832.0</ele><time>2026-04-25T08:06:06.999Z</time></trkpt><trkpt lat="44.71622804443033" lon="9.791785805662881"><ele>831.9999999999999</ele><time>2026-04-25T08:06:07.999Z</time></trkpt><trkpt lat="44.71613732092251" lon="9.791804426427468"><ele>832.0</ele><time>2026-04-25T08:06:08.999Z</time></trkpt><trkpt lat="44.716042542035844" lon="9.791818308658932"><ele>832.0</ele><time>2026-04-25T08:06:09.999Z</time></trkpt><trkpt lat="44.715956387146925" lon="9.791825082204623"><ele>832.0</ele><time>2026-04-25T08:06:10.999Z</time></trkpt><trkpt lat="44.71587510775754" lon="9.791823684082825"><ele>831.9999999999999</ele><time>2026-04-25T08:06:12Z</time></trkpt><trkpt lat="44.715789791952666" lon="9.791829489613477"><ele>832.0</ele><time>2026-04-25T08:06:13Z</time></trkpt><trkpt lat="44.715702598520274" lon="9.791801186935405"><ele>831.0</ele><time>2026-04-25T08:06:14Z</time></trkpt><trkpt lat="44.71559989084313" lon="9.791770937544554"><ele>830.0</ele><time>2026-04-25T08:06:15Z</time></trkpt><trkpt lat="44.71549715115082" lon="9.79173406959601"><ele>829.0</ele><time>2026-04-25T08:06:16Z</time></trkpt><trkpt lat="44.71540455457804" lon="9.791656125086297"><ele>828.0</ele><time>2026-04-25T08:06:17Z</time></trkpt><trkpt lat="44.715306560338945" lon="9.791578728780305"><ele>827.0</ele><time>2026-04-25T08:06:18Z</time></trkpt><trkpt lat="44.71520071964814" lon="9.79150292062395"><ele>821.75</ele><time>2026-04-25T08:06:19Z</time></trkpt><trkpt lat="44.71509965982091" lon="9.791410597410648"><ele>816.5</ele><time>2026-04-25T08:06:20Z</time></trkpt><trkpt lat="44.71499905730431" lon="9.791323889555263"><ele>811.25</ele><time>2026-04-25T08:06:21Z</time></trkpt><trkpt lat="44.714906033477156" lon="9.79123243235105"><ele>806.0</ele><time>2026-04-25T08:06:22Z</time></trkpt><trkpt lat="44.714823636951635" lon="9.791122680697208"><ele>809.5</ele><time>2026-04-25T08:06:23Z</time></trkpt><trkpt lat="44.71478377396212" lon="9.790957625328009"><ele>813.0</ele><time>2026-04-25T08:06:24Z</time></trkpt><trkpt lat="44.71474887665009" lon="9.790813452505517"><ele>816.5</ele><time>2026-04-25T08:06:25Z</time></trkpt><trkpt lat="44.714731126379796" lon="9.79066696719229"><ele>820.0</ele><time>2026-04-25T08:06:26Z</time></trkpt><trkpt lat="44.71475965389361" lon="9.790506382864757"><ele>820.0</ele><time>2026-04-25T08:06:27Z</time></trkpt><trkpt lat="44.714809191064774" lon="9.790341913282568"><ele>820.0</ele><time>2026-04-25T08:06:28Z</time></trkpt><trkpt lat="44.714859755718805" lon="9.790169343953849"><ele>820.0</ele><time>2026-04-25T08:06:29Z</time></trkpt><trkpt lat="44.71490531813774" lon="9.78998788128101"><ele>820.0</ele><time>2026-04-25T08:06:30Z</time></trkpt><trkpt lat="44.71495533943119" lon="9.789821733707756"><ele>819.75</ele><time>2026-04-25T08:06:31Z</time></trkpt><trkpt lat="44.71500915918685" lon="9.789652200320782"><ele>819.5</ele><time>2026-04-25T08:06:32Z</time></trkpt><trkpt lat="44.71504916991002" lon="9.789478653613951"><ele>819.25</ele><time>2026-04-25T08:06:33Z</time></trkpt><trkpt lat="44.71506204889555" lon="9.789300736510105"><ele>819.0</ele><time>2026-04-25T08:06:34Z</time></trkpt><trkpt lat="44.71504529307117" lon="9.789112999526985"><ele>819.0</ele><time>2026-04-25T08:06:35Z</time></trkpt><trkpt lat="44.71499468856767" lon="9.788918851723253"><ele>819.0</ele><time>2026-04-25T08:06:36Z</time></trkpt><trkpt lat="44.71491327563306" lon="9.788755268159429"><ele>819.0</ele><time>2026-04-25T08:06:37Z</time></trkpt><trkpt lat="44.71480982558029" lon="9.788637106291826"><ele>819.0</ele><time>2026-04-25T08:06:38Z</time></trkpt><trkpt lat="44.71470274886134" lon="9.78854630431198"><ele>821.2</ele><time>2026-04-25T08:06:39Z</time></trkpt><trkpt lat="44.71461302550118" lon="9.788467189092154"><ele>823.4000000000001</ele><time>2026-04-25T08:06:40Z</time></trkpt><trkpt lat="44.71451879834896" lon="9.788413692928671"><ele>825.6</ele><time>2026-04-25T08:06:41Z</time></trkpt><trkpt lat="44.714484898404685" lon="9.788280842526348"><ele>827.8</ele><time>2026-04-25T08:06:42Z</time></trkpt><trkpt lat="44.71446241505317" lon="9.788140870235848"><ele>830.0</ele><time>2026-04-25T08:06:43Z</time></trkpt><trkpt lat="44.71449141267299" lon="9.787970770056239"><ele>830.0</ele><time>2026-04-25T08:06:44Z</time></trkpt><trkpt lat="44.71457146383016" lon="9.78781714797415"><ele>830.0</ele><time>2026-04-25T08:06:45Z</time></trkpt><trkpt lat="44.71460499582279" lon="9.78762087913996"><ele>830.0</ele><time>2026-04-25T08:06:46Z</time></trkpt><trkpt lat="44.71461615284425" lon="9.787384268916323"><ele>830.0</ele><time>2026-04-25T08:06:47Z</time></trkpt><trkpt lat="44.71459189299083" lon="9.787134111820341"><ele>831.6666666666667</ele><time>2026-04-25T08:06:48Z</time></trkpt><trkpt lat="44.71453978855031" lon="9.786878321273903"><ele>833.3333333333333</ele><time>2026-04-25T08:06:49Z</time></trkpt><trkpt lat="44.714510158436475" lon="9.786626806943959"><ele>835.0</ele><time>2026-04-25T08:06:50Z</time></trkpt><trkpt lat="44.71447327572055" lon="9.786417413938706"><ele>835.0</ele><time>2026-04-25T08:06:51Z</time></trkpt><trkpt lat="44.71445516286624" lon="9.786270966001029"><ele>835.0</ele><time>2026-04-25T08:06:52Z</time></trkpt><trkpt lat="44.714470796177444" lon="9.786166517128326"><ele>835.0</ele><time>2026-04-25T08:06:53Z</time></trkpt><trkpt lat="44.71451977042573" lon="9.78604491869012"><ele>835.0</ele><time>2026-04-25T08:06:54Z</time></trkpt><trkpt lat="44.714655249487116" lon="9.785983100351293"><ele>835.0</ele><time>2026-04-25T08:06:55Z</time></trkpt><trkpt lat="44.71477978017855" lon="9.785839624442898"><ele>829.6666666666666</ele><time>2026-04-25T08:06:56Z</time></trkpt><trkpt lat="44.71487974767107" lon="9.78566110167067"><ele>824.3333333333333</ele><time>2026-04-25T08:06:57Z</time></trkpt><trkpt lat="44.714933682855175" lon="9.785433387575877"><ele>819.0</ele><time>2026-04-25T08:06:58Z</time></trkpt><trkpt lat="44.71496240501482" lon="9.78520318214057"><ele>816.6666666666667</ele><time>2026-04-25T08:06:59Z</time></trkpt><trkpt lat="44.71493153078805" lon="9.78497188307198"><ele>814.3333333333334</ele><time>2026-04-25T08:07:00Z</time></trkpt><trkpt lat="44.71484041725384" lon="9.784757572398838"><ele>812.0</ele><time>2026-04-25T08:07:01Z</time></trkpt><trkpt lat="44.714757258324745" lon="9.784535547797"><ele>813.3333333333334</ele><time>2026-04-25T08:07:02Z</time></trkpt><trkpt lat="44.714705526125144" lon="9.784325897838748"><ele>814.6666666666667</ele><time>2026-04-25T08:07:03Z</time></trkpt><trkpt lat="44.714702223905995" lon="9.784104950748254"><ele>816.0</ele><time>2026-04-25T08:07:04Z</time></trkpt><trkpt lat="44.71469837310659" lon="9.783855459899847"><ele>816.0</ele><time>2026-04-25T08:07:05Z</time></trkpt><trkpt lat="44.71470444804316" lon="9.78360742261286"><ele>816.0</ele><time>2026-04-25T08:07:06Z</time></trkpt><trkpt lat="44.71468533425173" lon="9.783364055815053"><ele>816.0</ele><time>2026-04-25T08:07:07Z</time></trkpt><trkpt lat="44.7146560234833" lon="9.783124242757799"><ele>817.6666666666667</ele><time>2026-04-25T08:07:08Z</time></trkpt><trkpt lat="44.71462301182948" lon="9.782891811349552"><ele>819.3333333333334</ele><time>2026-04-25T08:07:09Z</time></trkpt><trkpt lat="44.71457348866976" lon="9.78266024535042"><ele>821.0</ele><time>2026-04-25T08:07:10Z</time></trkpt><trkpt lat="44.71448723962897" lon="9.78245240321648"><ele>816.3333333333334</ele><time>2026-04-25T08:07:11Z</time></trkpt><trkpt lat="44.71438528095819" lon="9.7822660153972"><ele>811.6666666666667</ele><time>2026-04-25T08:07:12Z</time></trkpt><trkpt lat="44.714270191018" lon="9.782132262657116"><ele>807.0</ele><time>2026-04-25T08:07:13Z</time></trkpt><trkpt lat="44.7141296786617" lon="9.782077345409975"><ele>807.0</ele><time>2026-04-25T08:07:14Z</time></trkpt><trkpt lat="44.714021878137224" lon="9.781964083163993"><ele>807.0</ele><time>2026-04-25T08:07:15Z</time></trkpt><trkpt lat="44.713981996598235" lon="9.781862457834047"><ele>807.0</ele><time>2026-04-25T08:07:16Z</time></trkpt><trkpt lat="44.71396755212097" lon="9.78170643855363"><ele>807.0</ele><time>2026-04-25T08:07:17Z</time></trkpt><trkpt lat="44.71394469791349" lon="9.781492378748775"><ele>808.25</ele><time>2026-04-25T08:07:18Z</time></trkpt><trkpt lat="44.71391905675558" lon="9.78130999608694"><ele>809.5</ele><time>2026-04-25T08:07:19Z</time></trkpt><trkpt lat="44.713845610087056" lon="9.781155761794833"><ele>810.75</ele><time>2026-04-25T08:07:20Z</time></trkpt><trkpt lat="44.71371359646693" lon="9.781039246508637"><ele>812.0</ele><time>2026-04-25T08:07:20.999Z</time></trkpt><trkpt lat="44.71355384258059" lon="9.780972720048121"><ele>812.0</ele><time>2026-04-25T08:07:21.999Z</time></trkpt><trkpt lat="44.71341390933674" lon="9.780879451688405"><ele>812.0</ele><time>2026-04-25T08:07:22.999Z</time></trkpt><trkpt lat="44.7133055706215" lon="9.780754716316656"><ele>812.0</ele><time>2026-04-25T08:07:23.999Z</time></trkpt><trkpt lat="44.71326034131766" lon="9.780595438917981"><ele>812.0</ele><time>2026-04-25T08:07:24.999Z</time></trkpt><trkpt lat="44.71325870186396" lon="9.780401829067198"><ele>812.0</ele><time>2026-04-25T08:07:25.999Z</time></trkpt><trkpt lat="44.713225492667384" lon="9.780202904368794"><ele>812.0</ele><time>2026-04-25T08:07:26.999Z</time></trkpt><trkpt lat="44.71314678375248" lon="9.780027988403347"><ele>812.0</ele><time>2026-04-25T08:07:27.999Z</time></trkpt><trkpt lat="44.71302624142546" lon="9.779864598527372"><ele>812.75</ele><time>2026-04-25T08:07:28.999Z</time></trkpt><trkpt lat="44.7129626895657" lon="9.779693843164589"><ele>813.5</ele><time>2026-04-25T08:07:29.999Z</time></trkpt><trkpt lat="44.712941137008194" lon="9.77951662137584"><ele>814.25</ele><time>2026-04-25T08:07:30.999Z</time></trkpt><trkpt lat="44.71299455207448" lon="9.779377971801116"><ele>815.0</ele><time>2026-04-25T08:07:31.999Z</time></trkpt><trkpt lat="44.71304148441459" lon="9.779211381135879"><ele>815.6666666666667</ele><time>2026-04-25T08:07:32.999Z</time></trkpt><trkpt lat="44.713055363410405" lon="9.77903466911297"><ele>816.3333333333333</ele><time>2026-04-25T08:07:33.999Z</time></trkpt><trkpt lat="44.71299960988146" lon="9.778811679227854"><ele>817.0</ele><time>2026-04-25T08:07:34.999Z</time></trkpt><trkpt lat="44.71290577104358" lon="9.778593308001584"><ele>817.6666666666666</ele><time>2026-04-25T08:07:35.999Z</time></trkpt><trkpt lat="44.71279345138734" lon="9.778393889291184"><ele>818.3333333333333</ele><time>2026-04-25T08:07:36.999Z</time></trkpt><trkpt lat="44.71267811111627" lon="9.778199506460588"><ele>819.0</ele><time>2026-04-25T08:07:37.999Z</time></trkpt><trkpt lat="44.712589934907434" lon="9.77803032489107"><ele>824.3333333333333</ele><time>2026-04-25T08:07:38.999Z</time></trkpt><trkpt lat="44.71255649200179" lon="9.77783100683402"><ele>829.6666666666666</ele><time>2026-04-25T08:07:39.999Z</time></trkpt><trkpt lat="44.71254155725275" lon="9.777621542250333"><ele>835.0</ele><time>2026-04-25T08:07:40.999Z</time></trkpt><trkpt lat="44.712609619204684" lon="9.777396862599447"><ele>835.25</ele><time>2026-04-25T08:07:41.999Z</time></trkpt><trkpt lat="44.71269509197387" lon="9.777188729926118"><ele>835.5</ele><time>2026-04-25T08:07:42.999Z</time></trkpt><trkpt lat="44.71278656695974" lon="9.777014086014047"><ele>835.75</ele><time>2026-04-25T08:07:43.999Z</time></trkpt><trkpt lat="44.71285317061849" lon="9.776875127236456"><ele>836.0</ele><time>2026-04-25T08:07:44.999Z</time></trkpt><trkpt lat="44.7128718978803" lon="9.776710782651355"><ele>837.3333333333334</ele><time>2026-04-25T08:07:45.999Z</time></trkpt><trkpt lat="44.7128350593289" lon="9.77652020479549"><ele>838.6666666666667</ele><time>2026-04-25T08:07:46.999Z</time></trkpt><trkpt lat="44.71274714537255" lon="9.776328218816593"><ele>840.0</ele><time>2026-04-25T08:07:47.999Z</time></trkpt><trkpt lat="44.71261025009609" lon="9.776178111126802"><ele>840.0</ele><time>2026-04-25T08:07:48.999Z</time></trkpt><trkpt lat="44.7124760190803" lon="9.776062122778377"><ele>840.0</ele><time>2026-04-25T08:07:49.999Z</time></trkpt><trkpt lat="44.71236975244611" lon="9.775896628540238"><ele>840.0</ele><time>2026-04-25T08:07:50.999Z</time></trkpt><trkpt lat="44.71229247018523" lon="9.775699019929236"><ele>839.0</ele><time>2026-04-25T08:07:51.999Z</time></trkpt><trkpt lat="44.71219417882901" lon="9.775482088085385"><ele>838.0</ele><time>2026-04-25T08:07:52.999Z</time></trkpt><trkpt lat="44.712102933769394" lon="9.775270322721811"><ele>837.0</ele><time>2026-04-25T08:07:53.999Z</time></trkpt><trkpt lat="44.71198277175842" lon="9.77506867416273"><ele>844.0</ele><time>2026-04-25T08:07:54.999Z</time></trkpt><trkpt lat="44.711856728787374" lon="9.774864548055836"><ele>851.0</ele><time>2026-04-25T08:07:55.999Z</time></trkpt><trkpt lat="44.71174923905159" lon="9.774674708643685"><ele>858.0</ele><time>2026-04-25T08:07:56.999Z</time></trkpt><trkpt lat="44.71168173036657" lon="9.774458141734915"><ele>855.6666666666667</ele><time>2026-04-25T08:07:57.999Z</time></trkpt><trkpt lat="44.711614836463326" lon="9.77423829342541"><ele>853.3333333333334</ele><time>2026-04-25T08:07:58.999Z</time></trkpt><trkpt lat="44.71152885159863" lon="9.774020124446174"><ele>851.0</ele><time>2026-04-25T08:07:59.999Z</time></trkpt><trkpt lat="44.7114504365343" lon="9.773799316832912"><ele>851.0</ele><time>2026-04-25T08:08:00.999Z</time></trkpt><trkpt lat="44.711371558251514" lon="9.773615724982802"><ele>851.0</ele><time>2026-04-25T08:08:01.999Z</time></trkpt><trkpt lat="44.7113397059613" lon="9.773404744595268"><ele>851.0</ele><time>2026-04-25T08:08:02.999Z</time></trkpt><trkpt lat="44.711307416040405" lon="9.77322422077905"><ele>851.0</ele><time>2026-04-25T08:08:03.999Z</time></trkpt><trkpt lat="44.71130216027731" lon="9.773072143272897"><ele>851.6666666666667</ele><time>2026-04-25T08:08:04.999Z</time></trkpt><trkpt lat="44.71136326639505" lon="9.772924274037585"><ele>852.3333333333333</ele><time>2026-04-25T08:08:05.999Z</time></trkpt><trkpt lat="44.7114567730937" lon="9.7727231416212"><ele>853.0</ele><time>2026-04-25T08:08:06.999Z</time></trkpt><trkpt lat="44.711551524667776" lon="9.772516245334721"><ele>854.25</ele><time>2026-04-25T08:08:07.999Z</time></trkpt><trkpt lat="44.71162294232869" lon="9.772321254367842"><ele>855.5</ele><time>2026-04-25T08:08:08.999Z</time></trkpt><trkpt lat="44.71171768098479" lon="9.772160472394944"><ele>856.75</ele><time>2026-04-25T08:08:09.999Z</time></trkpt><trkpt lat="44.7118277918809" lon="9.772036175908669"><ele>858.0</ele><time>2026-04-25T08:08:10.999Z</time></trkpt><trkpt lat="44.71196252789957" lon="9.771924282395243"><ele>858.0</ele><time>2026-04-25T08:08:11.999Z</time></trkpt><trkpt lat="44.71209014225947" lon="9.771860916137127"><ele>858.0</ele><time>2026-04-25T08:08:12.999Z</time></trkpt><trkpt lat="44.71218385935128" lon="9.771775846844077"><ele>858.0</ele><time>2026-04-25T08:08:13.999Z</time></trkpt><trkpt lat="44.712232171359524" lon="9.771629368047444"><ele>858.0</ele><time>2026-04-25T08:08:14.999Z</time></trkpt><trkpt lat="44.712227373393766" lon="9.771420653527953"><ele>858.75</ele><time>2026-04-25T08:08:15.999Z</time></trkpt><trkpt lat="44.71221244046593" lon="9.771216748606534"><ele>859.5</ele><time>2026-04-25T08:08:16.999Z</time></trkpt><trkpt lat="44.71227144976267" lon="9.771011426911864"><ele>860.25</ele><time>2026-04-25T08:08:18Z</time></trkpt><trkpt lat="44.71229571628953" lon="9.770826419645054"><ele>861.0</ele><time>2026-04-25T08:08:19Z</time></trkpt><trkpt lat="44.71228500879703" lon="9.770674085270718"><ele>861.5</ele><time>2026-04-25T08:08:20Z</time></trkpt><trkpt lat="44.71221229492911" lon="9.770524790563472"><ele>862.0</ele><time>2026-04-25T08:08:21Z</time></trkpt><trkpt lat="44.7121111119667" lon="9.77039432078973"><ele>862.5</ele><time>2026-04-25T08:08:22Z</time></trkpt><trkpt lat="44.71206837569798" lon="9.770258941000266"><ele>863.0</ele><time>2026-04-25T08:08:23Z</time></trkpt><trkpt lat="44.712057396765275" lon="9.770122087478695"><ele>864.0</ele><time>2026-04-25T08:08:24Z</time></trkpt><trkpt lat="44.71216415164942" lon="9.770025320528084"><ele>865.0</ele><time>2026-04-25T08:08:25Z</time></trkpt><trkpt lat="44.71226250199654" lon="9.76988256785026"><ele>866.0</ele><time>2026-04-25T08:08:26Z</time></trkpt><trkpt lat="44.71235839749635" lon="9.769727102453224"><ele>867.0</ele><time>2026-04-25T08:08:27Z</time></trkpt><trkpt lat="44.712405235104924" lon="9.769585075857153"><ele>867.0</ele><time>2026-04-25T08:08:28Z</time></trkpt><trkpt lat="44.71238652598895" lon="9.769405262500973"><ele>867.0</ele><time>2026-04-25T08:08:29Z</time></trkpt><trkpt lat="44.712307763579965" lon="9.769232842897386"><ele>867.0</ele><time>2026-04-25T08:08:30Z</time></trkpt><trkpt lat="44.71220930018072" lon="9.769075081836213"><ele>867.0</ele><time>2026-04-25T08:08:31Z</time></trkpt><trkpt lat="44.71206152469654" lon="9.768957313972408"><ele>875.3333333333333</ele><time>2026-04-25T08:08:32Z</time></trkpt><trkpt lat="44.71187674651741" lon="9.76882769048276"><ele>883.6666666666666</ele><time>2026-04-25T08:08:33Z</time></trkpt><trkpt lat="44.7116883412486" lon="9.768697986698372"><ele>892.0</ele><time>2026-04-25T08:08:34Z</time></trkpt><trkpt lat="44.711488919745044" lon="9.768586969379767"><ele>894.0</ele><time>2026-04-25T08:08:35Z</time></trkpt><trkpt lat="44.71128600009303" lon="9.768518162936662"><ele>896.0</ele><time>2026-04-25T08:08:36Z</time></trkpt><trkpt lat="44.71111449945992" lon="9.768473000244025"><ele>898.0</ele><time>2026-04-25T08:08:37Z</time></trkpt><trkpt lat="44.711003178882684" lon="9.768385741045476"><ele>898.0</ele><time>2026-04-25T08:08:38Z</time></trkpt><trkpt lat="44.71092771402611" lon="9.768295912089606"><ele>898.0</ele><time>2026-04-25T08:08:39Z</time></trkpt><trkpt lat="44.71089874146615" lon="9.768181880698677"><ele>898.0</ele><time>2026-04-25T08:08:40Z</time></trkpt><trkpt lat="44.71093234542863" lon="9.768025939879251"><ele>898.0</ele><time>2026-04-25T08:08:41Z</time></trkpt><trkpt lat="44.71097137878264" lon="9.767816379492222"><ele>899.0</ele><time>2026-04-25T08:08:42Z</time></trkpt><trkpt lat="44.710991190190526" lon="9.767563066713576"><ele>900.0</ele><time>2026-04-25T08:08:43Z</time></trkpt><trkpt lat="44.71100223173305" lon="9.767313365536126"><ele>901.0</ele><time>2026-04-25T08:08:44Z</time></trkpt><trkpt lat="44.710980352765546" lon="9.767064692862911"><ele>901.0</ele><time>2026-04-25T08:08:45Z</time></trkpt><trkpt lat="44.710980382772114" lon="9.766871067200464"><ele>900.9999999999999</ele><time>2026-04-25T08:08:46Z</time></trkpt><trkpt lat="44.710956613385704" lon="9.766723296095881"><ele>900.9999999999999</ele><time>2026-04-25T08:08:47Z</time></trkpt><trkpt lat="44.71094116023663" lon="9.766612981261362"><ele>901.0</ele><time>2026-04-25T08:08:48Z</time></trkpt><trkpt lat="44.71093354464333" lon="9.766517435620877"><ele>901.0</ele><time>2026-04-25T08:08:49Z</time></trkpt><trkpt lat="44.71090841956458" lon="9.766412876650787"><ele>901.1666666666666</ele><time>2026-04-25T08:08:50Z</time></trkpt><trkpt lat="44.71088589397877" lon="9.766307635964754"><ele>901.3333333333333</ele><time>2026-04-25T08:08:51Z</time></trkpt><trkpt lat="44.71086699023897" lon="9.766193786224363"><ele>901.5</ele><time>2026-04-25T08:08:52Z</time></trkpt><trkpt lat="44.71085166506548" lon="9.76606842603111"><ele>901.6666666666667</ele><time>2026-04-25T08:08:53Z</time></trkpt><trkpt lat="44.71084089043643" lon="9.765941595202097"><ele>901.8333333333334</ele><time>2026-04-25T08:08:54Z</time></trkpt><trkpt lat="44.710839949702695" lon="9.765819421671653"><ele>902.0</ele><time>2026-04-25T08:08:55Z</time></trkpt><trkpt lat="44.710847989575655" lon="9.765699551702303"><ele>902.0000000000001</ele><time>2026-04-25T08:08:56Z</time></trkpt><trkpt lat="44.71084127765745" lon="9.765569783194277"><ele>902.0</ele><time>2026-04-25T08:08:57Z</time></trkpt><trkpt lat="44.7108629565743" lon="9.765450946691187"><ele>902.0</ele><time>2026-04-25T08:08:58Z</time></trkpt><trkpt lat="44.7108694525716" lon="9.76533054153045"><ele>902.0</ele><time>2026-04-25T08:08:59Z</time></trkpt><trkpt lat="44.710877659536955" lon="9.765215370698705"><ele>902.0000000000001</ele><time>2026-04-25T08:09:00Z</time></trkpt><trkpt lat="44.71086938074858" lon="9.76511060375514"><ele>902.0</ele><time>2026-04-25T08:09:01Z</time></trkpt><trkpt lat="44.71083772594452" lon="9.76493694208857"><ele>900.0</ele><time>2026-04-25T08:09:02Z</time></trkpt><trkpt lat="44.71078484403407" lon="9.764700907367613"><ele>898.0</ele><time>2026-04-25T08:09:03Z</time></trkpt><trkpt lat="44.710730453911886" lon="9.764471694772531"><ele>896.0</ele><time>2026-04-25T08:09:04Z</time></trkpt><trkpt lat="44.71067237337543" lon="9.764258548512204"><ele>893.8</ele><time>2026-04-25T08:09:05Z</time></trkpt><trkpt lat="44.71063206918489" lon="9.76410433235418"><ele>891.5999999999999</ele><time>2026-04-25T08:09:06Z</time></trkpt><trkpt lat="44.710585794098705" lon="9.763994764961295"><ele>889.4</ele><time>2026-04-25T08:09:07Z</time></trkpt><trkpt lat="44.71052034620818" lon="9.763930029861818"><ele>887.2</ele><time>2026-04-25T08:09:08Z</time></trkpt><trkpt lat="44.71042669119987" lon="9.763887664731136"><ele>885.0</ele><time>2026-04-25T08:09:09Z</time></trkpt><trkpt lat="44.71028718207439" lon="9.763977158469704"><ele>890.0</ele><time>2026-04-25T08:09:10Z</time></trkpt><trkpt lat="44.7101420155214" lon="9.764094687316756"><ele>895.0</ele><time>2026-04-25T08:09:11Z</time></trkpt><trkpt lat="44.7099916272232" lon="9.764191437794217"><ele>900.0</ele><time>2026-04-25T08:09:12Z</time></trkpt><trkpt lat="44.70989509188816" lon="9.764380349096996"><ele>905.5</ele><time>2026-04-25T08:09:13Z</time></trkpt><trkpt lat="44.70982060356708" lon="9.764582103520471"><ele>911.0</ele><time>2026-04-25T08:09:14Z</time></trkpt><trkpt lat="44.70972401346368" lon="9.76471638118275"><ele>916.5</ele><time>2026-04-25T08:09:15Z</time></trkpt><trkpt lat="44.7096265368918" lon="9.764816706577855"><ele>922.0</ele><time>2026-04-25T08:09:16Z</time></trkpt><trkpt lat="44.709545401643375" lon="9.76485777659442"><ele>922.0</ele><time>2026-04-25T08:09:17Z</time></trkpt><trkpt lat="44.70947578728796" lon="9.76485204473105"><ele>922.0</ele><time>2026-04-25T08:09:18Z</time></trkpt><trkpt lat="44.70940663254184" lon="9.76469152284194"><ele>922.0</ele><time>2026-04-25T08:09:19Z</time></trkpt><trkpt lat="44.70929644400323" lon="9.764501202881611"><ele>922.0</ele><time>2026-04-25T08:09:20Z</time></trkpt><trkpt lat="44.709194271629045" lon="9.764293244451071"><ele>917.3333333333333</ele><time>2026-04-25T08:09:21Z</time></trkpt><trkpt lat="44.709103950953114" lon="9.76405672990775"><ele>912.6666666666667</ele><time>2026-04-25T08:09:22Z</time></trkpt><trkpt lat="44.708993880678335" lon="9.763835099557383"><ele>908.0</ele><time>2026-04-25T08:09:23Z</time></trkpt><trkpt lat="44.708864797065495" lon="9.763635549912456"><ele>906.0</ele><time>2026-04-25T08:09:23.999Z</time></trkpt><trkpt lat="44.708752065083466" lon="9.763427194767232"><ele>904.0</ele><time>2026-04-25T08:09:24.999Z</time></trkpt><trkpt lat="44.7086584116797" lon="9.763212365081456"><ele>902.0</ele><time>2026-04-25T08:09:25.999Z</time></trkpt><trkpt lat="44.70857681437447" lon="9.762974230166291"><ele>905.0</ele><time>2026-04-25T08:09:26.999Z</time></trkpt><trkpt lat="44.70849424759169" lon="9.762733514629485"><ele>908.0</ele><time>2026-04-25T08:09:27.999Z</time></trkpt><trkpt lat="44.708456043352776" lon="9.762513058982595"><ele>911.0</ele><time>2026-04-25T08:09:28.999Z</time></trkpt><trkpt lat="44.70842535978791" lon="9.762305459743162"><ele>911.0</ele><time>2026-04-25T08:09:29.999Z</time></trkpt><trkpt lat="44.70841316491897" lon="9.762114024245335"><ele>911.0</ele><time>2026-04-25T08:09:30.999Z</time></trkpt><trkpt lat="44.70837069200945" lon="9.761963356927078"><ele>911.0</ele><time>2026-04-25T08:09:31.999Z</time></trkpt><trkpt lat="44.70827163674458" lon="9.761837825359486"><ele>911.0</ele><time>2026-04-25T08:09:32.999Z</time></trkpt><trkpt lat="44.70812752126192" lon="9.76175600748364"><ele>911.25</ele><time>2026-04-25T08:09:33.999Z</time></trkpt><trkpt lat="44.70794932113576" lon="9.761717983044305"><ele>911.5</ele><time>2026-04-25T08:09:34.999Z</time></trkpt><trkpt lat="44.70781766639499" lon="9.76164907510155"><ele>911.75</ele><time>2026-04-25T08:09:35.999Z</time></trkpt><trkpt lat="44.70772520442411" lon="9.761558241880147"><ele>912.0</ele><time>2026-04-25T08:09:36.999Z</time></trkpt><trkpt lat="44.70768492883571" lon="9.761416203288768"><ele>912.0</ele><time>2026-04-25T08:09:37.999Z</time></trkpt><trkpt lat="44.70768315148389" lon="9.76124668317981"><ele>912.0</ele><time>2026-04-25T08:09:38.999Z</time></trkpt><trkpt lat="44.707657776193145" lon="9.761051099241408"><ele>912.0</ele><time>2026-04-25T08:09:39.999Z</time></trkpt><trkpt lat="44.707587662323384" lon="9.760893548021667"><ele>912.0</ele><time>2026-04-25T08:09:40.999Z</time></trkpt><trkpt lat="44.70748135614857" lon="9.7607834242936"><ele>911.0</ele><time>2026-04-25T08:09:41.999Z</time></trkpt><trkpt lat="44.70734603628732" lon="9.760700211169688"><ele>910.0</ele><time>2026-04-25T08:09:42.999Z</time></trkpt><trkpt lat="44.707269440096844" lon="9.760600451521029"><ele>909.0</ele><time>2026-04-25T08:09:43.999Z</time></trkpt><trkpt lat="44.707259357373154" lon="9.760464739697813"><ele>908.0</ele><time>2026-04-25T08:09:44.999Z</time></trkpt><trkpt lat="44.7072697507474" lon="9.760289331451586"><ele>906.6666666666667</ele><time>2026-04-25T08:09:45.999Z</time></trkpt><trkpt lat="44.70728975404716" lon="9.76006180471732"><ele>905.3333333333333</ele><time>2026-04-25T08:09:46.999Z</time></trkpt><trkpt lat="44.707287243043496" lon="9.7598271752445"><ele>904.0</ele><time>2026-04-25T08:09:47.999Z</time></trkpt><trkpt lat="44.70726820971265" lon="9.759625122828881"><ele>904.0</ele><time>2026-04-25T08:09:48.999Z</time></trkpt><trkpt lat="44.70719325733421" lon="9.759417987960605"><ele>904.0</ele><time>2026-04-25T08:09:49.999Z</time></trkpt><trkpt lat="44.707077481046404" lon="9.759216202644604"><ele>904.0</ele><time>2026-04-25T08:09:50.999Z</time></trkpt><trkpt lat="44.70701480340342" lon="9.75897504167034"><ele>901.3333333333333</ele><time>2026-04-25T08:09:51.999Z</time></trkpt><trkpt lat="44.70696623936301" lon="9.758750081580661"><ele>898.6666666666667</ele><time>2026-04-25T08:09:52.999Z</time></trkpt><trkpt lat="44.7069012141297" lon="9.758538986166378"><ele>896.0</ele><time>2026-04-25T08:09:53.999Z</time></trkpt><trkpt lat="44.706815553628104" lon="9.758361416021954"><ele>901.3333333333334</ele><time>2026-04-25T08:09:54.999Z</time></trkpt><trkpt lat="44.7066853757962" lon="9.758202277382527"><ele>906.6666666666667</ele><time>2026-04-25T08:09:55.999Z</time></trkpt><trkpt lat="44.706540241467344" lon="9.758055904653247"><ele>912.0</ele><time>2026-04-25T08:09:56.999Z</time></trkpt><trkpt lat="44.70644007703244" lon="9.757868561801994"><ele>915.6666666666667</ele><time>2026-04-25T08:09:57.999Z</time></trkpt><trkpt lat="44.706328395297604" lon="9.757694311594257"><ele>919.3333333333334</ele><time>2026-04-25T08:09:58.999Z</time></trkpt><trkpt lat="44.706209120867754" lon="9.757553468973256"><ele>923.0</ele><time>2026-04-25T08:09:59.999Z</time></trkpt><trkpt lat="44.70607728206646" lon="9.757407864045925"><ele>923.0</ele><time>2026-04-25T08:10:00.999Z</time></trkpt><trkpt lat="44.7059564147915" lon="9.757248047168916"><ele>923.0</ele><time>2026-04-25T08:10:01.999Z</time></trkpt><trkpt lat="44.70587030352238" lon="9.75702614866129"><ele>923.0</ele><time>2026-04-25T08:10:02.999Z</time></trkpt><trkpt lat="44.7057759903786" lon="9.756816182501495"><ele>918.75</ele><time>2026-04-25T08:10:03.999Z</time></trkpt><trkpt lat="44.70568995947664" lon="9.756622134258272"><ele>914.5</ele><time>2026-04-25T08:10:04.999Z</time></trkpt><trkpt lat="44.70563153002137" lon="9.756424693138642"><ele>910.25</ele><time>2026-04-25T08:10:05.999Z</time></trkpt><trkpt lat="44.70562160161468" lon="9.756242265790075"><ele>906.0</ele><time>2026-04-25T08:10:06.999Z</time></trkpt><trkpt lat="44.70560219506394" lon="9.756070485262605"><ele>905.0</ele><time>2026-04-25T08:10:07.999Z</time></trkpt><trkpt lat="44.70557008631269" lon="9.755939806392304"><ele>904.0</ele><time>2026-04-25T08:10:08.999Z</time></trkpt><trkpt lat="44.70549708394987" lon="9.75583546181772"><ele>903.0</ele><time>2026-04-25T08:10:09.999Z</time></trkpt><trkpt lat="44.705347591445204" lon="9.755831283853263"><ele>902.0</ele><time>2026-04-25T08:10:10.999Z</time></trkpt><trkpt lat="44.70517506871265" lon="9.755864810088376"><ele>902.0</ele><time>2026-04-25T08:10:11.999Z</time></trkpt><trkpt lat="44.704991012368794" lon="9.755947038690403"><ele>902.0</ele><time>2026-04-25T08:10:12.999Z</time></trkpt><trkpt lat="44.704791441446524" lon="9.756034665131704"><ele>902.0</ele><time>2026-04-25T08:10:13.999Z</time></trkpt><trkpt lat="44.7046489657735" lon="9.756132540681625"><ele>909.5</ele><time>2026-04-25T08:10:14.999Z</time></trkpt><trkpt lat="44.70446988528287" lon="9.75619161037089"><ele>917.0</ele><time>2026-04-25T08:10:15.999Z</time></trkpt><trkpt lat="44.70419498364643" lon="9.756316803431869"><ele>917.0</ele><time>2026-04-25T08:10:16.999Z</time></trkpt><trkpt lat="44.7040010121455" lon="9.756385732724985"><ele>917.0</ele><time>2026-04-25T08:10:17.999Z</time></trkpt><trkpt lat="44.703796959122165" lon="9.756354548475564"><ele>917.0</ele><time>2026-04-25T08:10:18.999Z</time></trkpt><trkpt lat="44.70363042648512" lon="9.756242705338586"><ele>919.3333333333334</ele><time>2026-04-25T08:10:19.999Z</time></trkpt><trkpt lat="44.70349771962198" lon="9.756198258097363"><ele>921.6666666666667</ele><time>2026-04-25T08:10:20.999Z</time></trkpt><trkpt lat="44.70332450150682" lon="9.75612112458109"><ele>924.0</ele><time>2026-04-25T08:10:21.999Z</time></trkpt><trkpt lat="44.70312226205682" lon="9.756118671679022"><ele>924.0</ele><time>2026-04-25T08:10:22.999Z</time></trkpt><trkpt lat="44.70290396612168" lon="9.756169399076455"><ele>924.0</ele><time>2026-04-25T08:10:24Z</time></trkpt><trkpt lat="44.702713664548035" lon="9.756229157619387"><ele>924.0</ele><time>2026-04-25T08:10:25Z</time></trkpt><trkpt lat="44.702553934599855" lon="9.756315950112556"><ele>922.75</ele><time>2026-04-25T08:10:26Z</time></trkpt><trkpt lat="44.7024239046668" lon="9.756417964208513"><ele>921.5</ele><time>2026-04-25T08:10:27Z</time></trkpt><trkpt lat="44.702304869076926" lon="9.756488943055865"><ele>920.25</ele><time>2026-04-25T08:10:28Z</time></trkpt><trkpt lat="44.70220485918855" lon="9.756561491070226"><ele>919.0</ele><time>2026-04-25T08:10:29Z</time></trkpt><trkpt lat="44.70211297392572" lon="9.756630154621392"><ele>919.0</ele><time>2026-04-25T08:10:30Z</time></trkpt><trkpt lat="44.70202320065673" lon="9.756708215209743"><ele>919.0</ele><time>2026-04-25T08:10:31Z</time></trkpt><trkpt lat="44.701937132628856" lon="9.756803828661864"><ele>919.0</ele><time>2026-04-25T08:10:32Z</time></trkpt><trkpt lat="44.701884429558135" lon="9.756940886018674"><ele>919.0</ele><time>2026-04-25T08:10:33Z</time></trkpt><trkpt lat="44.70190305492763" lon="9.757166359866963"><ele>919.25</ele><time>2026-04-25T08:10:34Z</time></trkpt><trkpt lat="44.701880762949635" lon="9.757382971590781"><ele>919.5</ele><time>2026-04-25T08:10:35Z</time></trkpt><trkpt lat="44.70181544077513" lon="9.757547864415967"><ele>919.75</ele><time>2026-04-25T08:10:36Z</time></trkpt><trkpt lat="44.70170084045585" lon="9.757688850267087"><ele>920.0</ele><time>2026-04-25T08:10:37Z</time></trkpt><trkpt lat="44.70156376834122" lon="9.757885097310643"><ele>920.0</ele><time>2026-04-25T08:10:38Z</time></trkpt><trkpt lat="44.701438613659015" lon="9.758095931442995"><ele>920.0</ele><time>2026-04-25T08:10:39Z</time></trkpt><trkpt lat="44.701329701649314" lon="9.758264717321394"><ele>920.0</ele><time>2026-04-25T08:10:40Z</time></trkpt><trkpt lat="44.70127242899636" lon="9.758414983378668"><ele>922.5</ele><time>2026-04-25T08:10:41Z</time></trkpt><trkpt lat="44.70126432816453" lon="9.75858827061111"><ele>925.0</ele><time>2026-04-25T08:10:42Z</time></trkpt><trkpt lat="44.70129950416951" lon="9.758776433526833"><ele>927.5</ele><time>2026-04-25T08:10:43Z</time></trkpt><trkpt lat="44.7013386344536" lon="9.758949778512084"><ele>930.0</ele><time>2026-04-25T08:10:44Z</time></trkpt><trkpt lat="44.70130887026465" lon="9.759086301159993"><ele>930.0</ele><time>2026-04-25T08:10:45Z</time></trkpt><trkpt lat="44.70123586387543" lon="9.759174703312027"><ele>930.0</ele><time>2026-04-25T08:10:46Z</time></trkpt><trkpt lat="44.701141782228135" lon="9.759239590178014"><ele>930.0</ele><time>2026-04-25T08:10:47Z</time></trkpt><trkpt lat="44.701050292230306" lon="9.759357119843184"><ele>930.0</ele><time>2026-04-25T08:10:48Z</time></trkpt><trkpt lat="44.700969946699" lon="9.759484624410197"><ele>930.0</ele><time>2026-04-25T08:10:49Z</time></trkpt><trkpt lat="44.700940835056926" lon="9.75967222790346"><ele>931.0</ele><time>2026-04-25T08:10:50Z</time></trkpt><trkpt lat="44.70094530621704" lon="9.759896218355573"><ele>932.0</ele><time>2026-04-25T08:10:51Z</time></trkpt><trkpt lat="44.700892185634466" lon="9.760085402656337"><ele>933.0</ele><time>2026-04-25T08:10:52Z</time></trkpt><trkpt lat="44.700809390508915" lon="9.760290832855082"><ele>933.0</ele><time>2026-04-25T08:10:53Z</time></trkpt><trkpt lat="44.700706309775946" lon="9.760481954759038"><ele>933.0</ele><time>2026-04-25T08:10:54Z</time></trkpt><trkpt lat="44.70059589676025" lon="9.760629493244588"><ele>933.0</ele><time>2026-04-25T08:10:55Z</time></trkpt><trkpt lat="44.700454095468444" lon="9.76076078001196"><ele>933.0</ele><time>2026-04-25T08:10:56Z</time></trkpt><trkpt lat="44.70031026695056" lon="9.760924766128756"><ele>933.0</ele><time>2026-04-25T08:10:57Z</time></trkpt><trkpt lat="44.70018062251409" lon="9.761071412447135"><ele>933.0</ele><time>2026-04-25T08:10:58Z</time></trkpt><trkpt lat="44.70010093017993" lon="9.761262243845083"><ele>932.75</ele><time>2026-04-25T08:10:59Z</time></trkpt><trkpt lat="44.7000572559657" lon="9.761489920805918"><ele>932.5</ele><time>2026-04-25T08:11:00Z</time></trkpt><trkpt lat="44.7000073494848" lon="9.761672735955157"><ele>932.25</ele><time>2026-04-25T08:11:01Z</time></trkpt><trkpt lat="44.69992908098585" lon="9.761817441862576"><ele>932.0</ele><time>2026-04-25T08:11:02Z</time></trkpt><trkpt lat="44.69982231040038" lon="9.761897043237157"><ele>935.0</ele><time>2026-04-25T08:11:03Z</time></trkpt><trkpt lat="44.699672683742925" lon="9.761934452682643"><ele>938.0</ele><time>2026-04-25T08:11:04Z</time></trkpt><trkpt lat="44.69949469388632" lon="9.761969562480335"><ele>941.0</ele><time>2026-04-25T08:11:05Z</time></trkpt><trkpt lat="44.69930805488263" lon="9.761925499577677"><ele>941.0</ele><time>2026-04-25T08:11:06Z</time></trkpt><trkpt lat="44.69913450321547" lon="9.761907363200615"><ele>941.0</ele><time>2026-04-25T08:11:07Z</time></trkpt><trkpt lat="44.69897329871631" lon="9.761943410122452"><ele>941.0</ele><time>2026-04-25T08:11:08Z</time></trkpt><trkpt lat="44.69882231300399" lon="9.762050986573652"><ele>941.0</ele><time>2026-04-25T08:11:09Z</time></trkpt><trkpt lat="44.69866858783618" lon="9.762227492674137"><ele>941.0</ele><time>2026-04-25T08:11:10Z</time></trkpt><trkpt lat="44.69852637816853" lon="9.762415340185521"><ele>941.0</ele><time>2026-04-25T08:11:11Z</time></trkpt><trkpt lat="44.69834436338157" lon="9.762529521243145"><ele>942.0</ele><time>2026-04-25T08:11:12Z</time></trkpt><trkpt lat="44.69819122515285" lon="9.762669080359947"><ele>943.0</ele><time>2026-04-25T08:11:13Z</time></trkpt><trkpt lat="44.698038087106376" lon="9.762833592565096"><ele>944.0</ele><time>2026-04-25T08:11:14Z</time></trkpt><trkpt lat="44.69790760510934" lon="9.763029601020936"><ele>944.0</ele><time>2026-04-25T08:11:15Z</time></trkpt><trkpt lat="44.69778723727346" lon="9.763224846094793"><ele>944.0</ele><time>2026-04-25T08:11:16Z</time></trkpt><trkpt lat="44.69764577190788" lon="9.763354215764869"><ele>944.0</ele><time>2026-04-25T08:11:17Z</time></trkpt><trkpt lat="44.697498327366255" lon="9.763458616614887"><ele>946.3333333333334</ele><time>2026-04-25T08:11:18Z</time></trkpt><trkpt lat="44.69731876759122" lon="9.763536623072758"><ele>948.6666666666667</ele><time>2026-04-25T08:11:19Z</time></trkpt><trkpt lat="44.69713697441269" lon="9.763616487481125"><ele>951.0</ele><time>2026-04-25T08:11:20Z</time></trkpt><trkpt lat="44.6969516809327" lon="9.763677949153736"><ele>953.5</ele><time>2026-04-25T08:11:21Z</time></trkpt><trkpt lat="44.696794124771415" lon="9.763698768354262"><ele>956.0</ele><time>2026-04-25T08:11:22Z</time></trkpt><trkpt lat="44.69667101041394" lon="9.763660063580646"><ele>958.5</ele><time>2026-04-25T08:11:23Z</time></trkpt><trkpt lat="44.69657933875469" lon="9.763550939907"><ele>961.0</ele><time>2026-04-25T08:11:24Z</time></trkpt><trkpt lat="44.69649701410328" lon="9.763405487206215"><ele>953.6666666666666</ele><time>2026-04-25T08:11:25Z</time></trkpt><trkpt lat="44.69641790874279" lon="9.76319404997424"><ele>946.3333333333333</ele><time>2026-04-25T08:11:26Z</time></trkpt><trkpt lat="44.69633416695972" lon="9.76296744394762"><ele>939.0</ele><time>2026-04-25T08:11:27Z</time></trkpt><trkpt lat="44.696263933902856" lon="9.762748574846748"><ele>941.3333333333333</ele><time>2026-04-25T08:11:28Z</time></trkpt><trkpt lat="44.69615293089277" lon="9.762576316624285"><ele>943.6666666666666</ele><time>2026-04-25T08:11:29Z</time></trkpt><trkpt lat="44.69601696032157" lon="9.762446446538142"><ele>946.0</ele><time>2026-04-25T08:11:30Z</time></trkpt><trkpt lat="44.69585793026787" lon="9.76233043450633"><ele>946.0</ele><time>2026-04-25T08:11:31Z</time></trkpt><trkpt lat="44.6956876349054" lon="9.762266919117348"><ele>946.0</ele><time>2026-04-25T08:11:31.999Z</time></trkpt><trkpt lat="44.695505138761234" lon="9.762195323689783"><ele>946.0</ele><time>2026-04-25T08:11:32.999Z</time></trkpt><trkpt lat="44.695320890729725" lon="9.762151485426417"><ele>950.3333333333333</ele><time>2026-04-25T08:11:33.999Z</time></trkpt><trkpt lat="44.69511655990153" lon="9.76214908441363"><ele>954.6666666666667</ele><time>2026-04-25T08:11:34.999Z</time></trkpt><trkpt lat="44.694925497603165" lon="9.762104169091169"><ele>959.0</ele><time>2026-04-25T08:11:35.999Z</time></trkpt><trkpt lat="44.694763824663255" lon="9.762041025203043"><ele>959.0</ele><time>2026-04-25T08:11:36.999Z</time></trkpt><trkpt lat="44.694642479535766" lon="9.761911621473827"><ele>959.0</ele><time>2026-04-25T08:11:37.999Z</time></trkpt><trkpt lat="44.69451707162917" lon="9.76175329015566"><ele>959.0</ele><time>2026-04-25T08:11:38.999Z</time></trkpt><trkpt lat="44.69439050961377" lon="9.761642576614497"><ele>960.6666666666667</ele><time>2026-04-25T08:11:39.999Z</time></trkpt><trkpt lat="44.69427532356447" lon="9.76156030247835"><ele>962.3333333333333</ele><time>2026-04-25T08:11:40.999Z</time></trkpt><trkpt lat="44.69412295776612" lon="9.761517926176143"><ele>964.0</ele><time>2026-04-25T08:11:41.999Z</time></trkpt><trkpt lat="44.69392783170929" lon="9.761455510150217"><ele>964.0</ele><time>2026-04-25T08:11:42.999Z</time></trkpt><trkpt lat="44.69376514036052" lon="9.761423113814185"><ele>964.0</ele><time>2026-04-25T08:11:43.999Z</time></trkpt><trkpt lat="44.693656166614666" lon="9.761375344372297"><ele>964.0</ele><time>2026-04-25T08:11:44.999Z</time></trkpt><trkpt lat="44.693566141705254" lon="9.761299160966516"><ele>964.0</ele><time>2026-04-25T08:11:45.999Z</time></trkpt><trkpt lat="44.69346703793053" lon="9.761210516407523"><ele>964.0</ele><time>2026-04-25T08:11:46.999Z</time></trkpt><trkpt lat="44.69335489888418" lon="9.761054850702486"><ele>964.0</ele><time>2026-04-25T08:11:47.999Z</time></trkpt><trkpt lat="44.69324285545965" lon="9.760851129065916"><ele>964.0</ele><time>2026-04-25T08:11:48.999Z</time></trkpt><trkpt lat="44.69312059835288" lon="9.760632827327681"><ele>964.0</ele><time>2026-04-25T08:11:49.999Z</time></trkpt><trkpt lat="44.6930193653885" lon="9.760403528026256"><ele>964.0</ele><time>2026-04-25T08:11:50.999Z</time></trkpt><trkpt lat="44.692927510439674" lon="9.76021409452034"><ele>964.0</ele><time>2026-04-25T08:11:51.999Z</time></trkpt><trkpt lat="44.692868261510995" lon="9.76001678606882"><ele>959.6666666666666</ele><time>2026-04-25T08:11:52.999Z</time></trkpt><trkpt lat="44.69287599725376" lon="9.759786931490742"><ele>955.3333333333333</ele><time>2026-04-25T08:11:53.999Z</time></trkpt><trkpt lat="44.69287548753331" lon="9.759548707962798"><ele>951.0</ele><time>2026-04-25T08:11:54.999Z</time></trkpt><trkpt lat="44.69285612676885" lon="9.75933867675725"><ele>951.0</ele><time>2026-04-25T08:11:55.999Z</time></trkpt><trkpt lat="44.692806288183085" lon="9.759147848827931"><ele>951.0</ele><time>2026-04-25T08:11:56.999Z</time></trkpt><trkpt lat="44.69271338659913" lon="9.758939156480825"><ele>951.0</ele><time>2026-04-25T08:11:57.999Z</time></trkpt><trkpt lat="44.69262703085312" lon="9.758777549558157"><ele>956.75</ele><time>2026-04-25T08:11:58.999Z</time></trkpt><trkpt lat="44.69253046424302" lon="9.75865635430932"><ele>962.5</ele><time>2026-04-25T08:11:59.999Z</time></trkpt><trkpt lat="44.69239818038837" lon="9.758605862215411"><ele>968.25</ele><time>2026-04-25T08:12:00.999Z</time></trkpt><trkpt lat="44.69226480886091" lon="9.758631688306057"><ele>974.0</ele><time>2026-04-25T08:12:01.999Z</time></trkpt><trkpt lat="44.69213975151641" lon="9.758708298987434"><ele>974.0</ele><time>2026-04-25T08:12:02.999Z</time></trkpt><trkpt lat="44.69199716237265" lon="9.758800984519585"><ele>974.0</ele><time>2026-04-25T08:12:03.999Z</time></trkpt><trkpt lat="44.69183758547132" lon="9.758882805213943"><ele>974.0</ele><time>2026-04-25T08:12:04.999Z</time></trkpt><trkpt lat="44.69166197006547" lon="9.758921480135367"><ele>975.25</ele><time>2026-04-25T08:12:05.999Z</time></trkpt><trkpt lat="44.691483106497444" lon="9.758961004001009"><ele>976.5</ele><time>2026-04-25T08:12:06.999Z</time></trkpt><trkpt lat="44.69135196805913" lon="9.75896179756523"><ele>977.75</ele><time>2026-04-25T08:12:07.999Z</time></trkpt><trkpt lat="44.69124677218242" lon="9.75892755800729"><ele>979.0</ele><time>2026-04-25T08:12:08.999Z</time></trkpt><trkpt lat="44.69112782482425" lon="9.758848747995671"><ele>977.6666666666666</ele><time>2026-04-25T08:12:09.999Z</time></trkpt><trkpt lat="44.69097581365976" lon="9.758717305369665"><ele>976.3333333333333</ele><time>2026-04-25T08:12:10.999Z</time></trkpt><trkpt lat="44.690798907024345" lon="9.758591557050915"><ele>975.0</ele><time>2026-04-25T08:12:11.999Z</time></trkpt><trkpt lat="44.69059732023322" lon="9.758513573300915"><ele>975.0</ele><time>2026-04-25T08:12:12.999Z</time></trkpt><trkpt lat="44.69039444323373" lon="9.75838846754669"><ele>975.0</ele><time>2026-04-25T08:12:13.999Z</time></trkpt><trkpt lat="44.69019734059357" lon="9.758269438549913"><ele>975.0</ele><time>2026-04-25T08:12:14.999Z</time></trkpt><trkpt lat="44.690024128647785" lon="9.758161321575475"><ele>974.75</ele><time>2026-04-25T08:12:15.999Z</time></trkpt><trkpt lat="44.68987637414491" lon="9.758068570375217"><ele>974.5</ele><time>2026-04-25T08:12:16.999Z</time></trkpt><trkpt lat="44.68979991356163" lon="9.75796027476778"><ele>974.25</ele><time>2026-04-25T08:12:17.999Z</time></trkpt><trkpt lat="44.6897708317805" lon="9.757826715531941"><ele>974.0</ele><time>2026-04-25T08:12:18.999Z</time></trkpt><trkpt lat="44.689786449210416" lon="9.757666517811433"><ele>974.0</ele><time>2026-04-25T08:12:19.999Z</time></trkpt><trkpt lat="44.68981015428242" lon="9.757478027848784"><ele>974.0</ele><time>2026-04-25T08:12:20.999Z</time></trkpt><trkpt lat="44.68981772680276" lon="9.757319715910427"><ele>974.0</ele><time>2026-04-25T08:12:21.999Z</time></trkpt><trkpt lat="44.689777029015566" lon="9.757158376738987"><ele>974.0</ele><time>2026-04-25T08:12:22.999Z</time></trkpt><trkpt lat="44.689676735773475" lon="9.757003249616814"><ele>974.0</ele><time>2026-04-25T08:12:23.999Z</time></trkpt><trkpt lat="44.68951203626787" lon="9.756864665690083"><ele>974.0</ele><time>2026-04-25T08:12:24.999Z</time></trkpt><trkpt lat="44.68935499112336" lon="9.756730624467707"><ele>974.0</ele><time>2026-04-25T08:12:25.999Z</time></trkpt><trkpt lat="44.68921668518293" lon="9.756687561993024"><ele>974.0</ele><time>2026-04-25T08:12:26.999Z</time></trkpt><trkpt lat="44.68908089908101" lon="9.75669125379255"><ele>974.0</ele><time>2026-04-25T08:12:27.999Z</time></trkpt><trkpt lat="44.688942470320306" lon="9.756775877125115"><ele>974.0</ele><time>2026-04-25T08:12:28.999Z</time></trkpt><trkpt lat="44.68880056798121" lon="9.756840311365586"><ele>974.0</ele><time>2026-04-25T08:12:30Z</time></trkpt><trkpt lat="44.68868627148692" lon="9.75685969895451"><ele>976.25</ele><time>2026-04-25T08:12:31Z</time></trkpt><trkpt lat="44.688582722148595" lon="9.756839150789284"><ele>978.5</ele><time>2026-04-25T08:12:32Z</time></trkpt><trkpt lat="44.68845391637084" lon="9.756802411815451"><ele>980.75</ele><time>2026-04-25T08:12:33Z</time></trkpt><trkpt lat="44.6882987804515" lon="9.75673091915304"><ele>983.0</ele><time>2026-04-25T08:12:34Z</time></trkpt><trkpt lat="44.68812382896932" lon="9.756644775361906"><ele>983.0</ele><time>2026-04-25T08:12:35Z</time></trkpt><trkpt lat="44.687958127728635" lon="9.756559751563875"><ele>983.0</ele><time>2026-04-25T08:12:36Z</time></trkpt><trkpt lat="44.68779902711011" lon="9.75647723196887"><ele>983.0</ele><time>2026-04-25T08:12:37Z</time></trkpt><trkpt lat="44.68768879637428" lon="9.756345714773326"><ele>983.6666666666667</ele><time>2026-04-25T08:12:38Z</time></trkpt><trkpt lat="44.6875880572682" lon="9.756168971812585"><ele>984.3333333333333</ele><time>2026-04-25T08:12:39Z</time></trkpt><trkpt lat="44.68747938339831" lon="9.755961852556505"><ele>985.0</ele><time>2026-04-25T08:12:40Z</time></trkpt><trkpt lat="44.68737492801499" lon="9.755765398486732"><ele>985.0</ele><time>2026-04-25T08:12:41Z</time></trkpt><trkpt lat="44.68727758715764" lon="9.75559436055574"><ele>985.0</ele><time>2026-04-25T08:12:42Z</time></trkpt><trkpt lat="44.68714858131277" lon="9.755498512766035"><ele>985.0</ele><time>2026-04-25T08:12:43Z</time></trkpt><trkpt lat="44.68700394305293" lon="9.755429008731973"><ele>992.0</ele><time>2026-04-25T08:12:44Z</time></trkpt><trkpt lat="44.68682625955383" lon="9.755416369700164"><ele>999.0</ele><time>2026-04-25T08:12:45Z</time></trkpt><trkpt lat="44.68662790029198" lon="9.755362009801342"><ele>1006.0</ele><time>2026-04-25T08:12:46Z</time></trkpt><trkpt lat="44.686452167957" lon="9.75532244505426"><ele>1006.0</ele><time>2026-04-25T08:12:47Z</time></trkpt><trkpt lat="44.6862862578594" lon="9.755308693220588"><ele>1006.0</ele><time>2026-04-25T08:12:48Z</time></trkpt><trkpt lat="44.6861145926427" lon="9.755306267235607"><ele>1006.0</ele><time>2026-04-25T08:12:49Z</time></trkpt><trkpt lat="44.68598940285087" lon="9.75528709993992"><ele>1007.0</ele><time>2026-04-25T08:12:50Z</time></trkpt><trkpt lat="44.6858998911712" lon="9.755242553269452"><ele>1007.9999999999999</ele><time>2026-04-25T08:12:51Z</time></trkpt><trkpt lat="44.685871358444636" lon="9.75514548116309"><ele>1008.9999999999999</ele><time>2026-04-25T08:12:52Z</time></trkpt><trkpt lat="44.68584840992403" lon="9.755013129959645"><ele>1010.0</ele><time>2026-04-25T08:12:53Z</time></trkpt><trkpt lat="44.6858821268053" lon="9.754837345501908"><ele>1011.0</ele><time>2026-04-25T08:12:54Z</time></trkpt><trkpt lat="44.68597083084698" lon="9.754627903115402"><ele>1007.3333333333333</ele><time>2026-04-25T08:12:55Z</time></trkpt><trkpt lat="44.686027263024805" lon="9.754413284358392"><ele>1003.6666666666666</ele><time>2026-04-25T08:12:56Z</time></trkpt><trkpt lat="44.68602741055115" lon="9.754169213395524"><ele>1000.0</ele><time>2026-04-25T08:12:57Z</time></trkpt><trkpt lat="44.68599645526771" lon="9.753959613577218"><ele>998.6666666666666</ele><time>2026-04-25T08:12:58Z</time></trkpt><trkpt lat="44.68593247760857" lon="9.75378091713074"><ele>997.3333333333333</ele><time>2026-04-25T08:12:59Z</time></trkpt><trkpt lat="44.685822164345694" lon="9.753625384082484"><ele>996.0</ele><time>2026-04-25T08:13:00Z</time></trkpt><trkpt lat="44.68574269955841" lon="9.753433772282085"><ele>991.5</ele><time>2026-04-25T08:13:01Z</time></trkpt><trkpt lat="44.68571691288313" lon="9.753237854453266"><ele>987.0</ele><time>2026-04-25T08:13:02Z</time></trkpt><trkpt lat="44.68568150390683" lon="9.753052195646402"><ele>982.5</ele><time>2026-04-25T08:13:03Z</time></trkpt><trkpt lat="44.68562032907533" lon="9.752901076161711"><ele>978.0</ele><time>2026-04-25T08:13:04Z</time></trkpt><trkpt lat="44.68546858428599" lon="9.752813416729934"><ele>978.0</ele><time>2026-04-25T08:13:05Z</time></trkpt><trkpt lat="44.68530063689778" lon="9.752723964238953"><ele>978.0</ele><time>2026-04-25T08:13:06Z</time></trkpt><trkpt lat="44.68513110245114" lon="9.752600187374462"><ele>978.0</ele><time>2026-04-25T08:13:07Z</time></trkpt><trkpt lat="44.68495431609218" lon="9.752463832993632"><ele>981.6666666666667</ele><time>2026-04-25T08:13:08Z</time></trkpt><trkpt lat="44.684794557390155" lon="9.752304816587577"><ele>985.3333333333334</ele><time>2026-04-25T08:13:09Z</time></trkpt><trkpt lat="44.68465751495598" lon="9.752140269301417"><ele>989.0</ele><time>2026-04-25T08:13:10Z</time></trkpt><trkpt lat="44.68452153045561" lon="9.752031934607876"><ele>997.6666666666667</ele><time>2026-04-25T08:13:11Z</time></trkpt><trkpt lat="44.684353213979215" lon="9.75199579904007"><ele>1006.3333333333333</ele><time>2026-04-25T08:13:12Z</time></trkpt><trkpt lat="44.684161027240954" lon="9.751959235675319"><ele>1015.0</ele><time>2026-04-25T08:13:13Z</time></trkpt><trkpt lat="44.68398673704798" lon="9.751924287290683"><ele>1015.0</ele><time>2026-04-25T08:13:14Z</time></trkpt><trkpt lat="44.683853380223475" lon="9.751886317984765"><ele>1015.0</ele><time>2026-04-25T08:13:15Z</time></trkpt><trkpt lat="44.68377289108296" lon="9.751842157878215"><ele>1015.0</ele><time>2026-04-25T08:13:16Z</time></trkpt><trkpt lat="44.68372629229263" lon="9.75173989836091"><ele>1015.0</ele><time>2026-04-25T08:13:17Z</time></trkpt><trkpt lat="44.68370410908366" lon="9.751595667453225"><ele>1015.0</ele><time>2026-04-25T08:13:18Z</time></trkpt><trkpt lat="44.68370162282155" lon="9.751402005635812"><ele>1005.3333333333333</ele><time>2026-04-25T08:13:19Z</time></trkpt><trkpt lat="44.68371413001408" lon="9.751158308139361"><ele>995.6666666666667</ele><time>2026-04-25T08:13:20Z</time></trkpt><trkpt lat="44.683758080031474" lon="9.750958585948034"><ele>986.0</ele><time>2026-04-25T08:13:21Z</time></trkpt><trkpt lat="44.68379764129185" lon="9.750780195467213"><ele>985.0</ele><time>2026-04-25T08:13:22Z</time></trkpt><trkpt lat="44.68377698846343" lon="9.750640401070115"><ele>984.0</ele><time>2026-04-25T08:13:23Z</time></trkpt><trkpt lat="44.68371046663668" lon="9.750519028031844"><ele>983.0</ele><time>2026-04-25T08:13:24Z</time></trkpt><trkpt lat="44.683605920614895" lon="9.750412536268488"><ele>982.0</ele><time>2026-04-25T08:13:25Z</time></trkpt><trkpt lat="44.68348597517407" lon="9.75031413216847"><ele>989.6666666666666</ele><time>2026-04-25T08:13:26Z</time></trkpt><trkpt lat="44.68335589622756" lon="9.750187380092017"><ele>997.3333333333333</ele><time>2026-04-25T08:13:27Z</time></trkpt><trkpt lat="44.68322470455621" lon="9.750004076746162"><ele>1005.0</ele><time>2026-04-25T08:13:28Z</time></trkpt><trkpt lat="44.68309358414927" lon="9.749791453859467"><ele>1005.0</ele><time>2026-04-25T08:13:29Z</time></trkpt><trkpt lat="44.68297761280223" lon="9.749578202589891"><ele>1005.0</ele><time>2026-04-25T08:13:30Z</time></trkpt><trkpt lat="44.682875039120766" lon="9.749351806639817"><ele>1005.0</ele><time>2026-04-25T08:13:31Z</time></trkpt><trkpt lat="44.682800000614236" lon="9.749105398140767"><ele>1007.3333333333333</ele><time>2026-04-25T08:13:32Z</time></trkpt><trkpt lat="44.68274206760712" lon="9.748846237156018"><ele>1009.6666666666666</ele><time>2026-04-25T08:13:33Z</time></trkpt><trkpt lat="44.68271871591446" lon="9.748600452282195"><ele>1012.0</ele><time>2026-04-25T08:13:34Z</time></trkpt><trkpt lat="44.6826872440811" lon="9.748384743611025"><ele>1012.0</ele><time>2026-04-25T08:13:35Z</time></trkpt><trkpt lat="44.6826400955566" lon="9.748182110812136"><ele>1012.0</ele><time>2026-04-25T08:13:35.999Z</time></trkpt><trkpt lat="44.682535776036225" lon="9.748003723201128"><ele>1012.0</ele><time>2026-04-25T08:13:36.999Z</time></trkpt><trkpt lat="44.68236359168775" lon="9.747825899301347"><ele>1007.0</ele><time>2026-04-25T08:13:37.999Z</time></trkpt><trkpt lat="44.68219565229325" lon="9.747615565896982"><ele>1002.0</ele><time>2026-04-25T08:13:38.999Z</time></trkpt><trkpt lat="44.682019702280186" lon="9.747415283469827"><ele>1007.6666666666667</ele><time>2026-04-25T08:13:39.999Z</time></trkpt><trkpt lat="44.681873963956235" lon="9.74723729272614"><ele>1013.3333333333334</ele><time>2026-04-25T08:13:40.999Z</time></trkpt><trkpt lat="44.68176971136549" lon="9.747056402640254"><ele>1019.0</ele><time>2026-04-25T08:13:41.999Z</time></trkpt><trkpt lat="44.6816761253771" lon="9.746844851794696"><ele>1019.0</ele><time>2026-04-25T08:13:42.999Z</time></trkpt><trkpt lat="44.68157642374286" lon="9.746627097331672"><ele>1019.0</ele><time>2026-04-25T08:13:43.999Z</time></trkpt><trkpt lat="44.68147061051886" lon="9.746465941073874"><ele>1019.0</ele><time>2026-04-25T08:13:44.999Z</time></trkpt><trkpt lat="44.681334317837575" lon="9.74635588917614"><ele>1019.0</ele><time>2026-04-25T08:13:45.999Z</time></trkpt><trkpt lat="44.681145681499714" lon="9.746257933724356"><ele>1019.0</ele><time>2026-04-25T08:13:46.999Z</time></trkpt><trkpt lat="44.68095841246942" lon="9.746152131924747"><ele>1019.0</ele><time>2026-04-25T08:13:47.999Z</time></trkpt><trkpt lat="44.680818096520206" lon="9.746041600124041"><ele>1021.0</ele><time>2026-04-25T08:13:48.999Z</time></trkpt><trkpt lat="44.68070466115104" lon="9.745912379254285"><ele>1023.0</ele><time>2026-04-25T08:13:49.999Z</time></trkpt><trkpt lat="44.68062203018246" lon="9.745784251352543"><ele>1025.0</ele><time>2026-04-25T08:13:50.999Z</time></trkpt><trkpt lat="44.68053105292341" lon="9.745676108361586"><ele>1027.0</ele><time>2026-04-25T08:13:51.999Z</time></trkpt><trkpt lat="44.680454298719006" lon="9.74553553899698"><ele>1027.0</ele><time>2026-04-25T08:13:52.999Z</time></trkpt><trkpt lat="44.68037015213447" lon="9.745396205624418"><ele>1027.0</ele><time>2026-04-25T08:13:53.999Z</time></trkpt><trkpt lat="44.68028266413064" lon="9.745259015041206"><ele>1027.0</ele><time>2026-04-25T08:13:54.999Z</time></trkpt><trkpt lat="44.68020229022377" lon="9.745128459935252"><ele>1027.0</ele><time>2026-04-25T08:13:55.999Z</time></trkpt><trkpt lat="44.68015905169559" lon="9.744978680738393"><ele>1027.25</ele><time>2026-04-25T08:13:56.999Z</time></trkpt><trkpt lat="44.68010929115129" lon="9.74482772940232"><ele>1027.5</ele><time>2026-04-25T08:13:57.999Z</time></trkpt><trkpt lat="44.68006028679686" lon="9.744669700270336"><ele>1027.75</ele><time>2026-04-25T08:13:58.999Z</time></trkpt><trkpt lat="44.68004195635739" lon="9.744497214412968"><ele>1028.0</ele><time>2026-04-25T08:13:59.999Z</time></trkpt><trkpt lat="44.68002076736022" lon="9.744342300295207"><ele>1028.0</ele><time>2026-04-25T08:14:00.999Z</time></trkpt><trkpt lat="44.679989830155236" lon="9.744187456272567"><ele>1028.0</ele><time>2026-04-25T08:14:01.999Z</time></trkpt><trkpt lat="44.67994449265471" lon="9.744037333469153"><ele>1028.0</ele><time>2026-04-25T08:14:02.999Z</time></trkpt><trkpt lat="44.679888332987225" lon="9.743937214796915"><ele>1028.0</ele><time>2026-04-25T08:14:03.999Z</time></trkpt><trkpt lat="44.679772611431716" lon="9.743862950431788"><ele>1028.0</ele><time>2026-04-25T08:14:04.999Z</time></trkpt><trkpt lat="44.679666241018595" lon="9.743787426941628"><ele>1028.0</ele><time>2026-04-25T08:14:05.999Z</time></trkpt><trkpt lat="44.679586529338515" lon="9.743708857533326"><ele>1028.0</ele><time>2026-04-25T08:14:06.999Z</time></trkpt><trkpt lat="44.67954385912628" lon="9.743582600983487"><ele>1028.0</ele><time>2026-04-25T08:14:07.999Z</time></trkpt><trkpt lat="44.679520976061745" lon="9.743421157085201"><ele>1028.0</ele><time>2026-04-25T08:14:08.999Z</time></trkpt><trkpt lat="44.67948082577633" lon="9.743274209936844"><ele>1028.0</ele><time>2026-04-25T08:14:09.999Z</time></trkpt><trkpt lat="44.67935608656359" lon="9.743206639924697"><ele>1026.75</ele><time>2026-04-25T08:14:10.999Z</time></trkpt><trkpt lat="44.67923194427069" lon="9.743175763471044"><ele>1025.5</ele><time>2026-04-25T08:14:11.999Z</time></trkpt><trkpt lat="44.67911824719767" lon="9.743069192750731"><ele>1024.25</ele><time>2026-04-25T08:14:12.999Z</time></trkpt><trkpt lat="44.67903167071238" lon="9.742898377858467"><ele>1023.0</ele><time>2026-04-25T08:14:13.999Z</time></trkpt><trkpt lat="44.679003324124395" lon="9.742686101712001"><ele>1023.0</ele><time>2026-04-25T08:14:14.999Z</time></trkpt><trkpt lat="44.6789692542331" lon="9.742496952244178"><ele>1023.0</ele><time>2026-04-25T08:14:15.999Z</time></trkpt><trkpt lat="44.67894285658098" lon="9.742373616700426"><ele>1023.0</ele><time>2026-04-25T08:14:16.999Z</time></trkpt><trkpt lat="44.67886918345374" lon="9.742342419740362"><ele>1023.0</ele><time>2026-04-25T08:14:17.999Z</time></trkpt><trkpt lat="44.67877485092129" lon="9.74233780499839"><ele>1023.0</ele><time>2026-04-25T08:14:18.999Z</time></trkpt><trkpt lat="44.67869223512542" lon="9.742469988697252"><ele>1023.0</ele><time>2026-04-25T08:14:19.999Z</time></trkpt><trkpt lat="44.678694410479594" lon="9.742660024980205"><ele>1023.0</ele><time>2026-04-25T08:14:20.999Z</time></trkpt><trkpt lat="44.67872321966381" lon="9.74285145894985"><ele>1023.0</ele><time>2026-04-25T08:14:21.999Z</time></trkpt><trkpt lat="44.67874997107128" lon="9.743071399465242"><ele>1023.0</ele><time>2026-04-25T08:14:22.999Z</time></trkpt><trkpt lat="44.678758006579464" lon="9.743276994746694"><ele>1023.4</ele><time>2026-04-25T08:14:23.999Z</time></trkpt><trkpt lat="44.67876534140099" lon="9.743446484892882"><ele>1023.8</ele><time>2026-04-25T08:14:24.999Z</time></trkpt><trkpt lat="44.67874275528751" lon="9.743544125768354"><ele>1024.2</ele><time>2026-04-25T08:14:25.999Z</time></trkpt><trkpt lat="44.67869066928752" lon="9.74362791939856"><ele>1024.6</ele><time>2026-04-25T08:14:27.999Z</time></trkpt><trkpt lat="44.67858107550041" lon="9.743524422460407"><ele>1025.0</ele><time>2026-04-25T08:14:28.999Z</time></trkpt><trkpt lat="44.67854666263534" lon="9.743340698624138"><ele>1016.6666666666667</ele><time>2026-04-25T08:14:29.999Z</time></trkpt><trkpt lat="44.67847146325099" lon="9.74312163097928"><ele>1008.3333333333333</ele><time>2026-04-25T08:14:30.999Z</time></trkpt><trkpt lat="44.67840786312601" lon="9.742897971228992"><ele>1000.0</ele><time>2026-04-25T08:14:31.999Z</time></trkpt><trkpt lat="44.67836453625564" lon="9.742709147772525"><ele>1000.0</ele><time>2026-04-25T08:14:32.999Z</time></trkpt><trkpt lat="44.678330998284785" lon="9.742550701832817"><ele>1000.0</ele><time>2026-04-25T08:14:33.999Z</time></trkpt><trkpt lat="44.67841246625422" lon="9.742379156299997"><ele>1000.0</ele><time>2026-04-25T08:14:34.999Z</time></trkpt><trkpt lat="44.67845275918646" lon="9.742188407611511"><ele>1000.0</ele><time>2026-04-25T08:14:36Z</time></trkpt><trkpt lat="44.67847301724532" lon="9.741993620386255"><ele>1000.0</ele><time>2026-04-25T08:14:37Z</time></trkpt><trkpt lat="44.6784492703173" lon="9.741771802269723"><ele>1000.0</ele><time>2026-04-25T08:14:38Z</time></trkpt><trkpt lat="44.67839963574505" lon="9.741541486415853"><ele>1000.0</ele><time>2026-04-25T08:14:39Z</time></trkpt><trkpt lat="44.67832193061969" lon="9.74132302019607"><ele>1000.0</ele><time>2026-04-25T08:14:40Z</time></trkpt><trkpt lat="44.678216174549654" lon="9.741123979250556"><ele>1000.0</ele><time>2026-04-25T08:14:41Z</time></trkpt><trkpt lat="44.678081800042044" lon="9.740959391002052"><ele>1000.0</ele><time>2026-04-25T08:14:42Z</time></trkpt><trkpt lat="44.677977908699496" lon="9.740791612779871"><ele>1001.6666666666666</ele><time>2026-04-25T08:14:43Z</time></trkpt><trkpt lat="44.67790049182973" lon="9.740601045950925"><ele>1003.3333333333333</ele><time>2026-04-25T08:14:44Z</time></trkpt><trkpt lat="44.67782064280799" lon="9.740388903482014"><ele>1005.0</ele><time>2026-04-25T08:14:45Z</time></trkpt><trkpt lat="44.677754942205176" lon="9.740170764895133"><ele>998.6666666666667</ele><time>2026-04-25T08:14:46Z</time></trkpt><trkpt lat="44.67773493842669" lon="9.73994096357094"><ele>992.3333333333334</ele><time>2026-04-25T08:14:47Z</time></trkpt><trkpt lat="44.67773819875972" lon="9.739713637255017"><ele>986.0</ele><time>2026-04-25T08:14:48Z</time></trkpt><trkpt lat="44.677722754058856" lon="9.739510612371957"><ele>988.0</ele><time>2026-04-25T08:14:49Z</time></trkpt><trkpt lat="44.67766991922654" lon="9.739338596597504"><ele>990.0</ele><time>2026-04-25T08:14:50Z</time></trkpt><trkpt lat="44.677541929374996" lon="9.739216851159739"><ele>992.0</ele><time>2026-04-25T08:14:51Z</time></trkpt><trkpt lat="44.67736777585509" lon="9.739138272868695"><ele>992.0</ele><time>2026-04-25T08:14:52Z</time></trkpt><trkpt lat="44.67724730823146" lon="9.73896754805007"><ele>992.0</ele><time>2026-04-25T08:14:53Z</time></trkpt><trkpt lat="44.677099902014426" lon="9.73881356317956"><ele>992.0</ele><time>2026-04-25T08:14:54Z</time></trkpt><trkpt lat="44.67693785365124" lon="9.738677970473574"><ele>988.6666666666667</ele><time>2026-04-25T08:14:55Z</time></trkpt><trkpt lat="44.67677923711417" lon="9.738534933523473"><ele>985.3333333333333</ele><time>2026-04-25T08:14:56Z</time></trkpt><trkpt lat="44.67663368115766" lon="9.738348854513854"><ele>982.0</ele><time>2026-04-25T08:14:57Z</time></trkpt><trkpt lat="44.67648477218775" lon="9.738203149061537"><ele>982.0</ele><time>2026-04-25T08:14:58Z</time></trkpt><trkpt lat="44.67634704257588" lon="9.73809456055595"><ele>982.0</ele><time>2026-04-25T08:14:59Z</time></trkpt><trkpt lat="44.67625248453635" lon="9.737997476072707"><ele>982.0</ele><time>2026-04-25T08:15:00Z</time></trkpt><trkpt lat="44.67619950268642" lon="9.737896348742717"><ele>982.0</ele><time>2026-04-25T08:15:01Z</time></trkpt><trkpt lat="44.67619671536063" lon="9.737736868287495"><ele>983.5</ele><time>2026-04-25T08:15:02Z</time></trkpt><trkpt lat="44.676208288544466" lon="9.737524391489735"><ele>985.0</ele><time>2026-04-25T08:15:03Z</time></trkpt><trkpt lat="44.676246247611225" lon="9.737323655588202"><ele>986.5</ele><time>2026-04-25T08:15:04Z</time></trkpt><trkpt lat="44.6762545682214" lon="9.737137853154696"><ele>988.0</ele><time>2026-04-25T08:15:05Z</time></trkpt><trkpt lat="44.67620551403694" lon="9.736938098735404"><ele>989.25</ele><time>2026-04-25T08:15:06Z</time></trkpt><trkpt lat="44.67613138416037" lon="9.73673560149203"><ele>990.5</ele><time>2026-04-25T08:15:07Z</time></trkpt><trkpt lat="44.67604772838962" lon="9.73656287755172"><ele>991.75</ele><time>2026-04-25T08:15:08Z</time></trkpt><trkpt lat="44.67599583494503" lon="9.736393083432006"><ele>993.0</ele><time>2026-04-25T08:15:09Z</time></trkpt><trkpt lat="44.67595003864325" lon="9.736263086306701"><ele>985.5</ele><time>2026-04-25T08:15:10Z</time></trkpt><trkpt lat="44.675916990388785" lon="9.736122082416294"><ele>978.0</ele><time>2026-04-25T08:15:11Z</time></trkpt><trkpt lat="44.675926018330706" lon="9.735965071878876"><ele>970.5</ele><time>2026-04-25T08:15:12Z</time></trkpt><trkpt lat="44.67593598251537" lon="9.735779222426912"><ele>963.0</ele><time>2026-04-25T08:15:13Z</time></trkpt><trkpt lat="44.67595575512996" lon="9.735584632417774"><ele>963.0</ele><time>2026-04-25T08:15:14Z</time></trkpt><trkpt lat="44.675945158543946" lon="9.73537900211309"><ele>963.0</ele><time>2026-04-25T08:15:15Z</time></trkpt><trkpt lat="44.67588705004135" lon="9.735173906724153"><ele>963.0</ele><time>2026-04-25T08:15:16Z</time></trkpt><trkpt lat="44.6758000084656" lon="9.7349876446974"><ele>963.6666666666667</ele><time>2026-04-25T08:15:17Z</time></trkpt><trkpt lat="44.6756919434488" lon="9.734776664273785"><ele>964.3333333333334</ele><time>2026-04-25T08:15:18Z</time></trkpt><trkpt lat="44.67558734375328" lon="9.734547136358398"><ele>965.0</ele><time>2026-04-25T08:15:19Z</time></trkpt><trkpt lat="44.67549035333826" lon="9.734322965369818"><ele>966.6666666666667</ele><time>2026-04-25T08:15:20Z</time></trkpt><trkpt lat="44.67539683102717" lon="9.73410401500255"><ele>968.3333333333333</ele><time>2026-04-25T08:15:21Z</time></trkpt><trkpt lat="44.67531020309577" lon="9.733900084701025"><ele>970.0</ele><time>2026-04-25T08:15:22Z</time></trkpt><trkpt lat="44.67522302395894" lon="9.733743477665696"><ele>965.5</ele><time>2026-04-25T08:15:23Z</time></trkpt><trkpt lat="44.67510914861806" lon="9.73364956832544"><ele>961.0</ele><time>2026-04-25T08:15:24Z</time></trkpt><trkpt lat="44.674967881326175" lon="9.733616305147063"><ele>956.5</ele><time>2026-04-25T08:15:25Z</time></trkpt><trkpt lat="44.6748103080503" lon="9.7336170384372"><ele>952.0</ele><time>2026-04-25T08:15:26Z</time></trkpt><trkpt lat="44.674655475555824" lon="9.733573351395815"><ele>949.3333333333333</ele><time>2026-04-25T08:15:27Z</time></trkpt><trkpt lat="44.67450045862699" lon="9.733546122924327"><ele>946.6666666666667</ele><time>2026-04-25T08:15:28Z</time></trkpt><trkpt lat="44.67434586495647" lon="9.733561621770608"><ele>944.0</ele><time>2026-04-25T08:15:29Z</time></trkpt><trkpt lat="44.67418999757817" lon="9.73358724389019"><ele>944.0</ele><time>2026-04-25T08:15:30Z</time></trkpt><trkpt lat="44.67404257546877" lon="9.73363690360361"><ele>944.0</ele><time>2026-04-25T08:15:31Z</time></trkpt><trkpt lat="44.67392481095524" lon="9.73371615690101"><ele>944.0</ele><time>2026-04-25T08:15:32Z</time></trkpt><trkpt lat="44.673836801709356" lon="9.733843703015456"><ele>944.0</ele><time>2026-04-25T08:15:33Z</time></trkpt><trkpt lat="44.67376395246904" lon="9.734007983267114"><ele>944.0</ele><time>2026-04-25T08:15:34Z</time></trkpt><trkpt lat="44.67369189508063" lon="9.734153646399596"><ele>944.0</ele><time>2026-04-25T08:15:35Z</time></trkpt><trkpt lat="44.67358384144837" lon="9.734226582133001"><ele>944.0</ele><time>2026-04-25T08:15:36Z</time></trkpt><trkpt lat="44.67347676965566" lon="9.734260449682052"><ele>944.0</ele><time>2026-04-25T08:15:37Z</time></trkpt><trkpt lat="44.67334448680658" lon="9.734210131809904"><ele>944.5</ele><time>2026-04-25T08:15:38Z</time></trkpt><trkpt lat="44.67319158208387" lon="9.734155600919712"><ele>945.0</ele><time>2026-04-25T08:15:38.999Z</time></trkpt><trkpt lat="44.673054280330554" lon="9.734119031811252"><ele>945.5</ele><time>2026-04-25T08:15:39.999Z</time></trkpt><trkpt lat="44.67295465036089" lon="9.734051254224017"><ele>946.0</ele><time>2026-04-25T08:15:40.999Z</time></trkpt><trkpt lat="44.672906919971304" lon="9.733962783510481"><ele>946.0</ele><time>2026-04-25T08:15:41.999Z</time></trkpt><trkpt lat="44.67289837705949" lon="9.733819295840673"><ele>946.0</ele><time>2026-04-25T08:15:42.999Z</time></trkpt><trkpt lat="44.67287285600295" lon="9.733632786655406"><ele>946.0</ele><time>2026-04-25T08:15:43.999Z</time></trkpt><trkpt lat="44.67282680881186" lon="9.73343547693661"><ele>946.0</ele><time>2026-04-25T08:15:44.999Z</time></trkpt><trkpt lat="44.672737510573306" lon="9.733239974091966"><ele>942.6666666666666</ele><time>2026-04-25T08:15:45.999Z</time></trkpt><trkpt lat="44.672639486521355" lon="9.733035064388448"><ele>939.3333333333333</ele><time>2026-04-25T08:15:46.999Z</time></trkpt><trkpt lat="44.67252559001205" lon="9.732831167881304"><ele>936.0</ele><time>2026-04-25T08:15:47.999Z</time></trkpt><trkpt lat="44.67240047527553" lon="9.732642298550182"><ele>936.0</ele><time>2026-04-25T08:15:48.999Z</time></trkpt><trkpt lat="44.67227933189422" lon="9.73247013505044"><ele>936.0</ele><time>2026-04-25T08:15:49.999Z</time></trkpt><trkpt lat="44.6721615578593" lon="9.7323155154541"><ele>936.0</ele><time>2026-04-25T08:15:50.999Z</time></trkpt><trkpt lat="44.672033165830754" lon="9.732200060261706"><ele>932.0</ele><time>2026-04-25T08:15:51.999Z</time></trkpt><trkpt lat="44.67188926458007" lon="9.732146115070547"><ele>928.0</ele><time>2026-04-25T08:15:52.999Z</time></trkpt><trkpt lat="44.67173799236034" lon="9.732163604810394"><ele>924.0</ele><time>2026-04-25T08:15:53.999Z</time></trkpt><trkpt lat="44.671591845108786" lon="9.732179303318302"><ele>920.0</ele><time>2026-04-25T08:15:54.999Z</time></trkpt><trkpt lat="44.671494853177926" lon="9.732139010794077"><ele>920.0</ele><time>2026-04-25T08:15:55.999Z</time></trkpt><trkpt lat="44.67144075031792" lon="9.732002454802"><ele>920.0</ele><time>2026-04-25T08:15:56.999Z</time></trkpt><trkpt lat="44.671353156376576" lon="9.731840683135458"><ele>920.0</ele><time>2026-04-25T08:15:57.999Z</time></trkpt><trkpt lat="44.67129674107473" lon="9.73166835958521"><ele>920.0</ele><time>2026-04-25T08:15:58.999Z</time></trkpt><trkpt lat="44.671296454095234" lon="9.731480242480258"><ele>918.5</ele><time>2026-04-25T08:15:59.999Z</time></trkpt><trkpt lat="44.67127847554846" lon="9.731312000857868"><ele>917.0</ele><time>2026-04-25T08:16:00.999Z</time></trkpt><trkpt lat="44.67122940147761" lon="9.731187068180166"><ele>915.5</ele><time>2026-04-25T08:16:01.999Z</time></trkpt><trkpt lat="44.67111560951389" lon="9.731107720152066"><ele>914.0</ele><time>2026-04-25T08:16:02.999Z</time></trkpt><trkpt lat="44.670944354567396" lon="9.731121485580429"><ele>914.0</ele><time>2026-04-25T08:16:03.999Z</time></trkpt><trkpt lat="44.67077939317163" lon="9.731070569233527"><ele>914.0</ele><time>2026-04-25T08:16:04.999Z</time></trkpt><trkpt lat="44.67063167619176" lon="9.73108521490828"><ele>914.0</ele><time>2026-04-25T08:16:05.999Z</time></trkpt><trkpt lat="44.67052009470166" lon="9.731117230252496"><ele>914.0</ele><time>2026-04-25T08:16:06.999Z</time></trkpt><trkpt lat="44.67043339524254" lon="9.731223544517446"><ele>914.0</ele><time>2026-04-25T08:16:07.999Z</time></trkpt><trkpt lat="44.67039436137164" lon="9.731382073025175"><ele>914.0000000000001</ele><time>2026-04-25T08:16:08.999Z</time></trkpt><trkpt lat="44.67037773701369" lon="9.73156924152717"><ele>914.0000000000001</ele><time>2026-04-25T08:16:09.999Z</time></trkpt><trkpt lat="44.67034345785109" lon="9.731693289730005"><ele>914.0</ele><time>2026-04-25T08:16:10.999Z</time></trkpt><trkpt lat="44.67024918241723" lon="9.731719073520045"><ele>914.0</ele><time>2026-04-25T08:16:11.999Z</time></trkpt><trkpt lat="44.67014667670154" lon="9.731646298259639"><ele>912.3333333333334</ele><time>2026-04-25T08:16:12.999Z</time></trkpt><trkpt lat="44.6699900718053" lon="9.73159262060581"><ele>910.6666666666667</ele><time>2026-04-25T08:16:13.999Z</time></trkpt><trkpt lat="44.669825115030804" lon="9.731592171635981"><ele>909.0</ele><time>2026-04-25T08:16:14.999Z</time></trkpt><trkpt lat="44.669663964390736" lon="9.731555109136817"><ele>909.0</ele><time>2026-04-25T08:16:15.999Z</time></trkpt><trkpt lat="44.66951517846449" lon="9.731463508075539"><ele>909.0</ele><time>2026-04-25T08:16:16.999Z</time></trkpt><trkpt lat="44.66936223484405" lon="9.731341929165351"><ele>909.0</ele><time>2026-04-25T08:16:17.999Z</time></trkpt><trkpt lat="44.66922038060102" lon="9.731188147487632"><ele>907.3333333333333</ele><time>2026-04-25T08:16:18.999Z</time></trkpt><trkpt lat="44.669090914120346" lon="9.731041444101885"><ele>905.6666666666666</ele><time>2026-04-25T08:16:19.999Z</time></trkpt><trkpt lat="44.668966184177016" lon="9.730956572527505"><ele>904.0</ele><time>2026-04-25T08:16:20.999Z</time></trkpt><trkpt lat="44.66881766431662" lon="9.730898399133089"><ele>904.0</ele><time>2026-04-25T08:16:21.999Z</time></trkpt><trkpt lat="44.66867813518921" lon="9.730920334050522"><ele>904.0</ele><time>2026-04-25T08:16:22.999Z</time></trkpt><trkpt lat="44.66856717892072" lon="9.73103084761667"><ele>904.0</ele><time>2026-04-25T08:16:23.999Z</time></trkpt><trkpt lat="44.66849252671305" lon="9.731200175025007"><ele>904.0</ele><time>2026-04-25T08:16:24.999Z</time></trkpt><trkpt lat="44.668426436884715" lon="9.731379141128008"><ele>899.75</ele><time>2026-04-25T08:16:25.999Z</time></trkpt><trkpt lat="44.66832643815092" lon="9.731478771002172"><ele>895.5</ele><time>2026-04-25T08:16:26.999Z</time></trkpt><trkpt lat="44.66822112936665" lon="9.731503811541698"><ele>891.25</ele><time>2026-04-25T08:16:27.999Z</time></trkpt><trkpt lat="44.66810393069935" lon="9.731466214230853"><ele>887.0</ele><time>2026-04-25T08:16:28.999Z</time></trkpt><trkpt lat="44.66797990218278" lon="9.731391069668529"><ele>887.0</ele><time>2026-04-25T08:16:29.999Z</time></trkpt><trkpt lat="44.667902033332844" lon="9.731270657449064"><ele>887.0</ele><time>2026-04-25T08:16:30.999Z</time></trkpt><trkpt lat="44.66785452940194" lon="9.731087276320604"><ele>887.0</ele><time>2026-04-25T08:16:31.999Z</time></trkpt><trkpt lat="44.667767447242184" lon="9.73090170574232"><ele>887.0</ele><time>2026-04-25T08:16:32.999Z</time></trkpt><trkpt lat="44.667685889256006" lon="9.730747008412326"><ele>886.25</ele><time>2026-04-25T08:16:33.999Z</time></trkpt><trkpt lat="44.667564080718456" lon="9.730637041947938"><ele>885.5</ele><time>2026-04-25T08:16:34.999Z</time></trkpt><trkpt lat="44.667418770644815" lon="9.730578999764996"><ele>884.75</ele><time>2026-04-25T08:16:35.999Z</time></trkpt><trkpt lat="44.66727595138941" lon="9.730590789912798"><ele>884.0</ele><time>2026-04-25T08:16:36.999Z</time></trkpt><trkpt lat="44.667148909860295" lon="9.730671714058365"><ele>884.0</ele><time>2026-04-25T08:16:37.999Z</time></trkpt><trkpt lat="44.66702521518057" lon="9.730818464673812"><ele>884.0</ele><time>2026-04-25T08:16:38.999Z</time></trkpt><trkpt lat="44.666920381048634" lon="9.730976376584271"><ele>884.0</ele><time>2026-04-25T08:16:39.999Z</time></trkpt><trkpt lat="44.66678997787507" lon="9.731022583121959"><ele>878.0</ele><time>2026-04-25T08:16:40.999Z</time></trkpt><trkpt lat="44.66662825126215" lon="9.731059976789705"><ele>872.0</ele><time>2026-04-25T08:16:42Z</time></trkpt><trkpt lat="44.666500726303404" lon="9.731133221305898"><ele>866.0</ele><time>2026-04-25T08:16:43Z</time></trkpt><trkpt lat="44.66639423710287" lon="9.731283525886266"><ele>866.0</ele><time>2026-04-25T08:16:44Z</time></trkpt><trkpt lat="44.66628730159196" lon="9.73144157686059"><ele>866.0</ele><time>2026-04-25T08:16:45Z</time></trkpt><trkpt lat="44.66617890471429" lon="9.731499820769065"><ele>866.0</ele><time>2026-04-25T08:16:46Z</time></trkpt><trkpt lat="44.66607509327287" lon="9.731504116324093"><ele>866.0</ele><time>2026-04-25T08:16:47Z</time></trkpt><trkpt lat="44.66599721012743" lon="9.731464104736942"><ele>865.75</ele><time>2026-04-25T08:16:48Z</time></trkpt><trkpt lat="44.66597120987338" lon="9.731337060940199"><ele>865.5</ele><time>2026-04-25T08:16:49Z</time></trkpt><trkpt lat="44.66603456698518" lon="9.731200816402502"><ele>865.25</ele><time>2026-04-25T08:16:50Z</time></trkpt><trkpt lat="44.66602607199334" lon="9.731034484769525"><ele>865.0</ele><time>2026-04-25T08:16:51Z</time></trkpt><trkpt lat="44.66596394102245" lon="9.73088461101277"><ele>865.0</ele><time>2026-04-25T08:16:52Z</time></trkpt><trkpt lat="44.66583565396642" lon="9.730794009658037"><ele>865.0</ele><time>2026-04-25T08:16:53Z</time></trkpt><trkpt lat="44.66574958605837" lon="9.730713843409271"><ele>865.0</ele><time>2026-04-25T08:16:54Z</time></trkpt><trkpt lat="44.66575077540296" lon="9.730557351598533"><ele>865.0</ele><time>2026-04-25T08:16:56Z</time></trkpt><trkpt lat="44.66584853961194" lon="9.73050386148644"><ele>865.0</ele><time>2026-04-25T08:16:57Z</time></trkpt><trkpt lat="44.66597495615365" lon="9.730499904554977"><ele>865.0</ele><time>2026-04-25T08:16:58Z</time></trkpt><trkpt lat="44.666102203325615" lon="9.730447860711887"><ele>865.0</ele><time>2026-04-25T08:16:59Z</time></trkpt><trkpt lat="44.66618424766968" lon="9.7303085926159"><ele>865.0</ele><time>2026-04-25T08:17:00Z</time></trkpt><trkpt lat="44.66619412256571" lon="9.7301803292202"><ele>862.3333333333333</ele><time>2026-04-25T08:17:01Z</time></trkpt><trkpt lat="44.66620439548225" lon="9.729949291240567"><ele>859.6666666666667</ele><time>2026-04-25T08:17:02Z</time></trkpt><trkpt lat="44.66613214572553" lon="9.729763968584646"><ele>857.0</ele><time>2026-04-25T08:17:03Z</time></trkpt><trkpt lat="44.666045435761134" lon="9.72957587633099"><ele>857.0</ele><time>2026-04-25T08:17:04Z</time></trkpt><trkpt lat="44.665960377029826" lon="9.72939824723986"><ele>857.0</ele><time>2026-04-25T08:17:05Z</time></trkpt><trkpt lat="44.66589835420793" lon="9.729222841854446"><ele>857.0</ele><time>2026-04-25T08:17:06Z</time></trkpt><trkpt lat="44.66588248022368" lon="9.729049815578538"><ele>857.0</ele><time>2026-04-25T08:17:07Z</time></trkpt><trkpt lat="44.66587715350024" lon="9.728872504287356"><ele>856.25</ele><time>2026-04-25T08:17:08Z</time></trkpt><trkpt lat="44.665897584518504" lon="9.728677058522864"><ele>855.5</ele><time>2026-04-25T08:17:09Z</time></trkpt><trkpt lat="44.665931083390944" lon="9.728470838843801"><ele>854.75</ele><time>2026-04-25T08:17:10Z</time></trkpt><trkpt lat="44.66596795550197" lon="9.728279753450453"><ele>854.0</ele><time>2026-04-25T08:17:11Z</time></trkpt><trkpt lat="44.6659876059946" lon="9.728101444594223"><ele>853.2</ele><time>2026-04-25T08:17:12Z</time></trkpt><trkpt lat="44.66599450970163" lon="9.727924203060585"><ele>852.4000000000001</ele><time>2026-04-25T08:17:13Z</time></trkpt><trkpt lat="44.66601011097979" lon="9.727765793516491"><ele>851.6</ele><time>2026-04-25T08:17:14Z</time></trkpt><trkpt lat="44.666083564573384" lon="9.727671342265861"><ele>850.8</ele><time>2026-04-25T08:17:15Z</time></trkpt><trkpt lat="44.6661354865477" lon="9.727567858160194"><ele>850.0</ele><time>2026-04-25T08:17:16Z</time></trkpt><trkpt lat="44.66618850788945" lon="9.727471160951723"><ele>848.9999999999999</ele><time>2026-04-25T08:17:17Z</time></trkpt><trkpt lat="44.66621306734086" lon="9.72736170100915"><ele>848.0</ele><time>2026-04-25T08:17:18Z</time></trkpt><trkpt lat="44.66619511297241" lon="9.7272605004399"><ele>847.0</ele><time>2026-04-25T08:17:19Z</time></trkpt><trkpt lat="44.6661368982042" lon="9.727177569451472"><ele>846.0</ele><time>2026-04-25T08:17:20Z</time></trkpt><trkpt lat="44.6660532432326" lon="9.727125220295768"><ele>844.9999999999999</ele><time>2026-04-25T08:17:21Z</time></trkpt><trkpt lat="44.665953769115255" lon="9.727134876010238"><ele>844.0</ele><time>2026-04-25T08:17:22Z</time></trkpt><trkpt lat="44.66587780864215" lon="9.727215845284782"><ele>844.0</ele><time>2026-04-25T08:17:23Z</time></trkpt><trkpt lat="44.66582537433235" lon="9.727330104820089"><ele>844.0</ele><time>2026-04-25T08:17:24Z</time></trkpt><trkpt lat="44.665812918838746" lon="9.727476891065981"><ele>844.0</ele><time>2026-04-25T08:17:25Z</time></trkpt><trkpt lat="44.665787498887525" lon="9.727676612186924"><ele>844.0</ele><time>2026-04-25T08:17:26Z</time></trkpt><trkpt lat="44.66569532092933" lon="9.727878968900518"><ele>846.0</ele><time>2026-04-25T08:17:27Z</time></trkpt><trkpt lat="44.66561606931825" lon="9.72808175333634"><ele>848.0</ele><time>2026-04-25T08:17:28Z</time></trkpt><trkpt lat="44.66552349825466" lon="9.728263665731372"><ele>850.0</ele><time>2026-04-25T08:17:29Z</time></trkpt><trkpt lat="44.66541184342083" lon="9.728461051083391"><ele>851.3333333333333</ele><time>2026-04-25T08:17:30Z</time></trkpt><trkpt lat="44.66530305430044" lon="9.728684681501612"><ele>852.6666666666667</ele><time>2026-04-25T08:17:31Z</time></trkpt><trkpt lat="44.66516939213228" lon="9.72888117036674"><ele>854.0</ele><time>2026-04-25T08:17:32Z</time></trkpt><trkpt lat="44.665050417532655" lon="9.72909151992445"><ele>848.3333333333334</ele><time>2026-04-25T08:17:33Z</time></trkpt><trkpt lat="44.664937079202446" lon="9.729299779218389"><ele>842.6666666666667</ele><time>2026-04-25T08:17:34Z</time></trkpt><trkpt lat="44.66483774338595" lon="9.729522890599709"><ele>837.0</ele><time>2026-04-25T08:17:35Z</time></trkpt><trkpt lat="44.66472580134487" lon="9.729736644782605"><ele>837.0</ele><time>2026-04-25T08:17:36Z</time></trkpt><trkpt lat="44.66461023294369" lon="9.729948877468878"><ele>837.0</ele><time>2026-04-25T08:17:37Z</time></trkpt><trkpt lat="44.66449529361628" lon="9.730152152599379"><ele>837.0</ele><time>2026-04-25T08:17:38Z</time></trkpt><trkpt lat="44.664399189639155" lon="9.730358238513663"><ele>831.75</ele><time>2026-04-25T08:17:39Z</time></trkpt><trkpt lat="44.6643027961078" lon="9.730529681069148"><ele>826.5</ele><time>2026-04-25T08:17:40Z</time></trkpt><trkpt lat="44.6642311367801" lon="9.730662259009437"><ele>821.25</ele><time>2026-04-25T08:17:41Z</time></trkpt><trkpt lat="44.66419115433876" lon="9.730775292430137"><ele>816.0</ele><time>2026-04-25T08:17:42Z</time></trkpt><trkpt lat="44.66419730469003" lon="9.73092091224462"><ele>815.6666666666667</ele><time>2026-04-25T08:17:43Z</time></trkpt><trkpt lat="44.664270784007925" lon="9.731114032021237"><ele>815.3333333333334</ele><time>2026-04-25T08:17:44Z</time></trkpt><trkpt lat="44.664347187243685" lon="9.731320387979954"><ele>815.0</ele><time>2026-04-25T08:17:45Z</time></trkpt><trkpt lat="44.66434774743587" lon="9.731547949359967"><ele>815.0</ele><time>2026-04-25T08:17:46Z</time></trkpt><trkpt lat="44.66431532252904" lon="9.73175817481336"><ele>815.0</ele><time>2026-04-25T08:17:47Z</time></trkpt><trkpt lat="44.66424111460312" lon="9.731958563888623"><ele>815.0</ele><time>2026-04-25T08:17:48Z</time></trkpt><trkpt lat="44.66412301764086" lon="9.73214662770395"><ele>815.3333333333334</ele><time>2026-04-25T08:17:49Z</time></trkpt><trkpt lat="44.66401919664366" lon="9.732359479936546"><ele>815.6666666666667</ele><time>2026-04-25T08:17:50Z</time></trkpt><trkpt lat="44.6639138674152" lon="9.732560068916568"><ele>816.0</ele><time>2026-04-25T08:17:51Z</time></trkpt><trkpt lat="44.66381087147442" lon="9.732744221611908"><ele>815.4</ele><time>2026-04-25T08:17:52Z</time></trkpt><trkpt lat="44.66370419697769" lon="9.732875365442128"><ele>814.8</ele><time>2026-04-25T08:17:52.999Z</time></trkpt><trkpt lat="44.66363661355839" lon="9.732972619892127"><ele>814.1999999999999</ele><time>2026-04-25T08:17:53.999Z</time></trkpt><trkpt lat="44.66360335234474" lon="9.733061863962973"><ele>813.5999999999999</ele><time>2026-04-25T08:17:54.999Z</time></trkpt><trkpt lat="44.66362283099885" lon="9.733189006094127"><ele>813.0</ele><time>2026-04-25T08:17:55.999Z</time></trkpt><trkpt lat="44.66369926868472" lon="9.73331705632176"><ele>813.0</ele><time>2026-04-25T08:17:56.999Z</time></trkpt><trkpt lat="44.66383902810167" lon="9.733408339923631"><ele>813.0</ele><time>2026-04-25T08:17:57.999Z</time></trkpt><trkpt lat="44.66399317227557" lon="9.73348977001013"><ele>813.0</ele><time>2026-04-25T08:17:58.999Z</time></trkpt><trkpt lat="44.66409803837362" lon="9.733670770499897"><ele>809.75</ele><time>2026-04-25T08:17:59.999Z</time></trkpt><trkpt lat="44.66418592298952" lon="9.733881476301608"><ele>806.5</ele><time>2026-04-25T08:18:00.999Z</time></trkpt><trkpt lat="44.66426743991265" lon="9.734048995397112"><ele>803.25</ele><time>2026-04-25T08:18:01.999Z</time></trkpt><trkpt lat="44.664313512980314" lon="9.734169891641196"><ele>800.0</ele><time>2026-04-25T08:18:02.999Z</time></trkpt><trkpt lat="44.66424690263514" lon="9.734321813355928"><ele>800.0</ele><time>2026-04-25T08:18:04.999Z</time></trkpt><trkpt lat="44.66415161493063" lon="9.73429801800005"><ele>800.0</ele><time>2026-04-25T08:18:05.999Z</time></trkpt><trkpt lat="44.66412012500888" lon="9.734140571488123"><ele>800.0</ele><time>2026-04-25T08:18:06.999Z</time></trkpt><trkpt lat="44.66403580898787" lon="9.734004459719475"><ele>800.0</ele><time>2026-04-25T08:18:07.999Z</time></trkpt><trkpt lat="44.66392831236855" lon="9.73387566067266"><ele>800.0</ele><time>2026-04-25T08:18:08.999Z</time></trkpt><trkpt lat="44.66377166691193" lon="9.733841241358965"><ele>800.0</ele><time>2026-04-25T08:18:09.999Z</time></trkpt><trkpt lat="44.66358151335385" lon="9.733887213793318"><ele>800.0</ele><time>2026-04-25T08:18:10.999Z</time></trkpt><trkpt lat="44.66340589275242" lon="9.7339814310838"><ele>796.6666666666667</ele><time>2026-04-25T08:18:11.999Z</time></trkpt><trkpt lat="44.663226078340564" lon="9.734087052288729"><ele>793.3333333333333</ele><time>2026-04-25T08:18:12.999Z</time></trkpt><trkpt lat="44.66303089387936" lon="9.734110191203332"><ele>790.0</ele><time>2026-04-25T08:18:13.999Z</time></trkpt><trkpt lat="44.662848916207494" lon="9.734137034074456"><ele>787.5</ele><time>2026-04-25T08:18:14.999Z</time></trkpt><trkpt lat="44.6626938961591" lon="9.734147987612003"><ele>785.0</ele><time>2026-04-25T08:18:15.999Z</time></trkpt><trkpt lat="44.66257425189819" lon="9.734120990148247"><ele>782.5</ele><time>2026-04-25T08:18:16.999Z</time></trkpt><trkpt lat="44.66248426903899" lon="9.734023909018523"><ele>780.0</ele><time>2026-04-25T08:18:17.999Z</time></trkpt><trkpt lat="44.66238857263534" lon="9.733868244725354"><ele>780.0</ele><time>2026-04-25T08:18:18.999Z</time></trkpt><trkpt lat="44.6622956879028" lon="9.733685958995084"><ele>780.0</ele><time>2026-04-25T08:18:19.999Z</time></trkpt><trkpt lat="44.66224285074348" lon="9.733539499199978"><ele>780.0</ele><time>2026-04-25T08:18:20.999Z</time></trkpt><trkpt lat="44.662261677480615" lon="9.733399327244516"><ele>780.0</ele><time>2026-04-25T08:18:21.999Z</time></trkpt><trkpt lat="44.662325411143065" lon="9.733251200567647"><ele>779.75</ele><time>2026-04-25T08:18:22.999Z</time></trkpt><trkpt lat="44.66243611895339" lon="9.733091070231362"><ele>779.5</ele><time>2026-04-25T08:18:23.999Z</time></trkpt><trkpt lat="44.662510677722665" lon="9.732911810290947"><ele>779.25</ele><time>2026-04-25T08:18:24.999Z</time></trkpt><trkpt lat="44.662556933471635" lon="9.7327427962555"><ele>779.0</ele><time>2026-04-25T08:18:25.999Z</time></trkpt><trkpt lat="44.66254336416609" lon="9.732540662196465"><ele>779.0</ele><time>2026-04-25T08:18:26.999Z</time></trkpt><trkpt lat="44.662488885548974" lon="9.732340546716008"><ele>779.0</ele><time>2026-04-25T08:18:27.999Z</time></trkpt><trkpt lat="44.662395302084235" lon="9.732162142896856"><ele>779.0</ele><time>2026-04-25T08:18:28.999Z</time></trkpt><trkpt lat="44.6623265849918" lon="9.731987454412923"><ele>777.5</ele><time>2026-04-25T08:18:29.999Z</time></trkpt><trkpt lat="44.66229824080449" lon="9.731820836607875"><ele>776.0</ele><time>2026-04-25T08:18:30.999Z</time></trkpt><trkpt lat="44.66233875615373" lon="9.731677598603877"><ele>774.5</ele><time>2026-04-25T08:18:31.999Z</time></trkpt><trkpt lat="44.662405998713666" lon="9.731492814022177"><ele>773.0</ele><time>2026-04-25T08:18:32.999Z</time></trkpt><trkpt lat="44.66244863791531" lon="9.731314799455637"><ele>773.0</ele><time>2026-04-25T08:18:33.999Z</time></trkpt><trkpt lat="44.66244122553795" lon="9.731144678506139"><ele>773.0</ele><time>2026-04-25T08:18:34.999Z</time></trkpt><trkpt lat="44.66237101335415" lon="9.731005756775778"><ele>773.0</ele><time>2026-04-25T08:18:35.999Z</time></trkpt><trkpt lat="44.662257579659524" lon="9.730898074168287"><ele>773.0</ele><time>2026-04-25T08:18:36.999Z</time></trkpt><trkpt lat="44.66212168381318" lon="9.730839229647506"><ele>773.3333333333334</ele><time>2026-04-25T08:18:37.999Z</time></trkpt><trkpt lat="44.66196375004127" lon="9.730815747409405"><ele>773.6666666666667</ele><time>2026-04-25T08:18:38.999Z</time></trkpt><trkpt lat="44.66181121397684" lon="9.730820152057628"><ele>774.0</ele><time>2026-04-25T08:18:39.999Z</time></trkpt><trkpt lat="44.661664067512866" lon="9.730896174710093"><ele>770.6666666666666</ele><time>2026-04-25T08:18:40.999Z</time></trkpt><trkpt lat="44.66152390696181" lon="9.7310176107012"><ele>767.3333333333333</ele><time>2026-04-25T08:18:41.999Z</time></trkpt><trkpt lat="44.661381237590774" lon="9.731087051496555"><ele>764.0</ele><time>2026-04-25T08:18:42.999Z</time></trkpt><trkpt lat="44.66123795971971" lon="9.731121603683468"><ele>761.75</ele><time>2026-04-25T08:18:43.999Z</time></trkpt><trkpt lat="44.661080183802575" lon="9.731143195945155"><ele>759.5</ele><time>2026-04-25T08:18:44.999Z</time></trkpt><trkpt lat="44.660943130196856" lon="9.731141585305817"><ele>757.25</ele><time>2026-04-25T08:18:45.999Z</time></trkpt><trkpt lat="44.660849213079125" lon="9.73110483280077"><ele>755.0</ele><time>2026-04-25T08:18:46.999Z</time></trkpt><trkpt lat="44.66080484273482" lon="9.731017060552478"><ele>755.0</ele><time>2026-04-25T08:18:48Z</time></trkpt><trkpt lat="44.66080139050771" lon="9.730846259745949"><ele>755.0</ele><time>2026-04-25T08:18:49Z</time></trkpt><trkpt lat="44.66074771988699" lon="9.730663480789712"><ele>755.0</ele><time>2026-04-25T08:18:50Z</time></trkpt><trkpt lat="44.66068317308558" lon="9.730519627311029"><ele>755.0</ele><time>2026-04-25T08:18:51Z</time></trkpt><trkpt lat="44.660564898639116" lon="9.730458801110494"><ele>755.0</ele><time>2026-04-25T08:18:52Z</time></trkpt><trkpt lat="44.66040726766663" lon="9.730482256029832"><ele>755.0</ele><time>2026-04-25T08:18:53Z</time></trkpt><trkpt lat="44.660245560798046" lon="9.730526786209198"><ele>755.0</ele><time>2026-04-25T08:18:54Z</time></trkpt><trkpt lat="44.66010554049462" lon="9.73056426958153"><ele>752.5</ele><time>2026-04-25T08:18:55Z</time></trkpt><trkpt lat="44.65996336123568" lon="9.73063500379262"><ele>750.0</ele><time>2026-04-25T08:18:56Z</time></trkpt><trkpt lat="44.659836160837806" lon="9.730730212907348"><ele>747.5</ele><time>2026-04-25T08:18:57Z</time></trkpt><trkpt lat="44.659770093780274" lon="9.730838171868415"><ele>745.0</ele><time>2026-04-25T08:18:58Z</time></trkpt><trkpt lat="44.65975977660229" lon="9.730994800989993"><ele>743.75</ele><time>2026-04-25T08:18:59Z</time></trkpt><trkpt lat="44.65980844558784" lon="9.731140039386343"><ele>742.5</ele><time>2026-04-25T08:19:00Z</time></trkpt><trkpt lat="44.65996128123252" lon="9.731164182677261"><ele>741.25</ele><time>2026-04-25T08:19:01Z</time></trkpt><trkpt lat="44.66003939865019" lon="9.73126318150771"><ele>740.0</ele><time>2026-04-25T08:19:02Z</time></trkpt><trkpt lat="44.66010361880688" lon="9.731343255787957"><ele>740.0</ele><time>2026-04-25T08:19:03Z</time></trkpt><trkpt lat="44.66009139789833" lon="9.731479725554967"><ele>740.0</ele><time>2026-04-25T08:19:04Z</time></trkpt><trkpt lat="44.65998577280131" lon="9.73158413701458"><ele>740.0</ele><time>2026-04-25T08:19:05Z</time></trkpt><trkpt lat="44.65987460030087" lon="9.731712913991062"><ele>740.0</ele><time>2026-04-25T08:19:06Z</time></trkpt><trkpt lat="44.659750014045116" lon="9.731866584224585"><ele>738.3333333333333</ele><time>2026-04-25T08:19:07Z</time></trkpt><trkpt lat="44.65963283393447" lon="9.732039998056855"><ele>736.6666666666666</ele><time>2026-04-25T08:19:08Z</time></trkpt><trkpt lat="44.65954521434851" lon="9.732261714619884"><ele>735.0</ele><time>2026-04-25T08:19:09Z</time></trkpt><trkpt lat="44.659488967742206" lon="9.732485146324688"><ele>734.25</ele><time>2026-04-25T08:19:10Z</time></trkpt><trkpt lat="44.659406980370825" lon="9.732632117605073"><ele>733.5</ele><time>2026-04-25T08:19:11Z</time></trkpt><trkpt lat="44.659303834691954" lon="9.732729728126381"><ele>732.75</ele><time>2026-04-25T08:19:12Z</time></trkpt><trkpt lat="44.65916439128843" lon="9.73278309255365"><ele>732.0</ele><time>2026-04-25T08:19:13Z</time></trkpt><trkpt lat="44.659018684426776" lon="9.732780319939433"><ele>732.0</ele><time>2026-04-25T08:19:14Z</time></trkpt><trkpt lat="44.658879572560146" lon="9.732741071407206"><ele>732.0</ele><time>2026-04-25T08:19:15Z</time></trkpt><trkpt lat="44.65873775886756" lon="9.732660336948241"><ele>732.0</ele><time>2026-04-25T08:19:16Z</time></trkpt><trkpt lat="44.65860514313644" lon="9.732625729057402"><ele>732.0</ele><time>2026-04-25T08:19:17Z</time></trkpt><trkpt lat="44.65847671345784" lon="9.73264375510712"><ele>728.75</ele><time>2026-04-25T08:19:18Z</time></trkpt><trkpt lat="44.65836416876707" lon="9.732746361453291"><ele>725.5</ele><time>2026-04-25T08:19:19Z</time></trkpt><trkpt lat="44.65830737553749" lon="9.732886709766873"><ele>722.25</ele><time>2026-04-25T08:19:20Z</time></trkpt><trkpt lat="44.65829501045221" lon="9.73307496220592"><ele>719.0</ele><time>2026-04-25T08:19:21Z</time></trkpt><trkpt lat="44.65831796518246" lon="9.733307365752323"><ele>719.0</ele><time>2026-04-25T08:19:22Z</time></trkpt><trkpt lat="44.65833338001486" lon="9.733530031994702"><ele>719.0</ele><time>2026-04-25T08:19:23Z</time></trkpt><trkpt lat="44.65829602031338" lon="9.733710241506277"><ele>719.0</ele><time>2026-04-25T08:19:24Z</time></trkpt><trkpt lat="44.65824805943723" lon="9.73383069349498"><ele>719.0</ele><time>2026-04-25T08:19:25Z</time></trkpt><trkpt lat="44.65817822624144" lon="9.733902915873639"><ele>719.0</ele><time>2026-04-25T08:19:26Z</time></trkpt><trkpt lat="44.65808069050323" lon="9.73383657594019"><ele>719.0</ele><time>2026-04-25T08:19:27Z</time></trkpt><trkpt lat="44.6580379710615" lon="9.733704519742071"><ele>719.0</ele><time>2026-04-25T08:19:28Z</time></trkpt><trkpt lat="44.657953798576294" lon="9.733543307836378"><ele>719.0</ele><time>2026-04-25T08:19:29Z</time></trkpt><trkpt lat="44.65786431391921" lon="9.733384101431666"><ele>719.0</ele><time>2026-04-25T08:19:30Z</time></trkpt><trkpt lat="44.6577854181492" lon="9.733221862671178"><ele>719.0</ele><time>2026-04-25T08:19:31Z</time></trkpt><trkpt lat="44.65770884473148" lon="9.733036915012026"><ele>719.0</ele><time>2026-04-25T08:19:32Z</time></trkpt><trkpt lat="44.6576397193679" lon="9.73287840852917"><ele>719.0</ele><time>2026-04-25T08:19:33Z</time></trkpt><trkpt lat="44.657568106709576" lon="9.732787566343404"><ele>716.4000000000001</ele><time>2026-04-25T08:19:34Z</time></trkpt><trkpt lat="44.657505812539746" lon="9.73275814290028"><ele>713.8</ele><time>2026-04-25T08:19:35Z</time></trkpt><trkpt lat="44.657432747067006" lon="9.732867081120595"><ele>711.2</ele><time>2026-04-25T08:19:36Z</time></trkpt><trkpt lat="44.657416782592094" lon="9.733013141625404"><ele>708.5999999999999</ele><time>2026-04-25T08:19:37Z</time></trkpt><trkpt lat="44.65745806509171" lon="9.73318038388529"><ele>706.0</ele><time>2026-04-25T08:19:38Z</time></trkpt><trkpt lat="44.65749347955701" lon="9.733353337527308"><ele>706.0</ele><time>2026-04-25T08:19:39Z</time></trkpt><trkpt lat="44.657449214864776" lon="9.733550883697767"><ele>706.0</ele><time>2026-04-25T08:19:40Z</time></trkpt><trkpt lat="44.65738484563165" lon="9.733766900793986"><ele>706.0</ele><time>2026-04-25T08:19:41Z</time></trkpt><trkpt lat="44.657327719953145" lon="9.733994382708977"><ele>705.0</ele><time>2026-04-25T08:19:42Z</time></trkpt><trkpt lat="44.657272918253454" lon="9.734199035242161"><ele>704.0</ele><time>2026-04-25T08:19:43Z</time></trkpt><trkpt lat="44.65718890224156" lon="9.734358936391612"><ele>703.0</ele><time>2026-04-25T08:19:44Z</time></trkpt><trkpt lat="44.657083155511906" lon="9.734477489473539"><ele>702.0</ele><time>2026-04-25T08:19:45Z</time></trkpt><trkpt lat="44.65693379888888" lon="9.734607006379079"><ele>698.3333333333334</ele><time>2026-04-25T08:19:46Z</time></trkpt><trkpt lat="44.656790591284235" lon="9.734745887191695"><ele>694.6666666666667</ele><time>2026-04-25T08:19:47Z</time></trkpt><trkpt lat="44.65663554661776" lon="9.734822313527953"><ele>691.0</ele><time>2026-04-25T08:19:48Z</time></trkpt><trkpt lat="44.65648655396277" lon="9.734866123621524"><ele>691.0</ele><time>2026-04-25T08:19:49Z</time></trkpt><trkpt lat="44.65632100460244" lon="9.734893901058028"><ele>691.0</ele><time>2026-04-25T08:19:50Z</time></trkpt><trkpt lat="44.656179301916765" lon="9.734890463475642"><ele>691.0</ele><time>2026-04-25T08:19:51Z</time></trkpt><trkpt lat="44.65606470225971" lon="9.734808678910403"><ele>691.0</ele><time>2026-04-25T08:19:52Z</time></trkpt><trkpt lat="44.65593573479718" lon="9.734748455139119"><ele>688.3333333333334</ele><time>2026-04-25T08:19:53Z</time></trkpt><trkpt lat="44.655808012992104" lon="9.734692413806034"><ele>685.6666666666666</ele><time>2026-04-25T08:19:54Z</time></trkpt><trkpt lat="44.65563597594076" lon="9.734721278587001"><ele>683.0</ele><time>2026-04-25T08:19:55Z</time></trkpt><trkpt lat="44.65544941216892" lon="9.734797606755832"><ele>681.5</ele><time>2026-04-25T08:19:56Z</time></trkpt><trkpt lat="44.65528010789351" lon="9.734858825942524"><ele>680.0</ele><time>2026-04-25T08:19:57Z</time></trkpt><trkpt lat="44.655138868252024" lon="9.734863754806534"><ele>678.5</ele><time>2026-04-25T08:19:58Z</time></trkpt><trkpt lat="44.65504671957852" lon="9.734866203172597"><ele>677.0</ele><time>2026-04-25T08:19:59Z</time></trkpt><trkpt lat="44.654977686080784" lon="9.734782260879456"><ele>677.0</ele><time>2026-04-25T08:20:00Z</time></trkpt><trkpt lat="44.65499400966486" lon="9.734627643849045"><ele>677.0</ele><time>2026-04-25T08:20:01Z</time></trkpt><trkpt lat="44.65505493933568" lon="9.734500160098618"><ele>677.0</ele><time>2026-04-25T08:20:02Z</time></trkpt><trkpt lat="44.655133728406234" lon="9.734335107040035"><ele>677.0</ele><time>2026-04-25T08:20:03Z</time></trkpt><trkpt lat="44.65521827860469" lon="9.734195422366358"><ele>677.2</ele><time>2026-04-25T08:20:03.999Z</time></trkpt><trkpt lat="44.655241299059874" lon="9.734086211557635"><ele>677.4000000000001</ele><time>2026-04-25T08:20:04.999Z</time></trkpt><trkpt lat="44.655186106943006" lon="9.733913907130347"><ele>677.5999999999999</ele><time>2026-04-25T08:20:06.999Z</time></trkpt><trkpt lat="44.655140160735186" lon="9.733795240801594"><ele>677.8</ele><time>2026-04-25T08:20:07.999Z</time></trkpt><trkpt lat="44.65503464512258" lon="9.733710056735264"><ele>678.0</ele><time>2026-04-25T08:20:08.999Z</time></trkpt><trkpt lat="44.65487083028108" lon="9.733708910430424"><ele>678.0</ele><time>2026-04-25T08:20:09.999Z</time></trkpt><trkpt lat="44.65470244799698" lon="9.733694927605583"><ele>678.0</ele><time>2026-04-25T08:20:10.999Z</time></trkpt><trkpt lat="44.65453603060504" lon="9.733714300636581"><ele>678.0</ele><time>2026-04-25T08:20:11.999Z</time></trkpt><trkpt lat="44.65437438425942" lon="9.733805269607489"><ele>677.0</ele><time>2026-04-25T08:20:12.999Z</time></trkpt><trkpt lat="44.65420093884408" lon="9.733920931473373"><ele>676.0</ele><time>2026-04-25T08:20:13.999Z</time></trkpt><trkpt lat="44.65405485838239" lon="9.73397835883932"><ele>675.0</ele><time>2026-04-25T08:20:14.999Z</time></trkpt><trkpt lat="44.653925780910804" lon="9.73402716251989"><ele>675.0</ele><time>2026-04-25T08:20:15.999Z</time></trkpt><trkpt lat="44.65381552415848" lon="9.734144611280714"><ele>675.0</ele><time>2026-04-25T08:20:16.999Z</time></trkpt><trkpt lat="44.65370914201993" lon="9.73427831476117"><ele>675.0</ele><time>2026-04-25T08:20:17.999Z</time></trkpt><trkpt lat="44.65357622458589" lon="9.734288789300983"><ele>675.0</ele><time>2026-04-25T08:20:18.999Z</time></trkpt><trkpt lat="44.653409605822574" lon="9.734293370192939"><ele>675.3333333333334</ele><time>2026-04-25T08:20:19.999Z</time></trkpt><trkpt lat="44.65324424542691" lon="9.734330114048317"><ele>675.6666666666667</ele><time>2026-04-25T08:20:20.999Z</time></trkpt><trkpt lat="44.65307555443056" lon="9.734406004312758"><ele>676.0</ele><time>2026-04-25T08:20:21.999Z</time></trkpt><trkpt lat="44.65291808868503" lon="9.734552106905035"><ele>678.3333333333334</ele><time>2026-04-25T08:20:22.999Z</time></trkpt><trkpt lat="44.65276082113851" lon="9.734725333510754"><ele>680.6666666666666</ele><time>2026-04-25T08:20:23.999Z</time></trkpt><trkpt lat="44.652603934480524" lon="9.734889006005838"><ele>683.0</ele><time>2026-04-25T08:20:24.999Z</time></trkpt><trkpt lat="44.652451295986104" lon="9.735039007809506"><ele>683.0</ele><time>2026-04-25T08:20:25.999Z</time></trkpt><trkpt lat="44.65230388792183" lon="9.735180705498164"><ele>683.0</ele><time>2026-04-25T08:20:26.999Z</time></trkpt><trkpt lat="44.65215784320128" lon="9.735324008141756"><ele>683.0</ele><time>2026-04-25T08:20:27.999Z</time></trkpt><trkpt lat="44.65199721033797" lon="9.735486575290329"><ele>683.0</ele><time>2026-04-25T08:20:28.999Z</time></trkpt><trkpt lat="44.65183668660216" lon="9.73564849492986"><ele>683.0</ele><time>2026-04-25T08:20:29.999Z</time></trkpt><trkpt lat="44.65168222809481" lon="9.735813644815863"><ele>683.0</ele><time>2026-04-25T08:20:30.999Z</time></trkpt><trkpt lat="44.651530660287776" lon="9.735973894739756"><ele>683.3333333333333</ele><time>2026-04-25T08:20:31.999Z</time></trkpt><trkpt lat="44.65137904633095" lon="9.736121466871175"><ele>683.6666666666666</ele><time>2026-04-25T08:20:32.999Z</time></trkpt><trkpt lat="44.65123693250104" lon="9.736242197921083"><ele>684.0</ele><time>2026-04-25T08:20:33.999Z</time></trkpt><trkpt lat="44.65109676958959" lon="9.736290168373824"><ele>684.0</ele><time>2026-04-25T08:20:34.999Z</time></trkpt><trkpt lat="44.6509742036121" lon="9.736276169780504"><ele>684.0</ele><time>2026-04-25T08:20:35.999Z</time></trkpt><trkpt lat="44.65083440571697" lon="9.736266550244212"><ele>684.0</ele><time>2026-04-25T08:20:36.999Z</time></trkpt><trkpt lat="44.65070426074498" lon="9.736269562196496"><ele>684.0</ele><time>2026-04-25T08:20:37.999Z</time></trkpt><trkpt lat="44.6505745757393" lon="9.73633647007974"><ele>684.0</ele><time>2026-04-25T08:20:38.999Z</time></trkpt><trkpt lat="44.65045944661894" lon="9.736476093610115"><ele>684.0</ele><time>2026-04-25T08:20:39.999Z</time></trkpt><trkpt lat="44.65036037956088" lon="9.736599016193587"><ele>684.0</ele><time>2026-04-25T08:20:40.999Z</time></trkpt><trkpt lat="44.65026585803138" lon="9.736628578306005"><ele>684.0</ele><time>2026-04-25T08:20:41.999Z</time></trkpt><trkpt lat="44.65017292305309" lon="9.736533993160307"><ele>682.75</ele><time>2026-04-25T08:20:42.999Z</time></trkpt><trkpt lat="44.650086163393006" lon="9.73638613149832"><ele>681.5</ele><time>2026-04-25T08:20:43.999Z</time></trkpt><trkpt lat="44.649956861991896" lon="9.736256143850778"><ele>680.25</ele><time>2026-04-25T08:20:44.999Z</time></trkpt><trkpt lat="44.64983379673185" lon="9.736134333313109"><ele>679.0</ele><time>2026-04-25T08:20:45.999Z</time></trkpt><trkpt lat="44.649695463137334" lon="9.736042517162863"><ele>680.3333333333334</ele><time>2026-04-25T08:20:46.999Z</time></trkpt><trkpt lat="44.649603546237515" lon="9.735892080702799"><ele>681.6666666666666</ele><time>2026-04-25T08:20:47.999Z</time></trkpt><trkpt lat="44.64950883030084" lon="9.735711093915448"><ele>683.0</ele><time>2026-04-25T08:20:48.999Z</time></trkpt><trkpt lat="44.64940364913013" lon="9.735522914378494"><ele>683.0</ele><time>2026-04-25T08:20:49.999Z</time></trkpt><trkpt lat="44.649281835177995" lon="9.735346188687148"><ele>683.0</ele><time>2026-04-25T08:20:50.999Z</time></trkpt><trkpt lat="44.649174030676754" lon="9.735190605484272"><ele>683.0</ele><time>2026-04-25T08:20:51.999Z</time></trkpt><trkpt lat="44.64906668726318" lon="9.73508302868061"><ele>683.0</ele><time>2026-04-25T08:20:52.999Z</time></trkpt><trkpt lat="44.64895068739239" lon="9.735049900615483"><ele>683.0</ele><time>2026-04-25T08:20:54Z</time></trkpt><trkpt lat="44.64881843499256" lon="9.735093831229767"><ele>683.0</ele><time>2026-04-25T08:20:55Z</time></trkpt><trkpt lat="44.648669580815024" lon="9.735195833151568"><ele>683.0</ele><time>2026-04-25T08:20:56Z</time></trkpt><trkpt lat="44.648505791892546" lon="9.735253665611763"><ele>683.0</ele><time>2026-04-25T08:20:57Z</time></trkpt><trkpt lat="44.648327863827845" lon="9.735289443177399"><ele>683.0</ele><time>2026-04-25T08:20:58Z</time></trkpt><trkpt lat="44.64812298365989" lon="9.735307306366936"><ele>683.0</ele><time>2026-04-25T08:20:59Z</time></trkpt><trkpt lat="44.6479181861296" lon="9.735342970043353"><ele>684.3333333333333</ele><time>2026-04-25T08:21:00Z</time></trkpt><trkpt lat="44.64772303906084" lon="9.73536135237323"><ele>685.6666666666666</ele><time>2026-04-25T08:21:01Z</time></trkpt><trkpt lat="44.64754050652143" lon="9.735406198398625"><ele>687.0</ele><time>2026-04-25T08:21:02Z</time></trkpt><trkpt lat="44.64737341067386" lon="9.735489774858094"><ele>687.0</ele><time>2026-04-25T08:21:03Z</time></trkpt><trkpt lat="44.647235655174825" lon="9.735613833242446"><ele>687.0</ele><time>2026-04-25T08:21:04Z</time></trkpt><trkpt lat="44.64713821853058" lon="9.735781325892638"><ele>687.0</ele><time>2026-04-25T08:21:05Z</time></trkpt><trkpt lat="44.647053339043296" lon="9.73594387496465"><ele>687.75</ele><time>2026-04-25T08:21:06Z</time></trkpt><trkpt lat="44.64695290795115" lon="9.736012504795308"><ele>688.5</ele><time>2026-04-25T08:21:07Z</time></trkpt><trkpt lat="44.64684622373744" lon="9.73600419690138"><ele>689.25</ele><time>2026-04-25T08:21:08Z</time></trkpt><trkpt lat="44.64674054711793" lon="9.735950948369894"><ele>690.0</ele><time>2026-04-25T08:21:09Z</time></trkpt><trkpt lat="44.64662687963247" lon="9.735839996211396"><ele>690.0</ele><time>2026-04-25T08:21:10Z</time></trkpt><trkpt lat="44.64648846383988" lon="9.73571262907124"><ele>690.0</ele><time>2026-04-25T08:21:11Z</time></trkpt><trkpt lat="44.64637157933184" lon="9.735581046890887"><ele>690.0</ele><time>2026-04-25T08:21:12Z</time></trkpt><trkpt lat="44.646304678035705" lon="9.735433081102013"><ele>690.0</ele><time>2026-04-25T08:21:13Z</time></trkpt><trkpt lat="44.64627711675977" lon="9.735269939688635"><ele>691.5</ele><time>2026-04-25T08:21:14Z</time></trkpt><trkpt lat="44.64627311676446" lon="9.735065454704802"><ele>693.0</ele><time>2026-04-25T08:21:15Z</time></trkpt><trkpt lat="44.64626355828818" lon="9.73487795046305"><ele>694.5</ele><time>2026-04-25T08:21:16Z</time></trkpt><trkpt lat="44.64624056945783" lon="9.73472492877903"><ele>696.0</ele><time>2026-04-25T08:21:17Z</time></trkpt><trkpt lat="44.64615147139459" lon="9.734571004486163"><ele>694.3333333333334</ele><time>2026-04-25T08:21:18Z</time></trkpt><trkpt lat="44.646024366573414" lon="9.734405994653093"><ele>692.6666666666667</ele><time>2026-04-25T08:21:19Z</time></trkpt><trkpt lat="44.64590186153384" lon="9.734248602744907"><ele>691.0</ele><time>2026-04-25T08:21:20Z</time></trkpt><trkpt lat="44.645763299741134" lon="9.73409493345467"><ele>691.0</ele><time>2026-04-25T08:21:21Z</time></trkpt><trkpt lat="44.64560021531085" lon="9.733994502430404"><ele>691.0</ele><time>2026-04-25T08:21:22Z</time></trkpt><trkpt lat="44.645418415220995" lon="9.73392739002262"><ele>691.0</ele><time>2026-04-25T08:21:23Z</time></trkpt><trkpt lat="44.64522805902199" lon="9.733914813439963"><ele>689.6666666666667</ele><time>2026-04-25T08:21:24Z</time></trkpt><trkpt lat="44.645048169528586" lon="9.733938799223676"><ele>688.3333333333334</ele><time>2026-04-25T08:21:25Z</time></trkpt><trkpt lat="44.644910762772106" lon="9.73398059554628"><ele>687.0</ele><time>2026-04-25T08:21:26Z</time></trkpt><trkpt lat="44.64479337677151" lon="9.73406882736072"><ele>687.0</ele><time>2026-04-25T08:21:27Z</time></trkpt><trkpt lat="44.64469214518984" lon="9.73422657863486"><ele>687.0</ele><time>2026-04-25T08:21:28Z</time></trkpt><trkpt lat="44.64458489929106" lon="9.734429914019946"><ele>687.0</ele><time>2026-04-25T08:21:29Z</time></trkpt><trkpt lat="44.64448920612705" lon="9.734639133870479"><ele>683.3333333333334</ele><time>2026-04-25T08:21:30Z</time></trkpt><trkpt lat="44.644408126971086" lon="9.734859399162927"><ele>679.6666666666667</ele><time>2026-04-25T08:21:31Z</time></trkpt><trkpt lat="44.64434915132362" lon="9.735093121075996"><ele>676.0</ele><time>2026-04-25T08:21:32Z</time></trkpt><trkpt lat="44.64427191244591" lon="9.73530056186902"><ele>673.0</ele><time>2026-04-25T08:21:33Z</time></trkpt><trkpt lat="44.64413064837335" lon="9.73547590186291"><ele>670.0</ele><time>2026-04-25T08:21:34Z</time></trkpt><trkpt lat="44.64399912705844" lon="9.735690858778957"><ele>667.0</ele><time>2026-04-25T08:21:35Z</time></trkpt><trkpt lat="44.6438566711746" lon="9.735888788566026"><ele>664.3333333333334</ele><time>2026-04-25T08:21:36Z</time></trkpt><trkpt lat="44.643740569340444" lon="9.736072269822294"><ele>661.6666666666666</ele><time>2026-04-25T08:21:37Z</time></trkpt><trkpt lat="44.64364285282096" lon="9.73623704082994"><ele>659.0</ele><time>2026-04-25T08:21:38Z</time></trkpt><trkpt lat="44.6435290902975" lon="9.736338437749728"><ele>659.0</ele><time>2026-04-25T08:21:39Z</time></trkpt><trkpt lat="44.64340248988931" lon="9.73642861430582"><ele>659.0</ele><time>2026-04-25T08:21:40Z</time></trkpt><trkpt lat="44.64329906364069" lon="9.736460566644654"><ele>659.0</ele><time>2026-04-25T08:21:41Z</time></trkpt><trkpt lat="44.64322305857321" lon="9.73642034468933"><ele>659.0</ele><time>2026-04-25T08:21:42Z</time></trkpt><trkpt lat="44.64316640923482" lon="9.736290109202137"><ele>659.0</ele><time>2026-04-25T08:21:43Z</time></trkpt><trkpt lat="44.64312175499288" lon="9.736107184671537"><ele>659.3333333333333</ele><time>2026-04-25T08:21:44Z</time></trkpt><trkpt lat="44.64303705228643" lon="9.73595489360899"><ele>659.6666666666666</ele><time>2026-04-25T08:21:45Z</time></trkpt><trkpt lat="44.64290037714989" lon="9.735848588463412"><ele>660.0</ele><time>2026-04-25T08:21:46Z</time></trkpt><trkpt lat="44.642715785007304" lon="9.735790909595861"><ele>660.0</ele><time>2026-04-25T08:21:47Z</time></trkpt><trkpt lat="44.64256454664384" lon="9.735704548167442"><ele>660.0</ele><time>2026-04-25T08:21:48Z</time></trkpt><trkpt lat="44.64243940109268" lon="9.735573758258335"><ele>660.0</ele><time>2026-04-25T08:21:49Z</time></trkpt><trkpt lat="44.64231974566499" lon="9.735477961482765"><ele>660.0</ele><time>2026-04-25T08:21:50Z</time></trkpt><trkpt lat="44.6422292362427" lon="9.735403317786849"><ele>660.0</ele><time>2026-04-25T08:21:51Z</time></trkpt><trkpt lat="44.642149443479674" lon="9.735416498272373"><ele>660.0</ele><time>2026-04-25T08:21:52Z</time></trkpt><trkpt lat="44.64207540804239" lon="9.735527909740496"><ele>660.0</ele><time>2026-04-25T08:21:53Z</time></trkpt><trkpt lat="44.64203540356825" lon="9.735719232652901"><ele>660.0</ele><time>2026-04-25T08:21:54Z</time></trkpt><trkpt lat="44.642009695743916" lon="9.735956415504651"><ele>659.6666666666666</ele><time>2026-04-25T08:21:55Z</time></trkpt><trkpt lat="44.64194127273041" lon="9.736153176405399"><ele>659.3333333333333</ele><time>2026-04-25T08:21:56Z</time></trkpt><trkpt lat="44.64183809307383" lon="9.736283283923573"><ele>659.0</ele><time>2026-04-25T08:21:57Z</time></trkpt><trkpt lat="44.64171703061779" lon="9.736434992267986"><ele>659.0</ele><time>2026-04-25T08:21:58Z</time></trkpt><trkpt lat="44.6415957951379" lon="9.73659970602509"><ele>659.0</ele><time>2026-04-25T08:21:59Z</time></trkpt><trkpt lat="44.64146501413538" lon="9.736769377369074"><ele>659.0</ele><time>2026-04-25T08:22:00Z</time></trkpt><trkpt lat="44.641355592399634" lon="9.736901058184376"><ele>656.0</ele><time>2026-04-25T08:22:01Z</time></trkpt><trkpt lat="44.64125618448995" lon="9.73704473287558"><ele>653.0</ele><time>2026-04-25T08:22:02Z</time></trkpt><trkpt lat="44.641193986678196" lon="9.737219292656674"><ele>650.0</ele><time>2026-04-25T08:22:03Z</time></trkpt><trkpt lat="44.641176260699304" lon="9.737441977350324"><ele>647.0</ele><time>2026-04-25T08:22:04Z</time></trkpt><trkpt lat="44.64117916622754" lon="9.737646538851488"><ele>647.75</ele><time>2026-04-25T08:22:05Z</time></trkpt><trkpt lat="44.641124147244916" lon="9.737809363507896"><ele>648.5</ele><time>2026-04-25T08:22:06Z</time></trkpt><trkpt lat="44.6410516013263" lon="9.737965025957244"><ele>649.25</ele><time>2026-04-25T08:22:07Z</time></trkpt><trkpt lat="44.640941346631855" lon="9.738123328978366"><ele>650.0</ele><time>2026-04-25T08:22:08Z</time></trkpt><trkpt lat="44.64080704683853" lon="9.738278957202576"><ele>650.0</ele><time>2026-04-25T08:22:08.999Z</time></trkpt><trkpt lat="44.64068640859317" lon="9.738435661075481"><ele>650.0</ele><time>2026-04-25T08:22:09.999Z</time></trkpt><trkpt lat="44.64056934294368" lon="9.738555872536754"><ele>650.0</ele><time>2026-04-25T08:22:10.999Z</time></trkpt><trkpt lat="44.640446311977264" lon="9.738685906652886"><ele>648.25</ele><time>2026-04-25T08:22:11.999Z</time></trkpt><trkpt lat="44.64033138395164" lon="9.738820465139737"><ele>646.5</ele><time>2026-04-25T08:22:12.999Z</time></trkpt><trkpt lat="44.64023072430158" lon="9.738930950164926"><ele>644.75</ele><time>2026-04-25T08:22:13.999Z</time></trkpt><trkpt lat="44.6401434671554" lon="9.738984766062448"><ele>643.0</ele><time>2026-04-25T08:22:14.999Z</time></trkpt><trkpt lat="44.64005797699076" lon="9.738963528571379"><ele>643.0</ele><time>2026-04-25T08:22:15.999Z</time></trkpt><trkpt lat="44.63998341242351" lon="9.738841545290901"><ele>643.0</ele><time>2026-04-25T08:22:16.999Z</time></trkpt><trkpt lat="44.63993261103657" lon="9.73867737887765"><ele>643.0</ele><time>2026-04-25T08:22:17.999Z</time></trkpt><trkpt lat="44.639862372108276" lon="9.738504762702755"><ele>643.0</ele><time>2026-04-25T08:22:18.999Z</time></trkpt><trkpt lat="44.63980941827843" lon="9.738324149595746"><ele>644.25</ele><time>2026-04-25T08:22:19.999Z</time></trkpt><trkpt lat="44.639752894183246" lon="9.738142858385096"><ele>645.5</ele><time>2026-04-25T08:22:20.999Z</time></trkpt><trkpt lat="44.63968272091556" lon="9.737967292253161"><ele>646.75</ele><time>2026-04-25T08:22:21.999Z</time></trkpt><trkpt lat="44.63958884837006" lon="9.737815690727682"><ele>648.0</ele><time>2026-04-25T08:22:22.999Z</time></trkpt><trkpt lat="44.63949124328412" lon="9.737685716564632"><ele>644.5</ele><time>2026-04-25T08:22:23.999Z</time></trkpt><trkpt lat="44.639421470783766" lon="9.737559275389987"><ele>641.0</ele><time>2026-04-25T08:22:24.999Z</time></trkpt><trkpt lat="44.63937489585887" lon="9.73741101997589"><ele>637.5</ele><time>2026-04-25T08:22:25.999Z</time></trkpt><trkpt lat="44.63937195848964" lon="9.737243197384018"><ele>634.0</ele><time>2026-04-25T08:22:26.999Z</time></trkpt><trkpt lat="44.639363992245606" lon="9.737072381766097"><ele>634.0</ele><time>2026-04-25T08:22:27.999Z</time></trkpt><trkpt lat="44.63934152720548" lon="9.736898519523544"><ele>634.0</ele><time>2026-04-25T08:22:28.999Z</time></trkpt><trkpt lat="44.63931205866803" lon="9.736726529836456"><ele>634.0</ele><time>2026-04-25T08:22:29.999Z</time></trkpt><trkpt lat="44.63925121350431" lon="9.73658183603286"><ele>634.0</ele><time>2026-04-25T08:22:30.999Z</time></trkpt><trkpt lat="44.63916549455189" lon="9.736431227464653"><ele>634.5</ele><time>2026-04-25T08:22:31.999Z</time></trkpt><trkpt lat="44.63907414773973" lon="9.736278204488906"><ele>635.0</ele><time>2026-04-25T08:22:32.999Z</time></trkpt><trkpt lat="44.63900409008304" lon="9.736139124434159"><ele>635.5</ele><time>2026-04-25T08:22:33.999Z</time></trkpt><trkpt lat="44.6389370124186" lon="9.736018335417041"><ele>636.0</ele><time>2026-04-25T08:22:34.999Z</time></trkpt><trkpt lat="44.6388469362826" lon="9.735904652330568"><ele>634.75</ele><time>2026-04-25T08:22:35.999Z</time></trkpt><trkpt lat="44.63873779194876" lon="9.73583678609843"><ele>633.5</ele><time>2026-04-25T08:22:36.999Z</time></trkpt><trkpt lat="44.63858471740743" lon="9.735805731254635"><ele>632.25</ele><time>2026-04-25T08:22:37.999Z</time></trkpt><trkpt lat="44.63842141442267" lon="9.735768676491144"><ele>631.0</ele><time>2026-04-25T08:22:38.999Z</time></trkpt><trkpt lat="44.638257449558076" lon="9.735694547613422"><ele>631.0</ele><time>2026-04-25T08:22:39.999Z</time></trkpt><trkpt lat="44.63811149757546" lon="9.735663495923012"><ele>631.0</ele><time>2026-04-25T08:22:40.999Z</time></trkpt><trkpt lat="44.63799680012121" lon="9.735604379534731"><ele>631.0</ele><time>2026-04-25T08:22:41.999Z</time></trkpt><trkpt lat="44.63791194717393" lon="9.735530202788045"><ele>631.0</ele><time>2026-04-25T08:22:42.999Z</time></trkpt><trkpt lat="44.6378512430443" lon="9.735398073007024"><ele>630.25</ele><time>2026-04-25T08:22:43.999Z</time></trkpt><trkpt lat="44.63779072283339" lon="9.735228211358207"><ele>629.5</ele><time>2026-04-25T08:22:44.999Z</time></trkpt><trkpt lat="44.637702399950726" lon="9.735047838777934"><ele>628.75</ele><time>2026-04-25T08:22:45.999Z</time></trkpt><trkpt lat="44.63761723895352" lon="9.73490698649837"><ele>628.0</ele><time>2026-04-25T08:22:46.999Z</time></trkpt><trkpt lat="44.63748300781961" lon="9.734830474973668"><ele>628.0</ele><time>2026-04-25T08:22:47.999Z</time></trkpt><trkpt lat="44.63733171566505" lon="9.734811452855894"><ele>628.0</ele><time>2026-04-25T08:22:48.999Z</time></trkpt><trkpt lat="44.637198629843034" lon="9.734786500654673"><ele>628.0</ele><time>2026-04-25T08:22:49.999Z</time></trkpt><trkpt lat="44.637114062278336" lon="9.734668219205616"><ele>628.0</ele><time>2026-04-25T08:22:50.999Z</time></trkpt><trkpt lat="44.63705685067349" lon="9.734518024315056"><ele>627.0</ele><time>2026-04-25T08:22:51.999Z</time></trkpt><trkpt lat="44.63701594126386" lon="9.734338917386046"><ele>626.0</ele><time>2026-04-25T08:22:52.999Z</time></trkpt><trkpt lat="44.63696209000213" lon="9.734179601111148"><ele>625.0</ele><time>2026-04-25T08:22:53.999Z</time></trkpt><trkpt lat="44.63690192119571" lon="9.734069076913364"><ele>624.0</ele><time>2026-04-25T08:22:54.999Z</time></trkpt><trkpt lat="44.63680616997733" lon="9.734023043922182"><ele>624.0</ele><time>2026-04-25T08:22:55.999Z</time></trkpt><trkpt lat="44.63668900243435" lon="9.734018988968804"><ele>624.0</ele><time>2026-04-25T08:22:56.999Z</time></trkpt><trkpt lat="44.63656264460524" lon="9.734125669903786"><ele>624.0</ele><time>2026-04-25T08:22:57.999Z</time></trkpt><trkpt lat="44.636444524153916" lon="9.734085701839247"><ele>624.0</ele><time>2026-04-25T08:22:58.999Z</time></trkpt><trkpt lat="44.63633414932739" lon="9.734018310110837"><ele>624.0</ele><time>2026-04-25T08:23:00Z</time></trkpt><trkpt lat="44.636235966435436" lon="9.733887285765725"><ele>624.0</ele><time>2026-04-25T08:23:01Z</time></trkpt><trkpt lat="44.6361431952103" lon="9.7337276927637"><ele>624.0</ele><time>2026-04-25T08:23:02Z</time></trkpt><trkpt lat="44.63604116267184" lon="9.733573725633674"><ele>624.0</ele><time>2026-04-25T08:23:03Z</time></trkpt><trkpt lat="44.635953972013475" lon="9.733396129037356"><ele>623.0</ele><time>2026-04-25T08:23:04Z</time></trkpt><trkpt lat="44.635860844675804" lon="9.733228888356768"><ele>622.0</ele><time>2026-04-25T08:23:05Z</time></trkpt><trkpt lat="44.635760655442084" lon="9.733092281833239"><ele>621.0</ele><time>2026-04-25T08:23:06Z</time></trkpt><trkpt lat="44.63563288145264" lon="9.733015830020793"><ele>620.0</ele><time>2026-04-25T08:23:07Z</time></trkpt><trkpt lat="44.635472985531706" lon="9.732999640410346"><ele>620.0</ele><time>2026-04-25T08:23:08Z</time></trkpt><trkpt lat="44.635315417308504" lon="9.733010211795754"><ele>620.0</ele><time>2026-04-25T08:23:09Z</time></trkpt><trkpt lat="44.63518152285606" lon="9.733011096049895"><ele>620.0</ele><time>2026-04-25T08:23:10Z</time></trkpt><trkpt lat="44.63507434368018" lon="9.732978629123613"><ele>620.0</ele><time>2026-04-25T08:23:11Z</time></trkpt><trkpt lat="44.63498754003485" lon="9.732884643871051"><ele>618.25</ele><time>2026-04-25T08:23:12Z</time></trkpt><trkpt lat="44.63492935762175" lon="9.732722790293662"><ele>616.5</ele><time>2026-04-25T08:23:13Z</time></trkpt><trkpt lat="44.63490011689897" lon="9.732540302007239"><ele>614.75</ele><time>2026-04-25T08:23:14Z</time></trkpt><trkpt lat="44.6348852022962" lon="9.73236482636738"><ele>613.0</ele><time>2026-04-25T08:23:15Z</time></trkpt><trkpt lat="44.6349337335105" lon="9.732192241146196"><ele>613.0</ele><time>2026-04-25T08:23:16Z</time></trkpt><trkpt lat="44.63494238799044" lon="9.73201343014733"><ele>613.0</ele><time>2026-04-25T08:23:17Z</time></trkpt><trkpt lat="44.63492260821574" lon="9.731841919841719"><ele>613.0</ele><time>2026-04-25T08:23:18Z</time></trkpt><trkpt lat="44.63484239557558" lon="9.731679599125195"><ele>613.0</ele><time>2026-04-25T08:23:19Z</time></trkpt><trkpt lat="44.63473813298851" lon="9.731525078148367"><ele>613.75</ele><time>2026-04-25T08:23:20Z</time></trkpt><trkpt lat="44.6346382689227" lon="9.731383682617984"><ele>614.5</ele><time>2026-04-25T08:23:21Z</time></trkpt><trkpt lat="44.63455040125451" lon="9.731248971534484"><ele>615.25</ele><time>2026-04-25T08:23:22Z</time></trkpt><trkpt lat="44.634465155587556" lon="9.731124040703383"><ele>616.0</ele><time>2026-04-25T08:23:23Z</time></trkpt><trkpt lat="44.63437126499549" lon="9.731029707769155"><ele>616.25</ele><time>2026-04-25T08:23:24Z</time></trkpt><trkpt lat="44.63426303531442" lon="9.730975262295631"><ele>616.5</ele><time>2026-04-25T08:23:25Z</time></trkpt><trkpt lat="44.63414108044915" lon="9.730973663262514"><ele>616.75</ele><time>2026-04-25T08:23:26Z</time></trkpt><trkpt lat="44.63401451971579" lon="9.731008368914638"><ele>617.0</ele><time>2026-04-25T08:23:27Z</time></trkpt><trkpt lat="44.63389040753941" lon="9.731056993146959"><ele>615.0</ele><time>2026-04-25T08:23:28Z</time></trkpt><trkpt lat="44.63378216878153" lon="9.731108723287573"><ele>613.0</ele><time>2026-04-25T08:23:29Z</time></trkpt><trkpt lat="44.633688371206745" lon="9.731186246712475"><ele>611.0</ele><time>2026-04-25T08:23:30Z</time></trkpt><trkpt lat="44.6336056261836" lon="9.731309984928554"><ele>609.0</ele><time>2026-04-25T08:23:31Z</time></trkpt><trkpt lat="44.63353237167844" lon="9.731446551305691"><ele>609.0</ele><time>2026-04-25T08:23:32Z</time></trkpt><trkpt lat="44.63346564872006" lon="9.731580309675397"><ele>609.0</ele><time>2026-04-25T08:23:33Z</time></trkpt><trkpt lat="44.6333968465997" lon="9.731706875834544"><ele>609.0</ele><time>2026-04-25T08:23:34Z</time></trkpt><trkpt lat="44.63333444090436" lon="9.731820910679462"><ele>609.0</ele><time>2026-04-25T08:23:35Z</time></trkpt><trkpt lat="44.6332676037422" lon="9.731911974115926"><ele>609.0</ele><time>2026-04-25T08:23:36Z</time></trkpt><trkpt lat="44.63319096103779" lon="9.731958704097924"><ele>609.0</ele><time>2026-04-25T08:23:37Z</time></trkpt><trkpt lat="44.6330855368782" lon="9.73191718585436"><ele>609.0</ele><time>2026-04-25T08:23:38Z</time></trkpt><trkpt lat="44.63301037741943" lon="9.731828686118071"><ele>609.0</ele><time>2026-04-25T08:23:39Z</time></trkpt><trkpt lat="44.63292411080151" lon="9.731793093002935"><ele>609.0</ele><time>2026-04-25T08:23:40Z</time></trkpt><trkpt lat="44.632835684011106" lon="9.731737105263498"><ele>609.0</ele><time>2026-04-25T08:23:41Z</time></trkpt><trkpt lat="44.632755688820765" lon="9.73169348117877"><ele>609.0</ele><time>2026-04-25T08:23:42Z</time></trkpt><trkpt lat="44.63268337361352" lon="9.731654513099059"><ele>609.0</ele><time>2026-04-25T08:23:43Z</time></trkpt><trkpt lat="44.6326357151714" lon="9.73158035674753"><ele>609.0</ele><time>2026-04-25T08:23:44Z</time></trkpt><trkpt lat="44.6325731633533" lon="9.731463781749152"><ele>609.0</ele><time>2026-04-25T08:23:46Z</time></trkpt><trkpt lat="44.63254117208856" lon="9.731363057664549"><ele>609.0</ele><time>2026-04-25T08:23:48Z</time></trkpt><trkpt lat="44.63250238168942" lon="9.73127611745483"><ele>609.0</ele><time>2026-04-25T08:23:50Z</time></trkpt><trkpt lat="44.63244996610416" lon="9.731181758432315"><ele>609.0</ele><time>2026-04-25T08:23:53Z</time></trkpt><trkpt lat="44.63241944673512" lon="9.73109446313281"><ele>609.0</ele><time>2026-04-25T08:23:57Z</time></trkpt><trkpt lat="44.6324159926479" lon="9.731004861897997"><ele>609.0</ele><time>2026-04-25T08:24:03Z</time></trkpt><trkpt lat="44.632437714980085" lon="9.731104146355845"><ele>609.0</ele><time>2026-04-25T08:25:48Z</time></trkpt><trkpt lat="44.63249406505148" lon="9.731151370450355"><ele>609.0</ele><time>2026-04-25T08:31:12.999Z</time></trkpt><trkpt lat="44.632447097293024" lon="9.73121129773441"><ele>609.0</ele><time>2026-04-25T08:32:04Z</time></trkpt><trkpt lat="44.63244094918083" lon="9.731121184063518"><ele>609.0</ele><time>2026-04-25T08:32:19Z</time></trkpt><trkpt lat="44.63242162251585" lon="9.731025251645637"><ele>609.5</ele><time>2026-04-25T08:32:29Z</time></trkpt><trkpt lat="44.6323022109181" lon="9.730998106742845"><ele>610.0</ele><time>2026-04-25T08:36:18Z</time></trkpt><trkpt lat="44.63225457791873" lon="9.730922661444401"><ele>610.5</ele><time>2026-04-25T08:36:20Z</time></trkpt><trkpt lat="44.632176481308676" lon="9.730917284054453"><ele>611.0</ele><time>2026-04-25T08:36:28Z</time></trkpt><trkpt lat="44.63211760546019" lon="9.730963673474964"><ele>611.5</ele><time>2026-04-25T08:36:33Z</time></trkpt><trkpt lat="44.63219213307001" lon="9.730900778996409"><ele>612.0</ele><time>2026-04-25T08:41:03.999Z</time></trkpt><trkpt lat="44.632246957105046" lon="9.730835926055967"><ele>612.0</ele><time>2026-04-25T08:41:14.999Z</time></trkpt><trkpt lat="44.63219554811269" lon="9.730652127582653"><ele>612.0</ele><time>2026-04-25T08:41:16.999Z</time></trkpt><trkpt lat="44.632148184710836" lon="9.730514720050957"><ele>612.0</ele><time>2026-04-25T08:41:17.999Z</time></trkpt><trkpt lat="44.63211079318421" lon="9.730342233209765"><ele>612.0</ele><time>2026-04-25T08:41:18.999Z</time></trkpt><trkpt lat="44.63207868289583" lon="9.730199522379344"><ele>612.8000000000001</ele><time>2026-04-25T08:41:19.999Z</time></trkpt><trkpt lat="44.63201412582865" lon="9.730073695214378"><ele>613.6</ele><time>2026-04-25T08:41:20.999Z</time></trkpt><trkpt lat="44.63193723983296" lon="9.729948964822299"><ele>614.4000000000001</ele><time>2026-04-25T08:41:21.999Z</time></trkpt><trkpt lat="44.63186864958022" lon="9.729826626902428"><ele>615.2</ele><time>2026-04-25T08:41:22.999Z</time></trkpt><trkpt lat="44.63180295951007" lon="9.729702410250514"><ele>616.0</ele><time>2026-04-25T08:41:23.999Z</time></trkpt><trkpt lat="44.63173412931553" lon="9.72958948308197"><ele>614.5</ele><time>2026-04-25T08:41:24.999Z</time></trkpt><trkpt lat="44.63167056669848" lon="9.72947747201747"><ele>613.0</ele><time>2026-04-25T08:41:25.999Z</time></trkpt><trkpt lat="44.63157326231631" lon="9.72939040256868"><ele>611.5</ele><time>2026-04-25T08:41:26.999Z</time></trkpt><trkpt lat="44.63145001798963" lon="9.729341729258975"><ele>610.0</ele><time>2026-04-25T08:41:27.999Z</time></trkpt><trkpt lat="44.63132475914656" lon="9.729303550321275"><ele>610.0</ele><time>2026-04-25T08:41:28.999Z</time></trkpt><trkpt lat="44.631207226996565" lon="9.729272484718411"><ele>610.0</ele><time>2026-04-25T08:41:29.999Z</time></trkpt><trkpt lat="44.63111390423594" lon="9.729214889078031"><ele>610.0</ele><time>2026-04-25T08:41:30.999Z</time></trkpt><trkpt lat="44.63105126189481" lon="9.729119309154488"><ele>610.0</ele><time>2026-04-25T08:41:31.999Z</time></trkpt><trkpt lat="44.630981477661244" lon="9.728979578083486"><ele>610.0</ele><time>2026-04-25T08:41:32.999Z</time></trkpt><trkpt lat="44.63092211620535" lon="9.728811870100095"><ele>608.0</ele><time>2026-04-25T08:41:33.999Z</time></trkpt><trkpt lat="44.63086061221578" lon="9.728671196370925"><ele>606.0</ele><time>2026-04-25T08:41:34.999Z</time></trkpt><trkpt lat="44.630796888442774" lon="9.728547594567084"><ele>604.0</ele><time>2026-04-25T08:41:35.999Z</time></trkpt><trkpt lat="44.63073507454953" lon="9.728424789688459"><ele>602.0</ele><time>2026-04-25T08:41:36.999Z</time></trkpt><trkpt lat="44.630694532389796" lon="9.728297206405488"><ele>600.0</ele><time>2026-04-25T08:41:37.999Z</time></trkpt><trkpt lat="44.63068144150326" lon="9.728161034398454"><ele>600.0</ele><time>2026-04-25T08:41:38.999Z</time></trkpt><trkpt lat="44.63069073836036" lon="9.728022501074438"><ele>600.0</ele><time>2026-04-25T08:41:39.999Z</time></trkpt><trkpt lat="44.63070487584333" lon="9.72789985236907"><ele>600.0</ele><time>2026-04-25T08:41:40.999Z</time></trkpt><trkpt lat="44.63071236576505" lon="9.72777818736244"><ele>600.0</ele><time>2026-04-25T08:41:41.999Z</time></trkpt><trkpt lat="44.63069251705705" lon="9.72767154246842"><ele>600.0</ele><time>2026-04-25T08:41:42.999Z</time></trkpt><trkpt lat="44.63065031829689" lon="9.727552882900993"><ele>600.0</ele><time>2026-04-25T08:41:43.999Z</time></trkpt><trkpt lat="44.63060904535578" lon="9.727412236096901"><ele>600.75</ele><time>2026-04-25T08:41:44.999Z</time></trkpt><trkpt lat="44.63056457625329" lon="9.727253802188379"><ele>601.5</ele><time>2026-04-25T08:41:45.999Z</time></trkpt><trkpt lat="44.6305208163087" lon="9.727097287322685"><ele>602.25</ele><time>2026-04-25T08:41:46.999Z</time></trkpt><trkpt lat="44.63051335267313" lon="9.726942385743104"><ele>603.0</ele><time>2026-04-25T08:41:47.999Z</time></trkpt><trkpt lat="44.630500713667786" lon="9.7267994842694"><ele>603.4</ele><time>2026-04-25T08:41:48.999Z</time></trkpt><trkpt lat="44.63049157607461" lon="9.726664727394757"><ele>603.8</ele><time>2026-04-25T08:41:49.999Z</time></trkpt><trkpt lat="44.630444759951416" lon="9.726550544154502"><ele>604.2</ele><time>2026-04-25T08:41:50.999Z</time></trkpt><trkpt lat="44.6303549066455" lon="9.726457488191622"><ele>604.6</ele><time>2026-04-25T08:41:51.999Z</time></trkpt><trkpt lat="44.630238230060684" lon="9.726386517752754"><ele>605.0</ele><time>2026-04-25T08:41:52.999Z</time></trkpt><trkpt lat="44.63011176278016" lon="9.726358321203726"><ele>599.25</ele><time>2026-04-25T08:41:53.999Z</time></trkpt><trkpt lat="44.629980782240956" lon="9.72634609800897"><ele>593.5</ele><time>2026-04-25T08:41:55Z</time></trkpt><trkpt lat="44.62986548564748" lon="9.726294910979874"><ele>587.75</ele><time>2026-04-25T08:41:56Z</time></trkpt><trkpt lat="44.62975536101368" lon="9.726209604592812"><ele>582.0</ele><time>2026-04-25T08:41:57Z</time></trkpt><trkpt lat="44.62964670986923" lon="9.72611925344443"><ele>579.75</ele><time>2026-04-25T08:41:58Z</time></trkpt><trkpt lat="44.62956099706199" lon="9.72600619606713"><ele>577.5</ele><time>2026-04-25T08:41:59Z</time></trkpt><trkpt lat="44.62948786881015" lon="9.725864686803105"><ele>575.25</ele><time>2026-04-25T08:42:00Z</time></trkpt><trkpt lat="44.62941575378877" lon="9.725709168793447"><ele>573.0</ele><time>2026-04-25T08:42:01Z</time></trkpt><trkpt lat="44.6293342631658" lon="9.7255608185139"><ele>573.0</ele><time>2026-04-25T08:42:02Z</time></trkpt><trkpt lat="44.62926325213149" lon="9.72540734065458"><ele>573.0</ele><time>2026-04-25T08:42:03Z</time></trkpt><trkpt lat="44.629212640792346" lon="9.72524606534201"><ele>573.0</ele><time>2026-04-25T08:42:04Z</time></trkpt><trkpt lat="44.62917251812416" lon="9.725088232770313"><ele>573.0</ele><time>2026-04-25T08:42:05Z</time></trkpt><trkpt lat="44.62910647786624" lon="9.724953324149473"><ele>575.75</ele><time>2026-04-25T08:42:06Z</time></trkpt><trkpt lat="44.62899096174952" lon="9.724856610640332"><ele>578.5</ele><time>2026-04-25T08:42:07Z</time></trkpt><trkpt lat="44.628867437161404" lon="9.724768123529207"><ele>581.25</ele><time>2026-04-25T08:42:08Z</time></trkpt><trkpt lat="44.62881048235916" lon="9.724621933169981"><ele>584.0</ele><time>2026-04-25T08:42:09Z</time></trkpt><trkpt lat="44.628729261808054" lon="9.724466251375846"><ele>579.5</ele><time>2026-04-25T08:42:10Z</time></trkpt><trkpt lat="44.62863780552959" lon="9.724314989524288"><ele>575.0</ele><time>2026-04-25T08:42:11Z</time></trkpt><trkpt lat="44.62852683190596" lon="9.724173881577409"><ele>570.5</ele><time>2026-04-25T08:42:12Z</time></trkpt><trkpt lat="44.628412188269685" lon="9.72404054908869"><ele>566.0</ele><time>2026-04-25T08:42:13Z</time></trkpt><trkpt lat="44.628313280780475" lon="9.7239193151445"><ele>566.0</ele><time>2026-04-25T08:42:14Z</time></trkpt><trkpt lat="44.62820883061741" lon="9.723815098839967"><ele>566.0</ele><time>2026-04-25T08:42:15Z</time></trkpt><trkpt lat="44.62809860288863" lon="9.723735638611968"><ele>566.0</ele><time>2026-04-25T08:42:16Z</time></trkpt><trkpt lat="44.62799605930085" lon="9.72366374197025"><ele>566.0</ele><time>2026-04-25T08:42:17Z</time></trkpt><trkpt lat="44.627896817637485" lon="9.723589549127038"><ele>564.0</ele><time>2026-04-25T08:42:18Z</time></trkpt><trkpt lat="44.627796936048085" lon="9.723509127043187"><ele>562.0</ele><time>2026-04-25T08:42:19Z</time></trkpt><trkpt lat="44.62771156776073" lon="9.723406584196466"><ele>560.0</ele><time>2026-04-25T08:42:20Z</time></trkpt><trkpt lat="44.62766820835743" lon="9.723241950016366"><ele>558.0</ele><time>2026-04-25T08:42:21Z</time></trkpt><trkpt lat="44.62767515945348" lon="9.723048257303056"><ele>558.0</ele><time>2026-04-25T08:42:22Z</time></trkpt><trkpt lat="44.62769181858112" lon="9.722848343546547"><ele>558.0</ele><time>2026-04-25T08:42:23Z</time></trkpt><trkpt lat="44.627696775587786" lon="9.722653243981993"><ele>558.0</ele><time>2026-04-25T08:42:24Z</time></trkpt><trkpt lat="44.62768232765982" lon="9.722462763623309"><ele>558.0</ele><time>2026-04-25T08:42:25Z</time></trkpt><trkpt lat="44.62762912971266" lon="9.722288127732774"><ele>558.75</ele><time>2026-04-25T08:42:26Z</time></trkpt><trkpt lat="44.62753048549994" lon="9.722149185156468"><ele>559.5</ele><time>2026-04-25T08:42:27Z</time></trkpt><trkpt lat="44.627430649180134" lon="9.722009412019679"><ele>560.25</ele><time>2026-04-25T08:42:28Z</time></trkpt><trkpt lat="44.62740078639459" lon="9.721819891431307"><ele>561.0</ele><time>2026-04-25T08:42:29Z</time></trkpt><trkpt lat="44.62736416495574" lon="9.721635276160967"><ele>562.5</ele><time>2026-04-25T08:42:30Z</time></trkpt><trkpt lat="44.627361249259835" lon="9.721452854937674"><ele>564.0</ele><time>2026-04-25T08:42:31Z</time></trkpt><trkpt lat="44.62736260266576" lon="9.721277081705187"><ele>565.5</ele><time>2026-04-25T08:42:32Z</time></trkpt><trkpt lat="44.62736267193921" lon="9.721095168465306"><ele>567.0</ele><time>2026-04-25T08:42:33Z</time></trkpt><trkpt lat="44.6273586572536" lon="9.720914741436642"><ele>567.8000000000001</ele><time>2026-04-25T08:42:34Z</time></trkpt><trkpt lat="44.62735160347994" lon="9.72074629083949"><ele>568.6</ele><time>2026-04-25T08:42:35Z</time></trkpt><trkpt lat="44.62732264848407" lon="9.720596975905742"><ele>569.4000000000001</ele><time>2026-04-25T08:42:36Z</time></trkpt><trkpt lat="44.62725362669767" lon="9.720479799698472"><ele>570.2</ele><time>2026-04-25T08:42:37Z</time></trkpt><trkpt lat="44.627170490825584" lon="9.720408844761268"><ele>571.0</ele><time>2026-04-25T08:42:38Z</time></trkpt><trkpt lat="44.627100946446205" lon="9.72037060559088"><ele>571.0</ele><time>2026-04-25T08:42:39Z</time></trkpt><trkpt lat="44.62704072307065" lon="9.72034095989907"><ele>571.0</ele><time>2026-04-25T08:42:40Z</time></trkpt><trkpt lat="44.62692466788221" lon="9.720378105686304"><ele>571.0</ele><time>2026-04-25T08:42:42Z</time></trkpt><trkpt lat="44.62688653916162" lon="9.720450682527115"><ele>571.0</ele><time>2026-04-25T08:42:43Z</time></trkpt><trkpt lat="44.626926469747396" lon="9.720575460292633"><ele>571.0</ele><time>2026-04-25T08:42:44Z</time></trkpt><trkpt lat="44.62699592900613" lon="9.72066056976917"><ele>571.0</ele><time>2026-04-25T08:42:45Z</time></trkpt><trkpt lat="44.627088066272606" lon="9.720768435862503"><ele>571.0</ele><time>2026-04-25T08:42:46Z</time></trkpt><trkpt lat="44.62715269696552" lon="9.720886831823329"><ele>571.0</ele><time>2026-04-25T08:42:47Z</time></trkpt><trkpt lat="44.627162796040324" lon="9.721048525381775"><ele>571.0</ele><time>2026-04-25T08:42:48Z</time></trkpt><trkpt lat="44.62712461665043" lon="9.72122489902689"><ele>571.0</ele><time>2026-04-25T08:42:49Z</time></trkpt><trkpt lat="44.62707921643417" lon="9.721450370652432"><ele>569.6666666666667</ele><time>2026-04-25T08:42:50Z</time></trkpt><trkpt lat="44.627027710129504" lon="9.721655310440662"><ele>568.3333333333334</ele><time>2026-04-25T08:42:51Z</time></trkpt><trkpt lat="44.6269602563498" lon="9.721883829651082"><ele>567.0</ele><time>2026-04-25T08:42:52Z</time></trkpt><trkpt lat="44.62690740860672" lon="9.72210012459873"><ele>558.6666666666666</ele><time>2026-04-25T08:42:53Z</time></trkpt><trkpt lat="44.62687037508265" lon="9.722320704001051"><ele>550.3333333333333</ele><time>2026-04-25T08:42:54Z</time></trkpt><trkpt lat="44.6268073079292" lon="9.722509815729648"><ele>542.0</ele><time>2026-04-25T08:42:55Z</time></trkpt><trkpt lat="44.626770309008926" lon="9.722730113556903"><ele>541.0</ele><time>2026-04-25T08:42:56Z</time></trkpt><trkpt lat="44.62672026656135" lon="9.722925159481813"><ele>540.0</ele><time>2026-04-25T08:42:56.999Z</time></trkpt><trkpt lat="44.62668300213344" lon="9.72310509039713"><ele>539.0</ele><time>2026-04-25T08:42:57.999Z</time></trkpt><trkpt lat="44.62668842515088" lon="9.723316651179024"><ele>538.0</ele><time>2026-04-25T08:42:58.999Z</time></trkpt><trkpt lat="44.62673323346808" lon="9.723548795320106"><ele>536.0</ele><time>2026-04-25T08:42:59.999Z</time></trkpt><trkpt lat="44.62678096352098" lon="9.723757716929063"><ele>534.0</ele><time>2026-04-25T08:43:00.999Z</time></trkpt><trkpt lat="44.62683800853296" lon="9.723943874245693"><ele>532.0</ele><time>2026-04-25T08:43:01.999Z</time></trkpt><trkpt lat="44.626921572738254" lon="9.724086112516668"><ele>530.0</ele><time>2026-04-25T08:43:02.999Z</time></trkpt><trkpt lat="44.62705166308218" lon="9.724180283350961"><ele>533.3333333333333</ele><time>2026-04-25T08:43:03.999Z</time></trkpt><trkpt lat="44.627161771267374" lon="9.724304225746367"><ele>536.6666666666666</ele><time>2026-04-25T08:43:04.999Z</time></trkpt><trkpt lat="44.627207741518625" lon="9.724506702024282"><ele>540.0</ele><time>2026-04-25T08:43:05.999Z</time></trkpt><trkpt lat="44.62727476116679" lon="9.724726736783138"><ele>540.0</ele><time>2026-04-25T08:43:06.999Z</time></trkpt><trkpt lat="44.62730101491613" lon="9.72494823485146"><ele>540.0</ele><time>2026-04-25T08:43:07.999Z</time></trkpt><trkpt lat="44.62732284461664" lon="9.72516096769779"><ele>540.0</ele><time>2026-04-25T08:43:08.999Z</time></trkpt><trkpt lat="44.62734091014027" lon="9.725390430111739"><ele>538.3333333333334</ele><time>2026-04-25T08:43:09.999Z</time></trkpt><trkpt lat="44.627343509098" lon="9.725614392079112"><ele>536.6666666666667</ele><time>2026-04-25T08:43:10.999Z</time></trkpt><trkpt lat="44.627368202309995" lon="9.725812207419816"><ele>535.0</ele><time>2026-04-25T08:43:11.999Z</time></trkpt><trkpt lat="44.62741084661453" lon="9.726012696519005"><ele>532.3333333333334</ele><time>2026-04-25T08:43:12.999Z</time></trkpt><trkpt lat="44.62750274403902" lon="9.726208583593351"><ele>529.6666666666666</ele><time>2026-04-25T08:43:13.999Z</time></trkpt><trkpt lat="44.62760687653257" lon="9.726386291535354"><ele>527.0</ele><time>2026-04-25T08:43:14.999Z</time></trkpt><trkpt lat="44.627656350833114" lon="9.726570430968895"><ele>527.0</ele><time>2026-04-25T08:43:15.999Z</time></trkpt><trkpt lat="44.62765807290018" lon="9.726785100941221"><ele>527.0</ele><time>2026-04-25T08:43:16.999Z</time></trkpt><trkpt lat="44.62767107018589" lon="9.727016599199455"><ele>527.0</ele><time>2026-04-25T08:43:17.999Z</time></trkpt><trkpt lat="44.62770283516954" lon="9.727216747748484"><ele>529.0</ele><time>2026-04-25T08:43:18.999Z</time></trkpt><trkpt lat="44.62779534105828" lon="9.727372118853767"><ele>531.0</ele><time>2026-04-25T08:43:19.999Z</time></trkpt><trkpt lat="44.627902865699696" lon="9.72750417920007"><ele>533.0</ele><time>2026-04-25T08:43:20.999Z</time></trkpt><trkpt lat="44.627937416426576" lon="9.72767187815785"><ele>535.0</ele><time>2026-04-25T08:43:21.999Z</time></trkpt><trkpt lat="44.62792347595631" lon="9.727851367151478"><ele>535.0</ele><time>2026-04-25T08:43:22.999Z</time></trkpt><trkpt lat="44.627904722866035" lon="9.728047718127401"><ele>535.0</ele><time>2026-04-25T08:43:23.999Z</time></trkpt><trkpt lat="44.62785112041384" lon="9.728214469405808"><ele>535.0</ele><time>2026-04-25T08:43:24.999Z</time></trkpt><trkpt lat="44.62783006199184" lon="9.728403578518025"><ele>535.0</ele><time>2026-04-25T08:43:25.999Z</time></trkpt><trkpt lat="44.62782250304034" lon="9.728602565624147"><ele>535.75</ele><time>2026-04-25T08:43:26.999Z</time></trkpt><trkpt lat="44.627831035432926" lon="9.728806602475183"><ele>536.5</ele><time>2026-04-25T08:43:27.999Z</time></trkpt><trkpt lat="44.627842693858994" lon="9.729016391243153"><ele>537.25</ele><time>2026-04-25T08:43:28.999Z</time></trkpt><trkpt lat="44.627851535231144" lon="9.729225826973819"><ele>538.0</ele><time>2026-04-25T08:43:29.999Z</time></trkpt><trkpt lat="44.62785738172846" lon="9.729448876772006"><ele>531.6666666666667</ele><time>2026-04-25T08:43:30.999Z</time></trkpt><trkpt lat="44.627796970515284" lon="9.729647460885415"><ele>525.3333333333334</ele><time>2026-04-25T08:43:31.999Z</time></trkpt><trkpt lat="44.62769128319264" lon="9.729802136467361"><ele>519.0</ele><time>2026-04-25T08:43:32.999Z</time></trkpt><trkpt lat="44.62755850992362" lon="9.729951996609032"><ele>519.0</ele><time>2026-04-25T08:43:33.999Z</time></trkpt><trkpt lat="44.627423915664934" lon="9.730099228399139"><ele>519.0</ele><time>2026-04-25T08:43:34.999Z</time></trkpt><trkpt lat="44.627314721934965" lon="9.7302347700621"><ele>519.0</ele><time>2026-04-25T08:43:35.999Z</time></trkpt><trkpt lat="44.62720376403849" lon="9.730361946791865"><ele>521.6666666666666</ele><time>2026-04-25T08:43:36.999Z</time></trkpt><trkpt lat="44.62710976755401" lon="9.730512509988852"><ele>524.3333333333333</ele><time>2026-04-25T08:43:37.999Z</time></trkpt><trkpt lat="44.62703166137127" lon="9.730704974224055"><ele>527.0</ele><time>2026-04-25T08:43:38.999Z</time></trkpt><trkpt lat="44.626957349739364" lon="9.730922818821913"><ele>521.6666666666666</ele><time>2026-04-25T08:43:39.999Z</time></trkpt><trkpt lat="44.626887745250585" lon="9.731131471046956"><ele>516.3333333333334</ele><time>2026-04-25T08:43:40.999Z</time></trkpt><trkpt lat="44.626816141001875" lon="9.731319260149501"><ele>511.0</ele><time>2026-04-25T08:43:41.999Z</time></trkpt><trkpt lat="44.626751715574684" lon="9.731487704643616"><ele>511.0</ele><time>2026-04-25T08:43:42.999Z</time></trkpt><trkpt lat="44.626707745039035" lon="9.731666633112175"><ele>511.0</ele><time>2026-04-25T08:43:43.999Z</time></trkpt><trkpt lat="44.62669937531552" lon="9.73186515971875"><ele>511.0</ele><time>2026-04-25T08:43:44.999Z</time></trkpt><trkpt lat="44.626723037123945" lon="9.73208975565293"><ele>511.0</ele><time>2026-04-25T08:43:45.999Z</time></trkpt><trkpt lat="44.62675231147909" lon="9.73232761000892"><ele>511.0</ele><time>2026-04-25T08:43:46.999Z</time></trkpt><trkpt lat="44.62676934770199" lon="9.73258046745116"><ele>511.0</ele><time>2026-04-25T08:43:47.999Z</time></trkpt><trkpt lat="44.62678362214263" lon="9.732834183137342"><ele>511.0</ele><time>2026-04-25T08:43:48.999Z</time></trkpt><trkpt lat="44.62679606568736" lon="9.733094234950876"><ele>509.6666666666667</ele><time>2026-04-25T08:43:49.999Z</time></trkpt><trkpt lat="44.626807005708216" lon="9.733342164604482"><ele>508.33333333333337</ele><time>2026-04-25T08:43:50.999Z</time></trkpt><trkpt lat="44.62681922490775" lon="9.733584435237642"><ele>507.0</ele><time>2026-04-25T08:43:51.999Z</time></trkpt><trkpt lat="44.6268318846787" lon="9.733811462135048"><ele>505.0</ele><time>2026-04-25T08:43:52.999Z</time></trkpt><trkpt lat="44.62685634560063" lon="9.734022792834384"><ele>503.0</ele><time>2026-04-25T08:43:53.999Z</time></trkpt><trkpt lat="44.62690708806132" lon="9.734213893492388"><ele>501.0</ele><time>2026-04-25T08:43:54.999Z</time></trkpt><trkpt lat="44.626990802953316" lon="9.73440393232904"><ele>501.0</ele><time>2026-04-25T08:43:55.999Z</time></trkpt><trkpt lat="44.62711274155654" lon="9.734574295668349"><ele>501.0</ele><time>2026-04-25T08:43:56.999Z</time></trkpt><trkpt lat="44.627252785065885" lon="9.734730199715074"><ele>501.0</ele><time>2026-04-25T08:43:57.999Z</time></trkpt><trkpt lat="44.62740476919054" lon="9.734879828960093"><ele>501.0</ele><time>2026-04-25T08:43:58.999Z</time></trkpt><trkpt lat="44.62754719027716" lon="9.735025565609192"><ele>501.0</ele><time>2026-04-25T08:43:59.999Z</time></trkpt><trkpt lat="44.62764839039448" lon="9.735203240600553"><ele>501.0</ele><time>2026-04-25T08:44:01Z</time></trkpt><trkpt lat="44.62771909598618" lon="9.735391745320731"><ele>498.66666666666663</ele><time>2026-04-25T08:44:02Z</time></trkpt><trkpt lat="44.62776444097052" lon="9.73561735396285"><ele>496.3333333333333</ele><time>2026-04-25T08:44:03Z</time></trkpt><trkpt lat="44.62777915330957" lon="9.735849311861783"><ele>494.0</ele><time>2026-04-25T08:44:04Z</time></trkpt><trkpt lat="44.62774601074299" lon="9.736071487096217"><ele>494.0</ele><time>2026-04-25T08:44:05Z</time></trkpt><trkpt lat="44.62766185470078" lon="9.736247912256912"><ele>494.0</ele><time>2026-04-25T08:44:06Z</time></trkpt><trkpt lat="44.62759317698532" lon="9.736412922739353"><ele>494.0</ele><time>2026-04-25T08:44:07Z</time></trkpt><trkpt lat="44.62752089300104" lon="9.736548012278483"><ele>494.0</ele><time>2026-04-25T08:44:08Z</time></trkpt><trkpt lat="44.62748558367737" lon="9.736694651519542"><ele>494.0</ele><time>2026-04-25T08:44:09Z</time></trkpt><trkpt lat="44.62747956937735" lon="9.736846454473088"><ele>494.0</ele><time>2026-04-25T08:44:10Z</time></trkpt><trkpt lat="44.62750443176257" lon="9.736997051229853"><ele>494.0</ele><time>2026-04-25T08:44:11Z</time></trkpt><trkpt lat="44.62758746422799" lon="9.737138426809006"><ele>494.0</ele><time>2026-04-25T08:44:12Z</time></trkpt><trkpt lat="44.62772957339516" lon="9.737262913600716"><ele>494.3333333333333</ele><time>2026-04-25T08:44:13Z</time></trkpt><trkpt lat="44.62789383903936" lon="9.737372958161474"><ele>494.66666666666663</ele><time>2026-04-25T08:44:14Z</time></trkpt><trkpt lat="44.6280420960555" lon="9.737474389954432"><ele>495.0</ele><time>2026-04-25T08:44:15Z</time></trkpt><trkpt lat="44.62814993761247" lon="9.737601134992472"><ele>493.0</ele><time>2026-04-25T08:44:16Z</time></trkpt><trkpt lat="44.62823436556525" lon="9.737741807897395"><ele>491.0</ele><time>2026-04-25T08:44:17Z</time></trkpt><trkpt lat="44.62828459579837" lon="9.737925572869454"><ele>489.0</ele><time>2026-04-25T08:44:18Z</time></trkpt><trkpt lat="44.62828038238869" lon="9.738118979241246"><ele>487.0</ele><time>2026-04-25T08:44:19Z</time></trkpt><trkpt lat="44.62826481674255" lon="9.73833328171026"><ele>487.0</ele><time>2026-04-25T08:44:20Z</time></trkpt><trkpt lat="44.62820988639975" lon="9.738528661564576"><ele>487.0</ele><time>2026-04-25T08:44:21Z</time></trkpt><trkpt lat="44.62815571009895" lon="9.738699885373245"><ele>487.0</ele><time>2026-04-25T08:44:22Z</time></trkpt><trkpt lat="44.62811908021579" lon="9.738870478833094"><ele>487.0</ele><time>2026-04-25T08:44:23Z</time></trkpt><trkpt lat="44.62811670995181" lon="9.739026940701427"><ele>485.75</ele><time>2026-04-25T08:44:24Z</time></trkpt><trkpt lat="44.62816473236957" lon="9.739194551273153"><ele>484.5</ele><time>2026-04-25T08:44:25Z</time></trkpt><trkpt lat="44.628265366243234" lon="9.739326465877241"><ele>483.25</ele><time>2026-04-25T08:44:26Z</time></trkpt><trkpt lat="44.6283712703634" lon="9.739433362846901"><ele>482.0</ele><time>2026-04-25T08:44:27Z</time></trkpt><trkpt lat="44.628434460911635" lon="9.739559369862912"><ele>480.25</ele><time>2026-04-25T08:44:28Z</time></trkpt><trkpt lat="44.62843793026683" lon="9.73974535147161"><ele>478.5</ele><time>2026-04-25T08:44:29Z</time></trkpt><trkpt lat="44.62838105214481" lon="9.73993783834845"><ele>476.75</ele><time>2026-04-25T08:44:30Z</time></trkpt><trkpt lat="44.62829146013499" lon="9.740100448995278"><ele>475.0</ele><time>2026-04-25T08:44:31Z</time></trkpt><trkpt lat="44.6282321562465" lon="9.740245863073207"><ele>473.5</ele><time>2026-04-25T08:44:32Z</time></trkpt><trkpt lat="44.62822758839537" lon="9.740408084707171"><ele>472.0</ele><time>2026-04-25T08:44:33Z</time></trkpt><trkpt lat="44.628289837610964" lon="9.740581993985462"><ele>470.5</ele><time>2026-04-25T08:44:34Z</time></trkpt><trkpt lat="44.628413923561496" lon="9.74073643713108"><ele>469.0</ele><time>2026-04-25T08:44:35Z</time></trkpt><trkpt lat="44.62856711546093" lon="9.740849907406016"><ele>472.0</ele><time>2026-04-25T08:44:36Z</time></trkpt><trkpt lat="44.6287145939473" lon="9.740921610493785"><ele>475.0</ele><time>2026-04-25T08:44:37Z</time></trkpt><trkpt lat="44.628829925057076" lon="9.741010281171382"><ele>478.0</ele><time>2026-04-25T08:44:38Z</time></trkpt><trkpt lat="44.62893039311085" lon="9.741095750997564"><ele>481.0</ele><time>2026-04-25T08:44:39Z</time></trkpt><trkpt lat="44.629019124799676" lon="9.741197280898586"><ele>481.0</ele><time>2026-04-25T08:44:40Z</time></trkpt><trkpt lat="44.6290265224126" lon="9.741377099522655"><ele>481.0</ele><time>2026-04-25T08:44:41Z</time></trkpt><trkpt lat="44.62901096127081" lon="9.741542453200323"><ele>481.0</ele><time>2026-04-25T08:44:42Z</time></trkpt><trkpt lat="44.628934304556736" lon="9.74167567630713"><ele>481.0</ele><time>2026-04-25T08:44:43Z</time></trkpt><trkpt lat="44.628836544413716" lon="9.741750811884044"><ele>481.0</ele><time>2026-04-25T08:44:44Z</time></trkpt><trkpt lat="44.62873049961135" lon="9.741770510578212"><ele>481.0</ele><time>2026-04-25T08:44:45Z</time></trkpt><trkpt lat="44.62862313088196" lon="9.741743066087981"><ele>481.0</ele><time>2026-04-25T08:44:46Z</time></trkpt><trkpt lat="44.62851608171923" lon="9.741645902637185"><ele>481.0</ele><time>2026-04-25T08:44:47Z</time></trkpt><trkpt lat="44.6284248940411" lon="9.741510965980051"><ele>476.0</ele><time>2026-04-25T08:44:48Z</time></trkpt><trkpt lat="44.62832260464533" lon="9.741355615405192"><ele>471.0</ele><time>2026-04-25T08:44:49Z</time></trkpt><trkpt lat="44.62821785995548" lon="9.741197038664138"><ele>466.0</ele><time>2026-04-25T08:44:50Z</time></trkpt><trkpt lat="44.628114089069015" lon="9.74105160930132"><ele>467.0</ele><time>2026-04-25T08:44:51Z</time></trkpt><trkpt lat="44.62800726800067" lon="9.740926471608987"><ele>468.0</ele><time>2026-04-25T08:44:52Z</time></trkpt><trkpt lat="44.627881221767474" lon="9.74080871805405"><ele>469.0</ele><time>2026-04-25T08:44:53Z</time></trkpt><trkpt lat="44.627732189783984" lon="9.74070259239745"><ele>465.6666666666667</ele><time>2026-04-25T08:44:54Z</time></trkpt><trkpt lat="44.62757537473785" lon="9.74061037092976"><ele>462.33333333333337</ele><time>2026-04-25T08:44:55Z</time></trkpt><trkpt lat="44.62742586449258" lon="9.74051544388573"><ele>459.0</ele><time>2026-04-25T08:44:56Z</time></trkpt><trkpt lat="44.627281980653486" lon="9.740425526249863"><ele>459.0</ele><time>2026-04-25T08:44:57Z</time></trkpt><trkpt lat="44.62715106362836" lon="9.740336455659657"><ele>459.0</ele><time>2026-04-25T08:44:58Z</time></trkpt><trkpt lat="44.62703586634434" lon="9.740218685319253"><ele>459.0</ele><time>2026-04-25T08:44:59Z</time></trkpt><trkpt lat="44.62691671681414" lon="9.740078932999907"><ele>459.0</ele><time>2026-04-25T08:45:00Z</time></trkpt><trkpt lat="44.62679463856475" lon="9.73991990352777"><ele>456.33333333333337</ele><time>2026-04-25T08:45:01Z</time></trkpt><trkpt lat="44.62665356827271" lon="9.73975904848027"><ele>453.6666666666667</ele><time>2026-04-25T08:45:02Z</time></trkpt><trkpt lat="44.62652300572921" lon="9.739592331277521"><ele>451.0</ele><time>2026-04-25T08:45:03Z</time></trkpt><trkpt lat="44.626431516924775" lon="9.739413752767888"><ele>451.5</ele><time>2026-04-25T08:45:04Z</time></trkpt><trkpt lat="44.62637427135198" lon="9.739273943069561"><ele>452.0</ele><time>2026-04-25T08:45:05Z</time></trkpt><trkpt lat="44.62636899845138" lon="9.739139669902137"><ele>452.5</ele><time>2026-04-25T08:45:06Z</time></trkpt><trkpt lat="44.62635361552948" lon="9.738975119859097"><ele>453.0</ele><time>2026-04-25T08:45:07Z</time></trkpt><trkpt lat="44.62634925947324" lon="9.738788460014176"><ele>453.0</ele><time>2026-04-25T08:45:08Z</time></trkpt><trkpt lat="44.62630129426416" lon="9.738613232678539"><ele>453.0</ele><time>2026-04-25T08:45:08.999Z</time></trkpt><trkpt lat="44.62619273255525" lon="9.738456917739212"><ele>453.0</ele><time>2026-04-25T08:45:09.999Z</time></trkpt><trkpt lat="44.62603328935038" lon="9.738353013446126"><ele>449.0</ele><time>2026-04-25T08:45:10.999Z</time></trkpt><trkpt lat="44.62586075986456" lon="9.738251917865217"><ele>445.0</ele><time>2026-04-25T08:45:11.999Z</time></trkpt><trkpt lat="44.62571914956673" lon="9.738116512425433"><ele>441.0</ele><time>2026-04-25T08:45:12.999Z</time></trkpt><trkpt lat="44.62559614383388" lon="9.737998442647934"><ele>441.0</ele><time>2026-04-25T08:45:13.999Z</time></trkpt><trkpt lat="44.625498394388266" lon="9.737857325338322"><ele>441.0</ele><time>2026-04-25T08:45:14.999Z</time></trkpt><trkpt lat="44.625426656344374" lon="9.73766809039772"><ele>441.0</ele><time>2026-04-25T08:45:15.999Z</time></trkpt><trkpt lat="44.62536599293234" lon="9.737457712108698"><ele>439.0</ele><time>2026-04-25T08:45:16.999Z</time></trkpt><trkpt lat="44.62530400054877" lon="9.737249403351113"><ele>437.0</ele><time>2026-04-25T08:45:17.999Z</time></trkpt><trkpt lat="44.62523962047011" lon="9.737050818017586"><ele>435.0</ele><time>2026-04-25T08:45:18.999Z</time></trkpt><trkpt lat="44.62513540162219" lon="9.736877403477692"><ele>435.0</ele><time>2026-04-25T08:45:19.999Z</time></trkpt><trkpt lat="44.62497997888078" lon="9.736734651648762"><ele>435.0</ele><time>2026-04-25T08:45:20.999Z</time></trkpt><trkpt lat="44.624793520341186" lon="9.736623883379364"><ele>435.0</ele><time>2026-04-25T08:45:21.999Z</time></trkpt><trkpt lat="44.62460889876141" lon="9.736507946096816"><ele>430.0</ele><time>2026-04-25T08:45:22.999Z</time></trkpt><trkpt lat="44.62443781941399" lon="9.736379918091924"><ele>425.0</ele><time>2026-04-25T08:45:23.999Z</time></trkpt><trkpt lat="44.624283701032994" lon="9.73626386246399"><ele>420.0</ele><time>2026-04-25T08:45:24.999Z</time></trkpt><trkpt lat="44.62414756996538" lon="9.73613753187766"><ele>423.0</ele><time>2026-04-25T08:45:25.999Z</time></trkpt><trkpt lat="44.624031472561896" lon="9.736031193602546"><ele>426.0</ele><time>2026-04-25T08:45:26.999Z</time></trkpt><trkpt lat="44.6239085199927" lon="9.735889869922918"><ele>429.0</ele><time>2026-04-25T08:45:27.999Z</time></trkpt><trkpt lat="44.623788804675826" lon="9.73571455111295"><ele>429.0</ele><time>2026-04-25T08:45:28.999Z</time></trkpt><trkpt lat="44.623691619522305" lon="9.735517205166316"><ele>429.0</ele><time>2026-04-25T08:45:29.999Z</time></trkpt><trkpt lat="44.623614314305755" lon="9.735304755448201"><ele>429.0</ele><time>2026-04-25T08:45:30.999Z</time></trkpt><trkpt lat="44.62352657655525" lon="9.73512230716252"><ele>425.33333333333337</ele><time>2026-04-25T08:45:31.999Z</time></trkpt><trkpt lat="44.62343616352403" lon="9.734945321734589"><ele>421.6666666666667</ele><time>2026-04-25T08:45:32.999Z</time></trkpt><trkpt lat="44.62330731310989" lon="9.734811791900933"><ele>418.0</ele><time>2026-04-25T08:45:33.999Z</time></trkpt><trkpt lat="44.62314453898088" lon="9.734709256373591"><ele>418.0</ele><time>2026-04-25T08:45:34.999Z</time></trkpt><trkpt lat="44.62298902311372" lon="9.734613697110348"><ele>418.0</ele><time>2026-04-25T08:45:35.999Z</time></trkpt><trkpt lat="44.622856017321375" lon="9.734493577508209"><ele>418.0</ele><time>2026-04-25T08:45:36.999Z</time></trkpt><trkpt lat="44.622704525319726" lon="9.734408511141222"><ele>416.0</ele><time>2026-04-25T08:45:37.999Z</time></trkpt><trkpt lat="44.6225511183041" lon="9.73429846840409"><ele>414.0</ele><time>2026-04-25T08:45:38.999Z</time></trkpt><trkpt lat="44.62239532552814" lon="9.734193586899348"><ele>412.0</ele><time>2026-04-25T08:45:39.999Z</time></trkpt><trkpt lat="44.622245922674274" lon="9.734093432746889"><ele>412.0</ele><time>2026-04-25T08:45:40.999Z</time></trkpt><trkpt lat="44.62210152627083" lon="9.733999148581148"><ele>412.0</ele><time>2026-04-25T08:45:41.999Z</time></trkpt><trkpt lat="44.621983199486536" lon="9.733885874364805"><ele>412.0</ele><time>2026-04-25T08:45:42.999Z</time></trkpt><trkpt lat="44.621870064464794" lon="9.7337872113513"><ele>412.0</ele><time>2026-04-25T08:45:43.999Z</time></trkpt><trkpt lat="44.62179905378545" lon="9.733673986299923"><ele>410.25</ele><time>2026-04-25T08:45:44.999Z</time></trkpt><trkpt lat="44.62174405751738" lon="9.733539238652059"><ele>408.5</ele><time>2026-04-25T08:45:45.999Z</time></trkpt><trkpt lat="44.62171896949694" lon="9.733341595684859"><ele>406.75</ele><time>2026-04-25T08:45:46.999Z</time></trkpt><trkpt lat="44.62167678421977" lon="9.733153584398218"><ele>405.0</ele><time>2026-04-25T08:45:47.999Z</time></trkpt><trkpt lat="44.6216484089096" lon="9.733001364404368"><ele>405.0</ele><time>2026-04-25T08:45:48.999Z</time></trkpt><trkpt lat="44.621586817992664" lon="9.732859279353216"><ele>405.0</ele><time>2026-04-25T08:45:49.999Z</time></trkpt><trkpt lat="44.621486233811545" lon="9.73276690640744"><ele>405.0</ele><time>2026-04-25T08:45:50.999Z</time></trkpt><trkpt lat="44.62136809110006" lon="9.732744367365779"><ele>405.0</ele><time>2026-04-25T08:45:51.999Z</time></trkpt><trkpt lat="44.621245827367794" lon="9.732806158144866"><ele>402.0</ele><time>2026-04-25T08:45:52.999Z</time></trkpt><trkpt lat="44.62110517669507" lon="9.732910589082524"><ele>399.0</ele><time>2026-04-25T08:45:53.999Z</time></trkpt><trkpt lat="44.620952301380434" lon="9.733012447310001"><ele>396.0</ele><time>2026-04-25T08:45:54.999Z</time></trkpt><trkpt lat="44.62079635176448" lon="9.733095743997769"><ele>396.0</ele><time>2026-04-25T08:45:55.999Z</time></trkpt><trkpt lat="44.620630408343686" lon="9.73318387004361"><ele>396.0</ele><time>2026-04-25T08:45:56.999Z</time></trkpt><trkpt lat="44.62046601889857" lon="9.733270602018672"><ele>396.0</ele><time>2026-04-25T08:45:57.999Z</time></trkpt><trkpt lat="44.620297181907894" lon="9.733359954457965"><ele>395.33333333333337</ele><time>2026-04-25T08:45:58.999Z</time></trkpt><trkpt lat="44.62012784504577" lon="9.733452632513044"><ele>394.6666666666667</ele><time>2026-04-25T08:45:59.999Z</time></trkpt><trkpt lat="44.619955725161056" lon="9.733545305717898"><ele>394.0</ele><time>2026-04-25T08:46:00.999Z</time></trkpt><trkpt lat="44.61978723951742" lon="9.733636778885783"><ele>393.6666666666667</ele><time>2026-04-25T08:46:01.999Z</time></trkpt><trkpt lat="44.6196210921604" lon="9.733732895535972"><ele>393.33333333333337</ele><time>2026-04-25T08:46:02.999Z</time></trkpt><trkpt lat="44.619467491520766" lon="9.733821795712386"><ele>393.0</ele><time>2026-04-25T08:46:03.999Z</time></trkpt><trkpt lat="44.61932449604206" lon="9.733897643293188"><ele>394.33333333333337</ele><time>2026-04-25T08:46:04.999Z</time></trkpt><trkpt lat="44.61918411225116" lon="9.733967435022842"><ele>395.6666666666667</ele><time>2026-04-25T08:46:05.999Z</time></trkpt><trkpt lat="44.619044180681975" lon="9.73404034158712"><ele>397.0</ele><time>2026-04-25T08:46:07Z</time></trkpt><trkpt lat="44.61889270747542" lon="9.734125187763265"><ele>397.0</ele><time>2026-04-25T08:46:08Z</time></trkpt><trkpt lat="44.618734858233765" lon="9.73421756897291"><ele>397.0</ele><time>2026-04-25T08:46:09Z</time></trkpt><trkpt lat="44.61857028800154" lon="9.734311783168726"><ele>397.0</ele><time>2026-04-25T08:46:10Z</time></trkpt><trkpt lat="44.618399192529616" lon="9.734404362610475"><ele>398.0</ele><time>2026-04-25T08:46:11Z</time></trkpt><trkpt lat="44.61822687455626" lon="9.734493963604185"><ele>399.0</ele><time>2026-04-25T08:46:12Z</time></trkpt><trkpt lat="44.61805983886535" lon="9.73458219812388"><ele>400.0</ele><time>2026-04-25T08:46:13Z</time></trkpt><trkpt lat="44.617897370650496" lon="9.734678949038186"><ele>401.0</ele><time>2026-04-25T08:46:14Z</time></trkpt><trkpt lat="44.61774405557597" lon="9.734763527798464"><ele>402.0</ele><time>2026-04-25T08:46:15Z</time></trkpt><trkpt lat="44.617602501039656" lon="9.734841392340023"><ele>403.0</ele><time>2026-04-25T08:46:16Z</time></trkpt><trkpt lat="44.61747832901226" lon="9.734915132689611"><ele>403.0</ele><time>2026-04-25T08:46:17Z</time></trkpt><trkpt lat="44.617361611085094" lon="9.735001732607515"><ele>403.0</ele><time>2026-04-25T08:46:18Z</time></trkpt><trkpt lat="44.61725168600784" lon="9.735132660015925"><ele>403.0</ele><time>2026-04-25T08:46:19Z</time></trkpt><trkpt lat="44.617145387664166" lon="9.735330800006276"><ele>401.0</ele><time>2026-04-25T08:46:20Z</time></trkpt><trkpt lat="44.61703575207646" lon="9.735565400692224"><ele>399.0</ele><time>2026-04-25T08:46:21Z</time></trkpt><trkpt lat="44.61693256095698" lon="9.735769734038698"><ele>397.0</ele><time>2026-04-25T08:46:22Z</time></trkpt><trkpt lat="44.61682046932825" lon="9.73586919396951"><ele>401.33333333333337</ele><time>2026-04-25T08:46:23Z</time></trkpt><trkpt lat="44.616698846785795" lon="9.735918659231045"><ele>405.66666666666663</ele><time>2026-04-25T08:46:24Z</time></trkpt><trkpt lat="44.61654414130692" lon="9.735906409085322"><ele>410.0</ele><time>2026-04-25T08:46:25Z</time></trkpt><trkpt lat="44.61634846234956" lon="9.735919385646355"><ele>410.0</ele><time>2026-04-25T08:46:26Z</time></trkpt><trkpt lat="44.61615643697275" lon="9.735912674985014"><ele>410.0</ele><time>2026-04-25T08:46:27Z</time></trkpt><trkpt lat="44.61596986626587" lon="9.735925182824149"><ele>410.0</ele><time>2026-04-25T08:46:28Z</time></trkpt><trkpt lat="44.61578496620214" lon="9.735927142269217"><ele>411.66666666666663</ele><time>2026-04-25T08:46:29Z</time></trkpt><trkpt lat="44.615591453854165" lon="9.735927521247959"><ele>413.33333333333337</ele><time>2026-04-25T08:46:30Z</time></trkpt><trkpt lat="44.615399281206706" lon="9.735933294229314"><ele>415.0</ele><time>2026-04-25T08:46:31Z</time></trkpt><trkpt lat="44.6152137656097" lon="9.735966714491653"><ele>412.6666666666667</ele><time>2026-04-25T08:46:32Z</time></trkpt><trkpt lat="44.6150301303373" lon="9.736069100310631"><ele>410.33333333333337</ele><time>2026-04-25T08:46:33Z</time></trkpt><trkpt lat="44.614847337634934" lon="9.736216447434428"><ele>408.0</ele><time>2026-04-25T08:46:34Z</time></trkpt><trkpt lat="44.61465508271757" lon="9.736370446919747"><ele>412.33333333333337</ele><time>2026-04-25T08:46:35Z</time></trkpt><trkpt lat="44.614456008535264" lon="9.736495437248083"><ele>416.6666666666667</ele><time>2026-04-25T08:46:36Z</time></trkpt><trkpt lat="44.614249822056095" lon="9.736639893471313"><ele>421.0</ele><time>2026-04-25T08:46:37Z</time></trkpt><trkpt lat="44.61404097844244" lon="9.736802375598712"><ele>420.0</ele><time>2026-04-25T08:46:38Z</time></trkpt><trkpt lat="44.61382632624997" lon="9.736948779401397"><ele>419.0</ele><time>2026-04-25T08:46:39Z</time></trkpt><trkpt lat="44.61361705184929" lon="9.737096022157"><ele>419.0</ele><time>2026-04-25T08:46:40Z</time></trkpt><trkpt lat="44.613413400009044" lon="9.737236070309253"><ele>419.0</ele><time>2026-04-25T08:46:41Z</time></trkpt><trkpt lat="44.61322960531791" lon="9.737359608542885"><ele>419.0</ele><time>2026-04-25T08:46:42Z</time></trkpt><trkpt lat="44.61304794499028" lon="9.737437733075902"><ele>419.0</ele><time>2026-04-25T08:46:43Z</time></trkpt><trkpt lat="44.61286350653715" lon="9.737458702700172"><ele>419.0</ele><time>2026-04-25T08:46:44Z</time></trkpt><trkpt lat="44.61264730604319" lon="9.737457231736911"><ele>419.0</ele><time>2026-04-25T08:46:45Z</time></trkpt><trkpt lat="44.6124329459345" lon="9.737474650234194"><ele>421.66666666666663</ele><time>2026-04-25T08:46:46Z</time></trkpt><trkpt lat="44.61223566024155" lon="9.737465719443923"><ele>424.33333333333337</ele><time>2026-04-25T08:46:47Z</time></trkpt><trkpt lat="44.612048791115136" lon="9.7374720353233"><ele>427.0</ele><time>2026-04-25T08:46:48Z</time></trkpt><trkpt lat="44.61184685606746" lon="9.737449773843846"><ele>427.0</ele><time>2026-04-25T08:46:49Z</time></trkpt><trkpt lat="44.61166415409556" lon="9.73740647673812"><ele>427.0</ele><time>2026-04-25T08:46:50Z</time></trkpt><trkpt lat="44.61149332716162" lon="9.737341895125624"><ele>427.0</ele><time>2026-04-25T08:46:51Z</time></trkpt><trkpt lat="44.61134454507231" lon="9.737284241397562"><ele>427.0</ele><time>2026-04-25T08:46:52Z</time></trkpt><trkpt lat="44.61121044530487" lon="9.737242866003044"><ele>427.0</ele><time>2026-04-25T08:46:53Z</time></trkpt><trkpt lat="44.61109000296963" lon="9.737205773030778"><ele>427.0</ele><time>2026-04-25T08:46:54Z</time></trkpt><trkpt lat="44.61097179773847" lon="9.737210340043733"><ele>427.0</ele><time>2026-04-25T08:46:55Z</time></trkpt><trkpt lat="44.61084361365479" lon="9.73727226080985"><ele>429.0</ele><time>2026-04-25T08:46:56Z</time></trkpt><trkpt lat="44.61071403373121" lon="9.7373924665784"><ele>431.0</ele><time>2026-04-25T08:46:57Z</time></trkpt><trkpt lat="44.61054866673046" lon="9.737505416163481"><ele>433.0</ele><time>2026-04-25T08:46:58Z</time></trkpt><trkpt lat="44.61036196994348" lon="9.737656363280838"><ele>431.6666666666667</ele><time>2026-04-25T08:46:59Z</time></trkpt><trkpt lat="44.61017655594312" lon="9.737823956817296"><ele>430.33333333333337</ele><time>2026-04-25T08:47:00Z</time></trkpt><trkpt lat="44.60999898625952" lon="9.737971685566476"><ele>429.0</ele><time>2026-04-25T08:47:01Z</time></trkpt><trkpt lat="44.60983638368187" lon="9.73813448595197"><ele>429.0</ele><time>2026-04-25T08:47:02Z</time></trkpt><trkpt lat="44.609680564660444" lon="9.738308446210592"><ele>429.0</ele><time>2026-04-25T08:47:03Z</time></trkpt><trkpt lat="44.609526326431336" lon="9.738505798601624"><ele>429.0</ele><time>2026-04-25T08:47:04Z</time></trkpt><trkpt lat="44.60936734872559" lon="9.738702317801664"><ele>427.33333333333337</ele><time>2026-04-25T08:47:05Z</time></trkpt><trkpt lat="44.6092043665835" lon="9.738889730149566"><ele>425.6666666666667</ele><time>2026-04-25T08:47:06Z</time></trkpt><trkpt lat="44.609046245137" lon="9.739065952712778"><ele>424.0</ele><time>2026-04-25T08:47:07Z</time></trkpt><trkpt lat="44.608870489571935" lon="9.739212199185443"><ele>422.33333333333337</ele><time>2026-04-25T08:47:08Z</time></trkpt><trkpt lat="44.60870200069548" lon="9.739390143935937"><ele>420.66666666666663</ele><time>2026-04-25T08:47:09Z</time></trkpt><trkpt lat="44.60850053425466" lon="9.739505695175671"><ele>419.0</ele><time>2026-04-25T08:47:10Z</time></trkpt><trkpt lat="44.60829088709037" lon="9.739619901617651"><ele>419.0</ele><time>2026-04-25T08:47:11Z</time></trkpt><trkpt lat="44.60807630828153" lon="9.739749066972271"><ele>419.0</ele><time>2026-04-25T08:47:12Z</time></trkpt><trkpt lat="44.607859924074035" lon="9.739851663437012"><ele>421.0</ele><time>2026-04-25T08:47:13Z</time></trkpt><trkpt lat="44.60766840085288" lon="9.739952673559541"><ele>423.0</ele><time>2026-04-25T08:47:14Z</time></trkpt><trkpt lat="44.6075016940232" lon="9.740057674100003"><ele>425.0</ele><time>2026-04-25T08:47:15Z</time></trkpt><trkpt lat="44.60734786886566" lon="9.740204075866913"><ele>426.66666666666663</ele><time>2026-04-25T08:47:16Z</time></trkpt><trkpt lat="44.607208860077215" lon="9.740421027410186"><ele>428.33333333333337</ele><time>2026-04-25T08:47:17Z</time></trkpt><trkpt lat="44.6070886776171" lon="9.740677851146414"><ele>430.0</ele><time>2026-04-25T08:47:18Z</time></trkpt><trkpt lat="44.606975885733895" lon="9.74093512341319"><ele>428.0</ele><time>2026-04-25T08:47:19Z</time></trkpt><trkpt lat="44.60685276942026" lon="9.741176249903862"><ele>426.0</ele><time>2026-04-25T08:47:20Z</time></trkpt><trkpt lat="44.606708979307136" lon="9.741385603171716"><ele>424.0</ele><time>2026-04-25T08:47:21Z</time></trkpt><trkpt lat="44.60655218737801" lon="9.74156038937039"><ele>424.0</ele><time>2026-04-25T08:47:22Z</time></trkpt><trkpt lat="44.606363830356244" lon="9.74173591471183"><ele>424.0</ele><time>2026-04-25T08:47:23Z</time></trkpt><trkpt lat="44.606178782095455" lon="9.741919929786276"><ele>424.0</ele><time>2026-04-25T08:47:24Z</time></trkpt><trkpt lat="44.605976478210444" lon="9.742094338154137"><ele>424.0</ele><time>2026-04-25T08:47:25Z</time></trkpt><trkpt lat="44.60577793937635" lon="9.742263338133268"><ele>424.0</ele><time>2026-04-25T08:47:26Z</time></trkpt><trkpt lat="44.605591714739596" lon="9.742433714184935"><ele>424.0</ele><time>2026-04-25T08:47:27Z</time></trkpt><trkpt lat="44.60540998656278" lon="9.74260386480477"><ele>424.0</ele><time>2026-04-25T08:47:27.999Z</time></trkpt><trkpt lat="44.60523485947544" lon="9.742770088776162"><ele>425.33333333333337</ele><time>2026-04-25T08:47:28.999Z</time></trkpt><trkpt lat="44.605061397268926" lon="9.742891318053097"><ele>426.66666666666663</ele><time>2026-04-25T08:47:29.999Z</time></trkpt><trkpt lat="44.604886431951954" lon="9.742968416602594"><ele>428.0</ele><time>2026-04-25T08:47:30.999Z</time></trkpt><trkpt lat="44.60468389337059" lon="9.743039785146186"><ele>429.0</ele><time>2026-04-25T08:47:31.999Z</time></trkpt><trkpt lat="44.60447085241198" lon="9.743111284308545"><ele>430.0</ele><time>2026-04-25T08:47:32.999Z</time></trkpt><trkpt lat="44.604253086111164" lon="9.743187490633478"><ele>431.0</ele><time>2026-04-25T08:47:33.999Z</time></trkpt><trkpt lat="44.604032653986" lon="9.743281596973343"><ele>431.0</ele><time>2026-04-25T08:47:34.999Z</time></trkpt><trkpt lat="44.60381462992996" lon="9.743384781654768"><ele>431.0</ele><time>2026-04-25T08:47:35.999Z</time></trkpt><trkpt lat="44.60358870744414" lon="9.743494442970233"><ele>430.0</ele><time>2026-04-25T08:47:36.999Z</time></trkpt><trkpt lat="44.60336754381707" lon="9.74360349641083"><ele>429.0</ele><time>2026-04-25T08:47:37.999Z</time></trkpt><trkpt lat="44.60315016496775" lon="9.74370411291008"><ele>429.0</ele><time>2026-04-25T08:47:38.999Z</time></trkpt><trkpt lat="44.60293428596463" lon="9.743803678268325"><ele>429.0</ele><time>2026-04-25T08:47:39.999Z</time></trkpt><trkpt lat="44.6027235155424" lon="9.743900944905006"><ele>429.0</ele><time>2026-04-25T08:47:40.999Z</time></trkpt><trkpt lat="44.60252291374635" lon="9.744022823460844"><ele>432.0</ele><time>2026-04-25T08:47:41.999Z</time></trkpt><trkpt lat="44.602327799431826" lon="9.744184749585214"><ele>435.0</ele><time>2026-04-25T08:47:42.999Z</time></trkpt><trkpt lat="44.602149951401266" lon="9.744360975506238"><ele>438.0</ele><time>2026-04-25T08:47:43.999Z</time></trkpt><trkpt lat="44.60194151110904" lon="9.744486987747065"><ele>438.0</ele><time>2026-04-25T08:47:44.999Z</time></trkpt><trkpt lat="44.60173225298376" lon="9.744592350420275"><ele>438.0</ele><time>2026-04-25T08:47:45.999Z</time></trkpt><trkpt lat="44.601511755827424" lon="9.744716243627543"><ele>438.0</ele><time>2026-04-25T08:47:46.999Z</time></trkpt><trkpt lat="44.60128969820807" lon="9.744807416319354"><ele>438.0</ele><time>2026-04-25T08:47:47.999Z</time></trkpt><trkpt lat="44.60106859468425" lon="9.744908504236438"><ele>442.5</ele><time>2026-04-25T08:47:48.999Z</time></trkpt><trkpt lat="44.600849349376944" lon="9.745016429617985"><ele>447.0</ele><time>2026-04-25T08:47:49.999Z</time></trkpt><trkpt lat="44.600628716589256" lon="9.745123592565768"><ele>446.0</ele><time>2026-04-25T08:47:50.999Z</time></trkpt><trkpt lat="44.600432479526" lon="9.74521610264535"><ele>445.0</ele><time>2026-04-25T08:47:51.999Z</time></trkpt><trkpt lat="44.6002475249248" lon="9.74530850514463"><ele>444.0</ele><time>2026-04-25T08:47:52.999Z</time></trkpt><trkpt lat="44.6000810966019" lon="9.745416138147675"><ele>446.33333333333337</ele><time>2026-04-25T08:47:53.999Z</time></trkpt><trkpt lat="44.59992958520944" lon="9.745597602593355"><ele>448.6666666666667</ele><time>2026-04-25T08:47:54.999Z</time></trkpt><trkpt lat="44.599802326481296" lon="9.745826184817732"><ele>451.0</ele><time>2026-04-25T08:47:55.999Z</time></trkpt><trkpt lat="44.59968405002158" lon="9.74607580678687"><ele>451.0</ele><time>2026-04-25T08:47:56.999Z</time></trkpt><trkpt lat="44.59954007535168" lon="9.746276563350026"><ele>451.0</ele><time>2026-04-25T08:47:57.999Z</time></trkpt><trkpt lat="44.59941053103545" lon="9.746499692593426"><ele>451.0</ele><time>2026-04-25T08:47:58.999Z</time></trkpt><trkpt lat="44.599271261578764" lon="9.746709796402369"><ele>452.6666666666667</ele><time>2026-04-25T08:47:59.999Z</time></trkpt><trkpt lat="44.59913843207075" lon="9.746928803206254"><ele>454.33333333333337</ele><time>2026-04-25T08:48:00.999Z</time></trkpt><trkpt lat="44.59900616816487" lon="9.747142018409763"><ele>456.0</ele><time>2026-04-25T08:48:01.999Z</time></trkpt><trkpt lat="44.59887325898312" lon="9.747358068866353"><ele>456.0</ele><time>2026-04-25T08:48:02.999Z</time></trkpt><trkpt lat="44.59873897649528" lon="9.747571481630912"><ele>456.0</ele><time>2026-04-25T08:48:03.999Z</time></trkpt><trkpt lat="44.59859881801982" lon="9.74774988154058"><ele>456.0</ele><time>2026-04-25T08:48:04.999Z</time></trkpt><trkpt lat="44.59845785754816" lon="9.747885539635192"><ele>455.66666666666663</ele><time>2026-04-25T08:48:05.999Z</time></trkpt><trkpt lat="44.59829661654614" lon="9.747959463956617"><ele>455.3333333333333</ele><time>2026-04-25T08:48:06.999Z</time></trkpt><trkpt lat="44.59811352332828" lon="9.748005441149774"><ele>455.0</ele><time>2026-04-25T08:48:07.999Z</time></trkpt><trkpt lat="44.59793227631479" lon="9.748065855483443"><ele>461.3333333333333</ele><time>2026-04-25T08:48:08.999Z</time></trkpt><trkpt lat="44.597759193061904" lon="9.748105153565236"><ele>467.66666666666663</ele><time>2026-04-25T08:48:09.999Z</time></trkpt><trkpt lat="44.59760257448995" lon="9.748309193237573"><ele>474.0</ele><time>2026-04-25T08:48:10.999Z</time></trkpt><trkpt lat="44.597446799574264" lon="9.748449377220906"><ele>477.0</ele><time>2026-04-25T08:48:11.999Z</time></trkpt><trkpt lat="44.59729888653867" lon="9.748575498372894"><ele>480.0</ele><time>2026-04-25T08:48:13Z</time></trkpt><trkpt lat="44.597142193730306" lon="9.748682054559069"><ele>483.0</ele><time>2026-04-25T08:48:14Z</time></trkpt><trkpt lat="44.59698526816372" lon="9.748775861401453"><ele>483.0</ele><time>2026-04-25T08:48:15Z</time></trkpt><trkpt lat="44.59684643853358" lon="9.74886639810321"><ele>483.0</ele><time>2026-04-25T08:48:16Z</time></trkpt><trkpt lat="44.59671208928962" lon="9.748977067076167"><ele>483.0</ele><time>2026-04-25T08:48:17Z</time></trkpt><trkpt lat="44.5965873599038" lon="9.749120149975717"><ele>483.0</ele><time>2026-04-25T08:48:18Z</time></trkpt><trkpt lat="44.59649916370653" lon="9.749323126604716"><ele>483.0</ele><time>2026-04-25T08:48:19Z</time></trkpt><trkpt lat="44.596463879942384" lon="9.749573531560888"><ele>483.0</ele><time>2026-04-25T08:48:20Z</time></trkpt><trkpt lat="44.59646337289867" lon="9.749824145737506"><ele>482.25</ele><time>2026-04-25T08:48:21Z</time></trkpt><trkpt lat="44.59643456011519" lon="9.750023769427978"><ele>481.5</ele><time>2026-04-25T08:48:22Z</time></trkpt><trkpt lat="44.59634218383976" lon="9.750173451154113"><ele>480.75</ele><time>2026-04-25T08:48:23Z</time></trkpt><trkpt lat="44.596197477837805" lon="9.750272838452194"><ele>480.0</ele><time>2026-04-25T08:48:24Z</time></trkpt><trkpt lat="44.596021406621226" lon="9.750365127824747"><ele>480.0</ele><time>2026-04-25T08:48:25Z</time></trkpt><trkpt lat="44.59585146463335" lon="9.750478683780221"><ele>480.0</ele><time>2026-04-25T08:48:26Z</time></trkpt><trkpt lat="44.59568130225377" lon="9.750612707495915"><ele>480.0</ele><time>2026-04-25T08:48:27Z</time></trkpt><trkpt lat="44.59549755996493" lon="9.750769107084803"><ele>483.33333333333337</ele><time>2026-04-25T08:48:28Z</time></trkpt><trkpt lat="44.5953099629688" lon="9.75092153417562"><ele>486.6666666666667</ele><time>2026-04-25T08:48:29Z</time></trkpt><trkpt lat="44.595130499476014" lon="9.75106016113517"><ele>490.0</ele><time>2026-04-25T08:48:30Z</time></trkpt><trkpt lat="44.59495784768351" lon="9.751188578517727"><ele>490.0</ele><time>2026-04-25T08:48:31Z</time></trkpt><trkpt lat="44.59478758539108" lon="9.751306465018716"><ele>490.0</ele><time>2026-04-25T08:48:32Z</time></trkpt><trkpt lat="44.59460334749113" lon="9.751376445983045"><ele>490.0</ele><time>2026-04-25T08:48:33Z</time></trkpt><trkpt lat="44.594407655011814" lon="9.751397213787884"><ele>492.6666666666667</ele><time>2026-04-25T08:48:34Z</time></trkpt><trkpt lat="44.59423550239428" lon="9.751406238927391"><ele>495.33333333333337</ele><time>2026-04-25T08:48:35Z</time></trkpt><trkpt lat="44.59404674086643" lon="9.751411489001939"><ele>498.0</ele><time>2026-04-25T08:48:36Z</time></trkpt><trkpt lat="44.593853134996685" lon="9.751362167388917"><ele>499.33333333333337</ele><time>2026-04-25T08:48:37Z</time></trkpt><trkpt lat="44.59366363841406" lon="9.751286928242267"><ele>500.6666666666667</ele><time>2026-04-25T08:48:38Z</time></trkpt><trkpt lat="44.593482011817834" lon="9.751190303610791"><ele>502.0</ele><time>2026-04-25T08:48:39Z</time></trkpt><trkpt lat="44.59332898038542" lon="9.75110179007356"><ele>502.0</ele><time>2026-04-25T08:48:40Z</time></trkpt><trkpt lat="44.59318152346851" lon="9.751059222305686"><ele>502.0</ele><time>2026-04-25T08:48:41Z</time></trkpt><trkpt lat="44.59303189505545" lon="9.751115717874052"><ele>502.0</ele><time>2026-04-25T08:48:42Z</time></trkpt><trkpt lat="44.59289903930342" lon="9.751254737780494"><ele>505.33333333333337</ele><time>2026-04-25T08:48:43Z</time></trkpt><trkpt lat="44.59280276733929" lon="9.751396773088901"><ele>508.66666666666663</ele><time>2026-04-25T08:48:44Z</time></trkpt><trkpt lat="44.59267257726558" lon="9.751475401789573"><ele>512.0</ele><time>2026-04-25T08:48:45Z</time></trkpt><trkpt lat="44.592501079290535" lon="9.751524999637326"><ele>512.0</ele><time>2026-04-25T08:48:46Z</time></trkpt><trkpt lat="44.59232685655428" lon="9.751571849250517"><ele>512.0</ele><time>2026-04-25T08:48:47Z</time></trkpt><trkpt lat="44.592152654708" lon="9.751600888606319"><ele>512.0</ele><time>2026-04-25T08:48:48Z</time></trkpt><trkpt lat="44.591964444786655" lon="9.751590807429077"><ele>514.6666666666666</ele><time>2026-04-25T08:48:49Z</time></trkpt><trkpt lat="44.591769765436986" lon="9.75156938008574"><ele>517.3333333333334</ele><time>2026-04-25T08:48:50Z</time></trkpt><trkpt lat="44.59158043652686" lon="9.751556120011557"><ele>520.0</ele><time>2026-04-25T08:48:51Z</time></trkpt><trkpt lat="44.591402105508024" lon="9.751587310256859"><ele>520.0</ele><time>2026-04-25T08:48:52Z</time></trkpt><trkpt lat="44.591247514265014" lon="9.751685437801228"><ele>520.0</ele><time>2026-04-25T08:48:53Z</time></trkpt><trkpt lat="44.59111360383917" lon="9.751829222325247"><ele>520.0</ele><time>2026-04-25T08:48:54Z</time></trkpt><trkpt lat="44.5909915303597" lon="9.752003260519624"><ele>521.0</ele><time>2026-04-25T08:48:55Z</time></trkpt><trkpt lat="44.59087538254706" lon="9.752182953838275"><ele>522.0</ele><time>2026-04-25T08:48:56Z</time></trkpt><trkpt lat="44.5907479680114" lon="9.752342524293073"><ele>523.0</ele><time>2026-04-25T08:48:57Z</time></trkpt><trkpt lat="44.59061804380232" lon="9.752436657335773"><ele>523.0</ele><time>2026-04-25T08:48:58Z</time></trkpt><trkpt lat="44.59048281028088" lon="9.752468349246556"><ele>523.0</ele><time>2026-04-25T08:48:59Z</time></trkpt><trkpt lat="44.59037054501909" lon="9.75244876846946"><ele>523.0</ele><time>2026-04-25T08:49:00Z</time></trkpt><trkpt lat="44.5902515060018" lon="9.752422701404237"><ele>523.0</ele><time>2026-04-25T08:49:01Z</time></trkpt><trkpt lat="44.590119376338635" lon="9.752378192405974"><ele>526.75</ele><time>2026-04-25T08:49:02Z</time></trkpt><trkpt lat="44.589994883848334" lon="9.75227851606783"><ele>530.5</ele><time>2026-04-25T08:49:03Z</time></trkpt><trkpt lat="44.5899031532771" lon="9.752136438768702"><ele>534.25</ele><time>2026-04-25T08:49:04Z</time></trkpt><trkpt lat="44.58987462514054" lon="9.751973531030428"><ele>538.0</ele><time>2026-04-25T08:49:05Z</time></trkpt><trkpt lat="44.58991821590308" lon="9.7518221617333"><ele>539.0</ele><time>2026-04-25T08:49:06Z</time></trkpt><trkpt lat="44.59001160027253" lon="9.751651154442769"><ele>540.0</ele><time>2026-04-25T08:49:07Z</time></trkpt><trkpt lat="44.590127504300796" lon="9.751496827501267"><ele>541.0</ele><time>2026-04-25T08:49:08Z</time></trkpt><trkpt lat="44.590213776118226" lon="9.751339753645622"><ele>541.0</ele><time>2026-04-25T08:49:09Z</time></trkpt><trkpt lat="44.59023846623404" lon="9.751151212754543"><ele>541.0</ele><time>2026-04-25T08:49:10Z</time></trkpt><trkpt lat="44.59021723845685" lon="9.75092766949284"><ele>541.0</ele><time>2026-04-25T08:49:11Z</time></trkpt><trkpt lat="44.59020962151966" lon="9.750710207595045"><ele>541.0</ele><time>2026-04-25T08:49:12Z</time></trkpt><trkpt lat="44.59026481873879" lon="9.750565311274645"><ele>541.0</ele><time>2026-04-25T08:49:13Z</time></trkpt><trkpt lat="44.59037739592538" lon="9.75049413542963"><ele>541.0</ele><time>2026-04-25T08:49:14Z</time></trkpt><trkpt lat="44.590517702873356" lon="9.750453908500564"><ele>541.0</ele><time>2026-04-25T08:49:15Z</time></trkpt><trkpt lat="44.59060604393616" lon="9.750399265491303"><ele>541.0</ele><time>2026-04-25T08:49:16Z</time></trkpt><trkpt lat="44.59064524493817" lon="9.750269655482477"><ele>541.0</ele><time>2026-04-25T08:49:17Z</time></trkpt><trkpt lat="44.59063246756608" lon="9.750093697681752"><ele>541.0</ele><time>2026-04-25T08:49:18Z</time></trkpt><trkpt lat="44.59056466049794" lon="9.749934599906766"><ele>541.0</ele><time>2026-04-25T08:49:19Z</time></trkpt><trkpt lat="44.59044789809523" lon="9.749847294033291"><ele>549.0</ele><time>2026-04-25T08:49:20Z</time></trkpt><trkpt lat="44.59029471750464" lon="9.749847416224322"><ele>557.0</ele><time>2026-04-25T08:49:21Z</time></trkpt><trkpt lat="44.590152090304265" lon="9.749947113128806"><ele>565.0</ele><time>2026-04-25T08:49:22Z</time></trkpt><trkpt lat="44.58999708167772" lon="9.750117297300163"><ele>564.6666666666667</ele><time>2026-04-25T08:49:23Z</time></trkpt><trkpt lat="44.589823504119" lon="9.750233711792486"><ele>564.3333333333334</ele><time>2026-04-25T08:49:24Z</time></trkpt><trkpt lat="44.58965185668174" lon="9.750307122903838"><ele>564.0</ele><time>2026-04-25T08:49:25Z</time></trkpt><trkpt lat="44.58946554473116" lon="9.750340520367702"><ele>564.0</ele><time>2026-04-25T08:49:26Z</time></trkpt><trkpt lat="44.58928544848004" lon="9.75039517114811"><ele>564.0</ele><time>2026-04-25T08:49:27Z</time></trkpt><trkpt lat="44.58914235774906" lon="9.750488192222086"><ele>564.0</ele><time>2026-04-25T08:49:28Z</time></trkpt><trkpt lat="44.58905452098462" lon="9.750628310331528"><ele>564.0</ele><time>2026-04-25T08:49:29Z</time></trkpt><trkpt lat="44.58900824136631" lon="9.750787371739001"><ele>564.0</ele><time>2026-04-25T08:49:30Z</time></trkpt><trkpt lat="44.589035906611066" lon="9.75094407592035"><ele>564.0</ele><time>2026-04-25T08:49:31Z</time></trkpt><trkpt lat="44.5891085320591" lon="9.751106824117118"><ele>564.0</ele><time>2026-04-25T08:49:32Z</time></trkpt><trkpt lat="44.58914045028781" lon="9.75126087505823"><ele>562.75</ele><time>2026-04-25T08:49:33Z</time></trkpt><trkpt lat="44.58905669353887" lon="9.751357725749326"><ele>561.5</ele><time>2026-04-25T08:49:33.999Z</time></trkpt><trkpt lat="44.58894376286614" lon="9.751407346623552"><ele>560.25</ele><time>2026-04-25T08:49:34.999Z</time></trkpt><trkpt lat="44.588801779804655" lon="9.7513763106348"><ele>559.0</ele><time>2026-04-25T08:49:35.999Z</time></trkpt><trkpt lat="44.58864515265621" lon="9.751318259904291"><ele>563.3333333333334</ele><time>2026-04-25T08:49:36.999Z</time></trkpt><trkpt lat="44.58847426769942" lon="9.75126934963017"><ele>567.6666666666666</ele><time>2026-04-25T08:49:37.999Z</time></trkpt><trkpt lat="44.58827321816097" lon="9.75131550632708"><ele>572.0</ele><time>2026-04-25T08:49:38.999Z</time></trkpt><trkpt lat="44.58807623022" lon="9.751400598360219"><ele>572.0</ele><time>2026-04-25T08:49:39.999Z</time></trkpt><trkpt lat="44.587874138855994" lon="9.751449046471675"><ele>572.0</ele><time>2026-04-25T08:49:40.999Z</time></trkpt><trkpt lat="44.58770855602359" lon="9.751480684865921"><ele>572.0</ele><time>2026-04-25T08:49:41.999Z</time></trkpt><trkpt lat="44.58759994968768" lon="9.75145707688604"><ele>572.25</ele><time>2026-04-25T08:49:42.999Z</time></trkpt><trkpt lat="44.587521695817536" lon="9.751367825654588"><ele>572.5</ele><time>2026-04-25T08:49:43.999Z</time></trkpt><trkpt lat="44.587449703725994" lon="9.751191740300943"><ele>572.75</ele><time>2026-04-25T08:49:44.999Z</time></trkpt><trkpt lat="44.587356379339816" lon="9.750971385505567"><ele>573.0</ele><time>2026-04-25T08:49:45.999Z</time></trkpt><trkpt lat="44.587269001262136" lon="9.750747031760477"><ele>578.0</ele><time>2026-04-25T08:49:46.999Z</time></trkpt><trkpt lat="44.58716765411223" lon="9.75059872929104"><ele>583.0</ele><time>2026-04-25T08:49:47.999Z</time></trkpt><trkpt lat="44.58702962206031" lon="9.750521542190576"><ele>588.0</ele><time>2026-04-25T08:49:48.999Z</time></trkpt><trkpt lat="44.586851512746584" lon="9.750510945355263"><ele>588.0</ele><time>2026-04-25T08:49:49.999Z</time></trkpt><trkpt lat="44.58663463497925" lon="9.750530362864014"><ele>588.0</ele><time>2026-04-25T08:49:50.999Z</time></trkpt><trkpt lat="44.58643120965943" lon="9.750545011601096"><ele>588.0</ele><time>2026-04-25T08:49:51.999Z</time></trkpt><trkpt lat="44.58622176021691" lon="9.750544684913462"><ele>590.0</ele><time>2026-04-25T08:49:52.999Z</time></trkpt><trkpt lat="44.586023982834334" lon="9.75051668359277"><ele>592.0</ele><time>2026-04-25T08:49:53.999Z</time></trkpt><trkpt lat="44.58584889549611" lon="9.750501933161404"><ele>594.0</ele><time>2026-04-25T08:49:54.999Z</time></trkpt><trkpt lat="44.585696364600466" lon="9.750432825866898"><ele>594.0</ele><time>2026-04-25T08:49:55.999Z</time></trkpt><trkpt lat="44.5855702536286" lon="9.75031727513904"><ele>594.0</ele><time>2026-04-25T08:49:56.999Z</time></trkpt><trkpt lat="44.585441316416464" lon="9.750122605302813"><ele>594.0</ele><time>2026-04-25T08:49:57.999Z</time></trkpt><trkpt lat="44.5852955897575" lon="9.749895240240086"><ele>596.0</ele><time>2026-04-25T08:49:58.999Z</time></trkpt><trkpt lat="44.585155675688924" lon="9.7496634443448"><ele>598.0</ele><time>2026-04-25T08:49:59.999Z</time></trkpt><trkpt lat="44.58501790359642" lon="9.749451203331883"><ele>600.0</ele><time>2026-04-25T08:50:00.999Z</time></trkpt><trkpt lat="44.5848892382014" lon="9.749247982015095"><ele>603.0</ele><time>2026-04-25T08:50:01.999Z</time></trkpt><trkpt lat="44.58476509644269" lon="9.749078478174837"><ele>606.0</ele><time>2026-04-25T08:50:02.999Z</time></trkpt><trkpt lat="44.58461599195307" lon="9.74894774857995"><ele>609.0</ele><time>2026-04-25T08:50:03.999Z</time></trkpt><trkpt lat="44.58442695179426" lon="9.748877356871265"><ele>609.3333333333334</ele><time>2026-04-25T08:50:04.999Z</time></trkpt><trkpt lat="44.58421197659523" lon="9.74882529112027"><ele>609.6666666666667</ele><time>2026-04-25T08:50:05.999Z</time></trkpt><trkpt lat="44.584013351093745" lon="9.74875463886791"><ele>610.0</ele><time>2026-04-25T08:50:06.999Z</time></trkpt><trkpt lat="44.58382732134132" lon="9.74868859554861"><ele>610.0</ele><time>2026-04-25T08:50:07.999Z</time></trkpt><trkpt lat="44.583689622430484" lon="9.748615072498525"><ele>610.0</ele><time>2026-04-25T08:50:08.999Z</time></trkpt><trkpt lat="44.58361447564816" lon="9.748472320325003"><ele>610.0</ele><time>2026-04-25T08:50:09.999Z</time></trkpt><trkpt lat="44.58357694806164" lon="9.748281428223235"><ele>610.0</ele><time>2026-04-25T08:50:10.999Z</time></trkpt><trkpt lat="44.58350342518847" lon="9.748045729790261"><ele>611.0</ele><time>2026-04-25T08:50:11.999Z</time></trkpt><trkpt lat="44.58344051488357" lon="9.747791190767952"><ele>612.0</ele><time>2026-04-25T08:50:12.999Z</time></trkpt><trkpt lat="44.58338259408543" lon="9.747536804348844"><ele>613.0</ele><time>2026-04-25T08:50:13.999Z</time></trkpt><trkpt lat="44.58333288544197" lon="9.747287776813899"><ele>616.3333333333334</ele><time>2026-04-25T08:50:14.999Z</time></trkpt><trkpt lat="44.5832750595816" lon="9.747061806183229"><ele>619.6666666666666</ele><time>2026-04-25T08:50:15.999Z</time></trkpt><trkpt lat="44.58319983411633" lon="9.746852148627875"><ele>623.0</ele><time>2026-04-25T08:50:16.999Z</time></trkpt><trkpt lat="44.58308486937606" lon="9.746676056604947"><ele>624.6666666666666</ele><time>2026-04-25T08:50:17.999Z</time></trkpt><trkpt lat="44.58292124527781" lon="9.746549774766777"><ele>626.3333333333334</ele><time>2026-04-25T08:50:19Z</time></trkpt><trkpt lat="44.582735302774175" lon="9.746443988430302"><ele>628.0</ele><time>2026-04-25T08:50:20Z</time></trkpt><trkpt lat="44.58256375209514" lon="9.746337074348881"><ele>628.0</ele><time>2026-04-25T08:50:21Z</time></trkpt><trkpt lat="44.582421125611496" lon="9.74624627801498"><ele>628.0</ele><time>2026-04-25T08:50:22Z</time></trkpt><trkpt lat="44.58228385696064" lon="9.74623643474572"><ele>628.0</ele><time>2026-04-25T08:50:23Z</time></trkpt><trkpt lat="44.58214440183446" lon="9.746309111633037"><ele>628.0</ele><time>2026-04-25T08:50:24Z</time></trkpt><trkpt lat="44.58200703848512" lon="9.746475413615698"><ele>628.3333333333334</ele><time>2026-04-25T08:50:25Z</time></trkpt><trkpt lat="44.58186437763347" lon="9.74667290339378"><ele>628.6666666666666</ele><time>2026-04-25T08:50:26Z</time></trkpt><trkpt lat="44.58170941042338" lon="9.746835702431303"><ele>629.0</ele><time>2026-04-25T08:50:27Z</time></trkpt><trkpt lat="44.58153998315183" lon="9.74692907785884"><ele>629.0</ele><time>2026-04-25T08:50:28Z</time></trkpt><trkpt lat="44.581390740212385" lon="9.747008080749017"><ele>629.0</ele><time>2026-04-25T08:50:29Z</time></trkpt><trkpt lat="44.58114927531695" lon="9.747148807333001"><ele>629.0</ele><time>2026-04-25T08:50:30Z</time></trkpt><trkpt lat="44.58095249373973" lon="9.747246502609851"><ele>631.5</ele><time>2026-04-25T08:50:31Z</time></trkpt><trkpt lat="44.58077138022082" lon="9.747347539918193"><ele>634.0</ele><time>2026-04-25T08:50:32Z</time></trkpt><trkpt lat="44.580621744924294" lon="9.74737411441025"><ele>636.5</ele><time>2026-04-25T08:50:33Z</time></trkpt><trkpt lat="44.580523297763115" lon="9.747345966009068"><ele>639.0</ele><time>2026-04-25T08:50:34Z</time></trkpt><trkpt lat="44.58045887865625" lon="9.74722488042183"><ele>638.3333333333334</ele><time>2026-04-25T08:50:35Z</time></trkpt><trkpt lat="44.58034121870248" lon="9.747068872794296"><ele>637.6666666666667</ele><time>2026-04-25T08:50:36Z</time></trkpt><trkpt lat="44.580203029104425" lon="9.74686355596038"><ele>637.0</ele><time>2026-04-25T08:50:37Z</time></trkpt><trkpt lat="44.58006230988942" lon="9.746660387032291"><ele>641.0</ele><time>2026-04-25T08:50:38Z</time></trkpt><trkpt lat="44.5799351032915" lon="9.746527703748356"><ele>645.0</ele><time>2026-04-25T08:50:39Z</time></trkpt><trkpt lat="44.57981551539495" lon="9.746449222316558"><ele>649.0</ele><time>2026-04-25T08:50:40Z</time></trkpt><trkpt lat="44.57965378594813" lon="9.74649145845972"><ele>651.3333333333334</ele><time>2026-04-25T08:50:41Z</time></trkpt><trkpt lat="44.57945874044175" lon="9.746572056170802"><ele>653.6666666666666</ele><time>2026-04-25T08:50:42Z</time></trkpt><trkpt lat="44.579252807722455" lon="9.7467030954211"><ele>656.0</ele><time>2026-04-25T08:50:43Z</time></trkpt><trkpt lat="44.579084144900186" lon="9.746800205812267"><ele>656.0</ele><time>2026-04-25T08:50:44Z</time></trkpt><trkpt lat="44.57896099142446" lon="9.746757032588555"><ele>656.0</ele><time>2026-04-25T08:50:45Z</time></trkpt><trkpt lat="44.57888028892305" lon="9.746614861686686"><ele>656.0</ele><time>2026-04-25T08:50:46Z</time></trkpt><trkpt lat="44.578828344522606" lon="9.746435897995088"><ele>656.0</ele><time>2026-04-25T08:50:47Z</time></trkpt><trkpt lat="44.578732222072006" lon="9.746216606943861"><ele>654.75</ele><time>2026-04-25T08:50:48Z</time></trkpt><trkpt lat="44.578617778876556" lon="9.746063114126313"><ele>653.5</ele><time>2026-04-25T08:50:49Z</time></trkpt><trkpt lat="44.578512428479065" lon="9.745967742898317"><ele>652.25</ele><time>2026-04-25T08:50:50Z</time></trkpt><trkpt lat="44.57837641487962" lon="9.745978297048946"><ele>651.0</ele><time>2026-04-25T08:50:51Z</time></trkpt><trkpt lat="44.57825691550221" lon="9.746087564156175"><ele>651.0</ele><time>2026-04-25T08:50:52Z</time></trkpt><trkpt lat="44.578121959828586" lon="9.746245273438552"><ele>651.0</ele><time>2026-04-25T08:50:53Z</time></trkpt><trkpt lat="44.5779727785874" lon="9.746414271903383"><ele>651.0</ele><time>2026-04-25T08:50:54Z</time></trkpt><trkpt lat="44.57783170273043" lon="9.746458903608685"><ele>651.75</ele><time>2026-04-25T08:50:55Z</time></trkpt><trkpt lat="44.57771025995794" lon="9.746419339786561"><ele>652.5</ele><time>2026-04-25T08:50:56Z</time></trkpt><trkpt lat="44.577620234704305" lon="9.746315957971614"><ele>653.25</ele><time>2026-04-25T08:50:57Z</time></trkpt><trkpt lat="44.57748163693467" lon="9.7461779200858"><ele>654.0</ele><time>2026-04-25T08:50:58Z</time></trkpt><trkpt lat="44.577314062852345" lon="9.746025555802285"><ele>657.25</ele><time>2026-04-25T08:50:59Z</time></trkpt><trkpt lat="44.577185414007296" lon="9.745884047619018"><ele>660.5</ele><time>2026-04-25T08:51:00Z</time></trkpt><trkpt lat="44.57710128391441" lon="9.745751850009567"><ele>663.75</ele><time>2026-04-25T08:51:01Z</time></trkpt><trkpt lat="44.57709908975881" lon="9.7456031400746"><ele>667.0</ele><time>2026-04-25T08:51:02Z</time></trkpt><trkpt lat="44.57706578495033" lon="9.74537435644913"><ele>664.0</ele><time>2026-04-25T08:51:03Z</time></trkpt><trkpt lat="44.5770276922758" lon="9.745091315474541"><ele>661.0</ele><time>2026-04-25T08:51:04Z</time></trkpt><trkpt lat="44.57698808008811" lon="9.74479745863443"><ele>658.0</ele><time>2026-04-25T08:51:05Z</time></trkpt><trkpt lat="44.576936836551646" lon="9.744559495654673"><ele>662.3333333333334</ele><time>2026-04-25T08:51:06Z</time></trkpt><trkpt lat="44.5768932519352" lon="9.744370994151847"><ele>666.6666666666666</ele><time>2026-04-25T08:51:07Z</time></trkpt><trkpt lat="44.576810062544865" lon="9.744248288249375"><ele>671.0</ele><time>2026-04-25T08:51:08Z</time></trkpt><trkpt lat="44.57662137028928" lon="9.744201392717851"><ele>671.0</ele><time>2026-04-25T08:51:09Z</time></trkpt><trkpt lat="44.57644572265039" lon="9.744106558938933"><ele>671.0</ele><time>2026-04-25T08:51:10Z</time></trkpt><trkpt lat="44.57626983961317" lon="9.74399147699317"><ele>671.0</ele><time>2026-04-25T08:51:11Z</time></trkpt><trkpt lat="44.57608025036864" lon="9.74386900661864"><ele>670.3333333333333</ele><time>2026-04-25T08:51:12Z</time></trkpt><trkpt lat="44.575915145556536" lon="9.743777298544394"><ele>669.6666666666666</ele><time>2026-04-25T08:51:13Z</time></trkpt><trkpt lat="44.57576835346371" lon="9.743662144856856"><ele>669.0</ele><time>2026-04-25T08:51:14Z</time></trkpt><trkpt lat="44.57562724515048" lon="9.743499201264429"><ele>669.0</ele><time>2026-04-25T08:51:15Z</time></trkpt><trkpt lat="44.57548931801073" lon="9.743310821346217"><ele>669.0</ele><time>2026-04-25T08:51:16Z</time></trkpt><trkpt lat="44.57534259628805" lon="9.743086833509137"><ele>669.0</ele><time>2026-04-25T08:51:17Z</time></trkpt><trkpt lat="44.575192860578774" lon="9.742851639377628"><ele>670.6666666666666</ele><time>2026-04-25T08:51:18Z</time></trkpt><trkpt lat="44.57504015262636" lon="9.742648194132428"><ele>672.3333333333333</ele><time>2026-04-25T08:51:19Z</time></trkpt><trkpt lat="44.57490676731629" lon="9.742472771047506"><ele>674.0</ele><time>2026-04-25T08:51:20Z</time></trkpt><trkpt lat="44.57473249019986" lon="9.742339868127962"><ele>674.0</ele><time>2026-04-25T08:51:21Z</time></trkpt><trkpt lat="44.574537082065504" lon="9.742247685317183"><ele>674.0</ele><time>2026-04-25T08:51:22Z</time></trkpt><trkpt lat="44.5743269637932" lon="9.742209339479343"><ele>674.0</ele><time>2026-04-25T08:51:23Z</time></trkpt><trkpt lat="44.57410029043925" lon="9.742213561241067"><ele>671.6666666666666</ele><time>2026-04-25T08:51:24Z</time></trkpt><trkpt lat="44.57390183212876" lon="9.74220255053823"><ele>669.3333333333334</ele><time>2026-04-25T08:51:25Z</time></trkpt><trkpt lat="44.57372735039523" lon="9.742161215789121"><ele>667.0</ele><time>2026-04-25T08:51:26Z</time></trkpt><trkpt lat="44.573556426896644" lon="9.742058989914412"><ele>666.0</ele><time>2026-04-25T08:51:27Z</time></trkpt><trkpt lat="44.573390753363604" lon="9.741887497357538"><ele>665.0</ele><time>2026-04-25T08:51:28Z</time></trkpt><trkpt lat="44.57324557043382" lon="9.74170107753443"><ele>664.0</ele><time>2026-04-25T08:51:29Z</time></trkpt><trkpt lat="44.573228751416956" lon="9.741472429914092"><ele>668.6666666666667</ele><time>2026-04-25T08:51:30Z</time></trkpt><trkpt lat="44.57314406886088" lon="9.741260084983546"><ele>673.3333333333334</ele><time>2026-04-25T08:51:31Z</time></trkpt><trkpt lat="44.57303920779167" lon="9.741090305064091"><ele>678.0</ele><time>2026-04-25T08:51:32Z</time></trkpt><trkpt lat="44.57291593604445" lon="9.740915708793224"><ele>678.3333333333334</ele><time>2026-04-25T08:51:33Z</time></trkpt><trkpt lat="44.572729691126135" lon="9.740769449568067"><ele>678.6666666666667</ele><time>2026-04-25T08:51:34Z</time></trkpt><trkpt lat="44.572522774956404" lon="9.740653075603092"><ele>679.0</ele><time>2026-04-25T08:51:35Z</time></trkpt><trkpt lat="44.57235716749389" lon="9.740548002199182"><ele>679.0</ele><time>2026-04-25T08:51:36Z</time></trkpt><trkpt lat="44.57219651285046" lon="9.740407444455405"><ele>679.0</ele><time>2026-04-25T08:51:36.999Z</time></trkpt><trkpt lat="44.57202194852133" lon="9.740256362441642"><ele>679.0</ele><time>2026-04-25T08:51:37.999Z</time></trkpt><trkpt lat="44.57188554805694" lon="9.740095478647367"><ele>680.6666666666667</ele><time>2026-04-25T08:51:38.999Z</time></trkpt><trkpt lat="44.57177175530593" lon="9.739951634183203"><ele>682.3333333333334</ele><time>2026-04-25T08:51:39.999Z</time></trkpt><trkpt lat="44.57171480452278" lon="9.739779651264975"><ele>684.0</ele><time>2026-04-25T08:51:40.999Z</time></trkpt><trkpt lat="44.57167460218757" lon="9.739552193630185"><ele>688.0</ele><time>2026-04-25T08:51:41.999Z</time></trkpt><trkpt lat="44.57162820912685" lon="9.739309958715394"><ele>692.0</ele><time>2026-04-25T08:51:42.999Z</time></trkpt><trkpt lat="44.571564949938136" lon="9.739082385877088"><ele>696.0</ele><time>2026-04-25T08:51:43.999Z</time></trkpt><trkpt lat="44.57144922857756" lon="9.738874420525761"><ele>696.0</ele><time>2026-04-25T08:51:44.999Z</time></trkpt><trkpt lat="44.57129984788309" lon="9.738724345521868"><ele>696.0</ele><time>2026-04-25T08:51:45.999Z</time></trkpt><trkpt lat="44.57114823608998" lon="9.73860968979127"><ele>696.0</ele><time>2026-04-25T08:51:46.999Z</time></trkpt><trkpt lat="44.57100811084571" lon="9.738502477505554"><ele>696.0</ele><time>2026-04-25T08:51:47.999Z</time></trkpt><trkpt lat="44.5708790666995" lon="9.738306660732402"><ele>696.0</ele><time>2026-04-25T08:51:48.999Z</time></trkpt><trkpt lat="44.570722247113835" lon="9.738104601318387"><ele>696.0</ele><time>2026-04-25T08:51:49.999Z</time></trkpt><trkpt lat="44.57057314339389" lon="9.737885729206358"><ele>694.6666666666666</ele><time>2026-04-25T08:51:50.999Z</time></trkpt><trkpt lat="44.57043677468371" lon="9.737688119227586"><ele>693.3333333333333</ele><time>2026-04-25T08:51:51.999Z</time></trkpt><trkpt lat="44.570329933258776" lon="9.737525381994985"><ele>692.0</ele><time>2026-04-25T08:51:52.999Z</time></trkpt><trkpt lat="44.57027543062913" lon="9.737406089591955"><ele>692.0</ele><time>2026-04-25T08:51:53.999Z</time></trkpt><trkpt lat="44.57025822824382" lon="9.737293433629167"><ele>692.0</ele><time>2026-04-25T08:51:54.999Z</time></trkpt><trkpt lat="44.570309990607804" lon="9.737166296863546"><ele>692.0</ele><time>2026-04-25T08:51:55.999Z</time></trkpt><trkpt lat="44.57041605912212" lon="9.737082331204418"><ele>692.0</ele><time>2026-04-25T08:51:56.999Z</time></trkpt><trkpt lat="44.570537346314254" lon="9.737133905186264"><ele>692.0</ele><time>2026-04-25T08:51:57.999Z</time></trkpt><trkpt lat="44.5706578007179" lon="9.73724570462347"><ele>698.6666666666666</ele><time>2026-04-25T08:51:58.999Z</time></trkpt><trkpt lat="44.57081803133709" lon="9.737372837933215"><ele>705.3333333333334</ele><time>2026-04-25T08:51:59.999Z</time></trkpt><trkpt lat="44.57098112081949" lon="9.737533122758324"><ele>712.0</ele><time>2026-04-25T08:52:00.999Z</time></trkpt><trkpt lat="44.57115269941885" lon="9.737685772844433"><ele>711.3333333333334</ele><time>2026-04-25T08:52:01.999Z</time></trkpt><trkpt lat="44.57130973167528" lon="9.737814670795657"><ele>710.6666666666666</ele><time>2026-04-25T08:52:02.999Z</time></trkpt><trkpt lat="44.57149270045778" lon="9.737990283816247"><ele>710.0</ele><time>2026-04-25T08:52:03.999Z</time></trkpt><trkpt lat="44.571670893762025" lon="9.738178496744808"><ele>710.0</ele><time>2026-04-25T08:52:04.999Z</time></trkpt><trkpt lat="44.571877676312" lon="9.738261620725533"><ele>710.0</ele><time>2026-04-25T08:52:05.999Z</time></trkpt><trkpt lat="44.57180079537795" lon="9.738180515360686"><ele>710.0</ele><time>2026-04-25T08:52:06.999Z</time></trkpt><trkpt lat="44.57189284899005" lon="9.73812092877474"><ele>710.0</ele><time>2026-04-25T08:52:07.999Z</time></trkpt><trkpt lat="44.571945436425494" lon="9.737969573071432"><ele>710.0</ele><time>2026-04-25T08:52:08.999Z</time></trkpt><trkpt lat="44.57195608140486" lon="9.73779999271804"><ele>710.0</ele><time>2026-04-25T08:52:09.999Z</time></trkpt><trkpt lat="44.571904421274084" lon="9.73762295265951"><ele>710.0</ele><time>2026-04-25T08:52:10.999Z</time></trkpt><trkpt lat="44.57176785067506" lon="9.737468127514859"><ele>710.0</ele><time>2026-04-25T08:52:11.999Z</time></trkpt><trkpt lat="44.57158482209567" lon="9.737318851615653"><ele>715.0</ele><time>2026-04-25T08:52:12.999Z</time></trkpt><trkpt lat="44.57139464773064" lon="9.737145748131304"><ele>720.0</ele><time>2026-04-25T08:52:13.999Z</time></trkpt><trkpt lat="44.57121867501907" lon="9.736969348405236"><ele>725.0</ele><time>2026-04-25T08:52:14.999Z</time></trkpt><trkpt lat="44.57103374537409" lon="9.736776319344983"><ele>725.0</ele><time>2026-04-25T08:52:15.999Z</time></trkpt><trkpt lat="44.570871314463545" lon="9.736599342806958"><ele>725.0</ele><time>2026-04-25T08:52:16.999Z</time></trkpt><trkpt lat="44.5707286623192" lon="9.736451398670836"><ele>725.0</ele><time>2026-04-25T08:52:17.999Z</time></trkpt><trkpt lat="44.5706408890867" lon="9.736302473393112"><ele>725.0</ele><time>2026-04-25T08:52:18.999Z</time></trkpt><trkpt lat="44.57059986208965" lon="9.736148131126926"><ele>725.0</ele><time>2026-04-25T08:52:19.999Z</time></trkpt><trkpt lat="44.570617368530954" lon="9.735950068125781"><ele>725.0</ele><time>2026-04-25T08:52:20.999Z</time></trkpt><trkpt lat="44.57066053067568" lon="9.735690687008397"><ele>725.0</ele><time>2026-04-25T08:52:21.999Z</time></trkpt><trkpt lat="44.57070564105234" lon="9.73539866862076"><ele>730.6666666666666</ele><time>2026-04-25T08:52:22.999Z</time></trkpt><trkpt lat="44.570719776610716" lon="9.735125528517678"><ele>736.3333333333334</ele><time>2026-04-25T08:52:23.999Z</time></trkpt><trkpt lat="44.57070628011805" lon="9.734843844054668"><ele>742.0</ele><time>2026-04-25T08:52:25Z</time></trkpt><trkpt lat="44.570635611111896" lon="9.734541584936602"><ele>743.6666666666667</ele><time>2026-04-25T08:52:26Z</time></trkpt><trkpt lat="44.57057021947078" lon="9.734255192859182"><ele>745.3333333333334</ele><time>2026-04-25T08:52:27Z</time></trkpt><trkpt lat="44.57052365418826" lon="9.734030974406908"><ele>747.0</ele><time>2026-04-25T08:52:28Z</time></trkpt><trkpt lat="44.57045684267401" lon="9.733883714101403"><ele>742.6666666666666</ele><time>2026-04-25T08:52:29Z</time></trkpt><trkpt lat="44.57034083555523" lon="9.733788603448575"><ele>738.3333333333333</ele><time>2026-04-25T08:52:30Z</time></trkpt><trkpt lat="44.57016760595506" lon="9.73374717553268"><ele>734.0</ele><time>2026-04-25T08:52:31Z</time></trkpt><trkpt lat="44.56999929910782" lon="9.733714669465957"><ele>734.0</ele><time>2026-04-25T08:52:32Z</time></trkpt><trkpt lat="44.56987175210383" lon="9.733668350975943"><ele>734.0</ele><time>2026-04-25T08:52:33Z</time></trkpt><trkpt lat="44.569716870709684" lon="9.733904448606717"><ele>734.0</ele><time>2026-04-25T08:52:34Z</time></trkpt><trkpt lat="44.569591213679026" lon="9.734161335322566"><ele>736.5</ele><time>2026-04-25T08:52:35Z</time></trkpt><trkpt lat="44.569444509794025" lon="9.734454028770616"><ele>739.0</ele><time>2026-04-25T08:52:36Z</time></trkpt><trkpt lat="44.569300552654646" lon="9.734710260130969"><ele>739.0</ele><time>2026-04-25T08:52:37Z</time></trkpt><trkpt lat="44.569179089117064" lon="9.734913066536016"><ele>739.0</ele><time>2026-04-25T08:52:38Z</time></trkpt><trkpt lat="44.56908044382673" lon="9.73504091332644"><ele>739.0</ele><time>2026-04-25T08:52:39Z</time></trkpt><trkpt lat="44.568969375809864" lon="9.735086082106672"><ele>739.0</ele><time>2026-04-25T08:52:40Z</time></trkpt><trkpt lat="44.568830093527104" lon="9.735047049635574"><ele>738.3333333333334</ele><time>2026-04-25T08:52:41Z</time></trkpt><trkpt lat="44.56869034009021" lon="9.734912722137752"><ele>737.6666666666666</ele><time>2026-04-25T08:52:42Z</time></trkpt><trkpt lat="44.568575307312926" lon="9.734695367647607"><ele>737.0</ele><time>2026-04-25T08:52:43Z</time></trkpt><trkpt lat="44.568482776999694" lon="9.734411689526585"><ele>742.5</ele><time>2026-04-25T08:52:44Z</time></trkpt><trkpt lat="44.56837043781062" lon="9.734124663916736"><ele>748.0</ele><time>2026-04-25T08:52:45Z</time></trkpt><trkpt lat="44.56824576305528" lon="9.733869540318455"><ele>748.0</ele><time>2026-04-25T08:52:46Z</time></trkpt><trkpt lat="44.56807806030234" lon="9.733678823345532"><ele>748.0</ele><time>2026-04-25T08:52:47Z</time></trkpt><trkpt lat="44.56786180663928" lon="9.733539997357118"><ele>750.3333333333334</ele><time>2026-04-25T08:52:48Z</time></trkpt><trkpt lat="44.56765535099097" lon="9.733416191958755"><ele>752.6666666666666</ele><time>2026-04-25T08:52:49Z</time></trkpt><trkpt lat="44.56747407894809" lon="9.733262258185798"><ele>755.0</ele><time>2026-04-25T08:52:50Z</time></trkpt><trkpt lat="44.56730737490315" lon="9.733039954068175"><ele>755.0</ele><time>2026-04-25T08:52:51Z</time></trkpt><trkpt lat="44.56715880495934" lon="9.732758787125658"><ele>755.0</ele><time>2026-04-25T08:52:52Z</time></trkpt><trkpt lat="44.56702458618959" lon="9.732517946840634"><ele>753.0</ele><time>2026-04-25T08:52:53Z</time></trkpt><trkpt lat="44.566892974938334" lon="9.732262708410264"><ele>751.0</ele><time>2026-04-25T08:52:54Z</time></trkpt><trkpt lat="44.56677982556345" lon="9.731975878778393"><ele>756.5</ele><time>2026-04-25T08:52:55Z</time></trkpt><trkpt lat="44.56668149775802" lon="9.731667423804833"><ele>762.0</ele><time>2026-04-25T08:52:56Z</time></trkpt><trkpt lat="44.56658570109983" lon="9.731363497377416"><ele>762.0</ele><time>2026-04-25T08:52:57Z</time></trkpt><trkpt lat="44.5664887093663" lon="9.731077629046924"><ele>762.0</ele><time>2026-04-25T08:52:58Z</time></trkpt><trkpt lat="44.566398013227065" lon="9.73081547634471"><ele>762.0</ele><time>2026-04-25T08:52:59Z</time></trkpt><trkpt lat="44.566314168144714" lon="9.730582107274982"><ele>762.25</ele><time>2026-04-25T08:53:00Z</time></trkpt><trkpt lat="44.566230749089264" lon="9.730408370764392"><ele>762.5</ele><time>2026-04-25T08:53:01Z</time></trkpt><trkpt lat="44.566124502027336" lon="9.730308216939784"><ele>762.75</ele><time>2026-04-25T08:53:02Z</time></trkpt><trkpt lat="44.56599588782428" lon="9.73026482872469"><ele>763.0</ele><time>2026-04-25T08:53:03Z</time></trkpt><trkpt lat="44.56583313198325" lon="9.730259320305706"><ele>763.0</ele><time>2026-04-25T08:53:04Z</time></trkpt><trkpt lat="44.56565808632851" lon="9.730280868307062"><ele>763.0</ele><time>2026-04-25T08:53:05Z</time></trkpt><trkpt lat="44.565503650459995" lon="9.730350117973416"><ele>763.0</ele><time>2026-04-25T08:53:06Z</time></trkpt><trkpt lat="44.56536752798578" lon="9.730501682474292"><ele>767.0</ele><time>2026-04-25T08:53:07Z</time></trkpt><trkpt lat="44.56525335568565" lon="9.730697011995108"><ele>771.0</ele><time>2026-04-25T08:53:08Z</time></trkpt><trkpt lat="44.56513382106065" lon="9.730845975986275"><ele>775.0</ele><time>2026-04-25T08:53:09Z</time></trkpt><trkpt lat="44.56499914673275" lon="9.730915779755566"><ele>775.0</ele><time>2026-04-25T08:53:10Z</time></trkpt><trkpt lat="44.564850537790285" lon="9.730911050746236"><ele>775.0</ele><time>2026-04-25T08:53:11Z</time></trkpt><trkpt lat="44.564699222715426" lon="9.73082278102373"><ele>775.0</ele><time>2026-04-25T08:53:12Z</time></trkpt><trkpt lat="44.56456295017476" lon="9.73066535147684"><ele>773.0</ele><time>2026-04-25T08:53:13Z</time></trkpt><trkpt lat="44.56444157505163" lon="9.730439734923383"><ele>771.0</ele><time>2026-04-25T08:53:14Z</time></trkpt><trkpt lat="44.56431141817381" lon="9.730205477112642"><ele>769.0</ele><time>2026-04-25T08:53:15Z</time></trkpt><trkpt lat="44.56415715665401" lon="9.729999146993944"><ele>774.3333333333333</ele><time>2026-04-25T08:53:16Z</time></trkpt><trkpt lat="44.56400137057284" lon="9.729813695387053"><ele>779.6666666666667</ele><time>2026-04-25T08:53:17Z</time></trkpt><trkpt lat="44.563871914976154" lon="9.729657386372187"><ele>785.0</ele><time>2026-04-25T08:53:18Z</time></trkpt><trkpt lat="44.56376681933639" lon="9.729567468628348"><ele>785.0</ele><time>2026-04-25T08:53:19Z</time></trkpt><trkpt lat="44.563662632906464" lon="9.729529321899609"><ele>785.0</ele><time>2026-04-25T08:53:20Z</time></trkpt><trkpt lat="44.56354447424078" lon="9.729564318638484"><ele>785.0</ele><time>2026-04-25T08:53:21Z</time></trkpt><trkpt lat="44.56342457993734" lon="9.729702471857387"><ele>785.0</ele><time>2026-04-25T08:53:22Z</time></trkpt><trkpt lat="44.563311005880294" lon="9.72992637662305"><ele>785.0</ele><time>2026-04-25T08:53:23Z</time></trkpt><trkpt lat="44.563189817170176" lon="9.73011101298224"><ele>785.0</ele><time>2026-04-25T08:53:24Z</time></trkpt><trkpt lat="44.56300304211635" lon="9.730230163542787"><ele>785.0</ele><time>2026-04-25T08:53:25Z</time></trkpt><trkpt lat="44.56281262388976" lon="9.730336028482723"><ele>785.6666666666667</ele><time>2026-04-25T08:53:26Z</time></trkpt><trkpt lat="44.5626571810218" lon="9.730439650637326"><ele>786.3333333333333</ele><time>2026-04-25T08:53:27Z</time></trkpt><trkpt lat="44.56252483240817" lon="9.730552803734566"><ele>787.0</ele><time>2026-04-25T08:53:28Z</time></trkpt><trkpt lat="44.562421349030664" lon="9.73071472607829"><ele>787.0</ele><time>2026-04-25T08:53:29Z</time></trkpt><trkpt lat="44.5623598432553" lon="9.730974665795319"><ele>787.0</ele><time>2026-04-25T08:53:30Z</time></trkpt><trkpt lat="44.56231265968846" lon="9.73128692752097"><ele>787.0</ele><time>2026-04-25T08:53:31Z</time></trkpt><trkpt lat="44.562256545795194" lon="9.731583012237174"><ele>785.3333333333333</ele><time>2026-04-25T08:53:32Z</time></trkpt><trkpt lat="44.56220169802013" lon="9.731871858654044"><ele>783.6666666666667</ele><time>2026-04-25T08:53:33Z</time></trkpt><trkpt lat="44.5621413919443" lon="9.732113265441301"><ele>782.0</ele><time>2026-04-25T08:53:34Z</time></trkpt><trkpt lat="44.562054190466036" lon="9.732291314367762"><ele>784.3333333333334</ele><time>2026-04-25T08:53:35Z</time></trkpt><trkpt lat="44.561933224975625" lon="9.732395809384625"><ele>786.6666666666667</ele><time>2026-04-25T08:53:36Z</time></trkpt><trkpt lat="44.561783515354655" lon="9.732422839240032"><ele>789.0</ele><time>2026-04-25T08:53:37Z</time></trkpt><trkpt lat="44.56159371237574" lon="9.732410475274172"><ele>789.0</ele><time>2026-04-25T08:53:38Z</time></trkpt><trkpt lat="44.56138062752175" lon="9.73241130015081"><ele>789.0</ele><time>2026-04-25T08:53:39Z</time></trkpt><trkpt lat="44.561158239801635" lon="9.732432206825257"><ele>789.0</ele><time>2026-04-25T08:53:40Z</time></trkpt><trkpt lat="44.56092728114077" lon="9.73245666918779"><ele>791.0</ele><time>2026-04-25T08:53:40.999Z</time></trkpt><trkpt lat="44.56069815080714" lon="9.73242874724809"><ele>793.0</ele><time>2026-04-25T08:53:41.999Z</time></trkpt><trkpt lat="44.560468581349305" lon="9.73231957749873"><ele>795.0</ele><time>2026-04-25T08:53:42.999Z</time></trkpt><trkpt lat="44.56026153659466" lon="9.732225238999257"><ele>797.0</ele><time>2026-04-25T08:53:43.999Z</time></trkpt><trkpt lat="44.56007466552695" lon="9.73215534084694"><ele>799.0</ele><time>2026-04-25T08:53:44.999Z</time></trkpt><trkpt lat="44.55992640667182" lon="9.73211777920378"><ele>799.0</ele><time>2026-04-25T08:53:45.999Z</time></trkpt><trkpt lat="44.55977957337285" lon="9.732158997537818"><ele>799.0</ele><time>2026-04-25T08:53:46.999Z</time></trkpt><trkpt lat="44.55964670785207" lon="9.732342699067152"><ele>799.0</ele><time>2026-04-25T08:53:47.999Z</time></trkpt><trkpt lat="44.559513720272534" lon="9.732552456310136"><ele>800.0</ele><time>2026-04-25T08:53:48.999Z</time></trkpt><trkpt lat="44.559370961243694" lon="9.732738464057952"><ele>801.0</ele><time>2026-04-25T08:53:49.999Z</time></trkpt><trkpt lat="44.559229445270525" lon="9.732855728480958"><ele>802.0</ele><time>2026-04-25T08:53:50.999Z</time></trkpt><trkpt lat="44.55906516126348" lon="9.732897750605787"><ele>802.0</ele><time>2026-04-25T08:53:51.999Z</time></trkpt><trkpt lat="44.55891837666284" lon="9.732839700374026"><ele>802.0</ele><time>2026-04-25T08:53:52.999Z</time></trkpt><trkpt lat="44.558801171400034" lon="9.732698872227108"><ele>802.0</ele><time>2026-04-25T08:53:53.999Z</time></trkpt><trkpt lat="44.55870017059401" lon="9.73246531903255"><ele>803.3333333333333</ele><time>2026-04-25T08:53:54.999Z</time></trkpt><trkpt lat="44.558617250718164" lon="9.732220038254939"><ele>804.6666666666667</ele><time>2026-04-25T08:53:55.999Z</time></trkpt><trkpt lat="44.558510918654605" lon="9.732040136593525"><ele>806.0</ele><time>2026-04-25T08:53:56.999Z</time></trkpt><trkpt lat="44.5583634728012" lon="9.73192298689116"><ele>806.0</ele><time>2026-04-25T08:53:57.999Z</time></trkpt><trkpt lat="44.558177308674026" lon="9.731893728318271"><ele>806.0</ele><time>2026-04-25T08:53:58.999Z</time></trkpt><trkpt lat="44.557968839584134" lon="9.731915244175738"><ele>806.0</ele><time>2026-04-25T08:53:59.999Z</time></trkpt><trkpt lat="44.55776114824066" lon="9.731895860659474"><ele>811.0</ele><time>2026-04-25T08:54:00.999Z</time></trkpt><trkpt lat="44.557566428278236" lon="9.731776658989224"><ele>816.0</ele><time>2026-04-25T08:54:01.999Z</time></trkpt><trkpt lat="44.557417908890244" lon="9.731659755069648"><ele>821.0</ele><time>2026-04-25T08:54:02.999Z</time></trkpt><trkpt lat="44.55723967485253" lon="9.731564554504786"><ele>821.0</ele><time>2026-04-25T08:54:03.999Z</time></trkpt><trkpt lat="44.557041391291506" lon="9.73152938698197"><ele>821.0</ele><time>2026-04-25T08:54:04.999Z</time></trkpt><trkpt lat="44.55680696599074" lon="9.731565174660206"><ele>821.0</ele><time>2026-04-25T08:54:05.999Z</time></trkpt><trkpt lat="44.556552472994916" lon="9.731621769830964"><ele>821.0</ele><time>2026-04-25T08:54:06.999Z</time></trkpt><trkpt lat="44.556288658790834" lon="9.731653987025194"><ele>821.0</ele><time>2026-04-25T08:54:07.999Z</time></trkpt><trkpt lat="44.55603095347615" lon="9.731685209206809"><ele>822.5</ele><time>2026-04-25T08:54:08.999Z</time></trkpt><trkpt lat="44.55577404434864" lon="9.731709831382368"><ele>824.0</ele><time>2026-04-25T08:54:09.999Z</time></trkpt><trkpt lat="44.55552164746189" lon="9.731737859165152"><ele>826.0</ele><time>2026-04-25T08:54:10.999Z</time></trkpt><trkpt lat="44.55529171751309" lon="9.73175665419432"><ele>828.0</ele><time>2026-04-25T08:54:11.999Z</time></trkpt><trkpt lat="44.55512898678934" lon="9.73177389248518"><ele>830.0</ele><time>2026-04-25T08:54:12.999Z</time></trkpt><trkpt lat="44.554971640105414" lon="9.731759975991503"><ele>830.0</ele><time>2026-04-25T08:54:13.999Z</time></trkpt><trkpt lat="44.5547198958263" lon="9.73174740884711"><ele>830.0</ele><time>2026-04-25T08:54:14.999Z</time></trkpt><trkpt lat="44.55453871770512" lon="9.731663653879748"><ele>830.0</ele><time>2026-04-25T08:54:15.999Z</time></trkpt><trkpt lat="44.55439020028692" lon="9.731600208841265"><ele>829.75</ele><time>2026-04-25T08:54:16.999Z</time></trkpt><trkpt lat="44.55426344982431" lon="9.731629957588328"><ele>829.5</ele><time>2026-04-25T08:54:17.999Z</time></trkpt><trkpt lat="44.5541379494875" lon="9.731730299298434"><ele>829.25</ele><time>2026-04-25T08:54:18.999Z</time></trkpt><trkpt lat="44.55403748157397" lon="9.731903781767537"><ele>829.0</ele><time>2026-04-25T08:54:19.999Z</time></trkpt><trkpt lat="44.55392812586334" lon="9.73212096623634"><ele>829.0</ele><time>2026-04-25T08:54:20.999Z</time></trkpt><trkpt lat="44.55380891829295" lon="9.732240615410035"><ele>829.0</ele><time>2026-04-25T08:54:21.999Z</time></trkpt><trkpt lat="44.553696246358705" lon="9.732242218869603"><ele>829.0</ele><time>2026-04-25T08:54:22.999Z</time></trkpt><trkpt lat="44.553580367750044" lon="9.73211639907157"><ele>829.0</ele><time>2026-04-25T08:54:23.999Z</time></trkpt><trkpt lat="44.553519795462655" lon="9.731930814422224"><ele>832.6666666666666</ele><time>2026-04-25T08:54:24.999Z</time></trkpt><trkpt lat="44.553551188229406" lon="9.731715142776684"><ele>836.3333333333333</ele><time>2026-04-25T08:54:25.999Z</time></trkpt><trkpt lat="44.553653009603465" lon="9.731546342079243"><ele>840.0</ele><time>2026-04-25T08:54:26.999Z</time></trkpt><trkpt lat="44.55380531934019" lon="9.731394156661322"><ele>840.0</ele><time>2026-04-25T08:54:27.999Z</time></trkpt><trkpt lat="44.55396986402574" lon="9.731226996307914"><ele>840.0</ele><time>2026-04-25T08:54:28.999Z</time></trkpt><trkpt lat="44.55413606437697" lon="9.731016969148698"><ele>840.0</ele><time>2026-04-25T08:54:29.999Z</time></trkpt><trkpt lat="44.55429584518807" lon="9.730813688819273"><ele>839.0</ele><time>2026-04-25T08:54:31Z</time></trkpt><trkpt lat="44.55446556605857" lon="9.730587144287663"><ele>838.0</ele><time>2026-04-25T08:54:32Z</time></trkpt><trkpt lat="44.5546247975283" lon="9.730374551635256"><ele>841.75</ele><time>2026-04-25T08:54:33Z</time></trkpt><trkpt lat="44.55476966412304" lon="9.730217088307947"><ele>845.5</ele><time>2026-04-25T08:54:34Z</time></trkpt><trkpt lat="44.554900558756614" lon="9.730140458395413"><ele>849.25</ele><time>2026-04-25T08:54:35Z</time></trkpt><trkpt lat="44.554999436604774" lon="9.73009560546688"><ele>853.0</ele><time>2026-04-25T08:54:36Z</time></trkpt><trkpt lat="44.555071715739125" lon="9.73000532052054"><ele>853.0</ele><time>2026-04-25T08:54:37Z</time></trkpt><trkpt lat="44.55509633754043" lon="9.729843253786884"><ele>853.0</ele><time>2026-04-25T08:54:38Z</time></trkpt><trkpt lat="44.555061485328636" lon="9.729652350978371"><ele>853.0</ele><time>2026-04-25T08:54:39Z</time></trkpt><trkpt lat="44.55495993767527" lon="9.729519186449206"><ele>853.0</ele><time>2026-04-25T08:54:40Z</time></trkpt><trkpt lat="44.55480591488226" lon="9.729478441787393"><ele>853.0</ele><time>2026-04-25T08:54:41Z</time></trkpt><trkpt lat="44.55464909016797" lon="9.729511745039314"><ele>853.0</ele><time>2026-04-25T08:54:42Z</time></trkpt><trkpt lat="44.55446616662871" lon="9.729628504092267"><ele>853.0</ele><time>2026-04-25T08:54:43Z</time></trkpt><trkpt lat="44.554262095925864" lon="9.72974076409096"><ele>856.6666666666666</ele><time>2026-04-25T08:54:44Z</time></trkpt><trkpt lat="44.55405785316886" lon="9.729826911109523"><ele>860.3333333333333</ele><time>2026-04-25T08:54:45Z</time></trkpt><trkpt lat="44.55385475051947" lon="9.729907085958434"><ele>864.0</ele><time>2026-04-25T08:54:46Z</time></trkpt><trkpt lat="44.553629666806835" lon="9.729988781025671"><ele>865.0</ele><time>2026-04-25T08:54:47Z</time></trkpt><trkpt lat="44.55342385747603" lon="9.730085426727864"><ele>866.0</ele><time>2026-04-25T08:54:48Z</time></trkpt><trkpt lat="44.55322292606513" lon="9.730217643506641"><ele>867.0</ele><time>2026-04-25T08:54:49Z</time></trkpt><trkpt lat="44.55303765444595" lon="9.730372263925503"><ele>873.0</ele><time>2026-04-25T08:54:50Z</time></trkpt><trkpt lat="44.55286948578324" lon="9.73051204852611"><ele>879.0</ele><time>2026-04-25T08:54:51Z</time></trkpt><trkpt lat="44.55270310742477" lon="9.730681889079374"><ele>885.0</ele><time>2026-04-25T08:54:52Z</time></trkpt><trkpt lat="44.55255684150868" lon="9.730926647620507"><ele>880.0</ele><time>2026-04-25T08:54:53Z</time></trkpt><trkpt lat="44.55241508395815" lon="9.73119202371592"><ele>875.0</ele><time>2026-04-25T08:54:54Z</time></trkpt><trkpt lat="44.55227434130378" lon="9.731442007039922"><ele>875.0</ele><time>2026-04-25T08:54:55Z</time></trkpt><trkpt lat="44.55214209084175" lon="9.731656979640002"><ele>875.0</ele><time>2026-04-25T08:54:56Z</time></trkpt><trkpt lat="44.55202743922984" lon="9.731827973660483"><ele>875.0</ele><time>2026-04-25T08:54:57Z</time></trkpt><trkpt lat="44.55191258898433" lon="9.731972056568083"><ele>876.25</ele><time>2026-04-25T08:54:58Z</time></trkpt><trkpt lat="44.551803467593935" lon="9.732048666599564"><ele>877.5</ele><time>2026-04-25T08:54:59Z</time></trkpt><trkpt lat="44.55167204743633" lon="9.73203565316801"><ele>878.75</ele><time>2026-04-25T08:55:00Z</time></trkpt><trkpt lat="44.55154181799992" lon="9.731942942591331"><ele>880.0</ele><time>2026-04-25T08:55:01Z</time></trkpt><trkpt lat="44.55144487255523" lon="9.731777451078178"><ele>883.6666666666666</ele><time>2026-04-25T08:55:02Z</time></trkpt><trkpt lat="44.55136709211169" lon="9.731536015234628"><ele>887.3333333333333</ele><time>2026-04-25T08:55:03Z</time></trkpt><trkpt lat="44.55127889800689" lon="9.731277210977709"><ele>891.0</ele><time>2026-04-25T08:55:04Z</time></trkpt><trkpt lat="44.55116807185546" lon="9.731022123670831"><ele>892.0</ele><time>2026-04-25T08:55:05Z</time></trkpt><trkpt lat="44.55104173843593" lon="9.730771723650792"><ele>893.0</ele><time>2026-04-25T08:55:06Z</time></trkpt><trkpt lat="44.55089736645679" lon="9.730536415048762"><ele>894.0</ele><time>2026-04-25T08:55:07Z</time></trkpt><trkpt lat="44.550727834765986" lon="9.730311806508302"><ele>899.0</ele><time>2026-04-25T08:55:08Z</time></trkpt><trkpt lat="44.55053366742841" lon="9.730073749552348"><ele>904.0</ele><time>2026-04-25T08:55:09Z</time></trkpt><trkpt lat="44.55034392251844" lon="9.729819718452584"><ele>904.0</ele><time>2026-04-25T08:55:10Z</time></trkpt><trkpt lat="44.55015259779629" lon="9.729544539750126"><ele>904.0</ele><time>2026-04-25T08:55:11Z</time></trkpt><trkpt lat="44.54995868767779" lon="9.729274490261096"><ele>906.0</ele><time>2026-04-25T08:55:12Z</time></trkpt><trkpt lat="44.5497799200708" lon="9.729029109601097"><ele>908.0</ele><time>2026-04-25T08:55:13Z</time></trkpt><trkpt lat="44.54960982364746" lon="9.728790545092279"><ele>910.6666666666667</ele><time>2026-04-25T08:55:14Z</time></trkpt><trkpt lat="44.54941748373314" lon="9.728501956966236"><ele>913.3333333333333</ele><time>2026-04-25T08:55:15Z</time></trkpt><trkpt lat="44.54933117127928" lon="9.728416454847004"><ele>916.0</ele><time>2026-04-25T08:55:16Z</time></trkpt><trkpt lat="44.54921424984684" lon="9.728259801372502"><ele>916.0</ele><time>2026-04-25T08:55:17Z</time></trkpt><trkpt lat="44.5491041837085" lon="9.72814053661852"><ele>916.0</ele><time>2026-04-25T08:55:18Z</time></trkpt><trkpt lat="44.54897832256808" lon="9.728102027803319"><ele>916.0</ele><time>2026-04-25T08:55:19Z</time></trkpt><trkpt lat="44.54882578857835" lon="9.728131975898005"><ele>916.0</ele><time>2026-04-25T08:55:20Z</time></trkpt><trkpt lat="44.54869623584487" lon="9.728263958878046"><ele>918.3333333333333</ele><time>2026-04-25T08:55:21Z</time></trkpt><trkpt lat="44.548605736664626" lon="9.728474580016874"><ele>920.6666666666667</ele><time>2026-04-25T08:55:22Z</time></trkpt><trkpt lat="44.54852935930613" lon="9.728759724989134"><ele>923.0</ele><time>2026-04-25T08:55:23Z</time></trkpt><trkpt lat="44.54845852211495" lon="9.729062782752854"><ele>923.0</ele><time>2026-04-25T08:55:24Z</time></trkpt><trkpt lat="44.54839117165434" lon="9.72935087478275"><ele>923.0</ele><time>2026-04-25T08:55:25Z</time></trkpt><trkpt lat="44.54832970213222" lon="9.729602121319708"><ele>923.0</ele><time>2026-04-25T08:55:26Z</time></trkpt><trkpt lat="44.548270093990176" lon="9.72981111753148"><ele>924.3333333333334</ele><time>2026-04-25T08:55:27Z</time></trkpt><trkpt lat="44.548191333756456" lon="9.729952896787601"><ele>925.6666666666667</ele><time>2026-04-25T08:55:28Z</time></trkpt><trkpt lat="44.54805441922292" lon="9.730029150712047"><ele>927.0</ele><time>2026-04-25T08:55:29Z</time></trkpt><trkpt lat="44.547869030895605" lon="9.730050899828335"><ele>927.0</ele><time>2026-04-25T08:55:30Z</time></trkpt><trkpt lat="44.54767159628402" lon="9.7299982807898"><ele>927.0</ele><time>2026-04-25T08:55:31Z</time></trkpt><trkpt lat="44.54748011652072" lon="9.729970738045283"><ele>927.0</ele><time>2026-04-25T08:55:32Z</time></trkpt><trkpt lat="44.547324051100674" lon="9.730016079257338"><ele>927.0</ele><time>2026-04-25T08:55:33Z</time></trkpt><trkpt lat="44.54720965955993" lon="9.730106976376156"><ele>927.0</ele><time>2026-04-25T08:55:34Z</time></trkpt><trkpt lat="44.54713029342691" lon="9.730279231562124"><ele>927.0</ele><time>2026-04-25T08:55:35Z</time></trkpt><trkpt lat="44.54706458084756" lon="9.730535149248913"><ele>928.6666666666667</ele><time>2026-04-25T08:55:36Z</time></trkpt><trkpt lat="44.54698635248565" lon="9.730816414203055"><ele>930.3333333333334</ele><time>2026-04-25T08:55:37Z</time></trkpt><trkpt lat="44.54689214557085" lon="9.731084910718442"><ele>932.0</ele><time>2026-04-25T08:55:38Z</time></trkpt><trkpt lat="44.546781988031945" lon="9.731343570995483"><ele>932.0</ele><time>2026-04-25T08:55:39Z</time></trkpt><trkpt lat="44.546649922521716" lon="9.731561398245129"><ele>932.0</ele><time>2026-04-25T08:55:40Z</time></trkpt><trkpt lat="44.54650649032688" lon="9.731715452205812"><ele>932.0</ele><time>2026-04-25T08:55:41Z</time></trkpt><trkpt lat="44.54631254269558" lon="9.731806120816739"><ele>932.6666666666667</ele><time>2026-04-25T08:55:42Z</time></trkpt><trkpt lat="44.54610300197889" lon="9.731871116951597"><ele>933.3333333333333</ele><time>2026-04-25T08:55:43Z</time></trkpt><trkpt lat="44.54593871220391" lon="9.73196916659381"><ele>934.0</ele><time>2026-04-25T08:55:44Z</time></trkpt><trkpt lat="44.5458147764041" lon="9.732114321211645"><ele>934.0</ele><time>2026-04-25T08:55:44.999Z</time></trkpt><trkpt lat="44.54572877952018" lon="9.732275244012914"><ele>934.0000000000001</ele><time>2026-04-25T08:55:45.999Z</time></trkpt><trkpt lat="44.5456649909349" lon="9.732419543818667"><ele>934.0000000000001</ele><time>2026-04-25T08:55:46.999Z</time></trkpt><trkpt lat="44.545611688809736" lon="9.732521219587095"><ele>934.0</ele><time>2026-04-25T08:55:47.999Z</time></trkpt><trkpt lat="44.54556727325461" lon="9.73259166204538"><ele>934.0</ele><time>2026-04-25T08:55:48.999Z</time></trkpt><trkpt lat="44.54547084670182" lon="9.732668269341355"><ele>934.1666666666666</ele><time>2026-04-25T08:55:50.999Z</time></trkpt><trkpt lat="44.545358426021274" lon="9.732681657791716"><ele>934.3333333333333</ele><time>2026-04-25T08:55:52.999Z</time></trkpt><trkpt lat="44.54527692530114" lon="9.732653610346219"><ele>934.5</ele><time>2026-04-25T08:55:54.999Z</time></trkpt><trkpt lat="44.5452119488258" lon="9.732624089739796"><ele>934.6666666666667</ele><time>2026-04-25T08:55:56.999Z</time></trkpt><trkpt lat="44.54514753774481" lon="9.732645285941658"><ele>934.8333333333334</ele><time>2026-04-25T08:56:00.999Z</time></trkpt><trkpt lat="44.54508488578393" lon="9.732676755559613"><ele>935.0</ele><time>2026-04-25T08:56:46Z</time></trkpt><trkpt lat="44.54512347796822" lon="9.732816461716332"><ele>936.2</ele><time>2026-04-25T08:56:50Z</time></trkpt><trkpt lat="44.54517053679922" lon="9.732746806294271"><ele>937.4</ele><time>2026-04-25T08:56:59Z</time></trkpt><trkpt lat="44.545124242214555" lon="9.732860485729448"><ele>938.5999999999999</ele><time>2026-04-25T08:57:22Z</time></trkpt><trkpt lat="44.54507118508779" lon="9.732984042542052"><ele>939.8</ele><time>2026-04-25T08:57:24Z</time></trkpt><trkpt lat="44.54500501126404" lon="9.73309068930855"><ele>941.0</ele><time>2026-04-25T08:57:26Z</time></trkpt><trkpt lat="44.54493984113723" lon="9.733187417130202"><ele>941.0</ele><time>2026-04-25T08:57:28Z</time></trkpt><trkpt lat="44.54484724145449" lon="9.733268538600317"><ele>940.9999999999999</ele><time>2026-04-25T08:57:30Z</time></trkpt><trkpt lat="44.5447825335047" lon="9.733329631820903"><ele>940.9999999999999</ele><time>2026-04-25T08:57:32Z</time></trkpt><trkpt lat="44.54468008534009" lon="9.733435924056618"><ele>941.0</ele><time>2026-04-25T08:57:34Z</time></trkpt><trkpt lat="44.54461451585523" lon="9.733478381631642"><ele>941.0</ele><time>2026-04-25T08:57:35Z</time></trkpt><trkpt lat="44.54455476269342" lon="9.733525472420148"><ele>939.6666666666667</ele><time>2026-04-25T08:57:36Z</time></trkpt><trkpt lat="44.544491572238506" lon="9.733570504890594"><ele>938.3333333333334</ele><time>2026-04-25T08:57:37Z</time></trkpt><trkpt lat="44.54442346484846" lon="9.733607106156928"><ele>937.0</ele><time>2026-04-25T08:57:38Z</time></trkpt><trkpt lat="44.54430849428677" lon="9.73368122278717"><ele>935.6666666666667</ele><time>2026-04-25T08:57:40Z</time></trkpt><trkpt lat="44.54423409688717" lon="9.733799773512242"><ele>934.3333333333334</ele><time>2026-04-25T08:57:42Z</time></trkpt><trkpt lat="44.544203641476194" lon="9.733878556715434"><ele>933.0</ele><time>2026-04-25T08:57:43Z</time></trkpt><trkpt lat="44.54417340866855" lon="9.734032001539417"><ele>933.0</ele><time>2026-04-25T08:57:44.999Z</time></trkpt><trkpt lat="44.54410895980265" lon="9.73417028497587"><ele>933.0</ele><time>2026-04-25T08:57:46.999Z</time></trkpt><trkpt lat="44.54408308849011" lon="9.734256053798482"><ele>933.0</ele><time>2026-04-25T08:57:47.999Z</time></trkpt><trkpt lat="44.54403806646521" lon="9.734332526600626"><ele>933.0</ele><time>2026-04-25T08:57:48.999Z</time></trkpt><trkpt lat="44.544002916368946" lon="9.734412677191502"><ele>933.0</ele><time>2026-04-25T08:57:49.999Z</time></trkpt><trkpt lat="44.54395334772169" lon="9.734583735771759"><ele>934.6666666666666</ele><time>2026-04-25T08:57:51.999Z</time></trkpt><trkpt lat="44.54393907682988" lon="9.734673988360832"><ele>936.3333333333333</ele><time>2026-04-25T08:57:52.999Z</time></trkpt><trkpt lat="44.54392786517216" lon="9.734777484594932"><ele>938.0</ele><time>2026-04-25T08:57:53.999Z</time></trkpt><trkpt lat="44.543948865885916" lon="9.734868767725489"><ele>939.6666666666666</ele><time>2026-04-25T08:57:54.999Z</time></trkpt><trkpt lat="44.5439483399185" lon="9.735031566529967"><ele>941.3333333333333</ele><time>2026-04-25T08:57:56.999Z</time></trkpt><trkpt lat="44.5439148092234" lon="9.735135539845679"><ele>943.0</ele><time>2026-04-25T08:57:58.999Z</time></trkpt><trkpt lat="44.54393235482495" lon="9.735030604551461"><ele>943.0</ele><time>2026-04-25T09:00:13.999Z</time></trkpt><trkpt lat="44.54394255239386" lon="9.734823703257861"><ele>943.0</ele><time>2026-04-25T09:00:15.999Z</time></trkpt><trkpt lat="44.54394493119012" lon="9.73470390410652"><ele>943.0</ele><time>2026-04-25T09:00:16.999Z</time></trkpt><trkpt lat="44.54395262564617" lon="9.734583783171347"><ele>943.0</ele><time>2026-04-25T09:00:17.999Z</time></trkpt><trkpt lat="44.54396010962765" lon="9.734495318618714"><ele>943.0</ele><time>2026-04-25T09:00:18.999Z</time></trkpt><trkpt lat="44.54400656913275" lon="9.73437409833148"><ele>941.3333333333333</ele><time>2026-04-25T09:00:20.999Z</time></trkpt><trkpt lat="44.54405433760765" lon="9.73428034545274"><ele>939.6666666666666</ele><time>2026-04-25T09:00:21.999Z</time></trkpt><trkpt lat="44.54411282559621" lon="9.734171942076118"><ele>938.0</ele><time>2026-04-25T09:00:22.999Z</time></trkpt><trkpt lat="44.544168926812716" lon="9.73407576582871"><ele>936.3333333333333</ele><time>2026-04-25T09:00:23.999Z</time></trkpt><trkpt lat="44.54421121482206" lon="9.733989693544101"><ele>934.6666666666666</ele><time>2026-04-25T09:00:24.999Z</time></trkpt><trkpt lat="44.54423672143637" lon="9.733887540206831"><ele>933.0</ele><time>2026-04-25T09:00:25.999Z</time></trkpt><trkpt lat="44.54427032900537" lon="9.73380228789095"><ele>933.0</ele><time>2026-04-25T09:00:26.999Z</time></trkpt><trkpt lat="44.54431651317738" lon="9.733734258281471"><ele>933.0</ele><time>2026-04-25T09:00:27.999Z</time></trkpt><trkpt lat="44.54437374385332" lon="9.733674456051089"><ele>933.0</ele><time>2026-04-25T09:00:28.999Z</time></trkpt><trkpt lat="44.54444363017716" lon="9.733626274139148"><ele>933.0</ele><time>2026-04-25T09:00:29.999Z</time></trkpt><trkpt lat="44.54451978051256" lon="9.733581638774519"><ele>933.0</ele><time>2026-04-25T09:00:30.999Z</time></trkpt><trkpt lat="44.544610162624" lon="9.733527566262083"><ele>933.0</ele><time>2026-04-25T09:00:31.999Z</time></trkpt><trkpt lat="44.54468369805932" lon="9.733471793150061"><ele>934.3333333333334</ele><time>2026-04-25T09:00:32.999Z</time></trkpt><trkpt lat="44.54474555842002" lon="9.733394437088073"><ele>935.6666666666667</ele><time>2026-04-25T09:00:33.999Z</time></trkpt><trkpt lat="44.544811213953786" lon="9.733334987724113"><ele>937.0</ele><time>2026-04-25T09:00:34.999Z</time></trkpt><trkpt lat="44.54486861474434" lon="9.73327737806648"><ele>938.3333333333334</ele><time>2026-04-25T09:00:35.999Z</time></trkpt><trkpt lat="44.544937117353214" lon="9.733232222716083"><ele>939.6666666666667</ele><time>2026-04-25T09:00:36.999Z</time></trkpt><trkpt lat="44.544995639972974" lon="9.733160023026144"><ele>941.0</ele><time>2026-04-25T09:00:37.999Z</time></trkpt><trkpt lat="44.54503242917937" lon="9.73307961320087"><ele>941.0000000000001</ele><time>2026-04-25T09:00:38.999Z</time></trkpt><trkpt lat="44.545104671020454" lon="9.732938686213444"><ele>941.0</ele><time>2026-04-25T09:00:40.999Z</time></trkpt><trkpt lat="44.545155027677836" lon="9.732870883969388"><ele>941.0</ele><time>2026-04-25T09:00:41.999Z</time></trkpt><trkpt lat="44.545214335677535" lon="9.732772105738924"><ele>941.0</ele><time>2026-04-25T09:00:43.999Z</time></trkpt><trkpt lat="44.54523751888041" lon="9.732688165860468"><ele>941.0000000000001</ele><time>2026-04-25T09:00:47.999Z</time></trkpt><trkpt lat="44.545252519009274" lon="9.732597062528367"><ele>941.0</ele><time>2026-04-25T09:00:50Z</time></trkpt><trkpt lat="44.54518294355171" lon="9.732509359007363"><ele>939.5</ele><time>2026-04-25T09:00:51Z</time></trkpt><trkpt lat="44.54512730084107" lon="9.732406180293925"><ele>938.0</ele><time>2026-04-25T09:00:52Z</time></trkpt><trkpt lat="44.545059950052845" lon="9.732277605239153"><ele>936.5</ele><time>2026-04-25T09:00:53Z</time></trkpt><trkpt lat="44.544997501451306" lon="9.73214223410914"><ele>935.0</ele><time>2026-04-25T09:00:54Z</time></trkpt><trkpt lat="44.54492919000528" lon="9.73198776248643"><ele>936.0</ele><time>2026-04-25T09:00:55Z</time></trkpt><trkpt lat="44.5448539512524" lon="9.731831565479757"><ele>937.0</ele><time>2026-04-25T09:00:56Z</time></trkpt><trkpt lat="44.544763197273205" lon="9.731693051415101"><ele>938.0</ele><time>2026-04-25T09:00:57Z</time></trkpt><trkpt lat="44.54465921304247" lon="9.731574599989969"><ele>939.0</ele><time>2026-04-25T09:00:58Z</time></trkpt><trkpt lat="44.54454377579438" lon="9.731466709210867"><ele>935.75</ele><time>2026-04-25T09:00:59Z</time></trkpt><trkpt lat="44.54444207625574" lon="9.731351605929724"><ele>932.5</ele><time>2026-04-25T09:01:00Z</time></trkpt><trkpt lat="44.54437818937409" lon="9.731206479662157"><ele>929.25</ele><time>2026-04-25T09:01:01Z</time></trkpt><trkpt lat="44.5443605825227" lon="9.731013944996237"><ele>926.0</ele><time>2026-04-25T09:01:02Z</time></trkpt><trkpt lat="44.54438103964172" lon="9.730809106250033"><ele>926.0</ele><time>2026-04-25T09:01:03Z</time></trkpt><trkpt lat="44.5443927527251" lon="9.73062332642215"><ele>926.0</ele><time>2026-04-25T09:01:04Z</time></trkpt><trkpt lat="44.54439117344559" lon="9.73045838007645"><ele>926.0</ele><time>2026-04-25T09:01:05Z</time></trkpt><trkpt lat="44.54434051244814" lon="9.730301390358989"><ele>926.0</ele><time>2026-04-25T09:01:06Z</time></trkpt><trkpt lat="44.544239393121494" lon="9.730165289067182"><ele>927.6666666666667</ele><time>2026-04-25T09:01:07Z</time></trkpt><trkpt lat="44.54409357795382" lon="9.730085996633811"><ele>929.3333333333333</ele><time>2026-04-25T09:01:08Z</time></trkpt><trkpt lat="44.5439338262414" lon="9.730045928025124"><ele>931.0</ele><time>2026-04-25T09:01:09Z</time></trkpt><trkpt lat="44.54379205368981" lon="9.729985173867346"><ele>925.3333333333333</ele><time>2026-04-25T09:01:10Z</time></trkpt><trkpt lat="44.5436678751706" lon="9.729872759862271"><ele>919.6666666666667</ele><time>2026-04-25T09:01:11Z</time></trkpt><trkpt lat="44.543552025350614" lon="9.729713264338374"><ele>914.0</ele><time>2026-04-25T09:01:12Z</time></trkpt><trkpt lat="44.543441500039535" lon="9.729544322791359"><ele>916.0</ele><time>2026-04-25T09:01:13Z</time></trkpt><trkpt lat="44.54333760188121" lon="9.729375075449378"><ele>918.0</ele><time>2026-04-25T09:01:14Z</time></trkpt><trkpt lat="44.54324274830236" lon="9.729211526938093"><ele>920.0</ele><time>2026-04-25T09:01:15Z</time></trkpt><trkpt lat="44.543146643463515" lon="9.729049752888647"><ele>920.0</ele><time>2026-04-25T09:01:16Z</time></trkpt><trkpt lat="44.543041871734715" lon="9.728910232404544"><ele>920.0</ele><time>2026-04-25T09:01:17Z</time></trkpt><trkpt lat="44.542926292594224" lon="9.728775580279068"><ele>920.0</ele><time>2026-04-25T09:01:18Z</time></trkpt><trkpt lat="44.54279473200143" lon="9.72867330282684"><ele>920.0</ele><time>2026-04-25T09:01:19Z</time></trkpt><trkpt lat="44.54262620883097" lon="9.72862538253618"><ele>914.6666666666667</ele><time>2026-04-25T09:01:20Z</time></trkpt><trkpt lat="44.54243852437944" lon="9.728630803971434"><ele>909.3333333333333</ele><time>2026-04-25T09:01:21Z</time></trkpt><trkpt lat="44.542260999420996" lon="9.728628782853466"><ele>904.0</ele><time>2026-04-25T09:01:22Z</time></trkpt><trkpt lat="44.54209964433754" lon="9.728609276803502"><ele>904.75</ele><time>2026-04-25T09:01:23Z</time></trkpt><trkpt lat="44.541950132181476" lon="9.728595858641729"><ele>905.5</ele><time>2026-04-25T09:01:24Z</time></trkpt><trkpt lat="44.541815270292574" lon="9.728584071200707"><ele>906.25</ele><time>2026-04-25T09:01:25Z</time></trkpt><trkpt lat="44.54170871713995" lon="9.728515913488902"><ele>907.0</ele><time>2026-04-25T09:01:26Z</time></trkpt><trkpt lat="44.54162397634229" lon="9.7284249526311"><ele>907.0</ele><time>2026-04-25T09:01:27Z</time></trkpt><trkpt lat="44.54157651784314" lon="9.728265861696592"><ele>907.0</ele><time>2026-04-25T09:01:28Z</time></trkpt><trkpt lat="44.54153653444133" lon="9.728062233922797"><ele>907.0</ele><time>2026-04-25T09:01:29Z</time></trkpt><trkpt lat="44.54151928166122" lon="9.727836970330095"><ele>907.0</ele><time>2026-04-25T09:01:30Z</time></trkpt><trkpt lat="44.5414971536257" lon="9.727606514086922"><ele>906.3333333333333</ele><time>2026-04-25T09:01:31Z</time></trkpt><trkpt lat="44.541469621671276" lon="9.727394095593219"><ele>905.6666666666667</ele><time>2026-04-25T09:01:32Z</time></trkpt><trkpt lat="44.54143780062672" lon="9.727160128473969"><ele>905.0</ele><time>2026-04-25T09:01:33Z</time></trkpt><trkpt lat="44.54140894066371" lon="9.726938724885617"><ele>904.3333333333334</ele><time>2026-04-25T09:01:34Z</time></trkpt><trkpt lat="44.541380859138734" lon="9.726705455917752"><ele>903.6666666666667</ele><time>2026-04-25T09:01:35Z</time></trkpt><trkpt lat="44.54135573863609" lon="9.7264684930109"><ele>903.0</ele><time>2026-04-25T09:01:36Z</time></trkpt><trkpt lat="44.54133324764078" lon="9.726231062664139"><ele>903.0</ele><time>2026-04-25T09:01:37Z</time></trkpt><trkpt lat="44.541313409987644" lon="9.725998037590514"><ele>903.0</ele><time>2026-04-25T09:01:38Z</time></trkpt><trkpt lat="44.541294952064774" lon="9.72576401050802"><ele>903.0</ele><time>2026-04-25T09:01:39Z</time></trkpt><trkpt lat="44.541273647996775" lon="9.725532141428804"><ele>903.0</ele><time>2026-04-25T09:01:40Z</time></trkpt><trkpt lat="44.541244479067075" lon="9.725321805356252"><ele>903.0</ele><time>2026-04-25T09:01:41Z</time></trkpt><trkpt lat="44.541193130193406" lon="9.725141612777737"><ele>903.0</ele><time>2026-04-25T09:01:42Z</time></trkpt><trkpt lat="44.541097113677644" lon="9.724995122152219"><ele>903.0</ele><time>2026-04-25T09:01:43Z</time></trkpt><trkpt lat="44.54094287840146" lon="9.724898557821806"><ele>898.6666666666667</ele><time>2026-04-25T09:01:44Z</time></trkpt><trkpt lat="44.54077372689278" lon="9.724836578671429"><ele>894.3333333333334</ele><time>2026-04-25T09:01:45Z</time></trkpt><trkpt lat="44.54063030451476" lon="9.724763309531044"><ele>890.0</ele><time>2026-04-25T09:01:46Z</time></trkpt><trkpt lat="44.540522237148245" lon="9.724626746788045"><ele>890.0</ele><time>2026-04-25T09:01:47Z</time></trkpt><trkpt lat="44.54042742734922" lon="9.724448034695843"><ele>890.0</ele><time>2026-04-25T09:01:48Z</time></trkpt><trkpt lat="44.54031321535232" lon="9.724252461922424"><ele>890.0</ele><time>2026-04-25T09:01:49Z</time></trkpt><trkpt lat="44.540217012605574" lon="9.724037370693054"><ele>889.0</ele><time>2026-04-25T09:01:50Z</time></trkpt><trkpt lat="44.540109274807996" lon="9.723830046541423"><ele>888.0</ele><time>2026-04-25T09:01:51Z</time></trkpt><trkpt lat="44.54000074447171" lon="9.723651772996048"><ele>887.0</ele><time>2026-04-25T09:01:52Z</time></trkpt><trkpt lat="44.53986912642221" lon="9.72350572366998"><ele>887.0</ele><time>2026-04-25T09:01:53Z</time></trkpt><trkpt lat="44.53971898845186" lon="9.723401549103201"><ele>887.0</ele><time>2026-04-25T09:01:54Z</time></trkpt><trkpt lat="44.53956831878032" lon="9.72329747254589"><ele>887.0</ele><time>2026-04-25T09:01:54.999Z</time></trkpt><trkpt lat="44.53943471041847" lon="9.723189081575429"><ele>883.0</ele><time>2026-04-25T09:01:55.999Z</time></trkpt><trkpt lat="44.53931331829841" lon="9.723081394164636"><ele>879.0</ele><time>2026-04-25T09:01:56.999Z</time></trkpt><trkpt lat="44.53923459679029" lon="9.722961141506158"><ele>875.0</ele><time>2026-04-25T09:01:57.999Z</time></trkpt><trkpt lat="44.53924146047595" lon="9.722771528778004"><ele>871.0</ele><time>2026-04-25T09:01:58.999Z</time></trkpt><trkpt lat="44.53928236334062" lon="9.722571876248727"><ele>871.0</ele><time>2026-04-25T09:01:59.999Z</time></trkpt><trkpt lat="44.53933179217543" lon="9.72235805271808"><ele>871.0</ele><time>2026-04-25T09:02:00.999Z</time></trkpt><trkpt lat="44.53937693840285" lon="9.722186589413234"><ele>871.0</ele><time>2026-04-25T09:02:01.999Z</time></trkpt><trkpt lat="44.53938099466348" lon="9.722037913134965"><ele>871.0</ele><time>2026-04-25T09:02:02.999Z</time></trkpt><trkpt lat="44.5393244522287" lon="9.721915779225188"><ele>871.0</ele><time>2026-04-25T09:02:03.999Z</time></trkpt><trkpt lat="44.53922278502027" lon="9.721820760482906"><ele>871.0</ele><time>2026-04-25T09:02:04.999Z</time></trkpt><trkpt lat="44.53909779560523" lon="9.721801902571327"><ele>871.0</ele><time>2026-04-25T09:02:05.999Z</time></trkpt><trkpt lat="44.53897924440975" lon="9.721864577747494"><ele>871.0</ele><time>2026-04-25T09:02:06.999Z</time></trkpt><trkpt lat="44.53888546330149" lon="9.72199759671696"><ele>871.0</ele><time>2026-04-25T09:02:07.999Z</time></trkpt><trkpt lat="44.53885187510878" lon="9.722184905334952"><ele>871.0</ele><time>2026-04-25T09:02:08.999Z</time></trkpt><trkpt lat="44.538874108968756" lon="9.722410086355204"><ele>871.0</ele><time>2026-04-25T09:02:09.999Z</time></trkpt><trkpt lat="44.538893543791396" lon="9.722648835925138"><ele>869.6666666666666</ele><time>2026-04-25T09:02:10.999Z</time></trkpt><trkpt lat="44.53890217775564" lon="9.722872232753623"><ele>868.3333333333333</ele><time>2026-04-25T09:02:11.999Z</time></trkpt><trkpt lat="44.53892575585308" lon="9.723088002990302"><ele>867.0</ele><time>2026-04-25T09:02:12.999Z</time></trkpt><trkpt lat="44.538978244223266" lon="9.72330793970146"><ele>867.0</ele><time>2026-04-25T09:02:13.999Z</time></trkpt><trkpt lat="44.53904160714779" lon="9.723536008858236"><ele>867.0</ele><time>2026-04-25T09:02:14.999Z</time></trkpt><trkpt lat="44.539111323836956" lon="9.72377126243113"><ele>867.0</ele><time>2026-04-25T09:02:15.999Z</time></trkpt><trkpt lat="44.53917877792113" lon="9.724006098230735"><ele>865.3333333333333</ele><time>2026-04-25T09:02:16.999Z</time></trkpt><trkpt lat="44.53924412757543" lon="9.724253307223323"><ele>863.6666666666666</ele><time>2026-04-25T09:02:17.999Z</time></trkpt><trkpt lat="44.53930445673074" lon="9.724492758270857"><ele>862.0</ele><time>2026-04-25T09:02:18.999Z</time></trkpt><trkpt lat="44.53936415711183" lon="9.724721993673443"><ele>860.3333333333333</ele><time>2026-04-25T09:02:19.999Z</time></trkpt><trkpt lat="44.539422409724764" lon="9.72494073771472"><ele>858.6666666666667</ele><time>2026-04-25T09:02:20.999Z</time></trkpt><trkpt lat="44.539481298652866" lon="9.725152420021509"><ele>857.0</ele><time>2026-04-25T09:02:21.999Z</time></trkpt><trkpt lat="44.53950142815397" lon="9.725371876690282"><ele>857.0</ele><time>2026-04-25T09:02:22.999Z</time></trkpt><trkpt lat="44.5394839872058" lon="9.725580612794865"><ele>857.0</ele><time>2026-04-25T09:02:23.999Z</time></trkpt><trkpt lat="44.53946280281386" lon="9.725806074818104"><ele>857.0</ele><time>2026-04-25T09:02:24.999Z</time></trkpt><trkpt lat="44.539432084812695" lon="9.725989825150421"><ele>857.0</ele><time>2026-04-25T09:02:25.999Z</time></trkpt><trkpt lat="44.539375256342176" lon="9.726103536825821"><ele>857.0</ele><time>2026-04-25T09:02:26.999Z</time></trkpt><trkpt lat="44.53928559386474" lon="9.726159663477043"><ele>857.0</ele><time>2026-04-25T09:02:27.999Z</time></trkpt><trkpt lat="44.5391684170935" lon="9.726217407998595"><ele>857.0</ele><time>2026-04-25T09:02:28.999Z</time></trkpt><trkpt lat="44.539037500392496" lon="9.726166709127657"><ele>857.0</ele><time>2026-04-25T09:02:29.999Z</time></trkpt><trkpt lat="44.53894316693301" lon="9.72602378769128"><ele>857.0</ele><time>2026-04-25T09:02:30.999Z</time></trkpt><trkpt lat="44.53891558722213" lon="9.725845365528523"><ele>857.0</ele><time>2026-04-25T09:02:31.999Z</time></trkpt><trkpt lat="44.53890180777922" lon="9.7256447893703"><ele>857.0</ele><time>2026-04-25T09:02:32.999Z</time></trkpt><trkpt lat="44.538870989803684" lon="9.725422781906628"><ele>857.0</ele><time>2026-04-25T09:02:33.999Z</time></trkpt><trkpt lat="44.538818070082684" lon="9.725208390235423"><ele>852.0</ele><time>2026-04-25T09:02:34.999Z</time></trkpt><trkpt lat="44.5387136845788" lon="9.725018465849034"><ele>847.0</ele><time>2026-04-25T09:02:35.999Z</time></trkpt><trkpt lat="44.53856547411573" lon="9.724831044938778"><ele>842.0</ele><time>2026-04-25T09:02:36.999Z</time></trkpt><trkpt lat="44.53843127112151" lon="9.72464936571049"><ele>842.0</ele><time>2026-04-25T09:02:37.999Z</time></trkpt><trkpt lat="44.538313932562765" lon="9.724472227189514"><ele>842.0</ele><time>2026-04-25T09:02:38.999Z</time></trkpt><trkpt lat="44.538198963169236" lon="9.724296119789773"><ele>842.0</ele><time>2026-04-25T09:02:39.999Z</time></trkpt><trkpt lat="44.53807749622403" lon="9.724115983723632"><ele>842.6666666666667</ele><time>2026-04-25T09:02:40.999Z</time></trkpt><trkpt lat="44.537960548010005" lon="9.723940228552744"><ele>843.3333333333333</ele><time>2026-04-25T09:02:41.999Z</time></trkpt><trkpt lat="44.53784046253742" lon="9.723759469500118"><ele>844.0</ele><time>2026-04-25T09:02:42.999Z</time></trkpt><trkpt lat="44.53774293651388" lon="9.723552923359383"><ele>841.3333333333333</ele><time>2026-04-25T09:02:43.999Z</time></trkpt><trkpt lat="44.5376311200183" lon="9.72335576218485"><ele>838.6666666666667</ele><time>2026-04-25T09:02:44.999Z</time></trkpt><trkpt lat="44.53754653716055" lon="9.723126624056517"><ele>836.0</ele><time>2026-04-25T09:02:45.999Z</time></trkpt><trkpt lat="44.53746538845089" lon="9.722904886929845"><ele>836.0</ele><time>2026-04-25T09:02:46.999Z</time></trkpt><trkpt lat="44.53737830980573" lon="9.722692873421542"><ele>836.0</ele><time>2026-04-25T09:02:47.999Z</time></trkpt><trkpt lat="44.53729087598018" lon="9.722494009709138"><ele>836.0</ele><time>2026-04-25T09:02:48.999Z</time></trkpt><trkpt lat="44.537205214619384" lon="9.722303224565016"><ele>836.0</ele><time>2026-04-25T09:02:49.999Z</time></trkpt><trkpt lat="44.53714575564913" lon="9.722156617514136"><ele>836.0</ele><time>2026-04-25T09:02:50.999Z</time></trkpt><trkpt lat="44.53708956447447" lon="9.722031444595109"><ele>836.0</ele><time>2026-04-25T09:02:51.999Z</time></trkpt><trkpt lat="44.53702808003905" lon="9.721928381532809"><ele>836.0</ele><time>2026-04-25T09:02:52.999Z</time></trkpt><trkpt lat="44.53694006168504" lon="9.721861056433331"><ele>836.0</ele><time>2026-04-25T09:02:53.999Z</time></trkpt><trkpt lat="44.536835130533056" lon="9.721825698910743"><ele>833.5</ele><time>2026-04-25T09:02:55Z</time></trkpt><trkpt lat="44.53672173666288" lon="9.72185139315802"><ele>831.0</ele><time>2026-04-25T09:02:56Z</time></trkpt><trkpt lat="44.536624196538206" lon="9.72195003059343"><ele>828.5</ele><time>2026-04-25T09:02:57Z</time></trkpt><trkpt lat="44.53655309723337" lon="9.722085373424202"><ele>826.0</ele><time>2026-04-25T09:02:58Z</time></trkpt><trkpt lat="44.536514009890006" lon="9.722251546732824"><ele>826.0</ele><time>2026-04-25T09:02:59Z</time></trkpt><trkpt lat="44.53651040312077" lon="9.722435113217168"><ele>826.0</ele><time>2026-04-25T09:03:00Z</time></trkpt><trkpt lat="44.53652734242122" lon="9.722641346205291"><ele>826.0</ele><time>2026-04-25T09:03:01Z</time></trkpt><trkpt lat="44.53653248024435" lon="9.722876709991246"><ele>826.0</ele><time>2026-04-25T09:03:02Z</time></trkpt><trkpt lat="44.53651538594229" lon="9.723123254067556"><ele>825.0</ele><time>2026-04-25T09:03:03Z</time></trkpt><trkpt lat="44.536454890354776" lon="9.723371927931938"><ele>824.0</ele><time>2026-04-25T09:03:04Z</time></trkpt><trkpt lat="44.53641009488384" lon="9.723632772837274"><ele>823.0</ele><time>2026-04-25T09:03:05Z</time></trkpt><trkpt lat="44.53635045915865" lon="9.72387187843082"><ele>823.0</ele><time>2026-04-25T09:03:06Z</time></trkpt><trkpt lat="44.53629624959195" lon="9.724123943538736"><ele>823.0</ele><time>2026-04-25T09:03:07Z</time></trkpt><trkpt lat="44.5362452765053" lon="9.724376346348022"><ele>823.0</ele><time>2026-04-25T09:03:08Z</time></trkpt><trkpt lat="44.5361892982606" lon="9.724637015557557"><ele>819.6666666666666</ele><time>2026-04-25T09:03:09Z</time></trkpt><trkpt lat="44.536134491643196" lon="9.724878059398316"><ele>816.3333333333333</ele><time>2026-04-25T09:03:10Z</time></trkpt><trkpt lat="44.536080343841824" lon="9.725120428781004"><ele>813.0</ele><time>2026-04-25T09:03:11Z</time></trkpt><trkpt lat="44.53602849903702" lon="9.725373892971033"><ele>813.0</ele><time>2026-04-25T09:03:12Z</time></trkpt><trkpt lat="44.53597372663147" lon="9.725636342592432"><ele>813.0</ele><time>2026-04-25T09:03:13Z</time></trkpt><trkpt lat="44.53592152958577" lon="9.725885350807323"><ele>813.0</ele><time>2026-04-25T09:03:14Z</time></trkpt><trkpt lat="44.53586820427848" lon="9.726125594703243"><ele>812.0</ele><time>2026-04-25T09:03:15Z</time></trkpt><trkpt lat="44.53581511127565" lon="9.726362313580417"><ele>811.0</ele><time>2026-04-25T09:03:16Z</time></trkpt><trkpt lat="44.53576540113454" lon="9.726593035778441"><ele>810.0</ele><time>2026-04-25T09:03:17Z</time></trkpt><trkpt lat="44.53572401867711" lon="9.72680791304404"><ele>809.3333333333333</ele><time>2026-04-25T09:03:18Z</time></trkpt><trkpt lat="44.53570402363473" lon="9.727034866924754"><ele>808.6666666666666</ele><time>2026-04-25T09:03:19Z</time></trkpt><trkpt lat="44.535749465079796" lon="9.727269205290348"><ele>808.0</ele><time>2026-04-25T09:03:20Z</time></trkpt><trkpt lat="44.53583493353826" lon="9.727498605797082"><ele>807.3333333333333</ele><time>2026-04-25T09:03:21Z</time></trkpt><trkpt lat="44.535917109819195" lon="9.727741394145832"><ele>806.6666666666667</ele><time>2026-04-25T09:03:22Z</time></trkpt><trkpt lat="44.535986027552184" lon="9.727993440903571"><ele>806.0</ele><time>2026-04-25T09:03:23Z</time></trkpt><trkpt lat="44.53605167586178" lon="9.728245923860879"><ele>806.0</ele><time>2026-04-25T09:03:24Z</time></trkpt><trkpt lat="44.53611144771945" lon="9.72847350436754"><ele>806.0</ele><time>2026-04-25T09:03:25Z</time></trkpt><trkpt lat="44.536137917909144" lon="9.728704140961812"><ele>806.0</ele><time>2026-04-25T09:03:26Z</time></trkpt><trkpt lat="44.5361398244044" lon="9.728932211376039"><ele>806.0</ele><time>2026-04-25T09:03:27Z</time></trkpt><trkpt lat="44.536100770339694" lon="9.729168976493865"><ele>806.0</ele><time>2026-04-25T09:03:28Z</time></trkpt><trkpt lat="44.5360183022805" lon="9.729404901779477"><ele>806.0</ele><time>2026-04-25T09:03:29Z</time></trkpt><trkpt lat="44.53589227185894" lon="9.729618389272982"><ele>807.3333333333334</ele><time>2026-04-25T09:03:30Z</time></trkpt><trkpt lat="44.53574927503185" lon="9.72982325039063"><ele>808.6666666666667</ele><time>2026-04-25T09:03:31Z</time></trkpt><trkpt lat="44.53561471340141" lon="9.730044808377347"><ele>810.0</ele><time>2026-04-25T09:03:32Z</time></trkpt><trkpt lat="44.535483368336436" lon="9.730246534762758"><ele>806.6666666666667</ele><time>2026-04-25T09:03:33Z</time></trkpt><trkpt lat="44.53536441092685" lon="9.730436962718022"><ele>803.3333333333334</ele><time>2026-04-25T09:03:34Z</time></trkpt><trkpt lat="44.53521580900297" lon="9.730560064765893"><ele>800.0</ele><time>2026-04-25T09:03:35Z</time></trkpt><trkpt lat="44.53505654438375" lon="9.73065336405132"><ele>800.0</ele><time>2026-04-25T09:03:36Z</time></trkpt><trkpt lat="44.53487431746361" lon="9.730695184518805"><ele>800.0</ele><time>2026-04-25T09:03:37Z</time></trkpt><trkpt lat="44.53470436594631" lon="9.730756034636352"><ele>800.0</ele><time>2026-04-25T09:03:38Z</time></trkpt><trkpt lat="44.534577175250874" lon="9.730827461303441"><ele>794.75</ele><time>2026-04-25T09:03:39Z</time></trkpt><trkpt lat="44.534475476942866" lon="9.730953406601957"><ele>789.5</ele><time>2026-04-25T09:03:40Z</time></trkpt><trkpt lat="44.53441437328719" lon="9.731106262556704"><ele>784.25</ele><time>2026-04-25T09:03:41Z</time></trkpt><trkpt lat="44.53438574947485" lon="9.731257000503382"><ele>779.0</ele><time>2026-04-25T09:03:42Z</time></trkpt><trkpt lat="44.53441542872336" lon="9.731411943530043"><ele>779.0</ele><time>2026-04-25T09:03:43Z</time></trkpt><trkpt lat="44.53448757331212" lon="9.73158520228199"><ele>779.0</ele><time>2026-04-25T09:03:44Z</time></trkpt><trkpt lat="44.53459563971739" lon="9.73175324485998"><ele>779.0</ele><time>2026-04-25T09:03:45Z</time></trkpt><trkpt lat="44.53465218552885" lon="9.731963516273487"><ele>784.3333333333334</ele><time>2026-04-25T09:03:46Z</time></trkpt><trkpt lat="44.53467229624719" lon="9.732196026175338"><ele>789.6666666666667</ele><time>2026-04-25T09:03:47Z</time></trkpt><trkpt lat="44.53467448838997" lon="9.73243247197728"><ele>795.0</ele><time>2026-04-25T09:03:48Z</time></trkpt><trkpt lat="44.534659392192864" lon="9.732674774752718"><ele>792.6666666666667</ele><time>2026-04-25T09:03:49Z</time></trkpt><trkpt lat="44.53463087682081" lon="9.732905629254445"><ele>790.3333333333334</ele><time>2026-04-25T09:03:50Z</time></trkpt><trkpt lat="44.53458830208488" lon="9.733167159568128"><ele>788.0</ele><time>2026-04-25T09:03:51Z</time></trkpt><trkpt lat="44.53455844855278" lon="9.733441556985253"><ele>782.0</ele><time>2026-04-25T09:03:52Z</time></trkpt><trkpt lat="44.53451006080482" lon="9.733713720391195"><ele>776.0</ele><time>2026-04-25T09:03:53Z</time></trkpt><trkpt lat="44.53441850592379" lon="9.733941186588462"><ele>770.0</ele><time>2026-04-25T09:03:54Z</time></trkpt><trkpt lat="44.53433443328479" lon="9.734202382065623"><ele>770.6666666666667</ele><time>2026-04-25T09:03:55Z</time></trkpt><trkpt lat="44.53423186571046" lon="9.734452681347351"><ele>771.3333333333333</ele><time>2026-04-25T09:03:56Z</time></trkpt><trkpt lat="44.53414170925716" lon="9.734716204842531"><ele>772.0</ele><time>2026-04-25T09:03:57Z</time></trkpt><trkpt lat="44.53406354161579" lon="9.734971431342816"><ele>773.3333333333333</ele><time>2026-04-25T09:03:58Z</time></trkpt><trkpt lat="44.533984717522394" lon="9.735227275811255"><ele>774.6666666666667</ele><time>2026-04-25T09:03:59Z</time></trkpt><trkpt lat="44.533895471287494" lon="9.735439705776932"><ele>776.0</ele><time>2026-04-25T09:04:00Z</time></trkpt><trkpt lat="44.53383087285884" lon="9.73568221909769"><ele>776.0</ele><time>2026-04-25T09:04:01Z</time></trkpt><trkpt lat="44.53375721372748" lon="9.735906471548828"><ele>776.0</ele><time>2026-04-25T09:04:02Z</time></trkpt><trkpt lat="44.53368336538192" lon="9.736141604329102"><ele>776.0</ele><time>2026-04-25T09:04:02.999Z</time></trkpt><trkpt lat="44.53358884324673" lon="9.736357102469958"><ele>775.6666666666667</ele><time>2026-04-25T09:04:03.999Z</time></trkpt><trkpt lat="44.533508120486395" lon="9.736600697356693"><ele>775.3333333333333</ele><time>2026-04-25T09:04:04.999Z</time></trkpt><trkpt lat="44.53341241954036" lon="9.736842006104034"><ele>775.0</ele><time>2026-04-25T09:04:05.999Z</time></trkpt><trkpt lat="44.53332924006787" lon="9.737079595625955"><ele>775.0</ele><time>2026-04-25T09:04:06.999Z</time></trkpt><trkpt lat="44.533231159683716" lon="9.737275579641084"><ele>775.0</ele><time>2026-04-25T09:04:07.999Z</time></trkpt><trkpt lat="44.533139571509366" lon="9.737440656438725"><ele>775.0</ele><time>2026-04-25T09:04:08.999Z</time></trkpt><trkpt lat="44.53301920885565" lon="9.737585743707097"><ele>772.3333333333333</ele><time>2026-04-25T09:04:09.999Z</time></trkpt><trkpt lat="44.53285836632336" lon="9.73766369895886"><ele>769.6666666666666</ele><time>2026-04-25T09:04:10.999Z</time></trkpt><trkpt lat="44.53268434659132" lon="9.737783165773946"><ele>767.0</ele><time>2026-04-25T09:04:11.999Z</time></trkpt><trkpt lat="44.53250502735615" lon="9.737892142016234"><ele>767.0</ele><time>2026-04-25T09:04:12.999Z</time></trkpt><trkpt lat="44.53232208546075" lon="9.738016342924729"><ele>767.0</ele><time>2026-04-25T09:04:13.999Z</time></trkpt><trkpt lat="44.532138549068165" lon="9.738104821367248"><ele>767.0</ele><time>2026-04-25T09:04:14.999Z</time></trkpt><trkpt lat="44.53193515237734" lon="9.738114535372276"><ele>764.0</ele><time>2026-04-25T09:04:15.999Z</time></trkpt><trkpt lat="44.53173369341845" lon="9.738141470418896"><ele>761.0</ele><time>2026-04-25T09:04:16.999Z</time></trkpt><trkpt lat="44.53154498264" lon="9.738124418251394"><ele>758.0</ele><time>2026-04-25T09:04:17.999Z</time></trkpt><trkpt lat="44.531375735368236" lon="9.738127655356859"><ele>755.3333333333333</ele><time>2026-04-25T09:04:18.999Z</time></trkpt><trkpt lat="44.53121556192594" lon="9.738157936392247"><ele>752.6666666666666</ele><time>2026-04-25T09:04:19.999Z</time></trkpt><trkpt lat="44.53105124352203" lon="9.738243015517702"><ele>750.0</ele><time>2026-04-25T09:04:20.999Z</time></trkpt><trkpt lat="44.5308923866876" lon="9.738388720230759"><ele>753.6666666666666</ele><time>2026-04-25T09:04:21.999Z</time></trkpt><trkpt lat="44.530743196443645" lon="9.738592316116309"><ele>757.3333333333333</ele><time>2026-04-25T09:04:22.999Z</time></trkpt><trkpt lat="44.530588061086725" lon="9.738795811251734"><ele>761.0</ele><time>2026-04-25T09:04:23.999Z</time></trkpt><trkpt lat="44.530432590530054" lon="9.73898831999877"><ele>761.3333333333333</ele><time>2026-04-25T09:04:24.999Z</time></trkpt><trkpt lat="44.530278966501946" lon="9.739191767117479"><ele>761.6666666666666</ele><time>2026-04-25T09:04:25.999Z</time></trkpt><trkpt lat="44.53012882139313" lon="9.739389105727854"><ele>762.0</ele><time>2026-04-25T09:04:26.999Z</time></trkpt><trkpt lat="44.52998012074831" lon="9.739544230913058"><ele>762.0</ele><time>2026-04-25T09:04:27.999Z</time></trkpt><trkpt lat="44.52981680640752" lon="9.739598163547468"><ele>762.0</ele><time>2026-04-25T09:04:28.999Z</time></trkpt><trkpt lat="44.52963382670293" lon="9.739639420441648"><ele>762.0</ele><time>2026-04-25T09:04:29.999Z</time></trkpt><trkpt lat="44.529430904701464" lon="9.739698279404138"><ele>760.6666666666666</ele><time>2026-04-25T09:04:30.999Z</time></trkpt><trkpt lat="44.52922390201532" lon="9.739732947596544"><ele>759.3333333333333</ele><time>2026-04-25T09:04:31.999Z</time></trkpt><trkpt lat="44.52901440421623" lon="9.73977451944708"><ele>758.0</ele><time>2026-04-25T09:04:32.999Z</time></trkpt><trkpt lat="44.52881891897059" lon="9.739820891066266"><ele>756.0</ele><time>2026-04-25T09:04:33.999Z</time></trkpt><trkpt lat="44.52863889911582" lon="9.739873630420187"><ele>754.0</ele><time>2026-04-25T09:04:34.999Z</time></trkpt><trkpt lat="44.52848598866254" lon="9.739945630739216"><ele>752.0</ele><time>2026-04-25T09:04:35.999Z</time></trkpt><trkpt lat="44.52834571251548" lon="9.740048886924734"><ele>752.0</ele><time>2026-04-25T09:04:36.999Z</time></trkpt><trkpt lat="44.52820954260247" lon="9.740168892792825"><ele>752.0</ele><time>2026-04-25T09:04:37.999Z</time></trkpt><trkpt lat="44.52807792539659" lon="9.74031270878277"><ele>752.0</ele><time>2026-04-25T09:04:38.999Z</time></trkpt><trkpt lat="44.52793807741717" lon="9.740463520973178"><ele>752.3333333333333</ele><time>2026-04-25T09:04:39.999Z</time></trkpt><trkpt lat="44.527786060135064" lon="9.740614840838704"><ele>752.6666666666666</ele><time>2026-04-25T09:04:40.999Z</time></trkpt><trkpt lat="44.527639169019174" lon="9.74076157623111"><ele>753.0</ele><time>2026-04-25T09:04:41.999Z</time></trkpt><trkpt lat="44.527486510998315" lon="9.74090680533406"><ele>753.0</ele><time>2026-04-25T09:04:42.999Z</time></trkpt><trkpt lat="44.52734587163509" lon="9.741030268513224"><ele>753.0</ele><time>2026-04-25T09:04:43.999Z</time></trkpt><trkpt lat="44.52719276809285" lon="9.741079361833336"><ele>753.0</ele><time>2026-04-25T09:04:44.999Z</time></trkpt><trkpt lat="44.527012723069646" lon="9.741108375372232"><ele>754.0</ele><time>2026-04-25T09:04:45.999Z</time></trkpt><trkpt lat="44.526825529561876" lon="9.741154845083182"><ele>755.0</ele><time>2026-04-25T09:04:46.999Z</time></trkpt><trkpt lat="44.526632965533054" lon="9.741168293726334"><ele>756.0</ele><time>2026-04-25T09:04:47.999Z</time></trkpt><trkpt lat="44.52644655851236" lon="9.741187860505153"><ele>756.0</ele><time>2026-04-25T09:04:48.999Z</time></trkpt><trkpt lat="44.526273853554336" lon="9.74121203682412"><ele>756.0</ele><time>2026-04-25T09:04:49.999Z</time></trkpt><trkpt lat="44.526123189836504" lon="9.741236675747619"><ele>756.0</ele><time>2026-04-25T09:04:50.999Z</time></trkpt><trkpt lat="44.525993453241455" lon="9.741287305457897"><ele>755.3333333333334</ele><time>2026-04-25T09:04:51.999Z</time></trkpt><trkpt lat="44.52585043486641" lon="9.741412674703854"><ele>754.6666666666667</ele><time>2026-04-25T09:04:52.999Z</time></trkpt><trkpt lat="44.52569411007006" lon="9.741540838281255"><ele>754.0</ele><time>2026-04-25T09:04:53.999Z</time></trkpt><trkpt lat="44.52553764083903" lon="9.741690120524298"><ele>754.0</ele><time>2026-04-25T09:04:54.999Z</time></trkpt><trkpt lat="44.525398460338465" lon="9.741821803457814"><ele>754.0</ele><time>2026-04-25T09:04:55.999Z</time></trkpt><trkpt lat="44.52526244047241" lon="9.74193846961921"><ele>754.0</ele><time>2026-04-25T09:04:56.999Z</time></trkpt><trkpt lat="44.52513852788212" lon="9.742048229127834"><ele>752.0</ele><time>2026-04-25T09:04:57.999Z</time></trkpt><trkpt lat="44.525005159755395" lon="9.742149650371783"><ele>750.0</ele><time>2026-04-25T09:04:58.999Z</time></trkpt><trkpt lat="44.52488493901242" lon="9.742223996800963"><ele>748.0</ele><time>2026-04-25T09:04:59.999Z</time></trkpt><trkpt lat="44.524776261163" lon="9.742253574599783"><ele>746.0</ele><time>2026-04-25T09:05:01Z</time></trkpt><trkpt lat="44.524697143633325" lon="9.742189461904676"><ele>746.0</ele><time>2026-04-25T09:05:02Z</time></trkpt><trkpt lat="44.52462959500579" lon="9.742064624403342"><ele>746.0</ele><time>2026-04-25T09:05:03Z</time></trkpt><trkpt lat="44.52459955985452" lon="9.741890165680438"><ele>746.0</ele><time>2026-04-25T09:05:04Z</time></trkpt><trkpt lat="44.52464058691968" lon="9.741707955352592"><ele>746.0</ele><time>2026-04-25T09:05:05Z</time></trkpt><trkpt lat="44.52466667676772" lon="9.741518255528806"><ele>746.5</ele><time>2026-04-25T09:05:06Z</time></trkpt><trkpt lat="44.52471534896042" lon="9.741351990535948"><ele>747.0</ele><time>2026-04-25T09:05:07Z</time></trkpt><trkpt lat="44.5247759716161" lon="9.741198829028445"><ele>747.5</ele><time>2026-04-25T09:05:08Z</time></trkpt><trkpt lat="44.52487626694531" lon="9.741088474437538"><ele>748.0</ele><time>2026-04-25T09:05:09Z</time></trkpt><trkpt lat="44.52496147418986" lon="9.740964704145684"><ele>747.5</ele><time>2026-04-25T09:05:10Z</time></trkpt><trkpt lat="44.52508429208584" lon="9.740869570072135"><ele>747.0</ele><time>2026-04-25T09:05:11Z</time></trkpt><trkpt lat="44.52521549276241" lon="9.740797366327213"><ele>746.5</ele><time>2026-04-25T09:05:12Z</time></trkpt><trkpt lat="44.52534525251392" lon="9.74074845007093"><ele>746.0</ele><time>2026-04-25T09:05:13Z</time></trkpt><trkpt lat="44.52545036691558" lon="9.740706469668982"><ele>746.0</ele><time>2026-04-25T09:05:14Z</time></trkpt><trkpt lat="44.525531113596124" lon="9.740630466085019"><ele>746.0</ele><time>2026-04-25T09:05:15Z</time></trkpt><trkpt lat="44.52560309377979" lon="9.740537207772078"><ele>746.0</ele><time>2026-04-25T09:05:16Z</time></trkpt><trkpt lat="44.52563501491938" lon="9.740397790349089"><ele>746.0</ele><time>2026-04-25T09:05:17Z</time></trkpt><trkpt lat="44.525617451346136" lon="9.740238971180737"><ele>746.0</ele><time>2026-04-25T09:05:18Z</time></trkpt><trkpt lat="44.52554819041371" lon="9.740099358901096"><ele>745.6666666666666</ele><time>2026-04-25T09:05:19Z</time></trkpt><trkpt lat="44.525429320688964" lon="9.740009639733017"><ele>745.3333333333334</ele><time>2026-04-25T09:05:20Z</time></trkpt><trkpt lat="44.52526512293293" lon="9.739984526974245"><ele>745.0</ele><time>2026-04-25T09:05:21Z</time></trkpt><trkpt lat="44.52507790182742" lon="9.74000012469133"><ele>741.0</ele><time>2026-04-25T09:05:22Z</time></trkpt><trkpt lat="44.524888168945544" lon="9.740016478443955"><ele>737.0</ele><time>2026-04-25T09:05:23Z</time></trkpt><trkpt lat="44.52470556608766" lon="9.740018641303717"><ele>733.0</ele><time>2026-04-25T09:05:24Z</time></trkpt><trkpt lat="44.52454574542984" lon="9.739993926010504"><ele>729.75</ele><time>2026-04-25T09:05:25Z</time></trkpt><trkpt lat="44.524404039394035" lon="9.739956550893744"><ele>726.5</ele><time>2026-04-25T09:05:26Z</time></trkpt><trkpt lat="44.524297371561936" lon="9.739871141455"><ele>723.25</ele><time>2026-04-25T09:05:27Z</time></trkpt><trkpt lat="44.52421069501447" lon="9.739735565658709"><ele>720.0</ele><time>2026-04-25T09:05:28Z</time></trkpt><trkpt lat="44.52412631607552" lon="9.739559004539233"><ele>722.3333333333334</ele><time>2026-04-25T09:05:29Z</time></trkpt><trkpt lat="44.52403947240815" lon="9.73935831869375"><ele>724.6666666666667</ele><time>2026-04-25T09:05:30Z</time></trkpt><trkpt lat="44.52396693133923" lon="9.739145936248027"><ele>727.0</ele><time>2026-04-25T09:05:31Z</time></trkpt><trkpt lat="44.52391873446895" lon="9.73893750077077"><ele>727.0</ele><time>2026-04-25T09:05:32Z</time></trkpt><trkpt lat="44.523877338333115" lon="9.738741606777133"><ele>727.0</ele><time>2026-04-25T09:05:33Z</time></trkpt><trkpt lat="44.52382294665304" lon="9.738615245476687"><ele>727.0</ele><time>2026-04-25T09:05:34Z</time></trkpt><trkpt lat="44.52376442871978" lon="9.738518663363536"><ele>727.0</ele><time>2026-04-25T09:05:35Z</time></trkpt><trkpt lat="44.52366383023683" lon="9.73847097636496"><ele>727.0</ele><time>2026-04-25T09:05:36Z</time></trkpt><trkpt lat="44.52356026876146" lon="9.738519690531252"><ele>724.0</ele><time>2026-04-25T09:05:37Z</time></trkpt><trkpt lat="44.523489316593654" lon="9.738724560895383"><ele>721.0</ele><time>2026-04-25T09:05:38Z</time></trkpt><trkpt lat="44.52347746108799" lon="9.738880498146498"><ele>718.0</ele><time>2026-04-25T09:05:39Z</time></trkpt><trkpt lat="44.52352711014903" lon="9.739061157826587"><ele>715.0</ele><time>2026-04-25T09:05:40Z</time></trkpt><trkpt lat="44.523624194400504" lon="9.739236119681058"><ele>716.6666666666667</ele><time>2026-04-25T09:05:41Z</time></trkpt><trkpt lat="44.523742766778575" lon="9.739407283018114"><ele>718.3333333333334</ele><time>2026-04-25T09:05:42Z</time></trkpt><trkpt lat="44.523845953897506" lon="9.739606206775159"><ele>720.0</ele><time>2026-04-25T09:05:43Z</time></trkpt><trkpt lat="44.52394360405001" lon="9.739807490813392"><ele>720.0</ele><time>2026-04-25T09:05:44Z</time></trkpt><trkpt lat="44.524021752061216" lon="9.739979732764864"><ele>720.0</ele><time>2026-04-25T09:05:45Z</time></trkpt><trkpt lat="44.52407931499551" lon="9.74013019393794"><ele>720.0</ele><time>2026-04-25T09:05:46Z</time></trkpt><trkpt lat="44.524090230611456" lon="9.740314263814009"><ele>720.0</ele><time>2026-04-25T09:05:47Z</time></trkpt><trkpt lat="44.52406158142414" lon="9.740491381411786"><ele>719.5</ele><time>2026-04-25T09:05:48Z</time></trkpt><trkpt lat="44.52400565648333" lon="9.740671512502445"><ele>719.0</ele><time>2026-04-25T09:05:49Z</time></trkpt><trkpt lat="44.52389973163678" lon="9.740804522572978"><ele>718.5</ele><time>2026-04-25T09:05:50Z</time></trkpt><trkpt lat="44.52376039703497" lon="9.740890862504285"><ele>718.0</ele><time>2026-04-25T09:05:51Z</time></trkpt><trkpt lat="44.523588705285015" lon="9.740948634049259"><ele>717.0</ele><time>2026-04-25T09:05:52Z</time></trkpt><trkpt lat="44.523413769627936" lon="9.741004113043534"><ele>716.0</ele><time>2026-04-25T09:05:53Z</time></trkpt><trkpt lat="44.52322892806372" lon="9.741066678518557"><ele>715.0</ele><time>2026-04-25T09:05:54Z</time></trkpt><trkpt lat="44.523025378527755" lon="9.74114476628273"><ele>710.6666666666667</ele><time>2026-04-25T09:05:55Z</time></trkpt><trkpt lat="44.52283179455661" lon="9.741229888839579"><ele>706.3333333333334</ele><time>2026-04-25T09:05:56Z</time></trkpt><trkpt lat="44.522648645180276" lon="9.741304982095862"><ele>702.0</ele><time>2026-04-25T09:05:57Z</time></trkpt><trkpt lat="44.522479417329556" lon="9.74134834600142"><ele>702.0</ele><time>2026-04-25T09:05:58Z</time></trkpt><trkpt lat="44.52230910921151" lon="9.741361507821894"><ele>702.0</ele><time>2026-04-25T09:05:59Z</time></trkpt><trkpt lat="44.52213340226319" lon="9.741350514704703"><ele>702.0</ele><time>2026-04-25T09:06:00Z</time></trkpt><trkpt lat="44.52200471843938" lon="9.741361255594319"><ele>698.25</ele><time>2026-04-25T09:06:01Z</time></trkpt><trkpt lat="44.52188851396029" lon="9.741435563128661"><ele>694.5</ele><time>2026-04-25T09:06:02Z</time></trkpt><trkpt lat="44.52179415202565" lon="9.741553905899595"><ele>690.75</ele><time>2026-04-25T09:06:03Z</time></trkpt><trkpt lat="44.52174485208836" lon="9.74174731514083"><ele>687.0</ele><time>2026-04-25T09:06:04Z</time></trkpt><trkpt lat="44.521735424599036" lon="9.741999208982685"><ele>684.3333333333334</ele><time>2026-04-25T09:06:05Z</time></trkpt><trkpt lat="44.5217346489383" lon="9.74225514626405"><ele>681.6666666666667</ele><time>2026-04-25T09:06:06Z</time></trkpt><trkpt lat="44.52171989232932" lon="9.742492948180704"><ele>679.0</ele><time>2026-04-25T09:06:07Z</time></trkpt><trkpt lat="44.521716618333926" lon="9.742718592052354"><ele>676.3333333333334</ele><time>2026-04-25T09:06:08Z</time></trkpt><trkpt lat="44.521754042538376" lon="9.742946157640112"><ele>673.6666666666666</ele><time>2026-04-25T09:06:09Z</time></trkpt><trkpt lat="44.52183070384873" lon="9.743171381109699"><ele>671.0</ele><time>2026-04-25T09:06:10Z</time></trkpt><trkpt lat="44.521937501184034" lon="9.743388459697083"><ele>667.6666666666666</ele><time>2026-04-25T09:06:11Z</time></trkpt><trkpt lat="44.522035890012575" lon="9.743610869943115"><ele>664.3333333333334</ele><time>2026-04-25T09:06:11.999Z</time></trkpt><trkpt lat="44.52212769479146" lon="9.74383729205627"><ele>661.0</ele><time>2026-04-25T09:06:12.999Z</time></trkpt><trkpt lat="44.52220902723469" lon="9.74401933264981"><ele>665.0</ele><time>2026-04-25T09:06:13.999Z</time></trkpt><trkpt lat="44.52229751574446" lon="9.74418539269413"><ele>669.0</ele><time>2026-04-25T09:06:14.999Z</time></trkpt><trkpt lat="44.52241942870441" lon="9.744331820153267"><ele>673.0</ele><time>2026-04-25T09:06:15.999Z</time></trkpt><trkpt lat="44.52257344686942" lon="9.744483328035093"><ele>673.0</ele><time>2026-04-25T09:06:16.999Z</time></trkpt><trkpt lat="44.52271970714609" lon="9.744614929263092"><ele>673.0</ele><time>2026-04-25T09:06:17.999Z</time></trkpt><trkpt lat="44.5228542975574" lon="9.744742506002016"><ele>673.0</ele><time>2026-04-25T09:06:18.999Z</time></trkpt><trkpt lat="44.52299395871984" lon="9.744886493030807"><ele>677.3333333333334</ele><time>2026-04-25T09:06:19.999Z</time></trkpt><trkpt lat="44.523117749271655" lon="9.74505534620733"><ele>681.6666666666666</ele><time>2026-04-25T09:06:20.999Z</time></trkpt><trkpt lat="44.52319827087742" lon="9.745271982873026"><ele>686.0</ele><time>2026-04-25T09:06:21.999Z</time></trkpt><trkpt lat="44.523268920980115" lon="9.745486150616657"><ele>686.0</ele><time>2026-04-25T09:06:22.999Z</time></trkpt><trkpt lat="44.52332128842022" lon="9.745660589283172"><ele>686.0</ele><time>2026-04-25T09:06:23.999Z</time></trkpt><trkpt lat="44.5232914783891" lon="9.745824839805223"><ele>686.0</ele><time>2026-04-25T09:06:24.999Z</time></trkpt><trkpt lat="44.52323926489785" lon="9.745944298546437"><ele>686.0</ele><time>2026-04-25T09:06:25.999Z</time></trkpt><trkpt lat="44.523155322359" lon="9.7460164500175"><ele>686.0</ele><time>2026-04-25T09:06:26.999Z</time></trkpt><trkpt lat="44.52304741450838" lon="9.746026135248169"><ele>686.0</ele><time>2026-04-25T09:06:27.999Z</time></trkpt><trkpt lat="44.522893847242955" lon="9.74600492476782"><ele>686.0</ele><time>2026-04-25T09:06:28.999Z</time></trkpt><trkpt lat="44.52270767386982" lon="9.745998173239446"><ele>686.0</ele><time>2026-04-25T09:06:29.999Z</time></trkpt><trkpt lat="44.522512061491994" lon="9.745971595924273"><ele>686.3333333333333</ele><time>2026-04-25T09:06:30.999Z</time></trkpt><trkpt lat="44.52230747041317" lon="9.745960515899988"><ele>686.6666666666666</ele><time>2026-04-25T09:06:31.999Z</time></trkpt><trkpt lat="44.522127990594484" lon="9.745933949278504"><ele>687.0</ele><time>2026-04-25T09:06:32.999Z</time></trkpt><trkpt lat="44.52194252896324" lon="9.745848165010582"><ele>687.0</ele><time>2026-04-25T09:06:33.999Z</time></trkpt><trkpt lat="44.521731522652225" lon="9.745738717676774"><ele>687.0</ele><time>2026-04-25T09:06:34.999Z</time></trkpt><trkpt lat="44.52151904096246" lon="9.745623928366586"><ele>687.0</ele><time>2026-04-25T09:06:35.999Z</time></trkpt><trkpt lat="44.52129416017857" lon="9.745504757974599"><ele>687.0</ele><time>2026-04-25T09:06:36.999Z</time></trkpt><trkpt lat="44.52111520101994" lon="9.745413219539401"><ele>687.0</ele><time>2026-04-25T09:06:37.999Z</time></trkpt><trkpt lat="44.520991382241036" lon="9.74535654676575"><ele>682.5</ele><time>2026-04-25T09:06:38.999Z</time></trkpt><trkpt lat="44.520855119318604" lon="9.745300581946688"><ele>678.0</ele><time>2026-04-25T09:06:39.999Z</time></trkpt><trkpt lat="44.520537117891884" lon="9.745058469846613"><ele>678.0</ele><time>2026-04-25T09:06:40.999Z</time></trkpt><trkpt lat="44.520451166458166" lon="9.744873516459124"><ele>678.0</ele><time>2026-04-25T09:06:41.999Z</time></trkpt><trkpt lat="44.52037484716027" lon="9.744626766408382"><ele>678.0</ele><time>2026-04-25T09:06:42.999Z</time></trkpt><trkpt lat="44.52028991887251" lon="9.744362274389939"><ele>681.0</ele><time>2026-04-25T09:06:43.999Z</time></trkpt><trkpt lat="44.520198983164626" lon="9.744157453599007"><ele>684.0</ele><time>2026-04-25T09:06:44.999Z</time></trkpt><trkpt lat="44.52009685139336" lon="9.74405595939872"><ele>687.0</ele><time>2026-04-25T09:06:45.999Z</time></trkpt><trkpt lat="44.519966377014974" lon="9.743989928869702"><ele>690.0</ele><time>2026-04-25T09:06:46.999Z</time></trkpt><trkpt lat="44.51979653846008" lon="9.743922777585846"><ele>690.0</ele><time>2026-04-25T09:06:47.999Z</time></trkpt><trkpt lat="44.51965065779812" lon="9.743761433819865"><ele>690.0</ele><time>2026-04-25T09:06:48.999Z</time></trkpt><trkpt lat="44.51958979840741" lon="9.74355316928875"><ele>690.0</ele><time>2026-04-25T09:06:49.999Z</time></trkpt><trkpt lat="44.519504767185495" lon="9.74330065390685"><ele>689.6666666666666</ele><time>2026-04-25T09:06:50.999Z</time></trkpt><trkpt lat="44.5193894667205" lon="9.743103471035262"><ele>689.3333333333333</ele><time>2026-04-25T09:06:51.999Z</time></trkpt><trkpt lat="44.519252794222254" lon="9.742933440048661"><ele>689.0</ele><time>2026-04-25T09:06:52.999Z</time></trkpt><trkpt lat="44.51907368875739" lon="9.74276718215579"><ele>689.0</ele><time>2026-04-25T09:06:53.999Z</time></trkpt><trkpt lat="44.51892663227016" lon="9.742603315049735"><ele>689.0</ele><time>2026-04-25T09:06:54.999Z</time></trkpt><trkpt lat="44.51882778059211" lon="9.74241649131906"><ele>689.0</ele><time>2026-04-25T09:06:55.999Z</time></trkpt><trkpt lat="44.51875530723274" lon="9.742213687097765"><ele>687.0</ele><time>2026-04-25T09:06:56.999Z</time></trkpt><trkpt lat="44.5186820560417" lon="9.74195288521219"><ele>685.0</ele><time>2026-04-25T09:06:57.999Z</time></trkpt><trkpt lat="44.518609287680455" lon="9.741672866112179"><ele>683.0</ele><time>2026-04-25T09:06:58.999Z</time></trkpt><trkpt lat="44.518535172449035" lon="9.741380247710918"><ele>683.0</ele><time>2026-04-25T09:06:59.999Z</time></trkpt><trkpt lat="44.5184451219518" lon="9.741104685005073"><ele>683.0</ele><time>2026-04-25T09:07:00.999Z</time></trkpt><trkpt lat="44.5183757051308" lon="9.740852800543797"><ele>683.0</ele><time>2026-04-25T09:07:01.999Z</time></trkpt><trkpt lat="44.51829402679479" lon="9.740637040454601"><ele>685.0</ele><time>2026-04-25T09:07:02.999Z</time></trkpt><trkpt lat="44.518165018887586" lon="9.740446725657822"><ele>687.0</ele><time>2026-04-25T09:07:03.999Z</time></trkpt><trkpt lat="44.5179980519352" lon="9.740282581801353"><ele>689.0</ele><time>2026-04-25T09:07:04.999Z</time></trkpt><trkpt lat="44.517800767026806" lon="9.740135198443204"><ele>689.3333333333333</ele><time>2026-04-25T09:07:05.999Z</time></trkpt><trkpt lat="44.51761151649808" lon="9.740008442927225"><ele>689.6666666666666</ele><time>2026-04-25T09:07:07Z</time></trkpt><trkpt lat="44.517448693774725" lon="9.73990091721457"><ele>690.0</ele><time>2026-04-25T09:07:08Z</time></trkpt><trkpt lat="44.51730796374801" lon="9.739840568893934"><ele>690.0</ele><time>2026-04-25T09:07:09Z</time></trkpt><trkpt lat="44.51716010922029" lon="9.73986691505242"><ele>690.0</ele><time>2026-04-25T09:07:10Z</time></trkpt><trkpt lat="44.51702307322855" lon="9.740016637554106"><ele>690.0</ele><time>2026-04-25T09:07:11Z</time></trkpt><trkpt lat="44.516834193823875" lon="9.740289958072948"><ele>691.0</ele><time>2026-04-25T09:07:12Z</time></trkpt><trkpt lat="44.516633914143426" lon="9.740485781319558"><ele>692.0</ele><time>2026-04-25T09:07:13Z</time></trkpt><trkpt lat="44.516441152475025" lon="9.740662614379493"><ele>692.0</ele><time>2026-04-25T09:07:14Z</time></trkpt><trkpt lat="44.51626374173209" lon="9.740833803172416"><ele>692.0</ele><time>2026-04-25T09:07:15Z</time></trkpt><trkpt lat="44.516097671028334" lon="9.740998412253083"><ele>692.0</ele><time>2026-04-25T09:07:16Z</time></trkpt><trkpt lat="44.51594194181675" lon="9.741144394902696"><ele>691.3333333333333</ele><time>2026-04-25T09:07:17Z</time></trkpt><trkpt lat="44.515805849527226" lon="9.74127111056118"><ele>690.6666666666666</ele><time>2026-04-25T09:07:18Z</time></trkpt><trkpt lat="44.51568083092394" lon="9.741390050368143"><ele>690.0</ele><time>2026-04-25T09:07:19Z</time></trkpt><trkpt lat="44.515563812837954" lon="9.741503140024179"><ele>690.0</ele><time>2026-04-25T09:07:20Z</time></trkpt><trkpt lat="44.51547249712688" lon="9.741610691551694"><ele>690.0</ele><time>2026-04-25T09:07:21Z</time></trkpt><trkpt lat="44.515412717665676" lon="9.741745088903386"><ele>690.0</ele><time>2026-04-25T09:07:22Z</time></trkpt><trkpt lat="44.5153853213507" lon="9.741904580080357"><ele>690.0</ele><time>2026-04-25T09:07:23Z</time></trkpt><trkpt lat="44.51537027574421" lon="9.742068166083747"><ele>689.4</ele><time>2026-04-25T09:07:24Z</time></trkpt><trkpt lat="44.51537492193363" lon="9.74222168366729"><ele>688.8</ele><time>2026-04-25T09:07:25Z</time></trkpt><trkpt lat="44.515382026684875" lon="9.7423744244788"><ele>688.2</ele><time>2026-04-25T09:07:26Z</time></trkpt><trkpt lat="44.515382524178285" lon="9.742520936346837"><ele>687.6</ele><time>2026-04-25T09:07:27Z</time></trkpt><trkpt lat="44.51538504635562" lon="9.742660905033338"><ele>687.0</ele><time>2026-04-25T09:07:28Z</time></trkpt><trkpt lat="44.51538995749154" lon="9.742802551255949"><ele>687.25</ele><time>2026-04-25T09:07:29Z</time></trkpt><trkpt lat="44.515412864810614" lon="9.742959494929922"><ele>687.5</ele><time>2026-04-25T09:07:30Z</time></trkpt><trkpt lat="44.51543849815694" lon="9.743137168020873"><ele>687.75</ele><time>2026-04-25T09:07:31Z</time></trkpt><trkpt lat="44.51546978356041" lon="9.743317165969925"><ele>688.0</ele><time>2026-04-25T09:07:32Z</time></trkpt><trkpt lat="44.51547560705808" lon="9.743489371118974"><ele>686.5</ele><time>2026-04-25T09:07:33Z</time></trkpt><trkpt lat="44.51541327187824" lon="9.743656406499923"><ele>685.0</ele><time>2026-04-25T09:07:34Z</time></trkpt><trkpt lat="44.515299738886846" lon="9.743799282186641"><ele>683.5</ele><time>2026-04-25T09:07:35Z</time></trkpt><trkpt lat="44.51518016568953" lon="9.743938907186491"><ele>682.0</ele><time>2026-04-25T09:07:36Z</time></trkpt><trkpt lat="44.515085164800944" lon="9.74407211540909"><ele>682.0</ele><time>2026-04-25T09:07:37Z</time></trkpt><trkpt lat="44.514984963120185" lon="9.744179559667078"><ele>682.0</ele><time>2026-04-25T09:07:38Z</time></trkpt><trkpt lat="44.51489120333717" lon="9.744290876362614"><ele>682.0</ele><time>2026-04-25T09:07:39Z</time></trkpt><trkpt lat="44.51479533315579" lon="9.744396898603625"><ele>682.0</ele><time>2026-04-25T09:07:40Z</time></trkpt><trkpt lat="44.514713297392355" lon="9.744490487227836"><ele>683.2</ele><time>2026-04-25T09:07:41Z</time></trkpt><trkpt lat="44.5146299927661" lon="9.744583908541353"><ele>684.4000000000001</ele><time>2026-04-25T09:07:42Z</time></trkpt><trkpt lat="44.51455177060717" lon="9.744677996438982"><ele>685.5999999999999</ele><time>2026-04-25T09:07:43Z</time></trkpt><trkpt lat="44.51447783870894" lon="9.74476123520723"><ele>686.8</ele><time>2026-04-25T09:07:44Z</time></trkpt><trkpt lat="44.51440442536577" lon="9.744838755472886"><ele>688.0</ele><time>2026-04-25T09:07:45Z</time></trkpt><trkpt lat="44.51433683738291" lon="9.744916887441766"><ele>686.6666666666667</ele><time>2026-04-25T09:07:46Z</time></trkpt><trkpt lat="44.51427561833191" lon="9.74499613146991"><ele>685.3333333333334</ele><time>2026-04-25T09:07:47Z</time></trkpt><trkpt lat="44.51421322315983" lon="9.745064287064158"><ele>684.0</ele><time>2026-04-25T09:07:48Z</time></trkpt><trkpt lat="44.514148251204894" lon="9.745128441948957"><ele>682.6666666666666</ele><time>2026-04-25T09:07:49Z</time></trkpt><trkpt lat="44.51409053219852" lon="9.745194251992118"><ele>681.3333333333333</ele><time>2026-04-25T09:07:50Z</time></trkpt><trkpt lat="44.514015879165086" lon="9.745282699888227"><ele>680.0</ele><time>2026-04-25T09:07:51Z</time></trkpt><trkpt lat="44.513918625565665" lon="9.745395892222307"><ele>680.0</ele><time>2026-04-25T09:07:52Z</time></trkpt><trkpt lat="44.51381359595519" lon="9.745517893589685"><ele>680.0</ele><time>2026-04-25T09:07:53Z</time></trkpt><trkpt lat="44.51372597990498" lon="9.745666046570237"><ele>680.0</ele><time>2026-04-25T09:07:54Z</time></trkpt><trkpt lat="44.513668382818224" lon="9.745843323711902"><ele>680.0</ele><time>2026-04-25T09:07:55Z</time></trkpt><trkpt lat="44.51363186412168" lon="9.746082683889211"><ele>674.0</ele><time>2026-04-25T09:07:56Z</time></trkpt><trkpt lat="44.51361182964422" lon="9.746348103685344"><ele>668.0</ele><time>2026-04-25T09:07:57Z</time></trkpt><trkpt lat="44.513584324905565" lon="9.746620493931786"><ele>662.0</ele><time>2026-04-25T09:07:58Z</time></trkpt><trkpt lat="44.513552503247666" lon="9.746876933018406"><ele>660.25</ele><time>2026-04-25T09:07:59Z</time></trkpt><trkpt lat="44.51352380802477" lon="9.747104868961507"><ele>658.5</ele><time>2026-04-25T09:08:00Z</time></trkpt><trkpt lat="44.5134945507308" lon="9.747305247854845"><ele>656.75</ele><time>2026-04-25T09:08:01Z</time></trkpt><trkpt lat="44.51347832141752" lon="9.747496074665316"><ele>655.0</ele><time>2026-04-25T09:08:02Z</time></trkpt><trkpt lat="44.51350221655697" lon="9.747682911072538"><ele>653.3333333333334</ele><time>2026-04-25T09:08:03Z</time></trkpt><trkpt lat="44.51358596247656" lon="9.747869362814734"><ele>651.6666666666666</ele><time>2026-04-25T09:08:04Z</time></trkpt><trkpt lat="44.513702479514365" lon="9.748061229142854"><ele>650.0</ele><time>2026-04-25T09:08:05Z</time></trkpt><trkpt lat="44.513793388604846" lon="9.748274431144276"><ele>650.3333333333333</ele><time>2026-04-25T09:08:06Z</time></trkpt><trkpt lat="44.513880857205045" lon="9.748480368948957"><ele>650.6666666666666</ele><time>2026-04-25T09:08:07Z</time></trkpt><trkpt lat="44.51397626877386" lon="9.74865731933642"><ele>651.0</ele><time>2026-04-25T09:08:08Z</time></trkpt><trkpt lat="44.51409528715426" lon="9.748804659253812"><ele>651.0</ele><time>2026-04-25T09:08:09Z</time></trkpt><trkpt lat="44.51424755334425" lon="9.748907048900278"><ele>651.0</ele><time>2026-04-25T09:08:10Z</time></trkpt><trkpt lat="44.51440744501055" lon="9.74898652083431"><ele>651.0</ele><time>2026-04-25T09:08:11Z</time></trkpt><trkpt lat="44.51455400072146" lon="9.749097287280982"><ele>649.0</ele><time>2026-04-25T09:08:12Z</time></trkpt><trkpt lat="44.514686422416574" lon="9.749289175084838"><ele>647.0</ele><time>2026-04-25T09:08:13Z</time></trkpt><trkpt lat="44.51483759296139" lon="9.749531804221952"><ele>645.0</ele><time>2026-04-25T09:08:14Z</time></trkpt><trkpt lat="44.51495110123714" lon="9.749739338003907"><ele>645.0</ele><time>2026-04-25T09:08:15Z</time></trkpt><trkpt lat="44.51507413692322" lon="9.749958359466358"><ele>645.0</ele><time>2026-04-25T09:08:15.999Z</time></trkpt><trkpt lat="44.51519928347295" lon="9.750183522074316"><ele>645.0</ele><time>2026-04-25T09:08:16.999Z</time></trkpt><trkpt lat="44.51531500280962" lon="9.750409116101878"><ele>644.0</ele><time>2026-04-25T09:08:17.999Z</time></trkpt><trkpt lat="44.51544465358385" lon="9.750630374743402"><ele>643.0</ele><time>2026-04-25T09:08:18.999Z</time></trkpt><trkpt lat="44.51561075695449" lon="9.750812719515704"><ele>642.0</ele><time>2026-04-25T09:08:19.999Z</time></trkpt><trkpt lat="44.51567124959106" lon="9.750954276582979"><ele>642.0</ele><time>2026-04-25T09:08:20.999Z</time></trkpt><trkpt lat="44.51581882398011" lon="9.751026056859846"><ele>642.0</ele><time>2026-04-25T09:08:21.999Z</time></trkpt><trkpt lat="44.515975186391074" lon="9.75106209721795"><ele>642.0</ele><time>2026-04-25T09:08:22.999Z</time></trkpt><trkpt lat="44.516167826046896" lon="9.75107227467949"><ele>639.3333333333334</ele><time>2026-04-25T09:08:23.999Z</time></trkpt><trkpt lat="44.51631818515227" lon="9.75104585744609"><ele>636.6666666666667</ele><time>2026-04-25T09:08:24.999Z</time></trkpt><trkpt lat="44.516481030846144" lon="9.750958354052454"><ele>634.0</ele><time>2026-04-25T09:08:25.999Z</time></trkpt><trkpt lat="44.51663071042183" lon="9.750851178017065"><ele>634.0</ele><time>2026-04-25T09:08:26.999Z</time></trkpt><trkpt lat="44.516760989022444" lon="9.750722481901658"><ele>634.0</ele><time>2026-04-25T09:08:27.999Z</time></trkpt><trkpt lat="44.51688233247365" lon="9.75066061117443"><ele>634.0</ele><time>2026-04-25T09:08:28.999Z</time></trkpt><trkpt lat="44.51701418297095" lon="9.750722411197708"><ele>634.0</ele><time>2026-04-25T09:08:29.999Z</time></trkpt><trkpt lat="44.51716853641074" lon="9.750778845250446"><ele>633.6666666666667</ele><time>2026-04-25T09:08:30.999Z</time></trkpt><trkpt lat="44.517310889779715" lon="9.750897498837181"><ele>633.3333333333334</ele><time>2026-04-25T09:08:31.999Z</time></trkpt><trkpt lat="44.51744198948895" lon="9.75106180112365"><ele>633.0</ele><time>2026-04-25T09:08:32.999Z</time></trkpt><trkpt lat="44.51751106329918" lon="9.751267846926925"><ele>627.0</ele><time>2026-04-25T09:08:33.999Z</time></trkpt><trkpt lat="44.51756776594556" lon="9.751488682168423"><ele>621.0</ele><time>2026-04-25T09:08:34.999Z</time></trkpt><trkpt lat="44.517637418813706" lon="9.75172363675498"><ele>615.0</ele><time>2026-04-25T09:08:35.999Z</time></trkpt><trkpt lat="44.51767225443544" lon="9.751932477206656"><ele>613.3333333333334</ele><time>2026-04-25T09:08:36.999Z</time></trkpt><trkpt lat="44.51765658852626" lon="9.752136917335468"><ele>611.6666666666667</ele><time>2026-04-25T09:08:37.999Z</time></trkpt><trkpt lat="44.51761988315823" lon="9.752357392424619"><ele>610.0</ele><time>2026-04-25T09:08:38.999Z</time></trkpt><trkpt lat="44.517535073010855" lon="9.752581187344846"><ele>611.6666666666667</ele><time>2026-04-25T09:08:39.999Z</time></trkpt><trkpt lat="44.51745313393836" lon="9.752815299240506"><ele>613.3333333333334</ele><time>2026-04-25T09:08:40.999Z</time></trkpt><trkpt lat="44.517348585907456" lon="9.753011621758553"><ele>615.0</ele><time>2026-04-25T09:08:41.999Z</time></trkpt><trkpt lat="44.51726527918586" lon="9.753208137927693"><ele>615.0</ele><time>2026-04-25T09:08:42.999Z</time></trkpt><trkpt lat="44.517204317786025" lon="9.753398918271476"><ele>615.0</ele><time>2026-04-25T09:08:43.999Z</time></trkpt><trkpt lat="44.51718208683623" lon="9.75359469009309"><ele>615.0</ele><time>2026-04-25T09:08:44.999Z</time></trkpt><trkpt lat="44.51720161469277" lon="9.753781944527477"><ele>615.0</ele><time>2026-04-25T09:08:45.999Z</time></trkpt><trkpt lat="44.51724040753017" lon="9.753958768363411"><ele>612.6666666666666</ele><time>2026-04-25T09:08:46.999Z</time></trkpt><trkpt lat="44.51727385937656" lon="9.754156483489218"><ele>610.3333333333333</ele><time>2026-04-25T09:08:47.999Z</time></trkpt><trkpt lat="44.51730139746083" lon="9.754376669497924"><ele>608.0</ele><time>2026-04-25T09:08:48.999Z</time></trkpt><trkpt lat="44.51734457985802" lon="9.754606434433029"><ele>605.0</ele><time>2026-04-25T09:08:49.999Z</time></trkpt><trkpt lat="44.51739817615754" lon="9.75485919348891"><ele>602.0</ele><time>2026-04-25T09:08:50.999Z</time></trkpt><trkpt lat="44.5174436684394" lon="9.755114400957195"><ele>599.0</ele><time>2026-04-25T09:08:51.999Z</time></trkpt><trkpt lat="44.517488444223574" lon="9.755350947765722"><ele>597.5</ele><time>2026-04-25T09:08:52.999Z</time></trkpt><trkpt lat="44.517498056499115" lon="9.755562811470643"><ele>596.0</ele><time>2026-04-25T09:08:53.999Z</time></trkpt><trkpt lat="44.51746993074385" lon="9.755724345219225"><ele>594.5</ele><time>2026-04-25T09:08:54.999Z</time></trkpt><trkpt lat="44.51740473093873" lon="9.755850034138774"><ele>593.0</ele><time>2026-04-25T09:08:55.999Z</time></trkpt><trkpt lat="44.51730803741002" lon="9.75590282694728"><ele>593.0</ele><time>2026-04-25T09:08:56.999Z</time></trkpt><trkpt lat="44.51716024831291" lon="9.755922784640203"><ele>593.0</ele><time>2026-04-25T09:08:57.999Z</time></trkpt><trkpt lat="44.5170315087745" lon="9.755868507338358"><ele>593.0</ele><time>2026-04-25T09:08:58.999Z</time></trkpt><trkpt lat="44.516913621257345" lon="9.755763245362694"><ele>593.0</ele><time>2026-04-25T09:08:59.999Z</time></trkpt><trkpt lat="44.51679348447313" lon="9.75561208204554"><ele>588.6666666666666</ele><time>2026-04-25T09:09:00.999Z</time></trkpt><trkpt lat="44.5166715742999" lon="9.755518858921253"><ele>584.3333333333334</ele><time>2026-04-25T09:09:01.999Z</time></trkpt><trkpt lat="44.51651774295064" lon="9.755485477883163"><ele>580.0</ele><time>2026-04-25T09:09:02.999Z</time></trkpt><trkpt lat="44.516357674478755" lon="9.755492178080797"><ele>578.25</ele><time>2026-04-25T09:09:03.999Z</time></trkpt><trkpt lat="44.5162190293562" lon="9.755421728388724"><ele>576.5</ele><time>2026-04-25T09:09:04.999Z</time></trkpt><trkpt lat="44.516094164208724" lon="9.755349387827234"><ele>574.75</ele><time>2026-04-25T09:09:05.999Z</time></trkpt><trkpt lat="44.516020400245274" lon="9.755173533801049"><ele>573.0</ele><time>2026-04-25T09:09:06.999Z</time></trkpt><trkpt lat="44.515938118965714" lon="9.754979941095936"><ele>573.0</ele><time>2026-04-25T09:09:07.999Z</time></trkpt><trkpt lat="44.51584564611648" lon="9.754756679902876"><ele>573.0</ele><time>2026-04-25T09:09:08.999Z</time></trkpt><trkpt lat="44.515770185874004" lon="9.75452638341121"><ele>573.0</ele><time>2026-04-25T09:09:09.999Z</time></trkpt><trkpt lat="44.515694989563976" lon="9.754320303867036"><ele>574.0</ele><time>2026-04-25T09:09:10.999Z</time></trkpt><trkpt lat="44.51562536947398" lon="9.754143282455416"><ele>575.0</ele><time>2026-04-25T09:09:11.999Z</time></trkpt><trkpt lat="44.51553844739989" lon="9.754009369910502"><ele>576.0</ele><time>2026-04-25T09:09:13Z</time></trkpt><trkpt lat="44.515427786615994" lon="9.753923383482753"><ele>577.0</ele><time>2026-04-25T09:09:14Z</time></trkpt><trkpt lat="44.51528053225183" lon="9.753909976926069"><ele>573.5</ele><time>2026-04-25T09:09:15Z</time></trkpt><trkpt lat="44.51513810767749" lon="9.75395483108062"><ele>570.0</ele><time>2026-04-25T09:09:16Z</time></trkpt><trkpt lat="44.51501654150894" lon="9.754090473211214"><ele>566.5</ele><time>2026-04-25T09:09:17Z</time></trkpt><trkpt lat="44.51494078459437" lon="9.754269014733854"><ele>563.0</ele><time>2026-04-25T09:09:18Z</time></trkpt><trkpt lat="44.514915181636376" lon="9.754501714918357"><ele>560.6666666666666</ele><time>2026-04-25T09:09:19Z</time></trkpt><trkpt lat="44.51494086968532" lon="9.754755182593824"><ele>558.3333333333334</ele><time>2026-04-25T09:09:20Z</time></trkpt><trkpt lat="44.515022194217686" lon="9.75500939181201"><ele>556.0</ele><time>2026-04-25T09:09:21Z</time></trkpt><trkpt lat="44.515077489603854" lon="9.755264411019093"><ele>555.75</ele><time>2026-04-25T09:09:22Z</time></trkpt><trkpt lat="44.51512145846091" lon="9.75548894576681"><ele>555.5</ele><time>2026-04-25T09:09:23Z</time></trkpt><trkpt lat="44.51512925314056" lon="9.755688876349145"><ele>555.25</ele><time>2026-04-25T09:09:24Z</time></trkpt><trkpt lat="44.5150765561123" lon="9.755866840806956"><ele>555.0</ele><time>2026-04-25T09:09:25Z</time></trkpt><trkpt lat="44.51496449016243" lon="9.756021330960689"><ele>557.75</ele><time>2026-04-25T09:09:26Z</time></trkpt><trkpt lat="44.51486033267897" lon="9.756164465952251"><ele>560.5</ele><time>2026-04-25T09:09:27Z</time></trkpt><trkpt lat="44.51475061841624" lon="9.756215047787427"><ele>563.25</ele><time>2026-04-25T09:09:28Z</time></trkpt><trkpt lat="44.514616881742235" lon="9.756230460500172"><ele>566.0</ele><time>2026-04-25T09:09:29Z</time></trkpt><trkpt lat="44.51448021346103" lon="9.756092270989097"><ele>563.6666666666666</ele><time>2026-04-25T09:09:30Z</time></trkpt><trkpt lat="44.51434566195166" lon="9.755916368848897"><ele>561.3333333333334</ele><time>2026-04-25T09:09:31Z</time></trkpt><trkpt lat="44.51418724880439" lon="9.755726194036281"><ele>559.0</ele><time>2026-04-25T09:09:32Z</time></trkpt><trkpt lat="44.514044197851426" lon="9.755505270976947"><ele>559.0</ele><time>2026-04-25T09:09:33Z</time></trkpt><trkpt lat="44.51388848319378" lon="9.75529512425088"><ele>559.0</ele><time>2026-04-25T09:09:34Z</time></trkpt><trkpt lat="44.51373034829679" lon="9.755095231389506"><ele>559.0</ele><time>2026-04-25T09:09:35Z</time></trkpt><trkpt lat="44.51358289506765" lon="9.754918635007247"><ele>558.0</ele><time>2026-04-25T09:09:36Z</time></trkpt><trkpt lat="44.51343060771575" lon="9.754763953106483"><ele>557.0</ele><time>2026-04-25T09:09:37Z</time></trkpt><trkpt lat="44.51323821000523" lon="9.754643508338159"><ele>556.0</ele><time>2026-04-25T09:09:38Z</time></trkpt><trkpt lat="44.51302093447051" lon="9.754552001666749"><ele>558.3333333333334</ele><time>2026-04-25T09:09:39Z</time></trkpt><trkpt lat="44.5128239851541" lon="9.754455105030571"><ele>560.6666666666666</ele><time>2026-04-25T09:09:40Z</time></trkpt><trkpt lat="44.51265597725263" lon="9.754367935563772"><ele>563.0</ele><time>2026-04-25T09:09:41Z</time></trkpt><trkpt lat="44.51251127229882" lon="9.754306401697828"><ele>563.0</ele><time>2026-04-25T09:09:42Z</time></trkpt><trkpt lat="44.5123773019147" lon="9.754309966633143"><ele>563.0</ele><time>2026-04-25T09:09:43Z</time></trkpt><trkpt lat="44.51222482067659" lon="9.754407054356356"><ele>563.0</ele><time>2026-04-25T09:09:44Z</time></trkpt><trkpt lat="44.51206171758458" lon="9.754557860227731"><ele>557.0</ele><time>2026-04-25T09:09:45Z</time></trkpt><trkpt lat="44.511917756661795" lon="9.754735817350495"><ele>551.0</ele><time>2026-04-25T09:09:46Z</time></trkpt><trkpt lat="44.51179803316974" lon="9.754927396320673"><ele>545.0</ele><time>2026-04-25T09:09:47Z</time></trkpt><trkpt lat="44.51168979274381" lon="9.755153238262912"><ele>548.0</ele><time>2026-04-25T09:09:48Z</time></trkpt><trkpt lat="44.51162078573761" lon="9.755419776504814"><ele>551.0</ele><time>2026-04-25T09:09:49Z</time></trkpt><trkpt lat="44.511488167270585" lon="9.755662573118718"><ele>554.0</ele><time>2026-04-25T09:09:50Z</time></trkpt><trkpt lat="44.51133768037148" lon="9.755899629399062"><ele>549.0</ele><time>2026-04-25T09:09:51Z</time></trkpt><trkpt lat="44.511167634315846" lon="9.756126759488627"><ele>544.0</ele><time>2026-04-25T09:09:52Z</time></trkpt><trkpt lat="44.510986846198506" lon="9.756365243578639"><ele>544.0</ele><time>2026-04-25T09:09:53Z</time></trkpt><trkpt lat="44.51081005835713" lon="9.756612909761879"><ele>544.0</ele><time>2026-04-25T09:09:54Z</time></trkpt><trkpt lat="44.51068934893379" lon="9.756821258827548"><ele>544.0</ele><time>2026-04-25T09:09:55Z</time></trkpt><trkpt lat="44.51055573824255" lon="9.757010060015412"><ele>546.3333333333334</ele><time>2026-04-25T09:09:56Z</time></trkpt><trkpt lat="44.510378504384825" lon="9.757176916211469"><ele>548.6666666666666</ele><time>2026-04-25T09:09:57Z</time></trkpt><trkpt lat="44.51023767737982" lon="9.757300965984944"><ele>551.0</ele><time>2026-04-25T09:09:58Z</time></trkpt><trkpt lat="44.510109722598074" lon="9.757419838094826"><ele>551.0</ele><time>2026-04-25T09:09:59Z</time></trkpt><trkpt lat="44.509990699089045" lon="9.75748798132982"><ele>551.0</ele><time>2026-04-25T09:10:00Z</time></trkpt><trkpt lat="44.509859510335545" lon="9.757570353335186"><ele>551.0</ele><time>2026-04-25T09:10:01Z</time></trkpt><trkpt lat="44.50973671906707" lon="9.757652152199695"><ele>551.0</ele><time>2026-04-25T09:10:02Z</time></trkpt><trkpt lat="44.509611404347275" lon="9.757744792468955"><ele>547.3333333333333</ele><time>2026-04-25T09:10:03Z</time></trkpt><trkpt lat="44.50948657449427" lon="9.757851592337069"><ele>543.6666666666666</ele><time>2026-04-25T09:10:04Z</time></trkpt><trkpt lat="44.5093756705729" lon="9.757983512954851"><ele>540.0</ele><time>2026-04-25T09:10:05Z</time></trkpt><trkpt lat="44.509288170451285" lon="9.758172996533778"><ele>540.0</ele><time>2026-04-25T09:10:06Z</time></trkpt><trkpt lat="44.50923077552793" lon="9.758381074789257"><ele>540.0</ele><time>2026-04-25T09:10:07Z</time></trkpt><trkpt lat="44.50918960190072" lon="9.758628829364078"><ele>540.0</ele><time>2026-04-25T09:10:08Z</time></trkpt><trkpt lat="44.509167634953286" lon="9.758883296765257"><ele>541.0</ele><time>2026-04-25T09:10:09Z</time></trkpt><trkpt lat="44.509145886299834" lon="9.759136931795773"><ele>542.0</ele><time>2026-04-25T09:10:10Z</time></trkpt><trkpt lat="44.50912496146435" lon="9.759387740666927"><ele>543.0</ele><time>2026-04-25T09:10:11Z</time></trkpt><trkpt lat="44.50909910274628" lon="9.759649264589811"><ele>543.0</ele><time>2026-04-25T09:10:12Z</time></trkpt><trkpt lat="44.509070628347345" lon="9.759898089424935"><ele>543.0</ele><time>2026-04-25T09:10:13Z</time></trkpt><trkpt lat="44.50904884875376" lon="9.76013957294693"><ele>543.0</ele><time>2026-04-25T09:10:14Z</time></trkpt><trkpt lat="44.50902814664878" lon="9.76038213565761"><ele>542.3333333333334</ele><time>2026-04-25T09:10:15Z</time></trkpt><trkpt lat="44.50900769504985" lon="9.760622781952712"><ele>541.6666666666667</ele><time>2026-04-25T09:10:16Z</time></trkpt><trkpt lat="44.50896963444794" lon="9.760854552829471"><ele>541.0</ele><time>2026-04-25T09:10:17Z</time></trkpt><trkpt lat="44.50894478620574" lon="9.761077209671056"><ele>541.0</ele><time>2026-04-25T09:10:18Z</time></trkpt><trkpt lat="44.508931003782536" lon="9.76126735013212"><ele>541.0</ele><time>2026-04-25T09:10:19Z</time></trkpt><trkpt lat="44.50885547229703" lon="9.761425142912268"><ele>541.0</ele><time>2026-04-25T09:10:20Z</time></trkpt><trkpt lat="44.50876432384804" lon="9.761583150035738"><ele>541.0</ele><time>2026-04-25T09:10:21Z</time></trkpt><trkpt lat="44.50865173138988" lon="9.76172473999314"><ele>539.6666666666667</ele><time>2026-04-25T09:10:22Z</time></trkpt><trkpt lat="44.50853675195278" lon="9.76186915274754"><ele>538.3333333333334</ele><time>2026-04-25T09:10:23Z</time></trkpt><trkpt lat="44.50840926626282" lon="9.761988474369025"><ele>537.0</ele><time>2026-04-25T09:10:23.999Z</time></trkpt><trkpt lat="44.50827675036746" lon="9.762108004395067"><ele>537.0</ele><time>2026-04-25T09:10:24.999Z</time></trkpt><trkpt lat="44.508126994294145" lon="9.76217447915796"><ele>537.0</ele><time>2026-04-25T09:10:25.999Z</time></trkpt><trkpt lat="44.507982134637174" lon="9.762263408372885"><ele>537.0</ele><time>2026-04-25T09:10:26.999Z</time></trkpt><trkpt lat="44.50784505947678" lon="9.762318524755507"><ele>534.0</ele><time>2026-04-25T09:10:27.999Z</time></trkpt><trkpt lat="44.507656245682284" lon="9.762414754396145"><ele>531.0</ele><time>2026-04-25T09:10:28.999Z</time></trkpt><trkpt lat="44.507487887283" lon="9.762487231225801"><ele>528.0</ele><time>2026-04-25T09:10:29.999Z</time></trkpt><trkpt lat="44.50731936413451" lon="9.762570260645708"><ele>528.0</ele><time>2026-04-25T09:10:30.999Z</time></trkpt><trkpt lat="44.5071509983655" lon="9.762659957328761"><ele>528.0</ele><time>2026-04-25T09:10:31.999Z</time></trkpt><trkpt lat="44.50698803437319" lon="9.76275531553973"><ele>528.0</ele><time>2026-04-25T09:10:32.999Z</time></trkpt><trkpt lat="44.50683196893269" lon="9.762852482036587"><ele>529.3333333333334</ele><time>2026-04-25T09:10:33.999Z</time></trkpt><trkpt lat="44.50667021249992" lon="9.762968462550877"><ele>530.6666666666667</ele><time>2026-04-25T09:10:34.999Z</time></trkpt><trkpt lat="44.5065212891307" lon="9.763123347245383"><ele>532.0</ele><time>2026-04-25T09:10:35.999Z</time></trkpt><trkpt lat="44.506375317830326" lon="9.763299816964633"><ele>532.3333333333334</ele><time>2026-04-25T09:10:36.999Z</time></trkpt><trkpt lat="44.50622616026892" lon="9.763467691346742"><ele>532.6666666666666</ele><time>2026-04-25T09:10:37.999Z</time></trkpt><trkpt lat="44.506077415513154" lon="9.763633546305433"><ele>533.0</ele><time>2026-04-25T09:10:38.999Z</time></trkpt><trkpt lat="44.50593218353481" lon="9.763798411234236"><ele>533.0</ele><time>2026-04-25T09:10:39.999Z</time></trkpt><trkpt lat="44.50578241513622" lon="9.763968125725194"><ele>533.0</ele><time>2026-04-25T09:10:40.999Z</time></trkpt><trkpt lat="44.5056398084649" lon="9.76413384572051"><ele>533.0</ele><time>2026-04-25T09:10:41.999Z</time></trkpt><trkpt lat="44.50549761076571" lon="9.764288512595579"><ele>528.0</ele><time>2026-04-25T09:10:42.999Z</time></trkpt><trkpt lat="44.505350797500896" lon="9.764441206683857"><ele>523.0</ele><time>2026-04-25T09:10:43.999Z</time></trkpt><trkpt lat="44.50521120964127" lon="9.764594598916505"><ele>518.0</ele><time>2026-04-25T09:10:44.999Z</time></trkpt><trkpt lat="44.50508816271777" lon="9.764748545647786"><ele>518.0</ele><time>2026-04-25T09:10:45.999Z</time></trkpt><trkpt lat="44.50498269675403" lon="9.764937364196772"><ele>518.0</ele><time>2026-04-25T09:10:46.999Z</time></trkpt><trkpt lat="44.50491323993366" lon="9.765166869917604"><ele>518.0</ele><time>2026-04-25T09:10:47.999Z</time></trkpt><trkpt lat="44.504856840862615" lon="9.765405142970652"><ele>516.6666666666666</ele><time>2026-04-25T09:10:48.999Z</time></trkpt><trkpt lat="44.50477437982943" lon="9.765625235197612"><ele>515.3333333333334</ele><time>2026-04-25T09:10:49.999Z</time></trkpt><trkpt lat="44.504641459817734" lon="9.765775903292678"><ele>514.0</ele><time>2026-04-25T09:10:50.999Z</time></trkpt><trkpt lat="44.50449819242282" lon="9.765940365248971"><ele>515.6666666666667</ele><time>2026-04-25T09:10:51.999Z</time></trkpt><trkpt lat="44.50435094171457" lon="9.766105724742356"><ele>517.3333333333334</ele><time>2026-04-25T09:10:52.999Z</time></trkpt><trkpt lat="44.50420308443705" lon="9.766271764341537"><ele>519.0</ele><time>2026-04-25T09:10:53.999Z</time></trkpt><trkpt lat="44.50405427784988" lon="9.766432962680332"><ele>519.0</ele><time>2026-04-25T09:10:54.999Z</time></trkpt><trkpt lat="44.50389590726513" lon="9.766587753261277"><ele>519.0</ele><time>2026-04-25T09:10:55.999Z</time></trkpt><trkpt lat="44.503731953450156" lon="9.766739702205196"><ele>519.0</ele><time>2026-04-25T09:10:56.999Z</time></trkpt><trkpt lat="44.50357015013452" lon="9.76689048305941"><ele>517.6666666666666</ele><time>2026-04-25T09:10:57.999Z</time></trkpt><trkpt lat="44.503410750793996" lon="9.76701767299528"><ele>516.3333333333333</ele><time>2026-04-25T09:10:58.999Z</time></trkpt><trkpt lat="44.50325100945825" lon="9.767081251681947"><ele>515.0</ele><time>2026-04-25T09:10:59.999Z</time></trkpt><trkpt lat="44.50308778254076" lon="9.767061559261602"><ele>513.0</ele><time>2026-04-25T09:11:00.999Z</time></trkpt><trkpt lat="44.5029109758603" lon="9.766978300072488"><ele>511.0</ele><time>2026-04-25T09:11:01.999Z</time></trkpt><trkpt lat="44.50272229983823" lon="9.766924804701345"><ele>509.0</ele><time>2026-04-25T09:11:02.999Z</time></trkpt><trkpt lat="44.50254480559265" lon="9.766925632471144"><ele>509.0</ele><time>2026-04-25T09:11:03.999Z</time></trkpt><trkpt lat="44.50236717536866" lon="9.766963069724078"><ele>509.0</ele><time>2026-04-25T09:11:04.999Z</time></trkpt><trkpt lat="44.502183181515385" lon="9.76709442199924"><ele>509.0</ele><time>2026-04-25T09:11:05.999Z</time></trkpt><trkpt lat="44.50198475248476" lon="9.767240476969397"><ele>507.0</ele><time>2026-04-25T09:11:06.999Z</time></trkpt><trkpt lat="44.50178505111663" lon="9.767355020790937"><ele>505.0</ele><time>2026-04-25T09:11:07.999Z</time></trkpt><trkpt lat="44.50160769992129" lon="9.767461516509666"><ele>503.0</ele><time>2026-04-25T09:11:08.999Z</time></trkpt><trkpt lat="44.50145378179301" lon="9.767563992164265"><ele>504.0</ele><time>2026-04-25T09:11:09.999Z</time></trkpt><trkpt lat="44.501323554642916" lon="9.767695861075648"><ele>505.0</ele><time>2026-04-25T09:11:10.999Z</time></trkpt><trkpt lat="44.50121758410814" lon="9.767906518401928"><ele>506.0</ele><time>2026-04-25T09:11:11.999Z</time></trkpt><trkpt lat="44.501129346091105" lon="9.768179845437126"><ele>503.3333333333333</ele><time>2026-04-25T09:11:12.999Z</time></trkpt><trkpt lat="44.501033232966435" lon="9.7684506337386"><ele>500.66666666666663</ele><time>2026-04-25T09:11:13.999Z</time></trkpt><trkpt lat="44.50094074313921" lon="9.768692722135265"><ele>498.0</ele><time>2026-04-25T09:11:14.999Z</time></trkpt><trkpt lat="44.50084885613731" lon="9.768912351361786"><ele>498.0</ele><time>2026-04-25T09:11:15.999Z</time></trkpt><trkpt lat="44.500761681497295" lon="9.769119787706169"><ele>498.0</ele><time>2026-04-25T09:11:16.999Z</time></trkpt><trkpt lat="44.50064856891824" lon="9.76927575602945"><ele>498.0</ele><time>2026-04-25T09:11:17.999Z</time></trkpt><trkpt lat="44.50053123569189" lon="9.76939701324575"><ele>498.33333333333337</ele><time>2026-04-25T09:11:19Z</time></trkpt><trkpt lat="44.50038478168091" lon="9.769452915453044"><ele>498.6666666666667</ele><time>2026-04-25T09:11:20Z</time></trkpt><trkpt lat="44.50021984450074" lon="9.769456323073582"><ele>499.0</ele><time>2026-04-25T09:11:21Z</time></trkpt><trkpt lat="44.50001036823792" lon="9.769459341683062"><ele>499.0</ele><time>2026-04-25T09:11:22Z</time></trkpt><trkpt lat="44.49982634702471" lon="9.769435211015672"><ele>499.0</ele><time>2026-04-25T09:11:23Z</time></trkpt><trkpt lat="44.499686244870475" lon="9.769337526724037"><ele>499.0</ele><time>2026-04-25T09:11:24Z</time></trkpt><trkpt lat="44.499541011713426" lon="9.769213168665283"><ele>495.33333333333337</ele><time>2026-04-25T09:11:25Z</time></trkpt><trkpt lat="44.49938332549736" lon="9.769105078717526"><ele>491.66666666666663</ele><time>2026-04-25T09:11:26Z</time></trkpt><trkpt lat="44.4992348765622" lon="9.76907524560763"><ele>488.0</ele><time>2026-04-25T09:11:27Z</time></trkpt><trkpt lat="44.49903100517884" lon="9.769089562036498"><ele>488.0</ele><time>2026-04-25T09:11:28Z</time></trkpt><trkpt lat="44.4988167877601" lon="9.769147691473597"><ele>488.0</ele><time>2026-04-25T09:11:29Z</time></trkpt><trkpt lat="44.49861112967891" lon="9.769196205022379"><ele>488.0</ele><time>2026-04-25T09:11:30Z</time></trkpt><trkpt lat="44.49841000165665" lon="9.769242698967691"><ele>489.0</ele><time>2026-04-25T09:11:31Z</time></trkpt><trkpt lat="44.49820453626409" lon="9.76929886618025"><ele>490.0</ele><time>2026-04-25T09:11:32Z</time></trkpt><trkpt lat="44.49799899073524" lon="9.769366325009825"><ele>491.0</ele><time>2026-04-25T09:11:33Z</time></trkpt><trkpt lat="44.49780003760849" lon="9.7694372040831"><ele>488.3333333333333</ele><time>2026-04-25T09:11:34Z</time></trkpt><trkpt lat="44.49760884048208" lon="9.769509043806803"><ele>485.66666666666663</ele><time>2026-04-25T09:11:35Z</time></trkpt><trkpt lat="44.49741973261856" lon="9.769578375667596"><ele>483.0</ele><time>2026-04-25T09:11:36Z</time></trkpt><trkpt lat="44.497238505658295" lon="9.769647596331055"><ele>480.33333333333337</ele><time>2026-04-25T09:11:37Z</time></trkpt><trkpt lat="44.49706611800485" lon="9.769720009862954"><ele>477.6666666666667</ele><time>2026-04-25T09:11:38Z</time></trkpt><trkpt lat="44.49689932397144" lon="9.76980144558037"><ele>475.0</ele><time>2026-04-25T09:11:39Z</time></trkpt><trkpt lat="44.496741138159386" lon="9.769901872981144"><ele>475.0</ele><time>2026-04-25T09:11:40Z</time></trkpt><trkpt lat="44.49660734553859" lon="9.770011739674915"><ele>475.0</ele><time>2026-04-25T09:11:41Z</time></trkpt><trkpt lat="44.49649716879104" lon="9.770125828090656"><ele>475.0</ele><time>2026-04-25T09:11:42Z</time></trkpt><trkpt lat="44.49638277194719" lon="9.77025853988081"><ele>475.0</ele><time>2026-04-25T09:11:43Z</time></trkpt><trkpt lat="44.496288053931266" lon="9.77041208014572"><ele>472.75</ele><time>2026-04-25T09:11:44Z</time></trkpt><trkpt lat="44.496200121820245" lon="9.770580946198017"><ele>470.5</ele><time>2026-04-25T09:11:45Z</time></trkpt><trkpt lat="44.49609027629938" lon="9.770724883990923"><ele>468.25</ele><time>2026-04-25T09:11:46Z</time></trkpt><trkpt lat="44.49601176978235" lon="9.770881627255214"><ele>466.0</ele><time>2026-04-25T09:11:47Z</time></trkpt><trkpt lat="44.49592466260006" lon="9.771018058494041"><ele>467.25</ele><time>2026-04-25T09:11:48Z</time></trkpt><trkpt lat="44.495839302580926" lon="9.771157394361866"><ele>468.5</ele><time>2026-04-25T09:11:49Z</time></trkpt><trkpt lat="44.49574862407583" lon="9.77130573958619"><ele>469.75</ele><time>2026-04-25T09:11:50Z</time></trkpt><trkpt lat="44.495655395613504" lon="9.77145579540203"><ele>471.0</ele><time>2026-04-25T09:11:51Z</time></trkpt><trkpt lat="44.495569689331944" lon="9.7715993107582"><ele>471.0</ele><time>2026-04-25T09:11:52Z</time></trkpt><trkpt lat="44.49548902911191" lon="9.771735583549171"><ele>471.0</ele><time>2026-04-25T09:11:53Z</time></trkpt><trkpt lat="44.495417433289695" lon="9.771867822984316"><ele>471.0</ele><time>2026-04-25T09:11:54Z</time></trkpt><trkpt lat="44.49537190937937" lon="9.772015833701188"><ele>471.0</ele><time>2026-04-25T09:11:55Z</time></trkpt><trkpt lat="44.49537323008073" lon="9.77218435598043"><ele>470.25</ele><time>2026-04-25T09:11:56Z</time></trkpt><trkpt lat="44.495398816822686" lon="9.772349199950114"><ele>469.5</ele><time>2026-04-25T09:11:57Z</time></trkpt><trkpt lat="44.49544788495826" lon="9.772502693951125"><ele>468.75</ele><time>2026-04-25T09:11:58Z</time></trkpt><trkpt lat="44.495535803850345" lon="9.772632505211417"><ele>468.0</ele><time>2026-04-25T09:11:59Z</time></trkpt><trkpt lat="44.495621228722726" lon="9.772757403952985"><ele>466.5</ele><time>2026-04-25T09:12:00Z</time></trkpt><trkpt lat="44.49568328114994" lon="9.772910211623607"><ele>465.0</ele><time>2026-04-25T09:12:01Z</time></trkpt><trkpt lat="44.495769384186985" lon="9.773038857747473"><ele>463.5</ele><time>2026-04-25T09:12:02Z</time></trkpt><trkpt lat="44.49583034327327" lon="9.773188759300131"><ele>462.0</ele><time>2026-04-25T09:12:03Z</time></trkpt><trkpt lat="44.495889673381924" lon="9.77332740974649"><ele>462.0</ele><time>2026-04-25T09:12:04Z</time></trkpt><trkpt lat="44.49593037996057" lon="9.773470471337964"><ele>462.00000000000006</ele><time>2026-04-25T09:12:05Z</time></trkpt><trkpt lat="44.49594062194978" lon="9.77361743096082"><ele>462.00000000000006</ele><time>2026-04-25T09:12:06Z</time></trkpt><trkpt lat="44.49592497965859" lon="9.773770255128662"><ele>462.0</ele><time>2026-04-25T09:12:07Z</time></trkpt><trkpt lat="44.495900424167466" lon="9.773916794173246"><ele>462.0</ele><time>2026-04-25T09:12:08Z</time></trkpt><trkpt lat="44.49579026069229" lon="9.774012018497887"><ele>460.75</ele><time>2026-04-25T09:12:09Z</time></trkpt><trkpt lat="44.495682673981364" lon="9.774061768862053"><ele>459.5</ele><time>2026-04-25T09:12:10Z</time></trkpt><trkpt lat="44.49556567611314" lon="9.774067983845063"><ele>458.25</ele><time>2026-04-25T09:12:11Z</time></trkpt><trkpt lat="44.49545052667287" lon="9.774019129939878"><ele>457.0</ele><time>2026-04-25T09:12:12Z</time></trkpt><trkpt lat="44.49534723139875" lon="9.77391796035783"><ele>455.25</ele><time>2026-04-25T09:12:13Z</time></trkpt><trkpt lat="44.49527726783245" lon="9.773770503510312"><ele>453.5</ele><time>2026-04-25T09:12:14Z</time></trkpt><trkpt lat="44.49520390671846" lon="9.77360947191685"><ele>451.75</ele><time>2026-04-25T09:12:15Z</time></trkpt><trkpt lat="44.495129834324054" lon="9.773458759336789"><ele>450.0</ele><time>2026-04-25T09:12:16Z</time></trkpt><trkpt lat="44.495062407059585" lon="9.773303705308733"><ele>450.0</ele><time>2026-04-25T09:12:17Z</time></trkpt><trkpt lat="44.49498717737177" lon="9.773150899361445"><ele>450.0</ele><time>2026-04-25T09:12:18Z</time></trkpt><trkpt lat="44.49491694480818" lon="9.772989804087258"><ele>450.0</ele><time>2026-04-25T09:12:19Z</time></trkpt><trkpt lat="44.49484684299512" lon="9.772818031839211"><ele>450.0</ele><time>2026-04-25T09:12:20Z</time></trkpt><trkpt lat="44.49476781891664" lon="9.772648475348486"><ele>450.5</ele><time>2026-04-25T09:12:21Z</time></trkpt><trkpt lat="44.49468070952107" lon="9.772484165338488"><ele>451.0</ele><time>2026-04-25T09:12:22Z</time></trkpt><trkpt lat="44.494601925983275" lon="9.77232254021709"><ele>451.5</ele><time>2026-04-25T09:12:23Z</time></trkpt><trkpt lat="44.494534346331136" lon="9.772160160185063"><ele>452.0</ele><time>2026-04-25T09:12:24Z</time></trkpt><trkpt lat="44.494484500297254" lon="9.771980442048278"><ele>452.5</ele><time>2026-04-25T09:12:25Z</time></trkpt><trkpt lat="44.49448646716512" lon="9.771783561262387"><ele>453.0</ele><time>2026-04-25T09:12:26Z</time></trkpt><trkpt lat="44.494488479108306" lon="9.77157974113163"><ele>453.5</ele><time>2026-04-25T09:12:27Z</time></trkpt><trkpt lat="44.494541076659466" lon="9.771384228098052"><ele>454.0</ele><time>2026-04-25T09:12:27.999Z</time></trkpt><trkpt lat="44.494603607184686" lon="9.771207506971225"><ele>454.0</ele><time>2026-04-25T09:12:28.999Z</time></trkpt><trkpt lat="44.49464419077729" lon="9.771038043906557"><ele>454.0</ele><time>2026-04-25T09:12:29.999Z</time></trkpt><trkpt lat="44.494626801805516" lon="9.770839255017178"><ele>454.0</ele><time>2026-04-25T09:12:30.999Z</time></trkpt><trkpt lat="44.49456208540244" lon="9.770647080318609"><ele>454.0</ele><time>2026-04-25T09:12:31.999Z</time></trkpt><trkpt lat="44.49445309610822" lon="9.770473880582177"><ele>450.0</ele><time>2026-04-25T09:12:32.999Z</time></trkpt><trkpt lat="44.49435646890317" lon="9.770315921116186"><ele>446.0</ele><time>2026-04-25T09:12:33.999Z</time></trkpt><trkpt lat="44.494311096335196" lon="9.77013334629136"><ele>442.0</ele><time>2026-04-25T09:12:34.999Z</time></trkpt><trkpt lat="44.49430547130056" lon="9.769951690332174"><ele>438.0</ele><time>2026-04-25T09:12:35.999Z</time></trkpt><trkpt lat="44.49435202865531" lon="9.76977665619476"><ele>438.33333333333337</ele><time>2026-04-25T09:12:36.999Z</time></trkpt><trkpt lat="44.49442473362879" lon="9.769591955532315"><ele>438.6666666666667</ele><time>2026-04-25T09:12:37.999Z</time></trkpt><trkpt lat="44.49452773132222" lon="9.769419976086981"><ele>439.0</ele><time>2026-04-25T09:12:38.999Z</time></trkpt><trkpt lat="44.494615606834294" lon="9.769214796104992"><ele>439.0</ele><time>2026-04-25T09:12:39.999Z</time></trkpt><trkpt lat="44.494678455837835" lon="9.768997779214162"><ele>439.0</ele><time>2026-04-25T09:12:40.999Z</time></trkpt><trkpt lat="44.4947244307541" lon="9.768764119824256"><ele>439.0</ele><time>2026-04-25T09:12:41.999Z</time></trkpt><trkpt lat="44.494765073243634" lon="9.768519891182834"><ele>436.6666666666667</ele><time>2026-04-25T09:12:42.999Z</time></trkpt><trkpt lat="44.49480925041463" lon="9.768290805773729"><ele>434.33333333333337</ele><time>2026-04-25T09:12:43.999Z</time></trkpt><trkpt lat="44.494854003236554" lon="9.76808338945971"><ele>432.0</ele><time>2026-04-25T09:12:44.999Z</time></trkpt><trkpt lat="44.494880395662356" lon="9.767874537288003"><ele>430.0</ele><time>2026-04-25T09:12:45.999Z</time></trkpt><trkpt lat="44.4948729954377" lon="9.76767728136388"><ele>428.0</ele><time>2026-04-25T09:12:46.999Z</time></trkpt><trkpt lat="44.494825788923904" lon="9.767469849423241"><ele>426.0</ele><time>2026-04-25T09:12:47.999Z</time></trkpt><trkpt lat="44.49474178808133" lon="9.767279205363677"><ele>426.0</ele><time>2026-04-25T09:12:48.999Z</time></trkpt><trkpt lat="44.494625649635125" lon="9.76710119136985"><ele>426.0</ele><time>2026-04-25T09:12:49.999Z</time></trkpt><trkpt lat="44.49450540710055" lon="9.766922721203924"><ele>426.0</ele><time>2026-04-25T09:12:50.999Z</time></trkpt><trkpt lat="44.49439748236465" lon="9.766734856020344"><ele>422.0</ele><time>2026-04-25T09:12:51.999Z</time></trkpt><trkpt lat="44.494285156099515" lon="9.766548488414465"><ele>418.0</ele><time>2026-04-25T09:12:52.999Z</time></trkpt><trkpt lat="44.4941746829992" lon="9.766375348788413"><ele>414.0</ele><time>2026-04-25T09:12:53.999Z</time></trkpt><trkpt lat="44.49407686761372" lon="9.766232580643358"><ele>414.0</ele><time>2026-04-25T09:12:54.999Z</time></trkpt><trkpt lat="44.49397877087534" lon="9.76608645635029"><ele>414.0</ele><time>2026-04-25T09:12:55.999Z</time></trkpt><trkpt lat="44.493885948385795" lon="9.765949269827788"><ele>414.0</ele><time>2026-04-25T09:12:56.999Z</time></trkpt><trkpt lat="44.49378333073342" lon="9.765839233735857"><ele>414.0</ele><time>2026-04-25T09:12:57.999Z</time></trkpt><trkpt lat="44.49368238583145" lon="9.7657336355364"><ele>416.5</ele><time>2026-04-25T09:12:58.999Z</time></trkpt><trkpt lat="44.493553659859764" lon="9.76567692336047"><ele>419.0</ele><time>2026-04-25T09:12:59.999Z</time></trkpt><trkpt lat="44.49340875767712" lon="9.765683344369025"><ele>421.5</ele><time>2026-04-25T09:13:00.999Z</time></trkpt><trkpt lat="44.49326498692956" lon="9.765754499672921"><ele>424.0</ele><time>2026-04-25T09:13:01.999Z</time></trkpt><trkpt lat="44.49314046456794" lon="9.765869087762614"><ele>424.0</ele><time>2026-04-25T09:13:02.999Z</time></trkpt><trkpt lat="44.49303074500192" lon="9.766002643991309"><ele>424.0</ele><time>2026-04-25T09:13:03.999Z</time></trkpt><trkpt lat="44.49292769697411" lon="9.766140779979636"><ele>424.0</ele><time>2026-04-25T09:13:04.999Z</time></trkpt><trkpt lat="44.4928146512475" lon="9.766252134529951"><ele>424.0</ele><time>2026-04-25T09:13:05.999Z</time></trkpt><trkpt lat="44.49271458164074" lon="9.766394231703279"><ele>424.5</ele><time>2026-04-25T09:13:06.999Z</time></trkpt><trkpt lat="44.49260731919659" lon="9.76651285914873"><ele>425.0</ele><time>2026-04-25T09:13:07.999Z</time></trkpt><trkpt lat="44.49250100458336" lon="9.766630130650187"><ele>425.5</ele><time>2026-04-25T09:13:08.999Z</time></trkpt><trkpt lat="44.49240116359371" lon="9.766736858837708"><ele>426.0</ele><time>2026-04-25T09:13:09.999Z</time></trkpt><trkpt lat="44.49230456827414" lon="9.766796270222356"><ele>424.75</ele><time>2026-04-25T09:13:10.999Z</time></trkpt><trkpt lat="44.49220117699368" lon="9.76686204657397"><ele>423.5</ele><time>2026-04-25T09:13:11.999Z</time></trkpt><trkpt lat="44.49208706311702" lon="9.766908159590505"><ele>422.25</ele><time>2026-04-25T09:13:12.999Z</time></trkpt><trkpt lat="44.49196185797261" lon="9.766936753800497"><ele>421.0</ele><time>2026-04-25T09:13:13.999Z</time></trkpt><trkpt lat="44.49184200558771" lon="9.766961764905098"><ele>421.0</ele><time>2026-04-25T09:13:14.999Z</time></trkpt><trkpt lat="44.49171982048116" lon="9.766998454823334"><ele>421.0</ele><time>2026-04-25T09:13:15.999Z</time></trkpt><trkpt lat="44.49160152797067" lon="9.767020820423308"><ele>421.0</ele><time>2026-04-25T09:13:16.999Z</time></trkpt><trkpt lat="44.491488485093846" lon="9.767069100604957"><ele>421.0</ele><time>2026-04-25T09:13:17.999Z</time></trkpt><trkpt lat="44.49137957717157" lon="9.767140704031961"><ele>421.0</ele><time>2026-04-25T09:13:18.999Z</time></trkpt><trkpt lat="44.491270795212614" lon="9.767234805034718"><ele>421.0</ele><time>2026-04-25T09:13:19.999Z</time></trkpt><trkpt lat="44.491151550200996" lon="9.767307169101937"><ele>421.0</ele><time>2026-04-25T09:13:20.999Z</time></trkpt><trkpt lat="44.49103873864557" lon="9.767394276413135"><ele>421.0</ele><time>2026-04-25T09:13:21.999Z</time></trkpt><trkpt lat="44.49092629860605" lon="9.767481096829643"><ele>421.25</ele><time>2026-04-25T09:13:22.999Z</time></trkpt><trkpt lat="44.49081077093422" lon="9.767570299046044"><ele>421.5</ele><time>2026-04-25T09:13:23.999Z</time></trkpt><trkpt lat="44.49070388640647" lon="9.767672508732762"><ele>421.75</ele><time>2026-04-25T09:13:25Z</time></trkpt><trkpt lat="44.490595266300495" lon="9.767753370541055"><ele>422.0</ele><time>2026-04-25T09:13:26Z</time></trkpt><trkpt lat="44.49049426716344" lon="9.767829574844953"><ele>421.40000000000003</ele><time>2026-04-25T09:13:27Z</time></trkpt><trkpt lat="44.49039963030396" lon="9.767904432389717"><ele>420.8</ele><time>2026-04-25T09:13:28Z</time></trkpt><trkpt lat="44.49030812625237" lon="9.767971088416289"><ele>420.2</ele><time>2026-04-25T09:13:29Z</time></trkpt><trkpt lat="44.490223151931126" lon="9.768037056672409"><ele>419.6</ele><time>2026-04-25T09:13:30Z</time></trkpt><trkpt lat="44.49013787585884" lon="9.768099746528785"><ele>419.0</ele><time>2026-04-25T09:13:31Z</time></trkpt><trkpt lat="44.49006069220821" lon="9.768167269845895"><ele>418.99999999999994</ele><time>2026-04-25T09:13:32Z</time></trkpt><trkpt lat="44.48998219793862" lon="9.768229558053951"><ele>419.0</ele><time>2026-04-25T09:13:33Z</time></trkpt><trkpt lat="44.4899174214868" lon="9.76831550050603"><ele>419.0</ele><time>2026-04-25T09:13:34Z</time></trkpt><trkpt lat="44.4898694793418" lon="9.768414380861541"><ele>419.0</ele><time>2026-04-25T09:13:35Z</time></trkpt><trkpt lat="44.48982299855239" lon="9.768530052771808"><ele>418.99999999999994</ele><time>2026-04-25T09:13:36Z</time></trkpt><trkpt lat="44.48978688689342" lon="9.768615965140222"><ele>419.0</ele><time>2026-04-25T09:13:37Z</time></trkpt><trkpt lat="44.48972758843163" lon="9.768746661492658"><ele>417.66666666666663</ele><time>2026-04-25T09:13:40Z</time></trkpt><trkpt lat="44.48968705520451" lon="9.768818147210652"><ele>416.3333333333333</ele><time>2026-04-25T09:13:41Z</time></trkpt><trkpt lat="44.48965025830447" lon="9.768897107650924"><ele>415.0</ele><time>2026-04-25T09:13:42Z</time></trkpt><trkpt lat="44.489608611359515" lon="9.76896638812865"><ele>413.66666666666663</ele><time>2026-04-25T09:13:43Z</time></trkpt><trkpt lat="44.489520772362916" lon="9.769106510633419"><ele>412.3333333333333</ele><time>2026-04-25T09:13:45Z</time></trkpt><trkpt lat="44.48946109731235" lon="9.769156881663285"><ele>411.0</ele><time>2026-04-25T09:13:46Z</time></trkpt><trkpt lat="44.48938952708445" lon="9.769202214653976"><ele>410.8333333333333</ele><time>2026-04-25T09:13:47Z</time></trkpt><trkpt lat="44.48931510652711" lon="9.769256013324938"><ele>410.66666666666663</ele><time>2026-04-25T09:13:48Z</time></trkpt><trkpt lat="44.48923676472792" lon="9.76930702363876"><ele>410.5</ele><time>2026-04-25T09:13:49Z</time></trkpt><trkpt lat="44.48916185660901" lon="9.769349555953035"><ele>410.3333333333333</ele><time>2026-04-25T09:13:50Z</time></trkpt><trkpt lat="44.48908742550909" lon="9.769369314513359"><ele>410.16666666666663</ele><time>2026-04-25T09:13:51Z</time></trkpt><trkpt lat="44.48900531620221" lon="9.769364899485511"><ele>410.0</ele><time>2026-04-25T09:13:52Z</time></trkpt><trkpt lat="44.488918366507555" lon="9.769355278468693"><ele>409.99999999999994</ele><time>2026-04-25T09:13:53Z</time></trkpt><trkpt lat="44.4888313674386" lon="9.769334921421205"><ele>410.0</ele><time>2026-04-25T09:13:54Z</time></trkpt><trkpt lat="44.488749208383" lon="9.769284707552641"><ele>410.0</ele><time>2026-04-25T09:13:55Z</time></trkpt><trkpt lat="44.4886821625442" lon="9.769201841053137"><ele>410.0</ele><time>2026-04-25T09:13:56Z</time></trkpt><trkpt lat="44.488637519998605" lon="9.769087862280553"><ele>409.99999999999994</ele><time>2026-04-25T09:13:57Z</time></trkpt><trkpt lat="44.488604591685984" lon="9.768982578539028"><ele>410.0</ele><time>2026-04-25T09:13:58Z</time></trkpt><trkpt lat="44.488544192811986" lon="9.768904821648533"><ele>410.2</ele><time>2026-04-25T09:13:59Z</time></trkpt><trkpt lat="44.48848637496668" lon="9.768842666187128"><ele>410.4</ele><time>2026-04-25T09:14:00Z</time></trkpt><trkpt lat="44.48842799889238" lon="9.768771509487186"><ele>410.6</ele><time>2026-04-25T09:14:01Z</time></trkpt><trkpt lat="44.4883541868343" lon="9.768694277796468"><ele>410.8</ele><time>2026-04-25T09:14:02Z</time></trkpt><trkpt lat="44.48826885233986" lon="9.768568304463056"><ele>411.0</ele><time>2026-04-25T09:14:03Z</time></trkpt><trkpt lat="44.4881991825463" lon="9.768408851728204"><ele>411.0</ele><time>2026-04-25T09:14:04Z</time></trkpt><trkpt lat="44.488151462775136" lon="9.7683335314214"><ele>411.0</ele><time>2026-04-25T09:14:06Z</time></trkpt><trkpt lat="44.48809875983359" lon="9.768228356860712"><ele>411.0</ele><time>2026-04-25T09:14:07Z</time></trkpt><trkpt lat="44.48804439799138" lon="9.768125750331702"><ele>411.0</ele><time>2026-04-25T09:14:08Z</time></trkpt><trkpt lat="44.48799330730748" lon="9.768020489973994"><ele>411.0</ele><time>2026-04-25T09:14:09Z</time></trkpt><trkpt lat="44.48794209125553" lon="9.767916426145442"><ele>411.0</ele><time>2026-04-25T09:14:10Z</time></trkpt><trkpt lat="44.48788742908713" lon="9.767811711382803"><ele>410.5</ele><time>2026-04-25T09:14:11Z</time></trkpt><trkpt lat="44.487838327684656" lon="9.767712960182598"><ele>410.0</ele><time>2026-04-25T09:14:12Z</time></trkpt><trkpt lat="44.487789772243715" lon="9.767622833449883"><ele>409.5</ele><time>2026-04-25T09:14:13Z</time></trkpt><trkpt lat="44.48775029873043" lon="9.767516586460596"><ele>409.0</ele><time>2026-04-25T09:14:14Z</time></trkpt><trkpt lat="44.48770459465968" lon="9.767450008469496"><ele>408.5</ele><time>2026-04-25T09:14:15Z</time></trkpt><trkpt lat="44.48764930777687" lon="9.76736435275723"><ele>408.0</ele><time>2026-04-25T09:14:17Z</time></trkpt><trkpt lat="44.48758037998436" lon="9.767274833872781"><ele>408.0</ele><time>2026-04-25T09:14:20Z</time></trkpt><trkpt lat="44.487503485386725" lon="9.767233276380576"><ele>408.0</ele><time>2026-04-25T09:14:22Z</time></trkpt><trkpt lat="44.48740725051247" lon="9.767306039501232"><ele>408.0</ele><time>2026-04-25T09:14:23Z</time></trkpt><trkpt lat="44.48737113007127" lon="9.767517096527557"><ele>408.0</ele><time>2026-04-25T09:14:24Z</time></trkpt><trkpt lat="44.48731595507547" lon="9.76762093616854"><ele>408.0</ele><time>2026-04-25T09:14:25Z</time></trkpt><trkpt lat="44.487261453069955" lon="9.767742864238041"><ele>406.8333333333333</ele><time>2026-04-25T09:14:26Z</time></trkpt><trkpt lat="44.487211387905155" lon="9.767863062316602"><ele>405.66666666666663</ele><time>2026-04-25T09:14:27Z</time></trkpt><trkpt lat="44.48716333927261" lon="9.76796720661503"><ele>404.5</ele><time>2026-04-25T09:14:28Z</time></trkpt><trkpt lat="44.48713126915677" lon="9.768048915094544"><ele>403.3333333333333</ele><time>2026-04-25T09:14:29Z</time></trkpt><trkpt lat="44.487070350690296" lon="9.768156210802411"><ele>402.16666666666663</ele><time>2026-04-25T09:14:31Z</time></trkpt><trkpt lat="44.48703894931929" lon="9.768241797955389"><ele>401.0</ele><time>2026-04-25T09:14:32Z</time></trkpt><trkpt lat="44.486997413912334" lon="9.768376272317616"><ele>400.0</ele><time>2026-04-25T09:14:33Z</time></trkpt><trkpt lat="44.48692528861963" lon="9.76852643532463"><ele>399.0</ele><time>2026-04-25T09:14:33.999Z</time></trkpt><trkpt lat="44.48685608283115" lon="9.768682949832872"><ele>398.0</ele><time>2026-04-25T09:14:34.999Z</time></trkpt><trkpt lat="44.4867841768406" lon="9.768850190136293"><ele>397.0</ele><time>2026-04-25T09:14:35.999Z</time></trkpt><trkpt lat="44.48670496173113" lon="9.769005524630813"><ele>397.0</ele><time>2026-04-25T09:14:36.999Z</time></trkpt><trkpt lat="44.48664661620638" lon="9.769172002643414"><ele>397.0</ele><time>2026-04-25T09:14:37.999Z</time></trkpt><trkpt lat="44.48658503513346" lon="9.769326405079557"><ele>397.0</ele><time>2026-04-25T09:14:38.999Z</time></trkpt><trkpt lat="44.48652546974153" lon="9.769476452882095"><ele>397.0</ele><time>2026-04-25T09:14:39.999Z</time></trkpt><trkpt lat="44.48646866159692" lon="9.76962811248781"><ele>396.5</ele><time>2026-04-25T09:14:40.999Z</time></trkpt><trkpt lat="44.4864053417246" lon="9.7697747303047"><ele>396.0</ele><time>2026-04-25T09:14:41.999Z</time></trkpt><trkpt lat="44.48633301611846" lon="9.76992857025939"><ele>395.5</ele><time>2026-04-25T09:14:42.999Z</time></trkpt><trkpt lat="44.4862595156999" lon="9.770084947311386"><ele>395.0</ele><time>2026-04-25T09:14:43.999Z</time></trkpt><trkpt lat="44.4861727837624" lon="9.770205268740693"><ele>396.0</ele><time>2026-04-25T09:14:44.999Z</time></trkpt><trkpt lat="44.486111057623276" lon="9.770334098964875"><ele>397.0</ele><time>2026-04-25T09:14:45.999Z</time></trkpt><trkpt lat="44.48605138486208" lon="9.77044622200625"><ele>398.0</ele><time>2026-04-25T09:14:46.999Z</time></trkpt><trkpt lat="44.4860039015631" lon="9.770535712903174"><ele>399.0</ele><time>2026-04-25T09:14:47.999Z</time></trkpt><trkpt lat="44.48592055349632" lon="9.770633976344206"><ele>400.0</ele><time>2026-04-25T09:14:49.999Z</time></trkpt><trkpt lat="44.48583610605783" lon="9.770668353143842"><ele>400.0</ele><time>2026-04-25T09:14:51.999Z</time></trkpt><trkpt lat="44.485841719898694" lon="9.7707788238052"><ele>400.0</ele><time>2026-04-25T09:14:53.999Z</time></trkpt><trkpt lat="44.48596367078586" lon="9.77087225900457"><ele>400.0</ele><time>2026-04-25T09:14:55.999Z</time></trkpt><trkpt lat="44.486027261040306" lon="9.770929568295216"><ele>400.0</ele><time>2026-04-25T09:14:56.999Z</time></trkpt><trkpt lat="44.48610614819995" lon="9.771092208006708"><ele>400.0</ele><time>2026-04-25T09:14:58.999Z</time></trkpt><trkpt lat="44.48616809525331" lon="9.77123472626791"><ele>400.0</ele><time>2026-04-25T09:14:59.999Z</time></trkpt><trkpt lat="44.48622424261441" lon="9.771392002725714"><ele>400.0</ele><time>2026-04-25T09:15:00.999Z</time></trkpt><trkpt lat="44.48627206940948" lon="9.771553335023869"><ele>400.0</ele><time>2026-04-25T09:15:01.999Z</time></trkpt><trkpt lat="44.48632891661549" lon="9.771716929310925"><ele>400.0</ele><time>2026-04-25T09:15:02.999Z</time></trkpt><trkpt lat="44.4863733553168" lon="9.771895727707886"><ele>399.5</ele><time>2026-04-25T09:15:03.999Z</time></trkpt><trkpt lat="44.48642574557554" lon="9.772069527417822"><ele>399.0</ele><time>2026-04-25T09:15:04.999Z</time></trkpt><trkpt lat="44.48647848238995" lon="9.772239778792816"><ele>398.5</ele><time>2026-04-25T09:15:05.999Z</time></trkpt><trkpt lat="44.48652597793351" lon="9.772407744432405"><ele>398.0</ele><time>2026-04-25T09:15:06.999Z</time></trkpt><trkpt lat="44.48654367755263" lon="9.772577211016552"><ele>398.5</ele><time>2026-04-25T09:15:07.999Z</time></trkpt><trkpt lat="44.48656434286384" lon="9.772744553522575"><ele>399.0</ele><time>2026-04-25T09:15:08.999Z</time></trkpt><trkpt lat="44.486593790169486" lon="9.772924726092159"><ele>399.5</ele><time>2026-04-25T09:15:09.999Z</time></trkpt><trkpt lat="44.486605253212744" lon="9.773104349527982"><ele>400.0</ele><time>2026-04-25T09:15:10.999Z</time></trkpt><trkpt lat="44.48662196542523" lon="9.77328023757026"><ele>400.0</ele><time>2026-04-25T09:15:11.999Z</time></trkpt><trkpt lat="44.48664062297336" lon="9.773453044288113"><ele>400.0</ele><time>2026-04-25T09:15:12.999Z</time></trkpt><trkpt lat="44.48665432880311" lon="9.773629381129139"><ele>400.0</ele><time>2026-04-25T09:15:13.999Z</time></trkpt><trkpt lat="44.48666935270167" lon="9.773801223448931"><ele>400.0</ele><time>2026-04-25T09:15:14.999Z</time></trkpt><trkpt lat="44.48668143417678" lon="9.773966809403348"><ele>400.5</ele><time>2026-04-25T09:15:15.999Z</time></trkpt><trkpt lat="44.48670175274318" lon="9.774126226679277"><ele>401.0</ele><time>2026-04-25T09:15:16.999Z</time></trkpt><trkpt lat="44.48671271446429" lon="9.77428462781014"><ele>401.5</ele><time>2026-04-25T09:15:17.999Z</time></trkpt><trkpt lat="44.48673094559373" lon="9.77444638285068"><ele>402.0</ele><time>2026-04-25T09:15:18.999Z</time></trkpt><trkpt lat="44.48674554435932" lon="9.7745991355808"><ele>402.40000000000003</ele><time>2026-04-25T09:15:19.999Z</time></trkpt><trkpt lat="44.48675378713119" lon="9.774763869504955"><ele>402.8</ele><time>2026-04-25T09:15:20.999Z</time></trkpt><trkpt lat="44.486764688003355" lon="9.774921019916729"><ele>403.2</ele><time>2026-04-25T09:15:21.999Z</time></trkpt><trkpt lat="44.48673658139451" lon="9.77507281693349"><ele>403.6</ele><time>2026-04-25T09:15:22.999Z</time></trkpt><trkpt lat="44.48671342821983" lon="9.775216400589922"><ele>404.0</ele><time>2026-04-25T09:15:23.999Z</time></trkpt><trkpt lat="44.4866719739175" lon="9.775360285386737"><ele>404.25</ele><time>2026-04-25T09:15:24.999Z</time></trkpt><trkpt lat="44.48662379601962" lon="9.775502143953219"><ele>404.5</ele><time>2026-04-25T09:15:25.999Z</time></trkpt><trkpt lat="44.48657040794179" lon="9.775652068942522"><ele>404.75</ele><time>2026-04-25T09:15:26.999Z</time></trkpt><trkpt lat="44.48653141732808" lon="9.775801749028695"><ele>405.0</ele><time>2026-04-25T09:15:27.999Z</time></trkpt><trkpt lat="44.48648124024903" lon="9.775930147595554"><ele>405.0</ele><time>2026-04-25T09:15:28.999Z</time></trkpt><trkpt lat="44.4864340788012" lon="9.776063593152102"><ele>405.0</ele><time>2026-04-25T09:15:29.999Z</time></trkpt><trkpt lat="44.486380700360236" lon="9.776197608390373"><ele>405.0</ele><time>2026-04-25T09:15:31Z</time></trkpt><trkpt lat="44.486329529710794" lon="9.776329476079967"><ele>405.0</ele><time>2026-04-25T09:15:32Z</time></trkpt><trkpt lat="44.486279538517856" lon="9.776473953693134"><ele>405.0</ele><time>2026-04-25T09:15:33Z</time></trkpt><trkpt lat="44.48622963906098" lon="9.776617713237972"><ele>405.5</ele><time>2026-04-25T09:15:34Z</time></trkpt><trkpt lat="44.48618321629128" lon="9.776753947084998"><ele>406.0</ele><time>2026-04-25T09:15:35Z</time></trkpt><trkpt lat="44.48613223735233" lon="9.776904247870961"><ele>406.5</ele><time>2026-04-25T09:15:36Z</time></trkpt><trkpt lat="44.486083454778864" lon="9.777041556496842"><ele>407.0</ele><time>2026-04-25T09:15:37Z</time></trkpt><trkpt lat="44.48602990743885" lon="9.777184375554048"><ele>407.5</ele><time>2026-04-25T09:15:38Z</time></trkpt><trkpt lat="44.4859779015574" lon="9.777330458874724"><ele>408.0</ele><time>2026-04-25T09:15:39Z</time></trkpt><trkpt lat="44.48592111646826" lon="9.777477981029932"><ele>408.5</ele><time>2026-04-25T09:15:40Z</time></trkpt><trkpt lat="44.48586786530845" lon="9.77762921031169"><ele>409.0</ele><time>2026-04-25T09:15:41Z</time></trkpt><trkpt lat="44.48580518569211" lon="9.7777796692144"><ele>409.0</ele><time>2026-04-25T09:15:42Z</time></trkpt><trkpt lat="44.485761445894745" lon="9.77792610301807"><ele>409.0</ele><time>2026-04-25T09:15:43Z</time></trkpt><trkpt lat="44.48572685251904" lon="9.778088518928943"><ele>409.0</ele><time>2026-04-25T09:15:44Z</time></trkpt><trkpt lat="44.48571115692096" lon="9.778254276899085"><ele>409.0</ele><time>2026-04-25T09:15:45Z</time></trkpt><trkpt lat="44.485732214462146" lon="9.778423021567509"><ele>409.25</ele><time>2026-04-25T09:15:46Z</time></trkpt><trkpt lat="44.485748583687354" lon="9.778594454513577"><ele>409.5</ele><time>2026-04-25T09:15:47Z</time></trkpt><trkpt lat="44.48577173501638" lon="9.778768467333446"><ele>409.75</ele><time>2026-04-25T09:15:48Z</time></trkpt><trkpt lat="44.485810933357094" lon="9.778937809359325"><ele>410.0</ele><time>2026-04-25T09:15:49Z</time></trkpt><trkpt lat="44.48582468243984" lon="9.779112806529593"><ele>410.0</ele><time>2026-04-25T09:15:50Z</time></trkpt><trkpt lat="44.48584738190831" lon="9.779278335284229"><ele>410.0</ele><time>2026-04-25T09:15:51Z</time></trkpt><trkpt lat="44.48586911416779" lon="9.779437610162098"><ele>410.0</ele><time>2026-04-25T09:15:52Z</time></trkpt><trkpt lat="44.48589718427062" lon="9.779573577539928"><ele>410.0</ele><time>2026-04-25T09:15:53Z</time></trkpt><trkpt lat="44.48591555748584" lon="9.779703593412563"><ele>410.0</ele><time>2026-04-25T09:15:54Z</time></trkpt><trkpt lat="44.48599411890997" lon="9.77980162099678"><ele>410.4</ele><time>2026-04-25T09:15:55Z</time></trkpt><trkpt lat="44.48607684655253" lon="9.779876317449187"><ele>410.8</ele><time>2026-04-25T09:15:56Z</time></trkpt><trkpt lat="44.48617375918877" lon="9.779920283752306"><ele>411.20000000000005</ele><time>2026-04-25T09:15:57Z</time></trkpt><trkpt lat="44.486260779965775" lon="9.779973558444766"><ele>411.6</ele><time>2026-04-25T09:15:58Z</time></trkpt><trkpt lat="44.486345315466004" lon="9.780018155489763"><ele>412.0</ele><time>2026-04-25T09:15:59Z</time></trkpt><trkpt lat="44.48642395223023" lon="9.78005964046823"><ele>411.83333333333337</ele><time>2026-04-25T09:16:00Z</time></trkpt><trkpt lat="44.48649585698267" lon="9.780097574238148"><ele>411.6666666666667</ele><time>2026-04-25T09:16:01Z</time></trkpt><trkpt lat="44.48657273650384" lon="9.78013902611589"><ele>411.5</ele><time>2026-04-25T09:16:02Z</time></trkpt><trkpt lat="44.486641903251254" lon="9.78016501020879"><ele>411.33333333333337</ele><time>2026-04-25T09:16:03Z</time></trkpt><trkpt lat="44.486705950976884" lon="9.780204416645445"><ele>411.1666666666667</ele><time>2026-04-25T09:16:04Z</time></trkpt><trkpt lat="44.486763711798496" lon="9.780246015059763"><ele>411.0</ele><time>2026-04-25T09:16:05Z</time></trkpt><trkpt lat="44.48686982836751" lon="9.780282693544798"><ele>410.4</ele><time>2026-04-25T09:16:07Z</time></trkpt><trkpt lat="44.4869213763606" lon="9.780157437181566"><ele>409.8</ele><time>2026-04-25T09:16:09Z</time></trkpt><trkpt lat="44.486917031201486" lon="9.780060965802965"><ele>409.2</ele><time>2026-04-25T09:16:10Z</time></trkpt><trkpt lat="44.486907252717245" lon="9.779932202843296"><ele>408.59999999999997</ele><time>2026-04-25T09:16:11Z</time></trkpt><trkpt lat="44.486893161588114" lon="9.779758740751335"><ele>408.0</ele><time>2026-04-25T09:16:12Z</time></trkpt><trkpt lat="44.486888078768075" lon="9.779597190687214"><ele>408.0</ele><time>2026-04-25T09:16:13Z</time></trkpt><trkpt lat="44.486894942261" lon="9.779437306481183"><ele>408.0</ele><time>2026-04-25T09:16:14Z</time></trkpt><trkpt lat="44.486905355045444" lon="9.779294117676468"><ele>408.0</ele><time>2026-04-25T09:16:15Z</time></trkpt><trkpt lat="44.48693792501718" lon="9.779194726558137"><ele>408.0</ele><time>2026-04-25T09:16:16Z</time></trkpt><trkpt lat="44.487017900849125" lon="9.779141538460317"><ele>408.0</ele><time>2026-04-25T09:16:17Z</time></trkpt><trkpt lat="44.48712275020204" lon="9.779159942256623"><ele>406.75</ele><time>2026-04-25T09:16:18Z</time></trkpt><trkpt lat="44.48723810646159" lon="9.779150469782824"><ele>405.5</ele><time>2026-04-25T09:16:19Z</time></trkpt><trkpt lat="44.48734901215107" lon="9.779151776803415"><ele>404.25</ele><time>2026-04-25T09:16:20Z</time></trkpt><trkpt lat="44.48748284703983" lon="9.779174831109758"><ele>403.0</ele><time>2026-04-25T09:16:21Z</time></trkpt><trkpt lat="44.487644939474556" lon="9.779175055020309"><ele>403.0</ele><time>2026-04-25T09:16:22Z</time></trkpt><trkpt lat="44.48782242861455" lon="9.779175055019591"><ele>403.0</ele><time>2026-04-25T09:16:23Z</time></trkpt><trkpt lat="44.488005834520614" lon="9.779155944930027"><ele>403.0</ele><time>2026-04-25T09:16:24Z</time></trkpt><trkpt lat="44.488187564233364" lon="9.77917785503863"><ele>402.0</ele><time>2026-04-25T09:16:25Z</time></trkpt><trkpt lat="44.488362051678386" lon="9.779190150155891"><ele>401.0</ele><time>2026-04-25T09:16:26Z</time></trkpt><trkpt lat="44.48854150134554" lon="9.779193683046435"><ele>400.0</ele><time>2026-04-25T09:16:27Z</time></trkpt><trkpt lat="44.4887264957822" lon="9.779193869724129"><ele>399.6666666666667</ele><time>2026-04-25T09:16:28Z</time></trkpt><trkpt lat="44.4889092754553" lon="9.779191830121054"><ele>399.33333333333337</ele><time>2026-04-25T09:16:29Z</time></trkpt><trkpt lat="44.48909257184371" lon="9.779192886637212"><ele>399.0</ele><time>2026-04-25T09:16:30Z</time></trkpt><trkpt lat="44.48927608183104" lon="9.77919010223323"><ele>399.0</ele><time>2026-04-25T09:16:31Z</time></trkpt><trkpt lat="44.48945928527451" lon="9.779186137329033"><ele>399.0</ele><time>2026-04-25T09:16:32Z</time></trkpt><trkpt lat="44.48964582535935" lon="9.779179004713043"><ele>399.0</ele><time>2026-04-25T09:16:33Z</time></trkpt><trkpt lat="44.48982468960765" lon="9.77917807292571"><ele>398.0</ele><time>2026-04-25T09:16:34Z</time></trkpt><trkpt lat="44.49000651779274" lon="9.779179726727499"><ele>397.0</ele><time>2026-04-25T09:16:35Z</time></trkpt><trkpt lat="44.49018221405933" lon="9.77917970945787"><ele>396.0</ele><time>2026-04-25T09:16:36Z</time></trkpt><trkpt lat="44.49035287866318" lon="9.779186516485593"><ele>394.66666666666663</ele><time>2026-04-25T09:16:37Z</time></trkpt><trkpt lat="44.49052845079245" lon="9.779191422939544"><ele>393.3333333333333</ele><time>2026-04-25T09:16:38Z</time></trkpt><trkpt lat="44.49070041319499" lon="9.779187198570837"><ele>392.0</ele><time>2026-04-25T09:16:38.999Z</time></trkpt><trkpt lat="44.49086211335672" lon="9.779182065568536"><ele>392.0</ele><time>2026-04-25T09:16:39.999Z</time></trkpt><trkpt lat="44.491004518905655" lon="9.779169829782484"><ele>392.0</ele><time>2026-04-25T09:16:40.999Z</time></trkpt><trkpt lat="44.491157310012305" lon="9.7791678755304"><ele>392.0</ele><time>2026-04-25T09:16:41.999Z</time></trkpt><trkpt lat="44.49130496185943" lon="9.77917123379987"><ele>392.0</ele><time>2026-04-25T09:16:42.999Z</time></trkpt><trkpt lat="44.491439080348" lon="9.779173624596487"><ele>392.0</ele><time>2026-04-25T09:16:43.999Z</time></trkpt><trkpt lat="44.49155564838286" lon="9.779188369540844"><ele>392.0</ele><time>2026-04-25T09:16:44.999Z</time></trkpt><trkpt lat="44.49165075544546" lon="9.779181022120692"><ele>392.0</ele><time>2026-04-25T09:16:45.999Z</time></trkpt><trkpt lat="44.49173011704636" lon="9.779271178879299"><ele>392.0</ele><time>2026-04-25T09:16:46.999Z</time></trkpt><trkpt lat="44.49178663344903" lon="9.77934831843203"><ele>392.0</ele><time>2026-04-25T09:16:47.999Z</time></trkpt><trkpt lat="44.49182985358987" lon="9.779445636341862"><ele>391.99999999999994</ele><time>2026-04-25T09:16:48.999Z</time></trkpt><trkpt lat="44.49184521579163" lon="9.779557423094229"><ele>392.0</ele><time>2026-04-25T09:16:49.999Z</time></trkpt><trkpt lat="44.49190475367815" lon="9.779611875918658"><ele>392.0</ele><time>2026-04-25T09:16:50.999Z</time></trkpt><trkpt lat="44.49186675761466" lon="9.779749612963862"><ele>392.0</ele><time>2026-04-25T09:16:51.999Z</time></trkpt><trkpt lat="44.49190454371952" lon="9.779887394321541"><ele>391.99999999999994</ele><time>2026-04-25T09:17:03.999Z</time></trkpt><trkpt lat="44.49193663423201" lon="9.779998304883236"><ele>392.0</ele><time>2026-04-25T09:17:04.999Z</time></trkpt><trkpt lat="44.491968175115694" lon="9.78014024935187"><ele>392.66666666666663</ele><time>2026-04-25T09:17:05.999Z</time></trkpt><trkpt lat="44.4920101102411" lon="9.78032309398354"><ele>393.33333333333337</ele><time>2026-04-25T09:17:06.999Z</time></trkpt><trkpt lat="44.49204944329187" lon="9.780540634886004"><ele>394.0</ele><time>2026-04-25T09:17:07.999Z</time></trkpt><trkpt lat="44.4920855829718" lon="9.780764488773286"><ele>394.0</ele><time>2026-04-25T09:17:08.999Z</time></trkpt><trkpt lat="44.492132615828886" lon="9.781014156295582"><ele>394.0</ele><time>2026-04-25T09:17:09.999Z</time></trkpt><trkpt lat="44.492174046897595" lon="9.781238091739668"><ele>394.0</ele><time>2026-04-25T09:17:10.999Z</time></trkpt><trkpt lat="44.49222398931773" lon="9.78152477913338"><ele>394.0</ele><time>2026-04-25T09:17:11.999Z</time></trkpt><trkpt lat="44.492277796349796" lon="9.781826292566391"><ele>394.0</ele><time>2026-04-25T09:17:12.999Z</time></trkpt><trkpt lat="44.492327165989614" lon="9.78214307775105"><ele>390.5</ele><time>2026-04-25T09:17:13.999Z</time></trkpt><trkpt lat="44.49238885264768" lon="9.782447501651644"><ele>387.0</ele><time>2026-04-25T09:17:14.999Z</time></trkpt><trkpt lat="44.4924728081668" lon="9.782773890279971"><ele>386.0</ele><time>2026-04-25T09:17:15.999Z</time></trkpt><trkpt lat="44.49258244141509" lon="9.783109842969143"><ele>385.0</ele><time>2026-04-25T09:17:16.999Z</time></trkpt><trkpt lat="44.49270996725924" lon="9.783446590489165"><ele>384.0</ele><time>2026-04-25T09:17:17.999Z</time></trkpt><trkpt lat="44.492848863617596" lon="9.78377819109765"><ele>383.0</ele><time>2026-04-25T09:17:18.999Z</time></trkpt><trkpt lat="44.49299876276933" lon="9.784091627177974"><ele>381.5</ele><time>2026-04-25T09:17:19.999Z</time></trkpt><trkpt lat="44.49316960074111" lon="9.784398952801608"><ele>380.0</ele><time>2026-04-25T09:17:20.999Z</time></trkpt><trkpt lat="44.493355187528735" lon="9.784697331667516"><ele>380.0</ele><time>2026-04-25T09:17:21.999Z</time></trkpt><trkpt lat="44.493539205443774" lon="9.784987202839954"><ele>380.0</ele><time>2026-04-25T09:17:22.999Z</time></trkpt><trkpt lat="44.49372624825039" lon="9.785283274512024"><ele>382.5</ele><time>2026-04-25T09:17:23.999Z</time></trkpt><trkpt lat="44.493890790277035" lon="9.785597581858678"><ele>385.0</ele><time>2026-04-25T09:17:24.999Z</time></trkpt><trkpt lat="44.4940788598047" lon="9.78589634413299"><ele>383.5</ele><time>2026-04-25T09:17:25.999Z</time></trkpt><trkpt lat="44.49424618784615" lon="9.786225713171849"><ele>382.0</ele><time>2026-04-25T09:17:26.999Z</time></trkpt><trkpt lat="44.49438466570328" lon="9.786589062029483"><ele>381.0</ele><time>2026-04-25T09:17:27.999Z</time></trkpt><trkpt lat="44.49452039329909" lon="9.786958882470303"><ele>380.0</ele><time>2026-04-25T09:17:28.999Z</time></trkpt><trkpt lat="44.49463828290622" lon="9.787346401807667"><ele>380.5</ele><time>2026-04-25T09:17:29.999Z</time></trkpt><trkpt lat="44.494741480650916" lon="9.78774306189235"><ele>381.0</ele><time>2026-04-25T09:17:30.999Z</time></trkpt><trkpt lat="44.494842498819196" lon="9.788151332652243"><ele>382.0</ele><time>2026-04-25T09:17:31.999Z</time></trkpt><trkpt lat="44.494955484901034" lon="9.788564600021777"><ele>383.0</ele><time>2026-04-25T09:17:32.999Z</time></trkpt><trkpt lat="44.49505578337618" lon="9.788979219596243"><ele>381.5</ele><time>2026-04-25T09:17:33.999Z</time></trkpt><trkpt lat="44.49515508139176" lon="9.789386549810422"><ele>380.0</ele><time>2026-04-25T09:17:34.999Z</time></trkpt><trkpt lat="44.49525570756066" lon="9.789800047863636"><ele>381.0</ele><time>2026-04-25T09:17:35.999Z</time></trkpt><trkpt lat="44.49535306978635" lon="9.790206652255721"><ele>382.0</ele><time>2026-04-25T09:17:37Z</time></trkpt><trkpt lat="44.495460150610086" lon="9.790620850828072"><ele>382.5</ele><time>2026-04-25T09:17:38Z</time></trkpt><trkpt lat="44.49555586879317" lon="9.791019509016529"><ele>383.0</ele><time>2026-04-25T09:17:39Z</time></trkpt><trkpt lat="44.495657840023895" lon="9.791419396620881"><ele>383.0</ele><time>2026-04-25T09:17:40Z</time></trkpt><trkpt lat="44.49575577776017" lon="9.791819676569421"><ele>383.0</ele><time>2026-04-25T09:17:41Z</time></trkpt><trkpt lat="44.495851407749484" lon="9.792214433381087"><ele>382.5</ele><time>2026-04-25T09:17:42Z</time></trkpt><trkpt lat="44.49595258501188" lon="9.79261263584881"><ele>382.0</ele><time>2026-04-25T09:17:43Z</time></trkpt><trkpt lat="44.49604700075443" lon="9.793000773287694"><ele>380.5</ele><time>2026-04-25T09:17:44Z</time></trkpt><trkpt lat="44.49614753848648" lon="9.793399548036762"><ele>379.0</ele><time>2026-04-25T09:17:45Z</time></trkpt><trkpt lat="44.49624420782478" lon="9.793789244143118"><ele>382.5</ele><time>2026-04-25T09:17:46Z</time></trkpt><trkpt lat="44.49633716705318" lon="9.794178946665633"><ele>386.0</ele><time>2026-04-25T09:17:47Z</time></trkpt><trkpt lat="44.496433385229594" lon="9.794569648509787"><ele>386.0</ele><time>2026-04-25T09:17:48Z</time></trkpt><trkpt lat="44.49652417801471" lon="9.794950615679872"><ele>386.0</ele><time>2026-04-25T09:17:49Z</time></trkpt><trkpt lat="44.496612032155014" lon="9.795335844884207"><ele>383.5</ele><time>2026-04-25T09:17:50Z</time></trkpt><trkpt lat="44.49670728981812" lon="9.795712734433211"><ele>381.0</ele><time>2026-04-25T09:17:51Z</time></trkpt><trkpt lat="44.496802999614935" lon="9.79608688780203"><ele>380.5</ele><time>2026-04-25T09:17:52Z</time></trkpt><trkpt lat="44.49689467945605" lon="9.796459547246894"><ele>380.0</ele><time>2026-04-25T09:17:53Z</time></trkpt><trkpt lat="44.496986970720926" lon="9.796831672916355"><ele>379.0</ele><time>2026-04-25T09:17:54Z</time></trkpt><trkpt lat="44.4970769088913" lon="9.797202055058431"><ele>378.0</ele><time>2026-04-25T09:17:55Z</time></trkpt><trkpt lat="44.497171872698296" lon="9.797574776711055"><ele>379.0</ele><time>2026-04-25T09:17:56Z</time></trkpt><trkpt lat="44.49726410789955" lon="9.797949367532016"><ele>380.0</ele><time>2026-04-25T09:17:57Z</time></trkpt><trkpt lat="44.497363579809225" lon="9.79832130868525"><ele>380.0</ele><time>2026-04-25T09:17:58Z</time></trkpt><trkpt lat="44.49746838505644" lon="9.798680611164095"><ele>380.0</ele><time>2026-04-25T09:17:59Z</time></trkpt><trkpt lat="44.49758743367931" lon="9.799042848293459"><ele>378.0</ele><time>2026-04-25T09:18:00Z</time></trkpt><trkpt lat="44.497725745947946" lon="9.79938645401064"><ele>376.0</ele><time>2026-04-25T09:18:01Z</time></trkpt><trkpt lat="44.497876097206785" lon="9.79972343393959"><ele>378.5</ele><time>2026-04-25T09:18:02Z</time></trkpt><trkpt lat="44.49803294033359" lon="9.800048069647895"><ele>381.0</ele><time>2026-04-25T09:18:03Z</time></trkpt><trkpt lat="44.498190267130575" lon="9.80037739225892"><ele>381.0</ele><time>2026-04-25T09:18:04Z</time></trkpt><trkpt lat="44.49833645750239" lon="9.80071820462864"><ele>381.0</ele><time>2026-04-25T09:18:05Z</time></trkpt><trkpt lat="44.49848769585857" lon="9.801050538265143"><ele>378.5</ele><time>2026-04-25T09:18:06Z</time></trkpt><trkpt lat="44.49863131436423" lon="9.801380685637483"><ele>376.0</ele><time>2026-04-25T09:18:07Z</time></trkpt><trkpt lat="44.49878608963977" lon="9.80171388789344"><ele>379.0</ele><time>2026-04-25T09:18:08Z</time></trkpt><trkpt lat="44.49892932588152" lon="9.802053318854494"><ele>382.0</ele><time>2026-04-25T09:18:09Z</time></trkpt><trkpt lat="44.49907043060809" lon="9.802385655072559"><ele>379.5</ele><time>2026-04-25T09:18:10Z</time></trkpt><trkpt lat="44.49921227025124" lon="9.80271805605076"><ele>377.0</ele><time>2026-04-25T09:18:11Z</time></trkpt><trkpt lat="44.49935900601017" lon="9.803041198854732"><ele>377.0</ele><time>2026-04-25T09:18:12Z</time></trkpt><trkpt lat="44.49948312451503" lon="9.8033819758559"><ele>377.0</ele><time>2026-04-25T09:18:13Z</time></trkpt><trkpt lat="44.49959217557241" lon="9.803729661537645"><ele>381.5</ele><time>2026-04-25T09:18:14Z</time></trkpt><trkpt lat="44.49968340242593" lon="9.80408219113427"><ele>386.0</ele><time>2026-04-25T09:18:15Z</time></trkpt><trkpt lat="44.499770489098935" lon="9.804458124265315"><ele>386.0</ele><time>2026-04-25T09:18:16Z</time></trkpt><trkpt lat="44.499843563446746" lon="9.804832770021836"><ele>386.0</ele><time>2026-04-25T09:18:17Z</time></trkpt><trkpt lat="44.49992170586399" lon="9.805202170454864"><ele>381.0</ele><time>2026-04-25T09:18:18Z</time></trkpt><trkpt lat="44.500013923846495" lon="9.805581483317752"><ele>376.0</ele><time>2026-04-25T09:18:19Z</time></trkpt><trkpt lat="44.50009876565825" lon="9.805952487328906"><ele>373.0</ele><time>2026-04-25T09:18:20Z</time></trkpt><trkpt lat="44.500188015948524" lon="9.80634837206598"><ele>370.0</ele><time>2026-04-25T09:18:21Z</time></trkpt><trkpt lat="44.50027537110714" lon="9.806737510252903"><ele>369.5</ele><time>2026-04-25T09:18:22Z</time></trkpt><trkpt lat="44.50037556237655" lon="9.807125458890411"><ele>369.0</ele><time>2026-04-25T09:18:23Z</time></trkpt><trkpt lat="44.500467140618355" lon="9.807528363859848"><ele>372.0</ele><time>2026-04-25T09:18:24Z</time></trkpt><trkpt lat="44.50056850251052" lon="9.8079217284654"><ele>375.0</ele><time>2026-04-25T09:18:25Z</time></trkpt><trkpt lat="44.50066260711474" lon="9.808322151776382"><ele>374.5</ele><time>2026-04-25T09:18:26Z</time></trkpt><trkpt lat="44.50075082181583" lon="9.808724730393893"><ele>374.0</ele><time>2026-04-25T09:18:27Z</time></trkpt><trkpt lat="44.50083533310482" lon="9.809135868380707"><ele>372.5</ele><time>2026-04-25T09:18:28Z</time></trkpt><trkpt lat="44.50090727675214" lon="9.809542428144656"><ele>371.0</ele><time>2026-04-25T09:18:29Z</time></trkpt><trkpt lat="44.50096657904632" lon="9.809950783309317"><ele>371.0</ele><time>2026-04-25T09:18:30Z</time></trkpt><trkpt lat="44.50101392444527" lon="9.810367836060845"><ele>371.0</ele><time>2026-04-25T09:18:31Z</time></trkpt><trkpt lat="44.50105947505772" lon="9.810776884599488"><ele>370.0</ele><time>2026-04-25T09:18:32Z</time></trkpt><trkpt lat="44.50109883924109" lon="9.8111872869959"><ele>369.0</ele><time>2026-04-25T09:18:33Z</time></trkpt><trkpt lat="44.501129281674764" lon="9.811601133631372"><ele>368.0</ele><time>2026-04-25T09:18:34Z</time></trkpt><trkpt lat="44.50115933111191" lon="9.812015732395281"><ele>367.0</ele><time>2026-04-25T09:18:35Z</time></trkpt><trkpt lat="44.501189601718394" lon="9.812421702029729"><ele>366.5</ele><time>2026-04-25T09:18:36Z</time></trkpt><trkpt lat="44.50122646622803" lon="9.812828810463975"><ele>366.0</ele><time>2026-04-25T09:18:37Z</time></trkpt><trkpt lat="44.50125613585758" lon="9.813243480981795"><ele>370.0</ele><time>2026-04-25T09:18:38Z</time></trkpt><trkpt lat="44.50128917046823" lon="9.81365927922896"><ele>374.0</ele><time>2026-04-25T09:18:39Z</time></trkpt><trkpt lat="44.501327254585064" lon="9.81407415872798"><ele>374.0</ele><time>2026-04-25T09:18:40Z</time></trkpt><trkpt lat="44.501364064244854" lon="9.814484916759906"><ele>374.0</ele><time>2026-04-25T09:18:41Z</time></trkpt><trkpt lat="44.50140499737823" lon="9.814895967025825"><ele>373.5</ele><time>2026-04-25T09:18:42Z</time></trkpt><trkpt lat="44.50143798438194" lon="9.815309934822773"><ele>373.0</ele><time>2026-04-25T09:18:43Z</time></trkpt><trkpt lat="44.50146786082775" lon="9.815723825107598"><ele>371.0</ele><time>2026-04-25T09:18:44Z</time></trkpt><trkpt lat="44.501500062500654" lon="9.816131645257649"><ele>369.0</ele><time>2026-04-25T09:18:45Z</time></trkpt><trkpt lat="44.50154109317454" lon="9.81653914069257"><ele>366.5</ele><time>2026-04-25T09:18:46Z</time></trkpt><trkpt lat="44.50160055374583" lon="9.816940621239848"><ele>364.0</ele><time>2026-04-25T09:18:46.999Z</time></trkpt><trkpt lat="44.501677819066714" lon="9.81734501704172"><ele>364.0</ele><time>2026-04-25T09:18:47.999Z</time></trkpt><trkpt lat="44.5017741507276" lon="9.817733815491247"><ele>364.0</ele><time>2026-04-25T09:18:48.999Z</time></trkpt><trkpt lat="44.50188660947596" lon="9.818128795668475"><ele>364.0</ele><time>2026-04-25T09:18:49.999Z</time></trkpt><trkpt lat="44.502011210211705" lon="9.818495006871386"><ele>364.0</ele><time>2026-04-25T09:18:50.999Z</time></trkpt><trkpt lat="44.502151010790136" lon="9.818860833164884"><ele>363.0</ele><time>2026-04-25T09:18:51.999Z</time></trkpt><trkpt lat="44.502302473037574" lon="9.819222451684364"><ele>362.0</ele><time>2026-04-25T09:18:52.999Z</time></trkpt><trkpt lat="44.50247027377047" lon="9.819576211294212"><ele>362.0</ele><time>2026-04-25T09:18:53.999Z</time></trkpt><trkpt lat="44.50265214267695" lon="9.819912524981108"><ele>362.0</ele><time>2026-04-25T09:18:54.999Z</time></trkpt><trkpt lat="44.50284884501846" lon="9.820231300351308"><ele>362.0</ele><time>2026-04-25T09:18:55.999Z</time></trkpt><trkpt lat="44.503059528429446" lon="9.820536942485736"><ele>362.0</ele><time>2026-04-25T09:18:56.999Z</time></trkpt><trkpt lat="44.50327462888093" lon="9.820822232864774"><ele>362.0</ele><time>2026-04-25T09:18:57.999Z</time></trkpt><trkpt lat="44.503504287084716" lon="9.821089677444"><ele>362.0</ele><time>2026-04-25T09:18:58.999Z</time></trkpt><trkpt lat="44.503748525008795" lon="9.821342124177603"><ele>361.5</ele><time>2026-04-25T09:18:59.999Z</time></trkpt><trkpt lat="44.503994999563155" lon="9.82157407870604"><ele>361.0</ele><time>2026-04-25T09:19:00.999Z</time></trkpt><trkpt lat="44.504256470680886" lon="9.82179228394279"><ele>361.0</ele><time>2026-04-25T09:19:01.999Z</time></trkpt><trkpt lat="44.50452129495736" lon="9.821984894599474"><ele>361.0</ele><time>2026-04-25T09:19:02.999Z</time></trkpt><trkpt lat="44.50479055656296" lon="9.822168170395779"><ele>360.5</ele><time>2026-04-25T09:19:03.999Z</time></trkpt><trkpt lat="44.50506205565937" lon="9.822347922444125"><ele>360.0</ele><time>2026-04-25T09:19:04.999Z</time></trkpt><trkpt lat="44.50533119679719" lon="9.82253354984535"><ele>359.5</ele><time>2026-04-25T09:19:05.999Z</time></trkpt><trkpt lat="44.505600387528254" lon="9.822725141104357"><ele>359.0</ele><time>2026-04-25T09:19:06.999Z</time></trkpt><trkpt lat="44.50585662087772" lon="9.822911876554317"><ele>359.0</ele><time>2026-04-25T09:19:07.999Z</time></trkpt><trkpt lat="44.50611516495962" lon="9.823098181299134"><ele>359.0</ele><time>2026-04-25T09:19:08.999Z</time></trkpt><trkpt lat="44.50638194756417" lon="9.823283197782633"><ele>361.0</ele><time>2026-04-25T09:19:09.999Z</time></trkpt><trkpt lat="44.506650586941646" lon="9.823463444804904"><ele>363.0</ele><time>2026-04-25T09:19:10.999Z</time></trkpt><trkpt lat="44.506913157095134" lon="9.82364291909077"><ele>363.5</ele><time>2026-04-25T09:19:11.999Z</time></trkpt><trkpt lat="44.5071714531767" lon="9.823826630134898"><ele>364.0</ele><time>2026-04-25T09:19:12.999Z</time></trkpt><trkpt lat="44.50742937442336" lon="9.824004413141564"><ele>364.0</ele><time>2026-04-25T09:19:13.999Z</time></trkpt><trkpt lat="44.507683050597905" lon="9.824180022268074"><ele>364.0</ele><time>2026-04-25T09:19:14.999Z</time></trkpt><trkpt lat="44.50794031332465" lon="9.824352919963358"><ele>362.5</ele><time>2026-04-25T09:19:15.999Z</time></trkpt><trkpt lat="44.50818666322833" lon="9.82455055408728"><ele>361.0</ele><time>2026-04-25T09:19:16.999Z</time></trkpt><trkpt lat="44.50843672869857" lon="9.82469970951344"><ele>361.0</ele><time>2026-04-25T09:19:17.999Z</time></trkpt><trkpt lat="44.508682479034555" lon="9.824877886886844"><ele>361.0</ele><time>2026-04-25T09:19:18.999Z</time></trkpt><trkpt lat="44.50892439053426" lon="9.825058424180414"><ele>359.5</ele><time>2026-04-25T09:19:19.999Z</time></trkpt><trkpt lat="44.50915524386722" lon="9.82524071690666"><ele>358.0</ele><time>2026-04-25T09:19:20.999Z</time></trkpt><trkpt lat="44.50936953672115" lon="9.825450305075798"><ele>358.0</ele><time>2026-04-25T09:19:21.999Z</time></trkpt><trkpt lat="44.50957082249219" lon="9.825679139105581"><ele>358.0</ele><time>2026-04-25T09:19:22.999Z</time></trkpt><trkpt lat="44.50975433147479" lon="9.825932716024253"><ele>358.0</ele><time>2026-04-25T09:19:23.999Z</time></trkpt><trkpt lat="44.509916868718655" lon="9.826207646761464"><ele>358.0</ele><time>2026-04-25T09:19:24.999Z</time></trkpt><trkpt lat="44.5100657569774" lon="9.826524878417432"><ele>358.0</ele><time>2026-04-25T09:19:25.999Z</time></trkpt><trkpt lat="44.51019458942146" lon="9.826863916395146"><ele>358.0</ele><time>2026-04-25T09:19:26.999Z</time></trkpt><trkpt lat="44.51029915233371" lon="9.827222630332633"><ele>358.0</ele><time>2026-04-25T09:19:27.999Z</time></trkpt><trkpt lat="44.5103713159781" lon="9.8275933524475"><ele>358.0</ele><time>2026-04-25T09:19:28.999Z</time></trkpt><trkpt lat="44.51042029339946" lon="9.827972866728441"><ele>366.0</ele><time>2026-04-25T09:19:29.999Z</time></trkpt><trkpt lat="44.51046121272557" lon="9.828362562415291"><ele>374.0</ele><time>2026-04-25T09:19:30.999Z</time></trkpt><trkpt lat="44.5105172790152" lon="9.828752034634778"><ele>374.0</ele><time>2026-04-25T09:19:31.999Z</time></trkpt><trkpt lat="44.51054889259739" lon="9.829126384158792"><ele>374.0</ele><time>2026-04-25T09:19:32.999Z</time></trkpt><trkpt lat="44.51058323655742" lon="9.82949835871041"><ele>373.0</ele><time>2026-04-25T09:19:33.999Z</time></trkpt><trkpt lat="44.51062003930504" lon="9.829871444076037"><ele>372.0</ele><time>2026-04-25T09:19:34.999Z</time></trkpt><trkpt lat="44.51065759836364" lon="9.830230467812024"><ele>371.0</ele><time>2026-04-25T09:19:35.999Z</time></trkpt><trkpt lat="44.510700021192115" lon="9.830595576628804"><ele>370.0</ele><time>2026-04-25T09:19:36.999Z</time></trkpt><trkpt lat="44.51073969327354" lon="9.830950404797774"><ele>367.0</ele><time>2026-04-25T09:19:37.999Z</time></trkpt><trkpt lat="44.51077573375034" lon="9.831290589374833"><ele>364.0</ele><time>2026-04-25T09:19:38.999Z</time></trkpt><trkpt lat="44.51081430067941" lon="9.831663735990706"><ele>360.5</ele><time>2026-04-25T09:19:39.999Z</time></trkpt><trkpt lat="44.51085375306138" lon="9.832034427058687"><ele>357.0</ele><time>2026-04-25T09:19:40.999Z</time></trkpt><trkpt lat="44.510894695264476" lon="9.832409759953862"><ele>354.5</ele><time>2026-04-25T09:19:41.999Z</time></trkpt><trkpt lat="44.51093569687347" lon="9.832798826245137"><ele>352.0</ele><time>2026-04-25T09:19:43Z</time></trkpt><trkpt lat="44.510977637149196" lon="9.833190629131941"><ele>351.5</ele><time>2026-04-25T09:19:44Z</time></trkpt><trkpt lat="44.51102085830599" lon="9.833582747865938"><ele>351.0</ele><time>2026-04-25T09:19:45Z</time></trkpt><trkpt lat="44.51106497602007" lon="9.833967952545747"><ele>350.5</ele><time>2026-04-25T09:19:46Z</time></trkpt><trkpt lat="44.511114612951985" lon="9.834341867989641"><ele>350.0</ele><time>2026-04-25T09:19:47Z</time></trkpt><trkpt lat="44.51117746029085" lon="9.834715804277277"><ele>353.0</ele><time>2026-04-25T09:19:48Z</time></trkpt><trkpt lat="44.51126114430991" lon="9.835082541791708"><ele>356.0</ele><time>2026-04-25T09:19:49Z</time></trkpt><trkpt lat="44.51136107441821" lon="9.835435124361947"><ele>356.0</ele><time>2026-04-25T09:19:50Z</time></trkpt><trkpt lat="44.51147374465868" lon="9.835783857707263"><ele>356.0</ele><time>2026-04-25T09:19:51Z</time></trkpt><trkpt lat="44.51159555973612" lon="9.836131649331131"><ele>353.5</ele><time>2026-04-25T09:19:52Z</time></trkpt><trkpt lat="44.51172732551718" lon="9.83647052200888"><ele>351.0</ele><time>2026-04-25T09:19:53Z</time></trkpt><trkpt lat="44.51187209178116" lon="9.836795918756225"><ele>351.5</ele><time>2026-04-25T09:19:54Z</time></trkpt><trkpt lat="44.51203466833888" lon="9.837111103512452"><ele>352.0</ele><time>2026-04-25T09:19:55Z</time></trkpt><trkpt lat="44.51221287753178" lon="9.837413358458964"><ele>351.0</ele><time>2026-04-25T09:19:56Z</time></trkpt><trkpt lat="44.51239779383884" lon="9.837707536239515"><ele>350.0</ele><time>2026-04-25T09:19:57Z</time></trkpt><trkpt lat="44.51258055642377" lon="9.83799900612196"><ele>350.0</ele><time>2026-04-25T09:19:58Z</time></trkpt><trkpt lat="44.51275699683624" lon="9.838289453725121"><ele>350.0</ele><time>2026-04-25T09:19:59Z</time></trkpt><trkpt lat="44.5129358192592" lon="9.83858353504269"><ele>350.5</ele><time>2026-04-25T09:20:00Z</time></trkpt><trkpt lat="44.51312401372233" lon="9.83888827251696"><ele>351.0</ele><time>2026-04-25T09:20:01Z</time></trkpt><trkpt lat="44.513316011602264" lon="9.83915421286558"><ele>350.0</ele><time>2026-04-25T09:20:02Z</time></trkpt><trkpt lat="44.51354054461928" lon="9.839414432487485"><ele>349.0</ele><time>2026-04-25T09:20:03Z</time></trkpt><trkpt lat="44.51377179902936" lon="9.83964917824757"><ele>352.5</ele><time>2026-04-25T09:20:04Z</time></trkpt><trkpt lat="44.5140163435103" lon="9.839866397053521"><ele>356.0</ele><time>2026-04-25T09:20:05Z</time></trkpt><trkpt lat="44.51426797446918" lon="9.840073225903032"><ele>357.5</ele><time>2026-04-25T09:20:06Z</time></trkpt><trkpt lat="44.514515367539595" lon="9.840275004482356"><ele>359.0</ele><time>2026-04-25T09:20:07Z</time></trkpt><trkpt lat="44.514753538014915" lon="9.840497952258648"><ele>366.0</ele><time>2026-04-25T09:20:08Z</time></trkpt><trkpt lat="44.51499798760175" lon="9.84070634521905"><ele>373.0</ele><time>2026-04-25T09:20:09Z</time></trkpt><trkpt lat="44.515247666107236" lon="9.840921725368078"><ele>369.5</ele><time>2026-04-25T09:20:10.014Z</time></trkpt><trkpt lat="44.51549316378068" lon="9.84113428217728"><ele>366.0</ele><time>2026-04-25T09:20:11.015Z</time></trkpt><trkpt lat="44.515744584870966" lon="9.841351967653027"><ele>366.0</ele><time>2026-04-25T09:20:12.014Z</time></trkpt><trkpt lat="44.51599630653538" lon="9.841569913319999"><ele>366.0</ele><time>2026-04-25T09:20:13.016Z</time></trkpt><trkpt lat="44.51624822578692" lon="9.841788033404528"><ele>358.5</ele><time>2026-04-25T09:20:14.016Z</time></trkpt><trkpt lat="44.51649231671" lon="9.841999414824725"><ele>351.0</ele><time>2026-04-25T09:20:15Z</time></trkpt><trkpt lat="44.51671631794697" lon="9.842256335746576"><ele>351.0</ele><time>2026-04-25T09:20:16Z</time></trkpt><trkpt lat="44.51692533053542" lon="9.842487722248332"><ele>351.0</ele><time>2026-04-25T09:20:17Z</time></trkpt><trkpt lat="44.517122119932225" lon="9.842746227096216"><ele>349.5</ele><time>2026-04-25T09:20:18Z</time></trkpt><trkpt lat="44.517314254725996" lon="9.843029861151328"><ele>348.0</ele><time>2026-04-25T09:20:19Z</time></trkpt><trkpt lat="44.517515355289525" lon="9.843318915583485"><ele>348.0</ele><time>2026-04-25T09:20:20Z</time></trkpt><trkpt lat="44.51772867482243" lon="9.843597674583947"><ele>348.0</ele><time>2026-04-25T09:20:21Z</time></trkpt><trkpt lat="44.51794781607261" lon="9.843876240902562"><ele>346.5</ele><time>2026-04-25T09:20:22Z</time></trkpt><trkpt lat="44.51815451067811" lon="9.844166589660535"><ele>345.0</ele><time>2026-04-25T09:20:23Z</time></trkpt><trkpt lat="44.518362336926565" lon="9.844454878165857"><ele>349.0</ele><time>2026-04-25T09:20:24Z</time></trkpt><trkpt lat="44.5185782373327" lon="9.844730022343827"><ele>353.0</ele><time>2026-04-25T09:20:25Z</time></trkpt><trkpt lat="44.518798735414" lon="9.844989338296651"><ele>364.5</ele><time>2026-04-25T09:20:26Z</time></trkpt><trkpt lat="44.51902883573391" lon="9.845255260596204"><ele>376.0</ele><time>2026-04-25T09:20:27Z</time></trkpt><trkpt lat="44.519262273611446" lon="9.845522243281916"><ele>376.0</ele><time>2026-04-25T09:20:28Z</time></trkpt><trkpt lat="44.519499064187244" lon="9.845791633199337"><ele>376.0</ele><time>2026-04-25T09:20:29.015Z</time></trkpt><trkpt lat="44.51973117395449" lon="9.84605711104634"><ele>375.0</ele><time>2026-04-25T09:20:30.013Z</time></trkpt><trkpt lat="44.519966225178266" lon="9.846326665699342"><ele>374.0</ele><time>2026-04-25T09:20:31.015Z</time></trkpt><trkpt lat="44.52019822782158" lon="9.846590773111272"><ele>357.0</ele><time>2026-04-25T09:20:32.014Z</time></trkpt><trkpt lat="44.520428824593196" lon="9.846853430670999"><ele>340.0</ele><time>2026-04-25T09:20:33.011Z</time></trkpt><trkpt lat="44.52066513339621" lon="9.847119408773679"><ele>340.0</ele><time>2026-04-25T09:20:34Z</time></trkpt><trkpt lat="44.520762581785895" lon="9.847318426418356"><ele>340.0</ele><time>2026-04-25T09:20:35Z</time></trkpt><trkpt lat="44.520963786325666" lon="9.847540467391523"><ele>340.0</ele><time>2026-04-25T09:20:36Z</time></trkpt><trkpt lat="44.52116960186659" lon="9.847772163869022"><ele>337.5</ele><time>2026-04-25T09:20:37Z</time></trkpt><trkpt lat="44.52136931032059" lon="9.847991686078524"><ele>335.0</ele><time>2026-04-25T09:20:38Z</time></trkpt><trkpt lat="44.521558858606305" lon="9.848197946787279"><ele>335.0</ele><time>2026-04-25T09:20:39Z</time></trkpt><trkpt lat="44.52174290191105" lon="9.848399112200417"><ele>335.0</ele><time>2026-04-25T09:20:40Z</time></trkpt><trkpt lat="44.52191334065663" lon="9.848596235802768"><ele>338.0</ele><time>2026-04-25T09:20:41Z</time></trkpt><trkpt lat="44.52209661751206" lon="9.848802262236536"><ele>341.0</ele><time>2026-04-25T09:20:42Z</time></trkpt><trkpt lat="44.522292422022865" lon="9.84901267618025"><ele>341.0</ele><time>2026-04-25T09:20:43Z</time></trkpt><trkpt lat="44.52248547649066" lon="9.849251974051406"><ele>341.0</ele><time>2026-04-25T09:20:44Z</time></trkpt><trkpt lat="44.522679150500224" lon="9.849484993195027"><ele>339.5</ele><time>2026-04-25T09:20:45Z</time></trkpt><trkpt lat="44.52287009790926" lon="9.849722737970524"><ele>338.0</ele><time>2026-04-25T09:20:46Z</time></trkpt><trkpt lat="44.52305090413275" lon="9.849963956146487"><ele>338.5</ele><time>2026-04-25T09:20:47Z</time></trkpt><trkpt lat="44.523225223158256" lon="9.850221097219578"><ele>339.0</ele><time>2026-04-25T09:20:48Z</time></trkpt><trkpt lat="44.52339393183459" lon="9.850497223861444"><ele>339.0</ele><time>2026-04-25T09:20:49Z</time></trkpt><trkpt lat="44.523545615919765" lon="9.850783991342102"><ele>339.0</ele><time>2026-04-25T09:20:50Z</time></trkpt><trkpt lat="44.52366948487474" lon="9.851081061178693"><ele>343.5</ele><time>2026-04-25T09:20:51Z</time></trkpt><trkpt lat="44.52378799032204" lon="9.85136345508522"><ele>348.0</ele><time>2026-04-25T09:20:52Z</time></trkpt><trkpt lat="44.523907774659094" lon="9.851643499897705"><ele>345.5</ele><time>2026-04-25T09:20:53Z</time></trkpt><trkpt lat="44.524029021804886" lon="9.851923206148765"><ele>343.0</ele><time>2026-04-25T09:20:54Z</time></trkpt><trkpt lat="44.524029389295016" lon="9.852318722866146"><ele>342.66666666666663</ele><time>2026-04-25T09:20:54.999Z</time></trkpt><trkpt lat="44.52407721466733" lon="9.852638512277078"><ele>342.3333333333333</ele><time>2026-04-25T09:20:55.999Z</time></trkpt><trkpt lat="44.52411541513765" lon="9.852927828355357"><ele>342.0</ele><time>2026-04-25T09:20:56.999Z</time></trkpt><trkpt lat="44.52414591300742" lon="9.853185751374623"><ele>342.0</ele><time>2026-04-25T09:20:57.999Z</time></trkpt><trkpt lat="44.52416979409173" lon="9.853426353045185"><ele>342.0</ele><time>2026-04-25T09:20:58.999Z</time></trkpt><trkpt lat="44.524184065574545" lon="9.853669533152935"><ele>342.0</ele><time>2026-04-25T09:20:59.999Z</time></trkpt><trkpt lat="44.52420206631444" lon="9.853920715866352"><ele>341.3333333333333</ele><time>2026-04-25T09:21:00.999Z</time></trkpt><trkpt lat="44.52422572580782" lon="9.854178517600545"><ele>340.66666666666663</ele><time>2026-04-25T09:21:01.999Z</time></trkpt><trkpt lat="44.52424921734151" lon="9.854440981741655"><ele>340.0</ele><time>2026-04-25T09:21:02.999Z</time></trkpt><trkpt lat="44.524270856260166" lon="9.854698223572475"><ele>339.66666666666663</ele><time>2026-04-25T09:21:03.999Z</time></trkpt><trkpt lat="44.524290874245985" lon="9.854956765192489"><ele>339.3333333333333</ele><time>2026-04-25T09:21:04.999Z</time></trkpt><trkpt lat="44.52431457947687" lon="9.855229902118483"><ele>339.0</ele><time>2026-04-25T09:21:05.999Z</time></trkpt><trkpt lat="44.52434107074252" lon="9.855508330115692"><ele>338.6666666666667</ele><time>2026-04-25T09:21:06.999Z</time></trkpt><trkpt lat="44.52436879670269" lon="9.855797460478687"><ele>338.33333333333337</ele><time>2026-04-25T09:21:07.999Z</time></trkpt><trkpt lat="44.52440048787541" lon="9.85609459969701"><ele>338.0</ele><time>2026-04-25T09:21:08.999Z</time></trkpt><trkpt lat="44.52443609905065" lon="9.856394013298186"><ele>340.0</ele><time>2026-04-25T09:21:09.999Z</time></trkpt><trkpt lat="44.524485056606274" lon="9.856721805405307"><ele>342.0</ele><time>2026-04-25T09:21:10.999Z</time></trkpt><trkpt lat="44.52455014310227" lon="9.857050738589498"><ele>367.5</ele><time>2026-04-25T09:21:11.999Z</time></trkpt><trkpt lat="44.52462382603224" lon="9.857368722876343"><ele>393.0</ele><time>2026-04-25T09:21:12.999Z</time></trkpt><trkpt lat="44.52471733932196" lon="9.857696652684952"><ele>407.5</ele><time>2026-04-25T09:21:13.999Z</time></trkpt><trkpt lat="44.52481579627923" lon="9.858028814064967"><ele>422.0</ele><time>2026-04-25T09:21:15.016Z</time></trkpt><trkpt lat="44.52490780327734" lon="9.858354100429993"><ele>426.0</ele><time>2026-04-25T09:21:16.016Z</time></trkpt><trkpt lat="44.52500049409908" lon="9.858676999917039"><ele>430.0</ele><time>2026-04-25T09:21:17.015Z</time></trkpt><trkpt lat="44.52510229045772" lon="9.858999127177249"><ele>425.0</ele><time>2026-04-25T09:21:18.015Z</time></trkpt><trkpt lat="44.52520514434322" lon="9.85931824607614"><ele>420.0</ele><time>2026-04-25T09:21:19.012Z</time></trkpt><trkpt lat="44.52612742785786" lon="9.861795483166222"><ele>372.0</ele><time>2026-04-25T09:21:24.999Z</time></trkpt><trkpt lat="44.526264653430786" lon="9.86217082190025"><ele>324.0</ele><time>2026-04-25T09:21:25.999Z</time></trkpt><trkpt lat="44.5264226942543" lon="9.862520767490258"><ele>327.0</ele><time>2026-04-25T09:21:26.999Z</time></trkpt><trkpt lat="44.526541327162" lon="9.862836267790819"><ele>330.0</ele><time>2026-04-25T09:21:27.999Z</time></trkpt><trkpt lat="44.52665300432327" lon="9.86313587062907"><ele>330.0</ele><time>2026-04-25T09:21:28.999Z</time></trkpt><trkpt lat="44.5267731886911" lon="9.863439288179713"><ele>330.0</ele><time>2026-04-25T09:21:29.999Z</time></trkpt><trkpt lat="44.5269223914032" lon="9.86374958754952"><ele>333.0</ele><time>2026-04-25T09:21:30.999Z</time></trkpt><trkpt lat="44.527063627560814" lon="9.864047756441632"><ele>336.0</ele><time>2026-04-25T09:21:31.999Z</time></trkpt><trkpt lat="44.52722192785698" lon="9.864346123808996"><ele>344.0</ele><time>2026-04-25T09:21:32.999Z</time></trkpt><trkpt lat="44.527388004575286" lon="9.864627703453785"><ele>352.0</ele><time>2026-04-25T09:21:33.999Z</time></trkpt><trkpt lat="44.527559492046215" lon="9.864910221154606"><ele>360.0</ele><time>2026-04-25T09:21:34.999Z</time></trkpt><trkpt lat="44.527732979909686" lon="9.865197866280354"><ele>368.0</ele><time>2026-04-25T09:21:35.999Z</time></trkpt><trkpt lat="44.52790427938729" lon="9.865492158634131"><ele>370.0</ele><time>2026-04-25T09:21:37.011Z</time></trkpt><trkpt lat="44.528074344965056" lon="9.865783908561532"><ele>372.0</ele><time>2026-04-25T09:21:38.013Z</time></trkpt><trkpt lat="44.5282472497358" lon="9.866072634995719"><ele>378.0</ele><time>2026-04-25T09:21:39.012Z</time></trkpt><trkpt lat="44.528440457960315" lon="9.86633332063557"><ele>384.0</ele><time>2026-04-25T09:21:40.015Z</time></trkpt><trkpt lat="44.529862110544485" lon="9.86864458770479"><ele>369.3333333333333</ele><time>2026-04-25T09:21:49.999Z</time></trkpt><trkpt lat="44.52995958946399" lon="9.86886574388471"><ele>354.66666666666663</ele><time>2026-04-25T09:21:50.999Z</time></trkpt><trkpt lat="44.53008205386204" lon="9.86904436485724"><ele>340.0</ele><time>2026-04-25T09:21:51.999Z</time></trkpt><trkpt lat="44.5301750944199" lon="9.869277593763334"><ele>340.0</ele><time>2026-04-25T09:21:52.999Z</time></trkpt><trkpt lat="44.53026677013554" lon="9.869538869087483"><ele>340.0</ele><time>2026-04-25T09:21:53.999Z</time></trkpt><trkpt lat="44.53037559278301" lon="9.869800146158878"><ele>340.0</ele><time>2026-04-25T09:21:54.999Z</time></trkpt><trkpt lat="44.530482945160294" lon="9.870074293626766"><ele>335.3333333333333</ele><time>2026-04-25T09:21:56Z</time></trkpt><trkpt lat="44.53057914197126" lon="9.870327533764655"><ele>330.6666666666667</ele><time>2026-04-25T09:21:57Z</time></trkpt><trkpt lat="44.53067484247609" lon="9.870575597331209"><ele>326.0</ele><time>2026-04-25T09:21:58Z</time></trkpt><trkpt lat="44.53076628697032" lon="9.870831347694335"><ele>327.33333333333337</ele><time>2026-04-25T09:21:59Z</time></trkpt><trkpt lat="44.53086235214706" lon="9.871090520125314"><ele>328.6666666666667</ele><time>2026-04-25T09:22:00Z</time></trkpt><trkpt lat="44.530958168189976" lon="9.87135203542856"><ele>330.0</ele><time>2026-04-25T09:22:01Z</time></trkpt><trkpt lat="44.531054476942494" lon="9.871617591294717"><ele>331.6666666666667</ele><time>2026-04-25T09:22:02Z</time></trkpt><trkpt lat="44.53115137276353" lon="9.871889647629645"><ele>333.33333333333337</ele><time>2026-04-25T09:22:03Z</time></trkpt><trkpt lat="44.531250976221266" lon="9.872166226757809"><ele>335.0</ele><time>2026-04-25T09:22:04Z</time></trkpt><trkpt lat="44.531355090187574" lon="9.87244621919656"><ele>331.6666666666667</ele><time>2026-04-25T09:22:05Z</time></trkpt><trkpt lat="44.53145669276016" lon="9.872720288126205"><ele>328.3333333333333</ele><time>2026-04-25T09:22:06Z</time></trkpt><trkpt lat="44.53155579435648" lon="9.87299260016652"><ele>325.0</ele><time>2026-04-25T09:22:07Z</time></trkpt><trkpt lat="44.53166000922257" lon="9.873266924594656"><ele>327.3333333333333</ele><time>2026-04-25T09:22:08Z</time></trkpt><trkpt lat="44.53177604880037" lon="9.873540470888694"><ele>329.6666666666667</ele><time>2026-04-25T09:22:09Z</time></trkpt><trkpt lat="44.531893951924616" lon="9.873796699026286"><ele>332.0</ele><time>2026-04-25T09:22:10Z</time></trkpt><trkpt lat="44.53200731536821" lon="9.874019618445164"><ele>329.33333333333337</ele><time>2026-04-25T09:22:11Z</time></trkpt><trkpt lat="44.53212620804047" lon="9.874252923016689"><ele>326.6666666666667</ele><time>2026-04-25T09:22:12Z</time></trkpt><trkpt lat="44.532247382162005" lon="9.874481908100538"><ele>324.0</ele><time>2026-04-25T09:22:13Z</time></trkpt><trkpt lat="44.5323716705876" lon="9.874706014890695"><ele>324.0</ele><time>2026-04-25T09:22:14Z</time></trkpt><trkpt lat="44.53249359170595" lon="9.874907415496127"><ele>324.0</ele><time>2026-04-25T09:22:15Z</time></trkpt><trkpt lat="44.53260498276848" lon="9.875110956686429"><ele>324.0</ele><time>2026-04-25T09:22:16Z</time></trkpt><trkpt lat="44.53270538714044" lon="9.875321091955703"><ele>324.3333333333333</ele><time>2026-04-25T09:22:17Z</time></trkpt><trkpt lat="44.532797878221615" lon="9.875541879796984"><ele>324.66666666666663</ele><time>2026-04-25T09:22:18Z</time></trkpt><trkpt lat="44.5328763483709" lon="9.87576810711829"><ele>325.0</ele><time>2026-04-25T09:22:19Z</time></trkpt><trkpt lat="44.5329521742788" lon="9.87600210015532"><ele>325.0</ele><time>2026-04-25T09:22:20Z</time></trkpt><trkpt lat="44.5330227844076" lon="9.876235259248649"><ele>325.0</ele><time>2026-04-25T09:22:21Z</time></trkpt><trkpt lat="44.53308843501293" lon="9.876472637295988"><ele>325.0</ele><time>2026-04-25T09:22:22Z</time></trkpt><trkpt lat="44.53315511058701" lon="9.876718877340732"><ele>328.0</ele><time>2026-04-25T09:22:23Z</time></trkpt><trkpt lat="44.53323267416771" lon="9.876956691366859"><ele>331.0</ele><time>2026-04-25T09:22:24Z</time></trkpt><trkpt lat="44.53331580666804" lon="9.877193888700367"><ele>334.0</ele><time>2026-04-25T09:22:25Z</time></trkpt><trkpt lat="44.5333988984427" lon="9.877450123420987"><ele>337.66666666666663</ele><time>2026-04-25T09:22:26Z</time></trkpt><trkpt lat="44.533479363912036" lon="9.877709501784166"><ele>341.3333333333333</ele><time>2026-04-25T09:22:27Z</time></trkpt><trkpt lat="44.53355524413577" lon="9.877962148205931"><ele>345.0</ele><time>2026-04-25T09:22:28Z</time></trkpt><trkpt lat="44.533646504609294" lon="9.878203283567485"><ele>343.6666666666667</ele><time>2026-04-25T09:22:29Z</time></trkpt><trkpt lat="44.53375301295987" lon="9.87840395798562"><ele>342.33333333333337</ele><time>2026-04-25T09:22:30Z</time></trkpt><trkpt lat="44.533876033506" lon="9.878587579345464"><ele>341.0</ele><time>2026-04-25T09:22:31Z</time></trkpt><trkpt lat="44.534010795522036" lon="9.87877368284751"><ele>341.0</ele><time>2026-04-25T09:22:32Z</time></trkpt><trkpt lat="44.53416297480172" lon="9.878960134424306"><ele>341.0</ele><time>2026-04-25T09:22:33Z</time></trkpt><trkpt lat="44.534324311084504" lon="9.87913062184321"><ele>341.0</ele><time>2026-04-25T09:22:34Z</time></trkpt><trkpt lat="44.53448388630944" lon="9.879302649424115"><ele>338.33333333333337</ele><time>2026-04-25T09:22:35Z</time></trkpt><trkpt lat="44.53464871891493" lon="9.879475029657314"><ele>335.6666666666667</ele><time>2026-04-25T09:22:36Z</time></trkpt><trkpt lat="44.534813144563394" lon="9.879630529484745"><ele>333.0</ele><time>2026-04-25T09:22:37Z</time></trkpt><trkpt lat="44.53495313850447" lon="9.879839999024133"><ele>333.0</ele><time>2026-04-25T09:22:38Z</time></trkpt><trkpt lat="44.53510334479657" lon="9.880042891333353"><ele>333.0</ele><time>2026-04-25T09:22:39Z</time></trkpt><trkpt lat="44.535264005499165" lon="9.88026428597157"><ele>333.0</ele><time>2026-04-25T09:22:40Z</time></trkpt><trkpt lat="44.535443192216164" lon="9.880511891586606"><ele>338.0</ele><time>2026-04-25T09:22:41Z</time></trkpt><trkpt lat="44.53562496600478" lon="9.880765061840792"><ele>343.0</ele><time>2026-04-25T09:22:42Z</time></trkpt><trkpt lat="44.53580988800965" lon="9.880999100655954"><ele>343.0</ele><time>2026-04-25T09:22:43Z</time></trkpt><trkpt lat="44.53596674579812" lon="9.881237744505206"><ele>343.0</ele><time>2026-04-25T09:22:44Z</time></trkpt><trkpt lat="44.53613132421006" lon="9.881456354164023"><ele>334.3333333333333</ele><time>2026-04-25T09:22:45Z</time></trkpt><trkpt lat="44.536279836563466" lon="9.881684493280405"><ele>325.6666666666667</ele><time>2026-04-25T09:22:46Z</time></trkpt><trkpt lat="44.53642372105425" lon="9.881924764408648"><ele>317.0</ele><time>2026-04-25T09:22:47Z</time></trkpt><trkpt lat="44.53652702358383" lon="9.882190544960231"><ele>317.0</ele><time>2026-04-25T09:22:48Z</time></trkpt><trkpt lat="44.53658526008349" lon="9.88248836710702"><ele>317.0</ele><time>2026-04-25T09:22:49Z</time></trkpt><trkpt lat="44.536614078174594" lon="9.882799248960982"><ele>317.0</ele><time>2026-04-25T09:22:50Z</time></trkpt><trkpt lat="44.536580755052654" lon="9.883087464861976"><ele>318.0</ele><time>2026-04-25T09:22:51Z</time></trkpt><trkpt lat="44.53652030015162" lon="9.883355949185841"><ele>319.0</ele><time>2026-04-25T09:22:52Z</time></trkpt><trkpt lat="44.5364617684747" lon="9.883620597970953"><ele>320.0</ele><time>2026-04-25T09:22:53Z</time></trkpt><trkpt lat="44.536379985005524" lon="9.883862958148342"><ele>317.6666666666667</ele><time>2026-04-25T09:22:54Z</time></trkpt><trkpt lat="44.53630098039813" lon="9.884099219340813"><ele>315.3333333333333</ele><time>2026-04-25T09:22:55Z</time></trkpt><trkpt lat="44.53622237563509" lon="9.884337703508296"><ele>313.0</ele><time>2026-04-25T09:22:56Z</time></trkpt><trkpt lat="44.536139829704254" lon="9.884573449667911"><ele>320.0</ele><time>2026-04-25T09:22:57Z</time></trkpt><trkpt lat="44.53608294394893" lon="9.884782184049417"><ele>327.0</ele><time>2026-04-25T09:22:58Z</time></trkpt><trkpt lat="44.53608982180507" lon="9.884921361885626"><ele>334.0</ele><time>2026-04-25T09:22:59Z</time></trkpt><trkpt lat="44.53614035863531" lon="9.885355040833838"><ele>334.0</ele><time>2026-04-25T09:23:00Z</time></trkpt><trkpt lat="44.53616355577224" lon="9.885602046973704"><ele>334.0</ele><time>2026-04-25T09:23:01Z</time></trkpt><trkpt lat="44.53622097178234" lon="9.885839844260177"><ele>334.0</ele><time>2026-04-25T09:23:02Z</time></trkpt><trkpt lat="44.53631233485883" lon="9.886059136331326"><ele>329.66666666666663</ele><time>2026-04-25T09:23:03Z</time></trkpt><trkpt lat="44.536399102811544" lon="9.886277103725465"><ele>325.3333333333333</ele><time>2026-04-25T09:23:04Z</time></trkpt><trkpt lat="44.53647920035958" lon="9.88648278807373"><ele>321.0</ele><time>2026-04-25T09:23:05Z</time></trkpt><trkpt lat="44.536565312655405" lon="9.886678365225876"><ele>321.0</ele><time>2026-04-25T09:23:05.999Z</time></trkpt><trkpt lat="44.53689041843554" lon="9.886696709050716"><ele>321.0</ele><time>2026-04-25T09:23:06.999Z</time></trkpt><trkpt lat="44.53708755181984" lon="9.886833175097884"><ele>323.5</ele><time>2026-04-25T09:23:07.999Z</time></trkpt><trkpt lat="44.53729926344147" lon="9.886980971815301"><ele>326.0</ele><time>2026-04-25T09:23:08.999Z</time></trkpt><trkpt lat="44.53749936839148" lon="9.887127033687849"><ele>326.0</ele><time>2026-04-25T09:23:09.999Z</time></trkpt><trkpt lat="44.53768552609636" lon="9.887260822810232"><ele>326.0</ele><time>2026-04-25T09:23:10.999Z</time></trkpt><trkpt lat="44.537868173289205" lon="9.887396268163851"><ele>326.0</ele><time>2026-04-25T09:23:11.999Z</time></trkpt><trkpt lat="44.53805760747665" lon="9.887526592107022"><ele>327.0</ele><time>2026-04-25T09:23:12.999Z</time></trkpt><trkpt lat="44.53825168302886" lon="9.887665964879782"><ele>328.0</ele><time>2026-04-25T09:23:13.999Z</time></trkpt><trkpt lat="44.5384359142006" lon="9.88780330375846"><ele>329.0</ele><time>2026-04-25T09:23:14.999Z</time></trkpt><trkpt lat="44.53861293123516" lon="9.8879481151489"><ele>325.6666666666667</ele><time>2026-04-25T09:23:15.999Z</time></trkpt><trkpt lat="44.5387603238173" lon="9.888120889371379"><ele>322.3333333333333</ele><time>2026-04-25T09:23:16.999Z</time></trkpt><trkpt lat="44.53889538897791" lon="9.888350579239006"><ele>319.0</ele><time>2026-04-25T09:23:17.999Z</time></trkpt><trkpt lat="44.538999061551365" lon="9.888625823893195"><ele>319.0</ele><time>2026-04-25T09:23:18.999Z</time></trkpt><trkpt lat="44.539088503858416" lon="9.888940999550913"><ele>319.0</ele><time>2026-04-25T09:23:19.999Z</time></trkpt><trkpt lat="44.53916897281663" lon="9.889257395151498"><ele>321.0</ele><time>2026-04-25T09:23:20.999Z</time></trkpt><trkpt lat="44.539263738461756" lon="9.889592856460183"><ele>323.0</ele><time>2026-04-25T09:23:21.999Z</time></trkpt><trkpt lat="44.53938298612614" lon="9.889962568049231"><ele>325.0</ele><time>2026-04-25T09:23:22.999Z</time></trkpt><trkpt lat="44.539508644481366" lon="9.890341239859142"><ele>327.0</ele><time>2026-04-25T09:23:23.999Z</time></trkpt><trkpt lat="44.539650820229795" lon="9.890753976957596"><ele>320.5</ele><time>2026-04-25T09:23:24.999Z</time></trkpt><trkpt lat="44.53979863957028" lon="9.891177356413861"><ele>314.0</ele><time>2026-04-25T09:23:25.999Z</time></trkpt><trkpt lat="44.53991409206338" lon="9.891510772504935"><ele>314.0</ele><time>2026-04-25T09:23:26.999Z</time></trkpt><trkpt lat="44.54000720736626" lon="9.891786708723945"><ele>314.0</ele><time>2026-04-25T09:23:27.999Z</time></trkpt><trkpt lat="44.54005099243845" lon="9.892065279949831"><ele>314.0</ele><time>2026-04-25T09:23:28.999Z</time></trkpt><trkpt lat="44.540062541333924" lon="9.892404471148083"><ele>312.5</ele><time>2026-04-25T09:23:29.999Z</time></trkpt><trkpt lat="44.54001154371314" lon="9.892748984941425"><ele>311.0</ele><time>2026-04-25T09:23:30.999Z</time></trkpt><trkpt lat="44.53991546408336" lon="9.893146362800572"><ele>309.0</ele><time>2026-04-25T09:23:31.999Z</time></trkpt><trkpt lat="44.53984413929498" lon="9.893565673862994"><ele>307.0</ele><time>2026-04-25T09:23:32.999Z</time></trkpt><trkpt lat="44.5397790760069" lon="9.893991972831298"><ele>305.5</ele><time>2026-04-25T09:23:33.999Z</time></trkpt><trkpt lat="44.53971008023987" lon="9.894402434513477"><ele>304.0</ele><time>2026-04-25T09:23:34.999Z</time></trkpt><trkpt lat="44.539629743288074" lon="9.894831263233872"><ele>305.5</ele><time>2026-04-25T09:23:35.999Z</time></trkpt><trkpt lat="44.53954626161697" lon="9.895269372876575"><ele>307.0</ele><time>2026-04-25T09:23:36.999Z</time></trkpt><trkpt lat="44.539459737804606" lon="9.895670242711098"><ele>307.0</ele><time>2026-04-25T09:23:37.999Z</time></trkpt><trkpt lat="44.539367396497184" lon="9.896082563656961"><ele>307.0</ele><time>2026-04-25T09:23:38.999Z</time></trkpt><trkpt lat="44.539279399397294" lon="9.896495755150424"><ele>306.5</ele><time>2026-04-25T09:23:39.999Z</time></trkpt><trkpt lat="44.53919432181737" lon="9.89689580620786"><ele>306.0</ele><time>2026-04-25T09:23:40.999Z</time></trkpt><trkpt lat="44.539108480264034" lon="9.897287635343522"><ele>305.0</ele><time>2026-04-25T09:23:41.999Z</time></trkpt><trkpt lat="44.53902091276354" lon="9.897675819695392"><ele>304.0</ele><time>2026-04-25T09:23:42.999Z</time></trkpt><trkpt lat="44.538940567162776" lon="9.898047757109069"><ele>304.0</ele><time>2026-04-25T09:23:43.999Z</time></trkpt><trkpt lat="44.53886564637155" lon="9.898373063872581"><ele>304.0</ele><time>2026-04-25T09:23:44.999Z</time></trkpt><trkpt lat="44.53880190945828" lon="9.898666597606574"><ele>303.66666666666663</ele><time>2026-04-25T09:23:45.999Z</time></trkpt><trkpt lat="44.538761200888395" lon="9.898900631936261"><ele>303.3333333333333</ele><time>2026-04-25T09:23:46.999Z</time></trkpt><trkpt lat="44.538756248397625" lon="9.899148393829126"><ele>303.0</ele><time>2026-04-25T09:23:47.999Z</time></trkpt><trkpt lat="44.53878223202749" lon="9.899437759055608"><ele>303.6666666666667</ele><time>2026-04-25T09:23:48.999Z</time></trkpt><trkpt lat="44.53880172011708" lon="9.899740647988924"><ele>304.33333333333337</ele><time>2026-04-25T09:23:49.999Z</time></trkpt><trkpt lat="44.53881450794411" lon="9.90005857546518"><ele>305.0</ele><time>2026-04-25T09:23:50.999Z</time></trkpt><trkpt lat="44.5388212427623" lon="9.900362546650525"><ele>308.6666666666667</ele><time>2026-04-25T09:23:51.999Z</time></trkpt><trkpt lat="44.53882940063241" lon="9.900632812826927"><ele>312.3333333333333</ele><time>2026-04-25T09:23:52.999Z</time></trkpt><trkpt lat="44.53883589516734" lon="9.900850015646148"><ele>316.0</ele><time>2026-04-25T09:23:53.999Z</time></trkpt><trkpt lat="44.53885035358392" lon="9.901025255823585"><ele>320.25</ele><time>2026-04-25T09:23:54.999Z</time></trkpt><trkpt lat="44.5388895135412" lon="9.901154739288646"><ele>324.5</ele><time>2026-04-25T09:23:55.999Z</time></trkpt><trkpt lat="44.538986366297046" lon="9.901231937331278"><ele>328.75</ele><time>2026-04-25T09:23:56.999Z</time></trkpt><trkpt lat="44.53913725201139" lon="9.901247171588182"><ele>333.0</ele><time>2026-04-25T09:23:57.999Z</time></trkpt><trkpt lat="44.53931185388131" lon="9.901249870067911"><ele>333.0</ele><time>2026-04-25T09:23:58.999Z</time></trkpt><trkpt lat="44.539501012196716" lon="9.90127426643343"><ele>333.0</ele><time>2026-04-25T09:23:59.999Z</time></trkpt><trkpt lat="44.539718853885184" lon="9.901276482520068"><ele>333.0</ele><time>2026-04-25T09:24:00.999Z</time></trkpt><trkpt lat="44.53994233086706" lon="9.901255598697407"><ele>335.0</ele><time>2026-04-25T09:24:02Z</time></trkpt><trkpt lat="44.540172239176265" lon="9.901237491131086"><ele>337.0</ele><time>2026-04-25T09:24:03Z</time></trkpt><trkpt lat="44.540402226526886" lon="9.901276242241332"><ele>337.66666666666663</ele><time>2026-04-25T09:24:04Z</time></trkpt><trkpt lat="44.54062426116688" lon="9.901344635414164"><ele>338.3333333333333</ele><time>2026-04-25T09:24:05Z</time></trkpt><trkpt lat="44.54077730664119" lon="9.90133199030225"><ele>339.0</ele><time>2026-04-25T09:24:06Z</time></trkpt><trkpt lat="44.540904796661444" lon="9.901331728867556"><ele>339.0</ele><time>2026-04-25T09:24:07Z</time></trkpt><trkpt lat="44.54101261512642" lon="9.901314519480431"><ele>339.0</ele><time>2026-04-25T09:24:08Z</time></trkpt><trkpt lat="44.54134885569375" lon="9.901635458077786"><ele>337.5</ele><time>2026-04-25T09:24:09Z</time></trkpt><trkpt lat="44.54143770002434" lon="9.901752868935299"><ele>336.0</ele><time>2026-04-25T09:24:10Z</time></trkpt><trkpt lat="44.54146940508555" lon="9.90193347870975"><ele>334.5</ele><time>2026-04-25T09:24:11Z</time></trkpt><trkpt lat="44.541437407932115" lon="9.902136688974608"><ele>333.0</ele><time>2026-04-25T09:24:12Z</time></trkpt><trkpt lat="44.54126240276475" lon="9.902247233968287"><ele>339.6666666666667</ele><time>2026-04-25T09:24:13Z</time></trkpt><trkpt lat="44.541129277025696" lon="9.902368946653533"><ele>346.33333333333337</ele><time>2026-04-25T09:24:14Z</time></trkpt><trkpt lat="44.54099212206823" lon="9.902537566723591"><ele>353.0</ele><time>2026-04-25T09:24:15Z</time></trkpt><trkpt lat="44.540890121835716" lon="9.902763752486488"><ele>353.6666666666667</ele><time>2026-04-25T09:24:16Z</time></trkpt><trkpt lat="44.54079439811935" lon="9.902996085531202"><ele>354.3333333333333</ele><time>2026-04-25T09:24:17Z</time></trkpt><trkpt lat="44.54073570317581" lon="9.903216905783507"><ele>355.0</ele><time>2026-04-25T09:24:18Z</time></trkpt><trkpt lat="44.540713028319075" lon="9.903440236334898"><ele>359.0</ele><time>2026-04-25T09:24:19Z</time></trkpt><trkpt lat="44.54076159808137" lon="9.9036638116105"><ele>363.0</ele><time>2026-04-25T09:24:20Z</time></trkpt><trkpt lat="44.54086367785146" lon="9.903872818829683"><ele>367.0</ele><time>2026-04-25T09:24:21Z</time></trkpt><trkpt lat="44.540987959518816" lon="9.904103822044139"><ele>372.3333333333333</ele><time>2026-04-25T09:24:22Z</time></trkpt><trkpt lat="44.54109499598998" lon="9.904317356911406"><ele>377.6666666666667</ele><time>2026-04-25T09:24:23Z</time></trkpt><trkpt lat="44.54116452133232" lon="9.90450104649891"><ele>383.0</ele><time>2026-04-25T09:24:24Z</time></trkpt><trkpt lat="44.54115637962315" lon="9.904682091395543"><ele>383.0</ele><time>2026-04-25T09:24:25Z</time></trkpt><trkpt lat="44.54114204624083" lon="9.904908503177133"><ele>383.0</ele><time>2026-04-25T09:24:26Z</time></trkpt><trkpt lat="44.54115045376899" lon="9.905190583157358"><ele>383.0</ele><time>2026-04-25T09:24:27Z</time></trkpt><trkpt lat="44.541138066172095" lon="9.905480992882739"><ele>383.0</ele><time>2026-04-25T09:24:28Z</time></trkpt><trkpt lat="44.541128350704014" lon="9.90578673260346"><ele>383.0</ele><time>2026-04-25T09:24:29Z</time></trkpt><trkpt lat="44.541115660062445" lon="9.906046786360987"><ele>383.0</ele><time>2026-04-25T09:24:30Z</time></trkpt><trkpt lat="44.54102290881736" lon="9.906234331282176"><ele>381.25</ele><time>2026-04-25T09:24:31Z</time></trkpt><trkpt lat="44.540949302160875" lon="9.906361219486541"><ele>379.5</ele><time>2026-04-25T09:24:32Z</time></trkpt><trkpt lat="44.54085625624636" lon="9.906468800877924"><ele>377.75</ele><time>2026-04-25T09:24:33Z</time></trkpt><trkpt lat="44.54072624686694" lon="9.906607960694839"><ele>376.0</ele><time>2026-04-25T09:24:34Z</time></trkpt><trkpt lat="44.540627014112815" lon="9.906768278902575"><ele>375.5</ele><time>2026-04-25T09:24:35Z</time></trkpt><trkpt lat="44.54058308335506" lon="9.9069399601607"><ele>375.0</ele><time>2026-04-25T09:24:36Z</time></trkpt><trkpt lat="44.54055869175455" lon="9.907135336306022"><ele>374.5</ele><time>2026-04-25T09:24:37Z</time></trkpt><trkpt lat="44.54063264691018" lon="9.907342724022655"><ele>374.0</ele><time>2026-04-25T09:24:38Z</time></trkpt><trkpt lat="44.54073219978751" lon="9.90756230846345"><ele>379.5</ele><time>2026-04-25T09:24:39Z</time></trkpt><trkpt lat="44.54085842862326" lon="9.907786634683353"><ele>385.0</ele><time>2026-04-25T09:24:40Z</time></trkpt><trkpt lat="44.54106440177205" lon="9.908072725518464"><ele>385.0</ele><time>2026-04-25T09:24:41Z</time></trkpt><trkpt lat="44.54112940679438" lon="9.908093687227945"><ele>385.0</ele><time>2026-04-25T09:24:42Z</time></trkpt><trkpt lat="44.541283095135284" lon="9.908185944206757"><ele>385.0</ele><time>2026-04-25T09:24:43Z</time></trkpt><trkpt lat="44.541441215163125" lon="9.908276112788347"><ele>385.0</ele><time>2026-04-25T09:24:44Z</time></trkpt><trkpt lat="44.54156273385442" lon="9.908424854345826"><ele>386.6666666666667</ele><time>2026-04-25T09:24:45Z</time></trkpt><trkpt lat="44.541670443477734" lon="9.908630431860919"><ele>388.33333333333337</ele><time>2026-04-25T09:24:46Z</time></trkpt><trkpt lat="44.541792782565715" lon="9.908886445101485"><ele>390.0</ele><time>2026-04-25T09:24:47Z</time></trkpt><trkpt lat="44.54189764182939" lon="9.909098523770384"><ele>393.0</ele><time>2026-04-25T09:24:48Z</time></trkpt><trkpt lat="44.54194681023877" lon="9.9092591846536"><ele>396.0</ele><time>2026-04-25T09:24:49Z</time></trkpt><trkpt lat="44.541951133440634" lon="9.909378534449866"><ele>399.0</ele><time>2026-04-25T09:24:50Z</time></trkpt><trkpt lat="44.54190351703557" lon="9.90946706088062"><ele>402.0</ele><time>2026-04-25T09:24:51Z</time></trkpt><trkpt lat="44.541829206268844" lon="9.909547809056313"><ele>405.0</ele><time>2026-04-25T09:24:52Z</time></trkpt><trkpt lat="44.54174205914105" lon="9.90951748818528"><ele>405.0</ele><time>2026-04-25T09:24:53Z</time></trkpt><trkpt lat="44.54166753274688" lon="9.909457576336242"><ele>405.0</ele><time>2026-04-25T09:24:54Z</time></trkpt><trkpt lat="44.54152810256887" lon="9.909333677198925"><ele>405.0</ele><time>2026-04-25T09:24:55Z</time></trkpt><trkpt lat="44.54137067320941" lon="9.909195071321575"><ele>405.0</ele><time>2026-04-25T09:24:56Z</time></trkpt><trkpt lat="44.54122275239876" lon="9.90910298946919"><ele>403.66666666666663</ele><time>2026-04-25T09:24:57Z</time></trkpt><trkpt lat="44.541094002563234" lon="9.909049933767603"><ele>402.3333333333333</ele><time>2026-04-25T09:24:58Z</time></trkpt><trkpt lat="44.54094153628262" lon="9.909086544773269"><ele>401.0</ele><time>2026-04-25T09:24:59Z</time></trkpt><trkpt lat="44.54078460650574" lon="9.909202301172165"><ele>401.0</ele><time>2026-04-25T09:25:00Z</time></trkpt><trkpt lat="44.540626906721144" lon="9.909255039517697"><ele>401.0</ele><time>2026-04-25T09:25:01Z</time></trkpt><trkpt lat="44.54048980460586" lon="9.909195492910252"><ele>401.0</ele><time>2026-04-25T09:25:02Z</time></trkpt><trkpt lat="44.54036767666748" lon="9.909076373772505"><ele>405.6</ele><time>2026-04-25T09:25:03Z</time></trkpt><trkpt lat="44.54024265861292" lon="9.909027281592673"><ele>410.20000000000005</ele><time>2026-04-25T09:25:04Z</time></trkpt><trkpt lat="44.54015336976909" lon="9.909009484692186"><ele>414.79999999999995</ele><time>2026-04-25T09:25:05Z</time></trkpt><trkpt lat="44.540090462576195" lon="9.909075623731638"><ele>419.4</ele><time>2026-04-25T09:25:06Z</time></trkpt><trkpt lat="44.540057372003325" lon="9.909190044506149"><ele>424.0</ele><time>2026-04-25T09:25:07Z</time></trkpt><trkpt lat="44.54007738911456" lon="9.909289000239804"><ele>423.5</ele><time>2026-04-25T09:25:08Z</time></trkpt><trkpt lat="44.54011724938066" lon="9.90941464848499"><ele>423.0</ele><time>2026-04-25T09:25:09Z</time></trkpt><trkpt lat="44.54020929350968" lon="9.909560209330232"><ele>422.5</ele><time>2026-04-25T09:25:10Z</time></trkpt><trkpt lat="44.54034243499881" lon="9.90968164613777"><ele>422.0</ele><time>2026-04-25T09:25:10.999Z</time></trkpt><trkpt lat="44.540502442981186" lon="9.909715227777104"><ele>422.0</ele><time>2026-04-25T09:25:11.999Z</time></trkpt><trkpt lat="44.54068181393312" lon="9.90971098922201"><ele>422.0</ele><time>2026-04-25T09:25:12.999Z</time></trkpt><trkpt lat="44.540849828098146" lon="9.909713568398383"><ele>422.0</ele><time>2026-04-25T09:25:13.999Z</time></trkpt><trkpt lat="44.540989673049886" lon="9.909716184234009"><ele>422.0</ele><time>2026-04-25T09:25:14.999Z</time></trkpt><trkpt lat="44.541096049950184" lon="9.909819920554567"><ele>422.0</ele><time>2026-04-25T09:25:15.999Z</time></trkpt><trkpt lat="44.54117795028423" lon="9.909981316958584"><ele>422.0</ele><time>2026-04-25T09:25:16.999Z</time></trkpt><trkpt lat="44.54123592441485" lon="9.910152078959966"><ele>422.0</ele><time>2026-04-25T09:25:17.999Z</time></trkpt><trkpt lat="44.541259679520024" lon="9.910355484667141"><ele>417.66666666666663</ele><time>2026-04-25T09:25:18.999Z</time></trkpt><trkpt lat="44.54123564323163" lon="9.910557998915667"><ele>413.33333333333337</ele><time>2026-04-25T09:25:19.999Z</time></trkpt><trkpt lat="44.5411794168442" lon="9.910779531323888"><ele>409.0</ele><time>2026-04-25T09:25:20.999Z</time></trkpt><trkpt lat="44.54112573468279" lon="9.9110227416743"><ele>421.33333333333337</ele><time>2026-04-25T09:25:21.999Z</time></trkpt><trkpt lat="44.54112274536334" lon="9.911249349321887"><ele>433.66666666666663</ele><time>2026-04-25T09:25:22.999Z</time></trkpt><trkpt lat="44.541138607793606" lon="9.911490068774617"><ele>446.0</ele><time>2026-04-25T09:25:23.999Z</time></trkpt><trkpt lat="44.541190854179995" lon="9.911763651823359"><ele>449.3333333333333</ele><time>2026-04-25T09:25:24.999Z</time></trkpt><trkpt lat="44.541214358360065" lon="9.912059012279338"><ele>452.66666666666663</ele><time>2026-04-25T09:25:25.999Z</time></trkpt><trkpt lat="44.54124820154287" lon="9.912340368920049"><ele>456.0</ele><time>2026-04-25T09:25:26.999Z</time></trkpt><trkpt lat="44.54128489038335" lon="9.912596307982682"><ele>454.5</ele><time>2026-04-25T09:25:27.999Z</time></trkpt><trkpt lat="44.541295541664724" lon="9.912804254852272"><ele>453.0</ele><time>2026-04-25T09:25:28.999Z</time></trkpt><trkpt lat="44.541281547134794" lon="9.912992974167738"><ele>451.5</ele><time>2026-04-25T09:25:29.999Z</time></trkpt><trkpt lat="44.541224027281565" lon="9.913163531902581"><ele>450.0</ele><time>2026-04-25T09:25:30.999Z</time></trkpt><trkpt lat="44.54112910343352" lon="9.913333495202755"><ele>447.33333333333337</ele><time>2026-04-25T09:25:31.999Z</time></trkpt><trkpt lat="44.54100053771764" lon="9.913488930405785"><ele>444.6666666666667</ele><time>2026-04-25T09:25:32.999Z</time></trkpt><trkpt lat="44.54086187345079" lon="9.9136244588163"><ele>442.0</ele><time>2026-04-25T09:25:33.999Z</time></trkpt><trkpt lat="44.540768282338064" lon="9.913741989365187"><ele>442.0</ele><time>2026-04-25T09:25:34.999Z</time></trkpt><trkpt lat="44.540714202204185" lon="9.913852489176158"><ele>442.0</ele><time>2026-04-25T09:25:35.999Z</time></trkpt><trkpt lat="44.540724852828305" lon="9.913984027493882"><ele>442.0</ele><time>2026-04-25T09:25:36.999Z</time></trkpt><trkpt lat="44.540797149470905" lon="9.914124987427307"><ele>442.0</ele><time>2026-04-25T09:25:37.999Z</time></trkpt><trkpt lat="44.540911342955184" lon="9.914252687146723"><ele>443.75</ele><time>2026-04-25T09:25:38.999Z</time></trkpt><trkpt lat="44.54097706553239" lon="9.914398202349345"><ele>445.5</ele><time>2026-04-25T09:25:39.999Z</time></trkpt><trkpt lat="44.54097749241944" lon="9.914571852982862"><ele>447.25</ele><time>2026-04-25T09:25:40.999Z</time></trkpt><trkpt lat="44.5409150227436" lon="9.914775902194657"><ele>449.0</ele><time>2026-04-25T09:25:41.999Z</time></trkpt><trkpt lat="44.54088765819984" lon="9.915035487188415"><ele>451.0</ele><time>2026-04-25T09:25:42.999Z</time></trkpt><trkpt lat="44.5408589796661" lon="9.915278397645746"><ele>453.0</ele><time>2026-04-25T09:25:43.999Z</time></trkpt><trkpt lat="44.54086756448934" lon="9.915539602946833"><ele>455.0</ele><time>2026-04-25T09:25:44.999Z</time></trkpt><trkpt lat="44.54087985578645" lon="9.915779102713078"><ele>455.4</ele><time>2026-04-25T09:25:45.999Z</time></trkpt><trkpt lat="44.540888862420815" lon="9.915953616161998"><ele>455.8</ele><time>2026-04-25T09:25:46.999Z</time></trkpt><trkpt lat="44.540925317226915" lon="9.916058357955539"><ele>456.20000000000005</ele><time>2026-04-25T09:25:47.999Z</time></trkpt><trkpt lat="44.5409938687641" lon="9.916101194076575"><ele>456.6</ele><time>2026-04-25T09:25:48.999Z</time></trkpt><trkpt lat="44.541118276035725" lon="9.91612183751529"><ele>457.0</ele><time>2026-04-25T09:25:49.999Z</time></trkpt><trkpt lat="44.54127697410789" lon="9.916141121547076"><ele>457.0</ele><time>2026-04-25T09:25:50.999Z</time></trkpt><trkpt lat="44.54144460205613" lon="9.916225404288065"><ele>457.0</ele><time>2026-04-25T09:25:51.999Z</time></trkpt><trkpt lat="44.54164003174404" lon="9.916309469109676"><ele>457.0</ele><time>2026-04-25T09:25:52.999Z</time></trkpt><trkpt lat="44.54180995827791" lon="9.916349912425753"><ele>457.0</ele><time>2026-04-25T09:25:53.999Z</time></trkpt><trkpt lat="44.54194282425047" lon="9.91632335106994"><ele>457.0</ele><time>2026-04-25T09:25:54.999Z</time></trkpt><trkpt lat="44.542072033675474" lon="9.916277436597941"><ele>457.0</ele><time>2026-04-25T09:25:55.999Z</time></trkpt><trkpt lat="44.54221123650777" lon="9.916290060072152"><ele>457.0</ele><time>2026-04-25T09:25:56.999Z</time></trkpt><trkpt lat="44.54232094174527" lon="9.91636964978465"><ele>456.25</ele><time>2026-04-25T09:25:57.999Z</time></trkpt><trkpt lat="44.54239778142908" lon="9.916489091425934"><ele>455.5</ele><time>2026-04-25T09:25:58.999Z</time></trkpt><trkpt lat="44.54242702066675" lon="9.916675393741993"><ele>454.75</ele><time>2026-04-25T09:25:59.999Z</time></trkpt><trkpt lat="44.54245410368103" lon="9.916928762567135"><ele>454.0</ele><time>2026-04-25T09:26:00.999Z</time></trkpt><trkpt lat="44.54249984073619" lon="9.917199598332504"><ele>454.0</ele><time>2026-04-25T09:26:01.999Z</time></trkpt><trkpt lat="44.54252339025517" lon="9.917452582184934"><ele>454.0</ele><time>2026-04-25T09:26:02.999Z</time></trkpt><trkpt lat="44.542521373202135" lon="9.917678427556607"><ele>454.0</ele><time>2026-04-25T09:26:03.999Z</time></trkpt><trkpt lat="44.5425107655997" lon="9.91789005395748"><ele>454.25</ele><time>2026-04-25T09:26:04.999Z</time></trkpt><trkpt lat="44.54246747954627" lon="9.918074380680748"><ele>454.5</ele><time>2026-04-25T09:26:05.999Z</time></trkpt><trkpt lat="44.54238283546749" lon="9.918223281377207"><ele>454.75</ele><time>2026-04-25T09:26:06.999Z</time></trkpt><trkpt lat="44.542275494681675" lon="9.918333514691488"><ele>455.0</ele><time>2026-04-25T09:26:08Z</time></trkpt><trkpt lat="44.54215018488249" lon="9.918391666326146"><ele>458.66666666666663</ele><time>2026-04-25T09:26:09Z</time></trkpt><trkpt lat="44.54199501921562" lon="9.918403223452774"><ele>462.33333333333337</ele><time>2026-04-25T09:26:10Z</time></trkpt><trkpt lat="44.54182219799902" lon="9.918370004929557"><ele>466.0</ele><time>2026-04-25T09:26:11Z</time></trkpt><trkpt lat="44.54168247004602" lon="9.918354086914393"><ele>466.0</ele><time>2026-04-25T09:26:12Z</time></trkpt><trkpt lat="44.541556086287805" lon="9.918315405149977"><ele>466.0</ele><time>2026-04-25T09:26:13Z</time></trkpt><trkpt lat="44.541437832052" lon="9.91829393852342"><ele>466.0</ele><time>2026-04-25T09:26:14Z</time></trkpt><trkpt lat="44.541335261892144" lon="9.918283523150034"><ele>466.0</ele><time>2026-04-25T09:26:15Z</time></trkpt><trkpt lat="44.54126523692438" lon="9.91828812640453"><ele>466.0</ele><time>2026-04-25T09:26:16Z</time></trkpt><trkpt lat="44.5411827714043" lon="9.918310289297404"><ele>467.5</ele><time>2026-04-25T09:26:18Z</time></trkpt><trkpt lat="44.541079867191335" lon="9.918357259521857"><ele>469.0</ele><time>2026-04-25T09:26:21Z</time></trkpt><trkpt lat="44.54097810604399" lon="9.918409837842301"><ele>470.5</ele><time>2026-04-25T09:26:22Z</time></trkpt><trkpt lat="44.54085382526937" lon="9.918502877099558"><ele>472.0</ele><time>2026-04-25T09:26:23Z</time></trkpt><trkpt lat="44.54070970633686" lon="9.91857903991619"><ele>472.0</ele><time>2026-04-25T09:26:24Z</time></trkpt><trkpt lat="44.54054357430833" lon="9.918665183615332"><ele>472.0</ele><time>2026-04-25T09:26:25Z</time></trkpt><trkpt lat="44.54038007064105" lon="9.918751229549821"><ele>472.0</ele><time>2026-04-25T09:26:26Z</time></trkpt><trkpt lat="44.54024128113199" lon="9.918838578299379"><ele>475.25</ele><time>2026-04-25T09:26:27Z</time></trkpt><trkpt lat="44.540132936319104" lon="9.918916426859008"><ele>478.5</ele><time>2026-04-25T09:26:28Z</time></trkpt><trkpt lat="44.54004104962542" lon="9.919015725494686"><ele>481.75</ele><time>2026-04-25T09:26:29Z</time></trkpt><trkpt lat="44.539996723506775" lon="9.919143576493347"><ele>485.0</ele><time>2026-04-25T09:26:30Z</time></trkpt><trkpt lat="44.539959288915185" lon="9.919291959743424"><ele>486.8</ele><time>2026-04-25T09:26:31Z</time></trkpt><trkpt lat="44.53992586200234" lon="9.91944816861622"><ele>488.6</ele><time>2026-04-25T09:26:32Z</time></trkpt><trkpt lat="44.53991076703579" lon="9.919597689327844"><ele>490.4</ele><time>2026-04-25T09:26:33Z</time></trkpt><trkpt lat="44.5399176445579" lon="9.919730862192536"><ele>492.2</ele><time>2026-04-25T09:26:34Z</time></trkpt><trkpt lat="44.53997392046545" lon="9.919840350703042"><ele>494.0</ele><time>2026-04-25T09:26:35Z</time></trkpt><trkpt lat="44.54006013448343" lon="9.919920012039775"><ele>494.0</ele><time>2026-04-25T09:26:36Z</time></trkpt><trkpt lat="44.54019711094014" lon="9.91997785706786"><ele>494.0</ele><time>2026-04-25T09:26:37Z</time></trkpt><trkpt lat="44.54035039749865" lon="9.92007254086687"><ele>494.0</ele><time>2026-04-25T09:26:38Z</time></trkpt><trkpt lat="44.54050602031099" lon="9.920172343203555"><ele>494.0</ele><time>2026-04-25T09:26:39Z</time></trkpt><trkpt lat="44.5406350593609" lon="9.920282417123913"><ele>494.0</ele><time>2026-04-25T09:26:40Z</time></trkpt><trkpt lat="44.54073952964934" lon="9.920374855730529"><ele>494.0</ele><time>2026-04-25T09:26:41Z</time></trkpt><trkpt lat="44.540782204402205" lon="9.92050985375101"><ele>494.0</ele><time>2026-04-25T09:26:42Z</time></trkpt><trkpt lat="44.54082726315103" lon="9.920696927897929"><ele>494.0</ele><time>2026-04-25T09:26:43Z</time></trkpt><trkpt lat="44.54086999497419" lon="9.920895228445378"><ele>494.0</ele><time>2026-04-25T09:26:44Z</time></trkpt><trkpt lat="44.54091929392329" lon="9.921046359638849"><ele>494.0</ele><time>2026-04-25T09:26:45Z</time></trkpt><trkpt lat="44.54099544012381" lon="9.92113738781184"><ele>494.0</ele><time>2026-04-25T09:26:46Z</time></trkpt><trkpt lat="44.54113492477123" lon="9.92116909464357"><ele>501.66666666666663</ele><time>2026-04-25T09:26:47Z</time></trkpt><trkpt lat="44.541322636752334" lon="9.92120036403525"><ele>509.33333333333337</ele><time>2026-04-25T09:26:48Z</time></trkpt><trkpt lat="44.541518617777605" lon="9.921227878450564"><ele>517.0</ele><time>2026-04-25T09:26:49Z</time></trkpt><trkpt lat="44.54170477410221" lon="9.9212927920138"><ele>517.0</ele><time>2026-04-25T09:26:50Z</time></trkpt><trkpt lat="44.54187370536164" lon="9.921352660461938"><ele>517.0</ele><time>2026-04-25T09:26:51Z</time></trkpt><trkpt lat="44.542014730493506" lon="9.921434787678166"><ele>517.0</ele><time>2026-04-25T09:26:52Z</time></trkpt><trkpt lat="44.54211557962263" lon="9.921586390507471"><ele>519.0</ele><time>2026-04-25T09:26:53Z</time></trkpt><trkpt lat="44.54220553081992" lon="9.92175421294126"><ele>521.0</ele><time>2026-04-25T09:26:54Z</time></trkpt><trkpt lat="44.54230266122191" lon="9.921871896051758"><ele>523.0</ele><time>2026-04-25T09:26:55Z</time></trkpt><trkpt lat="44.54244190488169" lon="9.921955424831264"><ele>525.0</ele><time>2026-04-25T09:26:56Z</time></trkpt><trkpt lat="44.542612035503346" lon="9.92195788737846"><ele>525.0</ele><time>2026-04-25T09:26:57Z</time></trkpt><trkpt lat="44.54275155148215" lon="9.92201501887822"><ele>525.0</ele><time>2026-04-25T09:26:58Z</time></trkpt><trkpt lat="44.54285352003334" lon="9.922135427211417"><ele>525.0</ele><time>2026-04-25T09:26:59Z</time></trkpt><trkpt lat="44.54295961572451" lon="9.922307774266086"><ele>525.0</ele><time>2026-04-25T09:27:00Z</time></trkpt><trkpt lat="44.543091461365684" lon="9.922525795786411"><ele>522.0</ele><time>2026-04-25T09:27:01Z</time></trkpt><trkpt lat="44.54322122377697" lon="9.922687250598628"><ele>519.0</ele><time>2026-04-25T09:27:02Z</time></trkpt><trkpt lat="44.54330785496853" lon="9.922845681701338"><ele>516.0</ele><time>2026-04-25T09:27:03Z</time></trkpt><trkpt lat="44.5433818342231" lon="9.922987604693756"><ele>513.0</ele><time>2026-04-25T09:27:04Z</time></trkpt><trkpt lat="44.543422705575175" lon="9.92315732837387"><ele>513.0</ele><time>2026-04-25T09:27:05Z</time></trkpt><trkpt lat="44.54339736513053" lon="9.923324865189633"><ele>513.0</ele><time>2026-04-25T09:27:06Z</time></trkpt><trkpt lat="44.54332257001204" lon="9.923505536003427"><ele>513.0</ele><time>2026-04-25T09:27:07Z</time></trkpt><trkpt lat="44.543257578186065" lon="9.923751683488351"><ele>511.33333333333337</ele><time>2026-04-25T09:27:08Z</time></trkpt><trkpt lat="44.54319525484532" lon="9.924002727781067"><ele>509.6666666666667</ele><time>2026-04-25T09:27:09Z</time></trkpt><trkpt lat="44.543178951829056" lon="9.92429543738796"><ele>508.0</ele><time>2026-04-25T09:27:10Z</time></trkpt><trkpt lat="44.54313542597957" lon="9.924529893682296"><ele>509.6666666666667</ele><time>2026-04-25T09:27:11Z</time></trkpt><trkpt lat="44.54306572765798" lon="9.924723874194136"><ele>511.33333333333337</ele><time>2026-04-25T09:27:12Z</time></trkpt><trkpt lat="44.54295926594436" lon="9.924930864957892"><ele>513.0</ele><time>2026-04-25T09:27:13Z</time></trkpt><trkpt lat="44.54282740655039" lon="9.925176710820294"><ele>513.0</ele><time>2026-04-25T09:27:14Z</time></trkpt><trkpt lat="44.54270248643621" lon="9.925408280763651"><ele>513.0</ele><time>2026-04-25T09:27:15Z</time></trkpt><trkpt lat="44.54260079151304" lon="9.925637589211277"><ele>513.0</ele><time>2026-04-25T09:27:15.999Z</time></trkpt><trkpt lat="44.54248452342449" lon="9.925786107830838"><ele>513.0</ele><time>2026-04-25T09:27:16.999Z</time></trkpt><trkpt lat="44.54236798973712" lon="9.925873086535177"><ele>513.0</ele><time>2026-04-25T09:27:17.999Z</time></trkpt><trkpt lat="44.54220941994724" lon="9.925950791465487"><ele>513.0</ele><time>2026-04-25T09:27:18.999Z</time></trkpt><trkpt lat="44.54205417609228" lon="9.926034005744786"><ele>516.75</ele><time>2026-04-25T09:27:19.999Z</time></trkpt><trkpt lat="44.54193902439307" lon="9.926111777697479"><ele>520.5</ele><time>2026-04-25T09:27:20.999Z</time></trkpt><trkpt lat="44.54185974154208" lon="9.926239997512702"><ele>524.25</ele><time>2026-04-25T09:27:21.999Z</time></trkpt><trkpt lat="44.541819757895475" lon="9.92645990083399"><ele>528.0</ele><time>2026-04-25T09:27:22.999Z</time></trkpt><trkpt lat="44.54178243256872" lon="9.926726655832654"><ele>528.0</ele><time>2026-04-25T09:27:23.999Z</time></trkpt><trkpt lat="44.54175676647574" lon="9.927026349247546"><ele>528.0</ele><time>2026-04-25T09:27:24.999Z</time></trkpt><trkpt lat="44.54175184436851" lon="9.927311687371791"><ele>528.0</ele><time>2026-04-25T09:27:25.999Z</time></trkpt><trkpt lat="44.54172711917414" lon="9.92753398724593"><ele>526.6666666666666</ele><time>2026-04-25T09:27:26.999Z</time></trkpt><trkpt lat="44.541697654199744" lon="9.927741939915252"><ele>525.3333333333333</ele><time>2026-04-25T09:27:27.999Z</time></trkpt><trkpt lat="44.541633889528555" lon="9.927948869364304"><ele>524.0</ele><time>2026-04-25T09:27:28.999Z</time></trkpt><trkpt lat="44.5415220806201" lon="9.928154817119916"><ele>524.0</ele><time>2026-04-25T09:27:29.999Z</time></trkpt><trkpt lat="44.54139148798644" lon="9.928310297710878"><ele>524.0</ele><time>2026-04-25T09:27:30.999Z</time></trkpt><trkpt lat="44.54126678252115" lon="9.928424465874187"><ele>524.0</ele><time>2026-04-25T09:27:31.999Z</time></trkpt><trkpt lat="44.54113804583918" lon="9.928483393439452"><ele>522.0</ele><time>2026-04-25T09:27:32.999Z</time></trkpt><trkpt lat="44.540961863269104" lon="9.928473945226683"><ele>520.0</ele><time>2026-04-25T09:27:33.999Z</time></trkpt><trkpt lat="44.54080180106187" lon="9.928473532161172"><ele>518.0</ele><time>2026-04-25T09:27:34.999Z</time></trkpt><trkpt lat="44.540624492412284" lon="9.928438834959392"><ele>518.0</ele><time>2026-04-25T09:27:35.999Z</time></trkpt><trkpt lat="44.540473251917625" lon="9.928429528753352"><ele>518.0</ele><time>2026-04-25T09:27:36.999Z</time></trkpt><trkpt lat="44.54035497446342" lon="9.928475052387371"><ele>518.0</ele><time>2026-04-25T09:27:37.999Z</time></trkpt><trkpt lat="44.540260783000555" lon="9.92861595822551"><ele>518.0</ele><time>2026-04-25T09:27:38.999Z</time></trkpt><trkpt lat="44.5401459609162" lon="9.928739212603547"><ele>520.6</ele><time>2026-04-25T09:27:39.999Z</time></trkpt><trkpt lat="44.540067129417814" lon="9.928760923437599"><ele>523.1999999999999</ele><time>2026-04-25T09:27:40.999Z</time></trkpt><trkpt lat="44.53998632902171" lon="9.928720147756868"><ele>525.8</ele><time>2026-04-25T09:27:41.999Z</time></trkpt><trkpt lat="44.53990160551354" lon="9.92862495680352"><ele>528.4</ele><time>2026-04-25T09:27:42.999Z</time></trkpt><trkpt lat="44.53983392243202" lon="9.928481057317972"><ele>531.0</ele><time>2026-04-25T09:27:43.999Z</time></trkpt><trkpt lat="44.53976438320684" lon="9.928311035178266"><ele>532.75</ele><time>2026-04-25T09:27:44.999Z</time></trkpt><trkpt lat="44.53968283919071" lon="9.928141342910099"><ele>534.5</ele><time>2026-04-25T09:27:45.999Z</time></trkpt><trkpt lat="44.539598183806355" lon="9.92798489434537"><ele>536.25</ele><time>2026-04-25T09:27:46.999Z</time></trkpt><trkpt lat="44.53949528341817" lon="9.927846598647985"><ele>538.0</ele><time>2026-04-25T09:27:47.999Z</time></trkpt><trkpt lat="44.539379762811556" lon="9.927779067988036"><ele>538.0</ele><time>2026-04-25T09:27:48.999Z</time></trkpt><trkpt lat="44.539266623443204" lon="9.927779872564175"><ele>538.0</ele><time>2026-04-25T09:27:49.999Z</time></trkpt><trkpt lat="44.53917494102513" lon="9.92786134793445"><ele>538.0</ele><time>2026-04-25T09:27:50.999Z</time></trkpt><trkpt lat="44.539129726609886" lon="9.927992766212862"><ele>538.0</ele><time>2026-04-25T09:27:51.999Z</time></trkpt><trkpt lat="44.53911620547387" lon="9.928146529770157"><ele>538.0</ele><time>2026-04-25T09:27:52.999Z</time></trkpt><trkpt lat="44.53904941095102" lon="9.928280302863573"><ele>537.3333333333334</ele><time>2026-04-25T09:27:53.999Z</time></trkpt><trkpt lat="44.538953284134884" lon="9.928485517716595"><ele>536.6666666666666</ele><time>2026-04-25T09:27:54.999Z</time></trkpt><trkpt lat="44.53889166166368" lon="9.928693830832978"><ele>536.0</ele><time>2026-04-25T09:27:55.999Z</time></trkpt><trkpt lat="44.53887109722309" lon="9.928890654633038"><ele>536.0</ele><time>2026-04-25T09:27:56.999Z</time></trkpt><trkpt lat="44.538890762859786" lon="9.929120360098167"><ele>536.0</ele><time>2026-04-25T09:27:57.999Z</time></trkpt><trkpt lat="44.53889335702302" lon="9.929352705162675"><ele>536.0</ele><time>2026-04-25T09:27:58.999Z</time></trkpt><trkpt lat="44.538897986589866" lon="9.929566194708073"><ele>534.25</ele><time>2026-04-25T09:27:59.999Z</time></trkpt><trkpt lat="44.538902753151696" lon="9.929771682530095"><ele>532.5</ele><time>2026-04-25T09:28:00.999Z</time></trkpt><trkpt lat="44.53889788659705" lon="9.92996338177405"><ele>530.75</ele><time>2026-04-25T09:28:01.999Z</time></trkpt><trkpt lat="44.53886567342181" lon="9.930150967450114"><ele>529.0</ele><time>2026-04-25T09:28:02.999Z</time></trkpt><trkpt lat="44.53879112182451" lon="9.930317219177429"><ele>529.3333333333334</ele><time>2026-04-25T09:28:03.999Z</time></trkpt><trkpt lat="44.53867354829861" lon="9.930485215309167"><ele>529.6666666666666</ele><time>2026-04-25T09:28:04.999Z</time></trkpt><trkpt lat="44.538544353623905" lon="9.93064218913026"><ele>530.0</ele><time>2026-04-25T09:28:05.999Z</time></trkpt><trkpt lat="44.53841490941915" lon="9.930737565456111"><ele>530.0</ele><time>2026-04-25T09:28:06.999Z</time></trkpt><trkpt lat="44.53826298300272" lon="9.930787822424977"><ele>530.0</ele><time>2026-04-25T09:28:07.999Z</time></trkpt><trkpt lat="44.53810625933242" lon="9.93083040487654"><ele>530.0</ele><time>2026-04-25T09:28:08.999Z</time></trkpt><trkpt lat="44.53796218628244" lon="9.930861287728224"><ele>531.25</ele><time>2026-04-25T09:28:09.999Z</time></trkpt><trkpt lat="44.53784214481332" lon="9.930876599827506"><ele>532.5</ele><time>2026-04-25T09:28:10.999Z</time></trkpt><trkpt lat="44.537736232460176" lon="9.930877164870841"><ele>533.75</ele><time>2026-04-25T09:28:11.999Z</time></trkpt><trkpt lat="44.53761894724337" lon="9.930852088968717"><ele>535.0</ele><time>2026-04-25T09:28:12.999Z</time></trkpt><trkpt lat="44.53746671085611" lon="9.930771553288999"><ele>535.0</ele><time>2026-04-25T09:28:14Z</time></trkpt><trkpt lat="44.53727937163821" lon="9.930692464330473"><ele>535.0</ele><time>2026-04-25T09:28:15Z</time></trkpt><trkpt lat="44.53710119326624" lon="9.930575401019537"><ele>535.0</ele><time>2026-04-25T09:28:16Z</time></trkpt><trkpt lat="44.53693730366764" lon="9.930489837335694"><ele>534.25</ele><time>2026-04-25T09:28:17Z</time></trkpt><trkpt lat="44.53678933034976" lon="9.930440535520482"><ele>533.5</ele><time>2026-04-25T09:28:18Z</time></trkpt><trkpt lat="44.5366573703476" lon="9.930386310529896"><ele>532.75</ele><time>2026-04-25T09:28:19Z</time></trkpt><trkpt lat="44.53654278461426" lon="9.930406457442674"><ele>532.0</ele><time>2026-04-25T09:28:20Z</time></trkpt><trkpt lat="44.53642616137499" lon="9.930490561222872"><ele>532.0</ele><time>2026-04-25T09:28:21Z</time></trkpt><trkpt lat="44.53634309814977" lon="9.930651988302822"><ele>532.0</ele><time>2026-04-25T09:28:22Z</time></trkpt><trkpt lat="44.53632043508094" lon="9.930873537290031"><ele>532.0</ele><time>2026-04-25T09:28:23Z</time></trkpt><trkpt lat="44.536352841894725" lon="9.931132043110757"><ele>530.3333333333334</ele><time>2026-04-25T09:28:24Z</time></trkpt><trkpt lat="44.53639066558348" lon="9.931411049919149"><ele>528.6666666666666</ele><time>2026-04-25T09:28:25Z</time></trkpt><trkpt lat="44.536420812722575" lon="9.93169222468368"><ele>527.0</ele><time>2026-04-25T09:28:26Z</time></trkpt><trkpt lat="44.53645989759433" lon="9.931985469109797"><ele>527.0</ele><time>2026-04-25T09:28:27Z</time></trkpt><trkpt lat="44.53648481659814" lon="9.932272110947602"><ele>527.0</ele><time>2026-04-25T09:28:28Z</time></trkpt><trkpt lat="44.53652064810176" lon="9.932546337211788"><ele>527.0</ele><time>2026-04-25T09:28:29Z</time></trkpt><trkpt lat="44.536544093664546" lon="9.932794647691836"><ele>525.6666666666666</ele><time>2026-04-25T09:28:30Z</time></trkpt><trkpt lat="44.53656197669297" lon="9.933042067466438"><ele>524.3333333333334</ele><time>2026-04-25T09:28:31Z</time></trkpt><trkpt lat="44.53657748052606" lon="9.933291223263476"><ele>523.0</ele><time>2026-04-25T09:28:32Z</time></trkpt><trkpt lat="44.5365796732355" lon="9.933534150315905"><ele>520.3333333333334</ele><time>2026-04-25T09:28:33Z</time></trkpt><trkpt lat="44.53654397000436" lon="9.933752456767342"><ele>517.6666666666666</ele><time>2026-04-25T09:28:34Z</time></trkpt><trkpt lat="44.53647451580366" lon="9.933935287947113"><ele>515.0</ele><time>2026-04-25T09:28:35Z</time></trkpt><trkpt lat="44.53637720819497" lon="9.934100827323753"><ele>509.3333333333333</ele><time>2026-04-25T09:28:36Z</time></trkpt><trkpt lat="44.536235274351405" lon="9.93424852069106"><ele>503.66666666666663</ele><time>2026-04-25T09:28:37Z</time></trkpt><trkpt lat="44.536095802550975" lon="9.934381079197442"><ele>498.0</ele><time>2026-04-25T09:28:38Z</time></trkpt><trkpt lat="44.535990745437495" lon="9.934494447015464"><ele>509.25</ele><time>2026-04-25T09:28:39Z</time></trkpt><trkpt lat="44.535924308226676" lon="9.93459181639286"><ele>520.5</ele><time>2026-04-25T09:28:40Z</time></trkpt><trkpt lat="44.53589924679983" lon="9.93473874168044"><ele>531.75</ele><time>2026-04-25T09:28:41Z</time></trkpt><trkpt lat="44.53591320425939" lon="9.934938089538162"><ele>543.0</ele><time>2026-04-25T09:28:42Z</time></trkpt><trkpt lat="44.535983595296074" lon="9.935199817148407"><ele>544.3333333333334</ele><time>2026-04-25T09:28:43Z</time></trkpt><trkpt lat="44.53603031722018" lon="9.935494442528169"><ele>545.6666666666667</ele><time>2026-04-25T09:28:44Z</time></trkpt><trkpt lat="44.536080927251845" lon="9.935804079114718"><ele>547.0</ele><time>2026-04-25T09:28:45Z</time></trkpt><trkpt lat="44.53613995391466" lon="9.936124215221009"><ele>547.3333333333334</ele><time>2026-04-25T09:28:46Z</time></trkpt><trkpt lat="44.5361830152438" lon="9.936403067441754"><ele>547.6666666666666</ele><time>2026-04-25T09:28:47Z</time></trkpt><trkpt lat="44.53623180328905" lon="9.936656722681795"><ele>548.0</ele><time>2026-04-25T09:28:48Z</time></trkpt><trkpt lat="44.536309883682016" lon="9.936913730512252"><ele>536.5</ele><time>2026-04-25T09:28:49Z</time></trkpt><trkpt lat="44.53644366647732" lon="9.937172488942819"><ele>525.0</ele><time>2026-04-25T09:28:50Z</time></trkpt><trkpt lat="44.53660586671443" lon="9.937425132287517"><ele>525.3333333333334</ele><time>2026-04-25T09:28:51Z</time></trkpt><trkpt lat="44.53673243775991" lon="9.937653518990727"><ele>525.6666666666667</ele><time>2026-04-25T09:28:52Z</time></trkpt><trkpt lat="44.53683981404078" lon="9.93785232790552"><ele>526.0</ele><time>2026-04-25T09:28:53Z</time></trkpt><trkpt lat="44.53691703008462" lon="9.938001281681661"><ele>526.0</ele><time>2026-04-25T09:28:54Z</time></trkpt><trkpt lat="44.53695526568426" lon="9.938140375197104"><ele>526.0</ele><time>2026-04-25T09:28:55Z</time></trkpt><trkpt lat="44.53694285311755" lon="9.938297648849899"><ele>526.0</ele><time>2026-04-25T09:28:56Z</time></trkpt><trkpt lat="44.536876676798634" lon="9.93846230578425"><ele>526.0</ele><time>2026-04-25T09:28:57Z</time></trkpt><trkpt lat="44.536780482722705" lon="9.938681626256354"><ele>523.0</ele><time>2026-04-25T09:28:58Z</time></trkpt><trkpt lat="44.53668086566427" lon="9.938897250283123"><ele>520.0</ele><time>2026-04-25T09:28:59Z</time></trkpt><trkpt lat="44.53659843325678" lon="9.939071386493763"><ele>517.0</ele><time>2026-04-25T09:29:00Z</time></trkpt><trkpt lat="44.53652674755983" lon="9.939175575570868"><ele>514.0</ele><time>2026-04-25T09:29:01Z</time></trkpt><trkpt lat="44.53644126139077" lon="9.93923557898361"><ele>514.0</ele><time>2026-04-25T09:29:02Z</time></trkpt><trkpt lat="44.53632330008689" lon="9.939201137573827"><ele>514.0</ele><time>2026-04-25T09:29:03Z</time></trkpt><trkpt lat="44.5362156114392" lon="9.939081043424233"><ele>514.0</ele><time>2026-04-25T09:29:04Z</time></trkpt><trkpt lat="44.53606747583765" lon="9.938928045744081"><ele>514.0</ele><time>2026-04-25T09:29:05Z</time></trkpt><trkpt lat="44.535935353701404" lon="9.938755763861499"><ele>512.0</ele><time>2026-04-25T09:29:06Z</time></trkpt><trkpt lat="44.535801183918004" lon="9.938612308850015"><ele>510.0</ele><time>2026-04-25T09:29:07Z</time></trkpt><trkpt lat="44.535665630297" lon="9.938522895309093"><ele>508.0</ele><time>2026-04-25T09:29:08Z</time></trkpt><trkpt lat="44.535514722457535" lon="9.938509098092585"><ele>507.0</ele><time>2026-04-25T09:29:09Z</time></trkpt><trkpt lat="44.53535325242403" lon="9.938602077632215"><ele>506.0</ele><time>2026-04-25T09:29:10Z</time></trkpt><trkpt lat="44.53518502922878" lon="9.938707439840073"><ele>505.0</ele><time>2026-04-25T09:29:11Z</time></trkpt><trkpt lat="44.5350117264116" lon="9.938789299362004"><ele>505.0</ele><time>2026-04-25T09:29:12Z</time></trkpt><trkpt lat="44.534854753859236" lon="9.938863023183721"><ele>505.0</ele><time>2026-04-25T09:29:13Z</time></trkpt><trkpt lat="44.53469736094639" lon="9.938927438999826"><ele>505.0</ele><time>2026-04-25T09:29:14Z</time></trkpt><trkpt lat="44.53456264652443" lon="9.938999773496707"><ele>504.0</ele><time>2026-04-25T09:29:15Z</time></trkpt><trkpt lat="44.53445902035126" lon="9.939128400116878"><ele>503.0</ele><time>2026-04-25T09:29:16Z</time></trkpt><trkpt lat="44.53438674883654" lon="9.939303690648767"><ele>502.0</ele><time>2026-04-25T09:29:17Z</time></trkpt><trkpt lat="44.53435485742684" lon="9.939503568080756"><ele>501.0</ele><time>2026-04-25T09:29:18Z</time></trkpt><trkpt lat="44.53438875376282" lon="9.939739985705263"><ele>501.0</ele><time>2026-04-25T09:29:19Z</time></trkpt><trkpt lat="44.53440445305064" lon="9.93997581424947"><ele>501.0</ele><time>2026-04-25T09:29:20Z</time></trkpt><trkpt lat="44.534384472138974" lon="9.94016080017411"><ele>501.0</ele><time>2026-04-25T09:29:21Z</time></trkpt><trkpt lat="44.5343346490411" lon="9.940306043235344"><ele>501.0</ele><time>2026-04-25T09:29:21.999Z</time></trkpt><trkpt lat="44.534265491591675" lon="9.940405202076757"><ele>497.75</ele><time>2026-04-25T09:29:22.999Z</time></trkpt><trkpt lat="44.53414832767685" lon="9.940438799396771"><ele>494.5</ele><time>2026-04-25T09:29:23.999Z</time></trkpt><trkpt lat="44.53401405261296" lon="9.940357163468795"><ele>491.25</ele><time>2026-04-25T09:29:24.999Z</time></trkpt><trkpt lat="44.533846440511304" lon="9.940303662478083"><ele>488.0</ele><time>2026-04-25T09:29:25.999Z</time></trkpt><trkpt lat="44.53370313111942" lon="9.94024226436545"><ele>488.0</ele><time>2026-04-25T09:29:26.999Z</time></trkpt><trkpt lat="44.53356077373685" lon="9.940264781645189"><ele>488.0</ele><time>2026-04-25T09:29:27.999Z</time></trkpt><trkpt lat="44.533427202518475" lon="9.940383935080956"><ele>488.0</ele><time>2026-04-25T09:29:28.999Z</time></trkpt><trkpt lat="44.533313911311595" lon="9.940567036413567"><ele>488.0</ele><time>2026-04-25T09:29:29.999Z</time></trkpt><trkpt lat="44.53320417332834" lon="9.9407521478136"><ele>488.0</ele><time>2026-04-25T09:29:30.999Z</time></trkpt><trkpt lat="44.53311332659573" lon="9.940913333080777"><ele>488.0</ele><time>2026-04-25T09:29:31.999Z</time></trkpt><trkpt lat="44.53307131572162" lon="9.94107428527858"><ele>488.0</ele><time>2026-04-25T09:29:32.999Z</time></trkpt><trkpt lat="44.53307069855803" lon="9.941274991896396"><ele>485.25</ele><time>2026-04-25T09:29:33.999Z</time></trkpt><trkpt lat="44.53311298797129" lon="9.941487667186585"><ele>482.5</ele><time>2026-04-25T09:29:34.999Z</time></trkpt><trkpt lat="44.53305988975617" lon="9.941644428090415"><ele>479.75</ele><time>2026-04-25T09:29:35.999Z</time></trkpt><trkpt lat="44.532969798558696" lon="9.941752619014885"><ele>477.0</ele><time>2026-04-25T09:29:36.999Z</time></trkpt><trkpt lat="44.532824824599935" lon="9.94190256266627"><ele>476.33333333333337</ele><time>2026-04-25T09:29:37.999Z</time></trkpt><trkpt lat="44.53267231542724" lon="9.94208519517252"><ele>475.6666666666667</ele><time>2026-04-25T09:29:38.999Z</time></trkpt><trkpt lat="44.532525231362314" lon="9.94224233496806"><ele>475.0</ele><time>2026-04-25T09:29:39.999Z</time></trkpt><trkpt lat="44.532387353052826" lon="9.94235990938862"><ele>475.0</ele><time>2026-04-25T09:29:40.999Z</time></trkpt><trkpt lat="44.53224751101025" lon="9.942456470084764"><ele>475.0</ele><time>2026-04-25T09:29:41.999Z</time></trkpt><trkpt lat="44.5320854920278" lon="9.942544716276707"><ele>475.0</ele><time>2026-04-25T09:29:42.999Z</time></trkpt><trkpt lat="44.531939736709326" lon="9.942631241728416"><ele>475.0</ele><time>2026-04-25T09:29:43.999Z</time></trkpt><trkpt lat="44.53182179977343" lon="9.942697189400963"><ele>475.0</ele><time>2026-04-25T09:29:44.999Z</time></trkpt><trkpt lat="44.531738459747956" lon="9.942789352209525"><ele>475.0</ele><time>2026-04-25T09:29:45.999Z</time></trkpt><trkpt lat="44.531708420808236" lon="9.942950948998545"><ele>475.0</ele><time>2026-04-25T09:29:46.999Z</time></trkpt><trkpt lat="44.53172102320369" lon="9.943185086692115"><ele>470.6666666666667</ele><time>2026-04-25T09:29:47.999Z</time></trkpt><trkpt lat="44.531724361846095" lon="9.94343867868275"><ele>466.33333333333337</ele><time>2026-04-25T09:29:48.999Z</time></trkpt><trkpt lat="44.531688697421515" lon="9.943636322858426"><ele>462.0</ele><time>2026-04-25T09:29:49.999Z</time></trkpt><trkpt lat="44.53161333495314" lon="9.943785740898369"><ele>462.0</ele><time>2026-04-25T09:29:50.999Z</time></trkpt><trkpt lat="44.531488923581044" lon="9.94392597337513"><ele>462.0</ele><time>2026-04-25T09:29:51.999Z</time></trkpt><trkpt lat="44.53135433397501" lon="9.94411748414871"><ele>462.0</ele><time>2026-04-25T09:29:52.999Z</time></trkpt><trkpt lat="44.53119252420814" lon="9.944298183247277"><ele>462.66666666666663</ele><time>2026-04-25T09:29:53.999Z</time></trkpt><trkpt lat="44.5310431974682" lon="9.944485136333292"><ele>463.3333333333333</ele><time>2026-04-25T09:29:54.999Z</time></trkpt><trkpt lat="44.530915022088365" lon="9.944641468580437"><ele>464.0</ele><time>2026-04-25T09:29:55.999Z</time></trkpt><trkpt lat="44.53082602841549" lon="9.944752758738002"><ele>464.0</ele><time>2026-04-25T09:29:56.999Z</time></trkpt><trkpt lat="44.5307621823238" lon="9.944842525417204"><ele>464.0</ele><time>2026-04-25T09:29:57.999Z</time></trkpt><trkpt lat="44.53069406916172" lon="9.944951693367225"><ele>464.0</ele><time>2026-04-25T09:29:59.999Z</time></trkpt><trkpt lat="44.53072588893468" lon="9.945063114382338"><ele>464.0</ele><time>2026-04-25T09:30:00.999Z</time></trkpt><trkpt lat="44.530760585403414" lon="9.94519283566124"><ele>464.0</ele><time>2026-04-25T09:30:01.999Z</time></trkpt><trkpt lat="44.53079917775711" lon="9.945367284450748"><ele>463.3333333333333</ele><time>2026-04-25T09:30:02.999Z</time></trkpt><trkpt lat="44.53082990128282" lon="9.945584254446342"><ele>462.66666666666663</ele><time>2026-04-25T09:30:03.999Z</time></trkpt><trkpt lat="44.530866116890756" lon="9.945825597743127"><ele>462.0</ele><time>2026-04-25T09:30:04.999Z</time></trkpt><trkpt lat="44.53089661921115" lon="9.946033044022682"><ele>459.20000000000005</ele><time>2026-04-25T09:30:05.999Z</time></trkpt><trkpt lat="44.530896634165266" lon="9.946226414937971"><ele>456.40000000000003</ele><time>2026-04-25T09:30:06.999Z</time></trkpt><trkpt lat="44.53090450542257" lon="9.946366842910892"><ele>453.59999999999997</ele><time>2026-04-25T09:30:07.999Z</time></trkpt><trkpt lat="44.53088307482236" lon="9.946493983137367"><ele>450.79999999999995</ele><time>2026-04-25T09:30:08.999Z</time></trkpt><trkpt lat="44.53079071222999" lon="9.946560799002501"><ele>448.0</ele><time>2026-04-25T09:30:09.999Z</time></trkpt><trkpt lat="44.53064737930773" lon="9.946595503329718"><ele>448.0</ele><time>2026-04-25T09:30:10.999Z</time></trkpt><trkpt lat="44.53046603451744" lon="9.94666757697352"><ele>448.0</ele><time>2026-04-25T09:30:11.999Z</time></trkpt><trkpt lat="44.530265862888164" lon="9.94671410179053"><ele>448.0</ele><time>2026-04-25T09:30:12.999Z</time></trkpt><trkpt lat="44.5300842658145" lon="9.946765558658402"><ele>444.6666666666667</ele><time>2026-04-25T09:30:13.999Z</time></trkpt><trkpt lat="44.529923126348606" lon="9.946829951833452"><ele>441.33333333333337</ele><time>2026-04-25T09:30:14.999Z</time></trkpt><trkpt lat="44.52977765288935" lon="9.946936826028391"><ele>438.0</ele><time>2026-04-25T09:30:15.999Z</time></trkpt><trkpt lat="44.52964492481853" lon="9.94708135667453"><ele>436.33333333333337</ele><time>2026-04-25T09:30:16.999Z</time></trkpt><trkpt lat="44.529523528434304" lon="9.94728445089267"><ele>434.6666666666667</ele><time>2026-04-25T09:30:17.999Z</time></trkpt><trkpt lat="44.529383289758975" lon="9.947452008579319"><ele>433.0</ele><time>2026-04-25T09:30:18.999Z</time></trkpt><trkpt lat="44.529247519061485" lon="9.947634029746988"><ele>433.0</ele><time>2026-04-25T09:30:20Z</time></trkpt><trkpt lat="44.529111188903556" lon="9.947814904322447"><ele>433.0</ele><time>2026-04-25T09:30:21Z</time></trkpt><trkpt lat="44.52899494600284" lon="9.947999938593084"><ele>433.0</ele><time>2026-04-25T09:30:22Z</time></trkpt><trkpt lat="44.52887291476889" lon="9.948153323915303"><ele>433.0</ele><time>2026-04-25T09:30:23Z</time></trkpt><trkpt lat="44.5287707245248" lon="9.948295653304417"><ele>433.0</ele><time>2026-04-25T09:30:24Z</time></trkpt><trkpt lat="44.528672149989156" lon="9.94843850025411"><ele>433.0</ele><time>2026-04-25T09:30:25Z</time></trkpt><trkpt lat="44.528562508981565" lon="9.948555983182672"><ele>433.0</ele><time>2026-04-25T09:30:26Z</time></trkpt><trkpt lat="44.52845206074127" lon="9.948650216297827"><ele>431.0</ele><time>2026-04-25T09:30:27Z</time></trkpt><trkpt lat="44.52832165424966" lon="9.948733516992714"><ele>429.0</ele><time>2026-04-25T09:30:28Z</time></trkpt><trkpt lat="44.52818703842725" lon="9.948832003032372"><ele>427.0</ele><time>2026-04-25T09:30:29Z</time></trkpt><trkpt lat="44.52806223375355" lon="9.948905735922922"><ele>425.0</ele><time>2026-04-25T09:30:30Z</time></trkpt><trkpt lat="44.527934524661774" lon="9.948955056996903"><ele>426.3333333333333</ele><time>2026-04-25T09:30:31Z</time></trkpt><trkpt lat="44.527794843693755" lon="9.94894371122474"><ele>427.66666666666663</ele><time>2026-04-25T09:30:32Z</time></trkpt><trkpt lat="44.527636386386135" lon="9.948927153098959"><ele>429.0</ele><time>2026-04-25T09:30:33Z</time></trkpt><trkpt lat="44.52748544634792" lon="9.948964509634934"><ele>429.0</ele><time>2026-04-25T09:30:34Z</time></trkpt><trkpt lat="44.52733635259641" lon="9.949065320801077"><ele>429.0</ele><time>2026-04-25T09:30:35Z</time></trkpt><trkpt lat="44.52720442244617" lon="9.949181407082236"><ele>429.0</ele><time>2026-04-25T09:30:36Z</time></trkpt><trkpt lat="44.52712510843616" lon="9.949268484072386"><ele>429.0</ele><time>2026-04-25T09:30:37Z</time></trkpt><trkpt lat="44.527087898459285" lon="9.949344521570847"><ele>424.0</ele><time>2026-04-25T09:30:38Z</time></trkpt><trkpt lat="44.52705822088721" lon="9.949441864459244"><ele>419.0</ele><time>2026-04-25T09:30:39Z</time></trkpt><trkpt lat="44.527086933550606" lon="9.949551829860448"><ele>414.0</ele><time>2026-04-25T09:30:40Z</time></trkpt><trkpt lat="44.527166478232054" lon="9.949615343039943"><ele>409.0</ele><time>2026-04-25T09:30:41Z</time></trkpt><trkpt lat="44.52728355543287" lon="9.949562212994707"><ele>404.0</ele><time>2026-04-25T09:30:42Z</time></trkpt><trkpt lat="44.527371884383435" lon="9.949438463186613"><ele>404.0</ele><time>2026-04-25T09:30:43Z</time></trkpt><trkpt lat="44.52747166119711" lon="9.94930153189299"><ele>404.0</ele><time>2026-04-25T09:30:44Z</time></trkpt><trkpt lat="44.527581903137715" lon="9.949240688187997"><ele>404.0</ele><time>2026-04-25T09:30:45Z</time></trkpt><trkpt lat="44.52770582436734" lon="9.949327481003973"><ele>404.0</ele><time>2026-04-25T09:30:46Z</time></trkpt><trkpt lat="44.52782391040703" lon="9.949448331999838"><ele>403.3333333333333</ele><time>2026-04-25T09:30:47Z</time></trkpt><trkpt lat="44.52797621318071" lon="9.949521399733282"><ele>402.66666666666663</ele><time>2026-04-25T09:30:48Z</time></trkpt><trkpt lat="44.5281469371199" lon="9.949574733399087"><ele>402.0</ele><time>2026-04-25T09:30:49Z</time></trkpt><trkpt lat="44.52831590621267" lon="9.94958925732191"><ele>402.0</ele><time>2026-04-25T09:30:50Z</time></trkpt><trkpt lat="44.52846128379131" lon="9.949585153359243"><ele>402.0</ele><time>2026-04-25T09:30:51Z</time></trkpt><trkpt lat="44.528573872749654" lon="9.949610670848292"><ele>402.0</ele><time>2026-04-25T09:30:52Z</time></trkpt><trkpt lat="44.5286320622054" lon="9.949711535811593"><ele>402.0</ele><time>2026-04-25T09:30:54Z</time></trkpt><trkpt lat="44.52857897393047" lon="9.94980141423511"><ele>402.0</ele><time>2026-04-25T09:30:55Z</time></trkpt><trkpt lat="44.52848292394114" lon="9.949839160561611"><ele>402.0</ele><time>2026-04-25T09:30:56Z</time></trkpt><trkpt lat="44.52834598853229" lon="9.94980076385271"><ele>402.0</ele><time>2026-04-25T09:30:57Z</time></trkpt><trkpt lat="44.52818959187047" lon="9.949751815915594"><ele>402.0</ele><time>2026-04-25T09:30:58Z</time></trkpt><trkpt lat="44.52803990999388" lon="9.94974137425522"><ele>402.0</ele><time>2026-04-25T09:30:59Z</time></trkpt><trkpt lat="44.52790880077781" lon="9.949731506459013"><ele>402.0</ele><time>2026-04-25T09:31:00Z</time></trkpt><trkpt lat="44.527738114645054" lon="9.949783174534002"><ele>402.0</ele><time>2026-04-25T09:31:01Z</time></trkpt><trkpt lat="44.52759894341515" lon="9.949910374881641"><ele>400.0</ele><time>2026-04-25T09:31:02Z</time></trkpt><trkpt lat="44.527507471090004" lon="9.95006640749407"><ele>398.0</ele><time>2026-04-25T09:31:03Z</time></trkpt><trkpt lat="44.5274604848878" lon="9.95025891713585"><ele>396.0</ele><time>2026-04-25T09:31:04Z</time></trkpt><trkpt lat="44.527422644891544" lon="9.950464888774695"><ele>394.0</ele><time>2026-04-25T09:31:05Z</time></trkpt><trkpt lat="44.5273874970327" lon="9.950676681322891"><ele>398.25</ele><time>2026-04-25T09:31:06Z</time></trkpt><trkpt lat="44.5273528601854" lon="9.950882568266575"><ele>402.5</ele><time>2026-04-25T09:31:07Z</time></trkpt><trkpt lat="44.5273251405625" lon="9.951088964453117"><ele>406.75</ele><time>2026-04-25T09:31:08Z</time></trkpt><trkpt lat="44.52734750090915" lon="9.951294853161812"><ele>411.0</ele><time>2026-04-25T09:31:09Z</time></trkpt><trkpt lat="44.527392758299825" lon="9.951495987546275"><ele>411.0</ele><time>2026-04-25T09:31:10Z</time></trkpt><trkpt lat="44.52749840712631" lon="9.9516684013597"><ele>411.0</ele><time>2026-04-25T09:31:11Z</time></trkpt><trkpt lat="44.52763356385586" lon="9.95178689138467"><ele>411.0</ele><time>2026-04-25T09:31:12Z</time></trkpt><trkpt lat="44.527795622294356" lon="9.95186017044747"><ele>411.25</ele><time>2026-04-25T09:31:13Z</time></trkpt><trkpt lat="44.52794230474042" lon="9.951960685219392"><ele>411.5</ele><time>2026-04-25T09:31:14Z</time></trkpt><trkpt lat="44.528024858659755" lon="9.95207561116753"><ele>411.75</ele><time>2026-04-25T09:31:15Z</time></trkpt><trkpt lat="44.52807592751776" lon="9.952184772683426"><ele>412.0</ele><time>2026-04-25T09:31:16Z</time></trkpt><trkpt lat="44.52812213199775" lon="9.952288909055076"><ele>412.0</ele><time>2026-04-25T09:31:17Z</time></trkpt><trkpt lat="44.52818497006254" lon="9.952400417882528"><ele>412.0</ele><time>2026-04-25T09:31:18Z</time></trkpt><trkpt lat="44.5282291449534" lon="9.95252274127881"><ele>412.0</ele><time>2026-04-25T09:31:19Z</time></trkpt><trkpt lat="44.528289134576575" lon="9.952648482490586"><ele>412.0</ele><time>2026-04-25T09:31:20Z</time></trkpt><trkpt lat="44.52835828912075" lon="9.952777537197026"><ele>412.0</ele><time>2026-04-25T09:31:21Z</time></trkpt><trkpt lat="44.528430335099756" lon="9.952903324586298"><ele>414.8</ele><time>2026-04-25T09:31:22Z</time></trkpt><trkpt lat="44.528514077187545" lon="9.95302634743298"><ele>417.6</ele><time>2026-04-25T09:31:23Z</time></trkpt><trkpt lat="44.52861425069113" lon="9.9531254295667"><ele>420.40000000000003</ele><time>2026-04-25T09:31:24Z</time></trkpt><trkpt lat="44.52869241336041" lon="9.953218792755083"><ele>423.20000000000005</ele><time>2026-04-25T09:31:25Z</time></trkpt><trkpt lat="44.52871770565932" lon="9.95332701905038"><ele>426.0</ele><time>2026-04-25T09:31:26Z</time></trkpt><trkpt lat="44.52864415268145" lon="9.9534226866117"><ele>426.0</ele><time>2026-04-25T09:31:27Z</time></trkpt><trkpt lat="44.52855404614134" lon="9.953495231716936"><ele>426.0</ele><time>2026-04-25T09:31:28Z</time></trkpt><trkpt lat="44.52844620158622" lon="9.953468932611381"><ele>426.0</ele><time>2026-04-25T09:31:29Z</time></trkpt><trkpt lat="44.528327079902375" lon="9.953358250647682"><ele>426.0</ele><time>2026-04-25T09:31:29.999Z</time></trkpt><trkpt lat="44.528272183289594" lon="9.953178576983573"><ele>426.0</ele><time>2026-04-25T09:31:30.999Z</time></trkpt><trkpt lat="44.52826432845273" lon="9.953062565607834"><ele>426.0</ele><time>2026-04-25T09:31:31.999Z</time></trkpt><trkpt lat="44.52813305148814" lon="9.952865056077144"><ele>426.0</ele><time>2026-04-25T09:31:32.999Z</time></trkpt><trkpt lat="44.528009500923744" lon="9.9527271409698"><ele>426.0</ele><time>2026-04-25T09:31:33.999Z</time></trkpt><trkpt lat="44.527855461454536" lon="9.95263402733978"><ele>426.4</ele><time>2026-04-25T09:31:34.999Z</time></trkpt><trkpt lat="44.527723741355295" lon="9.952548891343822"><ele>426.8</ele><time>2026-04-25T09:31:35.999Z</time></trkpt><trkpt lat="44.527621443753006" lon="9.952490112923492"><ele>427.19999999999993</ele><time>2026-04-25T09:31:36.999Z</time></trkpt><trkpt lat="44.52754737763199" lon="9.952499084320934"><ele>427.59999999999997</ele><time>2026-04-25T09:31:37.999Z</time></trkpt><trkpt lat="44.52748329411023" lon="9.952567884135854"><ele>428.0</ele><time>2026-04-25T09:31:38.999Z</time></trkpt><trkpt lat="44.527468875255586" lon="9.95269938455555"><ele>431.0</ele><time>2026-04-25T09:31:39.999Z</time></trkpt><trkpt lat="44.527537660384084" lon="9.952860853378775"><ele>434.0</ele><time>2026-04-25T09:31:40.999Z</time></trkpt><trkpt lat="44.52764042971579" lon="9.953041910552725"><ele>437.0</ele><time>2026-04-25T09:31:41.999Z</time></trkpt><trkpt lat="44.52771105093752" lon="9.953238855527374"><ele>440.0</ele><time>2026-04-25T09:31:42.999Z</time></trkpt><trkpt lat="44.52768607496453" lon="9.95343382439744"><ele>443.0</ele><time>2026-04-25T09:31:43.999Z</time></trkpt><trkpt lat="44.527617654318405" lon="9.953603141479912"><ele>446.0</ele><time>2026-04-25T09:31:44.999Z</time></trkpt><trkpt lat="44.52751389958828" lon="9.953701102631547"><ele>449.0</ele><time>2026-04-25T09:31:45.999Z</time></trkpt><trkpt lat="44.527410869200146" lon="9.953745958807911"><ele>449.0</ele><time>2026-04-25T09:31:46.999Z</time></trkpt><trkpt lat="44.52731741859844" lon="9.953707445225534"><ele>449.0</ele><time>2026-04-25T09:31:47.999Z</time></trkpt><trkpt lat="44.527239708853465" lon="9.953587620061262"><ele>449.0</ele><time>2026-04-25T09:31:48.999Z</time></trkpt><trkpt lat="44.52716776375093" lon="9.953391051660402"><ele>449.0</ele><time>2026-04-25T09:31:49.999Z</time></trkpt><trkpt lat="44.527092024554534" lon="9.953147286740803"><ele>449.0</ele><time>2026-04-25T09:31:50.999Z</time></trkpt><trkpt lat="44.5270103738822" lon="9.952909226153183"><ele>449.0</ele><time>2026-04-25T09:31:51.999Z</time></trkpt><trkpt lat="44.52693779927319" lon="9.952688617640938"><ele>449.0</ele><time>2026-04-25T09:31:52.999Z</time></trkpt><trkpt lat="44.52680101896418" lon="9.952498395250185"><ele>449.0</ele><time>2026-04-25T09:31:53.999Z</time></trkpt><trkpt lat="44.52663604960008" lon="9.952316361680728"><ele>449.0</ele><time>2026-04-25T09:31:54.999Z</time></trkpt><trkpt lat="44.52648522462614" lon="9.952176529445744"><ele>449.0</ele><time>2026-04-25T09:31:55.999Z</time></trkpt><trkpt lat="44.52612839563241" lon="9.952064291002069"><ele>451.66666666666663</ele><time>2026-04-25T09:31:57.999Z</time></trkpt><trkpt lat="44.52594578148493" lon="9.95208624259399"><ele>454.33333333333337</ele><time>2026-04-25T09:31:58.999Z</time></trkpt><trkpt lat="44.525760805330854" lon="9.952145810577525"><ele>457.0</ele><time>2026-04-25T09:31:59.999Z</time></trkpt><trkpt lat="44.52558670592181" lon="9.952255481628553"><ele>457.0</ele><time>2026-04-25T09:32:00.999Z</time></trkpt><trkpt lat="44.52542044605527" lon="9.95238923629197"><ele>457.0</ele><time>2026-04-25T09:32:01.999Z</time></trkpt><trkpt lat="44.52530027467931" lon="9.952539947301466"><ele>457.0</ele><time>2026-04-25T09:32:02.999Z</time></trkpt><trkpt lat="44.52521181556341" lon="9.952690649992533"><ele>457.33333333333337</ele><time>2026-04-25T09:32:03.999Z</time></trkpt><trkpt lat="44.52518420994865" lon="9.952821878527416"><ele>457.6666666666667</ele><time>2026-04-25T09:32:04.999Z</time></trkpt><trkpt lat="44.52519225391714" lon="9.95291621320667"><ele>458.0</ele><time>2026-04-25T09:32:05.999Z</time></trkpt><trkpt lat="44.525286329957204" lon="9.952958353969256"><ele>458.33333333333337</ele><time>2026-04-25T09:32:06.999Z</time></trkpt><trkpt lat="44.525365353665215" lon="9.952950056184596"><ele>458.6666666666667</ele><time>2026-04-25T09:32:07.999Z</time></trkpt><trkpt lat="44.525428695841335" lon="9.952856536456716"><ele>459.0</ele><time>2026-04-25T09:32:08.999Z</time></trkpt><trkpt lat="44.52548328643637" lon="9.9527114105102"><ele>458.5</ele><time>2026-04-25T09:32:09.999Z</time></trkpt><trkpt lat="44.52556524324943" lon="9.952573641009712"><ele>458.0</ele><time>2026-04-25T09:32:10.999Z</time></trkpt><trkpt lat="44.52568973273672" lon="9.952499010967584"><ele>457.5</ele><time>2026-04-25T09:32:11.999Z</time></trkpt><trkpt lat="44.52582624023289" lon="9.952564289133171"><ele>457.0</ele><time>2026-04-25T09:32:12.999Z</time></trkpt><trkpt lat="44.52598642250966" lon="9.952646412342222"><ele>459.6666666666667</ele><time>2026-04-25T09:32:13.999Z</time></trkpt><trkpt lat="44.526166014875734" lon="9.95275730793035"><ele>462.33333333333337</ele><time>2026-04-25T09:32:14.999Z</time></trkpt><trkpt lat="44.52633170034101" lon="9.952891765082747"><ele>465.0</ele><time>2026-04-25T09:32:15.999Z</time></trkpt><trkpt lat="44.52646611021226" lon="9.953043271860112"><ele>465.0</ele><time>2026-04-25T09:32:16.999Z</time></trkpt><trkpt lat="44.526537781085906" lon="9.953195537634729"><ele>465.0</ele><time>2026-04-25T09:32:17.999Z</time></trkpt><trkpt lat="44.52656591308727" lon="9.953346688069344"><ele>465.0</ele><time>2026-04-25T09:32:18.999Z</time></trkpt><trkpt lat="44.5265496529432" lon="9.953436073622955"><ele>465.0</ele><time>2026-04-25T09:32:19.999Z</time></trkpt><trkpt lat="44.5264441926433" lon="9.95341153783023"><ele>465.0</ele><time>2026-04-25T09:32:21.999Z</time></trkpt><trkpt lat="44.5263903724978" lon="9.953324808877875"><ele>465.0</ele><time>2026-04-25T09:32:22.999Z</time></trkpt><trkpt lat="44.52632089917817" lon="9.95318686669318"><ele>465.0</ele><time>2026-04-25T09:32:23.999Z</time></trkpt><trkpt lat="44.526241576528314" lon="9.953032292825739"><ele>465.0</ele><time>2026-04-25T09:32:24.999Z</time></trkpt><trkpt lat="44.52610477322244" lon="9.952932880481098"><ele>465.0</ele><time>2026-04-25T09:32:26Z</time></trkpt><trkpt lat="44.525930628449245" lon="9.952894226905414"><ele>467.5</ele><time>2026-04-25T09:32:27Z</time></trkpt><trkpt lat="44.52576791676236" lon="9.952933386104203"><ele>470.0</ele><time>2026-04-25T09:32:28Z</time></trkpt><trkpt lat="44.52566347168022" lon="9.953056620459641"><ele>472.5</ele><time>2026-04-25T09:32:29Z</time></trkpt><trkpt lat="44.52560581638464" lon="9.953145164130104"><ele>475.0</ele><time>2026-04-25T09:32:30Z</time></trkpt><trkpt lat="44.52559390094802" lon="9.953240502284029"><ele>475.0</ele><time>2026-04-25T09:32:31Z</time></trkpt><trkpt lat="44.5256726669119" lon="9.953345953257786"><ele>475.0</ele><time>2026-04-25T09:32:32Z</time></trkpt><trkpt lat="44.52575949818428" lon="9.953387268288017"><ele>475.0</ele><time>2026-04-25T09:32:33Z</time></trkpt><trkpt lat="44.52586323863288" lon="9.953309909329242"><ele>475.0</ele><time>2026-04-25T09:32:34Z</time></trkpt><trkpt lat="44.52597830549543" lon="9.95324583295999"><ele>475.0</ele><time>2026-04-25T09:32:35Z</time></trkpt><trkpt lat="44.52608738301169" lon="9.953288171280446"><ele>477.6666666666667</ele><time>2026-04-25T09:32:36Z</time></trkpt><trkpt lat="44.526183185998185" lon="9.95340706241652"><ele>480.33333333333337</ele><time>2026-04-25T09:32:37Z</time></trkpt><trkpt lat="44.52626117830576" lon="9.953588671931414"><ele>483.0</ele><time>2026-04-25T09:32:38Z</time></trkpt><trkpt lat="44.52637747614292" lon="9.953805495024357"><ele>483.0</ele><time>2026-04-25T09:32:39Z</time></trkpt><trkpt lat="44.526473686706396" lon="9.954013254255099"><ele>483.0</ele><time>2026-04-25T09:32:40Z</time></trkpt><trkpt lat="44.52654619255793" lon="9.954234038333158"><ele>483.0</ele><time>2026-04-25T09:32:41Z</time></trkpt><trkpt lat="44.52663005973428" lon="9.954466558128788"><ele>487.0</ele><time>2026-04-25T09:32:42Z</time></trkpt><trkpt lat="44.52672727418144" lon="9.954724350129165"><ele>491.0</ele><time>2026-04-25T09:32:43Z</time></trkpt><trkpt lat="44.526759905738686" lon="9.95499408195537"><ele>495.0</ele><time>2026-04-25T09:32:44Z</time></trkpt><trkpt lat="44.526796732527885" lon="9.955241545652143"><ele>493.66666666666663</ele><time>2026-04-25T09:32:45Z</time></trkpt><trkpt lat="44.52683544310548" lon="9.955417884317082"><ele>492.3333333333333</ele><time>2026-04-25T09:32:46Z</time></trkpt><trkpt lat="44.526952416571326" lon="9.955607671558147"><ele>491.0</ele><time>2026-04-25T09:32:47Z</time></trkpt><trkpt lat="44.527083710055486" lon="9.955713445146996"><ele>491.0</ele><time>2026-04-25T09:32:48Z</time></trkpt><trkpt lat="44.52720635670389" lon="9.955798276295571"><ele>491.0</ele><time>2026-04-25T09:32:49Z</time></trkpt><trkpt lat="44.527268604024" lon="9.955830551362961"><ele>491.0</ele><time>2026-04-25T09:32:50Z</time></trkpt><trkpt lat="44.52725842496937" lon="9.955996909266357"><ele>491.0</ele><time>2026-04-25T09:32:51Z</time></trkpt><trkpt lat="44.52721769216864" lon="9.956109520820814"><ele>491.0</ele><time>2026-04-25T09:32:52Z</time></trkpt><trkpt lat="44.527103424703796" lon="9.956153035562927"><ele>494.3333333333333</ele><time>2026-04-25T09:32:53Z</time></trkpt><trkpt lat="44.52695335259825" lon="9.956095068923625"><ele>497.66666666666663</ele><time>2026-04-25T09:32:54Z</time></trkpt><trkpt lat="44.526817343850325" lon="9.955966779225891"><ele>501.0</ele><time>2026-04-25T09:32:55Z</time></trkpt><trkpt lat="44.52670903308649" lon="9.955790557435707"><ele>502.66666666666663</ele><time>2026-04-25T09:32:56Z</time></trkpt><trkpt lat="44.52657865466577" lon="9.955545403844662"><ele>504.3333333333333</ele><time>2026-04-25T09:32:57Z</time></trkpt><trkpt lat="44.52646923986845" lon="9.95531245262521"><ele>506.0</ele><time>2026-04-25T09:32:58Z</time></trkpt><trkpt lat="44.52636288501688" lon="9.955141229915325"><ele>507.3333333333333</ele><time>2026-04-25T09:32:59Z</time></trkpt><trkpt lat="44.526248632934994" lon="9.955019610233522"><ele>508.66666666666663</ele><time>2026-04-25T09:33:00Z</time></trkpt><trkpt lat="44.52610025628569" lon="9.954922253251864"><ele>510.0</ele><time>2026-04-25T09:33:01Z</time></trkpt><trkpt lat="44.525929535653894" lon="9.954881320182439"><ele>510.0</ele><time>2026-04-25T09:33:02Z</time></trkpt><trkpt lat="44.52577728334923" lon="9.954930589757003"><ele>510.0</ele><time>2026-04-25T09:33:03Z</time></trkpt><trkpt lat="44.525644576305716" lon="9.955042942747971"><ele>510.0</ele><time>2026-04-25T09:33:04Z</time></trkpt><trkpt lat="44.525535972581" lon="9.955211642776636"><ele>513.6666666666666</ele><time>2026-04-25T09:33:05Z</time></trkpt><trkpt lat="44.52546585666269" lon="9.95546313340434"><ele>517.3333333333333</ele><time>2026-04-25T09:33:06Z</time></trkpt><trkpt lat="44.52542265196215" lon="9.95577740453208"><ele>521.0</ele><time>2026-04-25T09:33:07Z</time></trkpt><trkpt lat="44.525316784471975" lon="9.95609743850311"><ele>521.3333333333333</ele><time>2026-04-25T09:33:08Z</time></trkpt><trkpt lat="44.52523330329005" lon="9.956387691429756"><ele>521.6666666666666</ele><time>2026-04-25T09:33:09Z</time></trkpt><trkpt lat="44.52513222262757" lon="9.9566451078017"><ele>522.0</ele><time>2026-04-25T09:33:10Z</time></trkpt><trkpt lat="44.52498801037497" lon="9.95683252610653"><ele>533.0</ele><time>2026-04-25T09:33:11Z</time></trkpt><trkpt lat="44.52479216500895" lon="9.956999587673696"><ele>544.0</ele><time>2026-04-25T09:33:12Z</time></trkpt><trkpt lat="44.524572952508066" lon="9.957187275878265"><ele>545.5</ele><time>2026-04-25T09:33:13Z</time></trkpt><trkpt lat="44.52434554998037" lon="9.957369122332045"><ele>547.0</ele><time>2026-04-25T09:33:14Z</time></trkpt><trkpt lat="44.52412679522355" lon="9.957579727970005"><ele>547.0</ele><time>2026-04-25T09:33:15Z</time></trkpt><trkpt lat="44.52391849070792" lon="9.957780977273218"><ele>547.0</ele><time>2026-04-25T09:33:16Z</time></trkpt><trkpt lat="44.52373603775982" lon="9.957963156628873"><ele>546.0</ele><time>2026-04-25T09:33:17Z</time></trkpt><trkpt lat="44.52358298898672" lon="9.958129290807317"><ele>545.0</ele><time>2026-04-25T09:33:18Z</time></trkpt><trkpt lat="44.523443037316156" lon="9.958334042416979"><ele>544.0</ele><time>2026-04-25T09:33:19Z</time></trkpt><trkpt lat="44.5233267908459" lon="9.958594230135896"><ele>544.0</ele><time>2026-04-25T09:33:20Z</time></trkpt><trkpt lat="44.52325173850373" lon="9.958855779688996"><ele>544.0</ele><time>2026-04-25T09:33:21Z</time></trkpt><trkpt lat="44.52320511528413" lon="9.959137831712079"><ele>544.0</ele><time>2026-04-25T09:33:22Z</time></trkpt><trkpt lat="44.523203625811774" lon="9.959458022086128"><ele>545.0</ele><time>2026-04-25T09:33:23Z</time></trkpt><trkpt lat="44.52322278217061" lon="9.959783756347912"><ele>546.0</ele><time>2026-04-25T09:33:24Z</time></trkpt><trkpt lat="44.523200373902945" lon="9.960050048425467"><ele>547.0</ele><time>2026-04-25T09:33:25Z</time></trkpt><trkpt lat="44.52317364755002" lon="9.960320340589814"><ele>549.3333333333334</ele><time>2026-04-25T09:33:26Z</time></trkpt><trkpt lat="44.52311532890382" lon="9.960611449329477"><ele>551.6666666666666</ele><time>2026-04-25T09:33:27Z</time></trkpt><trkpt lat="44.52305730918423" lon="9.96087007663638"><ele>554.0</ele><time>2026-04-25T09:33:28Z</time></trkpt><trkpt lat="44.52302309729141" lon="9.961088277733388"><ele>555.75</ele><time>2026-04-25T09:33:29Z</time></trkpt><trkpt lat="44.52298421456628" lon="9.961278475284901"><ele>557.5</ele><time>2026-04-25T09:33:30Z</time></trkpt><trkpt lat="44.52296230364078" lon="9.961461514412814"><ele>559.25</ele><time>2026-04-25T09:33:31Z</time></trkpt><trkpt lat="44.52297365736302" lon="9.961632800638753"><ele>561.0</ele><time>2026-04-25T09:33:32Z</time></trkpt><trkpt lat="44.52301074882703" lon="9.961794937718707"><ele>563.25</ele><time>2026-04-25T09:33:33Z</time></trkpt><trkpt lat="44.523070677243524" lon="9.961924935765689"><ele>565.5</ele><time>2026-04-25T09:33:34Z</time></trkpt><trkpt lat="44.52316283027604" lon="9.96205727752387"><ele>567.75</ele><time>2026-04-25T09:33:34.999Z</time></trkpt><trkpt lat="44.52328474353111" lon="9.962167491465832"><ele>570.0</ele><time>2026-04-25T09:33:35.999Z</time></trkpt><trkpt lat="44.52342075569188" lon="9.962244568276068"><ele>570.0</ele><time>2026-04-25T09:33:36.999Z</time></trkpt><trkpt lat="44.52356555052552" lon="9.962279946482274"><ele>570.0</ele><time>2026-04-25T09:33:37.999Z</time></trkpt><trkpt lat="44.523712787757724" lon="9.962299898004394"><ele>570.0</ele><time>2026-04-25T09:33:38.999Z</time></trkpt><trkpt lat="44.523830871037276" lon="9.962316482446578"><ele>570.0</ele><time>2026-04-25T09:33:39.999Z</time></trkpt><trkpt lat="44.523933272626955" lon="9.962357210441793"><ele>569.5</ele><time>2026-04-25T09:33:40.999Z</time></trkpt><trkpt lat="44.52403131157758" lon="9.962430898017894"><ele>569.0</ele><time>2026-04-25T09:33:41.999Z</time></trkpt><trkpt lat="44.52411024735405" lon="9.962562087793296"><ele>568.5</ele><time>2026-04-25T09:33:42.999Z</time></trkpt><trkpt lat="44.52413053807884" lon="9.962758906315285"><ele>568.0</ele><time>2026-04-25T09:33:43.999Z</time></trkpt><trkpt lat="44.52412903032111" lon="9.962961152567697"><ele>568.0</ele><time>2026-04-25T09:33:44.999Z</time></trkpt><trkpt lat="44.52407098438954" lon="9.963148956251036"><ele>568.0</ele><time>2026-04-25T09:33:45.999Z</time></trkpt><trkpt lat="44.523960845332105" lon="9.963302838180404"><ele>568.0</ele><time>2026-04-25T09:33:46.999Z</time></trkpt><trkpt lat="44.5238131675504" lon="9.963482816825888"><ele>572.3333333333334</ele><time>2026-04-25T09:33:47.999Z</time></trkpt><trkpt lat="44.52366515435771" lon="9.963663840341786"><ele>576.6666666666666</ele><time>2026-04-25T09:33:48.999Z</time></trkpt><trkpt lat="44.52351915239677" lon="9.963831468563338"><ele>581.0</ele><time>2026-04-25T09:33:49.999Z</time></trkpt><trkpt lat="44.52339672782053" lon="9.963970111893644"><ele>581.0</ele><time>2026-04-25T09:33:50.999Z</time></trkpt><trkpt lat="44.523243716443396" lon="9.964136935956654"><ele>581.0</ele><time>2026-04-25T09:33:51.999Z</time></trkpt><trkpt lat="44.523118009057434" lon="9.964283200578052"><ele>581.0</ele><time>2026-04-25T09:33:52.999Z</time></trkpt><trkpt lat="44.52301547189206" lon="9.964431347231187"><ele>582.5</ele><time>2026-04-25T09:33:53.999Z</time></trkpt><trkpt lat="44.522907774618574" lon="9.96455141434315"><ele>584.0</ele><time>2026-04-25T09:33:54.999Z</time></trkpt><trkpt lat="44.52280104934396" lon="9.964674421917007"><ele>585.5</ele><time>2026-04-25T09:33:55.999Z</time></trkpt><trkpt lat="44.52269618442331" lon="9.964796791509036"><ele>587.0</ele><time>2026-04-25T09:33:56.999Z</time></trkpt><trkpt lat="44.52259409551041" lon="9.964914000251031"><ele>590.75</ele><time>2026-04-25T09:33:57.999Z</time></trkpt><trkpt lat="44.52249094209821" lon="9.96504000276003"><ele>594.5</ele><time>2026-04-25T09:33:58.999Z</time></trkpt><trkpt lat="44.52236951756739" lon="9.965141806306827"><ele>598.25</ele><time>2026-04-25T09:33:59.999Z</time></trkpt><trkpt lat="44.522263393603" lon="9.965261750750958"><ele>602.0</ele><time>2026-04-25T09:34:00.999Z</time></trkpt><trkpt lat="44.52217050341226" lon="9.96539301263539"><ele>601.25</ele><time>2026-04-25T09:34:01.999Z</time></trkpt><trkpt lat="44.522062772084645" lon="9.965510596185872"><ele>600.5</ele><time>2026-04-25T09:34:02.999Z</time></trkpt><trkpt lat="44.5219520109692" lon="9.96563002139443"><ele>599.75</ele><time>2026-04-25T09:34:03.999Z</time></trkpt><trkpt lat="44.52183112455413" lon="9.965740451292046"><ele>599.0</ele><time>2026-04-25T09:34:04.999Z</time></trkpt><trkpt lat="44.52171488306937" lon="9.965862502474994"><ele>604.5</ele><time>2026-04-25T09:34:05.999Z</time></trkpt><trkpt lat="44.521595938816056" lon="9.96598841715229"><ele>610.0</ele><time>2026-04-25T09:34:06.999Z</time></trkpt><trkpt lat="44.52147813577853" lon="9.96610945055853"><ele>615.5</ele><time>2026-04-25T09:34:07.999Z</time></trkpt><trkpt lat="44.52136446534053" lon="9.966191578135192"><ele>621.0</ele><time>2026-04-25T09:34:08.999Z</time></trkpt><trkpt lat="44.521274453123034" lon="9.966145420217645"><ele>619.25</ele><time>2026-04-25T09:34:09.999Z</time></trkpt><trkpt lat="44.521209791478576" lon="9.966061263539993"><ele>617.5</ele><time>2026-04-25T09:34:10.999Z</time></trkpt><trkpt lat="44.521145558152995" lon="9.965915720363345"><ele>615.75</ele><time>2026-04-25T09:34:11.999Z</time></trkpt><trkpt lat="44.52103295949152" lon="9.965774615776812"><ele>614.0</ele><time>2026-04-25T09:34:12.999Z</time></trkpt><trkpt lat="44.52092396874457" lon="9.96571715983282"><ele>614.0</ele><time>2026-04-25T09:34:13.999Z</time></trkpt><trkpt lat="44.52079068204036" lon="9.965686248956267"><ele>614.0</ele><time>2026-04-25T09:34:14.999Z</time></trkpt><trkpt lat="44.520656717277284" lon="9.965829011775025"><ele>614.0</ele><time>2026-04-25T09:34:15.999Z</time></trkpt><trkpt lat="44.520537165981445" lon="9.966026780817327"><ele>614.0</ele><time>2026-04-25T09:34:16.999Z</time></trkpt><trkpt lat="44.52043842931317" lon="9.966228553945951"><ele>614.0</ele><time>2026-04-25T09:34:17.999Z</time></trkpt><trkpt lat="44.520327325606246" lon="9.966417489681003"><ele>614.0</ele><time>2026-04-25T09:34:18.999Z</time></trkpt><trkpt lat="44.520202652429845" lon="9.966574014519518"><ele>614.0</ele><time>2026-04-25T09:34:19.999Z</time></trkpt><trkpt lat="44.5200798311492" lon="9.966711077759703"><ele>614.0</ele><time>2026-04-25T09:34:20.999Z</time></trkpt><trkpt lat="44.520011813344624" lon="9.966832374617203"><ele>614.0</ele><time>2026-04-25T09:34:21.999Z</time></trkpt><trkpt lat="44.51998339970226" lon="9.966950872075062"><ele>614.0</ele><time>2026-04-25T09:34:22.999Z</time></trkpt><trkpt lat="44.51997343803139" lon="9.967092767399182"><ele>614.0</ele><time>2026-04-25T09:34:23.999Z</time></trkpt><trkpt lat="44.52006009908875" lon="9.967251309865128"><ele>614.0</ele><time>2026-04-25T09:34:24.999Z</time></trkpt><trkpt lat="44.520153655820884" lon="9.967451871276085"><ele>614.0</ele><time>2026-04-25T09:34:25.999Z</time></trkpt><trkpt lat="44.520222643241134" lon="9.967667691192034"><ele>615.5</ele><time>2026-04-25T09:34:26.999Z</time></trkpt><trkpt lat="44.52024577672341" lon="9.967847979743162"><ele>617.0</ele><time>2026-04-25T09:34:27.999Z</time></trkpt><trkpt lat="44.52022008977258" lon="9.967984388279058"><ele>618.5</ele><time>2026-04-25T09:34:28.999Z</time></trkpt><trkpt lat="44.52017767206943" lon="9.96810356749655"><ele>620.0</ele><time>2026-04-25T09:34:29.999Z</time></trkpt><trkpt lat="44.520055401379864" lon="9.968190712235684"><ele>620.0</ele><time>2026-04-25T09:34:30.999Z</time></trkpt><trkpt lat="44.519940876598696" lon="9.968336833569321"><ele>620.0</ele><time>2026-04-25T09:34:32Z</time></trkpt><trkpt lat="44.51985495137237" lon="9.968459408856038"><ele>620.0</ele><time>2026-04-25T09:34:33Z</time></trkpt><trkpt lat="44.519828976871956" lon="9.96864356722625"><ele>620.0</ele><time>2026-04-25T09:34:34Z</time></trkpt><trkpt lat="44.519856827246244" lon="9.96887178606931"><ele>623.0</ele><time>2026-04-25T09:34:35Z</time></trkpt><trkpt lat="44.51995615215583" lon="9.969121061634459"><ele>626.0</ele><time>2026-04-25T09:34:36Z</time></trkpt><trkpt lat="44.52000673784187" lon="9.969364991641937"><ele>629.0</ele><time>2026-04-25T09:34:37Z</time></trkpt><trkpt lat="44.52000394059394" lon="9.969584073844167"><ele>630.0</ele><time>2026-04-25T09:34:38Z</time></trkpt><trkpt lat="44.51997767547757" lon="9.969856966859103"><ele>631.0</ele><time>2026-04-25T09:34:39Z</time></trkpt><trkpt lat="44.51999568121548" lon="9.970152386343225"><ele>632.0</ele><time>2026-04-25T09:34:40Z</time></trkpt><trkpt lat="44.52004583065631" lon="9.970464342926858"><ele>633.5</ele><time>2026-04-25T09:34:41Z</time></trkpt><trkpt lat="44.52008223920398" lon="9.970804201731731"><ele>635.0</ele><time>2026-04-25T09:34:42Z</time></trkpt><trkpt lat="44.520130681068174" lon="9.971178912894011"><ele>635.5</ele><time>2026-04-25T09:34:43Z</time></trkpt><trkpt lat="44.520177448512364" lon="9.971540358805242"><ele>636.0</ele><time>2026-04-25T09:34:44Z</time></trkpt><trkpt lat="44.52022144089513" lon="9.971878958004284"><ele>636.6666666666666</ele><time>2026-04-25T09:34:45Z</time></trkpt><trkpt lat="44.520266601290324" lon="9.972227132179848"><ele>637.3333333333333</ele><time>2026-04-25T09:34:46Z</time></trkpt><trkpt lat="44.520296987341176" lon="9.97236437034572"><ele>638.0</ele><time>2026-04-25T09:34:47Z</time></trkpt><trkpt lat="44.52032598200206" lon="9.972527688887427"><ele>643.0</ele><time>2026-04-25T09:34:48Z</time></trkpt><trkpt lat="44.52040483299004" lon="9.972615373807887"><ele>648.0</ele><time>2026-04-25T09:34:49Z</time></trkpt><trkpt lat="44.52052526650148" lon="9.97261442180573"><ele>653.0</ele><time>2026-04-25T09:34:50Z</time></trkpt><trkpt lat="44.52064102944049" lon="9.97256557570098"><ele>658.0</ele><time>2026-04-25T09:34:51Z</time></trkpt><trkpt lat="44.520730115439925" lon="9.972457435929924"><ele>658.0</ele><time>2026-04-25T09:34:52Z</time></trkpt><trkpt lat="44.52078518944015" lon="9.972292051182624"><ele>658.0</ele><time>2026-04-25T09:34:53Z</time></trkpt><trkpt lat="44.520804716901786" lon="9.972055251579734"><ele>658.0</ele><time>2026-04-25T09:34:54Z</time></trkpt><trkpt lat="44.52081124238622" lon="9.971757298461448"><ele>658.2</ele><time>2026-04-25T09:34:55Z</time></trkpt><trkpt lat="44.520824984798445" lon="9.971517806898177"><ele>658.4</ele><time>2026-04-25T09:34:56Z</time></trkpt><trkpt lat="44.52082586250306" lon="9.971365144751216"><ele>658.6</ele><time>2026-04-25T09:34:57Z</time></trkpt><trkpt lat="44.52086401710774" lon="9.971274208428845"><ele>658.8000000000001</ele><time>2026-04-25T09:34:58Z</time></trkpt><trkpt lat="44.52093054332874" lon="9.97125136736215"><ele>659.0</ele><time>2026-04-25T09:34:59Z</time></trkpt><trkpt lat="44.520990855729195" lon="9.971350871994659"><ele>659.0</ele><time>2026-04-25T09:35:00Z</time></trkpt><trkpt lat="44.52096491878587" lon="9.971482422021495"><ele>659.0</ele><time>2026-04-25T09:35:01Z</time></trkpt><trkpt lat="44.520981176926796" lon="9.97168015261104"><ele>659.0</ele><time>2026-04-25T09:35:02Z</time></trkpt><trkpt lat="44.521002961872114" lon="9.971947117184635"><ele>659.0</ele><time>2026-04-25T09:35:03Z</time></trkpt><trkpt lat="44.521026276570964" lon="9.97222811714293"><ele>658.5</ele><time>2026-04-25T09:35:04Z</time></trkpt><trkpt lat="44.521055075241705" lon="9.972552203200141"><ele>658.0</ele><time>2026-04-25T09:35:05Z</time></trkpt><trkpt lat="44.521083411987384" lon="9.972878981077926"><ele>658.0</ele><time>2026-04-25T09:35:06Z</time></trkpt><trkpt lat="44.52111237412124" lon="9.973228100157419"><ele>658.0</ele><time>2026-04-25T09:35:07Z</time></trkpt><trkpt lat="44.52114061543082" lon="9.97359659609932"><ele>659.0</ele><time>2026-04-25T09:35:08Z</time></trkpt><trkpt lat="44.5211642743536" lon="9.973922457503804"><ele>660.0</ele><time>2026-04-25T09:35:09Z</time></trkpt><trkpt lat="44.52114862377737" lon="9.974167336252938"><ele>661.0</ele><time>2026-04-25T09:35:10Z</time></trkpt><trkpt lat="44.52108638544122" lon="9.974359169392057"><ele>662.5</ele><time>2026-04-25T09:35:11Z</time></trkpt><trkpt lat="44.52098797354669" lon="9.974547376903221"><ele>664.0</ele><time>2026-04-25T09:35:12Z</time></trkpt><trkpt lat="44.520911316665426" lon="9.97473054595619"><ele>665.5</ele><time>2026-04-25T09:35:13Z</time></trkpt><trkpt lat="44.520873533723496" lon="9.974899042182306"><ele>667.0</ele><time>2026-04-25T09:35:14Z</time></trkpt><trkpt lat="44.52087272663344" lon="9.975075716990364"><ele>669.3333333333334</ele><time>2026-04-25T09:35:15Z</time></trkpt><trkpt lat="44.52095232652941" lon="9.97523509747149"><ele>671.6666666666666</ele><time>2026-04-25T09:35:16Z</time></trkpt><trkpt lat="44.5210814729463" lon="9.97540499225878"><ele>674.0</ele><time>2026-04-25T09:35:17Z</time></trkpt><trkpt lat="44.521232128702906" lon="9.975620869403016"><ele>683.0</ele><time>2026-04-25T09:35:18Z</time></trkpt><trkpt lat="44.52137975659639" lon="9.975812811779724"><ele>692.0</ele><time>2026-04-25T09:35:19Z</time></trkpt><trkpt lat="44.52148077223553" lon="9.975992204362692"><ele>701.0</ele><time>2026-04-25T09:35:20Z</time></trkpt><trkpt lat="44.521492317173426" lon="9.976171976474514"><ele>701.6666666666666</ele><time>2026-04-25T09:35:21Z</time></trkpt><trkpt lat="44.52149138554964" lon="9.976396020886805"><ele>702.3333333333334</ele><time>2026-04-25T09:35:22Z</time></trkpt><trkpt lat="44.52146802028523" lon="9.976671780828497"><ele>703.0</ele><time>2026-04-25T09:35:23Z</time></trkpt><trkpt lat="44.52143394166981" lon="9.976956968509732"><ele>704.0</ele><time>2026-04-25T09:35:24Z</time></trkpt><trkpt lat="44.52139790119482" lon="9.977257232978252"><ele>705.0</ele><time>2026-04-25T09:35:25Z</time></trkpt><trkpt lat="44.52137781393316" lon="9.977554438027324"><ele>706.0</ele><time>2026-04-25T09:35:26Z</time></trkpt><trkpt lat="44.521399931146526" lon="9.977836864456714"><ele>704.0</ele><time>2026-04-25T09:35:27Z</time></trkpt><trkpt lat="44.52145194049852" lon="9.978132833693586"><ele>702.0</ele><time>2026-04-25T09:35:28Z</time></trkpt><trkpt lat="44.52152849705699" lon="9.978419213666271"><ele>700.0</ele><time>2026-04-25T09:35:29Z</time></trkpt><trkpt lat="44.521602114109776" lon="9.978651860822264"><ele>698.3333333333334</ele><time>2026-04-25T09:35:30Z</time></trkpt><trkpt lat="44.52168825384358" lon="9.978857358220555"><ele>696.6666666666666</ele><time>2026-04-25T09:35:31Z</time></trkpt><trkpt lat="44.52182171371799" lon="9.979013424246112"><ele>695.0</ele><time>2026-04-25T09:35:32Z</time></trkpt><trkpt lat="44.52193597910502" lon="9.979182120074942"><ele>696.3333333333333</ele><time>2026-04-25T09:35:33Z</time></trkpt><trkpt lat="44.52202555954957" lon="9.979358080195198"><ele>697.6666666666666</ele><time>2026-04-25T09:35:34Z</time></trkpt><trkpt lat="44.522073414824625" lon="9.979574234232427"><ele>699.0</ele><time>2026-04-25T09:35:35Z</time></trkpt><trkpt lat="44.522101583041255" lon="9.979808083003052"><ele>703.0</ele><time>2026-04-25T09:35:36Z</time></trkpt><trkpt lat="44.52207292113758" lon="9.980018999022482"><ele>707.0</ele><time>2026-04-25T09:35:37Z</time></trkpt><trkpt lat="44.52200965159258" lon="9.980230226798986"><ele>711.0</ele><time>2026-04-25T09:35:38Z</time></trkpt><trkpt lat="44.52191971092872" lon="9.980495509692386"><ele>711.0</ele><time>2026-04-25T09:35:39Z</time></trkpt><trkpt lat="44.52182568134916" lon="9.980780083199665"><ele>711.0</ele><time>2026-04-25T09:35:40Z</time></trkpt><trkpt lat="44.521742414988815" lon="9.981075707638377"><ele>715.3333333333334</ele><time>2026-04-25T09:35:41Z</time></trkpt><trkpt lat="44.521660635322625" lon="9.981375353867213"><ele>719.6666666666667</ele><time>2026-04-25T09:35:42Z</time></trkpt><trkpt lat="44.52158248308375" lon="9.981661708936631"><ele>724.0</ele><time>2026-04-25T09:35:42.999Z</time></trkpt><trkpt lat="44.521515246826546" lon="9.981909074459885"><ele>724.0</ele><time>2026-04-25T09:35:43.999Z</time></trkpt><trkpt lat="44.5214506156702" lon="9.982113132414748"><ele>724.0</ele><time>2026-04-25T09:35:44.999Z</time></trkpt><trkpt lat="44.52137481237692" lon="9.982280733475601"><ele>724.0</ele><time>2026-04-25T09:35:45.999Z</time></trkpt><trkpt lat="44.52129414845037" lon="9.98239568169755"><ele>724.0</ele><time>2026-04-25T09:35:46.999Z</time></trkpt><trkpt lat="44.52116378441201" lon="9.98238567265969"><ele>724.0</ele><time>2026-04-25T09:35:47.999Z</time></trkpt><trkpt lat="44.52100220986501" lon="9.982430053170397"><ele>724.0</ele><time>2026-04-25T09:35:48.999Z</time></trkpt><trkpt lat="44.520801890602485" lon="9.98237559759592"><ele>724.0</ele><time>2026-04-25T09:35:49.999Z</time></trkpt><trkpt lat="44.520624752975" lon="9.982348393123353"><ele>724.0</ele><time>2026-04-25T09:35:50.999Z</time></trkpt><trkpt lat="44.52046980371482" lon="9.982340201921852"><ele>724.0</ele><time>2026-04-25T09:35:51.999Z</time></trkpt><trkpt lat="44.520330183039135" lon="9.982408739446592"><ele>724.0</ele><time>2026-04-25T09:35:52.999Z</time></trkpt><trkpt lat="44.52020801825165" lon="9.982548721047873"><ele>726.6666666666667</ele><time>2026-04-25T09:35:53.999Z</time></trkpt><trkpt lat="44.52012948497023" lon="9.982761895669729"><ele>729.3333333333334</ele><time>2026-04-25T09:35:54.999Z</time></trkpt><trkpt lat="44.520082631214215" lon="9.983042771717601"><ele>732.0</ele><time>2026-04-25T09:35:55.999Z</time></trkpt><trkpt lat="44.520064272910844" lon="9.983362203385273"><ele>734.5</ele><time>2026-04-25T09:35:56.999Z</time></trkpt><trkpt lat="44.52004212165525" lon="9.983684769266485"><ele>737.0</ele><time>2026-04-25T09:35:57.999Z</time></trkpt><trkpt lat="44.51997725668973" lon="9.98399563043522"><ele>739.25</ele><time>2026-04-25T09:35:58.999Z</time></trkpt><trkpt lat="44.51994189951383" lon="9.984277162437724"><ele>741.5</ele><time>2026-04-25T09:35:59.999Z</time></trkpt><trkpt lat="44.51990702087213" lon="9.984464941108923"><ele>743.75</ele><time>2026-04-25T09:36:00.999Z</time></trkpt><trkpt lat="44.519857448522174" lon="9.984587285611472"><ele>746.0</ele><time>2026-04-25T09:36:01.999Z</time></trkpt><trkpt lat="44.519781849475656" lon="9.98461644884428"><ele>746.0</ele><time>2026-04-25T09:36:02.999Z</time></trkpt><trkpt lat="44.51968028024265" lon="9.984601432268649"><ele>746.0</ele><time>2026-04-25T09:36:03.999Z</time></trkpt><trkpt lat="44.519551161600894" lon="9.984501797856131"><ele>746.0</ele><time>2026-04-25T09:36:04.999Z</time></trkpt><trkpt lat="44.51938085659528" lon="9.984396500245122"><ele>746.0</ele><time>2026-04-25T09:36:05.999Z</time></trkpt><trkpt lat="44.51921455641143" lon="9.984274781789397"><ele>747.3333333333333</ele><time>2026-04-25T09:36:06.999Z</time></trkpt><trkpt lat="44.51905739965089" lon="9.984195623359374"><ele>748.6666666666666</ele><time>2026-04-25T09:36:07.999Z</time></trkpt><trkpt lat="44.51891133110807" lon="9.984159979933215"><ele>750.0</ele><time>2026-04-25T09:36:08.999Z</time></trkpt><trkpt lat="44.518766224448896" lon="9.984189859198203"><ele>749.6666666666666</ele><time>2026-04-25T09:36:09.999Z</time></trkpt><trkpt lat="44.51861563727346" lon="9.984281956215852"><ele>749.3333333333333</ele><time>2026-04-25T09:36:10.999Z</time></trkpt><trkpt lat="44.518475083851136" lon="9.984430006565644"><ele>749.0</ele><time>2026-04-25T09:36:11.999Z</time></trkpt><trkpt lat="44.518354934141804" lon="9.984615204410373"><ele>749.0</ele><time>2026-04-25T09:36:12.999Z</time></trkpt><trkpt lat="44.5182942900734" lon="9.98482736072734"><ele>749.0</ele><time>2026-04-25T09:36:13.999Z</time></trkpt><trkpt lat="44.51828425599494" lon="9.985069538911159"><ele>749.0</ele><time>2026-04-25T09:36:14.999Z</time></trkpt><trkpt lat="44.518329018380726" lon="9.985355795132259"><ele>751.5</ele><time>2026-04-25T09:36:15.999Z</time></trkpt><trkpt lat="44.51836493561144" lon="9.985704187229077"><ele>754.0</ele><time>2026-04-25T09:36:16.999Z</time></trkpt><trkpt lat="44.51838965140948" lon="9.985986004223232"><ele>756.6</ele><time>2026-04-25T09:36:17.999Z</time></trkpt><trkpt lat="44.51839331135064" lon="9.986172498198389"><ele>759.2</ele><time>2026-04-25T09:36:18.999Z</time></trkpt><trkpt lat="44.518368606212505" lon="9.986302207653324"><ele>761.8000000000001</ele><time>2026-04-25T09:36:19.999Z</time></trkpt><trkpt lat="44.51830852701592" lon="9.986401553664724"><ele>764.4000000000001</ele><time>2026-04-25T09:36:20.999Z</time></trkpt><trkpt lat="44.51821960926388" lon="9.986492882603184"><ele>767.0</ele><time>2026-04-25T09:36:21.999Z</time></trkpt><trkpt lat="44.51809817354905" lon="9.986529414930281"><ele>767.0</ele><time>2026-04-25T09:36:22.999Z</time></trkpt><trkpt lat="44.5179871684966" lon="9.986467651755598"><ele>767.0</ele><time>2026-04-25T09:36:23.999Z</time></trkpt><trkpt lat="44.51785278448426" lon="9.98637465822434"><ele>767.0</ele><time>2026-04-25T09:36:24.999Z</time></trkpt><trkpt lat="44.517717768675325" lon="9.986257361213207"><ele>767.0</ele><time>2026-04-25T09:36:25.999Z</time></trkpt><trkpt lat="44.517574364368855" lon="9.98615013432742"><ele>767.3333333333333</ele><time>2026-04-25T09:36:26.999Z</time></trkpt><trkpt lat="44.517433503031086" lon="9.986043958299096"><ele>767.6666666666666</ele><time>2026-04-25T09:36:27.999Z</time></trkpt><trkpt lat="44.51729335911455" lon="9.985935837758557"><ele>768.0</ele><time>2026-04-25T09:36:28.999Z</time></trkpt><trkpt lat="44.51715287478076" lon="9.985834743264617"><ele>767.75</ele><time>2026-04-25T09:36:29.999Z</time></trkpt><trkpt lat="44.51702174151708" lon="9.985738968519417"><ele>767.5</ele><time>2026-04-25T09:36:30.999Z</time></trkpt><trkpt lat="44.51690639957196" lon="9.985655262257241"><ele>767.25</ele><time>2026-04-25T09:36:31.999Z</time></trkpt><trkpt lat="44.51682305844148" lon="9.985590374083275"><ele>767.0</ele><time>2026-04-25T09:36:32.999Z</time></trkpt><trkpt lat="44.51674966336501" lon="9.985549129572242"><ele>767.0</ele><time>2026-04-25T09:36:33.999Z</time></trkpt><trkpt lat="44.51667023300841" lon="9.985546799585228"><ele>767.0</ele><time>2026-04-25T09:36:34.999Z</time></trkpt><trkpt lat="44.51657121842148" lon="9.985599064206248"><ele>767.0</ele><time>2026-04-25T09:36:35.999Z</time></trkpt><trkpt lat="44.516469398119696" lon="9.98570891211669"><ele>767.0</ele><time>2026-04-25T09:36:36.999Z</time></trkpt><trkpt lat="44.516369680635066" lon="9.985850964436848"><ele>767.5</ele><time>2026-04-25T09:36:38Z</time></trkpt><trkpt lat="44.5162795937438" lon="9.98598507481295"><ele>768.0</ele><time>2026-04-25T09:36:39Z</time></trkpt><trkpt lat="44.51619258341766" lon="9.98610175882479"><ele>768.5</ele><time>2026-04-25T09:36:40Z</time></trkpt><trkpt lat="44.51611467672598" lon="9.986207694045557"><ele>769.0</ele><time>2026-04-25T09:36:41Z</time></trkpt><trkpt lat="44.51604712343925" lon="9.986318255029007"><ele>769.0</ele><time>2026-04-25T09:36:42Z</time></trkpt><trkpt lat="44.51599110313598" lon="9.986446078798785"><ele>769.0</ele><time>2026-04-25T09:36:43Z</time></trkpt><trkpt lat="44.51593815429224" lon="9.986588701006584"><ele>769.0</ele><time>2026-04-25T09:36:44Z</time></trkpt><trkpt lat="44.51589564440831" lon="9.9867360874045"><ele>769.0</ele><time>2026-04-25T09:36:45Z</time></trkpt><trkpt lat="44.51585604744385" lon="9.986888436230204"><ele>770.5</ele><time>2026-04-25T09:36:46Z</time></trkpt><trkpt lat="44.51581823957158" lon="9.987047580007738"><ele>772.0</ele><time>2026-04-25T09:36:47Z</time></trkpt><trkpt lat="44.51577805682503" lon="9.987202041050383"><ele>773.5</ele><time>2026-04-25T09:36:48Z</time></trkpt><trkpt lat="44.51574252955678" lon="9.987366931909703"><ele>775.0</ele><time>2026-04-25T09:36:49Z</time></trkpt><trkpt lat="44.51570155135314" lon="9.987533646051986"><ele>776.75</ele><time>2026-04-25T09:36:50Z</time></trkpt><trkpt lat="44.51565991215147" lon="9.987701138936139"><ele>778.5</ele><time>2026-04-25T09:36:51Z</time></trkpt><trkpt lat="44.515621152197475" lon="9.987883162784657"><ele>780.25</ele><time>2026-04-25T09:36:52Z</time></trkpt><trkpt lat="44.51559099540673" lon="9.98804728921377"><ele>782.0</ele><time>2026-04-25T09:36:53Z</time></trkpt><trkpt lat="44.51558136365318" lon="9.988184160164923"><ele>782.0</ele><time>2026-04-25T09:36:54Z</time></trkpt><trkpt lat="44.515599232471544" lon="9.988306597247268"><ele>782.0</ele><time>2026-04-25T09:36:55Z</time></trkpt><trkpt lat="44.51563782857571" lon="9.988425864483776"><ele>782.0</ele><time>2026-04-25T09:36:56Z</time></trkpt><trkpt lat="44.515679325496535" lon="9.98856692466649"><ele>782.0</ele><time>2026-04-25T09:36:57Z</time></trkpt><trkpt lat="44.51574312347087" lon="9.988706397746702"><ele>782.0</ele><time>2026-04-25T09:36:58Z</time></trkpt><trkpt lat="44.5158126540614" lon="9.98885636475482"><ele>781.25</ele><time>2026-04-25T09:36:59Z</time></trkpt><trkpt lat="44.51588476204175" lon="9.98901091901714"><ele>780.5</ele><time>2026-04-25T09:37:00Z</time></trkpt><trkpt lat="44.515964645799976" lon="9.989178969096006"><ele>779.75</ele><time>2026-04-25T09:37:01Z</time></trkpt><trkpt lat="44.51603290282079" lon="9.989342566321545"><ele>779.0</ele><time>2026-04-25T09:37:02Z</time></trkpt><trkpt lat="44.51606968610658" lon="9.989487189208685"><ele>780.4000000000001</ele><time>2026-04-25T09:37:03Z</time></trkpt><trkpt lat="44.516074328118314" lon="9.98963546550166"><ele>781.8</ele><time>2026-04-25T09:37:04Z</time></trkpt><trkpt lat="44.51605332936394" lon="9.989758672697516"><ele>783.2</ele><time>2026-04-25T09:37:05Z</time></trkpt><trkpt lat="44.51594394709912" lon="9.989819481687045"><ele>784.5999999999999</ele><time>2026-04-25T09:37:06Z</time></trkpt><trkpt lat="44.515829417666005" lon="9.989863947236193"><ele>786.0</ele><time>2026-04-25T09:37:07Z</time></trkpt><trkpt lat="44.515709032919084" lon="9.989931485051258"><ele>786.0</ele><time>2026-04-25T09:37:08Z</time></trkpt><trkpt lat="44.51557871086025" lon="9.98997849109378"><ele>786.0</ele><time>2026-04-25T09:37:09Z</time></trkpt><trkpt lat="44.515446528360464" lon="9.990047769756213"><ele>786.0</ele><time>2026-04-25T09:37:10Z</time></trkpt><trkpt lat="44.51531291863111" lon="9.990120669123373"><ele>786.0</ele><time>2026-04-25T09:37:11Z</time></trkpt><trkpt lat="44.515180649611565" lon="9.990188010381038"><ele>790.0</ele><time>2026-04-25T09:37:12Z</time></trkpt><trkpt lat="44.51504817746283" lon="9.990254107208596"><ele>794.0</ele><time>2026-04-25T09:37:13Z</time></trkpt><trkpt lat="44.5149238872867" lon="9.990322283519408"><ele>798.0</ele><time>2026-04-25T09:37:14Z</time></trkpt><trkpt lat="44.51479956578769" lon="9.990374570800146"><ele>802.0</ele><time>2026-04-25T09:37:15Z</time></trkpt><trkpt lat="44.51467552796987" lon="9.990370533296968"><ele>801.5</ele><time>2026-04-25T09:37:16Z</time></trkpt><trkpt lat="44.51456396227829" lon="9.990295521299664"><ele>801.0</ele><time>2026-04-25T09:37:17Z</time></trkpt><trkpt lat="44.514466291663375" lon="9.990183878106738"><ele>800.5</ele><time>2026-04-25T09:37:18Z</time></trkpt><trkpt lat="44.51435491118806" lon="9.990064439346275"><ele>800.0</ele><time>2026-04-25T09:37:19Z</time></trkpt><trkpt lat="44.51425459879535" lon="9.989928331476237"><ele>800.0</ele><time>2026-04-25T09:37:20Z</time></trkpt><trkpt lat="44.514155171873576" lon="9.989807114417413"><ele>800.0</ele><time>2026-04-25T09:37:21Z</time></trkpt><trkpt lat="44.51405904124983" lon="9.9896903925689"><ele>800.0</ele><time>2026-04-25T09:37:22Z</time></trkpt><trkpt lat="44.51395659097881" lon="9.98958724103422"><ele>800.0</ele><time>2026-04-25T09:37:23Z</time></trkpt><trkpt lat="44.51384825210565" lon="9.989485968945374"><ele>799.25</ele><time>2026-04-25T09:37:24Z</time></trkpt><trkpt lat="44.51373565847725" lon="9.989405769035447"><ele>798.5</ele><time>2026-04-25T09:37:25Z</time></trkpt><trkpt lat="44.51362314042632" lon="9.989311966599356"><ele>797.75</ele><time>2026-04-25T09:37:26Z</time></trkpt><trkpt lat="44.51350818628982" lon="9.989222313127211"><ele>797.0</ele><time>2026-04-25T09:37:27Z</time></trkpt><trkpt lat="44.51339515082101" lon="9.989129073558187"><ele>797.0</ele><time>2026-04-25T09:37:28Z</time></trkpt><trkpt lat="44.513286791380885" lon="9.989038316891364"><ele>797.0</ele><time>2026-04-25T09:37:29Z</time></trkpt><trkpt lat="44.513185274572244" lon="9.988959575436626"><ele>797.0</ele><time>2026-04-25T09:37:30Z</time></trkpt><trkpt lat="44.5130816400289" lon="9.988876719062707"><ele>797.0</ele><time>2026-04-25T09:37:31Z</time></trkpt><trkpt lat="44.512970005692765" lon="9.988803875041803"><ele>798.75</ele><time>2026-04-25T09:37:32Z</time></trkpt><trkpt lat="44.51285467296257" lon="9.98875152374456"><ele>800.5</ele><time>2026-04-25T09:37:33Z</time></trkpt><trkpt lat="44.51273497073718" lon="9.988710547452644"><ele>802.25</ele><time>2026-04-25T09:37:34Z</time></trkpt><trkpt lat="44.51261299563675" lon="9.988695121571517"><ele>804.0</ele><time>2026-04-25T09:37:35Z</time></trkpt><trkpt lat="44.512491027034564" lon="9.988705814249245"><ele>804.0</ele><time>2026-04-25T09:37:36Z</time></trkpt><trkpt lat="44.512375067309385" lon="9.98874313678293"><ele>804.0</ele><time>2026-04-25T09:37:37Z</time></trkpt><trkpt lat="44.51227151552435" lon="9.988780855542531"><ele>804.0</ele><time>2026-04-25T09:37:38Z</time></trkpt><trkpt lat="44.51216841531601" lon="9.988823886946992"><ele>804.0</ele><time>2026-04-25T09:37:39Z</time></trkpt><trkpt lat="44.51205982791515" lon="9.988838885588487"><ele>804.0</ele><time>2026-04-25T09:37:40Z</time></trkpt><trkpt lat="44.511949603738515" lon="9.988877991574038"><ele>804.0</ele><time>2026-04-25T09:37:41Z</time></trkpt><trkpt lat="44.511845302132926" lon="9.98891457389427"><ele>804.0</ele><time>2026-04-25T09:37:42Z</time></trkpt><trkpt lat="44.51175129969378" lon="9.988946016505789"><ele>804.0</ele><time>2026-04-25T09:37:43Z</time></trkpt><trkpt lat="44.51167235739709" lon="9.988969411227476"><ele>804.0</ele><time>2026-04-25T09:37:44Z</time></trkpt><trkpt lat="44.51160185407608" lon="9.989003084697279"><ele>804.0</ele><time>2026-04-25T09:37:45Z</time></trkpt><trkpt lat="44.51153545063105" lon="9.98897103840629"><ele>804.0</ele><time>2026-04-25T09:37:45.999Z</time></trkpt><trkpt lat="44.51140764082374" lon="9.988918582244512"><ele>804.0</ele><time>2026-04-25T09:37:47.999Z</time></trkpt><trkpt lat="44.511337430501264" lon="9.988866095180319"><ele>804.0</ele><time>2026-04-25T09:37:48.999Z</time></trkpt><trkpt lat="44.51126317738675" lon="9.988824290984583"><ele>804.0</ele><time>2026-04-25T09:37:49.999Z</time></trkpt><trkpt lat="44.511196578448676" lon="9.988779729300154"><ele>804.0</ele><time>2026-04-25T09:37:50.999Z</time></trkpt><trkpt lat="44.511126215251174" lon="9.988734897645974"><ele>804.0</ele><time>2026-04-25T09:37:51.999Z</time></trkpt><trkpt lat="44.51105019821214" lon="9.988686415628061"><ele>804.0</ele><time>2026-04-25T09:37:52.999Z</time></trkpt><trkpt lat="44.51097908539107" lon="9.988636435433895"><ele>804.5</ele><time>2026-04-25T09:37:53.999Z</time></trkpt><trkpt lat="44.51090920956952" lon="9.988587034465723"><ele>805.0</ele><time>2026-04-25T09:37:54.999Z</time></trkpt><trkpt lat="44.510838232694354" lon="9.9885633438294"><ele>805.5</ele><time>2026-04-25T09:37:56.999Z</time></trkpt><trkpt lat="44.51083124703524" lon="9.988438869389409"><ele>806.0</ele><time>2026-04-25T09:37:59.999Z</time></trkpt><trkpt lat="44.51081876063111" lon="9.98831410775289"><ele>806.5</ele><time>2026-04-25T09:38:01.999Z</time></trkpt><trkpt lat="44.51076366071579" lon="9.988268432840643"><ele>807.0</ele><time>2026-04-25T09:38:02.999Z</time></trkpt><trkpt lat="44.51062035013098" lon="9.988180278532994"><ele>806.6666666666666</ele><time>2026-04-25T09:38:04.999Z</time></trkpt><trkpt lat="44.510536272730874" lon="9.988132964572706"><ele>806.3333333333333</ele><time>2026-04-25T09:38:05.999Z</time></trkpt><trkpt lat="44.510480762729365" lon="9.988069220330772"><ele>806.0</ele><time>2026-04-25T09:38:06.999Z</time></trkpt><trkpt lat="44.51037720710377" lon="9.987987040975161"><ele>805.6666666666666</ele><time>2026-04-25T09:38:08.999Z</time></trkpt><trkpt lat="44.51032137293544" lon="9.987944171267602"><ele>805.3333333333333</ele><time>2026-04-25T09:38:09.999Z</time></trkpt><trkpt lat="44.510251225024206" lon="9.9878997364153"><ele>805.0</ele><time>2026-04-25T09:38:10.999Z</time></trkpt><trkpt lat="44.51019329424817" lon="9.987843261349795"><ele>805.0</ele><time>2026-04-25T09:38:11.999Z</time></trkpt><trkpt lat="44.510130015977325" lon="9.987761032782844"><ele>805.0</ele><time>2026-04-25T09:38:12.999Z</time></trkpt><trkpt lat="44.51008358857157" lon="9.987671429288065"><ele>805.0</ele><time>2026-04-25T09:38:13.999Z</time></trkpt><trkpt lat="44.50996385252282" lon="9.987570740032542"><ele>805.0</ele><time>2026-04-25T09:38:15.999Z</time></trkpt><trkpt lat="44.50988945327337" lon="9.987519179920552"><ele>805.0</ele><time>2026-04-25T09:38:16.999Z</time></trkpt><trkpt lat="44.50981226212111" lon="9.987464679310081"><ele>804.3333333333333</ele><time>2026-04-25T09:38:17.999Z</time></trkpt><trkpt lat="44.50973015805241" lon="9.987412438759646"><ele>803.6666666666666</ele><time>2026-04-25T09:38:18.999Z</time></trkpt><trkpt lat="44.509652545792946" lon="9.987355515193833"><ele>803.0</ele><time>2026-04-25T09:38:19.999Z</time></trkpt><trkpt lat="44.50959085802388" lon="9.987301914288752"><ele>802.3333333333333</ele><time>2026-04-25T09:38:20.999Z</time></trkpt><trkpt lat="44.50953388355515" lon="9.987258383077878"><ele>801.6666666666666</ele><time>2026-04-25T09:38:21.999Z</time></trkpt><trkpt lat="44.509430351618754" lon="9.987285865681974"><ele>801.0</ele><time>2026-04-25T09:38:23.999Z</time></trkpt><trkpt lat="44.50936028148657" lon="9.987312122434783"><ele>802.5</ele><time>2026-04-25T09:38:24.999Z</time></trkpt><trkpt lat="44.50928447575277" lon="9.987349711237066"><ele>804.0</ele><time>2026-04-25T09:38:25.999Z</time></trkpt><trkpt lat="44.509207929811225" lon="9.987388220331388"><ele>805.5</ele><time>2026-04-25T09:38:26.999Z</time></trkpt><trkpt lat="44.509105804834306" lon="9.987451002348777"><ele>807.0</ele><time>2026-04-25T09:38:28.999Z</time></trkpt><trkpt lat="44.50905390127274" lon="9.987515911199417"><ele>808.5</ele><time>2026-04-25T09:38:32.999Z</time></trkpt><trkpt lat="44.5090118576395" lon="9.987591312666911"><ele>810.0</ele><time>2026-04-25T09:38:33.999Z</time></trkpt><trkpt lat="44.508982276489775" lon="9.987704926367597"><ele>810.0</ele><time>2026-04-25T09:38:34.999Z</time></trkpt><trkpt lat="44.50895167739174" lon="9.987787285219603"><ele>810.0</ele><time>2026-04-25T09:38:35.999Z</time></trkpt><trkpt lat="44.508906809710226" lon="9.987909797323077"><ele>810.0</ele><time>2026-04-25T09:38:37.999Z</time></trkpt><trkpt lat="44.50882023911029" lon="9.98795454188963"><ele>810.0</ele><time>2026-04-25T09:38:40.999Z</time></trkpt><trkpt lat="44.50872458446058" lon="9.987925439247626"><ele>810.0</ele><time>2026-04-25T09:38:41.999Z</time></trkpt><trkpt lat="44.50862113415764" lon="9.98789432692896"><ele>810.5</ele><time>2026-04-25T09:38:42.999Z</time></trkpt><trkpt lat="44.508491724984886" lon="9.987857756343633"><ele>811.0</ele><time>2026-04-25T09:38:44Z</time></trkpt><trkpt lat="44.5083596776796" lon="9.987823843608957"><ele>811.5</ele><time>2026-04-25T09:38:45Z</time></trkpt><trkpt lat="44.50824843770236" lon="9.987789271311955"><ele>812.0</ele><time>2026-04-25T09:38:46Z</time></trkpt><trkpt lat="44.50813978529392" lon="9.987757555072372"><ele>812.0</ele><time>2026-04-25T09:38:47Z</time></trkpt><trkpt lat="44.50803591365042" lon="9.987722412361725"><ele>812.0</ele><time>2026-04-25T09:38:48Z</time></trkpt><trkpt lat="44.50791997750402" lon="9.987678539456157"><ele>812.0</ele><time>2026-04-25T09:38:49Z</time></trkpt><trkpt lat="44.50779136579785" lon="9.987635841905327"><ele>812.0</ele><time>2026-04-25T09:38:50Z</time></trkpt><trkpt lat="44.50765913568292" lon="9.987600459293418"><ele>811.5</ele><time>2026-04-25T09:38:51Z</time></trkpt><trkpt lat="44.50752390383607" lon="9.987560323151108"><ele>811.0</ele><time>2026-04-25T09:38:52Z</time></trkpt><trkpt lat="44.50738265603481" lon="9.987515936625819"><ele>810.5</ele><time>2026-04-25T09:38:53Z</time></trkpt><trkpt lat="44.50723964784743" lon="9.987467901026859"><ele>810.0</ele><time>2026-04-25T09:38:54Z</time></trkpt><trkpt lat="44.50710079774586" lon="9.987422010505156"><ele>810.25</ele><time>2026-04-25T09:38:55Z</time></trkpt><trkpt lat="44.506971679036596" lon="9.987373654819582"><ele>810.5</ele><time>2026-04-25T09:38:56Z</time></trkpt><trkpt lat="44.506845854945134" lon="9.987321139325813"><ele>810.75</ele><time>2026-04-25T09:38:57Z</time></trkpt><trkpt lat="44.506710459160914" lon="9.987263381222041"><ele>811.0</ele><time>2026-04-25T09:38:58Z</time></trkpt><trkpt lat="44.50658091323369" lon="9.987213152281715"><ele>811.0</ele><time>2026-04-25T09:38:59Z</time></trkpt><trkpt lat="44.506468746276795" lon="9.987159834734554"><ele>811.0</ele><time>2026-04-25T09:39:00Z</time></trkpt><trkpt lat="44.50637615370653" lon="9.987116524529208"><ele>811.0</ele><time>2026-04-25T09:39:01Z</time></trkpt><trkpt lat="44.506309419429634" lon="9.987088606918638"><ele>811.0</ele><time>2026-04-25T09:39:02Z</time></trkpt><trkpt lat="44.506237739191334" lon="9.987140180350181"><ele>811.0</ele><time>2026-04-25T09:39:06Z</time></trkpt><trkpt lat="44.506198520792815" lon="9.987281119186385"><ele>811.0</ele><time>2026-04-25T09:39:08Z</time></trkpt><trkpt lat="44.506304542696014" lon="9.987499959385602"><ele>811.0</ele><time>2026-04-25T09:39:09Z</time></trkpt><trkpt lat="44.50634511514711" lon="9.98766191431777"><ele>811.0</ele><time>2026-04-25T09:39:10Z</time></trkpt><trkpt lat="44.506384781696276" lon="9.987846574299885"><ele>811.0</ele><time>2026-04-25T09:39:11Z</time></trkpt><trkpt lat="44.50642887643291" lon="9.988023935240596"><ele>812.6666666666666</ele><time>2026-04-25T09:39:12Z</time></trkpt><trkpt lat="44.50649348275199" lon="9.98820639119862"><ele>814.3333333333333</ele><time>2026-04-25T09:39:13Z</time></trkpt><trkpt lat="44.5065809536305" lon="9.98838618687619"><ele>816.0</ele><time>2026-04-25T09:39:14Z</time></trkpt><trkpt lat="44.50667863031356" lon="9.988558258695832"><ele>817.3333333333333</ele><time>2026-04-25T09:39:15Z</time></trkpt><trkpt lat="44.50678292952948" lon="9.988717633361741"><ele>818.6666666666666</ele><time>2026-04-25T09:39:16Z</time></trkpt><trkpt lat="44.50689663986219" lon="9.988857602426686"><ele>820.0</ele><time>2026-04-25T09:39:17Z</time></trkpt><trkpt lat="44.50701513441122" lon="9.988994782319134"><ele>819.0</ele><time>2026-04-25T09:39:18Z</time></trkpt><trkpt lat="44.507129415046755" lon="9.98912951892863"><ele>818.0</ele><time>2026-04-25T09:39:19Z</time></trkpt><trkpt lat="44.50724272508881" lon="9.989268387805092"><ele>817.0</ele><time>2026-04-25T09:39:20Z</time></trkpt><trkpt lat="44.50735315571152" lon="9.989409471608052"><ele>816.0</ele><time>2026-04-25T09:39:21Z</time></trkpt><trkpt lat="44.507467379356555" lon="9.989551914180769"><ele>815.5</ele><time>2026-04-25T09:39:22Z</time></trkpt><trkpt lat="44.507582346364444" lon="9.989690011125475"><ele>815.0</ele><time>2026-04-25T09:39:23Z</time></trkpt><trkpt lat="44.507694752751554" lon="9.989822525751515"><ele>814.5</ele><time>2026-04-25T09:39:24Z</time></trkpt><trkpt lat="44.50780738675242" lon="9.989945096458309"><ele>814.0</ele><time>2026-04-25T09:39:25Z</time></trkpt><trkpt lat="44.50791056664707" lon="9.990064928914762"><ele>814.0</ele><time>2026-04-25T09:39:26Z</time></trkpt><trkpt lat="44.50798813967814" lon="9.990188892058955"><ele>814.0</ele><time>2026-04-25T09:39:27Z</time></trkpt><trkpt lat="44.508057581912254" lon="9.99031890277799"><ele>814.0</ele><time>2026-04-25T09:39:28Z</time></trkpt><trkpt lat="44.50811896697712" lon="9.990437946765056"><ele>814.0</ele><time>2026-04-25T09:39:29Z</time></trkpt><trkpt lat="44.508204753661275" lon="9.99053312027797"><ele>814.0</ele><time>2026-04-25T09:39:30Z</time></trkpt><trkpt lat="44.50831923738037" lon="9.990598918937364"><ele>814.0</ele><time>2026-04-25T09:39:31Z</time></trkpt><trkpt lat="44.50844508550014" lon="9.990660614370588"><ele>814.0</ele><time>2026-04-25T09:39:32Z</time></trkpt><trkpt lat="44.508571724238365" lon="9.990737848561134"><ele>814.0</ele><time>2026-04-25T09:39:33Z</time></trkpt><trkpt lat="44.50869112085642" lon="9.990804327392404"><ele>814.0</ele><time>2026-04-25T09:39:34Z</time></trkpt><trkpt lat="44.50881085177247" lon="9.990886903539753"><ele>815.25</ele><time>2026-04-25T09:39:35Z</time></trkpt><trkpt lat="44.50893895997986" lon="9.990965015436863"><ele>816.5</ele><time>2026-04-25T09:39:36Z</time></trkpt><trkpt lat="44.50907460252875" lon="9.991052693227322"><ele>817.75</ele><time>2026-04-25T09:39:37Z</time></trkpt><trkpt lat="44.50921782381884" lon="9.991141150399063"><ele>819.0</ele><time>2026-04-25T09:39:38Z</time></trkpt><trkpt lat="44.50935685174563" lon="9.991229020266195"><ele>819.0</ele><time>2026-04-25T09:39:39Z</time></trkpt><trkpt lat="44.50949444591136" lon="9.991315084069779"><ele>819.0</ele><time>2026-04-25T09:39:40Z</time></trkpt><trkpt lat="44.509614545302355" lon="9.991398294436749"><ele>819.0</ele><time>2026-04-25T09:39:41Z</time></trkpt><trkpt lat="44.509725902061014" lon="9.991474897374854"><ele>819.0</ele><time>2026-04-25T09:39:42Z</time></trkpt><trkpt lat="44.509830354840446" lon="9.991535529013658"><ele>820.5</ele><time>2026-04-25T09:39:43Z</time></trkpt><trkpt lat="44.50993383720357" lon="9.991602767143805"><ele>822.0</ele><time>2026-04-25T09:39:44Z</time></trkpt><trkpt lat="44.5100475157832" lon="9.991680633493441"><ele>823.5</ele><time>2026-04-25T09:39:45Z</time></trkpt><trkpt lat="44.510155462030966" lon="9.991751693944881"><ele>825.0</ele><time>2026-04-25T09:39:46Z</time></trkpt><trkpt lat="44.510247408371704" lon="9.991802549581168"><ele>825.0</ele><time>2026-04-25T09:39:47Z</time></trkpt><trkpt lat="44.51031211916199" lon="9.991836661695361"><ele>825.0</ele><time>2026-04-25T09:39:48Z</time></trkpt><trkpt lat="44.510399063927615" lon="9.991716991493199"><ele>825.0</ele><time>2026-04-25T09:39:50Z</time></trkpt><trkpt lat="44.51042576329711" lon="9.991604183915703"><ele>825.0</ele><time>2026-04-25T09:39:51Z</time></trkpt><trkpt lat="44.51046335848103" lon="9.991484495628901"><ele>825.0</ele><time>2026-04-25T09:39:51.999Z</time></trkpt><trkpt lat="44.51051325311953" lon="9.991409619720118"><ele>825.0</ele><time>2026-04-25T09:39:52.999Z</time></trkpt><trkpt lat="44.51057153100632" lon="9.991374958024151"><ele>825.2</ele><time>2026-04-25T09:39:53.999Z</time></trkpt><trkpt lat="44.510642524137744" lon="9.991430674668212"><ele>825.4</ele><time>2026-04-25T09:39:55.999Z</time></trkpt><trkpt lat="44.510684845572385" lon="9.991524511220655"><ele>825.5999999999999</ele><time>2026-04-25T09:39:57.999Z</time></trkpt><trkpt lat="44.51070037541575" lon="9.991619975572222"><ele>825.8</ele><time>2026-04-25T09:39:58.999Z</time></trkpt><trkpt lat="44.510709475089506" lon="9.991768287855065"><ele>826.0</ele><time>2026-04-25T09:39:59.999Z</time></trkpt><trkpt lat="44.51072610437197" lon="9.991925556437078"><ele>826.0</ele><time>2026-04-25T09:40:00.999Z</time></trkpt><trkpt lat="44.5107433516592" lon="9.992075317035921"><ele>826.0</ele><time>2026-04-25T09:40:01.999Z</time></trkpt><trkpt lat="44.51073080653936" lon="9.992230064828489"><ele>826.0</ele><time>2026-04-25T09:40:02.999Z</time></trkpt><trkpt lat="44.51067212958621" lon="9.992368091462598"><ele>826.0</ele><time>2026-04-25T09:40:03.999Z</time></trkpt><trkpt lat="44.51057692219142" lon="9.992469027851644"><ele>825.75</ele><time>2026-04-25T09:40:04.999Z</time></trkpt><trkpt lat="44.510453701583586" lon="9.992513749259993"><ele>825.5</ele><time>2026-04-25T09:40:05.999Z</time></trkpt><trkpt lat="44.51031872264864" lon="9.992505216973873"><ele>825.25</ele><time>2026-04-25T09:40:06.999Z</time></trkpt><trkpt lat="44.51018772703746" lon="9.992492301500679"><ele>825.0</ele><time>2026-04-25T09:40:07.999Z</time></trkpt><trkpt lat="44.51006354217783" lon="9.992481332370629"><ele>825.0</ele><time>2026-04-25T09:40:08.999Z</time></trkpt><trkpt lat="44.50993374007774" lon="9.992494686981727"><ele>825.0</ele><time>2026-04-25T09:40:09.999Z</time></trkpt><trkpt lat="44.50981693828369" lon="9.992514284598562"><ele>825.0</ele><time>2026-04-25T09:40:10.999Z</time></trkpt><trkpt lat="44.50970408242256" lon="9.992523372940942"><ele>825.0</ele><time>2026-04-25T09:40:11.999Z</time></trkpt><trkpt lat="44.50958858871784" lon="9.992517623776374"><ele>827.75</ele><time>2026-04-25T09:40:12.999Z</time></trkpt><trkpt lat="44.509476945951086" lon="9.992447083038153"><ele>830.5</ele><time>2026-04-25T09:40:13.999Z</time></trkpt><trkpt lat="44.50938786700855" lon="9.992311387386643"><ele>833.25</ele><time>2026-04-25T09:40:14.999Z</time></trkpt><trkpt lat="44.50930435195687" lon="9.992171061887175"><ele>836.0</ele><time>2026-04-25T09:40:15.999Z</time></trkpt><trkpt lat="44.50921139598027" lon="9.99205727733336"><ele>836.0</ele><time>2026-04-25T09:40:16.999Z</time></trkpt><trkpt lat="44.5091028975027" lon="9.991991759190206"><ele>836.0</ele><time>2026-04-25T09:40:17.999Z</time></trkpt><trkpt lat="44.5089705071475" lon="9.991984030201834"><ele>836.0</ele><time>2026-04-25T09:40:18.999Z</time></trkpt><trkpt lat="44.50882093922796" lon="9.992020953581822"><ele>836.0</ele><time>2026-04-25T09:40:19.999Z</time></trkpt><trkpt lat="44.508669705523204" lon="9.99204655996393"><ele>837.3333333333334</ele><time>2026-04-25T09:40:20.999Z</time></trkpt><trkpt lat="44.50851562780257" lon="9.99205961476843"><ele>838.6666666666667</ele><time>2026-04-25T09:40:21.999Z</time></trkpt><trkpt lat="44.5083628504402" lon="9.992061815742153"><ele>840.0</ele><time>2026-04-25T09:40:22.999Z</time></trkpt><trkpt lat="44.50820329469356" lon="9.992073590606108"><ele>840.0</ele><time>2026-04-25T09:40:23.999Z</time></trkpt><trkpt lat="44.508052598047065" lon="9.992066497769066"><ele>840.0</ele><time>2026-04-25T09:40:24.999Z</time></trkpt><trkpt lat="44.50790798744456" lon="9.992044250029602"><ele>840.0</ele><time>2026-04-25T09:40:25.999Z</time></trkpt><trkpt lat="44.50776214340077" lon="9.992004787941685"><ele>840.0</ele><time>2026-04-25T09:40:26.999Z</time></trkpt><trkpt lat="44.507629736702114" lon="9.991919688348617"><ele>840.6</ele><time>2026-04-25T09:40:27.999Z</time></trkpt><trkpt lat="44.507513905803464" lon="9.991848725253265"><ele>841.2</ele><time>2026-04-25T09:40:28.999Z</time></trkpt><trkpt lat="44.507416307807915" lon="9.991780921908171"><ele>841.8</ele><time>2026-04-25T09:40:29.999Z</time></trkpt><trkpt lat="44.5073422650509" lon="9.9917239264271"><ele>842.4</ele><time>2026-04-25T09:40:30.999Z</time></trkpt><trkpt lat="44.507273938801994" lon="9.991673221714336"><ele>843.0</ele><time>2026-04-25T09:40:31.999Z</time></trkpt><trkpt lat="44.50719352005328" lon="9.991623039859865"><ele>843.0</ele><time>2026-04-25T09:40:33.999Z</time></trkpt><trkpt lat="44.50712718910794" lon="9.991593709291333"><ele>843.0</ele><time>2026-04-25T09:40:35.999Z</time></trkpt><trkpt lat="44.5071725444036" lon="9.991842871256983"><ele>843.0</ele><time>2026-04-25T09:40:39.999Z</time></trkpt><trkpt lat="44.50727720421246" lon="9.991941181795799"><ele>843.0</ele><time>2026-04-25T09:40:40.999Z</time></trkpt><trkpt lat="44.507355659452315" lon="9.992010715369066"><ele>843.0</ele><time>2026-04-25T09:40:41.999Z</time></trkpt><trkpt lat="44.50744345681772" lon="9.992108591759639"><ele>843.0</ele><time>2026-04-25T09:40:42.999Z</time></trkpt><trkpt lat="44.50755070118727" lon="9.992217710080022"><ele>843.0</ele><time>2026-04-25T09:40:43.999Z</time></trkpt><trkpt lat="44.507660126222156" lon="9.992318122222935"><ele>843.0</ele><time>2026-04-25T09:40:44.999Z</time></trkpt><trkpt lat="44.50775901887705" lon="9.992418081843534"><ele>843.5</ele><time>2026-04-25T09:40:45.999Z</time></trkpt><trkpt lat="44.507867806777064" lon="9.992523959078152"><ele>844.0</ele><time>2026-04-25T09:40:46.999Z</time></trkpt><trkpt lat="44.507965769765995" lon="9.992661821429627"><ele>844.5</ele><time>2026-04-25T09:40:47.999Z</time></trkpt><trkpt lat="44.508060467292296" lon="9.99279830164982"><ele>845.0</ele><time>2026-04-25T09:40:48.999Z</time></trkpt><trkpt lat="44.508125974878666" lon="9.992954556754292"><ele>845.0</ele><time>2026-04-25T09:40:50Z</time></trkpt><trkpt lat="44.508182437810035" lon="9.993134234706252"><ele>845.0</ele><time>2026-04-25T09:40:51Z</time></trkpt><trkpt lat="44.50823866872939" lon="9.993327749338123"><ele>845.0</ele><time>2026-04-25T09:40:52Z</time></trkpt><trkpt lat="44.50830815865223" lon="9.993515506826029"><ele>845.0</ele><time>2026-04-25T09:40:53Z</time></trkpt><trkpt lat="44.508363507431305" lon="9.993722372375524"><ele>841.3333333333334</ele><time>2026-04-25T09:40:54Z</time></trkpt><trkpt lat="44.50842046105978" lon="9.993916178803444"><ele>837.6666666666667</ele><time>2026-04-25T09:40:55Z</time></trkpt><trkpt lat="44.50848725506144" lon="9.994107794274573"><ele>834.0</ele><time>2026-04-25T09:40:56Z</time></trkpt><trkpt lat="44.50856666541654" lon="9.994282857199039"><ele>835.6666666666667</ele><time>2026-04-25T09:40:57Z</time></trkpt><trkpt lat="44.50866618262037" lon="9.994439287485214"><ele>837.3333333333334</ele><time>2026-04-25T09:40:58Z</time></trkpt><trkpt lat="44.508783599381765" lon="9.994588430309024"><ele>839.0</ele><time>2026-04-25T09:40:59Z</time></trkpt><trkpt lat="44.50892242291474" lon="9.994699140298897"><ele>839.0</ele><time>2026-04-25T09:41:00Z</time></trkpt><trkpt lat="44.509093662876445" lon="9.994747736704419"><ele>839.0</ele><time>2026-04-25T09:41:01Z</time></trkpt><trkpt lat="44.5092886286066" lon="9.994731259592022"><ele>839.0</ele><time>2026-04-25T09:41:02Z</time></trkpt><trkpt lat="44.50947142141405" lon="9.994762386768107"><ele>843.0</ele><time>2026-04-25T09:41:03Z</time></trkpt><trkpt lat="44.509613457470046" lon="9.994842467282444"><ele>847.0</ele><time>2026-04-25T09:41:04Z</time></trkpt><trkpt lat="44.50969194441323" lon="9.995001288728208"><ele>851.0</ele><time>2026-04-25T09:41:05Z</time></trkpt><trkpt lat="44.509756290350765" lon="9.99521068012545"><ele>851.0</ele><time>2026-04-25T09:41:06Z</time></trkpt><trkpt lat="44.50984419456574" lon="9.995464046950362"><ele>851.0</ele><time>2026-04-25T09:41:07Z</time></trkpt><trkpt lat="44.5099165010277" lon="9.995714318211478"><ele>851.0</ele><time>2026-04-25T09:41:08Z</time></trkpt><trkpt lat="44.51001904320149" lon="9.995882867993565"><ele>846.6666666666667</ele><time>2026-04-25T09:41:09Z</time></trkpt><trkpt lat="44.51018120855443" lon="9.995984943302984"><ele>842.3333333333333</ele><time>2026-04-25T09:41:10Z</time></trkpt><trkpt lat="44.51034062840492" lon="9.996093068690627"><ele>838.0</ele><time>2026-04-25T09:41:11Z</time></trkpt><trkpt lat="44.510459706655745" lon="9.99629408740145"><ele>848.5</ele><time>2026-04-25T09:41:12Z</time></trkpt><trkpt lat="44.510613788719766" lon="9.996560520846387"><ele>859.0</ele><time>2026-04-25T09:41:13Z</time></trkpt><trkpt lat="44.51075629075744" lon="9.996791109585649"><ele>859.0</ele><time>2026-04-25T09:41:14Z</time></trkpt><trkpt lat="44.51081050095576" lon="9.99703741496716"><ele>859.0</ele><time>2026-04-25T09:41:15Z</time></trkpt><trkpt lat="44.5108543228491" lon="9.997260963667532"><ele>859.0</ele><time>2026-04-25T09:41:16Z</time></trkpt><trkpt lat="44.510911078352095" lon="9.997460347499661"><ele>859.5</ele><time>2026-04-25T09:41:17Z</time></trkpt><trkpt lat="44.510986051741575" lon="9.99762331751832"><ele>860.0</ele><time>2026-04-25T09:41:18Z</time></trkpt><trkpt lat="44.51109205029587" lon="9.99776532492511"><ele>860.5</ele><time>2026-04-25T09:41:19Z</time></trkpt><trkpt lat="44.51121307913436" lon="9.997887038173518"><ele>861.0</ele><time>2026-04-25T09:41:20Z</time></trkpt><trkpt lat="44.51132971674203" lon="9.997989656276195"><ele>861.0</ele><time>2026-04-25T09:41:21Z</time></trkpt><trkpt lat="44.51143361954367" lon="9.998079906200815"><ele>860.9999999999999</ele><time>2026-04-25T09:41:22Z</time></trkpt><trkpt lat="44.51154339005326" lon="9.998129050315821"><ele>860.9999999999999</ele><time>2026-04-25T09:41:23Z</time></trkpt><trkpt lat="44.51164844209575" lon="9.998125723159912"><ele>861.0</ele><time>2026-04-25T09:41:24Z</time></trkpt><trkpt lat="44.51174029278128" lon="9.998091739881072"><ele>861.0</ele><time>2026-04-25T09:41:25Z</time></trkpt><trkpt lat="44.511829358602625" lon="9.998075619707313"><ele>861.0</ele><time>2026-04-25T09:41:26Z</time></trkpt><trkpt lat="44.511922482571" lon="9.998037884925425"><ele>860.9999999999999</ele><time>2026-04-25T09:41:27Z</time></trkpt><trkpt lat="44.51200824726047" lon="9.997989788823215"><ele>860.9999999999999</ele><time>2026-04-25T09:41:28Z</time></trkpt><trkpt lat="44.51207887733049" lon="9.997937145757293"><ele>861.0</ele><time>2026-04-25T09:41:29Z</time></trkpt><trkpt lat="44.51220293257166" lon="9.997842159506844"><ele>861.0</ele><time>2026-04-25T09:41:31Z</time></trkpt><trkpt lat="44.51228709617167" lon="9.997756683451458"><ele>860.6666666666667</ele><time>2026-04-25T09:41:32Z</time></trkpt><trkpt lat="44.51237645007414" lon="9.997558099787591"><ele>860.3333333333334</ele><time>2026-04-25T09:41:33Z</time></trkpt><trkpt lat="44.51246467110549" lon="9.997327211906832"><ele>860.0</ele><time>2026-04-25T09:41:34Z</time></trkpt><trkpt lat="44.51254822869226" lon="9.997101899182066"><ele>864.0</ele><time>2026-04-25T09:41:35Z</time></trkpt><trkpt lat="44.512625034832226" lon="9.996894546755602"><ele>868.0</ele><time>2026-04-25T09:41:36Z</time></trkpt><trkpt lat="44.51269814220387" lon="9.996710673974421"><ele>872.0</ele><time>2026-04-25T09:41:37Z</time></trkpt><trkpt lat="44.512771400077035" lon="9.996543300295766"><ele>870.75</ele><time>2026-04-25T09:41:38Z</time></trkpt><trkpt lat="44.512866865707394" lon="9.996409914476141"><ele>869.5</ele><time>2026-04-25T09:41:39Z</time></trkpt><trkpt lat="44.512973539776695" lon="9.996303789656752"><ele>868.25</ele><time>2026-04-25T09:41:40Z</time></trkpt><trkpt lat="44.51311602293281" lon="9.996229523108646"><ele>867.0</ele><time>2026-04-25T09:41:41Z</time></trkpt><trkpt lat="44.51331073221382" lon="9.996147293073806"><ele>867.0</ele><time>2026-04-25T09:41:42Z</time></trkpt><trkpt lat="44.51351074585311" lon="9.9960630972543"><ele>867.0</ele><time>2026-04-25T09:41:43Z</time></trkpt><trkpt lat="44.51367642556048" lon="9.995977445273141"><ele>867.0</ele><time>2026-04-25T09:41:44Z</time></trkpt><trkpt lat="44.51382078534678" lon="9.995915638455095"><ele>866.0</ele><time>2026-04-25T09:41:45Z</time></trkpt><trkpt lat="44.51395683791139" lon="9.99588225873803"><ele>865.0</ele><time>2026-04-25T09:41:46Z</time></trkpt><trkpt lat="44.51411622006466" lon="9.995845392974633"><ele>864.0</ele><time>2026-04-25T09:41:47Z</time></trkpt><trkpt lat="44.51430545350261" lon="9.995865892431343"><ele>864.0</ele><time>2026-04-25T09:41:48Z</time></trkpt><trkpt lat="44.51453522642621" lon="9.995897193545535"><ele>864.0</ele><time>2026-04-25T09:41:49Z</time></trkpt><trkpt lat="44.5147474194448" lon="9.995926451166943"><ele>864.0</ele><time>2026-04-25T09:41:50Z</time></trkpt><trkpt lat="44.514961319740316" lon="9.99596635935782"><ele>864.6666666666667</ele><time>2026-04-25T09:41:51Z</time></trkpt><trkpt lat="44.515178024286634" lon="9.995989123270656"><ele>865.3333333333334</ele><time>2026-04-25T09:41:52Z</time></trkpt><trkpt lat="44.51538743531005" lon="9.99600800666266"><ele>866.0</ele><time>2026-04-25T09:41:53Z</time></trkpt><trkpt lat="44.51559902533947" lon="9.99603167273917"><ele>868.0</ele><time>2026-04-25T09:41:54Z</time></trkpt><trkpt lat="44.51579634841756" lon="9.996052393325972"><ele>870.0</ele><time>2026-04-25T09:41:55Z</time></trkpt><trkpt lat="44.51598500233527" lon="9.996067149827127"><ele>872.0</ele><time>2026-04-25T09:41:56Z</time></trkpt><trkpt lat="44.516173929304934" lon="9.996081783543701"><ele>873.3333333333334</ele><time>2026-04-25T09:41:57Z</time></trkpt><trkpt lat="44.51635955341078" lon="9.996098596640746"><ele>874.6666666666667</ele><time>2026-04-25T09:41:58Z</time></trkpt><trkpt lat="44.51654718124891" lon="9.996118679194279"><ele>876.0</ele><time>2026-04-25T09:41:59Z</time></trkpt><trkpt lat="44.51671898200732" lon="9.996145442774674"><ele>876.0</ele><time>2026-04-25T09:41:59.999Z</time></trkpt><trkpt lat="44.5168807423406" lon="9.996148373543098"><ele>876.0</ele><time>2026-04-25T09:42:00.999Z</time></trkpt><trkpt lat="44.517016058208284" lon="9.996097406449707"><ele>876.0</ele><time>2026-04-25T09:42:01.999Z</time></trkpt><trkpt lat="44.517121275442626" lon="9.99594734306447"><ele>876.3333333333333</ele><time>2026-04-25T09:42:02.999Z</time></trkpt><trkpt lat="44.51721415087342" lon="9.995723506069547"><ele>876.6666666666666</ele><time>2026-04-25T09:42:03.999Z</time></trkpt><trkpt lat="44.51727806697631" lon="9.99546356945015"><ele>877.0</ele><time>2026-04-25T09:42:04.999Z</time></trkpt><trkpt lat="44.517412388373316" lon="9.995232167203339"><ele>877.0</ele><time>2026-04-25T09:42:05.999Z</time></trkpt><trkpt lat="44.51757778319682" lon="9.995015994178933"><ele>877.0</ele><time>2026-04-25T09:42:06.999Z</time></trkpt><trkpt lat="44.51777116780989" lon="9.994795405496014"><ele>878.5</ele><time>2026-04-25T09:42:07.999Z</time></trkpt><trkpt lat="44.51794549197612" lon="9.994575674472305"><ele>880.0</ele><time>2026-04-25T09:42:08.999Z</time></trkpt><trkpt lat="44.51812959409861" lon="9.994372896651003"><ele>880.0</ele><time>2026-04-25T09:42:09.999Z</time></trkpt><trkpt lat="44.518312458857565" lon="9.99418404529289"><ele>880.0</ele><time>2026-04-25T09:42:10.999Z</time></trkpt><trkpt lat="44.51847617757574" lon="9.994015169086756"><ele>880.0</ele><time>2026-04-25T09:42:11.999Z</time></trkpt><trkpt lat="44.51864759679278" lon="9.993912606550762"><ele>883.0</ele><time>2026-04-25T09:42:12.999Z</time></trkpt><trkpt lat="44.518849207338384" lon="9.99390791951302"><ele>886.0</ele><time>2026-04-25T09:42:13.999Z</time></trkpt><trkpt lat="44.519076328196185" lon="9.993921969924367"><ele>889.0</ele><time>2026-04-25T09:42:14.999Z</time></trkpt><trkpt lat="44.51933634927494" lon="9.993964353163248"><ele>889.5</ele><time>2026-04-25T09:42:15.999Z</time></trkpt><trkpt lat="44.51960186768284" lon="9.994030030187686"><ele>890.0</ele><time>2026-04-25T09:42:16.999Z</time></trkpt><trkpt lat="44.51987054389549" lon="9.994075110814068"><ele>890.0</ele><time>2026-04-25T09:42:17.999Z</time></trkpt><trkpt lat="44.52015246629979" lon="9.994079629927784"><ele>890.0</ele><time>2026-04-25T09:42:18.999Z</time></trkpt><trkpt lat="44.52041466949864" lon="9.994064896217496"><ele>892.5</ele><time>2026-04-25T09:42:19.999Z</time></trkpt><trkpt lat="44.52065447482245" lon="9.994099683544338"><ele>895.0</ele><time>2026-04-25T09:42:20.999Z</time></trkpt><trkpt lat="44.520862233376725" lon="9.994158831485972"><ele>893.6666666666666</ele><time>2026-04-25T09:42:21.999Z</time></trkpt><trkpt lat="44.52102760817184" lon="9.994311225701848"><ele>892.3333333333333</ele><time>2026-04-25T09:42:22.999Z</time></trkpt><trkpt lat="44.521219494971454" lon="9.994490324267232"><ele>891.0</ele><time>2026-04-25T09:42:23.999Z</time></trkpt><trkpt lat="44.52143473273321" lon="9.994673148002542"><ele>896.5</ele><time>2026-04-25T09:42:24.999Z</time></trkpt><trkpt lat="44.52164598883852" lon="9.994885511899012"><ele>902.0</ele><time>2026-04-25T09:42:25.999Z</time></trkpt><trkpt lat="44.52185644790222" lon="9.995065359925281"><ele>902.0</ele><time>2026-04-25T09:42:26.999Z</time></trkpt><trkpt lat="44.522002493669596" lon="9.995320523196364"><ele>902.0</ele><time>2026-04-25T09:42:27.999Z</time></trkpt><trkpt lat="44.52215460347311" lon="9.995529534694587"><ele>902.0</ele><time>2026-04-25T09:42:28.999Z</time></trkpt><trkpt lat="44.52229691985258" lon="9.99570402468529"><ele>906.0</ele><time>2026-04-25T09:42:29.999Z</time></trkpt><trkpt lat="44.522478887366674" lon="9.99579410299363"><ele>910.0</ele><time>2026-04-25T09:42:30.999Z</time></trkpt><trkpt lat="44.52269279512597" lon="9.995790492326384"><ele>914.0</ele><time>2026-04-25T09:42:31.999Z</time></trkpt><trkpt lat="44.52292895722292" lon="9.995745899720534"><ele>916.5</ele><time>2026-04-25T09:42:32.999Z</time></trkpt><trkpt lat="44.52317323602973" lon="9.995722054196444"><ele>919.0</ele><time>2026-04-25T09:42:33.999Z</time></trkpt><trkpt lat="44.523443642384386" lon="9.995724819884911"><ele>919.0</ele><time>2026-04-25T09:42:34.999Z</time></trkpt><trkpt lat="44.52370357515248" lon="9.995730836511562"><ele>919.0</ele><time>2026-04-25T09:42:35.999Z</time></trkpt><trkpt lat="44.52394617964511" lon="9.995729065830457"><ele>918.3333333333333</ele><time>2026-04-25T09:42:36.999Z</time></trkpt><trkpt lat="44.52415146922106" lon="9.995718832444634"><ele>917.6666666666667</ele><time>2026-04-25T09:42:37.999Z</time></trkpt><trkpt lat="44.52431015217655" lon="9.995696099399128"><ele>917.0</ele><time>2026-04-25T09:42:38.999Z</time></trkpt><trkpt lat="44.52444810789897" lon="9.995598116896565"><ele>919.3333333333334</ele><time>2026-04-25T09:42:39.999Z</time></trkpt><trkpt lat="44.52456951787461" lon="9.995411068094546"><ele>921.6666666666667</ele><time>2026-04-25T09:42:40.999Z</time></trkpt><trkpt lat="44.524662150230256" lon="9.995149302547247"><ele>924.0</ele><time>2026-04-25T09:42:41.999Z</time></trkpt><trkpt lat="44.52474766818746" lon="9.994942200051014"><ele>924.0</ele><time>2026-04-25T09:42:42.999Z</time></trkpt><trkpt lat="44.524908638747846" lon="9.994888182948852"><ele>924.0</ele><time>2026-04-25T09:42:43.999Z</time></trkpt><trkpt lat="44.52510999247506" lon="9.99487316553608"><ele>924.0</ele><time>2026-04-25T09:42:44.999Z</time></trkpt><trkpt lat="44.52534014746362" lon="9.99486467644116"><ele>922.0</ele><time>2026-04-25T09:42:45.999Z</time></trkpt><trkpt lat="44.525576627848565" lon="9.994858465839629"><ele>920.0</ele><time>2026-04-25T09:42:46.999Z</time></trkpt><trkpt lat="44.52579820519505" lon="9.994831601794269"><ele>920.0</ele><time>2026-04-25T09:42:47.999Z</time></trkpt><trkpt lat="44.526008912085224" lon="9.994736465560024"><ele>920.0</ele><time>2026-04-25T09:42:48.999Z</time></trkpt><trkpt lat="44.52621013759107" lon="9.994565894972888"><ele>919.3333333333334</ele><time>2026-04-25T09:42:49.999Z</time></trkpt><trkpt lat="44.52638091006484" lon="9.994399125901824"><ele>918.6666666666667</ele><time>2026-04-25T09:42:50.999Z</time></trkpt><trkpt lat="44.526542715527654" lon="9.994319508772898"><ele>918.0</ele><time>2026-04-25T09:42:51.999Z</time></trkpt><trkpt lat="44.52668556473307" lon="9.994308913560012"><ele>918.0</ele><time>2026-04-25T09:42:52.999Z</time></trkpt><trkpt lat="44.52682954676435" lon="9.994362915677225"><ele>918.0</ele><time>2026-04-25T09:42:53.999Z</time></trkpt><trkpt lat="44.526953171347294" lon="9.994514848350837"><ele>918.0</ele><time>2026-04-25T09:42:54.999Z</time></trkpt><trkpt lat="44.527056455080825" lon="9.994732538443705"><ele>916.3333333333333</ele><time>2026-04-25T09:42:56Z</time></trkpt><trkpt lat="44.52718859868953" lon="9.994938613838803"><ele>914.6666666666666</ele><time>2026-04-25T09:42:57Z</time></trkpt><trkpt lat="44.52732387471262" lon="9.995102169439887"><ele>913.0</ele><time>2026-04-25T09:42:58Z</time></trkpt><trkpt lat="44.52751884195847" lon="9.995192709450478"><ele>913.0</ele><time>2026-04-25T09:42:59Z</time></trkpt><trkpt lat="44.527745997282224" lon="9.99524609126123"><ele>913.0</ele><time>2026-04-25T09:43:00Z</time></trkpt><trkpt lat="44.52796454590715" lon="9.995283346106461"><ele>917.6666666666666</ele><time>2026-04-25T09:43:01Z</time></trkpt><trkpt lat="44.52814797252649" lon="9.995406666953656"><ele>922.3333333333333</ele><time>2026-04-25T09:43:02Z</time></trkpt><trkpt lat="44.528322124169925" lon="9.995579218588952"><ele>927.0</ele><time>2026-04-25T09:43:03Z</time></trkpt><trkpt lat="44.52848317299732" lon="9.995798454750195"><ele>926.0</ele><time>2026-04-25T09:43:04Z</time></trkpt><trkpt lat="44.52861178964444" lon="9.995944575565138"><ele>925.0</ele><time>2026-04-25T09:43:05Z</time></trkpt><trkpt lat="44.528725922205105" lon="9.99602451665439"><ele>924.0</ele><time>2026-04-25T09:43:06Z</time></trkpt><trkpt lat="44.5288692295787" lon="9.996017228180692"><ele>923.0</ele><time>2026-04-25T09:43:07Z</time></trkpt><trkpt lat="44.52904573894812" lon="9.99592733551692"><ele>927.6666666666667</ele><time>2026-04-25T09:43:08Z</time></trkpt><trkpt lat="44.529214056471865" lon="9.995773395898864"><ele>932.3333333333333</ele><time>2026-04-25T09:43:09Z</time></trkpt><trkpt lat="44.529380224487525" lon="9.995704773365562"><ele>937.0</ele><time>2026-04-25T09:43:10Z</time></trkpt><trkpt lat="44.52952523759" lon="9.995779410045559"><ele>935.0</ele><time>2026-04-25T09:43:11Z</time></trkpt><trkpt lat="44.52968669847912" lon="9.995924314914234"><ele>933.0</ele><time>2026-04-25T09:43:12Z</time></trkpt><trkpt lat="44.52990991667984" lon="9.996097419481401"><ele>931.0</ele><time>2026-04-25T09:43:13Z</time></trkpt><trkpt lat="44.530110458058985" lon="9.99627152747052"><ele>931.0</ele><time>2026-04-25T09:43:14Z</time></trkpt><trkpt lat="44.530311839581806" lon="9.99644384530852"><ele>931.0</ele><time>2026-04-25T09:43:15Z</time></trkpt><trkpt lat="44.53050056184183" lon="9.996616533866483"><ele>929.0</ele><time>2026-04-25T09:43:16Z</time></trkpt><trkpt lat="44.53064885349397" lon="9.996733847641671"><ele>927.0</ele><time>2026-04-25T09:43:17Z</time></trkpt><trkpt lat="44.53080463680007" lon="9.996846397934322"><ele>925.0</ele><time>2026-04-25T09:43:18Z</time></trkpt><trkpt lat="44.53099923753077" lon="9.9969203930264"><ele>925.0</ele><time>2026-04-25T09:43:19Z</time></trkpt><trkpt lat="44.531178496858644" lon="9.996976968563173"><ele>925.0</ele><time>2026-04-25T09:43:20Z</time></trkpt><trkpt lat="44.53133051471684" lon="9.996827503767587"><ele>925.0</ele><time>2026-04-25T09:43:21Z</time></trkpt><trkpt lat="44.531450197895026" lon="9.996891558456847"><ele>927.6666666666666</ele><time>2026-04-25T09:43:22Z</time></trkpt><trkpt lat="44.531548142930816" lon="9.997055004697867"><ele>930.3333333333333</ele><time>2026-04-25T09:43:23Z</time></trkpt><trkpt lat="44.531596186263776" lon="9.997306741571352"><ele>933.0</ele><time>2026-04-25T09:43:24Z</time></trkpt><trkpt lat="44.531601118957816" lon="9.99759251048641"><ele>933.0</ele><time>2026-04-25T09:43:25Z</time></trkpt><trkpt lat="44.531641449795856" lon="9.997835536788497"><ele>933.0</ele><time>2026-04-25T09:43:26Z</time></trkpt><trkpt lat="44.53173094219109" lon="9.998039026539503"><ele>933.0</ele><time>2026-04-25T09:43:27Z</time></trkpt><trkpt lat="44.53188314105437" lon="9.99818692843445"><ele>933.0</ele><time>2026-04-25T09:43:28Z</time></trkpt><trkpt lat="44.53205547196831" lon="9.998308249736953"><ele>933.0</ele><time>2026-04-25T09:43:29Z</time></trkpt><trkpt lat="44.5321993834501" lon="9.998362673234695"><ele>933.0</ele><time>2026-04-25T09:43:30Z</time></trkpt><trkpt lat="44.532381379440764" lon="9.998364604364294"><ele>935.6666666666667</ele><time>2026-04-25T09:43:31Z</time></trkpt><trkpt lat="44.5325445698886" lon="9.998253975081129"><ele>938.3333333333334</ele><time>2026-04-25T09:43:32Z</time></trkpt><trkpt lat="44.53270618419062" lon="9.998100725279087"><ele>941.0</ele><time>2026-04-25T09:43:33Z</time></trkpt><trkpt lat="44.53287019037135" lon="9.998057387254573"><ele>940.5</ele><time>2026-04-25T09:43:34Z</time></trkpt><trkpt lat="44.533138787341976" lon="9.998077222250469"><ele>940.0</ele><time>2026-04-25T09:43:35Z</time></trkpt><trkpt lat="44.53337905776394" lon="9.998099336594445"><ele>940.0</ele><time>2026-04-25T09:43:36Z</time></trkpt><trkpt lat="44.53363036238635" lon="9.998115441277918"><ele>940.0</ele><time>2026-04-25T09:43:37Z</time></trkpt><trkpt lat="44.533879100527464" lon="9.998124131940436"><ele>940.0</ele><time>2026-04-25T09:43:38Z</time></trkpt><trkpt lat="44.534120701185074" lon="9.998129254355424"><ele>940.0</ele><time>2026-04-25T09:43:39Z</time></trkpt><trkpt lat="44.53433298355396" lon="9.998137606225491"><ele>940.0</ele><time>2026-04-25T09:43:40Z</time></trkpt><trkpt lat="44.53454364714518" lon="9.998157455079008"><ele>940.0</ele><time>2026-04-25T09:43:41Z</time></trkpt><trkpt lat="44.5347433263031" lon="9.998221739677403"><ele>940.0</ele><time>2026-04-25T09:43:42Z</time></trkpt><trkpt lat="44.53492458074724" lon="9.998407571820623"><ele>939.3333333333333</ele><time>2026-04-25T09:43:43Z</time></trkpt><trkpt lat="44.53509512915744" lon="9.998597662063716"><ele>938.6666666666667</ele><time>2026-04-25T09:43:44Z</time></trkpt><trkpt lat="44.535252558638405" lon="9.998758610113663"><ele>938.0</ele><time>2026-04-25T09:43:45Z</time></trkpt><trkpt lat="44.53536426570211" lon="9.998882822285518"><ele>939.5</ele><time>2026-04-25T09:43:46Z</time></trkpt><trkpt lat="44.53548601372382" lon="9.99894960732559"><ele>941.0</ele><time>2026-04-25T09:43:47Z</time></trkpt><trkpt lat="44.53562470482327" lon="9.998933544021256"><ele>942.5</ele><time>2026-04-25T09:43:48Z</time></trkpt><trkpt lat="44.53577257272383" lon="9.998816875156262"><ele>944.0</ele><time>2026-04-25T09:43:49Z</time></trkpt><trkpt lat="44.53590059895836" lon="9.998606407394602"><ele>944.0</ele><time>2026-04-25T09:43:50Z</time></trkpt><trkpt lat="44.53603649823445" lon="9.998374433915021"><ele>944.0</ele><time>2026-04-25T09:43:51Z</time></trkpt><trkpt lat="44.53619450940012" lon="9.99817188582711"><ele>944.0</ele><time>2026-04-25T09:43:52Z</time></trkpt><trkpt lat="44.53636426365615" lon="9.99805251667467"><ele>945.3333333333334</ele><time>2026-04-25T09:43:53Z</time></trkpt><trkpt lat="44.53658200045443" lon="9.998045793269386"><ele>946.6666666666667</ele><time>2026-04-25T09:43:54Z</time></trkpt><trkpt lat="44.536793253632055" lon="9.998086048769245"><ele>948.0</ele><time>2026-04-25T09:43:55Z</time></trkpt><trkpt lat="44.5369939309852" lon="9.998224809638984"><ele>948.5</ele><time>2026-04-25T09:43:56Z</time></trkpt><trkpt lat="44.537203932828554" lon="9.998396420189763"><ele>949.0</ele><time>2026-04-25T09:43:57Z</time></trkpt><trkpt lat="44.5374193325572" lon="9.99856430010995"><ele>949.0</ele><time>2026-04-25T09:43:58Z</time></trkpt><trkpt lat="44.53760465018261" lon="9.998730819162809"><ele>949.0</ele><time>2026-04-25T09:43:59Z</time></trkpt><trkpt lat="44.53771350566985" lon="9.998975333123788"><ele>949.0</ele><time>2026-04-25T09:44:00Z</time></trkpt><trkpt lat="44.53781539415837" lon="9.999286771702382"><ele>951.0</ele><time>2026-04-25T09:44:01Z</time></trkpt><trkpt lat="44.53793726884798" lon="9.999628715870701"><ele>953.0</ele><time>2026-04-25T09:44:02Z</time></trkpt><trkpt lat="44.5380507622349" lon="10.00000302991867"><ele>953.0</ele><time>2026-04-25T09:44:03Z</time></trkpt><trkpt lat="44.5381885582627" lon="10.000406935041944"><ele>953.0</ele><time>2026-04-25T09:44:04Z</time></trkpt><trkpt lat="44.538324715509226" lon="10.000806225439263"><ele>954.5</ele><time>2026-04-25T09:44:04.999Z</time></trkpt><trkpt lat="44.53843854457776" lon="10.001155873429955"><ele>956.0</ele><time>2026-04-25T09:44:05.999Z</time></trkpt><trkpt lat="44.53853760883357" lon="10.001465542375163"><ele>955.0</ele><time>2026-04-25T09:44:06.999Z</time></trkpt><trkpt lat="44.53857621650823" lon="10.001750413276007"><ele>954.0</ele><time>2026-04-25T09:44:07.999Z</time></trkpt><trkpt lat="44.53855701883003" lon="10.001978821825444"><ele>953.0</ele><time>2026-04-25T09:44:08.999Z</time></trkpt><trkpt lat="44.53848544718359" lon="10.002257999416862"><ele>954.5</ele><time>2026-04-25T09:44:09.999Z</time></trkpt><trkpt lat="44.53841965473272" lon="10.002586582296434"><ele>956.0</ele><time>2026-04-25T09:44:10.999Z</time></trkpt><trkpt lat="44.53834197340667" lon="10.002896670058544"><ele>956.0</ele><time>2026-04-25T09:44:11.999Z</time></trkpt><trkpt lat="44.538303336669216" lon="10.003176831827465"><ele>956.0</ele><time>2026-04-25T09:44:12.999Z</time></trkpt><trkpt lat="44.53831582938004" lon="10.003453250486729"><ele>956.0</ele><time>2026-04-25T09:44:13.999Z</time></trkpt><trkpt lat="44.53839223541872" lon="10.00372937679607"><ele>957.0</ele><time>2026-04-25T09:44:14.999Z</time></trkpt><trkpt lat="44.53848801740851" lon="10.0039844350497"><ele>958.0</ele><time>2026-04-25T09:44:15.999Z</time></trkpt><trkpt lat="44.538607357639336" lon="10.004205344532023"><ele>959.0</ele><time>2026-04-25T09:44:16.999Z</time></trkpt><trkpt lat="44.53873858576579" lon="10.004331895378039"><ele>961.6666666666667</ele><time>2026-04-25T09:44:17.999Z</time></trkpt><trkpt lat="44.538856257352755" lon="10.004370890384966"><ele>964.3333333333333</ele><time>2026-04-25T09:44:18.999Z</time></trkpt><trkpt lat="44.539115608697706" lon="10.004560822339732"><ele>967.0</ele><time>2026-04-25T09:44:19.999Z</time></trkpt><trkpt lat="44.53936747144576" lon="10.004576190356449"><ele>965.5</ele><time>2026-04-25T09:44:20.999Z</time></trkpt><trkpt lat="44.53962137096372" lon="10.004608563863941"><ele>964.0</ele><time>2026-04-25T09:44:21.999Z</time></trkpt><trkpt lat="44.539864390830445" lon="10.004665108842762"><ele>964.0</ele><time>2026-04-25T09:44:22.999Z</time></trkpt><trkpt lat="44.54009962863974" lon="10.00476114540421"><ele>964.0</ele><time>2026-04-25T09:44:23.999Z</time></trkpt><trkpt lat="44.54031207446332" lon="10.004859079110023"><ele>959.6666666666666</ele><time>2026-04-25T09:44:24.999Z</time></trkpt><trkpt lat="44.54048876846702" lon="10.004919936392376"><ele>955.3333333333333</ele><time>2026-04-25T09:44:25.999Z</time></trkpt><trkpt lat="44.54066640046042" lon="10.004907612364919"><ele>951.0</ele><time>2026-04-25T09:44:26.999Z</time></trkpt><trkpt lat="44.54084366583832" lon="10.004796596471508"><ele>951.0</ele><time>2026-04-25T09:44:27.999Z</time></trkpt><trkpt lat="44.541040460243934" lon="10.004673229339968"><ele>951.0</ele><time>2026-04-25T09:44:28.999Z</time></trkpt><trkpt lat="44.54121554228994" lon="10.004541158553772"><ele>951.0</ele><time>2026-04-25T09:44:29.999Z</time></trkpt><trkpt lat="44.54139381757195" lon="10.004470505655547"><ele>946.6666666666667</ele><time>2026-04-25T09:44:30.999Z</time></trkpt><trkpt lat="44.541580251362795" lon="10.004544212974942"><ele>942.3333333333334</ele><time>2026-04-25T09:44:31.999Z</time></trkpt><trkpt lat="44.54175419448609" lon="10.004591611470321"><ele>938.0</ele><time>2026-04-25T09:44:32.999Z</time></trkpt><trkpt lat="44.541878819911304" lon="10.004600813639263"><ele>938.0</ele><time>2026-04-25T09:44:33.999Z</time></trkpt><trkpt lat="44.54199076328194" lon="10.004577356282136"><ele>938.0</ele><time>2026-04-25T09:44:34.999Z</time></trkpt><trkpt lat="44.54210318594828" lon="10.00446193991066"><ele>938.0</ele><time>2026-04-25T09:44:35.999Z</time></trkpt><trkpt lat="44.54218385752454" lon="10.00427539561637"><ele>938.0</ele><time>2026-04-25T09:44:36.999Z</time></trkpt><trkpt lat="44.542188828813046" lon="10.004050522020417"><ele>936.3333333333334</ele><time>2026-04-25T09:44:37.999Z</time></trkpt><trkpt lat="44.54213755233271" lon="10.003837052025391"><ele>934.6666666666667</ele><time>2026-04-25T09:44:38.999Z</time></trkpt><trkpt lat="44.5420128683107" lon="10.003655822129815"><ele>933.0</ele><time>2026-04-25T09:44:39.999Z</time></trkpt><trkpt lat="44.541826949202736" lon="10.003474316723146"><ele>930.0</ele><time>2026-04-25T09:44:40.999Z</time></trkpt><trkpt lat="44.54162271119895" lon="10.00327235180152"><ele>927.0</ele><time>2026-04-25T09:44:41.999Z</time></trkpt><trkpt lat="44.54143656975668" lon="10.003075233356535"><ele>927.0</ele><time>2026-04-25T09:44:42.999Z</time></trkpt><trkpt lat="44.54127317518446" lon="10.002923647907094"><ele>927.0</ele><time>2026-04-25T09:44:43.999Z</time></trkpt><trkpt lat="44.541122821098014" lon="10.002825121629307"><ele>927.0</ele><time>2026-04-25T09:44:44.999Z</time></trkpt><trkpt lat="44.54101326315539" lon="10.002768834946902"><ele>925.6</ele><time>2026-04-25T09:44:45.999Z</time></trkpt><trkpt lat="44.54096607025237" lon="10.002683628596593"><ele>924.2</ele><time>2026-04-25T09:44:46.999Z</time></trkpt><trkpt lat="44.540958699781065" lon="10.002582491506852"><ele>922.8</ele><time>2026-04-25T09:44:47.999Z</time></trkpt><trkpt lat="44.54100224652547" lon="10.002456497802873"><ele>921.4</ele><time>2026-04-25T09:44:48.999Z</time></trkpt><trkpt lat="44.541107986264066" lon="10.0024022021358"><ele>920.0</ele><time>2026-04-25T09:44:49.999Z</time></trkpt><trkpt lat="44.541239336855696" lon="10.00245948919516"><ele>922.3333333333334</ele><time>2026-04-25T09:44:50.999Z</time></trkpt><trkpt lat="44.54144031838999" lon="10.002517040375523"><ele>924.6666666666667</ele><time>2026-04-25T09:44:51.999Z</time></trkpt><trkpt lat="44.541658266121765" lon="10.002562828565457"><ele>927.0</ele><time>2026-04-25T09:44:52.999Z</time></trkpt><trkpt lat="44.54187716991399" lon="10.002608267977612"><ele>923.3333333333333</ele><time>2026-04-25T09:44:53.999Z</time></trkpt><trkpt lat="44.54207909468145" lon="10.002676598678049"><ele>919.6666666666666</ele><time>2026-04-25T09:44:54.999Z</time></trkpt><trkpt lat="44.542230383482966" lon="10.002745560371128"><ele>916.0</ele><time>2026-04-25T09:44:55.999Z</time></trkpt><trkpt lat="44.54231593487506" lon="10.002875709446597"><ele>916.0</ele><time>2026-04-25T09:44:56.999Z</time></trkpt><trkpt lat="44.54234341413751" lon="10.003073492069039"><ele>916.0</ele><time>2026-04-25T09:44:57.999Z</time></trkpt><trkpt lat="44.54239767095583" lon="10.00335321790676"><ele>916.0</ele><time>2026-04-25T09:44:58.999Z</time></trkpt><trkpt lat="44.54249472081706" lon="10.003583869307512"><ele>917.3333333333333</ele><time>2026-04-25T09:44:59.999Z</time></trkpt><trkpt lat="44.542598891573526" lon="10.003828358163155"><ele>918.6666666666667</ele><time>2026-04-25T09:45:00.999Z</time></trkpt><trkpt lat="44.54276209354238" lon="10.004046455314885"><ele>920.0</ele><time>2026-04-25T09:45:02Z</time></trkpt><trkpt lat="44.54295242770803" lon="10.004200643575869"><ele>916.0</ele><time>2026-04-25T09:45:03Z</time></trkpt><trkpt lat="44.543170019860995" lon="10.00427552588093"><ele>912.0</ele><time>2026-04-25T09:45:04Z</time></trkpt><trkpt lat="44.54342442828151" lon="10.004294017391965"><ele>912.0</ele><time>2026-04-25T09:45:05Z</time></trkpt><trkpt lat="44.543678535964936" lon="10.00426829023131"><ele>912.0</ele><time>2026-04-25T09:45:06Z</time></trkpt><trkpt lat="44.54390373922608" lon="10.004208061422114"><ele>909.6666666666667</ele><time>2026-04-25T09:45:07Z</time></trkpt><trkpt lat="44.54411020329544" lon="10.004148649202019"><ele>907.3333333333334</ele><time>2026-04-25T09:45:08Z</time></trkpt><trkpt lat="44.544304895654136" lon="10.004147221882196"><ele>905.0</ele><time>2026-04-25T09:45:09Z</time></trkpt><trkpt lat="44.544506777479775" lon="10.004243118437223"><ele>902.6666666666667</ele><time>2026-04-25T09:45:10Z</time></trkpt><trkpt lat="44.54472491603116" lon="10.004316137214552"><ele>900.3333333333333</ele><time>2026-04-25T09:45:11Z</time></trkpt><trkpt lat="44.54493020641189" lon="10.004414714970503"><ele>898.0</ele><time>2026-04-25T09:45:12Z</time></trkpt><trkpt lat="44.545120658540846" lon="10.004490443115769"><ele>898.0</ele><time>2026-04-25T09:45:13Z</time></trkpt><trkpt lat="44.545293465533526" lon="10.004548107103432"><ele>898.0</ele><time>2026-04-25T09:45:14Z</time></trkpt><trkpt lat="44.545454977179745" lon="10.00463704986934"><ele>898.0</ele><time>2026-04-25T09:45:15Z</time></trkpt><trkpt lat="44.54562478148982" lon="10.004622618458335"><ele>897.0</ele><time>2026-04-25T09:45:16Z</time></trkpt><trkpt lat="44.54578058344598" lon="10.00431149893982"><ele>896.0</ele><time>2026-04-25T09:45:17Z</time></trkpt><trkpt lat="44.545946742934134" lon="10.004100745145713"><ele>892.3333333333334</ele><time>2026-04-25T09:45:18Z</time></trkpt><trkpt lat="44.54610144996798" lon="10.003922006672127"><ele>888.6666666666667</ele><time>2026-04-25T09:45:19Z</time></trkpt><trkpt lat="44.54627774908766" lon="10.003811397162115"><ele>885.0</ele><time>2026-04-25T09:45:20Z</time></trkpt><trkpt lat="44.54648848335413" lon="10.003800578724006"><ele>882.3333333333333</ele><time>2026-04-25T09:45:21Z</time></trkpt><trkpt lat="44.54669419687985" lon="10.00381513375468"><ele>879.6666666666666</ele><time>2026-04-25T09:45:22Z</time></trkpt><trkpt lat="44.54689965609161" lon="10.003867614606598"><ele>877.0</ele><time>2026-04-25T09:45:23Z</time></trkpt><trkpt lat="44.54712002870539" lon="10.00392620804115"><ele>875.6666666666666</ele><time>2026-04-25T09:45:24Z</time></trkpt><trkpt lat="44.54732336248427" lon="10.00396412111352"><ele>874.3333333333333</ele><time>2026-04-25T09:45:25Z</time></trkpt><trkpt lat="44.547518597060794" lon="10.003983155308294"><ele>873.0</ele><time>2026-04-25T09:45:26Z</time></trkpt><trkpt lat="44.547704631267635" lon="10.003919369928166"><ele>871.3333333333333</ele><time>2026-04-25T09:45:27Z</time></trkpt><trkpt lat="44.54788063296247" lon="10.003860079103662"><ele>869.6666666666666</ele><time>2026-04-25T09:45:28Z</time></trkpt><trkpt lat="44.548045089740235" lon="10.003893087799987"><ele>868.0</ele><time>2026-04-25T09:45:29Z</time></trkpt><trkpt lat="44.548204538657146" lon="10.003982792429403"><ele>868.0</ele><time>2026-04-25T09:45:30Z</time></trkpt><trkpt lat="44.54838061042122" lon="10.004080346437057"><ele>868.0</ele><time>2026-04-25T09:45:31Z</time></trkpt><trkpt lat="44.54854090913741" lon="10.004127498933023"><ele>868.0</ele><time>2026-04-25T09:45:32Z</time></trkpt><trkpt lat="44.548710588443505" lon="10.004111950401418"><ele>865.5</ele><time>2026-04-25T09:45:33Z</time></trkpt><trkpt lat="44.548895908315494" lon="10.003977363136629"><ele>863.0</ele><time>2026-04-25T09:45:34Z</time></trkpt><trkpt lat="44.549096814325246" lon="10.003749650852148"><ele>863.0</ele><time>2026-04-25T09:45:35Z</time></trkpt><trkpt lat="44.54928944646239" lon="10.003625795301947"><ele>863.0</ele><time>2026-04-25T09:45:36Z</time></trkpt><trkpt lat="44.54946667507838" lon="10.003558374784532"><ele>863.0</ele><time>2026-04-25T09:45:37Z</time></trkpt><trkpt lat="44.5496358259761" lon="10.00359628062491"><ele>862.6666666666667</ele><time>2026-04-25T09:45:38Z</time></trkpt><trkpt lat="44.549809521999514" lon="10.003668473636477"><ele>862.3333333333333</ele><time>2026-04-25T09:45:39Z</time></trkpt><trkpt lat="44.54998070100549" lon="10.003680916424377"><ele>862.0</ele><time>2026-04-25T09:45:40Z</time></trkpt><trkpt lat="44.55016497901402" lon="10.003630450186705"><ele>862.0</ele><time>2026-04-25T09:45:41Z</time></trkpt><trkpt lat="44.55034432190614" lon="10.003477152916313"><ele>862.0</ele><time>2026-04-25T09:45:42Z</time></trkpt><trkpt lat="44.55049195134792" lon="10.003248313064322"><ele>862.0</ele><time>2026-04-25T09:45:43Z</time></trkpt><trkpt lat="44.55061316057457" lon="10.002972068620357"><ele>859.3333333333333</ele><time>2026-04-25T09:45:44Z</time></trkpt><trkpt lat="44.550741831270784" lon="10.002717412040194"><ele>856.6666666666667</ele><time>2026-04-25T09:45:45Z</time></trkpt><trkpt lat="44.55088082381193" lon="10.00249097830208"><ele>854.0</ele><time>2026-04-25T09:45:46Z</time></trkpt><trkpt lat="44.551006980795584" lon="10.002291659116803"><ele>851.25</ele><time>2026-04-25T09:45:47Z</time></trkpt><trkpt lat="44.55110736743609" lon="10.002127877628144"><ele>848.5</ele><time>2026-04-25T09:45:48Z</time></trkpt><trkpt lat="44.551200946464576" lon="10.002015771685201"><ele>845.75</ele><time>2026-04-25T09:45:49Z</time></trkpt><trkpt lat="44.551329881938116" lon="10.002015045502244"><ele>843.0</ele><time>2026-04-25T09:45:50Z</time></trkpt><trkpt lat="44.551478957209916" lon="10.002088286380209"><ele>843.0</ele><time>2026-04-25T09:45:51Z</time></trkpt><trkpt lat="44.55168496850118" lon="10.002166785639028"><ele>843.0</ele><time>2026-04-25T09:45:52Z</time></trkpt><trkpt lat="44.55189319789941" lon="10.002254090960696"><ele>843.0</ele><time>2026-04-25T09:45:53Z</time></trkpt><trkpt lat="44.552103015461554" lon="10.002255997154005"><ele>842.3333333333333</ele><time>2026-04-25T09:45:54Z</time></trkpt><trkpt lat="44.55231124180847" lon="10.002223339842438"><ele>841.6666666666666</ele><time>2026-04-25T09:45:55Z</time></trkpt><trkpt lat="44.552499400964386" lon="10.002183835642766"><ele>841.0</ele><time>2026-04-25T09:45:56Z</time></trkpt><trkpt lat="44.5526442235999" lon="10.002119183603014"><ele>841.0</ele><time>2026-04-25T09:45:57Z</time></trkpt><trkpt lat="44.55282261608434" lon="10.001951613118395"><ele>841.0</ele><time>2026-04-25T09:45:58Z</time></trkpt><trkpt lat="44.55296652052019" lon="10.001716489503982"><ele>841.0</ele><time>2026-04-25T09:45:59Z</time></trkpt><trkpt lat="44.55307078577002" lon="10.001514205805583"><ele>837.0</ele><time>2026-04-25T09:46:00Z</time></trkpt><trkpt lat="44.553189662363884" lon="10.001468192106662"><ele>833.0</ele><time>2026-04-25T09:46:01Z</time></trkpt><trkpt lat="44.55332569176281" lon="10.001398344111529"><ele>829.0</ele><time>2026-04-25T09:46:02Z</time></trkpt><trkpt lat="44.553471703248476" lon="10.001319842482793"><ele>825.0</ele><time>2026-04-25T09:46:03Z</time></trkpt><trkpt lat="44.55359614313855" lon="10.001434024127844"><ele>825.0</ele><time>2026-04-25T09:46:04Z</time></trkpt><trkpt lat="44.55370333266802" lon="10.001594336157252"><ele>825.0</ele><time>2026-04-25T09:46:05Z</time></trkpt><trkpt lat="44.5537743424202" lon="10.00178431150823"><ele>825.0</ele><time>2026-04-25T09:46:06Z</time></trkpt><trkpt lat="44.553832546635626" lon="10.002043262638653"><ele>825.0</ele><time>2026-04-25T09:46:07Z</time></trkpt><trkpt lat="44.55391056105271" lon="10.002349021279711"><ele>825.0</ele><time>2026-04-25T09:46:08Z</time></trkpt><trkpt lat="44.55396967603728" lon="10.002651087606285"><ele>825.0</ele><time>2026-04-25T09:46:09Z</time></trkpt><trkpt lat="44.554029194441895" lon="10.002913308031141"><ele>825.0</ele><time>2026-04-25T09:46:10Z</time></trkpt><trkpt lat="44.55411325506234" lon="10.003128018757813"><ele>825.0</ele><time>2026-04-25T09:46:11Z</time></trkpt><trkpt lat="44.55421884564806" lon="10.003323186532468"><ele>827.6666666666667</ele><time>2026-04-25T09:46:12Z</time></trkpt><trkpt lat="44.554394350218935" lon="10.003469451883511"><ele>830.3333333333334</ele><time>2026-04-25T09:46:13Z</time></trkpt><trkpt lat="44.55460587453809" lon="10.003628862995146"><ele>833.0</ele><time>2026-04-25T09:46:13.999Z</time></trkpt><trkpt lat="44.55479257672596" lon="10.003799407591924"><ele>827.0</ele><time>2026-04-25T09:46:14.999Z</time></trkpt><trkpt lat="44.55497071783682" lon="10.003929241939872"><ele>821.0</ele><time>2026-04-25T09:46:15.999Z</time></trkpt><trkpt lat="44.555176109771836" lon="10.003994322278954"><ele>815.0</ele><time>2026-04-25T09:46:16.999Z</time></trkpt><trkpt lat="44.55535470996904" lon="10.004006235614915"><ele>812.5</ele><time>2026-04-25T09:46:17.999Z</time></trkpt><trkpt lat="44.55547690637367" lon="10.004037686508543"><ele>810.0</ele><time>2026-04-25T09:46:18.999Z</time></trkpt><trkpt lat="44.55557263282388" lon="10.004122369212457"><ele>807.5</ele><time>2026-04-25T09:46:19.999Z</time></trkpt><trkpt lat="44.555601059562115" lon="10.004315158518308"><ele>805.0</ele><time>2026-04-25T09:46:20.999Z</time></trkpt><trkpt lat="44.55560924401465" lon="10.004549095783762"><ele>805.0</ele><time>2026-04-25T09:46:21.999Z</time></trkpt><trkpt lat="44.55556851156726" lon="10.004794631860463"><ele>805.0</ele><time>2026-04-25T09:46:22.999Z</time></trkpt><trkpt lat="44.55550052312403" lon="10.00500641387387"><ele>805.0</ele><time>2026-04-25T09:46:23.999Z</time></trkpt><trkpt lat="44.555461962665106" lon="10.005199600297043"><ele>804.5</ele><time>2026-04-25T09:46:24.999Z</time></trkpt><trkpt lat="44.55542941550396" lon="10.005393039491697"><ele>804.0</ele><time>2026-04-25T09:46:25.999Z</time></trkpt><trkpt lat="44.55544167430398" lon="10.005591592804647"><ele>803.5</ele><time>2026-04-25T09:46:26.999Z</time></trkpt><trkpt lat="44.555501439152444" lon="10.005790698551804"><ele>803.0</ele><time>2026-04-25T09:46:27.999Z</time></trkpt><trkpt lat="44.55557412989924" lon="10.006007861353627"><ele>803.0</ele><time>2026-04-25T09:46:28.999Z</time></trkpt><trkpt lat="44.555661104793515" lon="10.006213702068074"><ele>803.0</ele><time>2026-04-25T09:46:29.999Z</time></trkpt><trkpt lat="44.55579017606882" lon="10.006410500966977"><ele>803.0</ele><time>2026-04-25T09:46:30.999Z</time></trkpt><trkpt lat="44.55595713807961" lon="10.00659977255911"><ele>806.3333333333334</ele><time>2026-04-25T09:46:31.999Z</time></trkpt><trkpt lat="44.55613667040081" lon="10.006779373183955"><ele>809.6666666666667</ele><time>2026-04-25T09:46:32.999Z</time></trkpt><trkpt lat="44.556268384216374" lon="10.00690970978541"><ele>813.0</ele><time>2026-04-25T09:46:33.999Z</time></trkpt><trkpt lat="44.55635951402398" lon="10.007017399895634"><ele>809.25</ele><time>2026-04-25T09:46:34.999Z</time></trkpt><trkpt lat="44.55643275885911" lon="10.007112503709275"><ele>805.5</ele><time>2026-04-25T09:46:35.999Z</time></trkpt><trkpt lat="44.556468989881225" lon="10.007356020967473"><ele>801.75</ele><time>2026-04-25T09:46:36.999Z</time></trkpt><trkpt lat="44.556520374262234" lon="10.007506099668333"><ele>798.0</ele><time>2026-04-25T09:46:37.999Z</time></trkpt><trkpt lat="44.556554950279015" lon="10.007652258234428"><ele>798.0</ele><time>2026-04-25T09:46:38.999Z</time></trkpt><trkpt lat="44.556630827993594" lon="10.007761131097643"><ele>798.0</ele><time>2026-04-25T09:46:39.999Z</time></trkpt><trkpt lat="44.55673581545314" lon="10.007797128756772"><ele>798.0</ele><time>2026-04-25T09:46:40.999Z</time></trkpt><trkpt lat="44.556852046589896" lon="10.007763022200756"><ele>798.0</ele><time>2026-04-25T09:46:41.999Z</time></trkpt><trkpt lat="44.55698229394766" lon="10.007697018426073"><ele>794.5</ele><time>2026-04-25T09:46:42.999Z</time></trkpt><trkpt lat="44.55712452308502" lon="10.007645973702921"><ele>791.0</ele><time>2026-04-25T09:46:43.999Z</time></trkpt><trkpt lat="44.557262617878564" lon="10.007620756937808"><ele>787.5</ele><time>2026-04-25T09:46:44.999Z</time></trkpt><trkpt lat="44.55738826187378" lon="10.007676144635521"><ele>784.0</ele><time>2026-04-25T09:46:45.999Z</time></trkpt><trkpt lat="44.55749138834516" lon="10.007764861812495"><ele>784.0</ele><time>2026-04-25T09:46:46.999Z</time></trkpt><trkpt lat="44.55753906517249" lon="10.007935406477609"><ele>784.0</ele><time>2026-04-25T09:46:47.999Z</time></trkpt><trkpt lat="44.557543868896" lon="10.00814781310133"><ele>784.0</ele><time>2026-04-25T09:46:48.999Z</time></trkpt><trkpt lat="44.557615565567765" lon="10.008362634696242"><ele>787.0</ele><time>2026-04-25T09:46:49.999Z</time></trkpt><trkpt lat="44.5577042276033" lon="10.008565365048753"><ele>790.0</ele><time>2026-04-25T09:46:50.999Z</time></trkpt><trkpt lat="44.5578473242064" lon="10.008740410915646"><ele>793.0</ele><time>2026-04-25T09:46:51.999Z</time></trkpt><trkpt lat="44.55796522731573" lon="10.008904016678521"><ele>789.0</ele><time>2026-04-25T09:46:52.999Z</time></trkpt><trkpt lat="44.55803719378192" lon="10.009091115573392"><ele>785.0</ele><time>2026-04-25T09:46:53.999Z</time></trkpt><trkpt lat="44.55809691455722" lon="10.009323879507582"><ele>781.0</ele><time>2026-04-25T09:46:54.999Z</time></trkpt><trkpt lat="44.55815769595333" lon="10.009570788528372"><ele>781.0</ele><time>2026-04-25T09:46:55.999Z</time></trkpt><trkpt lat="44.558239549082714" lon="10.009768254302625"><ele>781.0</ele><time>2026-04-25T09:46:56.999Z</time></trkpt><trkpt lat="44.55834028044692" lon="10.0099408359219"><ele>781.0</ele><time>2026-04-25T09:46:57.999Z</time></trkpt><trkpt lat="44.5584957863272" lon="10.010092878612506"><ele>782.0</ele><time>2026-04-25T09:46:58.999Z</time></trkpt><trkpt lat="44.558662371726946" lon="10.010237522273988"><ele>783.0</ele><time>2026-04-25T09:46:59.999Z</time></trkpt><trkpt lat="44.55882498573579" lon="10.010388293669372"><ele>784.0</ele><time>2026-04-25T09:47:00.999Z</time></trkpt><trkpt lat="44.558991528579874" lon="10.010519836616233"><ele>779.6666666666666</ele><time>2026-04-25T09:47:01.999Z</time></trkpt><trkpt lat="44.559161230988245" lon="10.010616228377891"><ele>775.3333333333333</ele><time>2026-04-25T09:47:02.999Z</time></trkpt><trkpt lat="44.5592959049767" lon="10.010736849129344"><ele>771.0</ele><time>2026-04-25T09:47:03.999Z</time></trkpt><trkpt lat="44.55938167278392" lon="10.01085911373775"><ele>771.0</ele><time>2026-04-25T09:47:04.999Z</time></trkpt><trkpt lat="44.55944000607852" lon="10.011006144729917"><ele>771.0</ele><time>2026-04-25T09:47:05.999Z</time></trkpt><trkpt lat="44.55948336678434" lon="10.011197983515238"><ele>771.0</ele><time>2026-04-25T09:47:06.999Z</time></trkpt><trkpt lat="44.55954015620055" lon="10.011411894368614"><ele>771.0</ele><time>2026-04-25T09:47:08Z</time></trkpt><trkpt lat="44.55956847517571" lon="10.011636337697604"><ele>765.0</ele><time>2026-04-25T09:47:09Z</time></trkpt><trkpt lat="44.55956243312963" lon="10.011886138537479"><ele>759.0</ele><time>2026-04-25T09:47:10Z</time></trkpt><trkpt lat="44.559577806331745" lon="10.01215637762963"><ele>753.0</ele><time>2026-04-25T09:47:11Z</time></trkpt><trkpt lat="44.55960796464685" lon="10.012417534308398"><ele>752.0</ele><time>2026-04-25T09:47:12Z</time></trkpt><trkpt lat="44.55967014690996" lon="10.012674793441704"><ele>751.0</ele><time>2026-04-25T09:47:13Z</time></trkpt><trkpt lat="44.55974311218093" lon="10.012931387785903"><ele>750.0</ele><time>2026-04-25T09:47:14Z</time></trkpt><trkpt lat="44.55981191285497" lon="10.013182294835572"><ele>750.0</ele><time>2026-04-25T09:47:15Z</time></trkpt><trkpt lat="44.55987313347374" lon="10.013422067343448"><ele>750.0</ele><time>2026-04-25T09:47:16Z</time></trkpt><trkpt lat="44.559930360875725" lon="10.013650359576982"><ele>750.0</ele><time>2026-04-25T09:47:17Z</time></trkpt><trkpt lat="44.55999969483881" lon="10.013861351870505"><ele>750.0</ele><time>2026-04-25T09:47:18Z</time></trkpt><trkpt lat="44.56009407516544" lon="10.014050286628633"><ele>750.0</ele><time>2026-04-25T09:47:19Z</time></trkpt><trkpt lat="44.56023320917802" lon="10.014187455795197"><ele>750.0</ele><time>2026-04-25T09:47:20Z</time></trkpt><trkpt lat="44.56041853835819" lon="10.014238763379907"><ele>746.3333333333334</ele><time>2026-04-25T09:47:21Z</time></trkpt><trkpt lat="44.560620347662514" lon="10.014248731887976"><ele>742.6666666666667</ele><time>2026-04-25T09:47:22Z</time></trkpt><trkpt lat="44.56080618462817" lon="10.01425212191559"><ele>739.0</ele><time>2026-04-25T09:47:23Z</time></trkpt><trkpt lat="44.5609731192324" lon="10.014306393463377"><ele>739.0</ele><time>2026-04-25T09:47:24Z</time></trkpt><trkpt lat="44.56114753659457" lon="10.014396746411885"><ele>739.0</ele><time>2026-04-25T09:47:25Z</time></trkpt><trkpt lat="44.56131476747159" lon="10.014519119004381"><ele>739.0</ele><time>2026-04-25T09:47:26Z</time></trkpt><trkpt lat="44.56148272815665" lon="10.014634095618296"><ele>735.3333333333334</ele><time>2026-04-25T09:47:27Z</time></trkpt><trkpt lat="44.561638745240465" lon="10.014764921674326"><ele>731.6666666666666</ele><time>2026-04-25T09:47:28Z</time></trkpt><trkpt lat="44.56180035066456" lon="10.014881656277144"><ele>728.0</ele><time>2026-04-25T09:47:29Z</time></trkpt><trkpt lat="44.56196411631799" lon="10.014984193145622"><ele>729.3333333333333</ele><time>2026-04-25T09:47:30Z</time></trkpt><trkpt lat="44.562122779595164" lon="10.01504628336659"><ele>730.6666666666666</ele><time>2026-04-25T09:47:31Z</time></trkpt><trkpt lat="44.562298273666315" lon="10.015015127605674"><ele>732.0</ele><time>2026-04-25T09:47:32Z</time></trkpt><trkpt lat="44.562483996850524" lon="10.014915893975667"><ele>729.0</ele><time>2026-04-25T09:47:33Z</time></trkpt><trkpt lat="44.56263937907103" lon="10.014851629106552"><ele>726.0</ele><time>2026-04-25T09:47:34Z</time></trkpt><trkpt lat="44.562743846303064" lon="10.014823497017902"><ele>723.0</ele><time>2026-04-25T09:47:35Z</time></trkpt><trkpt lat="44.562844746929116" lon="10.014833735746775"><ele>720.0</ele><time>2026-04-25T09:47:36Z</time></trkpt><trkpt lat="44.5629168023906" lon="10.01494873517809"><ele>718.0</ele><time>2026-04-25T09:47:37Z</time></trkpt><trkpt lat="44.562956772344855" lon="10.015128229129349"><ele>716.0</ele><time>2026-04-25T09:47:38Z</time></trkpt><trkpt lat="44.56303102620756" lon="10.015360047863025"><ele>714.0</ele><time>2026-04-25T09:47:39Z</time></trkpt><trkpt lat="44.563080340388105" lon="10.015611639485417"><ele>714.6666666666666</ele><time>2026-04-25T09:47:40Z</time></trkpt><trkpt lat="44.563145279162356" lon="10.015864832070257"><ele>715.3333333333333</ele><time>2026-04-25T09:47:41Z</time></trkpt><trkpt lat="44.56321654261192" lon="10.01610547870859"><ele>716.0</ele><time>2026-04-25T09:47:42Z</time></trkpt><trkpt lat="44.56330626845917" lon="10.016331539630944"><ele>716.0</ele><time>2026-04-25T09:47:43Z</time></trkpt><trkpt lat="44.56344428223425" lon="10.016538258668223"><ele>716.0</ele><time>2026-04-25T09:47:44Z</time></trkpt><trkpt lat="44.56361658629368" lon="10.016696153060945"><ele>716.0</ele><time>2026-04-25T09:47:45Z</time></trkpt><trkpt lat="44.56379125343796" lon="10.016834309052145"><ele>714.6666666666666</ele><time>2026-04-25T09:47:46Z</time></trkpt><trkpt lat="44.56394769778369" lon="10.016959832603998"><ele>713.3333333333334</ele><time>2026-04-25T09:47:47Z</time></trkpt><trkpt lat="44.564098947841984" lon="10.017071009787449"><ele>712.0</ele><time>2026-04-25T09:47:48Z</time></trkpt><trkpt lat="44.56426905475059" lon="10.017133672055007"><ele>712.0</ele><time>2026-04-25T09:47:49Z</time></trkpt><trkpt lat="44.56445744619191" lon="10.017124568874628"><ele>712.0</ele><time>2026-04-25T09:47:50Z</time></trkpt><trkpt lat="44.564634830124135" lon="10.017130604982523"><ele>712.0</ele><time>2026-04-25T09:47:51Z</time></trkpt><trkpt lat="44.56479604551204" lon="10.017220660825853"><ele>713.0</ele><time>2026-04-25T09:47:52Z</time></trkpt><trkpt lat="44.56496136826745" lon="10.01737303381484"><ele>714.0</ele><time>2026-04-25T09:47:53Z</time></trkpt><trkpt lat="44.56512291230468" lon="10.01751214296609"><ele>715.0</ele><time>2026-04-25T09:47:54Z</time></trkpt><trkpt lat="44.565294715424415" lon="10.017619768110649"><ele>712.5</ele><time>2026-04-25T09:47:55Z</time></trkpt><trkpt lat="44.56550715469332" lon="10.017672967835145"><ele>710.0</ele><time>2026-04-25T09:47:56Z</time></trkpt><trkpt lat="44.565755993926935" lon="10.017699778404555"><ele>710.0</ele><time>2026-04-25T09:47:57Z</time></trkpt><trkpt lat="44.56597888219078" lon="10.017734165378437"><ele>710.0</ele><time>2026-04-25T09:47:58Z</time></trkpt><trkpt lat="44.56617720739009" lon="10.017807902960131"><ele>710.0</ele><time>2026-04-25T09:47:59Z</time></trkpt><trkpt lat="44.566369890434146" lon="10.017914814572432"><ele>709.5</ele><time>2026-04-25T09:48:00Z</time></trkpt><trkpt lat="44.566558103602965" lon="10.018074689873686"><ele>709.0</ele><time>2026-04-25T09:48:01Z</time></trkpt><trkpt lat="44.56677222302839" lon="10.018239281301996"><ele>709.0</ele><time>2026-04-25T09:48:02Z</time></trkpt><trkpt lat="44.56698831656144" lon="10.018455282388754"><ele>709.0</ele><time>2026-04-25T09:48:03Z</time></trkpt><trkpt lat="44.567219819360474" lon="10.018659519320243"><ele>711.0</ele><time>2026-04-25T09:48:04Z</time></trkpt><trkpt lat="44.567460802003154" lon="10.018860984626144"><ele>713.0</ele><time>2026-04-25T09:48:05Z</time></trkpt><trkpt lat="44.567698547231814" lon="10.019061762700959"><ele>709.5</ele><time>2026-04-25T09:48:06Z</time></trkpt><trkpt lat="44.567938762144244" lon="10.019267439623079"><ele>706.0</ele><time>2026-04-25T09:48:07Z</time></trkpt><trkpt lat="44.56817920486833" lon="10.019472315928832"><ele>706.0</ele><time>2026-04-25T09:48:08Z</time></trkpt><trkpt lat="44.56841547595706" lon="10.019682159205892"><ele>706.0</ele><time>2026-04-25T09:48:09Z</time></trkpt><trkpt lat="44.56864765243188" lon="10.019893667483318"><ele>708.5</ele><time>2026-04-25T09:48:10Z</time></trkpt><trkpt lat="44.56885992699738" lon="10.020091513159645"><ele>711.0</ele><time>2026-04-25T09:48:11Z</time></trkpt><trkpt lat="44.569059135753875" lon="10.020275984102804"><ele>711.0</ele><time>2026-04-25T09:48:12Z</time></trkpt><trkpt lat="44.569232217403325" lon="10.020430396232902"><ele>711.0</ele><time>2026-04-25T09:48:13Z</time></trkpt><trkpt lat="44.56940440412219" lon="10.020529861773467"><ele>711.0</ele><time>2026-04-25T09:48:14Z</time></trkpt><trkpt lat="44.5695981125114" lon="10.020544959790104"><ele>713.3333333333334</ele><time>2026-04-25T09:48:15Z</time></trkpt><trkpt lat="44.56981208365039" lon="10.020498406546615"><ele>715.6666666666667</ele><time>2026-04-25T09:48:16Z</time></trkpt><trkpt lat="44.570030682687864" lon="10.020466824522327"><ele>718.0</ele><time>2026-04-25T09:48:16.999Z</time></trkpt><trkpt lat="44.57021725654252" lon="10.020471414417008"><ele>718.3333333333334</ele><time>2026-04-25T09:48:17.999Z</time></trkpt><trkpt lat="44.57036673650353" lon="10.020555378007087"><ele>718.6666666666666</ele><time>2026-04-25T09:48:18.999Z</time></trkpt><trkpt lat="44.57047832470885" lon="10.020703485901173"><ele>719.0</ele><time>2026-04-25T09:48:19.999Z</time></trkpt><trkpt lat="44.57062593714983" lon="10.02090635043512"><ele>722.3333333333333</ele><time>2026-04-25T09:48:20.999Z</time></trkpt><trkpt lat="44.57078110641277" lon="10.021114393169672"><ele>725.6666666666666</ele><time>2026-04-25T09:48:21.999Z</time></trkpt><trkpt lat="44.570926490081824" lon="10.021321305120107"><ele>729.0</ele><time>2026-04-25T09:48:22.999Z</time></trkpt><trkpt lat="44.57106352804065" lon="10.021495799542885"><ele>730.0</ele><time>2026-04-25T09:48:23.999Z</time></trkpt><trkpt lat="44.57122194786688" lon="10.021636999494227"><ele>731.0</ele><time>2026-04-25T09:48:24.999Z</time></trkpt><trkpt lat="44.57142322576969" lon="10.02174499724464"><ele>732.0</ele><time>2026-04-25T09:48:25.999Z</time></trkpt><trkpt lat="44.571644372394786" lon="10.021840253527095"><ele>736.5</ele><time>2026-04-25T09:48:26.999Z</time></trkpt><trkpt lat="44.57187065861028" lon="10.021947756159914"><ele>741.0</ele><time>2026-04-25T09:48:27.999Z</time></trkpt><trkpt lat="44.57208762355742" lon="10.022060261190639"><ele>742.0</ele><time>2026-04-25T09:48:28.999Z</time></trkpt><trkpt lat="44.57229551441362" lon="10.022149578748595"><ele>743.0</ele><time>2026-04-25T09:48:29.999Z</time></trkpt><trkpt lat="44.57244967218422" lon="10.022297025594076"><ele>744.0</ele><time>2026-04-25T09:48:30.999Z</time></trkpt><trkpt lat="44.57260658683646" lon="10.022468911843484"><ele>743.0</ele><time>2026-04-25T09:48:31.999Z</time></trkpt><trkpt lat="44.57274229916118" lon="10.022693734095657"><ele>742.0</ele><time>2026-04-25T09:48:32.999Z</time></trkpt><trkpt lat="44.57287017582754" lon="10.02296341341875"><ele>741.0</ele><time>2026-04-25T09:48:33.999Z</time></trkpt><trkpt lat="44.57300617057594" lon="10.023237243057762"><ele>739.6666666666666</ele><time>2026-04-25T09:48:34.999Z</time></trkpt><trkpt lat="44.573120034262985" lon="10.023499389750661"><ele>738.3333333333333</ele><time>2026-04-25T09:48:35.999Z</time></trkpt><trkpt lat="44.57322428438054" lon="10.023719969620954"><ele>737.0</ele><time>2026-04-25T09:48:36.999Z</time></trkpt><trkpt lat="44.57333011346845" lon="10.02390819526147"><ele>737.0</ele><time>2026-04-25T09:48:37.999Z</time></trkpt><trkpt lat="44.57347354592989" lon="10.024046719854613"><ele>737.0</ele><time>2026-04-25T09:48:38.999Z</time></trkpt><trkpt lat="44.5736728156036" lon="10.024152193954086"><ele>737.0</ele><time>2026-04-25T09:48:39.999Z</time></trkpt><trkpt lat="44.57390659522711" lon="10.024234222865237"><ele>737.0</ele><time>2026-04-25T09:48:40.999Z</time></trkpt><trkpt lat="44.574142300918794" lon="10.024311918083324"><ele>737.0</ele><time>2026-04-25T09:48:41.999Z</time></trkpt><trkpt lat="44.57437324111132" lon="10.024390801889743"><ele>734.0</ele><time>2026-04-25T09:48:42.999Z</time></trkpt><trkpt lat="44.57462292538715" lon="10.024485276758302"><ele>731.0</ele><time>2026-04-25T09:48:43.999Z</time></trkpt><trkpt lat="44.5748569875618" lon="10.024575190750344"><ele>731.0</ele><time>2026-04-25T09:48:44.999Z</time></trkpt><trkpt lat="44.57508081225507" lon="10.024661430223178"><ele>731.0</ele><time>2026-04-25T09:48:45.999Z</time></trkpt><trkpt lat="44.57529252435503" lon="10.024751610101612"><ele>732.0</ele><time>2026-04-25T09:48:46.999Z</time></trkpt><trkpt lat="44.57548475939258" lon="10.024880229608835"><ele>733.0</ele><time>2026-04-25T09:48:47.999Z</time></trkpt><trkpt lat="44.57566480097208" lon="10.02505314470809"><ele>734.0</ele><time>2026-04-25T09:48:48.999Z</time></trkpt><trkpt lat="44.57586192348917" lon="10.02526035256596"><ele>734.0</ele><time>2026-04-25T09:48:49.999Z</time></trkpt><trkpt lat="44.576073298026145" lon="10.025469912009916"><ele>734.0</ele><time>2026-04-25T09:48:50.999Z</time></trkpt><trkpt lat="44.57629142361979" lon="10.025701372678382"><ele>737.0</ele><time>2026-04-25T09:48:51.999Z</time></trkpt><trkpt lat="44.57650271505268" lon="10.025908172180372"><ele>740.0</ele><time>2026-04-25T09:48:52.999Z</time></trkpt><trkpt lat="44.576672810047135" lon="10.026116445769558"><ele>740.0</ele><time>2026-04-25T09:48:53.999Z</time></trkpt><trkpt lat="44.57681373099886" lon="10.026314240544586"><ele>740.0</ele><time>2026-04-25T09:48:54.999Z</time></trkpt><trkpt lat="44.576885857399674" lon="10.026527494672749"><ele>740.0</ele><time>2026-04-25T09:48:55.999Z</time></trkpt><trkpt lat="44.57695228880298" lon="10.026804159345975"><ele>741.3333333333333</ele><time>2026-04-25T09:48:56.999Z</time></trkpt><trkpt lat="44.57704592172873" lon="10.027091010409244"><ele>742.6666666666666</ele><time>2026-04-25T09:48:57.999Z</time></trkpt><trkpt lat="44.57715676831423" lon="10.027360745190693"><ele>744.0</ele><time>2026-04-25T09:48:58.999Z</time></trkpt><trkpt lat="44.57726449420171" lon="10.027624917066515"><ele>744.0</ele><time>2026-04-25T09:48:59.999Z</time></trkpt><trkpt lat="44.577352368372466" lon="10.027875570808774"><ele>744.0</ele><time>2026-04-25T09:49:00.999Z</time></trkpt><trkpt lat="44.57739243630339" lon="10.028134822458604"><ele>744.0</ele><time>2026-04-25T09:49:01.999Z</time></trkpt><trkpt lat="44.57745105362939" lon="10.028364089664866"><ele>746.3333333333334</ele><time>2026-04-25T09:49:02.999Z</time></trkpt><trkpt lat="44.57756329127366" lon="10.028569432596393"><ele>748.6666666666667</ele><time>2026-04-25T09:49:03.999Z</time></trkpt><trkpt lat="44.57773864124166" lon="10.028756916399214"><ele>751.0</ele><time>2026-04-25T09:49:04.999Z</time></trkpt><trkpt lat="44.577907800385084" lon="10.028905928385463"><ele>753.6666666666667</ele><time>2026-04-25T09:49:05.999Z</time></trkpt><trkpt lat="44.57802269094542" lon="10.02909532523105"><ele>756.3333333333334</ele><time>2026-04-25T09:49:06.999Z</time></trkpt><trkpt lat="44.57805331865546" lon="10.029365504573768"><ele>759.0</ele><time>2026-04-25T09:49:07.999Z</time></trkpt><trkpt lat="44.5780505087058" lon="10.029651791668092"><ele>759.6666666666666</ele><time>2026-04-25T09:49:08.999Z</time></trkpt><trkpt lat="44.57807536979089" lon="10.029907506477933"><ele>760.3333333333333</ele><time>2026-04-25T09:49:09.999Z</time></trkpt><trkpt lat="44.57816960024472" lon="10.030125627145429"><ele>761.0</ele><time>2026-04-25T09:49:10.999Z</time></trkpt><trkpt lat="44.57830391965465" lon="10.030306184708504"><ele>761.0</ele><time>2026-04-25T09:49:11.999Z</time></trkpt><trkpt lat="44.57845520788178" lon="10.03046031654443"><ele>761.0</ele><time>2026-04-25T09:49:12.999Z</time></trkpt><trkpt lat="44.57861873838811" lon="10.03058502636727"><ele>761.0</ele><time>2026-04-25T09:49:14Z</time></trkpt><trkpt lat="44.578772725839464" lon="10.030658633362334"><ele>764.0</ele><time>2026-04-25T09:49:15Z</time></trkpt><trkpt lat="44.57893942211701" lon="10.030682475729362"><ele>767.0</ele><time>2026-04-25T09:49:16Z</time></trkpt><trkpt lat="44.57911769303608" lon="10.030631994210243"><ele>770.0</ele><time>2026-04-25T09:49:17Z</time></trkpt><trkpt lat="44.57929949390101" lon="10.030523018944706"><ele>770.0</ele><time>2026-04-25T09:49:18Z</time></trkpt><trkpt lat="44.57949277512922" lon="10.03037400191774"><ele>770.0</ele><time>2026-04-25T09:49:19Z</time></trkpt><trkpt lat="44.57969414678084" lon="10.030260596595095"><ele>770.0</ele><time>2026-04-25T09:49:20Z</time></trkpt><trkpt lat="44.57991833437202" lon="10.030201583781421"><ele>770.0</ele><time>2026-04-25T09:49:21Z</time></trkpt><trkpt lat="44.58014768265213" lon="10.03016989713224"><ele>770.0</ele><time>2026-04-25T09:49:22Z</time></trkpt><trkpt lat="44.58037869971987" lon="10.03018372719852"><ele>771.5</ele><time>2026-04-25T09:49:23Z</time></trkpt><trkpt lat="44.58060939137381" lon="10.030253072387556"><ele>773.0</ele><time>2026-04-25T09:49:24Z</time></trkpt><trkpt lat="44.580847902364425" lon="10.030358228045925"><ele>773.0</ele><time>2026-04-25T09:49:25Z</time></trkpt><trkpt lat="44.581084888677616" lon="10.030433157413666"><ele>773.0</ele><time>2026-04-25T09:49:26Z</time></trkpt><trkpt lat="44.58130113266896" lon="10.030465583771885"><ele>771.6666666666667</ele><time>2026-04-25T09:49:27Z</time></trkpt><trkpt lat="44.58149013546963" lon="10.030535071828469"><ele>770.3333333333333</ele><time>2026-04-25T09:49:28Z</time></trkpt><trkpt lat="44.58172816015112" lon="10.030646447107918"><ele>769.0</ele><time>2026-04-25T09:49:29Z</time></trkpt><trkpt lat="44.58190875031776" lon="10.030834434722719"><ele>767.0</ele><time>2026-04-25T09:49:30Z</time></trkpt><trkpt lat="44.58206707951293" lon="10.031079389005727"><ele>765.0</ele><time>2026-04-25T09:49:31Z</time></trkpt><trkpt lat="44.582240929818354" lon="10.031305248525832"><ele>765.0</ele><time>2026-04-25T09:49:32Z</time></trkpt><trkpt lat="44.58241989524803" lon="10.031515570664574"><ele>765.0</ele><time>2026-04-25T09:49:33Z</time></trkpt><trkpt lat="44.58260007184837" lon="10.031724231826514"><ele>767.6666666666667</ele><time>2026-04-25T09:49:34Z</time></trkpt><trkpt lat="44.582767251432" lon="10.031909727005447"><ele>770.3333333333334</ele><time>2026-04-25T09:49:35Z</time></trkpt><trkpt lat="44.58294839271787" lon="10.032050810651912"><ele>773.0</ele><time>2026-04-25T09:49:36Z</time></trkpt><trkpt lat="44.583147746995834" lon="10.03214836166056"><ele>773.6666666666667</ele><time>2026-04-25T09:49:37Z</time></trkpt><trkpt lat="44.58336058529915" lon="10.032211663055103"><ele>774.3333333333333</ele><time>2026-04-25T09:49:38Z</time></trkpt><trkpt lat="44.58355973523764" lon="10.032256906688197"><ele>775.0</ele><time>2026-04-25T09:49:39Z</time></trkpt><trkpt lat="44.58373860412752" lon="10.032309003389033"><ele>775.0</ele><time>2026-04-25T09:49:40Z</time></trkpt><trkpt lat="44.58389562379651" lon="10.032417232903425"><ele>775.0</ele><time>2026-04-25T09:49:41Z</time></trkpt><trkpt lat="44.58403269892071" lon="10.03254561468291"><ele>775.0</ele><time>2026-04-25T09:49:42Z</time></trkpt><trkpt lat="44.584155832277425" lon="10.032673531971986"><ele>779.3333333333333</ele><time>2026-04-25T09:49:43Z</time></trkpt><trkpt lat="44.584276421979496" lon="10.032801465619233"><ele>783.6666666666667</ele><time>2026-04-25T09:49:44Z</time></trkpt><trkpt lat="44.58439722952424" lon="10.032931900205398"><ele>788.0</ele><time>2026-04-25T09:49:45Z</time></trkpt><trkpt lat="44.58451726367542" lon="10.033068401362922"><ele>788.0</ele><time>2026-04-25T09:49:46Z</time></trkpt><trkpt lat="44.5846270941572" lon="10.033211682121202"><ele>788.0</ele><time>2026-04-25T09:49:47Z</time></trkpt><trkpt lat="44.58472960919117" lon="10.03336410630334"><ele>788.0</ele><time>2026-04-25T09:49:48Z</time></trkpt><trkpt lat="44.5848342610394" lon="10.033521833164473"><ele>791.0</ele><time>2026-04-25T09:49:49Z</time></trkpt><trkpt lat="44.58494359848047" lon="10.033676984702772"><ele>794.0</ele><time>2026-04-25T09:49:50Z</time></trkpt><trkpt lat="44.585050376183894" lon="10.033830097038601"><ele>797.0</ele><time>2026-04-25T09:49:51Z</time></trkpt><trkpt lat="44.585166545084654" lon="10.033966854881244"><ele>797.0</ele><time>2026-04-25T09:49:52Z</time></trkpt><trkpt lat="44.585291185568096" lon="10.0341002923835"><ele>797.0</ele><time>2026-04-25T09:49:53Z</time></trkpt><trkpt lat="44.58542903368718" lon="10.034204715275319"><ele>797.0</ele><time>2026-04-25T09:49:54Z</time></trkpt><trkpt lat="44.585577748893755" lon="10.034273783282268"><ele>798.0</ele><time>2026-04-25T09:49:55Z</time></trkpt><trkpt lat="44.585724306442806" lon="10.034313209184683"><ele>799.0</ele><time>2026-04-25T09:49:56Z</time></trkpt><trkpt lat="44.58585534813827" lon="10.034352708042737"><ele>800.0</ele><time>2026-04-25T09:49:57Z</time></trkpt><trkpt lat="44.58596966762859" lon="10.034388755075955"><ele>801.0</ele><time>2026-04-25T09:49:58Z</time></trkpt><trkpt lat="44.5860768288213" lon="10.034422686584405"><ele>801.5999999999999</ele><time>2026-04-25T09:49:59Z</time></trkpt><trkpt lat="44.586179083539875" lon="10.03446308531622"><ele>802.2</ele><time>2026-04-25T09:50:00Z</time></trkpt><trkpt lat="44.58627109748189" lon="10.034495838222144"><ele>802.8</ele><time>2026-04-25T09:50:01Z</time></trkpt><trkpt lat="44.586364361810354" lon="10.034519358949215"><ele>803.4000000000001</ele><time>2026-04-25T09:50:02Z</time></trkpt><trkpt lat="44.58645975117174" lon="10.034552673264965"><ele>804.0</ele><time>2026-04-25T09:50:03Z</time></trkpt><trkpt lat="44.58654886633579" lon="10.034582251116746"><ele>804.0</ele><time>2026-04-25T09:50:04Z</time></trkpt><trkpt lat="44.586636926312416" lon="10.034611370972797"><ele>804.0</ele><time>2026-04-25T09:50:05Z</time></trkpt><trkpt lat="44.586727237956225" lon="10.0346427063057"><ele>804.0</ele><time>2026-04-25T09:50:06Z</time></trkpt><trkpt lat="44.58681301215398" lon="10.034669912967761"><ele>804.0</ele><time>2026-04-25T09:50:07Z</time></trkpt><trkpt lat="44.58690644634855" lon="10.034698855709792"><ele>804.0</ele><time>2026-04-25T09:50:08Z</time></trkpt><trkpt lat="44.58699877470788" lon="10.034727544328664"><ele>805.6</ele><time>2026-04-25T09:50:09Z</time></trkpt><trkpt lat="44.587088893806325" lon="10.034761078260333"><ele>807.2</ele><time>2026-04-25T09:50:10Z</time></trkpt><trkpt lat="44.58718002048698" lon="10.034796249723607"><ele>808.8000000000001</ele><time>2026-04-25T09:50:11Z</time></trkpt><trkpt lat="44.58727258523965" lon="10.034827373267607"><ele>810.4000000000001</ele><time>2026-04-25T09:50:12Z</time></trkpt><trkpt lat="44.587363146543076" lon="10.034858639736825"><ele>812.0</ele><time>2026-04-25T09:50:13Z</time></trkpt><trkpt lat="44.5874480404669" lon="10.034913498281615"><ele>813.5</ele><time>2026-04-25T09:50:14Z</time></trkpt><trkpt lat="44.587528694691166" lon="10.034998411288726"><ele>815.0</ele><time>2026-04-25T09:50:15Z</time></trkpt><trkpt lat="44.58758692558504" lon="10.035123087930003"><ele>816.5</ele><time>2026-04-25T09:50:16Z</time></trkpt><trkpt lat="44.58761168513115" lon="10.035287678792109"><ele>818.0</ele><time>2026-04-25T09:50:17Z</time></trkpt><trkpt lat="44.58756834192884" lon="10.035457662848541"><ele>818.0</ele><time>2026-04-25T09:50:18Z</time></trkpt><trkpt lat="44.587534428799565" lon="10.035636992873101"><ele>818.0</ele><time>2026-04-25T09:50:19Z</time></trkpt><trkpt lat="44.58752014449944" lon="10.035829384383451"><ele>818.0</ele><time>2026-04-25T09:50:20Z</time></trkpt><trkpt lat="44.58753570645599" lon="10.03602364869444"><ele>818.0</ele><time>2026-04-25T09:50:21Z</time></trkpt><trkpt lat="44.58760629233538" lon="10.036228438988925"><ele>819.6666666666667</ele><time>2026-04-25T09:50:22Z</time></trkpt><trkpt lat="44.5877013596241" lon="10.036449481368411"><ele>821.3333333333333</ele><time>2026-04-25T09:50:23Z</time></trkpt><trkpt lat="44.587760018851505" lon="10.036691658454645"><ele>823.0</ele><time>2026-04-25T09:50:23.999Z</time></trkpt><trkpt lat="44.58777239771065" lon="10.036929868073242"><ele>824.0</ele><time>2026-04-25T09:50:24.999Z</time></trkpt><trkpt lat="44.58773724942738" lon="10.037190499455264"><ele>825.0</ele><time>2026-04-25T09:50:25.999Z</time></trkpt><trkpt lat="44.587686228332046" lon="10.037505807386793"><ele>826.0</ele><time>2026-04-25T09:50:26.999Z</time></trkpt><trkpt lat="44.58763845986666" lon="10.037806284543903"><ele>827.5</ele><time>2026-04-25T09:50:27.999Z</time></trkpt><trkpt lat="44.58758997619485" lon="10.038111260540385"><ele>829.0</ele><time>2026-04-25T09:50:28.999Z</time></trkpt><trkpt lat="44.58753887445908" lon="10.038428403130995"><ele>832.0</ele><time>2026-04-25T09:50:29.999Z</time></trkpt><trkpt lat="44.58749149585943" lon="10.038716577082607"><ele>835.0</ele><time>2026-04-25T09:50:30.999Z</time></trkpt><trkpt lat="44.58744878827548" lon="10.038967842659549"><ele>838.0</ele><time>2026-04-25T09:50:31.999Z</time></trkpt><trkpt lat="44.58737900790731" lon="10.039191366461482"><ele>836.6666666666666</ele><time>2026-04-25T09:50:32.999Z</time></trkpt><trkpt lat="44.58726065398038" lon="10.039395293981903"><ele>835.3333333333333</ele><time>2026-04-25T09:50:33.999Z</time></trkpt><trkpt lat="44.587104286346104" lon="10.0396225893812"><ele>834.0</ele><time>2026-04-25T09:50:34.999Z</time></trkpt><trkpt lat="44.58695977668481" lon="10.039851726435582"><ele>837.0</ele><time>2026-04-25T09:50:35.999Z</time></trkpt><trkpt lat="44.58682677290663" lon="10.040039173888202"><ele>840.0</ele><time>2026-04-25T09:50:36.999Z</time></trkpt><trkpt lat="44.58673086800764" lon="10.040228257988819"><ele>843.0</ele><time>2026-04-25T09:50:37.999Z</time></trkpt><trkpt lat="44.58669089646161" lon="10.04046117052007"><ele>843.0</ele><time>2026-04-25T09:50:38.999Z</time></trkpt><trkpt lat="44.586674772362045" lon="10.040747243137863"><ele>843.0</ele><time>2026-04-25T09:50:39.999Z</time></trkpt><trkpt lat="44.58664075849242" lon="10.041041661993004"><ele>843.0</ele><time>2026-04-25T09:50:40.999Z</time></trkpt><trkpt lat="44.586603184464586" lon="10.041310287701007"><ele>848.0</ele><time>2026-04-25T09:50:41.999Z</time></trkpt><trkpt lat="44.58659767266634" lon="10.041559757028448"><ele>853.0</ele><time>2026-04-25T09:50:42.999Z</time></trkpt><trkpt lat="44.5866377965687" lon="10.041813104641493"><ele>858.0</ele><time>2026-04-25T09:50:43.999Z</time></trkpt><trkpt lat="44.586742181317504" lon="10.042108380385207"><ele>859.3333333333333</ele><time>2026-04-25T09:50:44.999Z</time></trkpt><trkpt lat="44.58685727155936" lon="10.042375953205147"><ele>860.6666666666666</ele><time>2026-04-25T09:50:45.999Z</time></trkpt><trkpt lat="44.58695010612028" lon="10.042614365045587"><ele>862.0</ele><time>2026-04-25T09:50:46.999Z</time></trkpt><trkpt lat="44.58700763203624" lon="10.042844804913173"><ele>859.3333333333333</ele><time>2026-04-25T09:50:47.999Z</time></trkpt><trkpt lat="44.58697661623543" lon="10.04304102531095"><ele>856.6666666666667</ele><time>2026-04-25T09:50:48.999Z</time></trkpt><trkpt lat="44.58692844151426" lon="10.043265318306984"><ele>854.0</ele><time>2026-04-25T09:50:49.999Z</time></trkpt><trkpt lat="44.58691000532921" lon="10.04353145157989"><ele>854.6666666666667</ele><time>2026-04-25T09:50:50.999Z</time></trkpt><trkpt lat="44.58690835831897" lon="10.043804236232093"><ele>855.3333333333333</ele><time>2026-04-25T09:50:51.999Z</time></trkpt><trkpt lat="44.586913816486316" lon="10.044103648079213"><ele>856.0</ele><time>2026-04-25T09:50:52.999Z</time></trkpt><trkpt lat="44.58686264768987" lon="10.044393920433928"><ele>856.0</ele><time>2026-04-25T09:50:53.999Z</time></trkpt><trkpt lat="44.58683434952759" lon="10.044682898602161"><ele>856.0</ele><time>2026-04-25T09:50:54.999Z</time></trkpt><trkpt lat="44.5867840354951" lon="10.04492141663389"><ele>856.0</ele><time>2026-04-25T09:50:55.999Z</time></trkpt><trkpt lat="44.58672568156616" lon="10.045142262174277"><ele>860.6666666666666</ele><time>2026-04-25T09:50:56.999Z</time></trkpt><trkpt lat="44.58663737060691" lon="10.045348561844994"><ele>865.3333333333333</ele><time>2026-04-25T09:50:57.999Z</time></trkpt><trkpt lat="44.58651595140401" lon="10.045556625905322"><ele>870.0</ele><time>2026-04-25T09:50:58.999Z</time></trkpt><trkpt lat="44.58639708888811" lon="10.045789182392179"><ele>875.3333333333333</ele><time>2026-04-25T09:50:59.999Z</time></trkpt><trkpt lat="44.5863074905382" lon="10.046054718564312"><ele>880.6666666666666</ele><time>2026-04-25T09:51:00.999Z</time></trkpt><trkpt lat="44.58624596395784" lon="10.046347062467877"><ele>886.0</ele><time>2026-04-25T09:51:01.999Z</time></trkpt><trkpt lat="44.586192009600204" lon="10.046618391454082"><ele>887.5</ele><time>2026-04-25T09:51:02.999Z</time></trkpt><trkpt lat="44.58615504310536" lon="10.046854283348294"><ele>889.0</ele><time>2026-04-25T09:51:03.999Z</time></trkpt><trkpt lat="44.58614980620586" lon="10.0470622846906"><ele>890.5</ele><time>2026-04-25T09:51:04.999Z</time></trkpt><trkpt lat="44.58617668649273" lon="10.047205317037267"><ele>892.0</ele><time>2026-04-25T09:51:05.999Z</time></trkpt><trkpt lat="44.58625212784069" lon="10.047299614587963"><ele>892.0</ele><time>2026-04-25T09:51:06.999Z</time></trkpt><trkpt lat="44.5863898924887" lon="10.047349667779914"><ele>892.0</ele><time>2026-04-25T09:51:07.999Z</time></trkpt><trkpt lat="44.586571177335045" lon="10.047346643365609"><ele>892.0</ele><time>2026-04-25T09:51:08.999Z</time></trkpt><trkpt lat="44.58676009797025" lon="10.047346533493947"><ele>892.0</ele><time>2026-04-25T09:51:09.999Z</time></trkpt><trkpt lat="44.58694067734075" lon="10.047361912502158"><ele>892.0</ele><time>2026-04-25T09:51:10.999Z</time></trkpt><trkpt lat="44.58710582704496" lon="10.047377075278234"><ele>892.0</ele><time>2026-04-25T09:51:11.999Z</time></trkpt><trkpt lat="44.58727439899766" lon="10.047399333231322"><ele>893.0</ele><time>2026-04-25T09:51:12.999Z</time></trkpt><trkpt lat="44.58742491666568" lon="10.047438081952539"><ele>894.0</ele><time>2026-04-25T09:51:13.999Z</time></trkpt><trkpt lat="44.58754945120683" lon="10.047466735524578"><ele>895.0</ele><time>2026-04-25T09:51:14.999Z</time></trkpt><trkpt lat="44.587644732447444" lon="10.047508685957174"><ele>896.0</ele><time>2026-04-25T09:51:15.999Z</time></trkpt><trkpt lat="44.58771350644037" lon="10.047586350378323"><ele>896.0</ele><time>2026-04-25T09:51:16.999Z</time></trkpt><trkpt lat="44.5877565709547" lon="10.047711667151573"><ele>896.0</ele><time>2026-04-25T09:51:17.999Z</time></trkpt><trkpt lat="44.587767090518035" lon="10.047891558491811"><ele>896.0</ele><time>2026-04-25T09:51:18.999Z</time></trkpt><trkpt lat="44.587701014582215" lon="10.048064111483528"><ele>896.0</ele><time>2026-04-25T09:51:20Z</time></trkpt><trkpt lat="44.58761442794133" lon="10.048291221790084"><ele>894.5</ele><time>2026-04-25T09:51:21Z</time></trkpt><trkpt lat="44.587528994933024" lon="10.048528803878579"><ele>893.0</ele><time>2026-04-25T09:51:22Z</time></trkpt><trkpt lat="44.587459256601605" lon="10.048726070318997"><ele>891.5</ele><time>2026-04-25T09:51:23Z</time></trkpt><trkpt lat="44.58743137834564" lon="10.048852751652346"><ele>890.0</ele><time>2026-04-25T09:51:24Z</time></trkpt><trkpt lat="44.58747849089155" lon="10.048985067720832"><ele>890.0</ele><time>2026-04-25T09:51:25Z</time></trkpt><trkpt lat="44.587593082654514" lon="10.049088623193686"><ele>890.0</ele><time>2026-04-25T09:51:26Z</time></trkpt><trkpt lat="44.58775312309491" lon="10.049127225210341"><ele>890.0</ele><time>2026-04-25T09:51:27Z</time></trkpt><trkpt lat="44.58795093517695" lon="10.049114397634412"><ele>896.3333333333334</ele><time>2026-04-25T09:51:28Z</time></trkpt><trkpt lat="44.58817632980729" lon="10.049119622363383"><ele>902.6666666666667</ele><time>2026-04-25T09:51:29Z</time></trkpt><trkpt lat="44.588379123016885" lon="10.049179296067253"><ele>909.0</ele><time>2026-04-25T09:51:30Z</time></trkpt><trkpt lat="44.588579152368176" lon="10.049335595945255"><ele>918.5</ele><time>2026-04-25T09:51:31Z</time></trkpt><trkpt lat="44.58877214906646" lon="10.049531169699002"><ele>928.0</ele><time>2026-04-25T09:51:32Z</time></trkpt><trkpt lat="44.58895672085254" lon="10.049752493553838"><ele>921.0</ele><time>2026-04-25T09:51:33Z</time></trkpt><trkpt lat="44.58914455225958" lon="10.050016201920297"><ele>914.0</ele><time>2026-04-25T09:51:34Z</time></trkpt><trkpt lat="44.58930732936648" lon="10.050297530964848"><ele>914.0</ele><time>2026-04-25T09:51:35Z</time></trkpt><trkpt lat="44.589406574070566" lon="10.050602563926832"><ele>914.0</ele><time>2026-04-25T09:51:36Z</time></trkpt><trkpt lat="44.58947655225273" lon="10.050941468201545"><ele>923.5</ele><time>2026-04-25T09:51:37Z</time></trkpt><trkpt lat="44.5895097796453" lon="10.051289422817767"><ele>933.0</ele><time>2026-04-25T09:51:38Z</time></trkpt><trkpt lat="44.58951218919579" lon="10.05164257287967"><ele>914.0</ele><time>2026-04-25T09:51:39Z</time></trkpt><trkpt lat="44.58949766802094" lon="10.052022978717284"><ele>895.0</ele><time>2026-04-25T09:51:40Z</time></trkpt><trkpt lat="44.589482485489555" lon="10.052393666722114"><ele>895.6666666666666</ele><time>2026-04-25T09:51:41Z</time></trkpt><trkpt lat="44.58947006668147" lon="10.052720620899043"><ele>896.3333333333333</ele><time>2026-04-25T09:51:42Z</time></trkpt><trkpt lat="44.589466101078585" lon="10.053021437885896"><ele>897.0</ele><time>2026-04-25T09:51:43Z</time></trkpt><trkpt lat="44.589480395310346" lon="10.05324059478044"><ele>905.6666666666667</ele><time>2026-04-25T09:51:44Z</time></trkpt><trkpt lat="44.58951684817475" lon="10.053444950336049"><ele>914.3333333333334</ele><time>2026-04-25T09:51:45Z</time></trkpt><trkpt lat="44.58962250967062" lon="10.053637037388087"><ele>923.0</ele><time>2026-04-25T09:51:46Z</time></trkpt><trkpt lat="44.58980165678178" lon="10.053793859928078"><ele>923.0</ele><time>2026-04-25T09:51:47Z</time></trkpt><trkpt lat="44.590006810188605" lon="10.053947340217498"><ele>923.0</ele><time>2026-04-25T09:51:48Z</time></trkpt><trkpt lat="44.59017835192888" lon="10.054124205596734"><ele>923.0</ele><time>2026-04-25T09:51:49Z</time></trkpt><trkpt lat="44.5903215153645" lon="10.054290291248215"><ele>921.0</ele><time>2026-04-25T09:51:50Z</time></trkpt><trkpt lat="44.59047255518869" lon="10.054406382824267"><ele>919.0</ele><time>2026-04-25T09:51:51Z</time></trkpt><trkpt lat="44.59066173452267" lon="10.054434083854057"><ele>917.0</ele><time>2026-04-25T09:51:52Z</time></trkpt><trkpt lat="44.590831904115554" lon="10.05443172546051"><ele>917.0</ele><time>2026-04-25T09:51:53Z</time></trkpt><trkpt lat="44.59093521848858" lon="10.054550448150325"><ele>917.0</ele><time>2026-04-25T09:51:54Z</time></trkpt><trkpt lat="44.59098239804854" lon="10.054740029433386"><ele>917.0</ele><time>2026-04-25T09:51:55Z</time></trkpt><trkpt lat="44.591056539167866" lon="10.054994584412873"><ele>915.6666666666667</ele><time>2026-04-25T09:51:56Z</time></trkpt><trkpt lat="44.59115600665938" lon="10.055213316826977"><ele>914.3333333333333</ele><time>2026-04-25T09:51:57Z</time></trkpt><trkpt lat="44.5912515486088" lon="10.055382871567089"><ele>913.0</ele><time>2026-04-25T09:51:58Z</time></trkpt><trkpt lat="44.5913937536337" lon="10.055503445138015"><ele>913.0</ele><time>2026-04-25T09:51:59Z</time></trkpt><trkpt lat="44.591575552966454" lon="10.055526540638494"><ele>913.0</ele><time>2026-04-25T09:52:00Z</time></trkpt><trkpt lat="44.591792480680596" lon="10.055452606733764"><ele>913.0</ele><time>2026-04-25T09:52:01Z</time></trkpt><trkpt lat="44.59201005912141" lon="10.055346507831265"><ele>911.6666666666666</ele><time>2026-04-25T09:52:02Z</time></trkpt><trkpt lat="44.59218470606554" lon="10.055267484764265"><ele>910.3333333333333</ele><time>2026-04-25T09:52:03Z</time></trkpt><trkpt lat="44.59228466597862" lon="10.05527705597212"><ele>909.0</ele><time>2026-04-25T09:52:04Z</time></trkpt><trkpt lat="44.592428923988706" lon="10.05543258678695"><ele>909.0</ele><time>2026-04-25T09:52:05Z</time></trkpt><trkpt lat="44.59258199253545" lon="10.055626044963264"><ele>909.0</ele><time>2026-04-25T09:52:06Z</time></trkpt><trkpt lat="44.59274846845573" lon="10.055821221999741"><ele>909.0</ele><time>2026-04-25T09:52:07Z</time></trkpt><trkpt lat="44.59289578391803" lon="10.05603534789059"><ele>904.0</ele><time>2026-04-25T09:52:08Z</time></trkpt><trkpt lat="44.5930035276941" lon="10.056267901611495"><ele>899.0</ele><time>2026-04-25T09:52:09Z</time></trkpt><trkpt lat="44.59306268310843" lon="10.056582202503858"><ele>894.0</ele><time>2026-04-25T09:52:10Z</time></trkpt><trkpt lat="44.59313834158942" lon="10.056969430847639"><ele>892.6666666666667</ele><time>2026-04-25T09:52:11Z</time></trkpt><trkpt lat="44.593220469488635" lon="10.057347150318686"><ele>891.3333333333334</ele><time>2026-04-25T09:52:12Z</time></trkpt><trkpt lat="44.593260547262" lon="10.057542302614007"><ele>890.0</ele><time>2026-04-25T09:52:13Z</time></trkpt><trkpt lat="44.593362061448005" lon="10.057820916308703"><ele>887.0</ele><time>2026-04-25T09:52:14Z</time></trkpt><trkpt lat="44.59348540755755" lon="10.058085753676604"><ele>884.0</ele><time>2026-04-25T09:52:15Z</time></trkpt><trkpt lat="44.59361590412338" lon="10.058300672904883"><ele>881.0</ele><time>2026-04-25T09:52:16Z</time></trkpt><trkpt lat="44.59377265742154" lon="10.058467933334308"><ele>880.0</ele><time>2026-04-25T09:52:17Z</time></trkpt><trkpt lat="44.593968876597884" lon="10.058598664751733"><ele>879.0</ele><time>2026-04-25T09:52:18Z</time></trkpt><trkpt lat="44.59413514211517" lon="10.058752989750362"><ele>878.0</ele><time>2026-04-25T09:52:19Z</time></trkpt><trkpt lat="44.5942512877756" lon="10.058967922278692"><ele>877.6666666666667</ele><time>2026-04-25T09:52:20Z</time></trkpt><trkpt lat="44.59431386073159" lon="10.059230577313143"><ele>877.3333333333333</ele><time>2026-04-25T09:52:21Z</time></trkpt><trkpt lat="44.59437091666216" lon="10.059553847183745"><ele>877.0</ele><time>2026-04-25T09:52:22Z</time></trkpt><trkpt lat="44.59443454315815" lon="10.05987027202321"><ele>877.6666666666666</ele><time>2026-04-25T09:52:23Z</time></trkpt><trkpt lat="44.594484759053344" lon="10.060186926382753"><ele>878.3333333333333</ele><time>2026-04-25T09:52:24Z</time></trkpt><trkpt lat="44.59453866311207" lon="10.060471638583904"><ele>879.0</ele><time>2026-04-25T09:52:25Z</time></trkpt><trkpt lat="44.594587215072636" lon="10.060729436189794"><ele>883.0</ele><time>2026-04-25T09:52:26Z</time></trkpt><trkpt lat="44.594636589333795" lon="10.060966623295913"><ele>887.0</ele><time>2026-04-25T09:52:27Z</time></trkpt><trkpt lat="44.59470707390831" lon="10.061203417753765"><ele>891.0</ele><time>2026-04-25T09:52:28Z</time></trkpt><trkpt lat="44.59481996200117" lon="10.061445838220894"><ele>891.0</ele><time>2026-04-25T09:52:29Z</time></trkpt><trkpt lat="44.59496398327095" lon="10.061687431793102"><ele>891.0</ele><time>2026-04-25T09:52:30Z</time></trkpt><trkpt lat="44.595108116078954" lon="10.061911398948354"><ele>891.0</ele><time>2026-04-25T09:52:30.999Z</time></trkpt><trkpt lat="44.59526614618367" lon="10.062119696761062"><ele>893.0</ele><time>2026-04-25T09:52:31.999Z</time></trkpt><trkpt lat="44.59542942019205" lon="10.062317717234695"><ele>895.0</ele><time>2026-04-25T09:52:32.999Z</time></trkpt><trkpt lat="44.595563893791365" lon="10.062530167017636"><ele>897.0</ele><time>2026-04-25T09:52:33.999Z</time></trkpt><trkpt lat="44.59568265083966" lon="10.062722341732675"><ele>897.0</ele><time>2026-04-25T09:52:34.999Z</time></trkpt><trkpt lat="44.59575500523084" lon="10.062941420790729"><ele>897.0</ele><time>2026-04-25T09:52:35.999Z</time></trkpt><trkpt lat="44.59578539753076" lon="10.063210489780442"><ele>897.0</ele><time>2026-04-25T09:52:36.999Z</time></trkpt><trkpt lat="44.59575612270017" lon="10.063492289291917"><ele>891.5</ele><time>2026-04-25T09:52:37.999Z</time></trkpt><trkpt lat="44.59568096340645" lon="10.063793773236155"><ele>886.0</ele><time>2026-04-25T09:52:38.999Z</time></trkpt><trkpt lat="44.59564646487698" lon="10.064112215950528"><ele>884.5</ele><time>2026-04-25T09:52:39.999Z</time></trkpt><trkpt lat="44.5956299197863" lon="10.064439401524188"><ele>883.0</ele><time>2026-04-25T09:52:40.999Z</time></trkpt><trkpt lat="44.59564038197364" lon="10.064766008984725"><ele>881.3333333333333</ele><time>2026-04-25T09:52:41.999Z</time></trkpt><trkpt lat="44.595672191237256" lon="10.065082636831049"><ele>879.6666666666667</ele><time>2026-04-25T09:52:42.999Z</time></trkpt><trkpt lat="44.59572061092532" lon="10.06538546855294"><ele>878.0</ele><time>2026-04-25T09:52:43.999Z</time></trkpt><trkpt lat="44.595710920510825" lon="10.065665866963535"><ele>873.0</ele><time>2026-04-25T09:52:44.999Z</time></trkpt><trkpt lat="44.59569165950139" lon="10.065983382542068"><ele>868.0</ele><time>2026-04-25T09:52:45.999Z</time></trkpt><trkpt lat="44.59568637654723" lon="10.06630848552017"><ele>864.5</ele><time>2026-04-25T09:52:46.999Z</time></trkpt><trkpt lat="44.595692143992785" lon="10.06664211893543"><ele>861.0</ele><time>2026-04-25T09:52:47.999Z</time></trkpt><trkpt lat="44.59572365266887" lon="10.066963479121993"><ele>861.0</ele><time>2026-04-25T09:52:48.999Z</time></trkpt><trkpt lat="44.59578963038749" lon="10.067294967292614"><ele>861.0</ele><time>2026-04-25T09:52:49.999Z</time></trkpt><trkpt lat="44.59584895971427" lon="10.06759120404468"><ele>857.0</ele><time>2026-04-25T09:52:50.999Z</time></trkpt><trkpt lat="44.595916696865046" lon="10.067872313119675"><ele>853.0</ele><time>2026-04-25T09:52:51.999Z</time></trkpt><trkpt lat="44.596026695022104" lon="10.068141446825688"><ele>849.0</ele><time>2026-04-25T09:52:52.999Z</time></trkpt><trkpt lat="44.59616399808247" lon="10.06838053917011"><ele>852.6666666666667</ele><time>2026-04-25T09:52:53.999Z</time></trkpt><trkpt lat="44.59625538178827" lon="10.068653395078217"><ele>856.3333333333334</ele><time>2026-04-25T09:52:54.999Z</time></trkpt><trkpt lat="44.59632286772143" lon="10.068923553583684"><ele>860.0</ele><time>2026-04-25T09:52:55.999Z</time></trkpt><trkpt lat="44.59636760332812" lon="10.069190567878607"><ele>860.0</ele><time>2026-04-25T09:52:56.999Z</time></trkpt><trkpt lat="44.596407239171235" lon="10.069443614194292"><ele>860.0</ele><time>2026-04-25T09:52:57.999Z</time></trkpt><trkpt lat="44.59644173551535" lon="10.06966384800618"><ele>860.0</ele><time>2026-04-25T09:52:58.999Z</time></trkpt><trkpt lat="44.59647181601343" lon="10.069855889817068"><ele>854.3333333333334</ele><time>2026-04-25T09:52:59.999Z</time></trkpt><trkpt lat="44.59668633307194" lon="10.069987638423013"><ele>848.6666666666667</ele><time>2026-04-25T09:53:00.999Z</time></trkpt><trkpt lat="44.59686498094224" lon="10.07010558829982"><ele>843.0</ele><time>2026-04-25T09:53:01.999Z</time></trkpt><trkpt lat="44.5971015961201" lon="10.070087114129453"><ele>842.0</ele><time>2026-04-25T09:53:02.999Z</time></trkpt><trkpt lat="44.597356207554995" lon="10.070063308052546"><ele>841.0</ele><time>2026-04-25T09:53:03.999Z</time></trkpt><trkpt lat="44.59759881354537" lon="10.070050579731339"><ele>841.0</ele><time>2026-04-25T09:53:04.999Z</time></trkpt><trkpt lat="44.59783310197846" lon="10.07004061626759"><ele>841.0</ele><time>2026-04-25T09:53:05.999Z</time></trkpt><trkpt lat="44.59803284010258" lon="10.0700301734744"><ele>841.0</ele><time>2026-04-25T09:53:06.999Z</time></trkpt><trkpt lat="44.59821146307897" lon="10.070033982845521"><ele>836.3333333333333</ele><time>2026-04-25T09:53:07.999Z</time></trkpt><trkpt lat="44.59838245075376" lon="10.070104620390428"><ele>831.6666666666667</ele><time>2026-04-25T09:53:08.999Z</time></trkpt><trkpt lat="44.5985567447661" lon="10.070190217426745"><ele>827.0</ele><time>2026-04-25T09:53:09.999Z</time></trkpt><trkpt lat="44.59871771148735" lon="10.070319721554716"><ele>822.3333333333334</ele><time>2026-04-25T09:53:10.999Z</time></trkpt><trkpt lat="44.59885722712029" lon="10.070416731397934"><ele>817.6666666666667</ele><time>2026-04-25T09:53:11.999Z</time></trkpt><trkpt lat="44.599027829788156" lon="10.070436386509119"><ele>813.0</ele><time>2026-04-25T09:53:12.999Z</time></trkpt><trkpt lat="44.59921120375836" lon="10.070346682966974"><ele>813.0</ele><time>2026-04-25T09:53:13.999Z</time></trkpt><trkpt lat="44.599379537003074" lon="10.070241084889313"><ele>813.0</ele><time>2026-04-25T09:53:14.999Z</time></trkpt><trkpt lat="44.599528952561094" lon="10.070233472230742"><ele>813.0</ele><time>2026-04-25T09:53:15.999Z</time></trkpt><trkpt lat="44.5996638745602" lon="10.070316876495642"><ele>809.0</ele><time>2026-04-25T09:53:16.999Z</time></trkpt><trkpt lat="44.59980960922155" lon="10.07043877551414"><ele>805.0</ele><time>2026-04-25T09:53:17.999Z</time></trkpt><trkpt lat="44.59998572717606" lon="10.070565748727182"><ele>801.0</ele><time>2026-04-25T09:53:18.999Z</time></trkpt><trkpt lat="44.60013552514649" lon="10.070687146737935"><ele>798.6666666666667</ele><time>2026-04-25T09:53:19.999Z</time></trkpt><trkpt lat="44.60027714494311" lon="10.070803587433407"><ele>796.3333333333334</ele><time>2026-04-25T09:53:20.999Z</time></trkpt><trkpt lat="44.60038676812268" lon="10.070965128543346"><ele>794.0</ele><time>2026-04-25T09:53:21.999Z</time></trkpt><trkpt lat="44.60047043290389" lon="10.071144267187751"><ele>794.0</ele><time>2026-04-25T09:53:22.999Z</time></trkpt><trkpt lat="44.60052871566518" lon="10.071338780530166"><ele>794.0</ele><time>2026-04-25T09:53:23.999Z</time></trkpt><trkpt lat="44.600565947274625" lon="10.071560140426332"><ele>794.0</ele><time>2026-04-25T09:53:24.999Z</time></trkpt><trkpt lat="44.600613187056624" lon="10.071749374550281"><ele>795.25</ele><time>2026-04-25T09:53:26Z</time></trkpt><trkpt lat="44.600684109990645" lon="10.071892334886844"><ele>796.5</ele><time>2026-04-25T09:53:27Z</time></trkpt><trkpt lat="44.600778855364965" lon="10.071992849197633"><ele>797.75</ele><time>2026-04-25T09:53:28Z</time></trkpt><trkpt lat="44.60090011914034" lon="10.072005842703858"><ele>799.0</ele><time>2026-04-25T09:53:29Z</time></trkpt><trkpt lat="44.60102974445053" lon="10.071938095166116"><ele>796.0</ele><time>2026-04-25T09:53:30Z</time></trkpt><trkpt lat="44.60118128920026" lon="10.071791341158002"><ele>793.0</ele><time>2026-04-25T09:53:31Z</time></trkpt><trkpt lat="44.6013608681892" lon="10.071624324222173"><ele>790.0</ele><time>2026-04-25T09:53:32Z</time></trkpt><trkpt lat="44.60154507212843" lon="10.071469076266416"><ele>789.3333333333333</ele><time>2026-04-25T09:53:33Z</time></trkpt><trkpt lat="44.6017218271288" lon="10.07131199907084"><ele>788.6666666666667</ele><time>2026-04-25T09:53:34Z</time></trkpt><trkpt lat="44.601889078156745" lon="10.071173509584865"><ele>788.0</ele><time>2026-04-25T09:53:35Z</time></trkpt><trkpt lat="44.60204809535225" lon="10.071036165708225"><ele>787.6666666666667</ele><time>2026-04-25T09:53:36Z</time></trkpt><trkpt lat="44.60218166722719" lon="10.070903251031428"><ele>787.3333333333333</ele><time>2026-04-25T09:53:37Z</time></trkpt><trkpt lat="44.60232112293505" lon="10.070792546166317"><ele>787.0</ele><time>2026-04-25T09:53:38Z</time></trkpt><trkpt lat="44.602453083677034" lon="10.070726753784985"><ele>787.0</ele><time>2026-04-25T09:53:39Z</time></trkpt><trkpt lat="44.60258201041233" lon="10.070733579850314"><ele>787.0</ele><time>2026-04-25T09:53:40Z</time></trkpt><trkpt lat="44.60268956150208" lon="10.070843586480143"><ele>787.0</ele><time>2026-04-25T09:53:41Z</time></trkpt><trkpt lat="44.602738665141295" lon="10.071083123724232"><ele>787.0</ele><time>2026-04-25T09:53:42Z</time></trkpt><trkpt lat="44.60283175147816" lon="10.071339471642967"><ele>783.0</ele><time>2026-04-25T09:53:43Z</time></trkpt><trkpt lat="44.60293369297378" lon="10.071626493811669"><ele>779.0</ele><time>2026-04-25T09:53:44Z</time></trkpt><trkpt lat="44.60300869022185" lon="10.071867422134018"><ele>775.0</ele><time>2026-04-25T09:53:45Z</time></trkpt><trkpt lat="44.6030844250481" lon="10.072061058579488"><ele>775.0</ele><time>2026-04-25T09:53:46Z</time></trkpt><trkpt lat="44.6031841320919" lon="10.07219106615108"><ele>775.0</ele><time>2026-04-25T09:53:47Z</time></trkpt><trkpt lat="44.60332255213101" lon="10.072281741111953"><ele>775.0</ele><time>2026-04-25T09:53:48Z</time></trkpt><trkpt lat="44.60351619050743" lon="10.0722700004179"><ele>773.3333333333333</ele><time>2026-04-25T09:53:49Z</time></trkpt><trkpt lat="44.603716053345835" lon="10.072218923185227"><ele>771.6666666666667</ele><time>2026-04-25T09:53:50Z</time></trkpt><trkpt lat="44.60391384666725" lon="10.07226287659064"><ele>770.0</ele><time>2026-04-25T09:53:51Z</time></trkpt><trkpt lat="44.60411382411076" lon="10.072339658792062"><ele>770.0</ele><time>2026-04-25T09:53:52Z</time></trkpt><trkpt lat="44.60432981072968" lon="10.072399867373171"><ele>770.0</ele><time>2026-04-25T09:53:53Z</time></trkpt><trkpt lat="44.60452521492377" lon="10.072452917821964"><ele>770.0</ele><time>2026-04-25T09:53:54Z</time></trkpt><trkpt lat="44.6047373708375" lon="10.072403214518541"><ele>768.0</ele><time>2026-04-25T09:53:55Z</time></trkpt><trkpt lat="44.604979839530394" lon="10.072292216539873"><ele>766.0</ele><time>2026-04-25T09:53:56Z</time></trkpt><trkpt lat="44.60521833297" lon="10.072196762737674"><ele>767.5</ele><time>2026-04-25T09:53:57Z</time></trkpt><trkpt lat="44.605464255998186" lon="10.072100811295266"><ele>769.0</ele><time>2026-04-25T09:53:58Z</time></trkpt><trkpt lat="44.605696276766494" lon="10.07199975867738"><ele>769.0</ele><time>2026-04-25T09:53:59Z</time></trkpt><trkpt lat="44.60590948835425" lon="10.071897941644696"><ele>769.0</ele><time>2026-04-25T09:54:00Z</time></trkpt><trkpt lat="44.606042972104994" lon="10.07182349272755"><ele>769.0</ele><time>2026-04-25T09:54:01Z</time></trkpt><trkpt lat="44.60617619915992" lon="10.07177609636597"><ele>768.6666666666666</ele><time>2026-04-25T09:54:02Z</time></trkpt><trkpt lat="44.6063260545108" lon="10.071833225269499"><ele>768.3333333333333</ele><time>2026-04-25T09:54:03Z</time></trkpt><trkpt lat="44.60651208765898" lon="10.071938842943513"><ele>768.0</ele><time>2026-04-25T09:54:04Z</time></trkpt><trkpt lat="44.606729011242116" lon="10.071971489255242"><ele>768.0</ele><time>2026-04-25T09:54:05Z</time></trkpt><trkpt lat="44.606955537022024" lon="10.071966999103394"><ele>768.0</ele><time>2026-04-25T09:54:06Z</time></trkpt><trkpt lat="44.607186646152144" lon="10.071935495851152"><ele>771.6666666666667</ele><time>2026-04-25T09:54:07Z</time></trkpt><trkpt lat="44.60739623271292" lon="10.071941366558375"><ele>775.3333333333334</ele><time>2026-04-25T09:54:08Z</time></trkpt><trkpt lat="44.60756780280743" lon="10.071934208263487"><ele>779.0</ele><time>2026-04-25T09:54:09Z</time></trkpt><trkpt lat="44.60771420296085" lon="10.071847558755504"><ele>777.0</ele><time>2026-04-25T09:54:10Z</time></trkpt><trkpt lat="44.60785121967586" lon="10.071672851801633"><ele>775.0</ele><time>2026-04-25T09:54:11Z</time></trkpt><trkpt lat="44.60797794284838" lon="10.071446044635275"><ele>773.0</ele><time>2026-04-25T09:54:12Z</time></trkpt><trkpt lat="44.6081167328275" lon="10.071283764811868"><ele>773.0</ele><time>2026-04-25T09:54:13Z</time></trkpt><trkpt lat="44.60829171563682" lon="10.071270986496286"><ele>773.0</ele><time>2026-04-25T09:54:14Z</time></trkpt><trkpt lat="44.608492972781455" lon="10.071296978842758"><ele>773.0</ele><time>2026-04-25T09:54:15Z</time></trkpt><trkpt lat="44.60872396336568" lon="10.071364925993016"><ele>773.0</ele><time>2026-04-25T09:54:16Z</time></trkpt><trkpt lat="44.60897722110483" lon="10.071430662522996"><ele>773.0</ele><time>2026-04-25T09:54:17Z</time></trkpt><trkpt lat="44.60923475977087" lon="10.071516289633252"><ele>773.0</ele><time>2026-04-25T09:54:18Z</time></trkpt><trkpt lat="44.60949059010044" lon="10.071597896009045"><ele>773.0</ele><time>2026-04-25T09:54:19Z</time></trkpt><trkpt lat="44.60975326362298" lon="10.071676218476204"><ele>777.6666666666667</ele><time>2026-04-25T09:54:20Z</time></trkpt><trkpt lat="44.60999187662183" lon="10.071754606116894"><ele>782.3333333333333</ele><time>2026-04-25T09:54:21Z</time></trkpt><trkpt lat="44.610176720664825" lon="10.071825661647322"><ele>787.0</ele><time>2026-04-25T09:54:22Z</time></trkpt><trkpt lat="44.610334704596376" lon="10.071857861106558"><ele>786.6666666666666</ele><time>2026-04-25T09:54:23Z</time></trkpt><trkpt lat="44.610527425680694" lon="10.071826866033975"><ele>786.3333333333333</ele><time>2026-04-25T09:54:24Z</time></trkpt><trkpt lat="44.6107492592189" lon="10.071696567450049"><ele>786.0</ele><time>2026-04-25T09:54:25Z</time></trkpt><trkpt lat="44.610891818545134" lon="10.071524313348384"><ele>786.0</ele><time>2026-04-25T09:54:26Z</time></trkpt><trkpt lat="44.61097526413276" lon="10.07130014813227"><ele>786.0</ele><time>2026-04-25T09:54:27Z</time></trkpt><trkpt lat="44.61102297930801" lon="10.07100423871435"><ele>786.0</ele><time>2026-04-25T09:54:28Z</time></trkpt><trkpt lat="44.611070015647776" lon="10.070673008592902"><ele>787.0</ele><time>2026-04-25T09:54:29Z</time></trkpt><trkpt lat="44.61112193366171" lon="10.070363252885507"><ele>788.0</ele><time>2026-04-25T09:54:30Z</time></trkpt><trkpt lat="44.61117359299906" lon="10.070126583625008"><ele>789.0</ele><time>2026-04-25T09:54:31Z</time></trkpt><trkpt lat="44.61125065596539" lon="10.069971753617805"><ele>789.0</ele><time>2026-04-25T09:54:32Z</time></trkpt><trkpt lat="44.611378552225005" lon="10.069924660319316"><ele>789.0</ele><time>2026-04-25T09:54:33Z</time></trkpt><trkpt lat="44.61152664659156" lon="10.06995355205818"><ele>789.0</ele><time>2026-04-25T09:54:34Z</time></trkpt><trkpt lat="44.61172236020946" lon="10.069996300405146"><ele>789.0</ele><time>2026-04-25T09:54:34.999Z</time></trkpt><trkpt lat="44.611933329544" lon="10.070086755692403"><ele>789.0</ele><time>2026-04-25T09:54:35.999Z</time></trkpt><trkpt lat="44.61216215952133" lon="10.070148347875026"><ele>787.0</ele><time>2026-04-25T09:54:36.999Z</time></trkpt><trkpt lat="44.61236720180294" lon="10.070185988768737"><ele>785.0</ele><time>2026-04-25T09:54:37.999Z</time></trkpt><trkpt lat="44.61256292415937" lon="10.070203516622085"><ele>783.0</ele><time>2026-04-25T09:54:38.999Z</time></trkpt><trkpt lat="44.612746249348724" lon="10.070166332713534"><ele>782.6666666666667</ele><time>2026-04-25T09:54:39.999Z</time></trkpt><trkpt lat="44.612934304706286" lon="10.070083791406777"><ele>782.3333333333334</ele><time>2026-04-25T09:54:40.999Z</time></trkpt><trkpt lat="44.61311870337879" lon="10.069936422126176"><ele>782.0</ele><time>2026-04-25T09:54:41.999Z</time></trkpt><trkpt lat="44.613285688056784" lon="10.069754384627451"><ele>778.6666666666667</ele><time>2026-04-25T09:54:42.999Z</time></trkpt><trkpt lat="44.61345002247915" lon="10.069568649250936"><ele>775.3333333333333</ele><time>2026-04-25T09:54:43.999Z</time></trkpt><trkpt lat="44.613601200306285" lon="10.069391461919382"><ele>772.0</ele><time>2026-04-25T09:54:44.999Z</time></trkpt><trkpt lat="44.613745214209814" lon="10.069218681088515"><ele>767.6666666666666</ele><time>2026-04-25T09:54:45.999Z</time></trkpt><trkpt lat="44.613885394915236" lon="10.0690525941475"><ele>763.3333333333333</ele><time>2026-04-25T09:54:46.999Z</time></trkpt><trkpt lat="44.61402460415642" lon="10.068893692976262"><ele>759.0</ele><time>2026-04-25T09:54:47.999Z</time></trkpt><trkpt lat="44.614169191198" lon="10.068742062533515"><ele>759.0</ele><time>2026-04-25T09:54:48.999Z</time></trkpt><trkpt lat="44.6143105508939" lon="10.068573651961449"><ele>759.0</ele><time>2026-04-25T09:54:49.999Z</time></trkpt><trkpt lat="44.614450202855956" lon="10.068389303162053"><ele>759.0</ele><time>2026-04-25T09:54:50.999Z</time></trkpt><trkpt lat="44.61457663382287" lon="10.068200494939845"><ele>759.0</ele><time>2026-04-25T09:54:51.999Z</time></trkpt><trkpt lat="44.61465703661809" lon="10.067993203978764"><ele>759.0</ele><time>2026-04-25T09:54:52.999Z</time></trkpt><trkpt lat="44.61464432247673" lon="10.067740561666831"><ele>759.0</ele><time>2026-04-25T09:54:53.999Z</time></trkpt><trkpt lat="44.61457970515155" lon="10.06748932322533"><ele>755.6666666666666</ele><time>2026-04-25T09:54:54.999Z</time></trkpt><trkpt lat="44.61455263850637" lon="10.067299353297045"><ele>752.3333333333333</ele><time>2026-04-25T09:54:55.999Z</time></trkpt><trkpt lat="44.6146154494137" lon="10.067120458736023"><ele>749.0</ele><time>2026-04-25T09:54:56.999Z</time></trkpt><trkpt lat="44.614746533328024" lon="10.066944041146236"><ele>749.0</ele><time>2026-04-25T09:54:57.999Z</time></trkpt><trkpt lat="44.61488576068865" lon="10.066735605615317"><ele>749.0</ele><time>2026-04-25T09:54:58.999Z</time></trkpt><trkpt lat="44.61503406301119" lon="10.0665463494299"><ele>749.0</ele><time>2026-04-25T09:54:59.999Z</time></trkpt><trkpt lat="44.61516472411715" lon="10.066363474557436"><ele>746.75</ele><time>2026-04-25T09:55:00.999Z</time></trkpt><trkpt lat="44.615276491067185" lon="10.06619383792306"><ele>744.5</ele><time>2026-04-25T09:55:01.999Z</time></trkpt><trkpt lat="44.61538446302277" lon="10.066051882065523"><ele>742.25</ele><time>2026-04-25T09:55:02.999Z</time></trkpt><trkpt lat="44.61550238104211" lon="10.065970603683516"><ele>740.0</ele><time>2026-04-25T09:55:03.999Z</time></trkpt><trkpt lat="44.61566595546833" lon="10.066038803073816"><ele>740.0</ele><time>2026-04-25T09:55:04.999Z</time></trkpt><trkpt lat="44.61588040654665" lon="10.066082761600493"><ele>740.0</ele><time>2026-04-25T09:55:05.999Z</time></trkpt><trkpt lat="44.61610596532933" lon="10.066187976750186"><ele>736.0</ele><time>2026-04-25T09:55:06.999Z</time></trkpt><trkpt lat="44.61631032843242" lon="10.066247781956962"><ele>732.0</ele><time>2026-04-25T09:55:07.999Z</time></trkpt><trkpt lat="44.616499427217654" lon="10.066298446875658"><ele>728.0</ele><time>2026-04-25T09:55:08.999Z</time></trkpt><trkpt lat="44.61667238957037" lon="10.066351086948481"><ele>728.0</ele><time>2026-04-25T09:55:09.999Z</time></trkpt><trkpt lat="44.61682304621839" lon="10.06642437461046"><ele>728.0</ele><time>2026-04-25T09:55:10.999Z</time></trkpt><trkpt lat="44.61692069914461" lon="10.06658814421533"><ele>728.0</ele><time>2026-04-25T09:55:11.999Z</time></trkpt><trkpt lat="44.61703765168144" lon="10.066789173558336"><ele>726.0</ele><time>2026-04-25T09:55:12.999Z</time></trkpt><trkpt lat="44.61716829608097" lon="10.066987158560462"><ele>724.0</ele><time>2026-04-25T09:55:13.999Z</time></trkpt><trkpt lat="44.617338776832284" lon="10.067137531781219"><ele>722.0</ele><time>2026-04-25T09:55:14.999Z</time></trkpt><trkpt lat="44.617490861868845" lon="10.06725863935183"><ele>722.0</ele><time>2026-04-25T09:55:15.999Z</time></trkpt><trkpt lat="44.61758654167725" lon="10.067410549773278"><ele>722.0</ele><time>2026-04-25T09:55:16.999Z</time></trkpt><trkpt lat="44.61762207001454" lon="10.06759512536083"><ele>722.0</ele><time>2026-04-25T09:55:17.999Z</time></trkpt><trkpt lat="44.61766286432285" lon="10.067830293494849"><ele>724.0</ele><time>2026-04-25T09:55:18.999Z</time></trkpt><trkpt lat="44.617728442498276" lon="10.068064961587035"><ele>726.0</ele><time>2026-04-25T09:55:19.999Z</time></trkpt><trkpt lat="44.617828934187244" lon="10.068273542580005"><ele>728.0</ele><time>2026-04-25T09:55:20.999Z</time></trkpt><trkpt lat="44.617947017237256" lon="10.068469012709258"><ele>722.6666666666666</ele><time>2026-04-25T09:55:21.999Z</time></trkpt><trkpt lat="44.618060176944844" lon="10.068671578959146"><ele>717.3333333333334</ele><time>2026-04-25T09:55:22.999Z</time></trkpt><trkpt lat="44.61817137823641" lon="10.068868210194017"><ele>712.0</ele><time>2026-04-25T09:55:23.999Z</time></trkpt><trkpt lat="44.61826808609731" lon="10.069046964329141"><ele>712.3333333333334</ele><time>2026-04-25T09:55:24.999Z</time></trkpt><trkpt lat="44.61832304716586" lon="10.069206102701044"><ele>712.6666666666666</ele><time>2026-04-25T09:55:25.999Z</time></trkpt><trkpt lat="44.61831686323994" lon="10.069409611722444"><ele>713.0</ele><time>2026-04-25T09:55:26.999Z</time></trkpt><trkpt lat="44.618266314938055" lon="10.069664964320397"><ele>711.3333333333333</ele><time>2026-04-25T09:55:27.999Z</time></trkpt><trkpt lat="44.618223597870276" lon="10.069950991584266"><ele>709.6666666666666</ele><time>2026-04-25T09:55:28.999Z</time></trkpt><trkpt lat="44.61818047161737" lon="10.070211916595275"><ele>708.0</ele><time>2026-04-25T09:55:29.999Z</time></trkpt><trkpt lat="44.618164787698355" lon="10.070473063583727"><ele>708.0</ele><time>2026-04-25T09:55:30.999Z</time></trkpt><trkpt lat="44.61817872560915" lon="10.070732998267635"><ele>708.0</ele><time>2026-04-25T09:55:32Z</time></trkpt><trkpt lat="44.61820899745534" lon="10.070973760510812"><ele>708.0</ele><time>2026-04-25T09:55:33Z</time></trkpt><trkpt lat="44.618191043108645" lon="10.071200567514914"><ele>706.6666666666666</ele><time>2026-04-25T09:55:34Z</time></trkpt><trkpt lat="44.61813680871971" lon="10.071442509529248"><ele>705.3333333333333</ele><time>2026-04-25T09:55:35Z</time></trkpt><trkpt lat="44.61809307500303" lon="10.071670228974455"><ele>704.0</ele><time>2026-04-25T09:55:36Z</time></trkpt><trkpt lat="44.618077609445834" lon="10.071853547430699"><ele>703.0</ele><time>2026-04-25T09:55:37Z</time></trkpt><trkpt lat="44.61810699958161" lon="10.072024192370984"><ele>702.0</ele><time>2026-04-25T09:55:38Z</time></trkpt><trkpt lat="44.618211025753745" lon="10.072161669460124"><ele>701.0</ele><time>2026-04-25T09:55:39Z</time></trkpt><trkpt lat="44.61838164270514" lon="10.07224573622605"><ele>700.0</ele><time>2026-04-25T09:55:40Z</time></trkpt><trkpt lat="44.618581848994225" lon="10.072291343139115"><ele>691.5</ele><time>2026-04-25T09:55:41Z</time></trkpt><trkpt lat="44.618806319295906" lon="10.072307955822211"><ele>683.0</ele><time>2026-04-25T09:55:42Z</time></trkpt><trkpt lat="44.61907646273064" lon="10.072332661793292"><ele>683.0</ele><time>2026-04-25T09:55:43Z</time></trkpt><trkpt lat="44.61929052430151" lon="10.072385356057731"><ele>683.0</ele><time>2026-04-25T09:55:44Z</time></trkpt><trkpt lat="44.619363738694574" lon="10.072360949947448"><ele>683.0</ele><time>2026-04-25T09:55:45Z</time></trkpt><trkpt lat="44.61952139443535" lon="10.072370563161481"><ele>681.25</ele><time>2026-04-25T09:55:46Z</time></trkpt><trkpt lat="44.61965815067364" lon="10.072375812123331"><ele>679.5</ele><time>2026-04-25T09:55:47Z</time></trkpt><trkpt lat="44.61977098620545" lon="10.072401685466174"><ele>677.75</ele><time>2026-04-25T09:55:48Z</time></trkpt><trkpt lat="44.61984601871565" lon="10.072470856912197"><ele>676.0</ele><time>2026-04-25T09:55:49Z</time></trkpt><trkpt lat="44.6198689856373" lon="10.072636940501386"><ele>676.0</ele><time>2026-04-25T09:55:50Z</time></trkpt><trkpt lat="44.61981386738654" lon="10.072832007943267"><ele>676.0</ele><time>2026-04-25T09:55:51Z</time></trkpt><trkpt lat="44.61978917549677" lon="10.07311514236658"><ele>676.0</ele><time>2026-04-25T09:55:52Z</time></trkpt><trkpt lat="44.61979070092916" lon="10.07339441846587"><ele>676.3333333333334</ele><time>2026-04-25T09:55:53Z</time></trkpt><trkpt lat="44.619809184797326" lon="10.073646725591539"><ele>676.6666666666666</ele><time>2026-04-25T09:55:54Z</time></trkpt><trkpt lat="44.61989660359549" lon="10.073868546209344"><ele>677.0</ele><time>2026-04-25T09:55:55Z</time></trkpt><trkpt lat="44.62003491840399" lon="10.074038796303991"><ele>678.3333333333333</ele><time>2026-04-25T09:55:56Z</time></trkpt><trkpt lat="44.62019956696557" lon="10.074144384807655"><ele>679.6666666666666</ele><time>2026-04-25T09:55:57Z</time></trkpt><trkpt lat="44.620359392782575" lon="10.074199298118929"><ele>681.0</ele><time>2026-04-25T09:55:58Z</time></trkpt><trkpt lat="44.62051005495453" lon="10.074255394389041"><ele>676.5</ele><time>2026-04-25T09:55:59Z</time></trkpt><trkpt lat="44.62063701138667" lon="10.074333404335645"><ele>672.0</ele><time>2026-04-25T09:56:00Z</time></trkpt><trkpt lat="44.62073103087344" lon="10.074450910838735"><ele>667.5</ele><time>2026-04-25T09:56:01Z</time></trkpt><trkpt lat="44.62080156351124" lon="10.074591147229569"><ele>663.0</ele><time>2026-04-25T09:56:02Z</time></trkpt><trkpt lat="44.62085303363485" lon="10.074731017211647"><ele>663.0</ele><time>2026-04-25T09:56:03Z</time></trkpt><trkpt lat="44.62091827501195" lon="10.074853253454409"><ele>663.0</ele><time>2026-04-25T09:56:04Z</time></trkpt><trkpt lat="44.62097407242824" lon="10.075003020389127"><ele>663.0</ele><time>2026-04-25T09:56:05Z</time></trkpt><trkpt lat="44.621049146147364" lon="10.075147905563787"><ele>663.0</ele><time>2026-04-25T09:56:06Z</time></trkpt><trkpt lat="44.62113552458835" lon="10.075280595712812"><ele>662.0</ele><time>2026-04-25T09:56:07Z</time></trkpt><trkpt lat="44.621236779714344" lon="10.075401211574672"><ele>661.0</ele><time>2026-04-25T09:56:08Z</time></trkpt><trkpt lat="44.6213357948058" lon="10.075517014399868"><ele>660.0</ele><time>2026-04-25T09:56:09Z</time></trkpt><trkpt lat="44.62141556364188" lon="10.075640036231496"><ele>659.0</ele><time>2026-04-25T09:56:10Z</time></trkpt><trkpt lat="44.62151085176412" lon="10.075772520318562"><ele>659.0</ele><time>2026-04-25T09:56:11Z</time></trkpt><trkpt lat="44.621589451834176" lon="10.075879322445424"><ele>659.0</ele><time>2026-04-25T09:56:12Z</time></trkpt><trkpt lat="44.6216506520234" lon="10.07595605833625"><ele>659.0</ele><time>2026-04-25T09:56:13Z</time></trkpt><trkpt lat="44.621662080493955" lon="10.076138206609441"><ele>659.0</ele><time>2026-04-25T09:56:15Z</time></trkpt><trkpt lat="44.62160883275047" lon="10.076241466334418"><ele>659.0</ele><time>2026-04-25T09:56:16Z</time></trkpt><trkpt lat="44.62149789266579" lon="10.076305883905176"><ele>659.0</ele><time>2026-04-25T09:56:17Z</time></trkpt><trkpt lat="44.62135808182858" lon="10.076416107594284"><ele>659.0</ele><time>2026-04-25T09:56:18Z</time></trkpt><trkpt lat="44.62122700287562" lon="10.076529573194827"><ele>659.0</ele><time>2026-04-25T09:56:19Z</time></trkpt><trkpt lat="44.621108511828666" lon="10.076586734043515"><ele>659.0</ele><time>2026-04-25T09:56:20Z</time></trkpt><trkpt lat="44.62097693719308" lon="10.076562584888132"><ele>661.6666666666666</ele><time>2026-04-25T09:56:21Z</time></trkpt><trkpt lat="44.62081354352359" lon="10.076523989097131"><ele>664.3333333333334</ele><time>2026-04-25T09:56:22Z</time></trkpt><trkpt lat="44.620648147971515" lon="10.076503712429155"><ele>667.0</ele><time>2026-04-25T09:56:23Z</time></trkpt><trkpt lat="44.62050180780491" lon="10.076490702086499"><ele>667.0</ele><time>2026-04-25T09:56:24Z</time></trkpt><trkpt lat="44.62036928040597" lon="10.076529444675888"><ele>667.0</ele><time>2026-04-25T09:56:25Z</time></trkpt><trkpt lat="44.62023630866888" lon="10.07662187413703"><ele>667.0</ele><time>2026-04-25T09:56:26Z</time></trkpt><trkpt lat="44.62013259007156" lon="10.076780908634085"><ele>667.0</ele><time>2026-04-25T09:56:27Z</time></trkpt><trkpt lat="44.62004642477837" lon="10.0770125833102"><ele>667.3333333333334</ele><time>2026-04-25T09:56:28Z</time></trkpt><trkpt lat="44.61998009604552" lon="10.07724880736461"><ele>667.6666666666666</ele><time>2026-04-25T09:56:29Z</time></trkpt><trkpt lat="44.6198842712091" lon="10.077454228105232"><ele>668.0</ele><time>2026-04-25T09:56:30Z</time></trkpt><trkpt lat="44.61977143170275" lon="10.07765961145613"><ele>672.6666666666666</ele><time>2026-04-25T09:56:31Z</time></trkpt><trkpt lat="44.61965454362337" lon="10.077839568214994"><ele>677.3333333333334</ele><time>2026-04-25T09:56:32Z</time></trkpt><trkpt lat="44.61955496865774" lon="10.0780114612892"><ele>682.0</ele><time>2026-04-25T09:56:33Z</time></trkpt><trkpt lat="44.61945935259751" lon="10.078165984175707"><ele>674.25</ele><time>2026-04-25T09:56:34Z</time></trkpt><trkpt lat="44.6193465921745" lon="10.078297234379422"><ele>666.5</ele><time>2026-04-25T09:56:34.999Z</time></trkpt><trkpt lat="44.61924754087786" lon="10.078403978710803"><ele>658.75</ele><time>2026-04-25T09:56:35.999Z</time></trkpt><trkpt lat="44.61911282184961" lon="10.078482596065436"><ele>651.0</ele><time>2026-04-25T09:56:36.999Z</time></trkpt><trkpt lat="44.618972516721605" lon="10.078595146081739"><ele>651.0</ele><time>2026-04-25T09:56:37.999Z</time></trkpt><trkpt lat="44.61882818819684" lon="10.078708313625116"><ele>651.0</ele><time>2026-04-25T09:56:38.999Z</time></trkpt><trkpt lat="44.61867521713576" lon="10.078850214931355"><ele>651.0</ele><time>2026-04-25T09:56:39.999Z</time></trkpt><trkpt lat="44.61850110659073" lon="10.078942602532186"><ele>648.6666666666666</ele><time>2026-04-25T09:56:40.999Z</time></trkpt><trkpt lat="44.61836143092892" lon="10.079072110292557"><ele>646.3333333333333</ele><time>2026-04-25T09:56:41.999Z</time></trkpt><trkpt lat="44.618231299823854" lon="10.079241583243515"><ele>644.0</ele><time>2026-04-25T09:56:42.999Z</time></trkpt><trkpt lat="44.6181295326303" lon="10.079456827185792"><ele>644.0</ele><time>2026-04-25T09:56:43.999Z</time></trkpt><trkpt lat="44.61805946549274" lon="10.079674711187277"><ele>644.0</ele><time>2026-04-25T09:56:44.999Z</time></trkpt><trkpt lat="44.617989012530074" lon="10.079849420289658"><ele>644.0</ele><time>2026-04-25T09:56:45.999Z</time></trkpt><trkpt lat="44.617900105626596" lon="10.079970817270638"><ele>644.0</ele><time>2026-04-25T09:56:46.999Z</time></trkpt><trkpt lat="44.617759008401265" lon="10.080061993700477"><ele>648.3333333333333</ele><time>2026-04-25T09:56:47.999Z</time></trkpt><trkpt lat="44.61760644924693" lon="10.080177513699423"><ele>652.6666666666666</ele><time>2026-04-25T09:56:48.999Z</time></trkpt><trkpt lat="44.61746816493276" lon="10.080328445434104"><ele>657.0</ele><time>2026-04-25T09:56:49.999Z</time></trkpt><trkpt lat="44.617334749061136" lon="10.08052926944689"><ele>657.0</ele><time>2026-04-25T09:56:50.999Z</time></trkpt><trkpt lat="44.61721590569679" lon="10.08074610612134"><ele>657.0</ele><time>2026-04-25T09:56:51.999Z</time></trkpt><trkpt lat="44.61711604602127" lon="10.080971010477779"><ele>657.0</ele><time>2026-04-25T09:56:52.999Z</time></trkpt><trkpt lat="44.61701110833541" lon="10.081174479489828"><ele>660.0</ele><time>2026-04-25T09:56:53.999Z</time></trkpt><trkpt lat="44.6169382161331" lon="10.081371921396412"><ele>663.0</ele><time>2026-04-25T09:56:54.999Z</time></trkpt><trkpt lat="44.6168930654536" lon="10.081586079627732"><ele>666.0</ele><time>2026-04-25T09:56:55.999Z</time></trkpt><trkpt lat="44.616850396436924" lon="10.081810184250102"><ele>659.0</ele><time>2026-04-25T09:56:56.999Z</time></trkpt><trkpt lat="44.61675727210147" lon="10.08198547548876"><ele>652.0</ele><time>2026-04-25T09:56:57.999Z</time></trkpt><trkpt lat="44.61663172954843" lon="10.08215659780649"><ele>645.0</ele><time>2026-04-25T09:56:58.999Z</time></trkpt><trkpt lat="44.61648494858112" lon="10.082315222922826"><ele>646.6666666666666</ele><time>2026-04-25T09:56:59.999Z</time></trkpt><trkpt lat="44.61634501116177" lon="10.0824409148629"><ele>648.3333333333333</ele><time>2026-04-25T09:57:00.999Z</time></trkpt><trkpt lat="44.616229337177494" lon="10.082561546607405"><ele>650.0</ele><time>2026-04-25T09:57:01.999Z</time></trkpt><trkpt lat="44.61611373007438" lon="10.082680395988207"><ele>650.0</ele><time>2026-04-25T09:57:02.999Z</time></trkpt><trkpt lat="44.616032385960224" lon="10.082837621145814"><ele>650.0</ele><time>2026-04-25T09:57:03.999Z</time></trkpt><trkpt lat="44.61599917949611" lon="10.08304829178572"><ele>650.0</ele><time>2026-04-25T09:57:04.999Z</time></trkpt><trkpt lat="44.61601586866763" lon="10.083277482292058"><ele>647.75</ele><time>2026-04-25T09:57:05.999Z</time></trkpt><trkpt lat="44.616030781090345" lon="10.08347173894373"><ele>645.5</ele><time>2026-04-25T09:57:06.999Z</time></trkpt><trkpt lat="44.61599908359534" lon="10.08361579407559"><ele>643.25</ele><time>2026-04-25T09:57:07.999Z</time></trkpt><trkpt lat="44.615934004146204" lon="10.083718719772243"><ele>641.0</ele><time>2026-04-25T09:57:08.999Z</time></trkpt><trkpt lat="44.61582047431758" lon="10.083851056388182"><ele>641.0</ele><time>2026-04-25T09:57:09.999Z</time></trkpt><trkpt lat="44.61569009916574" lon="10.084038185307742"><ele>641.0</ele><time>2026-04-25T09:57:10.999Z</time></trkpt><trkpt lat="44.61555074275915" lon="10.084218832603131"><ele>641.0</ele><time>2026-04-25T09:57:11.999Z</time></trkpt><trkpt lat="44.615429944183084" lon="10.08438035172097"><ele>638.1999999999999</ele><time>2026-04-25T09:57:12.999Z</time></trkpt><trkpt lat="44.61531442842724" lon="10.084494269132302"><ele>635.4</ele><time>2026-04-25T09:57:13.999Z</time></trkpt><trkpt lat="44.615220014277604" lon="10.084547469989337"><ele>632.6</ele><time>2026-04-25T09:57:14.999Z</time></trkpt><trkpt lat="44.61514145248366" lon="10.084515759854744"><ele>629.8</ele><time>2026-04-25T09:57:15.999Z</time></trkpt><trkpt lat="44.615050624718315" lon="10.084417255518531"><ele>627.0</ele><time>2026-04-25T09:57:16.999Z</time></trkpt><trkpt lat="44.61496456800902" lon="10.084252122208909"><ele>630.6666666666666</ele><time>2026-04-25T09:57:17.999Z</time></trkpt><trkpt lat="44.614872064129855" lon="10.084081449452126"><ele>634.3333333333333</ele><time>2026-04-25T09:57:18.999Z</time></trkpt><trkpt lat="44.61474821715863" lon="10.083945879455543"><ele>638.0</ele><time>2026-04-25T09:57:19.999Z</time></trkpt><trkpt lat="44.61458165148003" lon="10.0838927948172"><ele>632.3333333333333</ele><time>2026-04-25T09:57:20.999Z</time></trkpt><trkpt lat="44.614421548601456" lon="10.083823505041678"><ele>626.6666666666666</ele><time>2026-04-25T09:57:21.999Z</time></trkpt><trkpt lat="44.614306638803264" lon="10.083652362503289"><ele>621.0</ele><time>2026-04-25T09:57:22.999Z</time></trkpt><trkpt lat="44.61416889596371" lon="10.083511368017028"><ele>621.0</ele><time>2026-04-25T09:57:23.999Z</time></trkpt><trkpt lat="44.61401151021482" lon="10.083397438497435"><ele>621.0</ele><time>2026-04-25T09:57:24.999Z</time></trkpt><trkpt lat="44.61382206415607" lon="10.08332047903006"><ele>621.0</ele><time>2026-04-25T09:57:25.999Z</time></trkpt><trkpt lat="44.61363037909427" lon="10.083222832569756"><ele>622.0</ele><time>2026-04-25T09:57:26.999Z</time></trkpt><trkpt lat="44.61344939636505" lon="10.083121147253081"><ele>623.0</ele><time>2026-04-25T09:57:27.999Z</time></trkpt><trkpt lat="44.613280096035204" lon="10.083021683989475"><ele>624.0</ele><time>2026-04-25T09:57:28.999Z</time></trkpt><trkpt lat="44.613121051380546" lon="10.08292896358149"><ele>624.0</ele><time>2026-04-25T09:57:29.999Z</time></trkpt><trkpt lat="44.61295983549227" lon="10.082844409726203"><ele>624.0</ele><time>2026-04-25T09:57:30.999Z</time></trkpt><trkpt lat="44.61279646413384" lon="10.082760375733216"><ele>624.0</ele><time>2026-04-25T09:57:31.999Z</time></trkpt><trkpt lat="44.612625959024385" lon="10.082712569623055"><ele>620.6666666666666</ele><time>2026-04-25T09:57:32.999Z</time></trkpt><trkpt lat="44.612435285323016" lon="10.082720888591277"><ele>617.3333333333333</ele><time>2026-04-25T09:57:33.999Z</time></trkpt><trkpt lat="44.61223517362997" lon="10.082772392320436"><ele>614.0</ele><time>2026-04-25T09:57:34.999Z</time></trkpt><trkpt lat="44.61203513186808" lon="10.082806194427413"><ele>611.6666666666666</ele><time>2026-04-25T09:57:35.999Z</time></trkpt><trkpt lat="44.61185374254474" lon="10.082819715611492"><ele>609.3333333333334</ele><time>2026-04-25T09:57:36.999Z</time></trkpt><trkpt lat="44.61169941376424" lon="10.082826296207502"><ele>607.0</ele><time>2026-04-25T09:57:38Z</time></trkpt><trkpt lat="44.61158356777237" lon="10.082755067608648"><ele>607.0</ele><time>2026-04-25T09:57:39Z</time></trkpt><trkpt lat="44.611483190020465" lon="10.08263793902339"><ele>607.0</ele><time>2026-04-25T09:57:40Z</time></trkpt><trkpt lat="44.61138318355556" lon="10.082447660967846"><ele>607.0</ele><time>2026-04-25T09:57:41Z</time></trkpt><trkpt lat="44.611276624116755" lon="10.082254883065696"><ele>606.25</ele><time>2026-04-25T09:57:42Z</time></trkpt><trkpt lat="44.61119566296779" lon="10.08209185663467"><ele>605.5</ele><time>2026-04-25T09:57:43Z</time></trkpt><trkpt lat="44.61109523602345" lon="10.081987796102782"><ele>604.75</ele><time>2026-04-25T09:57:44Z</time></trkpt><trkpt lat="44.61095011732209" lon="10.081946155912766"><ele>604.0</ele><time>2026-04-25T09:57:45Z</time></trkpt><trkpt lat="44.610783095621684" lon="10.081987735638135"><ele>604.0</ele><time>2026-04-25T09:57:46Z</time></trkpt><trkpt lat="44.61063254111396" lon="10.082099937115563"><ele>604.0</ele><time>2026-04-25T09:57:47Z</time></trkpt><trkpt lat="44.610497571322746" lon="10.082266303580079"><ele>604.0</ele><time>2026-04-25T09:57:48Z</time></trkpt><trkpt lat="44.61034240643941" lon="10.082348670317172"><ele>604.75</ele><time>2026-04-25T09:57:49Z</time></trkpt><trkpt lat="44.610184746355415" lon="10.082384268142613"><ele>605.5</ele><time>2026-04-25T09:57:50Z</time></trkpt><trkpt lat="44.61004676614752" lon="10.082438663491702"><ele>606.25</ele><time>2026-04-25T09:57:51Z</time></trkpt><trkpt lat="44.609922679044466" lon="10.082542804219925"><ele>607.0</ele><time>2026-04-25T09:57:52Z</time></trkpt><trkpt lat="44.609790995327124" lon="10.082673266253467"><ele>606.6666666666667</ele><time>2026-04-25T09:57:53Z</time></trkpt><trkpt lat="44.60966135311461" lon="10.082823814315859"><ele>606.3333333333334</ele><time>2026-04-25T09:57:54Z</time></trkpt><trkpt lat="44.609549122587254" lon="10.082980727117212"><ele>606.0</ele><time>2026-04-25T09:57:55Z</time></trkpt><trkpt lat="44.609465006136496" lon="10.083151184508825"><ele>606.3333333333334</ele><time>2026-04-25T09:57:56Z</time></trkpt><trkpt lat="44.60943554791623" lon="10.083356284713643"><ele>606.6666666666667</ele><time>2026-04-25T09:57:57Z</time></trkpt><trkpt lat="44.60946025033727" lon="10.083597291787004"><ele>607.0</ele><time>2026-04-25T09:57:58Z</time></trkpt><trkpt lat="44.60949431169684" lon="10.083862194017545"><ele>606.6666666666667</ele><time>2026-04-25T09:57:59Z</time></trkpt><trkpt lat="44.60948441218318" lon="10.08412952867051"><ele>606.3333333333334</ele><time>2026-04-25T09:58:00Z</time></trkpt><trkpt lat="44.609490322970565" lon="10.08441067989588"><ele>606.0</ele><time>2026-04-25T09:58:01Z</time></trkpt><trkpt lat="44.60949626153628" lon="10.084705893412286"><ele>596.3333333333334</ele><time>2026-04-25T09:58:02Z</time></trkpt><trkpt lat="44.60950816484892" lon="10.084980263083775"><ele>586.6666666666667</ele><time>2026-04-25T09:58:03Z</time></trkpt><trkpt lat="44.60953387464811" lon="10.085229879794587"><ele>577.0</ele><time>2026-04-25T09:58:04Z</time></trkpt><trkpt lat="44.60954557857482" lon="10.085488738211096"><ele>576.0</ele><time>2026-04-25T09:58:05Z</time></trkpt><trkpt lat="44.60953452196515" lon="10.085778574112572"><ele>575.0</ele><time>2026-04-25T09:58:06Z</time></trkpt><trkpt lat="44.60951704167607" lon="10.086088500787296"><ele>574.0</ele><time>2026-04-25T09:58:07Z</time></trkpt><trkpt lat="44.60950605349365" lon="10.0863942514791"><ele>573.0</ele><time>2026-04-25T09:58:08Z</time></trkpt><trkpt lat="44.60951371457694" lon="10.086706250413132"><ele>572.0</ele><time>2026-04-25T09:58:09Z</time></trkpt><trkpt lat="44.60952065177858" lon="10.086997869773974"><ele>571.0</ele><time>2026-04-25T09:58:10Z</time></trkpt><trkpt lat="44.60952829071077" lon="10.0872733156576"><ele>570.0</ele><time>2026-04-25T09:58:11Z</time></trkpt><trkpt lat="44.609539973697714" lon="10.087524788304956"><ele>569.0</ele><time>2026-04-25T09:58:12Z</time></trkpt><trkpt lat="44.60956533603096" lon="10.087761169568465"><ele>568.0</ele><time>2026-04-25T09:58:13Z</time></trkpt><trkpt lat="44.60956677986447" lon="10.087972648113963"><ele>568.0</ele><time>2026-04-25T09:58:14Z</time></trkpt><trkpt lat="44.60954318112408" lon="10.088158257884656"><ele>568.0</ele><time>2026-04-25T09:58:15Z</time></trkpt><trkpt lat="44.609467595340945" lon="10.088315400521898"><ele>568.0</ele><time>2026-04-25T09:58:16Z</time></trkpt><trkpt lat="44.609313427954234" lon="10.08838474846346"><ele>568.0</ele><time>2026-04-25T09:58:17Z</time></trkpt><trkpt lat="44.60917936799044" lon="10.088490087593488"><ele>570.5</ele><time>2026-04-25T09:58:18Z</time></trkpt><trkpt lat="44.60908718869683" lon="10.088611776232957"><ele>573.0</ele><time>2026-04-25T09:58:19Z</time></trkpt><trkpt lat="44.60903928477657" lon="10.088764692244842"><ele>575.5</ele><time>2026-04-25T09:58:20Z</time></trkpt><trkpt lat="44.60906850192916" lon="10.08900546959084"><ele>578.0</ele><time>2026-04-25T09:58:21Z</time></trkpt><trkpt lat="44.60911790639877" lon="10.089264590481486"><ele>578.0</ele><time>2026-04-25T09:58:22Z</time></trkpt><trkpt lat="44.60910305347582" lon="10.089456057820827"><ele>578.0</ele><time>2026-04-25T09:58:23Z</time></trkpt><trkpt lat="44.609059725449356" lon="10.089564652884762"><ele>578.0</ele><time>2026-04-25T09:58:24Z</time></trkpt><trkpt lat="44.60895806282813" lon="10.089608201705639"><ele>578.0</ele><time>2026-04-25T09:58:25Z</time></trkpt><trkpt lat="44.608837965501095" lon="10.089595873614272"><ele>578.0</ele><time>2026-04-25T09:58:26Z</time></trkpt><trkpt lat="44.60866944247272" lon="10.08953336180583"><ele>578.0</ele><time>2026-04-25T09:58:27Z</time></trkpt><trkpt lat="44.60847027935594" lon="10.089492536036964"><ele>578.0</ele><time>2026-04-25T09:58:28Z</time></trkpt><trkpt lat="44.608267104659525" lon="10.08944108582688"><ele>580.6666666666666</ele><time>2026-04-25T09:58:29Z</time></trkpt><trkpt lat="44.60807608858228" lon="10.089402337297843"><ele>583.3333333333334</ele><time>2026-04-25T09:58:30Z</time></trkpt><trkpt lat="44.60789517551639" lon="10.089354296242448"><ele>586.0</ele><time>2026-04-25T09:58:31Z</time></trkpt><trkpt lat="44.60773374907661" lon="10.089312238351505"><ele>586.0</ele><time>2026-04-25T09:58:32Z</time></trkpt><trkpt lat="44.607589131783286" lon="10.089291055118816"><ele>586.0</ele><time>2026-04-25T09:58:33Z</time></trkpt><trkpt lat="44.60746636142831" lon="10.089311428414888"><ele>586.0</ele><time>2026-04-25T09:58:34Z</time></trkpt><trkpt lat="44.607357760994944" lon="10.089409428118914"><ele>586.0</ele><time>2026-04-25T09:58:35Z</time></trkpt><trkpt lat="44.60725648781572" lon="10.089594037566611"><ele>586.0</ele><time>2026-04-25T09:58:36Z</time></trkpt><trkpt lat="44.607170601562856" lon="10.089836982660318"><ele>586.0</ele><time>2026-04-25T09:58:37Z</time></trkpt><trkpt lat="44.60708616035197" lon="10.090083782519313"><ele>586.0</ele><time>2026-04-25T09:58:38Z</time></trkpt><trkpt lat="44.607002580488036" lon="10.09030895685665"><ele>587.25</ele><time>2026-04-25T09:58:39Z</time></trkpt><trkpt lat="44.60697781806763" lon="10.090489230393558"><ele>588.5</ele><time>2026-04-25T09:58:40Z</time></trkpt><trkpt lat="44.60697654547646" lon="10.090640415115523"><ele>589.75</ele><time>2026-04-25T09:58:41Z</time></trkpt><trkpt lat="44.60704372558425" lon="10.090780188644914"><ele>591.0</ele><time>2026-04-25T09:58:42Z</time></trkpt><trkpt lat="44.60717198584417" lon="10.09090175629343"><ele>584.3333333333334</ele><time>2026-04-25T09:58:43Z</time></trkpt><trkpt lat="44.607357655881415" lon="10.091016605904889"><ele>577.6666666666667</ele><time>2026-04-25T09:58:43.999Z</time></trkpt><trkpt lat="44.60752966013428" lon="10.09116325397463"><ele>571.0</ele><time>2026-04-25T09:58:44.999Z</time></trkpt><trkpt lat="44.607651790255616" lon="10.091288663622306"><ele>571.0</ele><time>2026-04-25T09:58:45.999Z</time></trkpt><trkpt lat="44.60773066247542" lon="10.091441857673917"><ele>571.0</ele><time>2026-04-25T09:58:46.999Z</time></trkpt><trkpt lat="44.60781993244192" lon="10.091652258923727"><ele>571.0</ele><time>2026-04-25T09:58:47.999Z</time></trkpt><trkpt lat="44.60792910834439" lon="10.091909738177796"><ele>565.0</ele><time>2026-04-25T09:58:48.999Z</time></trkpt><trkpt lat="44.60804499325855" lon="10.092163329003256"><ele>559.0</ele><time>2026-04-25T09:58:49.999Z</time></trkpt><trkpt lat="44.60817023157477" lon="10.092466088139902"><ele>559.0</ele><time>2026-04-25T09:58:50.999Z</time></trkpt><trkpt lat="44.608195968165255" lon="10.092554985320808"><ele>559.0</ele><time>2026-04-25T09:58:51.999Z</time></trkpt><trkpt lat="44.608209684699915" lon="10.092733302442332"><ele>559.0</ele><time>2026-04-25T09:58:52.999Z</time></trkpt><trkpt lat="44.60816822009609" lon="10.092894081824795"><ele>559.0</ele><time>2026-04-25T09:58:53.999Z</time></trkpt><trkpt lat="44.608098179542914" lon="10.093113172310034"><ele>557.3333333333334</ele><time>2026-04-25T09:58:54.999Z</time></trkpt><trkpt lat="44.60802502562758" lon="10.09337586833019"><ele>555.6666666666666</ele><time>2026-04-25T09:58:55.999Z</time></trkpt><trkpt lat="44.60795591488531" lon="10.093638229338417"><ele>554.0</ele><time>2026-04-25T09:58:56.999Z</time></trkpt><trkpt lat="44.60791313893873" lon="10.093879741265104"><ele>553.3333333333333</ele><time>2026-04-25T09:58:57.999Z</time></trkpt><trkpt lat="44.60785130730074" lon="10.09413697282455"><ele>552.6666666666666</ele><time>2026-04-25T09:58:58.999Z</time></trkpt><trkpt lat="44.607974180097614" lon="10.094414607639244"><ele>552.0</ele><time>2026-04-25T09:58:59.999Z</time></trkpt><trkpt lat="44.60801748603279" lon="10.094698400440167"><ele>551.3333333333334</ele><time>2026-04-25T09:59:00.999Z</time></trkpt><trkpt lat="44.60805121332519" lon="10.094984779327243"><ele>550.6666666666667</ele><time>2026-04-25T09:59:01.999Z</time></trkpt><trkpt lat="44.60807819100812" lon="10.095282126315405"><ele>550.0</ele><time>2026-04-25T09:59:02.999Z</time></trkpt><trkpt lat="44.60810424903799" lon="10.095569125738715"><ele>549.3333333333334</ele><time>2026-04-25T09:59:03.999Z</time></trkpt><trkpt lat="44.60814577106406" lon="10.095856000377163"><ele>548.6666666666666</ele><time>2026-04-25T09:59:04.999Z</time></trkpt><trkpt lat="44.60820412578916" lon="10.096128998783414"><ele>548.0</ele><time>2026-04-25T09:59:05.999Z</time></trkpt><trkpt lat="44.60827145756" lon="10.09637019247239"><ele>547.3333333333333</ele><time>2026-04-25T09:59:06.999Z</time></trkpt><trkpt lat="44.608301177892415" lon="10.096586600563796"><ele>546.6666666666666</ele><time>2026-04-25T09:59:07.999Z</time></trkpt><trkpt lat="44.60830331525394" lon="10.096804638688466"><ele>546.0</ele><time>2026-04-25T09:59:08.999Z</time></trkpt><trkpt lat="44.60828587666802" lon="10.097044154600837"><ele>546.0</ele><time>2026-04-25T09:59:09.999Z</time></trkpt><trkpt lat="44.60826859475757" lon="10.097300268748128"><ele>546.0</ele><time>2026-04-25T09:59:10.999Z</time></trkpt><trkpt lat="44.608239677203926" lon="10.097524389283539"><ele>546.0</ele><time>2026-04-25T09:59:11.999Z</time></trkpt><trkpt lat="44.60819251291009" lon="10.097687502602087"><ele>545.0</ele><time>2026-04-25T09:59:12.999Z</time></trkpt><trkpt lat="44.60812803163093" lon="10.097764615343245"><ele>544.0</ele><time>2026-04-25T09:59:13.999Z</time></trkpt><trkpt lat="44.60802486173418" lon="10.097768485556914"><ele>543.0</ele><time>2026-04-25T09:59:14.999Z</time></trkpt><trkpt lat="44.60791131054713" lon="10.097849291524726"><ele>542.0</ele><time>2026-04-25T09:59:15.999Z</time></trkpt><trkpt lat="44.6078379476454" lon="10.09796010229189"><ele>541.0</ele><time>2026-04-25T09:59:16.999Z</time></trkpt><trkpt lat="44.60784400465751" lon="10.098087838306144"><ele>541.0</ele><time>2026-04-25T09:59:17.999Z</time></trkpt><trkpt lat="44.60788963155444" lon="10.098203298354331"><ele>541.0</ele><time>2026-04-25T09:59:18.999Z</time></trkpt><trkpt lat="44.60799080811389" lon="10.098226979359398"><ele>541.0</ele><time>2026-04-25T09:59:19.999Z</time></trkpt><trkpt lat="44.60810625546079" lon="10.0982822655605"><ele>541.0</ele><time>2026-04-25T09:59:20.999Z</time></trkpt><trkpt lat="44.60824488134525" lon="10.09836623603874"><ele>541.3333333333334</ele><time>2026-04-25T09:59:21.999Z</time></trkpt><trkpt lat="44.608385976292325" lon="10.09850334448765"><ele>541.6666666666666</ele><time>2026-04-25T09:59:22.999Z</time></trkpt><trkpt lat="44.60850591199398" lon="10.098702760127747"><ele>542.0</ele><time>2026-04-25T09:59:23.999Z</time></trkpt><trkpt lat="44.60862310294436" lon="10.098890717911276"><ele>538.25</ele><time>2026-04-25T09:59:24.999Z</time></trkpt><trkpt lat="44.608715357213676" lon="10.099068192407096"><ele>534.5</ele><time>2026-04-25T09:59:25.999Z</time></trkpt><trkpt lat="44.608757041285166" lon="10.099225243023795"><ele>530.75</ele><time>2026-04-25T09:59:26.999Z</time></trkpt><trkpt lat="44.608754183835906" lon="10.099361475276158"><ele>527.0</ele><time>2026-04-25T09:59:27.999Z</time></trkpt><trkpt lat="44.608735453362044" lon="10.099540531297697"><ele>527.0</ele><time>2026-04-25T09:59:28.999Z</time></trkpt><trkpt lat="44.60873917287551" lon="10.099729055046808"><ele>527.0</ele><time>2026-04-25T09:59:29.999Z</time></trkpt><trkpt lat="44.60878222457208" lon="10.099893692439096"><ele>527.0</ele><time>2026-04-25T09:59:30.999Z</time></trkpt><trkpt lat="44.60889205857116" lon="10.100018923153236"><ele>527.0</ele><time>2026-04-25T09:59:31.999Z</time></trkpt><trkpt lat="44.60900158909299" lon="10.100144074011537"><ele>528.8000000000001</ele><time>2026-04-25T09:59:32.999Z</time></trkpt><trkpt lat="44.6090189248975" lon="10.100261543055757"><ele>530.6</ele><time>2026-04-25T09:59:33.999Z</time></trkpt><trkpt lat="44.608982025227164" lon="10.100371002219335"><ele>532.4000000000001</ele><time>2026-04-25T09:59:34.999Z</time></trkpt><trkpt lat="44.608891114062246" lon="10.10042789206329"><ele>534.2</ele><time>2026-04-25T09:59:35.999Z</time></trkpt><trkpt lat="44.60877821949265" lon="10.100523008397037"><ele>536.0</ele><time>2026-04-25T09:59:36.999Z</time></trkpt><trkpt lat="44.608639127478504" lon="10.100606526838"><ele>542.6666666666666</ele><time>2026-04-25T09:59:37.999Z</time></trkpt><trkpt lat="44.608490463925094" lon="10.100713063065418"><ele>549.3333333333334</ele><time>2026-04-25T09:59:38.999Z</time></trkpt><trkpt lat="44.60835491715972" lon="10.100828511401932"><ele>556.0</ele><time>2026-04-25T09:59:39.999Z</time></trkpt><trkpt lat="44.60825342644356" lon="10.100970246617042"><ele>556.0</ele><time>2026-04-25T09:59:40.999Z</time></trkpt><trkpt lat="44.60819260054556" lon="10.10116675764365"><ele>556.0</ele><time>2026-04-25T09:59:41.999Z</time></trkpt><trkpt lat="44.6081716021676" lon="10.101406947152153"><ele>556.0</ele><time>2026-04-25T09:59:42.999Z</time></trkpt><trkpt lat="44.608130055496495" lon="10.10164734576584"><ele>552.6666666666667</ele><time>2026-04-25T09:59:44Z</time></trkpt><trkpt lat="44.6080977653269" lon="10.101884258481425"><ele>549.3333333333334</ele><time>2026-04-25T09:59:45Z</time></trkpt><trkpt lat="44.60806087400799" lon="10.102106264261508"><ele>546.0</ele><time>2026-04-25T09:59:46Z</time></trkpt><trkpt lat="44.60801017174184" lon="10.102305932093648"><ele>545.0</ele><time>2026-04-25T09:59:47Z</time></trkpt><trkpt lat="44.607925345154165" lon="10.102462298726492"><ele>544.0</ele><time>2026-04-25T09:59:48Z</time></trkpt><trkpt lat="44.60785086895485" lon="10.10261801304212"><ele>543.0</ele><time>2026-04-25T09:59:49Z</time></trkpt><trkpt lat="44.607820348672554" lon="10.102766967378923"><ele>542.0</ele><time>2026-04-25T09:59:50Z</time></trkpt><trkpt lat="44.60783205483005" lon="10.102924897546313"><ele>542.0</ele><time>2026-04-25T09:59:51Z</time></trkpt><trkpt lat="44.60783947011019" lon="10.103097498889595"><ele>542.0</ele><time>2026-04-25T09:59:52Z</time></trkpt><trkpt lat="44.60786248560306" lon="10.1032745462022"><ele>542.0</ele><time>2026-04-25T09:59:53Z</time></trkpt><trkpt lat="44.60786486514323" lon="10.103451789045437"><ele>542.0</ele><time>2026-04-25T09:59:54Z</time></trkpt><trkpt lat="44.60787178754684" lon="10.103651730491345"><ele>542.75</ele><time>2026-04-25T09:59:55Z</time></trkpt><trkpt lat="44.607900528443565" lon="10.10384627359646"><ele>543.5</ele><time>2026-04-25T09:59:56Z</time></trkpt><trkpt lat="44.607930868967074" lon="10.104048536257745"><ele>544.25</ele><time>2026-04-25T09:59:57Z</time></trkpt><trkpt lat="44.607995881213704" lon="10.104233489206502"><ele>545.0</ele><time>2026-04-25T09:59:58Z</time></trkpt><trkpt lat="44.60804209706038" lon="10.104421705609768"><ele>547.0</ele><time>2026-04-25T09:59:59Z</time></trkpt><trkpt lat="44.6081001215746" lon="10.104604143820525"><ele>549.0</ele><time>2026-04-25T10:00:00Z</time></trkpt><trkpt lat="44.60815724954816" lon="10.104793564461264"><ele>551.0</ele><time>2026-04-25T10:00:01Z</time></trkpt><trkpt lat="44.6082253290744" lon="10.104960396926636"><ele>553.0</ele><time>2026-04-25T10:00:02Z</time></trkpt><trkpt lat="44.608256386649934" lon="10.105112838559469"><ele>553.3333333333334</ele><time>2026-04-25T10:00:03Z</time></trkpt><trkpt lat="44.6082940213681" lon="10.105221244014787"><ele>553.6666666666667</ele><time>2026-04-25T10:00:04Z</time></trkpt><trkpt lat="44.60832972621027" lon="10.105314555722765"><ele>554.0</ele><time>2026-04-25T10:00:05Z</time></trkpt><trkpt lat="44.608364413155016" lon="10.105395341981229"><ele>554.3333333333334</ele><time>2026-04-25T10:00:06Z</time></trkpt><trkpt lat="44.60838290774666" lon="10.1055094653952"><ele>554.6666666666666</ele><time>2026-04-25T10:00:07Z</time></trkpt><trkpt lat="44.60842721296967" lon="10.105652816972947"><ele>555.0</ele><time>2026-04-25T10:00:08Z</time></trkpt><trkpt lat="44.60848179282666" lon="10.105829080797198"><ele>555.0</ele><time>2026-04-25T10:00:09Z</time></trkpt><trkpt lat="44.60853639039622" lon="10.10600540189495"><ele>555.0</ele><time>2026-04-25T10:00:10Z</time></trkpt><trkpt lat="44.60860873308315" lon="10.106183280823995"><ele>555.0</ele><time>2026-04-25T10:00:11Z</time></trkpt><trkpt lat="44.608669210747976" lon="10.106387667062217"><ele>555.0</ele><time>2026-04-25T10:00:12Z</time></trkpt><trkpt lat="44.60874194430969" lon="10.106586203991434"><ele>555.6666666666666</ele><time>2026-04-25T10:00:13Z</time></trkpt><trkpt lat="44.60882177732757" lon="10.106787194350026"><ele>556.3333333333333</ele><time>2026-04-25T10:00:14Z</time></trkpt><trkpt lat="44.60889541992642" lon="10.10697933489364"><ele>557.0</ele><time>2026-04-25T10:00:15Z</time></trkpt><trkpt lat="44.608961923159264" lon="10.107168575802095"><ele>557.0</ele><time>2026-04-25T10:00:16Z</time></trkpt><trkpt lat="44.609031885899505" lon="10.107338744913756"><ele>557.0</ele><time>2026-04-25T10:00:17Z</time></trkpt><trkpt lat="44.60912095915991" lon="10.107508428885385"><ele>557.0</ele><time>2026-04-25T10:00:18Z</time></trkpt><trkpt lat="44.60922152213721" lon="10.107676346070582"><ele>557.0</ele><time>2026-04-25T10:00:19Z</time></trkpt><trkpt lat="44.60933049516963" lon="10.107849093777384"><ele>553.3333333333333</ele><time>2026-04-25T10:00:20Z</time></trkpt><trkpt lat="44.60943591750723" lon="10.10801841718093"><ele>549.6666666666666</ele><time>2026-04-25T10:00:21Z</time></trkpt><trkpt lat="44.609539928902436" lon="10.108192721587773"><ele>546.0</ele><time>2026-04-25T10:00:22Z</time></trkpt><trkpt lat="44.609641718270126" lon="10.108354312040701"><ele>541.6666666666666</ele><time>2026-04-25T10:00:23Z</time></trkpt><trkpt lat="44.6097410443745" lon="10.108522254918473"><ele>537.3333333333333</ele><time>2026-04-25T10:00:24Z</time></trkpt><trkpt lat="44.6098391281746" lon="10.108685380153235"><ele>533.0</ele><time>2026-04-25T10:00:25Z</time></trkpt><trkpt lat="44.609940524096984" lon="10.108845451879798"><ele>533.0</ele><time>2026-04-25T10:00:26Z</time></trkpt><trkpt lat="44.610039917238794" lon="10.109013980559288"><ele>533.0</ele><time>2026-04-25T10:00:27Z</time></trkpt><trkpt lat="44.61014900751761" lon="10.1091689905095"><ele>533.0</ele><time>2026-04-25T10:00:28Z</time></trkpt><trkpt lat="44.610258738613844" lon="10.10931557803522"><ele>530.5</ele><time>2026-04-25T10:00:29Z</time></trkpt><trkpt lat="44.61038040697435" lon="10.109423749163888"><ele>528.0</ele><time>2026-04-25T10:00:30Z</time></trkpt><trkpt lat="44.61051685428741" lon="10.109508692176755"><ele>525.5</ele><time>2026-04-25T10:00:31Z</time></trkpt><trkpt lat="44.610656257696064" lon="10.109578663207206"><ele>523.0</ele><time>2026-04-25T10:00:32Z</time></trkpt><trkpt lat="44.61079907009631" lon="10.109619151038233"><ele>523.0</ele><time>2026-04-25T10:00:33Z</time></trkpt><trkpt lat="44.61094590826997" lon="10.109615143800726"><ele>523.0</ele><time>2026-04-25T10:00:34Z</time></trkpt><trkpt lat="44.611080730415004" lon="10.109609557744106"><ele>523.0</ele><time>2026-04-25T10:00:35Z</time></trkpt><trkpt lat="44.61118426202707" lon="10.109675937395211"><ele>523.0</ele><time>2026-04-25T10:00:36Z</time></trkpt><trkpt lat="44.611243715106696" lon="10.10974866472178"><ele>524.1666666666667</ele><time>2026-04-25T10:00:37Z</time></trkpt><trkpt lat="44.61128082409099" lon="10.109824772199262"><ele>525.3333333333334</ele><time>2026-04-25T10:00:38Z</time></trkpt><trkpt lat="44.61126683422292" lon="10.109934953172452"><ele>526.5</ele><time>2026-04-25T10:00:39Z</time></trkpt><trkpt lat="44.61122350039897" lon="10.110032608512817"><ele>527.6666666666666</ele><time>2026-04-25T10:00:40Z</time></trkpt><trkpt lat="44.61114149137534" lon="10.110084415365634"><ele>528.8333333333333</ele><time>2026-04-25T10:00:41Z</time></trkpt><trkpt lat="44.61105603684394" lon="10.110135999935288"><ele>530.0</ele><time>2026-04-25T10:00:42Z</time></trkpt><trkpt lat="44.610949065708525" lon="10.110200837178237"><ele>530.0</ele><time>2026-04-25T10:00:43Z</time></trkpt><trkpt lat="44.61082275261557" lon="10.110247557405005"><ele>530.0</ele><time>2026-04-25T10:00:44Z</time></trkpt><trkpt lat="44.610694920192984" lon="10.110308516801322"><ele>530.0</ele><time>2026-04-25T10:00:45Z</time></trkpt><trkpt lat="44.61057863062733" lon="10.11036597051578"><ele>530.0</ele><time>2026-04-25T10:00:46Z</time></trkpt><trkpt lat="44.610455175881405" lon="10.110394084450595"><ele>530.0</ele><time>2026-04-25T10:00:47Z</time></trkpt><trkpt lat="44.61032734985394" lon="10.110434854879685"><ele>530.0</ele><time>2026-04-25T10:00:48Z</time></trkpt><trkpt lat="44.61020782557267" lon="10.110484565054586"><ele>530.0</ele><time>2026-04-25T10:00:49Z</time></trkpt><trkpt lat="44.6100806589056" lon="10.110502901521544"><ele>530.0</ele><time>2026-04-25T10:00:50Z</time></trkpt><trkpt lat="44.60996427915958" lon="10.110451762258808"><ele>530.4</ele><time>2026-04-25T10:00:51Z</time></trkpt><trkpt lat="44.609842045039514" lon="10.110401301745032"><ele>530.8</ele><time>2026-04-25T10:00:51.999Z</time></trkpt><trkpt lat="44.60974436584391" lon="10.110318261803569"><ele>531.2</ele><time>2026-04-25T10:00:52.999Z</time></trkpt><trkpt lat="44.60965357277492" lon="10.110275448403263"><ele>531.6</ele><time>2026-04-25T10:00:53.999Z</time></trkpt><trkpt lat="44.60957512763582" lon="10.110294527133934"><ele>532.0</ele><time>2026-04-25T10:00:54.999Z</time></trkpt><trkpt lat="44.60951459154104" lon="10.110385177199506"><ele>532.0</ele><time>2026-04-25T10:00:55.999Z</time></trkpt><trkpt lat="44.609507795213496" lon="10.110535892010844"><ele>532.0</ele><time>2026-04-25T10:00:56.999Z</time></trkpt><trkpt lat="44.60956526053582" lon="10.110676377530845"><ele>532.0</ele><time>2026-04-25T10:00:57.999Z</time></trkpt><trkpt lat="44.60964411670015" lon="10.110766845842887"><ele>532.0</ele><time>2026-04-25T10:00:58.999Z</time></trkpt><trkpt lat="44.60973802156721" lon="10.110857165516862"><ele>532.0</ele><time>2026-04-25T10:00:59.999Z</time></trkpt><trkpt lat="44.609839143206244" lon="10.11093219041896"><ele>527.5</ele><time>2026-04-25T10:01:00.999Z</time></trkpt><trkpt lat="44.60995923852817" lon="10.11097532990738"><ele>523.0</ele><time>2026-04-25T10:01:01.999Z</time></trkpt><trkpt lat="44.610086617880434" lon="10.110978317190026"><ele>518.5</ele><time>2026-04-25T10:01:02.999Z</time></trkpt><trkpt lat="44.610226434267105" lon="10.110928379436706"><ele>514.0</ele><time>2026-04-25T10:01:03.999Z</time></trkpt><trkpt lat="44.61037030809578" lon="10.11086694262615"><ele>513.5</ele><time>2026-04-25T10:01:04.999Z</time></trkpt><trkpt lat="44.61052412375304" lon="10.110859002544219"><ele>513.0</ele><time>2026-04-25T10:01:05.999Z</time></trkpt><trkpt lat="44.610666610824744" lon="10.110828950667603"><ele>512.5</ele><time>2026-04-25T10:01:06.999Z</time></trkpt><trkpt lat="44.61080946890538" lon="10.110840757677611"><ele>512.0</ele><time>2026-04-25T10:01:07.999Z</time></trkpt><trkpt lat="44.610939465099406" lon="10.110845313049374"><ele>512.0</ele><time>2026-04-25T10:01:08.999Z</time></trkpt><trkpt lat="44.61105379019434" lon="10.11084120103714"><ele>512.0</ele><time>2026-04-25T10:01:09.999Z</time></trkpt><trkpt lat="44.611173954924105" lon="10.1108349828866"><ele>512.0</ele><time>2026-04-25T10:01:10.999Z</time></trkpt><trkpt lat="44.611294184377925" lon="10.11083393211163"><ele>512.0</ele><time>2026-04-25T10:01:11.999Z</time></trkpt><trkpt lat="44.611411693958615" lon="10.1108320971659"><ele>509.25</ele><time>2026-04-25T10:01:12.999Z</time></trkpt><trkpt lat="44.61153446392499" lon="10.110828585152163"><ele>506.5</ele><time>2026-04-25T10:01:13.999Z</time></trkpt><trkpt lat="44.611651591654095" lon="10.110823911909714"><ele>503.75</ele><time>2026-04-25T10:01:14.999Z</time></trkpt><trkpt lat="44.61176601861644" lon="10.11082779733088"><ele>501.0</ele><time>2026-04-25T10:01:15.999Z</time></trkpt><trkpt lat="44.61187641077756" lon="10.110882996250885"><ele>501.0</ele><time>2026-04-25T10:01:16.999Z</time></trkpt><trkpt lat="44.611981080244476" lon="10.11094901084168"><ele>501.0</ele><time>2026-04-25T10:01:17.999Z</time></trkpt><trkpt lat="44.61207915328381" lon="10.111003803521692"><ele>501.0</ele><time>2026-04-25T10:01:18.999Z</time></trkpt><trkpt lat="44.612194426891065" lon="10.111121757964044"><ele>501.0</ele><time>2026-04-25T10:01:19.999Z</time></trkpt><trkpt lat="44.612315973438236" lon="10.111229962574457"><ele>495.33333333333337</ele><time>2026-04-25T10:01:20.999Z</time></trkpt><trkpt lat="44.61244495255272" lon="10.111320558339246"><ele>489.6666666666667</ele><time>2026-04-25T10:01:21.999Z</time></trkpt><trkpt lat="44.61258289310293" lon="10.111403877951306"><ele>484.0</ele><time>2026-04-25T10:01:22.999Z</time></trkpt><trkpt lat="44.612734264466106" lon="10.111455086388707"><ele>483.0</ele><time>2026-04-25T10:01:23.999Z</time></trkpt><trkpt lat="44.61288944667871" lon="10.111491717081767"><ele>482.0</ele><time>2026-04-25T10:01:24.999Z</time></trkpt><trkpt lat="44.6130479276154" lon="10.11154672667951"><ele>481.0</ele><time>2026-04-25T10:01:25.999Z</time></trkpt><trkpt lat="44.61319682029645" lon="10.111614972605333"><ele>481.0</ele><time>2026-04-25T10:01:26.999Z</time></trkpt><trkpt lat="44.61334404446091" lon="10.111704887755307"><ele>481.0</ele><time>2026-04-25T10:01:27.999Z</time></trkpt><trkpt lat="44.6134868509807" lon="10.11180176334306"><ele>481.0</ele><time>2026-04-25T10:01:28.999Z</time></trkpt><trkpt lat="44.613633723614804" lon="10.111891768088743"><ele>478.75</ele><time>2026-04-25T10:01:29.999Z</time></trkpt><trkpt lat="44.613777807606965" lon="10.111971512609045"><ele>476.5</ele><time>2026-04-25T10:01:30.999Z</time></trkpt><trkpt lat="44.613919156366" lon="10.11203203465587"><ele>474.25</ele><time>2026-04-25T10:01:31.999Z</time></trkpt><trkpt lat="44.6140613475966" lon="10.112058835610592"><ele>472.0</ele><time>2026-04-25T10:01:32.999Z</time></trkpt><trkpt lat="44.61420005057206" lon="10.112075315948344"><ele>472.0</ele><time>2026-04-25T10:01:33.999Z</time></trkpt><trkpt lat="44.61432924295109" lon="10.112098428439516"><ele>472.0</ele><time>2026-04-25T10:01:34.999Z</time></trkpt><trkpt lat="44.61444690689847" lon="10.112159387169418"><ele>472.0</ele><time>2026-04-25T10:01:35.999Z</time></trkpt><trkpt lat="44.61454093576505" lon="10.112209357203035"><ele>472.0</ele><time>2026-04-25T10:01:36.999Z</time></trkpt><trkpt lat="44.61459425574571" lon="10.11233267603271"><ele>471.75</ele><time>2026-04-25T10:01:37.999Z</time></trkpt><trkpt lat="44.61461749336656" lon="10.112486137271723"><ele>471.5</ele><time>2026-04-25T10:01:38.999Z</time></trkpt><trkpt lat="44.61458730259412" lon="10.11265114476585"><ele>471.25</ele><time>2026-04-25T10:01:39.999Z</time></trkpt><trkpt lat="44.61450270035171" lon="10.11279606012133"><ele>471.0</ele><time>2026-04-25T10:01:40.999Z</time></trkpt><trkpt lat="44.614402477896725" lon="10.112941758204503"><ele>471.0</ele><time>2026-04-25T10:01:41.999Z</time></trkpt><trkpt lat="44.6143036115626" lon="10.11311004494759"><ele>471.0</ele><time>2026-04-25T10:01:42.999Z</time></trkpt><trkpt lat="44.61420886696575" lon="10.113301448026665"><ele>471.0</ele><time>2026-04-25T10:01:43.999Z</time></trkpt><trkpt lat="44.614146057991896" lon="10.11352889912812"><ele>468.0</ele><time>2026-04-25T10:01:44.999Z</time></trkpt><trkpt lat="44.614066681817924" lon="10.113728117874546"><ele>465.0</ele><time>2026-04-25T10:01:45.999Z</time></trkpt><trkpt lat="44.61400778067334" lon="10.113925818553446"><ele>462.0</ele><time>2026-04-25T10:01:46.999Z</time></trkpt><trkpt lat="44.61391721845042" lon="10.114110834823746"><ele>460.40000000000003</ele><time>2026-04-25T10:01:47.999Z</time></trkpt><trkpt lat="44.61380471724889" lon="10.11425912535635"><ele>458.80000000000007</ele><time>2026-04-25T10:01:48.999Z</time></trkpt><trkpt lat="44.61374620790704" lon="10.114376108257439"><ele>457.2</ele><time>2026-04-25T10:01:50Z</time></trkpt><trkpt lat="44.61369193407887" lon="10.11444321332306"><ele>455.6</ele><time>2026-04-25T10:01:51Z</time></trkpt><trkpt lat="44.613621434894036" lon="10.114488646880744"><ele>454.0</ele><time>2026-04-25T10:01:53Z</time></trkpt><trkpt lat="44.61353772678357" lon="10.114344913861316"><ele>454.25</ele><time>2026-04-25T10:01:54Z</time></trkpt><trkpt lat="44.61355576497942" lon="10.114127427466979"><ele>454.5</ele><time>2026-04-25T10:01:56Z</time></trkpt><trkpt lat="44.613584509865056" lon="10.113958870887446"><ele>454.75</ele><time>2026-04-25T10:01:57Z</time></trkpt><trkpt lat="44.6135967744545" lon="10.113766074303951"><ele>455.0</ele><time>2026-04-25T10:01:58Z</time></trkpt><trkpt lat="44.613567902145626" lon="10.113597858912431"><ele>455.0</ele><time>2026-04-25T10:01:59Z</time></trkpt><trkpt lat="44.61348284418126" lon="10.113477720149616"><ele>455.0</ele><time>2026-04-25T10:02:00Z</time></trkpt><trkpt lat="44.613348895678875" lon="10.113425097266182"><ele>455.0</ele><time>2026-04-25T10:02:01Z</time></trkpt><trkpt lat="44.61319646114223" lon="10.113419817972767"><ele>455.0</ele><time>2026-04-25T10:02:02Z</time></trkpt><trkpt lat="44.613026354069774" lon="10.113439199382041"><ele>455.0</ele><time>2026-04-25T10:02:03Z</time></trkpt><trkpt lat="44.61284025718758" lon="10.113410563483967"><ele>455.0</ele><time>2026-04-25T10:02:04Z</time></trkpt><trkpt lat="44.612662090372524" lon="10.11341872340834"><ele>455.0</ele><time>2026-04-25T10:02:05Z</time></trkpt><trkpt lat="44.61248144263778" lon="10.113424869257942"><ele>455.0</ele><time>2026-04-25T10:02:06Z</time></trkpt><trkpt lat="44.61229911768901" lon="10.113488769473102"><ele>455.0</ele><time>2026-04-25T10:02:07Z</time></trkpt><trkpt lat="44.61211388230972" lon="10.113587711021857"><ele>455.0</ele><time>2026-04-25T10:02:08Z</time></trkpt><trkpt lat="44.61193756750222" lon="10.113670989527337"><ele>456.3333333333333</ele><time>2026-04-25T10:02:09Z</time></trkpt><trkpt lat="44.61177952685976" lon="10.11374919101524"><ele>457.66666666666663</ele><time>2026-04-25T10:02:10Z</time></trkpt><trkpt lat="44.61165563051392" lon="10.113885275081879"><ele>459.0</ele><time>2026-04-25T10:02:11Z</time></trkpt><trkpt lat="44.61155046556724" lon="10.114089580190388"><ele>455.66666666666663</ele><time>2026-04-25T10:02:12Z</time></trkpt><trkpt lat="44.61146528094191" lon="10.114329324979712"><ele>452.3333333333333</ele><time>2026-04-25T10:02:13Z</time></trkpt><trkpt lat="44.61135866264573" lon="10.114504517023812"><ele>449.0</ele><time>2026-04-25T10:02:14Z</time></trkpt><trkpt lat="44.611265455976955" lon="10.114645587297586"><ele>450.25</ele><time>2026-04-25T10:02:15Z</time></trkpt><trkpt lat="44.611156913113724" lon="10.114766059574263"><ele>451.5</ele><time>2026-04-25T10:02:16Z</time></trkpt><trkpt lat="44.611007705069866" lon="10.114740519514596"><ele>452.75</ele><time>2026-04-25T10:02:17Z</time></trkpt><trkpt lat="44.61087580164324" lon="10.11465460147438"><ele>454.0</ele><time>2026-04-25T10:02:18Z</time></trkpt><trkpt lat="44.610730896930555" lon="10.114581259798394"><ele>454.0</ele><time>2026-04-25T10:02:19Z</time></trkpt><trkpt lat="44.61059018673772" lon="10.114482891996857"><ele>454.0</ele><time>2026-04-25T10:02:20Z</time></trkpt><trkpt lat="44.61043374857277" lon="10.114466497295652"><ele>454.0</ele><time>2026-04-25T10:02:21Z</time></trkpt><trkpt lat="44.610284579921405" lon="10.114532727820087"><ele>455.33333333333337</ele><time>2026-04-25T10:02:22Z</time></trkpt><trkpt lat="44.6101414430312" lon="10.114673604328281"><ele>456.66666666666663</ele><time>2026-04-25T10:02:23Z</time></trkpt><trkpt lat="44.61000068846185" lon="10.114816534845449"><ele>458.0</ele><time>2026-04-25T10:02:24Z</time></trkpt><trkpt lat="44.60985709971561" lon="10.114864107802127"><ele>458.0</ele><time>2026-04-25T10:02:25Z</time></trkpt><trkpt lat="44.60969759991526" lon="10.114880485002843"><ele>458.0</ele><time>2026-04-25T10:02:26Z</time></trkpt><trkpt lat="44.609544317578376" lon="10.114746450402132"><ele>458.0</ele><time>2026-04-25T10:02:27Z</time></trkpt><trkpt lat="44.60938309858107" lon="10.114625970306298"><ele>456.3333333333333</ele><time>2026-04-25T10:02:28Z</time></trkpt><trkpt lat="44.60924260274336" lon="10.114477343379521"><ele>454.66666666666663</ele><time>2026-04-25T10:02:29Z</time></trkpt><trkpt lat="44.60910963603013" lon="10.114344021562014"><ele>453.0</ele><time>2026-04-25T10:02:30Z</time></trkpt><trkpt lat="44.60898462855399" lon="10.114228764399625"><ele>453.0</ele><time>2026-04-25T10:02:31Z</time></trkpt><trkpt lat="44.60885571917466" lon="10.114161039958553"><ele>453.0</ele><time>2026-04-25T10:02:32Z</time></trkpt><trkpt lat="44.60872087548604" lon="10.114173261637834"><ele>453.0</ele><time>2026-04-25T10:02:33Z</time></trkpt><trkpt lat="44.60859384414378" lon="10.114255010255697"><ele>453.0</ele><time>2026-04-25T10:02:34Z</time></trkpt><trkpt lat="44.608487483258486" lon="10.114392023845685"><ele>453.66666666666663</ele><time>2026-04-25T10:02:35Z</time></trkpt><trkpt lat="44.60841354980011" lon="10.11457818665823"><ele>454.3333333333333</ele><time>2026-04-25T10:02:36Z</time></trkpt><trkpt lat="44.60837852591711" lon="10.1147879930311"><ele>455.0</ele><time>2026-04-25T10:02:37Z</time></trkpt><trkpt lat="44.60837850277532" lon="10.115007658467762"><ele>452.66666666666663</ele><time>2026-04-25T10:02:38Z</time></trkpt><trkpt lat="44.608423023065974" lon="10.115234693838527"><ele>450.33333333333337</ele><time>2026-04-25T10:02:39Z</time></trkpt><trkpt lat="44.60848415451139" lon="10.115470218590808"><ele>448.0</ele><time>2026-04-25T10:02:40Z</time></trkpt><trkpt lat="44.60851190325266" lon="10.115720007534357"><ele>446.0</ele><time>2026-04-25T10:02:41Z</time></trkpt><trkpt lat="44.608552489951066" lon="10.1159604199968"><ele>444.0</ele><time>2026-04-25T10:02:42Z</time></trkpt><trkpt lat="44.60858804495436" lon="10.116178372318494"><ele>442.0</ele><time>2026-04-25T10:02:43Z</time></trkpt><trkpt lat="44.60861883653951" lon="10.116395023270735"><ele>440.75</ele><time>2026-04-25T10:02:44Z</time></trkpt><trkpt lat="44.60862927926303" lon="10.11659268524959"><ele>439.5</ele><time>2026-04-25T10:02:45Z</time></trkpt><trkpt lat="44.608612071971194" lon="10.116757840099327"><ele>438.25</ele><time>2026-04-25T10:02:46Z</time></trkpt><trkpt lat="44.60855581604737" lon="10.116903311553854"><ele>437.0</ele><time>2026-04-25T10:02:47Z</time></trkpt><trkpt lat="44.60841721052933" lon="10.11695814271826"><ele>437.0</ele><time>2026-04-25T10:02:48Z</time></trkpt><trkpt lat="44.60827100369366" lon="10.116995592719766"><ele>437.0</ele><time>2026-04-25T10:02:49Z</time></trkpt><trkpt lat="44.60814525294126" lon="10.116849955773462"><ele>437.0</ele><time>2026-04-25T10:02:50Z</time></trkpt><trkpt lat="44.60807305882995" lon="10.116681359269776"><ele>438.25</ele><time>2026-04-25T10:02:51Z</time></trkpt><trkpt lat="44.607984403839545" lon="10.116505349252947"><ele>439.5</ele><time>2026-04-25T10:02:52Z</time></trkpt><trkpt lat="44.60788396249256" lon="10.116372223485193"><ele>440.75</ele><time>2026-04-25T10:02:53Z</time></trkpt><trkpt lat="44.60773366394706" lon="10.11632492001144"><ele>442.0</ele><time>2026-04-25T10:02:54Z</time></trkpt><trkpt lat="44.60755371201869" lon="10.116395846556472"><ele>442.0</ele><time>2026-04-25T10:02:55Z</time></trkpt><trkpt lat="44.60736181259217" lon="10.116521379225643"><ele>442.0</ele><time>2026-04-25T10:02:56Z</time></trkpt><trkpt lat="44.607169519118486" lon="10.116601692602094"><ele>442.0</ele><time>2026-04-25T10:02:57Z</time></trkpt><trkpt lat="44.60698941724973" lon="10.11668477694787"><ele>436.33333333333337</ele><time>2026-04-25T10:02:58Z</time></trkpt><trkpt lat="44.60682411139681" lon="10.116746582248219"><ele>430.66666666666663</ele><time>2026-04-25T10:02:59Z</time></trkpt><trkpt lat="44.606659615666395" lon="10.116753510343267"><ele>425.0</ele><time>2026-04-25T10:02:59.999Z</time></trkpt><trkpt lat="44.606507298250456" lon="10.116687452050572"><ele>425.0</ele><time>2026-04-25T10:03:00.999Z</time></trkpt><trkpt lat="44.6063727316749" lon="10.11657422939789"><ele>425.0</ele><time>2026-04-25T10:03:01.999Z</time></trkpt><trkpt lat="44.606222382433984" lon="10.116459458170374"><ele>425.0</ele><time>2026-04-25T10:03:02.999Z</time></trkpt><trkpt lat="44.60607690680091" lon="10.116340899544516"><ele>426.75</ele><time>2026-04-25T10:03:03.999Z</time></trkpt><trkpt lat="44.6059404792653" lon="10.116236858634116"><ele>428.5</ele><time>2026-04-25T10:03:04.999Z</time></trkpt><trkpt lat="44.60581919269689" lon="10.116150233679827"><ele>430.25</ele><time>2026-04-25T10:03:05.999Z</time></trkpt><trkpt lat="44.605714926587005" lon="10.11609043276215"><ele>432.0</ele><time>2026-04-25T10:03:06.999Z</time></trkpt><trkpt lat="44.605613008257805" lon="10.1160960300145"><ele>432.0</ele><time>2026-04-25T10:03:07.999Z</time></trkpt><trkpt lat="44.60552364979291" lon="10.116183381085529"><ele>432.0</ele><time>2026-04-25T10:03:08.999Z</time></trkpt><trkpt lat="44.60546013702722" lon="10.116318773230946"><ele>432.0</ele><time>2026-04-25T10:03:09.999Z</time></trkpt><trkpt lat="44.60544614748345" lon="10.116494333787305"><ele>432.0</ele><time>2026-04-25T10:03:10.999Z</time></trkpt><trkpt lat="44.60550476645067" lon="10.116657597240467"><ele>428.75</ele><time>2026-04-25T10:03:11.999Z</time></trkpt><trkpt lat="44.60561358892155" lon="10.116754202080866"><ele>425.5</ele><time>2026-04-25T10:03:12.999Z</time></trkpt><trkpt lat="44.60572609732936" lon="10.116796857015222"><ele>422.25</ele><time>2026-04-25T10:03:13.999Z</time></trkpt><trkpt lat="44.605851591540606" lon="10.116817093578314"><ele>419.0</ele><time>2026-04-25T10:03:14.999Z</time></trkpt><trkpt lat="44.60597735350448" lon="10.116873149652921"><ele>419.0</ele><time>2026-04-25T10:03:15.999Z</time></trkpt><trkpt lat="44.606073743867924" lon="10.117016616737006"><ele>419.0</ele><time>2026-04-25T10:03:16.999Z</time></trkpt><trkpt lat="44.60613826294568" lon="10.11721807699187"><ele>419.0</ele><time>2026-04-25T10:03:17.999Z</time></trkpt><trkpt lat="44.6062455078619" lon="10.117437650136056"><ele>419.0</ele><time>2026-04-25T10:03:18.999Z</time></trkpt><trkpt lat="44.60634903196868" lon="10.117664052925722"><ele>419.0</ele><time>2026-04-25T10:03:19.999Z</time></trkpt><trkpt lat="44.606433950525535" lon="10.117885754944414"><ele>419.0</ele><time>2026-04-25T10:03:20.999Z</time></trkpt><trkpt lat="44.60652210585362" lon="10.118073642138658"><ele>416.75</ele><time>2026-04-25T10:03:21.999Z</time></trkpt><trkpt lat="44.60658381040616" lon="10.118244542608291"><ele>414.5</ele><time>2026-04-25T10:03:22.999Z</time></trkpt><trkpt lat="44.60659833330887" lon="10.118391909590567"><ele>412.25</ele><time>2026-04-25T10:03:23.999Z</time></trkpt><trkpt lat="44.60656166989845" lon="10.118519222043187"><ele>410.0</ele><time>2026-04-25T10:03:24.999Z</time></trkpt><trkpt lat="44.606462180648805" lon="10.118612480197807"><ele>410.0</ele><time>2026-04-25T10:03:25.999Z</time></trkpt><trkpt lat="44.606334482318395" lon="10.118656231710247"><ele>410.0</ele><time>2026-04-25T10:03:26.999Z</time></trkpt><trkpt lat="44.6062171754608" lon="10.11851137514865"><ele>410.0</ele><time>2026-04-25T10:03:27.999Z</time></trkpt><trkpt lat="44.606068605428156" lon="10.11835892565051"><ele>410.66666666666663</ele><time>2026-04-25T10:03:28.999Z</time></trkpt><trkpt lat="44.605922539521366" lon="10.118193179549388"><ele>411.33333333333337</ele><time>2026-04-25T10:03:29.999Z</time></trkpt><trkpt lat="44.605760327375215" lon="10.118037831136702"><ele>412.0</ele><time>2026-04-25T10:03:30.999Z</time></trkpt><trkpt lat="44.605605602458134" lon="10.117895056609482"><ele>412.0</ele><time>2026-04-25T10:03:31.999Z</time></trkpt><trkpt lat="44.60542310545414" lon="10.117762071538747"><ele>412.0</ele><time>2026-04-25T10:03:32.999Z</time></trkpt><trkpt lat="44.60521964506448" lon="10.117668896981142"><ele>412.0</ele><time>2026-04-25T10:03:33.999Z</time></trkpt><trkpt lat="44.60500563014664" lon="10.117594916291285"><ele>411.33333333333337</ele><time>2026-04-25T10:03:34.999Z</time></trkpt><trkpt lat="44.604802612640086" lon="10.117514038070292"><ele>410.66666666666663</ele><time>2026-04-25T10:03:35.999Z</time></trkpt><trkpt lat="44.60461238830459" lon="10.11742586987471"><ele>410.0</ele><time>2026-04-25T10:03:36.999Z</time></trkpt><trkpt lat="44.604439320504255" lon="10.11734876889556"><ele>410.0</ele><time>2026-04-25T10:03:37.999Z</time></trkpt><trkpt lat="44.60427879433952" lon="10.117284995634938"><ele>410.0</ele><time>2026-04-25T10:03:38.999Z</time></trkpt><trkpt lat="44.60412603165752" lon="10.117217999323087"><ele>410.0</ele><time>2026-04-25T10:03:39.999Z</time></trkpt><trkpt lat="44.60397891031989" lon="10.117155207180042"><ele>410.0</ele><time>2026-04-25T10:03:40.999Z</time></trkpt><trkpt lat="44.6038441468668" lon="10.117095523978026"><ele>410.0</ele><time>2026-04-25T10:03:41.999Z</time></trkpt><trkpt lat="44.60370610565926" lon="10.117036830752733"><ele>410.0</ele><time>2026-04-25T10:03:42.999Z</time></trkpt><trkpt lat="44.603578986313515" lon="10.116975390976972"><ele>410.0</ele><time>2026-04-25T10:03:43.999Z</time></trkpt><trkpt lat="44.603438968261244" lon="10.116941769509827"><ele>408.3333333333333</ele><time>2026-04-25T10:03:44.999Z</time></trkpt><trkpt lat="44.603282750052486" lon="10.11697359834371"><ele>406.66666666666663</ele><time>2026-04-25T10:03:45.999Z</time></trkpt><trkpt lat="44.60311615139426" lon="10.117063801303253"><ele>405.0</ele><time>2026-04-25T10:03:46.999Z</time></trkpt><trkpt lat="44.6029682239224" lon="10.117221759104645"><ele>402.33333333333337</ele><time>2026-04-25T10:03:47.999Z</time></trkpt><trkpt lat="44.60284630419938" lon="10.117428889929355"><ele>399.6666666666667</ele><time>2026-04-25T10:03:48.999Z</time></trkpt><trkpt lat="44.602742567244896" lon="10.117686341334613"><ele>397.0</ele><time>2026-04-25T10:03:49.999Z</time></trkpt><trkpt lat="44.60264003628654" lon="10.117944764208087"><ele>396.33333333333337</ele><time>2026-04-25T10:03:50.999Z</time></trkpt><trkpt lat="44.60252554451263" lon="10.118204533980485"><ele>395.66666666666663</ele><time>2026-04-25T10:03:51.999Z</time></trkpt><trkpt lat="44.60240440833447" lon="10.11846377812634"><ele>395.0</ele><time>2026-04-25T10:03:52.999Z</time></trkpt><trkpt lat="44.60228921188346" lon="10.118719686426974"><ele>395.0</ele><time>2026-04-25T10:03:53.999Z</time></trkpt><trkpt lat="44.602172790449025" lon="10.1189842294619"><ele>395.0</ele><time>2026-04-25T10:03:54.999Z</time></trkpt><trkpt lat="44.60206372136074" lon="10.119219137183173"><ele>395.0</ele><time>2026-04-25T10:03:56Z</time></trkpt><trkpt lat="44.601976339539384" lon="10.119417697482026"><ele>395.0</ele><time>2026-04-25T10:03:57Z</time></trkpt><trkpt lat="44.60189910523645" lon="10.119578532277698"><ele>395.0</ele><time>2026-04-25T10:03:58Z</time></trkpt><trkpt lat="44.601826742781505" lon="10.119729614250314"><ele>395.0</ele><time>2026-04-25T10:03:59Z</time></trkpt><trkpt lat="44.601762308016326" lon="10.119872086245225"><ele>395.0</ele><time>2026-04-25T10:04:00Z</time></trkpt><trkpt lat="44.60171103868189" lon="10.120011905374065"><ele>395.4</ele><time>2026-04-25T10:04:01Z</time></trkpt><trkpt lat="44.60165603255042" lon="10.1201371462218"><ele>395.8</ele><time>2026-04-25T10:04:02Z</time></trkpt><trkpt lat="44.601597721245874" lon="10.120256460036488"><ele>396.20000000000005</ele><time>2026-04-25T10:04:03Z</time></trkpt><trkpt lat="44.60153661853276" lon="10.120387879390732"><ele>396.6</ele><time>2026-04-25T10:04:04Z</time></trkpt><trkpt lat="44.601477396945704" lon="10.120523043187424"><ele>397.0</ele><time>2026-04-25T10:04:05Z</time></trkpt><trkpt lat="44.60140573636548" lon="10.120659889098755"><ele>396.83333333333337</ele><time>2026-04-25T10:04:06Z</time></trkpt><trkpt lat="44.601351279163566" lon="10.120771131445286"><ele>396.6666666666667</ele><time>2026-04-25T10:04:07Z</time></trkpt><trkpt lat="44.60128891674762" lon="10.120874935855873"><ele>396.5</ele><time>2026-04-25T10:04:08Z</time></trkpt><trkpt lat="44.60122742935237" lon="10.120961131186789"><ele>396.33333333333337</ele><time>2026-04-25T10:04:09Z</time></trkpt><trkpt lat="44.60118054511789" lon="10.121027176260325"><ele>396.1666666666667</ele><time>2026-04-25T10:04:10Z</time></trkpt><trkpt lat="44.601123045954914" lon="10.121112279782096"><ele>396.0</ele><time>2026-04-25T10:04:11Z</time></trkpt><trkpt lat="44.601071721264084" lon="10.121181085389107"><ele>396.8</ele><time>2026-04-25T10:04:12Z</time></trkpt><trkpt lat="44.60101862198487" lon="10.121245709610292"><ele>397.6</ele><time>2026-04-25T10:04:13Z</time></trkpt><trkpt lat="44.600940205279855" lon="10.121376397680878"><ele>398.4</ele><time>2026-04-25T10:04:15Z</time></trkpt><trkpt lat="44.60094235239782" lon="10.121485870060209"><ele>399.2</ele><time>2026-04-25T10:04:16Z</time></trkpt><trkpt lat="44.60099054268384" lon="10.12160420095918"><ele>400.0</ele><time>2026-04-25T10:04:17Z</time></trkpt><trkpt lat="44.601027075910096" lon="10.121733547812124"><ele>400.4</ele><time>2026-04-25T10:04:18Z</time></trkpt><trkpt lat="44.601072565832496" lon="10.121859895095694"><ele>400.8</ele><time>2026-04-25T10:04:19Z</time></trkpt><trkpt lat="44.60113818228815" lon="10.121962922799634"><ele>401.20000000000005</ele><time>2026-04-25T10:04:20Z</time></trkpt><trkpt lat="44.60122575660084" lon="10.122056599399361"><ele>401.6</ele><time>2026-04-25T10:04:21Z</time></trkpt><trkpt lat="44.60131043510173" lon="10.122164330025914"><ele>402.0</ele><time>2026-04-25T10:04:22Z</time></trkpt><trkpt lat="44.60139557172458" lon="10.12226373868015"><ele>401.0</ele><time>2026-04-25T10:04:23Z</time></trkpt><trkpt lat="44.60147734920609" lon="10.122339409818137"><ele>400.0</ele><time>2026-04-25T10:04:24Z</time></trkpt><trkpt lat="44.6015601479262" lon="10.122412975419543"><ele>399.0</ele><time>2026-04-25T10:04:25Z</time></trkpt><trkpt lat="44.60163173948852" lon="10.122484644268413"><ele>398.0</ele><time>2026-04-25T10:04:26Z</time></trkpt><trkpt lat="44.60170201904017" lon="10.12255213877731"><ele>397.0</ele><time>2026-04-25T10:04:27Z</time></trkpt><trkpt lat="44.60177260168977" lon="10.122617769296255"><ele>397.0</ele><time>2026-04-25T10:04:28Z</time></trkpt><trkpt lat="44.601854934930834" lon="10.122693400559623"><ele>397.0</ele><time>2026-04-25T10:04:29Z</time></trkpt><trkpt lat="44.60194740848403" lon="10.122774159021532"><ele>397.0</ele><time>2026-04-25T10:04:30Z</time></trkpt><trkpt lat="44.60202149363174" lon="10.122843998271154"><ele>397.0</ele><time>2026-04-25T10:04:31Z</time></trkpt><trkpt lat="44.602091928260556" lon="10.12290843279599"><ele>397.0</ele><time>2026-04-25T10:04:32Z</time></trkpt><trkpt lat="44.60217022783863" lon="10.12298081729009"><ele>397.00000000000006</ele><time>2026-04-25T10:04:33Z</time></trkpt><trkpt lat="44.60224847090994" lon="10.123049816622814"><ele>397.0</ele><time>2026-04-25T10:04:34Z</time></trkpt><trkpt lat="44.60231652044779" lon="10.123114822444878"><ele>397.0</ele><time>2026-04-25T10:04:35Z</time></trkpt><trkpt lat="44.60238169576245" lon="10.123176143267933"><ele>397.0</ele><time>2026-04-25T10:04:36Z</time></trkpt><trkpt lat="44.60244847609039" lon="10.123215671456022"><ele>397.00000000000006</ele><time>2026-04-25T10:04:37Z</time></trkpt><trkpt lat="44.602498912338206" lon="10.123272905351584"><ele>397.0</ele><time>2026-04-25T10:04:38Z</time></trkpt><trkpt lat="44.60255446002399" lon="10.123334070226337"><ele>397.0</ele><time>2026-04-25T10:04:39Z</time></trkpt><trkpt lat="44.60261634037835" lon="10.12338220526312"><ele>397.0</ele><time>2026-04-25T10:04:40Z</time></trkpt><trkpt lat="44.602670957978546" lon="10.123430449286353"><ele>397.0</ele><time>2026-04-25T10:04:41Z</time></trkpt><trkpt lat="44.602789411575614" lon="10.12351385474727"><ele>397.0</ele><time>2026-04-25T10:04:43Z</time></trkpt><trkpt lat="44.60288119211708" lon="10.123607056115901"><ele>397.0</ele><time>2026-04-25T10:04:45Z</time></trkpt><trkpt lat="44.60293571410368" lon="10.123672513553144"><ele>396.6666666666667</ele><time>2026-04-25T10:04:46Z</time></trkpt><trkpt lat="44.6029973228109" lon="10.123720205913283"><ele>396.33333333333337</ele><time>2026-04-25T10:04:47Z</time></trkpt><trkpt lat="44.603053707216844" lon="10.123772337991305"><ele>396.0</ele><time>2026-04-25T10:04:48Z</time></trkpt><trkpt lat="44.6031541910492" lon="10.12385916435735"><ele>395.66666666666663</ele><time>2026-04-25T10:04:50Z</time></trkpt><trkpt lat="44.60322755711131" lon="10.123908380593832"><ele>395.3333333333333</ele><time>2026-04-25T10:04:51Z</time></trkpt><trkpt lat="44.60330145186939" lon="10.123968113191262"><ele>395.0</ele><time>2026-04-25T10:04:52Z</time></trkpt><trkpt lat="44.603375716452916" lon="10.124036042536565"><ele>394.6</ele><time>2026-04-25T10:04:53Z</time></trkpt><trkpt lat="44.60345267558625" lon="10.124121192922749"><ele>394.2</ele><time>2026-04-25T10:04:54Z</time></trkpt><trkpt lat="44.60352593397065" lon="10.12419475987812"><ele>393.79999999999995</ele><time>2026-04-25T10:04:55Z</time></trkpt><trkpt lat="44.603607057293125" lon="10.124273912751077"><ele>393.4</ele><time>2026-04-25T10:04:56Z</time></trkpt><trkpt lat="44.603700271072135" lon="10.124352587801456"><ele>393.0</ele><time>2026-04-25T10:04:57Z</time></trkpt><trkpt lat="44.60379171679513" lon="10.124423187428267"><ele>393.0</ele><time>2026-04-25T10:04:58Z</time></trkpt><trkpt lat="44.60388100274328" lon="10.124506521109664"><ele>393.0</ele><time>2026-04-25T10:04:59Z</time></trkpt><trkpt lat="44.603975947392726" lon="10.124587389139132"><ele>393.0</ele><time>2026-04-25T10:05:00Z</time></trkpt><trkpt lat="44.604067026340466" lon="10.12467162281547"><ele>393.0</ele><time>2026-04-25T10:05:01Z</time></trkpt><trkpt lat="44.60415892053948" lon="10.124752869317161"><ele>393.0</ele><time>2026-04-25T10:05:02Z</time></trkpt><trkpt lat="44.604252440472784" lon="10.12483358556685"><ele>394.0</ele><time>2026-04-25T10:05:03Z</time></trkpt><trkpt lat="44.60434783162264" lon="10.124918669083225"><ele>395.0</ele><time>2026-04-25T10:05:04Z</time></trkpt><trkpt lat="44.60444066214206" lon="10.12499778832372"><ele>396.0</ele><time>2026-04-25T10:05:05Z</time></trkpt><trkpt lat="44.60453888478827" lon="10.12508552918778"><ele>397.0</ele><time>2026-04-25T10:05:05.999Z</time></trkpt><trkpt lat="44.60464445880414" lon="10.125175912320307"><ele>394.75</ele><time>2026-04-25T10:05:06.999Z</time></trkpt><trkpt lat="44.60474799921005" lon="10.125261493618963"><ele>392.5</ele><time>2026-04-25T10:05:07.999Z</time></trkpt><trkpt lat="44.60485248288269" lon="10.125348550356787"><ele>390.25</ele><time>2026-04-25T10:05:08.999Z</time></trkpt><trkpt lat="44.60495503603232" lon="10.125443813892433"><ele>388.0</ele><time>2026-04-25T10:05:09.999Z</time></trkpt><trkpt lat="44.6050558329337" lon="10.125538181740566"><ele>388.0</ele><time>2026-04-25T10:05:10.999Z</time></trkpt><trkpt lat="44.605162584616885" lon="10.125633467300485"><ele>388.0</ele><time>2026-04-25T10:05:11.999Z</time></trkpt><trkpt lat="44.60526945626514" lon="10.12572663163378"><ele>388.0</ele><time>2026-04-25T10:05:12.999Z</time></trkpt><trkpt lat="44.605376712844794" lon="10.12582048329796"><ele>388.0</ele><time>2026-04-25T10:05:13.999Z</time></trkpt><trkpt lat="44.605483508070144" lon="10.12591043668658"><ele>387.5</ele><time>2026-04-25T10:05:14.999Z</time></trkpt><trkpt lat="44.60558664313655" lon="10.126010400126825"><ele>387.0</ele><time>2026-04-25T10:05:15.999Z</time></trkpt><trkpt lat="44.60569189784674" lon="10.126096429718071"><ele>386.5</ele><time>2026-04-25T10:05:16.999Z</time></trkpt><trkpt lat="44.605788411884596" lon="10.1261913786709"><ele>386.0</ele><time>2026-04-25T10:05:17.999Z</time></trkpt><trkpt lat="44.60589088556436" lon="10.12627835197536"><ele>386.0</ele><time>2026-04-25T10:05:18.999Z</time></trkpt><trkpt lat="44.60599808983914" lon="10.12636714517856"><ele>386.0</ele><time>2026-04-25T10:05:19.999Z</time></trkpt><trkpt lat="44.606108350646025" lon="10.126470026429308"><ele>386.0</ele><time>2026-04-25T10:05:20.999Z</time></trkpt><trkpt lat="44.60620936240717" lon="10.126584536614402"><ele>386.0</ele><time>2026-04-25T10:05:21.999Z</time></trkpt><trkpt lat="44.60631110246669" lon="10.12670005505733"><ele>386.25</ele><time>2026-04-25T10:05:22.999Z</time></trkpt><trkpt lat="44.60641050249109" lon="10.126842091020892"><ele>386.5</ele><time>2026-04-25T10:05:23.999Z</time></trkpt><trkpt lat="44.60647336532337" lon="10.12702360893888"><ele>386.75</ele><time>2026-04-25T10:05:24.999Z</time></trkpt><trkpt lat="44.606532581768704" lon="10.12720855059234"><ele>387.0</ele><time>2026-04-25T10:05:25.999Z</time></trkpt><trkpt lat="44.606592376269525" lon="10.127403182488226"><ele>388.66666666666663</ele><time>2026-04-25T10:05:26.999Z</time></trkpt><trkpt lat="44.60666343788696" lon="10.127606045749996"><ele>390.3333333333333</ele><time>2026-04-25T10:05:27.999Z</time></trkpt><trkpt lat="44.60672189751652" lon="10.127809571996806"><ele>392.0</ele><time>2026-04-25T10:05:28.999Z</time></trkpt><trkpt lat="44.60680418890503" lon="10.127998432867221"><ele>392.0</ele><time>2026-04-25T10:05:29.999Z</time></trkpt><trkpt lat="44.60692049158164" lon="10.12815451108157"><ele>392.0</ele><time>2026-04-25T10:05:30.999Z</time></trkpt><trkpt lat="44.60708480676269" lon="10.12827718835302"><ele>392.0</ele><time>2026-04-25T10:05:31.999Z</time></trkpt><trkpt lat="44.60728825200511" lon="10.128346001822566"><ele>390.3333333333333</ele><time>2026-04-25T10:05:32.999Z</time></trkpt><trkpt lat="44.6074569537169" lon="10.128457320861665"><ele>388.66666666666663</ele><time>2026-04-25T10:05:33.999Z</time></trkpt><trkpt lat="44.607601187008825" lon="10.128607540114814"><ele>387.0</ele><time>2026-04-25T10:05:34.999Z</time></trkpt><trkpt lat="44.60771063394937" lon="10.128806100959643"><ele>387.0</ele><time>2026-04-25T10:05:35.999Z</time></trkpt><trkpt lat="44.607821244272436" lon="10.129012940364317"><ele>387.0</ele><time>2026-04-25T10:05:36.999Z</time></trkpt><trkpt lat="44.60794186035018" lon="10.129166187875853"><ele>387.0</ele><time>2026-04-25T10:05:37.999Z</time></trkpt><trkpt lat="44.60808297845718" lon="10.129279016598792"><ele>388.66666666666663</ele><time>2026-04-25T10:05:38.999Z</time></trkpt><trkpt lat="44.608277491482966" lon="10.12932358835999"><ele>390.3333333333333</ele><time>2026-04-25T10:05:39.999Z</time></trkpt><trkpt lat="44.60850032058402" lon="10.129327107851767"><ele>392.0</ele><time>2026-04-25T10:05:40.999Z</time></trkpt><trkpt lat="44.60871401848028" lon="10.12934408430932"><ele>392.66666666666663</ele><time>2026-04-25T10:05:41.999Z</time></trkpt><trkpt lat="44.60891729702249" lon="10.129314502110741"><ele>393.33333333333337</ele><time>2026-04-25T10:05:42.999Z</time></trkpt><trkpt lat="44.609106206535316" lon="10.129224606319362"><ele>394.0</ele><time>2026-04-25T10:05:43.999Z</time></trkpt><trkpt lat="44.60927056341129" lon="10.129200503513058"><ele>394.0</ele><time>2026-04-25T10:05:44.999Z</time></trkpt><trkpt lat="44.609420003499956" lon="10.129252670130933"><ele>394.0</ele><time>2026-04-25T10:05:45.999Z</time></trkpt><trkpt lat="44.60954811775302" lon="10.129384793369976"><ele>394.0</ele><time>2026-04-25T10:05:46.999Z</time></trkpt><trkpt lat="44.609678079749585" lon="10.129586385390906"><ele>396.6666666666667</ele><time>2026-04-25T10:05:47.999Z</time></trkpt><trkpt lat="44.60982267908104" lon="10.12981307709824"><ele>399.33333333333337</ele><time>2026-04-25T10:05:48.999Z</time></trkpt><trkpt lat="44.60996736179541" lon="10.130040399962988"><ele>402.0</ele><time>2026-04-25T10:05:49.999Z</time></trkpt><trkpt lat="44.6101160912951" lon="10.130274398493905"><ele>402.0</ele><time>2026-04-25T10:05:50.999Z</time></trkpt><trkpt lat="44.61026655956263" lon="10.130516833888166"><ele>402.0</ele><time>2026-04-25T10:05:51.999Z</time></trkpt><trkpt lat="44.61040670375515" lon="10.13074750063947"><ele>402.0</ele><time>2026-04-25T10:05:52.999Z</time></trkpt><trkpt lat="44.61053861289074" lon="10.130972242696474"><ele>400.0</ele><time>2026-04-25T10:05:53.999Z</time></trkpt><trkpt lat="44.61064665366683" lon="10.131197964909266"><ele>398.0</ele><time>2026-04-25T10:05:54.999Z</time></trkpt><trkpt lat="44.6107248170179" lon="10.131422500572043"><ele>396.0</ele><time>2026-04-25T10:05:55.999Z</time></trkpt><trkpt lat="44.610743596924664" lon="10.131665349489133"><ele>396.0</ele><time>2026-04-25T10:05:56.999Z</time></trkpt><trkpt lat="44.610718463592995" lon="10.131914308003893"><ele>396.0</ele><time>2026-04-25T10:05:57.999Z</time></trkpt><trkpt lat="44.61074369402857" lon="10.13216047967199"><ele>396.0</ele><time>2026-04-25T10:05:58.999Z</time></trkpt><trkpt lat="44.61079744396214" lon="10.132393331360321"><ele>396.0</ele><time>2026-04-25T10:05:59.999Z</time></trkpt><trkpt lat="44.61090041142888" lon="10.132623258442955"><ele>396.0</ele><time>2026-04-25T10:06:00.999Z</time></trkpt><trkpt lat="44.61101833519691" lon="10.132845735942306"><ele>396.0</ele><time>2026-04-25T10:06:02Z</time></trkpt><trkpt lat="44.61113170387599" lon="10.13307174260455"><ele>391.6666666666667</ele><time>2026-04-25T10:06:03Z</time></trkpt><trkpt lat="44.611241945785764" lon="10.133307877302899"><ele>387.33333333333337</ele><time>2026-04-25T10:06:04Z</time></trkpt><trkpt lat="44.61136119581071" lon="10.133552447220803"><ele>383.0</ele><time>2026-04-25T10:06:05Z</time></trkpt><trkpt lat="44.611485679849174" lon="10.133777315582012"><ele>383.0</ele><time>2026-04-25T10:06:06Z</time></trkpt><trkpt lat="44.61160609704701" lon="10.13398748223798"><ele>383.0</ele><time>2026-04-25T10:06:07Z</time></trkpt><trkpt lat="44.611714803240794" lon="10.134181557171809"><ele>383.0</ele><time>2026-04-25T10:06:08Z</time></trkpt><trkpt lat="44.61183126753751" lon="10.134329643436844"><ele>381.0</ele><time>2026-04-25T10:06:09Z</time></trkpt><trkpt lat="44.61199222139313" lon="10.13446141564266"><ele>379.0</ele><time>2026-04-25T10:06:10Z</time></trkpt><trkpt lat="44.61218819581457" lon="10.134591398725465"><ele>377.0</ele><time>2026-04-25T10:06:11Z</time></trkpt><trkpt lat="44.612390422547136" lon="10.134734457096133"><ele>386.5</ele><time>2026-04-25T10:06:12Z</time></trkpt><trkpt lat="44.612589137872284" lon="10.13489827771001"><ele>396.0</ele><time>2026-04-25T10:06:13Z</time></trkpt><trkpt lat="44.61279714306687" lon="10.13502234397286"><ele>388.6666666666667</ele><time>2026-04-25T10:06:14Z</time></trkpt><trkpt lat="44.6129596093345" lon="10.135186201948118"><ele>381.33333333333337</ele><time>2026-04-25T10:06:15Z</time></trkpt><trkpt lat="44.613094550652534" lon="10.13535575580343"><ele>374.0</ele><time>2026-04-25T10:06:16Z</time></trkpt><trkpt lat="44.613196087603484" lon="10.135580613040664"><ele>380.33333333333337</ele><time>2026-04-25T10:06:17Z</time></trkpt><trkpt lat="44.61329968768949" lon="10.135849617871258"><ele>386.6666666666667</ele><time>2026-04-25T10:06:18Z</time></trkpt><trkpt lat="44.61342911611551" lon="10.136117313742439"><ele>393.0</ele><time>2026-04-25T10:06:19Z</time></trkpt><trkpt lat="44.61358109409909" lon="10.136364063372387"><ele>382.5</ele><time>2026-04-25T10:06:20Z</time></trkpt><trkpt lat="44.61371256023956" lon="10.136619543235005"><ele>372.0</ele><time>2026-04-25T10:06:21Z</time></trkpt><trkpt lat="44.61385521289692" lon="10.136872531591495"><ele>372.0</ele><time>2026-04-25T10:06:22Z</time></trkpt><trkpt lat="44.61399699303437" lon="10.137124990299526"><ele>372.0</ele><time>2026-04-25T10:06:23Z</time></trkpt><trkpt lat="44.614148662497925" lon="10.137370962354778"><ele>382.0</ele><time>2026-04-25T10:06:24Z</time></trkpt><trkpt lat="44.614240054574644" lon="10.13766203003605"><ele>392.0</ele><time>2026-04-25T10:06:25Z</time></trkpt><trkpt lat="44.614349488679466" lon="10.137966049619447"><ele>381.0</ele><time>2026-04-25T10:06:26Z</time></trkpt><trkpt lat="44.61446649993529" lon="10.138277184707928"><ele>370.0</ele><time>2026-04-25T10:06:27Z</time></trkpt><trkpt lat="44.61460929894921" lon="10.13856574167884"><ele>370.0</ele><time>2026-04-25T10:06:28Z</time></trkpt><trkpt lat="44.61473342035647" lon="10.138877588809187"><ele>370.0</ele><time>2026-04-25T10:06:29Z</time></trkpt><trkpt lat="44.61486904782457" lon="10.13916429778702"><ele>377.5</ele><time>2026-04-25T10:06:30Z</time></trkpt><trkpt lat="44.614997442651855" lon="10.139435717238364"><ele>385.0</ele><time>2026-04-25T10:06:31Z</time></trkpt><trkpt lat="44.615123774520534" lon="10.139716134916146"><ele>393.5</ele><time>2026-04-25T10:06:32Z</time></trkpt><trkpt lat="44.61522454648084" lon="10.14001413951085"><ele>402.0</ele><time>2026-04-25T10:06:33Z</time></trkpt><trkpt lat="44.61532539497992" lon="10.14032864082977"><ele>387.0</ele><time>2026-04-25T10:06:34Z</time></trkpt><trkpt lat="44.61542598040075" lon="10.140642170868215"><ele>372.0</ele><time>2026-04-25T10:06:35Z</time></trkpt><trkpt lat="44.61552446799123" lon="10.14094912552634"><ele>372.0</ele><time>2026-04-25T10:06:36Z</time></trkpt><trkpt lat="44.615609106670604" lon="10.141221078057097"><ele>372.0</ele><time>2026-04-25T10:06:37Z</time></trkpt><trkpt lat="44.61567345053249" lon="10.141460523141708"><ele>372.0</ele><time>2026-04-25T10:06:38Z</time></trkpt><trkpt lat="44.61569049379675" lon="10.141705614815269"><ele>375.0</ele><time>2026-04-25T10:06:39Z</time></trkpt><trkpt lat="44.61568071886237" lon="10.141974464501292"><ele>378.0</ele><time>2026-04-25T10:06:40Z</time></trkpt><trkpt lat="44.615668752065396" lon="10.142240780164075"><ele>381.0</ele><time>2026-04-25T10:06:41Z</time></trkpt><trkpt lat="44.615660757828785" lon="10.14249940900812"><ele>381.0</ele><time>2026-04-25T10:06:42Z</time></trkpt><trkpt lat="44.61568725029986" lon="10.142751690795452"><ele>381.0</ele><time>2026-04-25T10:06:43Z</time></trkpt><trkpt lat="44.61573437932902" lon="10.143008078388569"><ele>381.0</ele><time>2026-04-25T10:06:44Z</time></trkpt><trkpt lat="44.61586859454707" lon="10.14324364888436"><ele>383.0</ele><time>2026-04-25T10:06:45Z</time></trkpt><trkpt lat="44.61604370543805" lon="10.143463210013413"><ele>385.0</ele><time>2026-04-25T10:06:46Z</time></trkpt><trkpt lat="44.61615673687555" lon="10.143706153428727"><ele>387.0</ele><time>2026-04-25T10:06:47Z</time></trkpt><trkpt lat="44.616220094073405" lon="10.14391936876163"><ele>379.0</ele><time>2026-04-25T10:06:48Z</time></trkpt><trkpt lat="44.61622405294238" lon="10.144143686080316"><ele>371.0</ele><time>2026-04-25T10:06:49Z</time></trkpt><trkpt lat="44.61620417280467" lon="10.144442772475104"><ele>363.0</ele><time>2026-04-25T10:06:50Z</time></trkpt><trkpt lat="44.616176256112865" lon="10.144780733632057"><ele>363.0</ele><time>2026-04-25T10:06:51Z</time></trkpt><trkpt lat="44.616159484010346" lon="10.145106846006275"><ele>363.0</ele><time>2026-04-25T10:06:52Z</time></trkpt><trkpt lat="44.61610896913417" lon="10.145429022053499"><ele>381.5</ele><time>2026-04-25T10:06:53Z</time></trkpt><trkpt lat="44.616066937769986" lon="10.14574932394285"><ele>400.0</ele><time>2026-04-25T10:06:54Z</time></trkpt><trkpt lat="44.616029829372955" lon="10.146080282330018"><ele>400.0</ele><time>2026-04-25T10:06:55Z</time></trkpt><trkpt lat="44.61601673298672" lon="10.146444193031316"><ele>400.0</ele><time>2026-04-25T10:06:56Z</time></trkpt><trkpt lat="44.616006861937805" lon="10.146795984154346"><ele>398.0</ele><time>2026-04-25T10:06:57Z</time></trkpt><trkpt lat="44.61600323417809" lon="10.147112530646355"><ele>396.0</ele><time>2026-04-25T10:06:58Z</time></trkpt><trkpt lat="44.616012745216885" lon="10.147394239854464"><ele>394.0</ele><time>2026-04-25T10:06:59Z</time></trkpt><trkpt lat="44.616049434958725" lon="10.147651004540096"><ele>393.0</ele><time>2026-04-25T10:07:00Z</time></trkpt><trkpt lat="44.616035943074785" lon="10.147898753000046"><ele>392.0</ele><time>2026-04-25T10:07:01Z</time></trkpt><trkpt lat="44.61598600711602" lon="10.148139046045229"><ele>391.0</ele><time>2026-04-25T10:07:02Z</time></trkpt><trkpt lat="44.61589968640703" lon="10.148394646157335"><ele>388.6666666666667</ele><time>2026-04-25T10:07:03Z</time></trkpt><trkpt lat="44.615770792212935" lon="10.148642519598827"><ele>386.33333333333337</ele><time>2026-04-25T10:07:04Z</time></trkpt><trkpt lat="44.61564672410954" lon="10.148906451813996"><ele>384.0</ele><time>2026-04-25T10:07:05Z</time></trkpt><trkpt lat="44.61554436306101" lon="10.14915960660868"><ele>378.0</ele><time>2026-04-25T10:07:06Z</time></trkpt><trkpt lat="44.61549973888531" lon="10.149461628925469"><ele>372.0</ele><time>2026-04-25T10:07:07Z</time></trkpt><trkpt lat="44.61549237743074" lon="10.14980824793348"><ele>369.6666666666667</ele><time>2026-04-25T10:07:08Z</time></trkpt><trkpt lat="44.615482652609266" lon="10.150147746265922"><ele>367.33333333333337</ele><time>2026-04-25T10:07:09Z</time></trkpt><trkpt lat="44.61546626410172" lon="10.15042365357618"><ele>365.0</ele><time>2026-04-25T10:07:09.999Z</time></trkpt><trkpt lat="44.61547653438195" lon="10.150677436095902"><ele>363.6666666666667</ele><time>2026-04-25T10:07:10.999Z</time></trkpt><trkpt lat="44.61554628787003" lon="10.150941830444363"><ele>362.3333333333333</ele><time>2026-04-25T10:07:11.999Z</time></trkpt><trkpt lat="44.61564763100851" lon="10.151169175860893"><ele>361.0</ele><time>2026-04-25T10:07:12.999Z</time></trkpt><trkpt lat="44.61572185961807" lon="10.151408695406207"><ele>362.0</ele><time>2026-04-25T10:07:13.999Z</time></trkpt><trkpt lat="44.615753898058095" lon="10.151682656081377"><ele>363.0</ele><time>2026-04-25T10:07:14.999Z</time></trkpt><trkpt lat="44.61575724710278" lon="10.151984838680358"><ele>364.0</ele><time>2026-04-25T10:07:15.999Z</time></trkpt><trkpt lat="44.615715380311244" lon="10.152291897638365"><ele>363.66666666666663</ele><time>2026-04-25T10:07:16.999Z</time></trkpt><trkpt lat="44.61565257853275" lon="10.152559407028392"><ele>363.3333333333333</ele><time>2026-04-25T10:07:17.999Z</time></trkpt><trkpt lat="44.61561905180347" lon="10.152844601335834"><ele>363.0</ele><time>2026-04-25T10:07:18.999Z</time></trkpt><trkpt lat="44.61563257670924" lon="10.153168073835342"><ele>363.5</ele><time>2026-04-25T10:07:19.999Z</time></trkpt><trkpt lat="44.61566326161369" lon="10.153517328596553"><ele>364.0</ele><time>2026-04-25T10:07:20.999Z</time></trkpt><trkpt lat="44.61568366131806" lon="10.153857570977397"><ele>364.66666666666663</ele><time>2026-04-25T10:07:21.999Z</time></trkpt><trkpt lat="44.61569593824744" lon="10.154182642974881"><ele>365.3333333333333</ele><time>2026-04-25T10:07:22.999Z</time></trkpt><trkpt lat="44.61570224391767" lon="10.15447720671329"><ele>366.0</ele><time>2026-04-25T10:07:23.999Z</time></trkpt><trkpt lat="44.615715869443775" lon="10.154746866217849"><ele>363.6666666666667</ele><time>2026-04-25T10:07:24.999Z</time></trkpt><trkpt lat="44.61575508618777" lon="10.155002144990796"><ele>361.33333333333337</ele><time>2026-04-25T10:07:25.999Z</time></trkpt><trkpt lat="44.615848885581336" lon="10.155245259788105"><ele>359.0</ele><time>2026-04-25T10:07:26.999Z</time></trkpt><trkpt lat="44.61597697520942" lon="10.155488971951907"><ele>358.6666666666667</ele><time>2026-04-25T10:07:27.999Z</time></trkpt><trkpt lat="44.61612337831505" lon="10.155713604511217"><ele>358.3333333333333</ele><time>2026-04-25T10:07:28.999Z</time></trkpt><trkpt lat="44.616303527025195" lon="10.155898866485025"><ele>358.0</ele><time>2026-04-25T10:07:29.999Z</time></trkpt><trkpt lat="44.6165014809279" lon="10.15607869475745"><ele>358.0</ele><time>2026-04-25T10:07:30.999Z</time></trkpt><trkpt lat="44.616695235264075" lon="10.156238226643287"><ele>358.0</ele><time>2026-04-25T10:07:31.999Z</time></trkpt><trkpt lat="44.61689718010487" lon="10.156357109882807"><ele>358.0</ele><time>2026-04-25T10:07:32.999Z</time></trkpt><trkpt lat="44.61706454374057" lon="10.156469082641502"><ele>356.0</ele><time>2026-04-25T10:07:33.999Z</time></trkpt><trkpt lat="44.6172199177625" lon="10.156639785054594"><ele>354.0</ele><time>2026-04-25T10:07:34.999Z</time></trkpt><trkpt lat="44.617378862519374" lon="10.15685938968784"><ele>352.0</ele><time>2026-04-25T10:07:35.999Z</time></trkpt><trkpt lat="44.61754118514897" lon="10.157093152901277"><ele>352.0</ele><time>2026-04-25T10:07:36.999Z</time></trkpt><trkpt lat="44.61769288120185" lon="10.157314946056466"><ele>352.0</ele><time>2026-04-25T10:07:37.999Z</time></trkpt><trkpt lat="44.61782425690053" lon="10.157509558245687"><ele>352.0</ele><time>2026-04-25T10:07:38.999Z</time></trkpt><trkpt lat="44.61793265023734" lon="10.15768254669694"><ele>352.0</ele><time>2026-04-25T10:07:39.999Z</time></trkpt><trkpt lat="44.61801380130521" lon="10.157896434045105"><ele>352.0</ele><time>2026-04-25T10:07:40.999Z</time></trkpt><trkpt lat="44.618067294456615" lon="10.158155231862114"><ele>352.0</ele><time>2026-04-25T10:07:41.999Z</time></trkpt><trkpt lat="44.618085087290986" lon="10.158409148702676"><ele>352.0</ele><time>2026-04-25T10:07:42.999Z</time></trkpt><trkpt lat="44.61807173847032" lon="10.158655998135028"><ele>352.0</ele><time>2026-04-25T10:07:43.999Z</time></trkpt><trkpt lat="44.618017760047366" lon="10.158908869470448"><ele>352.0</ele><time>2026-04-25T10:07:44.999Z</time></trkpt><trkpt lat="44.61794985160117" lon="10.159177579433948"><ele>352.0</ele><time>2026-04-25T10:07:45.999Z</time></trkpt><trkpt lat="44.617894168441325" lon="10.159425529998979"><ele>352.0</ele><time>2026-04-25T10:07:46.999Z</time></trkpt><trkpt lat="44.61784531967419" lon="10.159667619921889"><ele>352.0</ele><time>2026-04-25T10:07:47.999Z</time></trkpt><trkpt lat="44.61783278621406" lon="10.159878417541174"><ele>352.0</ele><time>2026-04-25T10:07:48.999Z</time></trkpt><trkpt lat="44.61787331991206" lon="10.16005341682499"><ele>352.0</ele><time>2026-04-25T10:07:49.999Z</time></trkpt><trkpt lat="44.617976965330755" lon="10.160209397447476"><ele>352.0</ele><time>2026-04-25T10:07:50.999Z</time></trkpt><trkpt lat="44.61813052633264" lon="10.160329357900201"><ele>352.0</ele><time>2026-04-25T10:07:51.999Z</time></trkpt><trkpt lat="44.61831386234462" lon="10.160391105281702"><ele>352.0</ele><time>2026-04-25T10:07:52.999Z</time></trkpt><trkpt lat="44.6184760391841" lon="10.160459908935538"><ele>352.0</ele><time>2026-04-25T10:07:53.999Z</time></trkpt><trkpt lat="44.61859627905438" lon="10.160604511878233"><ele>347.66666666666663</ele><time>2026-04-25T10:07:54.999Z</time></trkpt><trkpt lat="44.61868169683805" lon="10.160826827817425"><ele>343.3333333333333</ele><time>2026-04-25T10:07:55.999Z</time></trkpt><trkpt lat="44.61873288860985" lon="10.161108462647121"><ele>339.0</ele><time>2026-04-25T10:07:56.999Z</time></trkpt><trkpt lat="44.6187721905437" lon="10.16141578771758"><ele>341.3333333333333</ele><time>2026-04-25T10:07:57.999Z</time></trkpt><trkpt lat="44.618818405779166" lon="10.161710093822782"><ele>343.66666666666663</ele><time>2026-04-25T10:07:58.999Z</time></trkpt><trkpt lat="44.618874822282635" lon="10.161966374045459"><ele>346.0</ele><time>2026-04-25T10:07:59.999Z</time></trkpt><trkpt lat="44.618944261956266" lon="10.162192718981947"><ele>347.66666666666663</ele><time>2026-04-25T10:08:00.999Z</time></trkpt><trkpt lat="44.61901250749321" lon="10.162406366126222"><ele>349.3333333333333</ele><time>2026-04-25T10:08:01.999Z</time></trkpt><trkpt lat="44.6190277370077" lon="10.16264785464977"><ele>351.0</ele><time>2026-04-25T10:08:02.999Z</time></trkpt><trkpt lat="44.618987177985446" lon="10.162912174084891"><ele>351.0</ele><time>2026-04-25T10:08:03.999Z</time></trkpt><trkpt lat="44.618910155748274" lon="10.163180938602963"><ele>351.0</ele><time>2026-04-25T10:08:04.999Z</time></trkpt><trkpt lat="44.61884977430808" lon="10.163464346457452"><ele>351.0</ele><time>2026-04-25T10:08:05.999Z</time></trkpt><trkpt lat="44.61882889911316" lon="10.163767690313374"><ele>351.3333333333333</ele><time>2026-04-25T10:08:06.999Z</time></trkpt><trkpt lat="44.61882199246902" lon="10.164067735387814"><ele>351.66666666666663</ele><time>2026-04-25T10:08:08Z</time></trkpt><trkpt lat="44.618811111237406" lon="10.164346131670777"><ele>352.0</ele><time>2026-04-25T10:08:09Z</time></trkpt><trkpt lat="44.61880978651595" lon="10.16459826142666"><ele>352.0</ele><time>2026-04-25T10:08:10Z</time></trkpt><trkpt lat="44.61883936935866" lon="10.16483386071211"><ele>352.0</ele><time>2026-04-25T10:08:11Z</time></trkpt><trkpt lat="44.618921872705755" lon="10.16505625701463"><ele>352.0</ele><time>2026-04-25T10:08:12Z</time></trkpt><trkpt lat="44.619072249336476" lon="10.165237302242126"><ele>354.0</ele><time>2026-04-25T10:08:13Z</time></trkpt><trkpt lat="44.619264348715554" lon="10.165363711807053"><ele>356.0</ele><time>2026-04-25T10:08:14Z</time></trkpt><trkpt lat="44.61945907467473" lon="10.165469663643387"><ele>358.0</ele><time>2026-04-25T10:08:15Z</time></trkpt><trkpt lat="44.61962732810012" lon="10.165594383525866"><ele>357.0</ele><time>2026-04-25T10:08:16Z</time></trkpt><trkpt lat="44.61979543998896" lon="10.165728645062499"><ele>356.0</ele><time>2026-04-25T10:08:17Z</time></trkpt><trkpt lat="44.61997165753443" lon="10.165868937132602"><ele>355.0</ele><time>2026-04-25T10:08:18Z</time></trkpt><trkpt lat="44.620152595307275" lon="10.166002972839445"><ele>354.66666666666663</ele><time>2026-04-25T10:08:19Z</time></trkpt><trkpt lat="44.62033236078009" lon="10.16614700153977"><ele>354.3333333333333</ele><time>2026-04-25T10:08:20Z</time></trkpt><trkpt lat="44.62050996522579" lon="10.166294458305982"><ele>354.0</ele><time>2026-04-25T10:08:21Z</time></trkpt><trkpt lat="44.62068437544944" lon="10.16644044039068"><ele>354.6666666666667</ele><time>2026-04-25T10:08:22Z</time></trkpt><trkpt lat="44.62086669298834" lon="10.166577465054823"><ele>355.33333333333337</ele><time>2026-04-25T10:08:23Z</time></trkpt><trkpt lat="44.6210398923918" lon="10.166712515939894"><ele>356.0</ele><time>2026-04-25T10:08:24Z</time></trkpt><trkpt lat="44.621213116780666" lon="10.166858219062942"><ele>354.33333333333337</ele><time>2026-04-25T10:08:25Z</time></trkpt><trkpt lat="44.62139182467526" lon="10.16698500907599"><ele>352.6666666666667</ele><time>2026-04-25T10:08:26Z</time></trkpt><trkpt lat="44.62158218325118" lon="10.167069656079086"><ele>351.0</ele><time>2026-04-25T10:08:27Z</time></trkpt><trkpt lat="44.621785294529644" lon="10.167100369543432"><ele>348.0</ele><time>2026-04-25T10:08:28Z</time></trkpt><trkpt lat="44.6220155551262" lon="10.167108358866122"><ele>345.0</ele><time>2026-04-25T10:08:29Z</time></trkpt><trkpt lat="44.622242136424745" lon="10.167092096392507"><ele>345.0</ele><time>2026-04-25T10:08:30Z</time></trkpt><trkpt lat="44.62245188283957" lon="10.167092055536713"><ele>345.0</ele><time>2026-04-25T10:08:31Z</time></trkpt><trkpt lat="44.6226557180667" lon="10.167141179747933"><ele>345.0</ele><time>2026-04-25T10:08:32Z</time></trkpt><trkpt lat="44.62287009871461" lon="10.167210188449832"><ele>342.3333333333333</ele><time>2026-04-25T10:08:33Z</time></trkpt><trkpt lat="44.62307972274363" lon="10.167265948734807"><ele>339.66666666666663</ele><time>2026-04-25T10:08:34Z</time></trkpt><trkpt lat="44.62327304057524" lon="10.167315808497907"><ele>337.0</ele><time>2026-04-25T10:08:35Z</time></trkpt><trkpt lat="44.6234487642336" lon="10.167344606566116"><ele>337.0</ele><time>2026-04-25T10:08:36Z</time></trkpt><trkpt lat="44.623626828785596" lon="10.167307134609857"><ele>337.0</ele><time>2026-04-25T10:08:37Z</time></trkpt><trkpt lat="44.62380999958992" lon="10.167196537463525"><ele>337.0</ele><time>2026-04-25T10:08:38Z</time></trkpt><trkpt lat="44.62397100087791" lon="10.167077487867399"><ele>337.0</ele><time>2026-04-25T10:08:39Z</time></trkpt><trkpt lat="44.62412541887803" lon="10.167010111361007"><ele>337.0</ele><time>2026-04-25T10:08:40Z</time></trkpt><trkpt lat="44.62428024094999" lon="10.16705908960108"><ele>337.0</ele><time>2026-04-25T10:08:41Z</time></trkpt><trkpt lat="44.62443588156193" lon="10.167142023425097"><ele>336.0</ele><time>2026-04-25T10:08:42Z</time></trkpt><trkpt lat="44.62460751989551" lon="10.16722814508458"><ele>335.0</ele><time>2026-04-25T10:08:43Z</time></trkpt><trkpt lat="44.62477326491895" lon="10.167316650306521"><ele>334.0</ele><time>2026-04-25T10:08:44Z</time></trkpt><trkpt lat="44.6249424190616" lon="10.167403418662039"><ele>334.66666666666663</ele><time>2026-04-25T10:08:45Z</time></trkpt><trkpt lat="44.625113570264276" lon="10.167504963936352"><ele>335.3333333333333</ele><time>2026-04-25T10:08:46Z</time></trkpt><trkpt lat="44.62528283589765" lon="10.167602979854024"><ele>336.0</ele><time>2026-04-25T10:08:47Z</time></trkpt><trkpt lat="44.62545459834316" lon="10.167701378700958"><ele>336.0</ele><time>2026-04-25T10:08:48Z</time></trkpt><trkpt lat="44.6256323718848" lon="10.167797309563927"><ele>336.0</ele><time>2026-04-25T10:08:49Z</time></trkpt><trkpt lat="44.625800948347305" lon="10.167892218644061"><ele>336.0</ele><time>2026-04-25T10:08:50Z</time></trkpt><trkpt lat="44.62597821556429" lon="10.167994638980414"><ele>335.0</ele><time>2026-04-25T10:08:51Z</time></trkpt><trkpt lat="44.626149724050876" lon="10.168092314385552"><ele>334.0</ele><time>2026-04-25T10:08:52Z</time></trkpt><trkpt lat="44.62631961970387" lon="10.16818989817414"><ele>333.0</ele><time>2026-04-25T10:08:53Z</time></trkpt><trkpt lat="44.6264943486898" lon="10.168288632266403"><ele>333.0</ele><time>2026-04-25T10:08:54Z</time></trkpt><trkpt lat="44.62666355467415" lon="10.168381892335512"><ele>333.0</ele><time>2026-04-25T10:08:55Z</time></trkpt><trkpt lat="44.62683057665524" lon="10.168477753481156"><ele>333.0</ele><time>2026-04-25T10:08:56Z</time></trkpt><trkpt lat="44.626991916417055" lon="10.16858231592018"><ele>330.6666666666667</ele><time>2026-04-25T10:08:57Z</time></trkpt><trkpt lat="44.62714095195384" lon="10.168695198259552"><ele>328.33333333333337</ele><time>2026-04-25T10:08:58Z</time></trkpt><trkpt lat="44.62727796224867" lon="10.168835130945752"><ele>326.0</ele><time>2026-04-25T10:08:59Z</time></trkpt><trkpt lat="44.62740799670353" lon="10.168980298378301"><ele>327.6666666666667</ele><time>2026-04-25T10:09:00Z</time></trkpt><trkpt lat="44.62753759021658" lon="10.169120425716136"><ele>329.3333333333333</ele><time>2026-04-25T10:09:01Z</time></trkpt><trkpt lat="44.627659132792424" lon="10.169254393781248"><ele>331.0</ele><time>2026-04-25T10:09:02Z</time></trkpt><trkpt lat="44.62777328071334" lon="10.169395374908948"><ele>329.5</ele><time>2026-04-25T10:09:03Z</time></trkpt><trkpt lat="44.62789109228957" lon="10.169547663951418"><ele>328.0</ele><time>2026-04-25T10:09:04Z</time></trkpt><trkpt lat="44.62799678289163" lon="10.16969528558953"><ele>326.5</ele><time>2026-04-25T10:09:05Z</time></trkpt><trkpt lat="44.628072386946464" lon="10.169856243928406"><ele>325.0</ele><time>2026-04-25T10:09:06Z</time></trkpt><trkpt lat="44.628160172147695" lon="10.170019575335381"><ele>325.0</ele><time>2026-04-25T10:09:07Z</time></trkpt><trkpt lat="44.62825634764471" lon="10.170181257951198"><ele>325.0</ele><time>2026-04-25T10:09:08Z</time></trkpt><trkpt lat="44.62834189082236" lon="10.17035692226141"><ele>325.0</ele><time>2026-04-25T10:09:09Z</time></trkpt><trkpt lat="44.628433408133894" lon="10.170531330875438"><ele>324.0</ele><time>2026-04-25T10:09:10Z</time></trkpt><trkpt lat="44.628530906894795" lon="10.170702445107109"><ele>323.0</ele><time>2026-04-25T10:09:11Z</time></trkpt><trkpt lat="44.62862381670086" lon="10.17087765732588"><ele>322.0</ele><time>2026-04-25T10:09:12Z</time></trkpt><trkpt lat="44.62875249674868" lon="10.171015730381432"><ele>322.0</ele><time>2026-04-25T10:09:13Z</time></trkpt><trkpt lat="44.628903134298085" lon="10.1711253523564"><ele>322.0</ele><time>2026-04-25T10:09:14Z</time></trkpt><trkpt lat="44.62907672012817" lon="10.171186940488463"><ele>322.0</ele><time>2026-04-25T10:09:15Z</time></trkpt><trkpt lat="44.629251727244764" lon="10.171212204001218"><ele>322.0</ele><time>2026-04-25T10:09:16Z</time></trkpt><trkpt lat="44.629435969558344" lon="10.171246789795521"><ele>322.0</ele><time>2026-04-25T10:09:16.999Z</time></trkpt><trkpt lat="44.62960905210921" lon="10.171283018420302"><ele>322.0</ele><time>2026-04-25T10:09:17.999Z</time></trkpt><trkpt lat="44.62976826115084" lon="10.171322678050801"><ele>320.66666666666663</ele><time>2026-04-25T10:09:18.999Z</time></trkpt><trkpt lat="44.62992004839348" lon="10.17135826729974"><ele>319.3333333333333</ele><time>2026-04-25T10:09:19.999Z</time></trkpt><trkpt lat="44.63006277033326" lon="10.171387885746118"><ele>318.0</ele><time>2026-04-25T10:09:20.999Z</time></trkpt><trkpt lat="44.63022137831765" lon="10.171421974004604"><ele>318.0</ele><time>2026-04-25T10:09:21.999Z</time></trkpt><trkpt lat="44.63037365457797" lon="10.171480173001346"><ele>318.0</ele><time>2026-04-25T10:09:22.999Z</time></trkpt><trkpt lat="44.630506270231336" lon="10.171574471353654"><ele>318.0</ele><time>2026-04-25T10:09:23.999Z</time></trkpt><trkpt lat="44.63061998715781" lon="10.17172050063624"><ele>318.0</ele><time>2026-04-25T10:09:24.999Z</time></trkpt><trkpt lat="44.630718417428156" lon="10.171889401948564"><ele>318.0</ele><time>2026-04-25T10:09:25.999Z</time></trkpt><trkpt lat="44.63081012882965" lon="10.172039922497268"><ele>318.0</ele><time>2026-04-25T10:09:26.999Z</time></trkpt><trkpt lat="44.630903133601365" lon="10.172166355880783"><ele>318.0</ele><time>2026-04-25T10:09:27.999Z</time></trkpt><trkpt lat="44.63101605905334" lon="10.172260595551297"><ele>316.0</ele><time>2026-04-25T10:09:28.999Z</time></trkpt><trkpt lat="44.63116005562727" lon="10.172306414485494"><ele>314.0</ele><time>2026-04-25T10:09:29.999Z</time></trkpt><trkpt lat="44.63133301968771" lon="10.17228370099785"><ele>312.0</ele><time>2026-04-25T10:09:30.999Z</time></trkpt><trkpt lat="44.63151441719018" lon="10.172238253050946"><ele>312.0</ele><time>2026-04-25T10:09:31.999Z</time></trkpt><trkpt lat="44.63169460660783" lon="10.172218518417676"><ele>312.0</ele><time>2026-04-25T10:09:32.999Z</time></trkpt><trkpt lat="44.6318578371527" lon="10.172206655089457"><ele>312.0</ele><time>2026-04-25T10:09:33.999Z</time></trkpt><trkpt lat="44.632018847724545" lon="10.172178582141061"><ele>312.0</ele><time>2026-04-25T10:09:34.999Z</time></trkpt><trkpt lat="44.6321890098856" lon="10.172120502535302"><ele>312.0</ele><time>2026-04-25T10:09:35.999Z</time></trkpt><trkpt lat="44.632360109779555" lon="10.172006791099843"><ele>312.0</ele><time>2026-04-25T10:09:36.999Z</time></trkpt><trkpt lat="44.632512879437215" lon="10.171849763322076"><ele>312.0</ele><time>2026-04-25T10:09:37.999Z</time></trkpt><trkpt lat="44.63266434582609" lon="10.171710310937367"><ele>312.0</ele><time>2026-04-25T10:09:38.999Z</time></trkpt><trkpt lat="44.63280849408164" lon="10.171618819537514"><ele>312.0</ele><time>2026-04-25T10:09:39.999Z</time></trkpt><trkpt lat="44.6329605633786" lon="10.17157021676376"><ele>312.3333333333333</ele><time>2026-04-25T10:09:40.999Z</time></trkpt><trkpt lat="44.63311083696186" lon="10.171571070534942"><ele>312.66666666666663</ele><time>2026-04-25T10:09:41.999Z</time></trkpt><trkpt lat="44.63325687823218" lon="10.171609996164335"><ele>313.0</ele><time>2026-04-25T10:09:42.999Z</time></trkpt><trkpt lat="44.6334039958043" lon="10.17171650926203"><ele>313.0</ele><time>2026-04-25T10:09:43.999Z</time></trkpt><trkpt lat="44.63356891431551" lon="10.171794876286716"><ele>313.0</ele><time>2026-04-25T10:09:44.999Z</time></trkpt><trkpt lat="44.633727558647706" lon="10.171890036774869"><ele>313.0</ele><time>2026-04-25T10:09:45.999Z</time></trkpt><trkpt lat="44.63389746769827" lon="10.17196165354286"><ele>310.66666666666663</ele><time>2026-04-25T10:09:46.999Z</time></trkpt><trkpt lat="44.63406390753459" lon="10.172007184690214"><ele>308.3333333333333</ele><time>2026-04-25T10:09:47.999Z</time></trkpt><trkpt lat="44.634211663967506" lon="10.172048580587257"><ele>306.0</ele><time>2026-04-25T10:09:48.999Z</time></trkpt><trkpt lat="44.63435188389762" lon="10.17209129460327"><ele>305.6</ele><time>2026-04-25T10:09:49.999Z</time></trkpt><trkpt lat="44.63447676707401" lon="10.172135932976408"><ele>305.20000000000005</ele><time>2026-04-25T10:09:50.999Z</time></trkpt><trkpt lat="44.634575197996554" lon="10.172173888167494"><ele>304.79999999999995</ele><time>2026-04-25T10:09:51.999Z</time></trkpt><trkpt lat="44.6346473945144" lon="10.17220334121704"><ele>304.4</ele><time>2026-04-25T10:09:52.999Z</time></trkpt><trkpt lat="44.63471528069483" lon="10.172269415108227"><ele>304.0</ele><time>2026-04-25T10:09:54.999Z</time></trkpt><trkpt lat="44.63478807451907" lon="10.17196877786311"><ele>304.0</ele><time>2026-04-25T10:09:56.999Z</time></trkpt><trkpt lat="44.634797817004824" lon="10.171843676027246"><ele>304.0</ele><time>2026-04-25T10:09:57.999Z</time></trkpt><trkpt lat="44.63480863416776" lon="10.171707338328217"><ele>304.0</ele><time>2026-04-25T10:09:58.999Z</time></trkpt><trkpt lat="44.634822051654425" lon="10.171563648960063"><ele>304.0</ele><time>2026-04-25T10:09:59.999Z</time></trkpt><trkpt lat="44.634836919736806" lon="10.171407392252632"><ele>304.0</ele><time>2026-04-25T10:10:00.999Z</time></trkpt><trkpt lat="44.63485322634563" lon="10.171247484712852"><ele>304.2</ele><time>2026-04-25T10:10:01.999Z</time></trkpt><trkpt lat="44.634867739005806" lon="10.171097491408364"><ele>304.4</ele><time>2026-04-25T10:10:02.999Z</time></trkpt><trkpt lat="44.63487909708621" lon="10.170948720654456"><ele>304.6</ele><time>2026-04-25T10:10:03.999Z</time></trkpt><trkpt lat="44.634888711093716" lon="10.170795006055984"><ele>304.8</ele><time>2026-04-25T10:10:04.999Z</time></trkpt><trkpt lat="44.63489891436206" lon="10.17064232001231"><ele>305.0</ele><time>2026-04-25T10:10:05.999Z</time></trkpt><trkpt lat="44.63491120407329" lon="10.170487632898046"><ele>305.4</ele><time>2026-04-25T10:10:06.999Z</time></trkpt><trkpt lat="44.634929675303816" lon="10.170329802059017"><ele>305.8</ele><time>2026-04-25T10:10:07.999Z</time></trkpt><trkpt lat="44.63496356606332" lon="10.170177447026541"><ele>306.2</ele><time>2026-04-25T10:10:08.999Z</time></trkpt><trkpt lat="44.63501614807409" lon="10.170051222001156"><ele>306.6</ele><time>2026-04-25T10:10:09.999Z</time></trkpt><trkpt lat="44.63509380019271" lon="10.169962958517392"><ele>307.0</ele><time>2026-04-25T10:10:10.999Z</time></trkpt><trkpt lat="44.635182437947584" lon="10.169920968045847"><ele>307.0</ele><time>2026-04-25T10:10:11.999Z</time></trkpt><trkpt lat="44.63528125189194" lon="10.169917038450178"><ele>307.0</ele><time>2026-04-25T10:10:12.999Z</time></trkpt><trkpt lat="44.635376658886486" lon="10.169937150438935"><ele>307.0</ele><time>2026-04-25T10:10:14Z</time></trkpt><trkpt lat="44.63546691110499" lon="10.169986238831518"><ele>307.0</ele><time>2026-04-25T10:10:15Z</time></trkpt><trkpt lat="44.63555493181382" lon="10.17006118932019"><ele>307.0</ele><time>2026-04-25T10:10:16Z</time></trkpt><trkpt lat="44.63563743345995" lon="10.170141403485935"><ele>307.2</ele><time>2026-04-25T10:10:17Z</time></trkpt><trkpt lat="44.63572091401693" lon="10.17021484707607"><ele>307.4</ele><time>2026-04-25T10:10:18Z</time></trkpt><trkpt lat="44.635813604217894" lon="10.170269153919097"><ele>307.6</ele><time>2026-04-25T10:10:19Z</time></trkpt><trkpt lat="44.63592842834079" lon="10.170310729419626"><ele>307.8</ele><time>2026-04-25T10:10:20Z</time></trkpt><trkpt lat="44.63604931240066" lon="10.170356333385396"><ele>308.0</ele><time>2026-04-25T10:10:21Z</time></trkpt><trkpt lat="44.636192159462304" lon="10.170410089581912"><ele>308.6666666666667</ele><time>2026-04-25T10:10:22Z</time></trkpt><trkpt lat="44.63634153282655" lon="10.170472827371855"><ele>309.3333333333333</ele><time>2026-04-25T10:10:23Z</time></trkpt><trkpt lat="44.63651132669502" lon="10.17053833707362"><ele>310.0</ele><time>2026-04-25T10:10:24Z</time></trkpt><trkpt lat="44.63669836567159" lon="10.17061057462076"><ele>310.0</ele><time>2026-04-25T10:10:25Z</time></trkpt><trkpt lat="44.636891662204704" lon="10.170678023245387"><ele>310.0</ele><time>2026-04-25T10:10:26Z</time></trkpt><trkpt lat="44.637086636351285" lon="10.170749908055129"><ele>310.0</ele><time>2026-04-25T10:10:27Z</time></trkpt><trkpt lat="44.6372886920205" lon="10.170825344570327"><ele>308.3333333333333</ele><time>2026-04-25T10:10:28Z</time></trkpt><trkpt lat="44.637499099107" lon="10.170879317275384"><ele>306.6666666666667</ele><time>2026-04-25T10:10:29Z</time></trkpt><trkpt lat="44.637714333492966" lon="10.17088966435155"><ele>305.0</ele><time>2026-04-25T10:10:30Z</time></trkpt><trkpt lat="44.63792492074699" lon="10.170914562915472"><ele>305.0</ele><time>2026-04-25T10:10:31Z</time></trkpt><trkpt lat="44.63813694498438" lon="10.170927501344428"><ele>305.0</ele><time>2026-04-25T10:10:32Z</time></trkpt><trkpt lat="44.63833492880297" lon="10.170964271940505"><ele>305.0</ele><time>2026-04-25T10:10:33Z</time></trkpt><trkpt lat="44.63852703618708" lon="10.171056121970546"><ele>307.0</ele><time>2026-04-25T10:10:34Z</time></trkpt><trkpt lat="44.638732153866634" lon="10.171153017025322"><ele>309.0</ele><time>2026-04-25T10:10:35Z</time></trkpt><trkpt lat="44.63892796056525" lon="10.171281371560678"><ele>311.0</ele><time>2026-04-25T10:10:36Z</time></trkpt><trkpt lat="44.639124277459786" lon="10.171387768659537"><ele>311.0</ele><time>2026-04-25T10:10:37Z</time></trkpt><trkpt lat="44.6393217910838" lon="10.171484001299008"><ele>311.0</ele><time>2026-04-25T10:10:38Z</time></trkpt><trkpt lat="44.63952948085686" lon="10.17161942515838"><ele>311.0</ele><time>2026-04-25T10:10:39Z</time></trkpt><trkpt lat="44.63975706306618" lon="10.171727208231228"><ele>307.5</ele><time>2026-04-25T10:10:40Z</time></trkpt><trkpt lat="44.640005180116546" lon="10.171824220190082"><ele>304.0</ele><time>2026-04-25T10:10:41Z</time></trkpt><trkpt lat="44.64024076091507" lon="10.171914939927227"><ele>307.5</ele><time>2026-04-25T10:10:42Z</time></trkpt><trkpt lat="44.64046999702196" lon="10.17199326196313"><ele>311.0</ele><time>2026-04-25T10:10:43Z</time></trkpt><trkpt lat="44.64067208288145" lon="10.17213547919456"><ele>311.0</ele><time>2026-04-25T10:10:44Z</time></trkpt><trkpt lat="44.64086607069992" lon="10.172319101098616"><ele>311.0</ele><time>2026-04-25T10:10:45Z</time></trkpt><trkpt lat="44.64106205439396" lon="10.172536167248376"><ele>305.5</ele><time>2026-04-25T10:10:46Z</time></trkpt><trkpt lat="44.641259673456425" lon="10.172748030052063"><ele>300.0</ele><time>2026-04-25T10:10:47Z</time></trkpt><trkpt lat="44.64144506384739" lon="10.17296561719793"><ele>300.0</ele><time>2026-04-25T10:10:48Z</time></trkpt><trkpt lat="44.64162997757585" lon="10.173180362572122"><ele>300.0</ele><time>2026-04-25T10:10:49Z</time></trkpt><trkpt lat="44.641812686960655" lon="10.173389178680381"><ele>299.5</ele><time>2026-04-25T10:10:50Z</time></trkpt><trkpt lat="44.64199323952814" lon="10.173594716945454"><ele>299.0</ele><time>2026-04-25T10:10:51Z</time></trkpt><trkpt lat="44.64217977119691" lon="10.17380608278182"><ele>299.0</ele><time>2026-04-25T10:10:52Z</time></trkpt><trkpt lat="44.64236060452455" lon="10.174016261421395"><ele>299.0</ele><time>2026-04-25T10:10:53Z</time></trkpt><trkpt lat="44.642524662719396" lon="10.174213180456949"><ele>297.6666666666667</ele><time>2026-04-25T10:10:54Z</time></trkpt><trkpt lat="44.64268912769352" lon="10.174398518728866"><ele>296.3333333333333</ele><time>2026-04-25T10:10:55Z</time></trkpt><trkpt lat="44.64286411435682" lon="10.174568830988079"><ele>295.0</ele><time>2026-04-25T10:10:56Z</time></trkpt><trkpt lat="44.64306596362514" lon="10.174719819707029"><ele>295.0</ele><time>2026-04-25T10:10:57Z</time></trkpt><trkpt lat="44.64328982582493" lon="10.174850151964097"><ele>295.0</ele><time>2026-04-25T10:10:58Z</time></trkpt><trkpt lat="44.64352886932477" lon="10.174985161878153"><ele>293.0</ele><time>2026-04-25T10:10:59Z</time></trkpt><trkpt lat="44.643757064432705" lon="10.17514914972229"><ele>291.0</ele><time>2026-04-25T10:11:00Z</time></trkpt><trkpt lat="44.64399357420248" lon="10.175273090572936"><ele>291.0</ele><time>2026-04-25T10:11:01Z</time></trkpt><trkpt lat="44.644215406686115" lon="10.1754203959835"><ele>291.0</ele><time>2026-04-25T10:11:02Z</time></trkpt><trkpt lat="44.64443405428346" lon="10.175565732153242"><ele>290.5</ele><time>2026-04-25T10:11:03Z</time></trkpt><trkpt lat="44.644651735746876" lon="10.175708805689752"><ele>290.0</ele><time>2026-04-25T10:11:04Z</time></trkpt><trkpt lat="44.64487707313212" lon="10.175841355769238"><ele>290.0</ele><time>2026-04-25T10:11:05Z</time></trkpt><trkpt lat="44.645102350545685" lon="10.175961131526018"><ele>290.0</ele><time>2026-04-25T10:11:06Z</time></trkpt><trkpt lat="44.64533519011931" lon="10.176061255520883"><ele>289.0</ele><time>2026-04-25T10:11:07Z</time></trkpt><trkpt lat="44.645570555277466" lon="10.176132059498782"><ele>288.0</ele><time>2026-04-25T10:11:08Z</time></trkpt><trkpt lat="44.6458138979094" lon="10.17616270723363"><ele>288.0</ele><time>2026-04-25T10:11:09Z</time></trkpt><trkpt lat="44.6460718654631" lon="10.176159950626415"><ele>288.0</ele><time>2026-04-25T10:11:10Z</time></trkpt><trkpt lat="44.6463339231157" lon="10.17614453373684"><ele>288.5</ele><time>2026-04-25T10:11:11Z</time></trkpt><trkpt lat="44.64658871608245" lon="10.1761377928285"><ele>289.0</ele><time>2026-04-25T10:11:12Z</time></trkpt><trkpt lat="44.64684673528939" lon="10.176139625498632"><ele>288.5</ele><time>2026-04-25T10:11:13Z</time></trkpt><trkpt lat="44.64710464924863" lon="10.176151504465997"><ele>288.0</ele><time>2026-04-25T10:11:14Z</time></trkpt><trkpt lat="44.64735578398908" lon="10.176223456987277"><ele>288.0</ele><time>2026-04-25T10:11:15Z</time></trkpt><trkpt lat="44.64760518324461" lon="10.176313845943099"><ele>288.0</ele><time>2026-04-25T10:11:16Z</time></trkpt><trkpt lat="44.64786037912423" lon="10.176411840831257"><ele>285.5</ele><time>2026-04-25T10:11:17Z</time></trkpt><trkpt lat="44.64812245214588" lon="10.176524568744128"><ele>283.0</ele><time>2026-04-25T10:11:18Z</time></trkpt><trkpt lat="44.648380699375004" lon="10.176626906710293"><ele>284.0</ele><time>2026-04-25T10:11:19Z</time></trkpt><trkpt lat="44.64863646069482" lon="10.176727686609482"><ele>285.0</ele><time>2026-04-25T10:11:20Z</time></trkpt><trkpt lat="44.64888922395152" lon="10.176829915385705"><ele>285.0</ele><time>2026-04-25T10:11:20.999Z</time></trkpt><trkpt lat="44.64914473051729" lon="10.17692883811169"><ele>285.0</ele><time>2026-04-25T10:11:21.999Z</time></trkpt><trkpt lat="44.649394317337936" lon="10.177023019035227"><ele>285.5</ele><time>2026-04-25T10:11:22.999Z</time></trkpt><trkpt lat="44.649631257252175" lon="10.177111899049272"><ele>286.0</ele><time>2026-04-25T10:11:23.999Z</time></trkpt><trkpt lat="44.6498580385299" lon="10.177196910894473"><ele>286.0</ele><time>2026-04-25T10:11:24.999Z</time></trkpt><trkpt lat="44.65007134626438" lon="10.177280418995469"><ele>286.0</ele><time>2026-04-25T10:11:25.999Z</time></trkpt><trkpt lat="44.65028840653978" lon="10.177374222236736"><ele>286.0</ele><time>2026-04-25T10:11:26.999Z</time></trkpt><trkpt lat="44.65049758402569" lon="10.177488561362694"><ele>285.0</ele><time>2026-04-25T10:11:27.999Z</time></trkpt><trkpt lat="44.650708696010774" lon="10.177629815105313"><ele>284.0</ele><time>2026-04-25T10:11:28.999Z</time></trkpt><trkpt lat="44.650926840303676" lon="10.177792817224349"><ele>284.0</ele><time>2026-04-25T10:11:29.999Z</time></trkpt><trkpt lat="44.6511495258728" lon="10.177955307577198"><ele>284.0</ele><time>2026-04-25T10:11:30.999Z</time></trkpt><trkpt lat="44.65137613538306" lon="10.178114322505243"><ele>280.0</ele><time>2026-04-25T10:11:31.999Z</time></trkpt><trkpt lat="44.651606554556096" lon="10.178271156310432"><ele>276.0</ele><time>2026-04-25T10:11:32.999Z</time></trkpt><trkpt lat="44.65183757644375" lon="10.178430906869883"><ele>277.5</ele><time>2026-04-25T10:11:33.999Z</time></trkpt><trkpt lat="44.65206931961533" lon="10.178581351956371"><ele>279.0</ele><time>2026-04-25T10:11:34.999Z</time></trkpt><trkpt lat="44.65229364246814" lon="10.178751598480929"><ele>279.0</ele><time>2026-04-25T10:11:35.999Z</time></trkpt><trkpt lat="44.65251831617015" lon="10.17890790072844"><ele>279.0</ele><time>2026-04-25T10:11:36.999Z</time></trkpt><trkpt lat="44.652746138946505" lon="10.179067476882683"><ele>278.5</ele><time>2026-04-25T10:11:37.999Z</time></trkpt><trkpt lat="44.65297200199813" lon="10.179223832634237"><ele>278.0</ele><time>2026-04-25T10:11:38.999Z</time></trkpt><trkpt lat="44.653196524375275" lon="10.179382182420722"><ele>278.0</ele><time>2026-04-25T10:11:39.999Z</time></trkpt><trkpt lat="44.65342675629169" lon="10.179544349165079"><ele>278.0</ele><time>2026-04-25T10:11:40.999Z</time></trkpt><trkpt lat="44.65366727348235" lon="10.17968967868082"><ele>275.0</ele><time>2026-04-25T10:11:41.999Z</time></trkpt><trkpt lat="44.65390034705171" lon="10.179860677478269"><ele>272.0</ele><time>2026-04-25T10:11:42.999Z</time></trkpt><trkpt lat="44.65413715411964" lon="10.180029611571959"><ele>272.0</ele><time>2026-04-25T10:11:43.999Z</time></trkpt><trkpt lat="44.65436609558142" lon="10.180191759376253"><ele>272.0</ele><time>2026-04-25T10:11:44.999Z</time></trkpt><trkpt lat="44.654603826025706" lon="10.180355594620345"><ele>275.0</ele><time>2026-04-25T10:11:45.999Z</time></trkpt><trkpt lat="44.654833067673074" lon="10.18051632951445"><ele>278.0</ele><time>2026-04-25T10:11:46.999Z</time></trkpt><trkpt lat="44.65506556236593" lon="10.180678859182782"><ele>275.0</ele><time>2026-04-25T10:11:47.999Z</time></trkpt><trkpt lat="44.65530215319388" lon="10.180841669823959"><ele>272.0</ele><time>2026-04-25T10:11:48.999Z</time></trkpt><trkpt lat="44.655536359698715" lon="10.181002216336449"><ele>272.0</ele><time>2026-04-25T10:11:49.999Z</time></trkpt><trkpt lat="44.655776417713945" lon="10.181164253012284"><ele>272.0</ele><time>2026-04-25T10:11:50.999Z</time></trkpt><trkpt lat="44.65600954484145" lon="10.181324131567472"><ele>270.0</ele><time>2026-04-25T10:11:51.999Z</time></trkpt><trkpt lat="44.65624667653854" lon="10.181484938819345"><ele>268.0</ele><time>2026-04-25T10:11:52.999Z</time></trkpt><trkpt lat="44.65648061738321" lon="10.18164884351243"><ele>268.0</ele><time>2026-04-25T10:11:53.999Z</time></trkpt><trkpt lat="44.65670967481455" lon="10.181810168331465"><ele>268.0</ele><time>2026-04-25T10:11:54.999Z</time></trkpt><trkpt lat="44.656942646111766" lon="10.181978179613616"><ele>271.0</ele><time>2026-04-25T10:11:55.999Z</time></trkpt><trkpt lat="44.65717231051709" lon="10.182148593979067"><ele>274.0</ele><time>2026-04-25T10:11:56.999Z</time></trkpt><trkpt lat="44.65740760432062" lon="10.182317176748812"><ele>271.0</ele><time>2026-04-25T10:11:57.999Z</time></trkpt><trkpt lat="44.65764446377644" lon="10.182483348866567"><ele>268.0</ele><time>2026-04-25T10:11:58.999Z</time></trkpt><trkpt lat="44.65787438333016" lon="10.18263730672095"><ele>268.0</ele><time>2026-04-25T10:11:59.999Z</time></trkpt><trkpt lat="44.658114378807475" lon="10.182802329981829"><ele>268.0</ele><time>2026-04-25T10:12:00.999Z</time></trkpt><trkpt lat="44.6583542348737" lon="10.182969586530985"><ele>268.0</ele><time>2026-04-25T10:12:01.999Z</time></trkpt><trkpt lat="44.65859457737785" lon="10.183136325068563"><ele>268.0</ele><time>2026-04-25T10:12:02.999Z</time></trkpt><trkpt lat="44.65883897097626" lon="10.183300883078893"><ele>266.0</ele><time>2026-04-25T10:12:03.999Z</time></trkpt><trkpt lat="44.65907782202284" lon="10.183463461165926"><ele>264.0</ele><time>2026-04-25T10:12:04.999Z</time></trkpt><trkpt lat="44.65931791675465" lon="10.183634324863053"><ele>266.0</ele><time>2026-04-25T10:12:05.999Z</time></trkpt><trkpt lat="44.659558028649585" lon="10.18380353397446"><ele>268.0</ele><time>2026-04-25T10:12:06.999Z</time></trkpt><trkpt lat="44.65979573527522" lon="10.18397319706437"><ele>264.5</ele><time>2026-04-25T10:12:07.999Z</time></trkpt><trkpt lat="44.66003661373267" lon="10.184144528046021"><ele>261.0</ele><time>2026-04-25T10:12:08.999Z</time></trkpt><trkpt lat="44.66027574269965" lon="10.184303295365755"><ele>263.0</ele><time>2026-04-25T10:12:09.999Z</time></trkpt><trkpt lat="44.660516923024204" lon="10.18446760725713"><ele>265.0</ele><time>2026-04-25T10:12:10.999Z</time></trkpt><trkpt lat="44.660755254830214" lon="10.184631110867022"><ele>265.0</ele><time>2026-04-25T10:12:11.999Z</time></trkpt><trkpt lat="44.66099740826589" lon="10.184793949853988"><ele>265.0</ele><time>2026-04-25T10:12:12.999Z</time></trkpt><trkpt lat="44.6612258157575" lon="10.184960721892958"><ele>264.0</ele><time>2026-04-25T10:12:13.999Z</time></trkpt><trkpt lat="44.661436120129736" lon="10.185174710430204"><ele>263.0</ele><time>2026-04-25T10:12:14.999Z</time></trkpt><trkpt lat="44.66165924594505" lon="10.185356550443714"><ele>263.0</ele><time>2026-04-25T10:12:15.999Z</time></trkpt><trkpt lat="44.66187840988924" lon="10.185564049756085"><ele>263.0</ele><time>2026-04-25T10:12:16.999Z</time></trkpt><trkpt lat="44.66210116753311" lon="10.185772838867193"><ele>261.5</ele><time>2026-04-25T10:12:17.999Z</time></trkpt><trkpt lat="44.66231970246911" lon="10.185978302632588"><ele>260.0</ele><time>2026-04-25T10:12:18.999Z</time></trkpt><trkpt lat="44.662529826406306" lon="10.186174316176881"><ele>260.0</ele><time>2026-04-25T10:12:20Z</time></trkpt><trkpt lat="44.66272347349902" lon="10.186360606738464"><ele>260.0</ele><time>2026-04-25T10:12:21Z</time></trkpt><trkpt lat="44.66290336258275" lon="10.186548027336062"><ele>259.0</ele><time>2026-04-25T10:12:22Z</time></trkpt><trkpt lat="44.663042392843" lon="10.18677328249755"><ele>258.0</ele><time>2026-04-25T10:12:23Z</time></trkpt><trkpt lat="44.663172972261094" lon="10.187032350219955"><ele>257.0</ele><time>2026-04-25T10:12:24Z</time></trkpt><trkpt lat="44.66329060819327" lon="10.187313276790618"><ele>255.5</ele><time>2026-04-25T10:12:25Z</time></trkpt><trkpt lat="44.663423470544934" lon="10.187603083243546"><ele>254.0</ele><time>2026-04-25T10:12:26Z</time></trkpt><trkpt lat="44.66354002304678" lon="10.187901624293909"><ele>254.0</ele><time>2026-04-25T10:12:27Z</time></trkpt><trkpt lat="44.66365801506005" lon="10.188197158173141"><ele>254.0</ele><time>2026-04-25T10:12:28Z</time></trkpt><trkpt lat="44.66377835342455" lon="10.188479563911434"><ele>254.0</ele><time>2026-04-25T10:12:29Z</time></trkpt><trkpt lat="44.663925603031174" lon="10.188734561177377"><ele>254.0</ele><time>2026-04-25T10:12:30Z</time></trkpt><trkpt lat="44.66408434931762" lon="10.188953636301557"><ele>253.0</ele><time>2026-04-25T10:12:31Z</time></trkpt><trkpt lat="44.6642360022688" lon="10.189148852354094"><ele>252.0</ele><time>2026-04-25T10:12:32Z</time></trkpt><trkpt lat="44.66436981515363" lon="10.18932750977098"><ele>251.0</ele><time>2026-04-25T10:12:33Z</time></trkpt><trkpt lat="44.664496850977386" lon="10.189501396855881"><ele>250.33333333333334</ele><time>2026-04-25T10:12:34Z</time></trkpt><trkpt lat="44.6646181608245" lon="10.189662016897627"><ele>249.66666666666669</ele><time>2026-04-25T10:12:35Z</time></trkpt><trkpt lat="44.66473634638216" lon="10.189815002003416"><ele>249.0</ele><time>2026-04-25T10:12:36Z</time></trkpt><trkpt lat="44.66484912995998" lon="10.18996600825487"><ele>248.75</ele><time>2026-04-25T10:12:37Z</time></trkpt><trkpt lat="44.66495533826541" lon="10.190106411217299"><ele>248.5</ele><time>2026-04-25T10:12:38Z</time></trkpt><trkpt lat="44.665055455018006" lon="10.190247261258076"><ele>248.25</ele><time>2026-04-25T10:12:39Z</time></trkpt><trkpt lat="44.66515276883439" lon="10.190391300465041"><ele>248.0</ele><time>2026-04-25T10:12:40Z</time></trkpt><trkpt lat="44.66525841349262" lon="10.190539437510724"><ele>248.0</ele><time>2026-04-25T10:12:41Z</time></trkpt><trkpt lat="44.66536890302403" lon="10.190688811771162"><ele>248.0</ele><time>2026-04-25T10:12:42Z</time></trkpt><trkpt lat="44.66547920819511" lon="10.190840370717249"><ele>248.0</ele><time>2026-04-25T10:12:43Z</time></trkpt><trkpt lat="44.66558700307184" lon="10.19099472190072"><ele>248.0</ele><time>2026-04-25T10:12:44Z</time></trkpt><trkpt lat="44.66569613996747" lon="10.191132102435514"><ele>248.0</ele><time>2026-04-25T10:12:45Z</time></trkpt><trkpt lat="44.66578316100169" lon="10.191268957570127"><ele>248.0</ele><time>2026-04-25T10:12:46Z</time></trkpt><trkpt lat="44.66589235367046" lon="10.191363325676141"><ele>248.0</ele><time>2026-04-25T10:12:47Z</time></trkpt><trkpt lat="44.66597271073438" lon="10.191471422927693"><ele>247.75</ele><time>2026-04-25T10:12:48Z</time></trkpt><trkpt lat="44.6660619353241" lon="10.191575256172174"><ele>247.5</ele><time>2026-04-25T10:12:49Z</time></trkpt><trkpt lat="44.66615639548423" lon="10.191681710637463"><ele>247.25</ele><time>2026-04-25T10:12:50Z</time></trkpt><trkpt lat="44.66625650795384" lon="10.191796133290012"><ele>247.0</ele><time>2026-04-25T10:12:51Z</time></trkpt><trkpt lat="44.66635420897624" lon="10.191915473468468"><ele>247.0</ele><time>2026-04-25T10:12:52Z</time></trkpt><trkpt lat="44.66645560540544" lon="10.19203364079965"><ele>247.0</ele><time>2026-04-25T10:12:53Z</time></trkpt><trkpt lat="44.666561920435356" lon="10.192145825216516"><ele>247.0</ele><time>2026-04-25T10:12:54Z</time></trkpt><trkpt lat="44.666668773927675" lon="10.192253945406785"><ele>247.0</ele><time>2026-04-25T10:12:55Z</time></trkpt><trkpt lat="44.66676984403686" lon="10.192373179491053"><ele>247.0</ele><time>2026-04-25T10:12:56Z</time></trkpt><trkpt lat="44.66686997429543" lon="10.19249179112281"><ele>247.0</ele><time>2026-04-25T10:12:57Z</time></trkpt><trkpt lat="44.66697023862575" lon="10.192611595588843"><ele>247.0</ele><time>2026-04-25T10:12:58Z</time></trkpt><trkpt lat="44.66707041505715" lon="10.192730398397483"><ele>247.0</ele><time>2026-04-25T10:12:59Z</time></trkpt><trkpt lat="44.667170677775616" lon="10.19284791476324"><ele>247.0</ele><time>2026-04-25T10:13:00Z</time></trkpt><trkpt lat="44.66727766820945" lon="10.192965430527016"><ele>247.0</ele><time>2026-04-25T10:13:01Z</time></trkpt><trkpt lat="44.667404050331776" lon="10.193097223745305"><ele>247.0</ele><time>2026-04-25T10:13:02Z</time></trkpt><trkpt lat="44.667544499127196" lon="10.19323627698412"><ele>246.0</ele><time>2026-04-25T10:13:03Z</time></trkpt><trkpt lat="44.66769348876479" lon="10.193386606421742"><ele>245.0</ele><time>2026-04-25T10:13:04Z</time></trkpt><trkpt lat="44.66785371559731" lon="10.193558265716327"><ele>244.0</ele><time>2026-04-25T10:13:05Z</time></trkpt><trkpt lat="44.668019858330815" lon="10.193734940056745"><ele>243.66666666666666</ele><time>2026-04-25T10:13:06Z</time></trkpt><trkpt lat="44.668200764830914" lon="10.193914893406282"><ele>243.33333333333331</ele><time>2026-04-25T10:13:07Z</time></trkpt><trkpt lat="44.66838448643569" lon="10.19409706606182"><ele>243.0</ele><time>2026-04-25T10:13:08Z</time></trkpt><trkpt lat="44.66857138339091" lon="10.194293837120604"><ele>243.0</ele><time>2026-04-25T10:13:09Z</time></trkpt><trkpt lat="44.66875755212336" lon="10.194494810845253"><ele>243.0</ele><time>2026-04-25T10:13:10Z</time></trkpt><trkpt lat="44.66894841921052" lon="10.194699056608831"><ele>242.5</ele><time>2026-04-25T10:13:11Z</time></trkpt><trkpt lat="44.669144900566984" lon="10.194903502984273"><ele>242.0</ele><time>2026-04-25T10:13:12Z</time></trkpt><trkpt lat="44.66934656692965" lon="10.195109800410732"><ele>242.5</ele><time>2026-04-25T10:13:13Z</time></trkpt><trkpt lat="44.66955583709554" lon="10.195326330420277"><ele>243.0</ele><time>2026-04-25T10:13:14Z</time></trkpt><trkpt lat="44.66976916434266" lon="10.195550634723508"><ele>242.0</ele><time>2026-04-25T10:13:15Z</time></trkpt><trkpt lat="44.66998079486823" lon="10.19577398851702"><ele>241.0</ele><time>2026-04-25T10:13:16Z</time></trkpt><trkpt lat="44.670192867776365" lon="10.195994888041453"><ele>240.5</ele><time>2026-04-25T10:13:17Z</time></trkpt><trkpt lat="44.67040726860152" lon="10.196213802562625"><ele>240.0</ele><time>2026-04-25T10:13:18Z</time></trkpt><trkpt lat="44.670623147728975" lon="10.196437521094724"><ele>239.0</ele><time>2026-04-25T10:13:19Z</time></trkpt><trkpt lat="44.670839865693125" lon="10.196665145048218"><ele>238.0</ele><time>2026-04-25T10:13:20Z</time></trkpt><trkpt lat="44.67104870364514" lon="10.196900982388437"><ele>238.5</ele><time>2026-04-25T10:13:21Z</time></trkpt><trkpt lat="44.6712299546995" lon="10.19718298866093"><ele>239.0</ele><time>2026-04-25T10:13:22Z</time></trkpt><trkpt lat="44.671401325254344" lon="10.197496210728984"><ele>238.0</ele><time>2026-04-25T10:13:23Z</time></trkpt><trkpt lat="44.67159239549316" lon="10.197811384893884"><ele>237.0</ele><time>2026-04-25T10:13:24Z</time></trkpt><trkpt lat="44.67176839893243" lon="10.198140536425226"><ele>234.5</ele><time>2026-04-25T10:13:25Z</time></trkpt><trkpt lat="44.67194578443218" lon="10.198469056013714"><ele>232.0</ele><time>2026-04-25T10:13:26Z</time></trkpt><trkpt lat="44.67212761710437" lon="10.1988031990798"><ele>231.0</ele><time>2026-04-25T10:13:27Z</time></trkpt><trkpt lat="44.67230546469459" lon="10.199132763949649"><ele>230.0</ele><time>2026-04-25T10:13:28Z</time></trkpt><trkpt lat="44.67248402265041" lon="10.199465517116154"><ele>230.0</ele><time>2026-04-25T10:13:28.999Z</time></trkpt><trkpt lat="44.672661570891975" lon="10.19979348277773"><ele>230.0</ele><time>2026-04-25T10:13:29.999Z</time></trkpt><trkpt lat="44.67283138297967" lon="10.200114635834918"><ele>230.5</ele><time>2026-04-25T10:13:30.999Z</time></trkpt><trkpt lat="44.67299782910159" lon="10.200429539811553"><ele>231.0</ele><time>2026-04-25T10:13:31.999Z</time></trkpt><trkpt lat="44.67315953198292" lon="10.20072517060874"><ele>231.0</ele><time>2026-04-25T10:13:32.999Z</time></trkpt><trkpt lat="44.673329323089625" lon="10.200990002760806"><ele>231.0</ele><time>2026-04-25T10:13:33.999Z</time></trkpt><trkpt lat="44.67353559073541" lon="10.201221588372112"><ele>230.0</ele><time>2026-04-25T10:13:34.999Z</time></trkpt><trkpt lat="44.673779065934845" lon="10.201418242077228"><ele>229.0</ele><time>2026-04-25T10:13:35.999Z</time></trkpt><trkpt lat="44.67404993841155" lon="10.201602662957256"><ele>228.5</ele><time>2026-04-25T10:13:36.999Z</time></trkpt><trkpt lat="44.67431623363447" lon="10.201798679021474"><ele>228.0</ele><time>2026-04-25T10:13:37.999Z</time></trkpt><trkpt lat="44.674580018852055" lon="10.202008454136642"><ele>227.0</ele><time>2026-04-25T10:13:38.999Z</time></trkpt><trkpt lat="44.6748531490981" lon="10.20222252577544"><ele>226.0</ele><time>2026-04-25T10:13:39.999Z</time></trkpt><trkpt lat="44.675122620181" lon="10.202425296521334"><ele>226.0</ele><time>2026-04-25T10:13:40.999Z</time></trkpt><trkpt lat="44.675389591830665" lon="10.202623304263593"><ele>226.0</ele><time>2026-04-25T10:13:41.999Z</time></trkpt><trkpt lat="44.67565383133127" lon="10.202824350503743"><ele>226.0</ele><time>2026-04-25T10:13:42.999Z</time></trkpt><trkpt lat="44.67591396702382" lon="10.203041806953534"><ele>226.0</ele><time>2026-04-25T10:13:43.999Z</time></trkpt><trkpt lat="44.67617358882381" lon="10.203281159305245"><ele>227.5</ele><time>2026-04-25T10:13:44.999Z</time></trkpt><trkpt lat="44.6764350355492" lon="10.2035486649071"><ele>229.0</ele><time>2026-04-25T10:13:45.999Z</time></trkpt><trkpt lat="44.6767323129765" lon="10.203834788644"><ele>227.5</ele><time>2026-04-25T10:13:46.999Z</time></trkpt><trkpt lat="44.677029339211394" lon="10.204128711768359"><ele>226.0</ele><time>2026-04-25T10:13:47.999Z</time></trkpt><trkpt lat="44.677241260999445" lon="10.20438995789961"><ele>226.0</ele><time>2026-04-25T10:13:48.999Z</time></trkpt><trkpt lat="44.67751647214721" lon="10.204675765689968"><ele>226.0</ele><time>2026-04-25T10:13:49.999Z</time></trkpt><trkpt lat="44.67779510430833" lon="10.204960669007336"><ele>226.0</ele><time>2026-04-25T10:13:50.999Z</time></trkpt><trkpt lat="44.67808241199268" lon="10.205246871752601"><ele>226.0</ele><time>2026-04-25T10:13:51.999Z</time></trkpt><trkpt lat="44.678368697846004" lon="10.20553136561572"><ele>223.5</ele><time>2026-04-25T10:13:52.999Z</time></trkpt><trkpt lat="44.67864864833535" lon="10.205815276730704"><ele>221.0</ele><time>2026-04-25T10:13:53.999Z</time></trkpt><trkpt lat="44.67893267069415" lon="10.206110117586933"><ele>221.0</ele><time>2026-04-25T10:13:54.999Z</time></trkpt><trkpt lat="44.67920750585478" lon="10.20639931317835"><ele>221.0</ele><time>2026-04-25T10:13:55.999Z</time></trkpt><trkpt lat="44.679481665031304" lon="10.206685463477154"><ele>220.0</ele><time>2026-04-25T10:13:56.999Z</time></trkpt><trkpt lat="44.67975934866988" lon="10.206970925695927"><ele>219.0</ele><time>2026-04-25T10:13:57.999Z</time></trkpt><trkpt lat="44.680034259712606" lon="10.20725709965624"><ele>218.0</ele><time>2026-04-25T10:13:58.999Z</time></trkpt><trkpt lat="44.680316298809885" lon="10.207548575617139"><ele>217.0</ele><time>2026-04-25T10:13:59.999Z</time></trkpt><trkpt lat="44.6805958167504" lon="10.207835597122218"><ele>217.0</ele><time>2026-04-25T10:14:00.999Z</time></trkpt><trkpt lat="44.68087736284749" lon="10.208124805166968"><ele>217.0</ele><time>2026-04-25T10:14:01.999Z</time></trkpt><trkpt lat="44.681150226669885" lon="10.208405106580189"><ele>215.5</ele><time>2026-04-25T10:14:02.999Z</time></trkpt><trkpt lat="44.681417354343246" lon="10.208677359583824"><ele>214.0</ele><time>2026-04-25T10:14:03.999Z</time></trkpt><trkpt lat="44.68168721614897" lon="10.208953031489225"><ele>215.0</ele><time>2026-04-25T10:14:04.999Z</time></trkpt><trkpt lat="44.681961957796815" lon="10.209231425279986"><ele>216.0</ele><time>2026-04-25T10:14:05.999Z</time></trkpt><trkpt lat="44.68224065801806" lon="10.209514741238122"><ele>216.0</ele><time>2026-04-25T10:14:06.999Z</time></trkpt><trkpt lat="44.68251357441396" lon="10.209795661817058"><ele>216.0</ele><time>2026-04-25T10:14:07.999Z</time></trkpt><trkpt lat="44.682782091131166" lon="10.210079240946863"><ele>213.5</ele><time>2026-04-25T10:14:08.999Z</time></trkpt><trkpt lat="44.68305873381507" lon="10.210366078223919"><ele>211.0</ele><time>2026-04-25T10:14:09.999Z</time></trkpt><trkpt lat="44.68333573990819" lon="10.210645386321433"><ele>210.5</ele><time>2026-04-25T10:14:10.999Z</time></trkpt><trkpt lat="44.68361059493388" lon="10.210920855054484"><ele>210.0</ele><time>2026-04-25T10:14:11.999Z</time></trkpt><trkpt lat="44.683887360435335" lon="10.211201520628238"><ele>210.0</ele><time>2026-04-25T10:14:12.999Z</time></trkpt><trkpt lat="44.68416788981784" lon="10.211485424927925"><ele>210.0</ele><time>2026-04-25T10:14:13.999Z</time></trkpt><trkpt lat="44.684441069407576" lon="10.211767874352972"><ele>210.5</ele><time>2026-04-25T10:14:14.999Z</time></trkpt><trkpt lat="44.68471151307329" lon="10.21204004061823"><ele>211.0</ele><time>2026-04-25T10:14:15.999Z</time></trkpt><trkpt lat="44.68499023635831" lon="10.212324189704978"><ele>209.5</ele><time>2026-04-25T10:14:16.999Z</time></trkpt><trkpt lat="44.685270970526844" lon="10.21261757676898"><ele>208.0</ele><time>2026-04-25T10:14:17.999Z</time></trkpt><trkpt lat="44.68554849376089" lon="10.212903348238314"><ele>208.5</ele><time>2026-04-25T10:14:18.999Z</time></trkpt><trkpt lat="44.685822190274564" lon="10.21318292971843"><ele>209.0</ele><time>2026-04-25T10:14:19.999Z</time></trkpt><trkpt lat="44.68610161941625" lon="10.21347590839689"><ele>207.0</ele><time>2026-04-25T10:14:20.999Z</time></trkpt><trkpt lat="44.68637991658558" lon="10.213759846663027"><ele>205.0</ele><time>2026-04-25T10:14:21.999Z</time></trkpt><trkpt lat="44.68663698884984" lon="10.214022824910796"><ele>205.0</ele><time>2026-04-25T10:14:22.999Z</time></trkpt><trkpt lat="44.68687042793681" lon="10.214265915869172"><ele>205.0</ele><time>2026-04-25T10:14:23.999Z</time></trkpt><trkpt lat="44.68708801252309" lon="10.21449669662978"><ele>204.5</ele><time>2026-04-25T10:14:24.999Z</time></trkpt><trkpt lat="44.6872951474271" lon="10.214721205687136"><ele>204.0</ele><time>2026-04-25T10:14:26Z</time></trkpt><trkpt lat="44.687499585743375" lon="10.214939071722165"><ele>204.0</ele><time>2026-04-25T10:14:27Z</time></trkpt><trkpt lat="44.687714979018466" lon="10.215157296338566"><ele>204.0</ele><time>2026-04-25T10:14:28Z</time></trkpt><trkpt lat="44.687936860034235" lon="10.21538213426351"><ele>202.5</ele><time>2026-04-25T10:14:29Z</time></trkpt><trkpt lat="44.688150950627254" lon="10.2156122119464"><ele>201.0</ele><time>2026-04-25T10:14:30Z</time></trkpt><trkpt lat="44.688368027084785" lon="10.215830023244212"><ele>202.0</ele><time>2026-04-25T10:14:31Z</time></trkpt><trkpt lat="44.68859491202515" lon="10.216027681980332"><ele>203.0</ele><time>2026-04-25T10:14:32Z</time></trkpt><trkpt lat="44.68883842656487" lon="10.216206510124213"><ele>203.0</ele><time>2026-04-25T10:14:33Z</time></trkpt><trkpt lat="44.6890956019643" lon="10.2163886635659"><ele>203.0</ele><time>2026-04-25T10:14:34Z</time></trkpt><trkpt lat="44.689348935882556" lon="10.216573633855504"><ele>202.5</ele><time>2026-04-25T10:14:35Z</time></trkpt><trkpt lat="44.6896001085943" lon="10.21676492438272"><ele>202.0</ele><time>2026-04-25T10:14:36Z</time></trkpt><trkpt lat="44.68985570643296" lon="10.216953052274757"><ele>202.0</ele><time>2026-04-25T10:14:37Z</time></trkpt><trkpt lat="44.690112944859166" lon="10.217141979712006"><ele>202.0</ele><time>2026-04-25T10:14:38Z</time></trkpt><trkpt lat="44.69037808497105" lon="10.217334575359416"><ele>200.0</ele><time>2026-04-25T10:14:39Z</time></trkpt><trkpt lat="44.69063407596985" lon="10.217527751196188"><ele>198.0</ele><time>2026-04-25T10:14:40Z</time></trkpt><trkpt lat="44.69089685999434" lon="10.217720506260575"><ele>197.0</ele><time>2026-04-25T10:14:41Z</time></trkpt><trkpt lat="44.69115596488359" lon="10.217914529165208"><ele>196.0</ele><time>2026-04-25T10:14:42Z</time></trkpt><trkpt lat="44.691417310935805" lon="10.218109099720452"><ele>197.0</ele><time>2026-04-25T10:14:43Z</time></trkpt><trkpt lat="44.691669408731116" lon="10.218300485387902"><ele>198.0</ele><time>2026-04-25T10:14:44Z</time></trkpt><trkpt lat="44.691921662022025" lon="10.21848465192064"><ele>197.0</ele><time>2026-04-25T10:14:45Z</time></trkpt><trkpt lat="44.69216067894979" lon="10.21866208501525"><ele>196.0</ele><time>2026-04-25T10:14:46Z</time></trkpt><trkpt lat="44.69238023207949" lon="10.218822627330871"><ele>196.0</ele><time>2026-04-25T10:14:47Z</time></trkpt><trkpt lat="44.69260323771923" lon="10.218985177736526"><ele>196.0</ele><time>2026-04-25T10:14:48Z</time></trkpt><trkpt lat="44.69282429496068" lon="10.21914830715294"><ele>195.5</ele><time>2026-04-25T10:14:49Z</time></trkpt><trkpt lat="44.69304835270025" lon="10.219314095962174"><ele>195.0</ele><time>2026-04-25T10:14:50Z</time></trkpt><trkpt lat="44.693263713873854" lon="10.219477849720514"><ele>195.0</ele><time>2026-04-25T10:14:51Z</time></trkpt><trkpt lat="44.693476339144006" lon="10.219640602328367"><ele>195.0</ele><time>2026-04-25T10:14:52Z</time></trkpt><trkpt lat="44.69368769579186" lon="10.219800615239247"><ele>194.5</ele><time>2026-04-25T10:14:53Z</time></trkpt><trkpt lat="44.693905738998666" lon="10.219963398323934"><ele>194.0</ele><time>2026-04-25T10:14:54Z</time></trkpt><trkpt lat="44.69412117299048" lon="10.22012586798766"><ele>194.0</ele><time>2026-04-25T10:14:55Z</time></trkpt><trkpt lat="44.69434317148763" lon="10.22028538010687"><ele>194.0</ele><time>2026-04-25T10:14:56Z</time></trkpt><trkpt lat="44.694571358372876" lon="10.22044430865697"><ele>192.5</ele><time>2026-04-25T10:14:57Z</time></trkpt><trkpt lat="44.69480057308632" lon="10.220610389412979"><ele>191.0</ele><time>2026-04-25T10:14:58Z</time></trkpt><trkpt lat="44.69504184306781" lon="10.22078519718363"><ele>190.5</ele><time>2026-04-25T10:14:59Z</time></trkpt><trkpt lat="44.69528400170219" lon="10.22096696672922"><ele>190.0</ele><time>2026-04-25T10:15:00Z</time></trkpt><trkpt lat="44.695531231407855" lon="10.221152825346906"><ele>190.0</ele><time>2026-04-25T10:15:01Z</time></trkpt><trkpt lat="44.69577701124323" lon="10.221347191368123"><ele>190.0</ele><time>2026-04-25T10:15:02Z</time></trkpt><trkpt lat="44.69600844351045" lon="10.221522279006724"><ele>189.5</ele><time>2026-04-25T10:15:03Z</time></trkpt><trkpt lat="44.69622585563777" lon="10.221680806109777"><ele>189.0</ele><time>2026-04-25T10:15:04Z</time></trkpt><trkpt lat="44.69643360707116" lon="10.221833812428716"><ele>189.0</ele><time>2026-04-25T10:15:05Z</time></trkpt><trkpt lat="44.69663696911629" lon="10.221977068761932"><ele>189.0</ele><time>2026-04-25T10:15:06Z</time></trkpt><trkpt lat="44.696829008557636" lon="10.222119639819173"><ele>189.0</ele><time>2026-04-25T10:15:07Z</time></trkpt><trkpt lat="44.697012785926944" lon="10.22225904955696"><ele>188.33333333333334</ele><time>2026-04-25T10:15:08Z</time></trkpt><trkpt lat="44.69718302956175" lon="10.22237788904709"><ele>187.66666666666669</ele><time>2026-04-25T10:15:09Z</time></trkpt><trkpt lat="44.69734865628955" lon="10.222498343121826"><ele>187.0</ele><time>2026-04-25T10:15:10Z</time></trkpt><trkpt lat="44.6975000155578" lon="10.222606803207283"><ele>187.0</ele><time>2026-04-25T10:15:11Z</time></trkpt><trkpt lat="44.69763209442192" lon="10.222706305643715"><ele>187.0</ele><time>2026-04-25T10:15:12Z</time></trkpt><trkpt lat="44.697755443163544" lon="10.222801484135879"><ele>187.0</ele><time>2026-04-25T10:15:13Z</time></trkpt><trkpt lat="44.69786841959477" lon="10.22289506781837"><ele>187.0</ele><time>2026-04-25T10:15:14Z</time></trkpt><trkpt lat="44.69796896727396" lon="10.222961153476824"><ele>186.39999999999998</ele><time>2026-04-25T10:15:15Z</time></trkpt><trkpt lat="44.69804256562823" lon="10.223019376504984"><ele>185.79999999999998</ele><time>2026-04-25T10:15:16Z</time></trkpt><trkpt lat="44.698097346387286" lon="10.22308255597854"><ele>185.2</ele><time>2026-04-25T10:15:18Z</time></trkpt><trkpt lat="44.69818429227592" lon="10.222887805635423"><ele>184.6</ele><time>2026-04-25T10:15:19Z</time></trkpt><trkpt lat="44.698223004754915" lon="10.222787888940521"><ele>184.0</ele><time>2026-04-25T10:15:20Z</time></trkpt><trkpt lat="44.6982566221509" lon="10.222666628122525"><ele>184.0</ele><time>2026-04-25T10:15:21Z</time></trkpt><trkpt lat="44.69829505179165" lon="10.22253767913036"><ele>184.0</ele><time>2026-04-25T10:15:22Z</time></trkpt><trkpt lat="44.69834284010357" lon="10.222388520115242"><ele>184.0</ele><time>2026-04-25T10:15:23Z</time></trkpt><trkpt lat="44.69838599698291" lon="10.222227828469594"><ele>184.0</ele><time>2026-04-25T10:15:24Z</time></trkpt><trkpt lat="44.69842609622816" lon="10.222064324055822"><ele>184.6</ele><time>2026-04-25T10:15:25Z</time></trkpt><trkpt lat="44.69849729646801" lon="10.221952774524782"><ele>185.2</ele><time>2026-04-25T10:15:26Z</time></trkpt><trkpt lat="44.69856978465383" lon="10.221883128837884"><ele>185.79999999999998</ele><time>2026-04-25T10:15:27Z</time></trkpt><trkpt lat="44.69867175175274" lon="10.221902036342847"><ele>186.39999999999998</ele><time>2026-04-25T10:15:28Z</time></trkpt><trkpt lat="44.69876940733016" lon="10.221954970568413"><ele>187.0</ele><time>2026-04-25T10:15:29Z</time></trkpt><trkpt lat="44.69887487954761" lon="10.22199768683507"><ele>188.0</ele><time>2026-04-25T10:15:30Z</time></trkpt><trkpt lat="44.69897988354903" lon="10.222045255811262"><ele>189.0</ele><time>2026-04-25T10:15:31Z</time></trkpt><trkpt lat="44.69908526655034" lon="10.2220943468759"><ele>190.0</ele><time>2026-04-25T10:15:31.999Z</time></trkpt><trkpt lat="44.69918754582964" lon="10.222140624995106"><ele>191.0</ele><time>2026-04-25T10:15:32.999Z</time></trkpt><trkpt lat="44.699286990150995" lon="10.222182428117337"><ele>192.0</ele><time>2026-04-25T10:15:33.999Z</time></trkpt><trkpt lat="44.69937663522514" lon="10.222216720612245"><ele>191.83333333333334</ele><time>2026-04-25T10:15:34.999Z</time></trkpt><trkpt lat="44.69945198531882" lon="10.22224337165135"><ele>191.66666666666666</ele><time>2026-04-25T10:15:35.999Z</time></trkpt><trkpt lat="44.699515646762435" lon="10.222267949988732"><ele>191.5</ele><time>2026-04-25T10:15:36.999Z</time></trkpt><trkpt lat="44.69960731939849" lon="10.222296039022535"><ele>191.33333333333331</ele><time>2026-04-25T10:15:38.999Z</time></trkpt><trkpt lat="44.69969082068177" lon="10.222323817108961"><ele>191.16666666666666</ele><time>2026-04-25T10:15:41.999Z</time></trkpt><trkpt lat="44.69977844100691" lon="10.222343006481232"><ele>191.0</ele><time>2026-04-25T10:15:43.999Z</time></trkpt><trkpt lat="44.699854718817214" lon="10.222355956963286"><ele>191.0</ele><time>2026-04-25T10:15:45.999Z</time></trkpt><trkpt lat="44.69993541196952" lon="10.222358859878492"><ele>191.0</ele><time>2026-04-25T10:15:48.999Z</time></trkpt><trkpt lat="44.7000195830976" lon="10.222360269765876"><ele>191.0</ele><time>2026-04-25T10:15:50.999Z</time></trkpt><trkpt lat="44.70009038500583" lon="10.2223521101988"><ele>191.0</ele><time>2026-04-25T10:15:51.999Z</time></trkpt><trkpt lat="44.70017417496913" lon="10.222341636485137"><ele>191.0</ele><time>2026-04-25T10:15:52.999Z</time></trkpt><trkpt lat="44.70026661535884" lon="10.222301044282085"><ele>191.0</ele><time>2026-04-25T10:15:53.999Z</time></trkpt><trkpt lat="44.70037629689302" lon="10.222278391873356"><ele>191.0</ele><time>2026-04-25T10:15:54.999Z</time></trkpt><trkpt lat="44.700489797316884" lon="10.222247106923058"><ele>191.0</ele><time>2026-04-25T10:15:55.999Z</time></trkpt><trkpt lat="44.700622925236466" lon="10.222195432731707"><ele>191.0</ele><time>2026-04-25T10:15:56.999Z</time></trkpt><trkpt lat="44.70077106453322" lon="10.22215336031401"><ele>191.0</ele><time>2026-04-25T10:15:57.999Z</time></trkpt><trkpt lat="44.70092299036293" lon="10.222162789816513"><ele>191.0</ele><time>2026-04-25T10:15:58.999Z</time></trkpt><trkpt lat="44.701071720031116" lon="10.222189666524846"><ele>191.0</ele><time>2026-04-25T10:15:59.999Z</time></trkpt><trkpt lat="44.70123213163637" lon="10.222236566665382"><ele>191.0</ele><time>2026-04-25T10:16:00.999Z</time></trkpt><trkpt lat="44.70140630409243" lon="10.22227472217276"><ele>191.0</ele><time>2026-04-25T10:16:01.999Z</time></trkpt><trkpt lat="44.70158675864578" lon="10.222340689888222"><ele>191.0</ele><time>2026-04-25T10:16:02.999Z</time></trkpt><trkpt lat="44.701777739680445" lon="10.222402845488652"><ele>191.0</ele><time>2026-04-25T10:16:03.999Z</time></trkpt><trkpt lat="44.70196782756229" lon="10.22246610183187"><ele>191.0</ele><time>2026-04-25T10:16:04.999Z</time></trkpt><trkpt lat="44.70216291342338" lon="10.222524190418184"><ele>191.0</ele><time>2026-04-25T10:16:05.999Z</time></trkpt><trkpt lat="44.7023418993429" lon="10.222581777245997"><ele>191.0</ele><time>2026-04-25T10:16:06.999Z</time></trkpt><trkpt lat="44.702501442209254" lon="10.222680762333795"><ele>191.0</ele><time>2026-04-25T10:16:07.999Z</time></trkpt><trkpt lat="44.70265875012086" lon="10.222778048244438"><ele>191.0</ele><time>2026-04-25T10:16:08.999Z</time></trkpt><trkpt lat="44.70280407441636" lon="10.22287817496071"><ele>191.0</ele><time>2026-04-25T10:16:09.999Z</time></trkpt><trkpt lat="44.70294218582985" lon="10.222975861609402"><ele>190.33333333333331</ele><time>2026-04-25T10:16:10.999Z</time></trkpt><trkpt lat="44.703085462173526" lon="10.22307720145621"><ele>189.66666666666666</ele><time>2026-04-25T10:16:11.999Z</time></trkpt><trkpt lat="44.703236054497715" lon="10.22318371593047"><ele>189.0</ele><time>2026-04-25T10:16:12.999Z</time></trkpt><trkpt lat="44.70338743661557" lon="10.223290788915326"><ele>189.0</ele><time>2026-04-25T10:16:13.999Z</time></trkpt><trkpt lat="44.70354064314554" lon="10.223383111301434"><ele>189.0</ele><time>2026-04-25T10:16:14.999Z</time></trkpt><trkpt lat="44.70369503257241" lon="10.223492171295018"><ele>189.0</ele><time>2026-04-25T10:16:15.999Z</time></trkpt><trkpt lat="44.70384439720443" lon="10.223596507377826"><ele>192.33333333333331</ele><time>2026-04-25T10:16:16.999Z</time></trkpt><trkpt lat="44.703987861561956" lon="10.223703448416183"><ele>195.66666666666666</ele><time>2026-04-25T10:16:17.999Z</time></trkpt><trkpt lat="44.70412025647908" lon="10.223801123880575"><ele>199.0</ele><time>2026-04-25T10:16:18.999Z</time></trkpt><trkpt lat="44.70426285048246" lon="10.223880833987547"><ele>198.0</ele><time>2026-04-25T10:16:19.999Z</time></trkpt><trkpt lat="44.70442080932113" lon="10.223934535117406"><ele>197.0</ele><time>2026-04-25T10:16:20.999Z</time></trkpt><trkpt lat="44.70459043669821" lon="10.223950159854393"><ele>196.0</ele><time>2026-04-25T10:16:21.999Z</time></trkpt><trkpt lat="44.704765436031934" lon="10.223938220769924"><ele>196.0</ele><time>2026-04-25T10:16:22.999Z</time></trkpt><trkpt lat="44.704925026049864" lon="10.2239304697164"><ele>196.0</ele><time>2026-04-25T10:16:23.999Z</time></trkpt><trkpt lat="44.70508872066642" lon="10.223926809729377"><ele>196.0</ele><time>2026-04-25T10:16:24.999Z</time></trkpt><trkpt lat="44.70524115430759" lon="10.223932111049827"><ele>194.66666666666666</ele><time>2026-04-25T10:16:25.999Z</time></trkpt><trkpt lat="44.70540714868519" lon="10.223942181491006"><ele>193.33333333333331</ele><time>2026-04-25T10:16:26.999Z</time></trkpt><trkpt lat="44.70558774997861" lon="10.2239502272154"><ele>192.0</ele><time>2026-04-25T10:16:27.999Z</time></trkpt><trkpt lat="44.70577000126124" lon="10.223965663384314"><ele>192.0</ele><time>2026-04-25T10:16:28.999Z</time></trkpt><trkpt lat="44.70594643726225" lon="10.22397970795902"><ele>192.0</ele><time>2026-04-25T10:16:29.999Z</time></trkpt><trkpt lat="44.706129408098384" lon="10.2240283293354"><ele>192.0</ele><time>2026-04-25T10:16:30.999Z</time></trkpt><trkpt lat="44.70631962322407" lon="10.224036635476178"><ele>191.33333333333334</ele><time>2026-04-25T10:16:32Z</time></trkpt><trkpt lat="44.70649790890886" lon="10.2240704299515"><ele>190.66666666666669</ele><time>2026-04-25T10:16:33Z</time></trkpt><trkpt lat="44.706664788084055" lon="10.224097578057396"><ele>190.0</ele><time>2026-04-25T10:16:34Z</time></trkpt><trkpt lat="44.706826718512524" lon="10.224112723048222"><ele>188.0</ele><time>2026-04-25T10:16:35Z</time></trkpt><trkpt lat="44.70699809362793" lon="10.224137029617543"><ele>186.0</ele><time>2026-04-25T10:16:36Z</time></trkpt><trkpt lat="44.70717084250704" lon="10.224170313031689"><ele>184.0</ele><time>2026-04-25T10:16:37Z</time></trkpt><trkpt lat="44.70734966964072" lon="10.224197521177464"><ele>184.0</ele><time>2026-04-25T10:16:38Z</time></trkpt><trkpt lat="44.70752630690178" lon="10.224215383643648"><ele>184.0</ele><time>2026-04-25T10:16:39Z</time></trkpt><trkpt lat="44.70771330120781" lon="10.224235733327799"><ele>184.0</ele><time>2026-04-25T10:16:40Z</time></trkpt><trkpt lat="44.70790882134788" lon="10.224260976701878"><ele>182.66666666666669</ele><time>2026-04-25T10:16:41Z</time></trkpt><trkpt lat="44.7081158412762" lon="10.22428743285213"><ele>181.33333333333334</ele><time>2026-04-25T10:16:42Z</time></trkpt><trkpt lat="44.70833079160015" lon="10.224316349833003"><ele>180.0</ele><time>2026-04-25T10:16:43Z</time></trkpt><trkpt lat="44.70854449772423" lon="10.22434625862681"><ele>179.66666666666666</ele><time>2026-04-25T10:16:44Z</time></trkpt><trkpt lat="44.70875633954911" lon="10.22437204808531"><ele>179.33333333333331</ele><time>2026-04-25T10:16:45Z</time></trkpt><trkpt lat="44.70896110704477" lon="10.224403615793946"><ele>179.0</ele><time>2026-04-25T10:16:46Z</time></trkpt><trkpt lat="44.709161259121665" lon="10.224431895827905"><ele>179.0</ele><time>2026-04-25T10:16:47Z</time></trkpt><trkpt lat="44.70936204032963" lon="10.224464234873704"><ele>179.0</ele><time>2026-04-25T10:16:48Z</time></trkpt><trkpt lat="44.70955312457154" lon="10.224492538430765"><ele>179.0</ele><time>2026-04-25T10:16:49Z</time></trkpt><trkpt lat="44.709727564913" lon="10.224512811009257"><ele>178.66666666666666</ele><time>2026-04-25T10:16:50Z</time></trkpt><trkpt lat="44.709890847270486" lon="10.224531483666295"><ele>178.33333333333334</ele><time>2026-04-25T10:16:51Z</time></trkpt><trkpt lat="44.71004773553702" lon="10.224556338284655"><ele>178.0</ele><time>2026-04-25T10:16:52Z</time></trkpt><trkpt lat="44.71020527036606" lon="10.224577503542575"><ele>178.0</ele><time>2026-04-25T10:16:53Z</time></trkpt><trkpt lat="44.71036064277747" lon="10.224598421383961"><ele>178.0</ele><time>2026-04-25T10:16:54Z</time></trkpt><trkpt lat="44.7105260914199" lon="10.224621337712133"><ele>178.0</ele><time>2026-04-25T10:16:55Z</time></trkpt><trkpt lat="44.71070063718208" lon="10.224645423268294"><ele>178.0</ele><time>2026-04-25T10:16:56Z</time></trkpt><trkpt lat="44.710879246648496" lon="10.22467210978846"><ele>178.0</ele><time>2026-04-25T10:16:57Z</time></trkpt><trkpt lat="44.71105512616989" lon="10.224683980908749"><ele>178.0</ele><time>2026-04-25T10:16:58Z</time></trkpt><trkpt lat="44.711233024514044" lon="10.224708658573954"><ele>177.66666666666669</ele><time>2026-04-25T10:16:59Z</time></trkpt><trkpt lat="44.71141393878942" lon="10.224741285943376"><ele>177.33333333333334</ele><time>2026-04-25T10:17:00Z</time></trkpt><trkpt lat="44.71159505183064" lon="10.22476297557976"><ele>177.0</ele><time>2026-04-25T10:17:01Z</time></trkpt><trkpt lat="44.71177348060223" lon="10.224784974566033"><ele>176.66666666666666</ele><time>2026-04-25T10:17:02Z</time></trkpt><trkpt lat="44.711944924277816" lon="10.224805548478534"><ele>176.33333333333331</ele><time>2026-04-25T10:17:03Z</time></trkpt><trkpt lat="44.712113030602545" lon="10.224829611395098"><ele>176.0</ele><time>2026-04-25T10:17:04Z</time></trkpt><trkpt lat="44.71227189761531" lon="10.224854682379306"><ele>175.33333333333331</ele><time>2026-04-25T10:17:05Z</time></trkpt><trkpt lat="44.71242833148956" lon="10.22487567950574"><ele>174.66666666666666</ele><time>2026-04-25T10:17:06Z</time></trkpt><trkpt lat="44.71257501407617" lon="10.2248972858505"><ele>174.0</ele><time>2026-04-25T10:17:07Z</time></trkpt><trkpt lat="44.712738806982166" lon="10.224917975895496"><ele>174.33333333333334</ele><time>2026-04-25T10:17:08Z</time></trkpt><trkpt lat="44.71289887183064" lon="10.224938987971848"><ele>174.66666666666669</ele><time>2026-04-25T10:17:09Z</time></trkpt><trkpt lat="44.713063588750366" lon="10.224967446646057"><ele>175.0</ele><time>2026-04-25T10:17:10Z</time></trkpt><trkpt lat="44.71323096146755" lon="10.224989904116576"><ele>175.0</ele><time>2026-04-25T10:17:11Z</time></trkpt><trkpt lat="44.71339226063632" lon="10.225012124428066"><ele>175.0</ele><time>2026-04-25T10:17:12Z</time></trkpt><trkpt lat="44.7135288022335" lon="10.225031280833868"><ele>175.0</ele><time>2026-04-25T10:17:13Z</time></trkpt><trkpt lat="44.71365639224436" lon="10.22505634595449"><ele>175.0</ele><time>2026-04-25T10:17:14Z</time></trkpt><trkpt lat="44.71378681341041" lon="10.225080061321558"><ele>174.8</ele><time>2026-04-25T10:17:15Z</time></trkpt><trkpt lat="44.7139016009339" lon="10.225097875474706"><ele>174.6</ele><time>2026-04-25T10:17:16Z</time></trkpt><trkpt lat="44.71401468058182" lon="10.225105969280268"><ele>174.39999999999998</ele><time>2026-04-25T10:17:17Z</time></trkpt><trkpt lat="44.71411177465842" lon="10.22511740165748"><ele>174.2</ele><time>2026-04-25T10:17:18Z</time></trkpt><trkpt lat="44.71419035059148" lon="10.225130171309354"><ele>174.0</ele><time>2026-04-25T10:17:19Z</time></trkpt><trkpt lat="44.714250571384255" lon="10.225170887908824"><ele>174.0</ele><time>2026-04-25T10:17:22Z</time></trkpt><trkpt lat="44.71439657540663" lon="10.225191632885442"><ele>174.0</ele><time>2026-04-25T10:17:24Z</time></trkpt><trkpt lat="44.714482902251696" lon="10.225205432622253"><ele>174.0</ele><time>2026-04-25T10:17:25Z</time></trkpt><trkpt lat="44.71457881501315" lon="10.225232439598848"><ele>174.0</ele><time>2026-04-25T10:17:26Z</time></trkpt><trkpt lat="44.714696814716355" lon="10.225267482554111"><ele>173.0</ele><time>2026-04-25T10:17:27Z</time></trkpt><trkpt lat="44.71482250036984" lon="10.225304773103558"><ele>172.0</ele><time>2026-04-25T10:17:28Z</time></trkpt><trkpt lat="44.714964768775" lon="10.225352135023588"><ele>171.0</ele><time>2026-04-25T10:17:29Z</time></trkpt><trkpt lat="44.7151059784537" lon="10.225397259221403"><ele>170.0</ele><time>2026-04-25T10:17:30Z</time></trkpt><trkpt lat="44.715249658192185" lon="10.22543036840147"><ele>169.25</ele><time>2026-04-25T10:17:31Z</time></trkpt><trkpt lat="44.71538073121717" lon="10.225470357037375"><ele>168.5</ele><time>2026-04-25T10:17:32Z</time></trkpt><trkpt lat="44.715511876554714" lon="10.225508138090612"><ele>167.75</ele><time>2026-04-25T10:17:33Z</time></trkpt><trkpt lat="44.715636034257614" lon="10.225544054594502"><ele>167.0</ele><time>2026-04-25T10:17:34Z</time></trkpt><trkpt lat="44.71576456566341" lon="10.225586572769197"><ele>167.0</ele><time>2026-04-25T10:17:35Z</time></trkpt><trkpt lat="44.71589621414218" lon="10.225622683487714"><ele>167.0</ele><time>2026-04-25T10:17:36Z</time></trkpt><trkpt lat="44.71602347432959" lon="10.225661523068377"><ele>167.0</ele><time>2026-04-25T10:17:37Z</time></trkpt><trkpt lat="44.71614792095627" lon="10.225702215383"><ele>167.0</ele><time>2026-04-25T10:17:38Z</time></trkpt><trkpt lat="44.71625688445856" lon="10.225743474819733"><ele>167.0</ele><time>2026-04-25T10:17:39Z</time></trkpt><trkpt lat="44.71635205060804" lon="10.22577516321311"><ele>167.0</ele><time>2026-04-25T10:17:40Z</time></trkpt><trkpt lat="44.71644059697024" lon="10.225826172722053"><ele>167.0</ele><time>2026-04-25T10:17:41Z</time></trkpt><trkpt lat="44.71652120723498" lon="10.225906917929526"><ele>167.0</ele><time>2026-04-25T10:17:41.999Z</time></trkpt><trkpt lat="44.716603628389166" lon="10.22602838983456"><ele>167.0</ele><time>2026-04-25T10:17:42.999Z</time></trkpt><trkpt lat="44.716694432210645" lon="10.226136201875605"><ele>167.0</ele><time>2026-04-25T10:17:43.999Z</time></trkpt><trkpt lat="44.716802085600506" lon="10.226223114466775"><ele>167.0</ele><time>2026-04-25T10:17:44.999Z</time></trkpt><trkpt lat="44.71690547129332" lon="10.226327950724887"><ele>167.0</ele><time>2026-04-25T10:17:45.999Z</time></trkpt><trkpt lat="44.71701005443254" lon="10.226459268110913"><ele>167.0</ele><time>2026-04-25T10:17:46.999Z</time></trkpt><trkpt lat="44.71711370972099" lon="10.226596124653911"><ele>167.0</ele><time>2026-04-25T10:17:47.999Z</time></trkpt><trkpt lat="44.71722283946317" lon="10.226722656094172"><ele>167.0</ele><time>2026-04-25T10:17:48.999Z</time></trkpt><trkpt lat="44.71732405713195" lon="10.226858031499608"><ele>167.0</ele><time>2026-04-25T10:17:49.999Z</time></trkpt><trkpt lat="44.71742209548164" lon="10.22698721101577"><ele>167.0</ele><time>2026-04-25T10:17:50.999Z</time></trkpt><trkpt lat="44.71752340879681" lon="10.227108146727648"><ele>167.0</ele><time>2026-04-25T10:17:51.999Z</time></trkpt><trkpt lat="44.71762178912716" lon="10.227226699523403"><ele>167.0</ele><time>2026-04-25T10:17:52.999Z</time></trkpt><trkpt lat="44.71771909052702" lon="10.22734123530293"><ele>167.0</ele><time>2026-04-25T10:17:53.999Z</time></trkpt><trkpt lat="44.71782076282988" lon="10.227453952254955"><ele>167.0</ele><time>2026-04-25T10:17:54.999Z</time></trkpt><trkpt lat="44.717929584558675" lon="10.2275499012264"><ele>167.5</ele><time>2026-04-25T10:17:55.999Z</time></trkpt><trkpt lat="44.71805391510669" lon="10.227631954461955"><ele>168.0</ele><time>2026-04-25T10:17:56.999Z</time></trkpt><trkpt lat="44.718189104421214" lon="10.2276847482856"><ele>168.5</ele><time>2026-04-25T10:17:57.999Z</time></trkpt><trkpt lat="44.718329384486054" lon="10.227711900117525"><ele>169.0</ele><time>2026-04-25T10:17:58.999Z</time></trkpt><trkpt lat="44.71846276352894" lon="10.227741104661435"><ele>168.75</ele><time>2026-04-25T10:17:59.999Z</time></trkpt><trkpt lat="44.71859420508017" lon="10.227779770458035"><ele>168.5</ele><time>2026-04-25T10:18:00.999Z</time></trkpt><trkpt lat="44.71870910534685" lon="10.22781530981395"><ele>168.25</ele><time>2026-04-25T10:18:01.999Z</time></trkpt><trkpt lat="44.71882170800838" lon="10.227843191381014"><ele>168.0</ele><time>2026-04-25T10:18:02.999Z</time></trkpt><trkpt lat="44.718924914129495" lon="10.227870230628334"><ele>168.0</ele><time>2026-04-25T10:18:03.999Z</time></trkpt><trkpt lat="44.71904116788288" lon="10.227895457230888"><ele>168.0</ele><time>2026-04-25T10:18:04.999Z</time></trkpt><trkpt lat="44.719163445588045" lon="10.227926106999817"><ele>168.0</ele><time>2026-04-25T10:18:05.999Z</time></trkpt><trkpt lat="44.71928730652919" lon="10.227948675191225"><ele>168.0</ele><time>2026-04-25T10:18:06.999Z</time></trkpt><trkpt lat="44.71941954476684" lon="10.227966746846175"><ele>167.0</ele><time>2026-04-25T10:18:07.999Z</time></trkpt><trkpt lat="44.719552840595455" lon="10.227979896466975"><ele>166.0</ele><time>2026-04-25T10:18:08.999Z</time></trkpt><trkpt lat="44.719697994941455" lon="10.227982649106853"><ele>165.0</ele><time>2026-04-25T10:18:09.999Z</time></trkpt><trkpt lat="44.71985320709392" lon="10.22798645189532"><ele>164.0</ele><time>2026-04-25T10:18:10.999Z</time></trkpt><trkpt lat="44.720009081384646" lon="10.227990687655256"><ele>164.0</ele><time>2026-04-25T10:18:11.999Z</time></trkpt><trkpt lat="44.720167593803716" lon="10.227995292291254"><ele>164.0</ele><time>2026-04-25T10:18:12.999Z</time></trkpt><trkpt lat="44.72031824449977" lon="10.228001275140322"><ele>164.0</ele><time>2026-04-25T10:18:13.999Z</time></trkpt><trkpt lat="44.72047253678142" lon="10.228009434036574"><ele>163.25</ele><time>2026-04-25T10:18:14.999Z</time></trkpt><trkpt lat="44.720624260162815" lon="10.228016012113393"><ele>162.5</ele><time>2026-04-25T10:18:15.999Z</time></trkpt><trkpt lat="44.72077129723705" lon="10.228016278176547"><ele>161.75</ele><time>2026-04-25T10:18:16.999Z</time></trkpt><trkpt lat="44.72090802298609" lon="10.228020404196979"><ele>161.0</ele><time>2026-04-25T10:18:17.999Z</time></trkpt><trkpt lat="44.721043335194565" lon="10.228025656487793"><ele>160.25</ele><time>2026-04-25T10:18:18.999Z</time></trkpt><trkpt lat="44.721183022032065" lon="10.22802816716663"><ele>159.5</ele><time>2026-04-25T10:18:19.999Z</time></trkpt><trkpt lat="44.72131238099404" lon="10.228031559562282"><ele>158.75</ele><time>2026-04-25T10:18:20.999Z</time></trkpt><trkpt lat="44.72143525135609" lon="10.228037942629602"><ele>158.0</ele><time>2026-04-25T10:18:21.999Z</time></trkpt><trkpt lat="44.721552168174966" lon="10.22803824910501"><ele>158.0</ele><time>2026-04-25T10:18:22.999Z</time></trkpt><trkpt lat="44.72167767506504" lon="10.228037684074522"><ele>158.0</ele><time>2026-04-25T10:18:23.999Z</time></trkpt><trkpt lat="44.72180732230402" lon="10.228036587336726"><ele>158.0</ele><time>2026-04-25T10:18:24.999Z</time></trkpt><trkpt lat="44.721928266920784" lon="10.228042493434923"><ele>158.0</ele><time>2026-04-25T10:18:25.999Z</time></trkpt><trkpt lat="44.72203937852368" lon="10.228058570786857"><ele>157.66666666666666</ele><time>2026-04-25T10:18:26.999Z</time></trkpt><trkpt lat="44.72213603004836" lon="10.228090430851207"><ele>157.33333333333331</ele><time>2026-04-25T10:18:27.999Z</time></trkpt><trkpt lat="44.72220657202368" lon="10.228142721659026"><ele>157.0</ele><time>2026-04-25T10:18:28.999Z</time></trkpt><trkpt lat="44.72225826827648" lon="10.22822706405272"><ele>156.66666666666666</ele><time>2026-04-25T10:18:29.999Z</time></trkpt><trkpt lat="44.72231293849872" lon="10.228317054697776"><ele>156.33333333333334</ele><time>2026-04-25T10:18:30.999Z</time></trkpt><trkpt lat="44.72238478231307" lon="10.228380510203841"><ele>156.0</ele><time>2026-04-25T10:18:31.999Z</time></trkpt><trkpt lat="44.72247998989434" lon="10.228377791412965"><ele>156.0</ele><time>2026-04-25T10:18:32.999Z</time></trkpt><trkpt lat="44.722582767514176" lon="10.22830205826209"><ele>156.0</ele><time>2026-04-25T10:18:33.999Z</time></trkpt><trkpt lat="44.72269156995753" lon="10.228190301572878"><ele>156.0</ele><time>2026-04-25T10:18:34.999Z</time></trkpt><trkpt lat="44.72282144845782" lon="10.228117484625734"><ele>156.0</ele><time>2026-04-25T10:18:35.999Z</time></trkpt><trkpt lat="44.722965457444374" lon="10.228086111438008"><ele>155.33333333333334</ele><time>2026-04-25T10:18:36.999Z</time></trkpt><trkpt lat="44.723113238228706" lon="10.228051034133989"><ele>154.66666666666669</ele><time>2026-04-25T10:18:38Z</time></trkpt><trkpt lat="44.723268922753654" lon="10.228011924257885"><ele>154.0</ele><time>2026-04-25T10:18:39Z</time></trkpt><trkpt lat="44.72342534793613" lon="10.227970671012809"><ele>154.0</ele><time>2026-04-25T10:18:40Z</time></trkpt><trkpt lat="44.72358009903618" lon="10.227930650184666"><ele>154.0</ele><time>2026-04-25T10:18:41Z</time></trkpt><trkpt lat="44.72373836661118" lon="10.227886916715356"><ele>154.0</ele><time>2026-04-25T10:18:42Z</time></trkpt><trkpt lat="44.72389877841136" lon="10.227845570484842"><ele>154.0</ele><time>2026-04-25T10:18:43Z</time></trkpt><trkpt lat="44.724044228141466" lon="10.227807433133831"><ele>154.0</ele><time>2026-04-25T10:18:44Z</time></trkpt><trkpt lat="44.72419445513825" lon="10.227771675153198"><ele>154.0</ele><time>2026-04-25T10:18:45Z</time></trkpt><trkpt lat="44.724347777708225" lon="10.22773395683346"><ele>153.33333333333334</ele><time>2026-04-25T10:18:46Z</time></trkpt><trkpt lat="44.724501118430666" lon="10.227694732223439"><ele>152.66666666666666</ele><time>2026-04-25T10:18:47Z</time></trkpt><trkpt lat="44.72465945635492" lon="10.227659428678573"><ele>152.0</ele><time>2026-04-25T10:18:48Z</time></trkpt><trkpt lat="44.72481295387318" lon="10.227620384102895"><ele>152.0</ele><time>2026-04-25T10:18:49Z</time></trkpt><trkpt lat="44.724956302147795" lon="10.22758636145537"><ele>152.0</ele><time>2026-04-25T10:18:50Z</time></trkpt><trkpt lat="44.725093434257246" lon="10.227553697528599"><ele>152.0</ele><time>2026-04-25T10:18:51Z</time></trkpt><trkpt lat="44.72522700258915" lon="10.227524741875952"><ele>152.0</ele><time>2026-04-25T10:18:52Z</time></trkpt><trkpt lat="44.725354834973906" lon="10.227492227565024"><ele>152.0</ele><time>2026-04-25T10:18:53Z</time></trkpt><trkpt lat="44.72547884689553" lon="10.227460256490374"><ele>152.0</ele><time>2026-04-25T10:18:54Z</time></trkpt><trkpt lat="44.725601198077825" lon="10.227425483925408"><ele>152.0</ele><time>2026-04-25T10:18:55Z</time></trkpt><trkpt lat="44.72572754169734" lon="10.227399661915918"><ele>152.0</ele><time>2026-04-25T10:18:56Z</time></trkpt><trkpt lat="44.725858376510025" lon="10.227370166866042"><ele>152.0</ele><time>2026-04-25T10:18:57Z</time></trkpt><trkpt lat="44.725983330924244" lon="10.227338935970675"><ele>152.0</ele><time>2026-04-25T10:18:58Z</time></trkpt><trkpt lat="44.7261148323137" lon="10.227309667268536"><ele>152.0</ele><time>2026-04-25T10:18:59Z</time></trkpt><trkpt lat="44.726249952714255" lon="10.227272190646499"><ele>152.0</ele><time>2026-04-25T10:19:00Z</time></trkpt><trkpt lat="44.72638898633205" lon="10.227235348600695"><ele>151.25</ele><time>2026-04-25T10:19:01Z</time></trkpt><trkpt lat="44.72653211655774" lon="10.227200705736417"><ele>150.5</ele><time>2026-04-25T10:19:02Z</time></trkpt><trkpt lat="44.726676918247485" lon="10.227169636635244"><ele>149.75</ele><time>2026-04-25T10:19:03Z</time></trkpt><trkpt lat="44.726818232260236" lon="10.227128903549504"><ele>149.0</ele><time>2026-04-25T10:19:04Z</time></trkpt><trkpt lat="44.72696546785909" lon="10.227090535162276"><ele>149.0</ele><time>2026-04-25T10:19:05Z</time></trkpt><trkpt lat="44.72710747622091" lon="10.227063229305795"><ele>149.0</ele><time>2026-04-25T10:19:06Z</time></trkpt><trkpt lat="44.727252451286844" lon="10.227027399660617"><ele>149.0</ele><time>2026-04-25T10:19:07Z</time></trkpt><trkpt lat="44.72740325406041" lon="10.22699350203973"><ele>149.0</ele><time>2026-04-25T10:19:08Z</time></trkpt><trkpt lat="44.72755834872506" lon="10.226953676603506"><ele>149.0</ele><time>2026-04-25T10:19:09Z</time></trkpt><trkpt lat="44.72770835646615" lon="10.226912905656192"><ele>149.0</ele><time>2026-04-25T10:19:10Z</time></trkpt><trkpt lat="44.72786124344271" lon="10.226877627753824"><ele>149.0</ele><time>2026-04-25T10:19:11Z</time></trkpt><trkpt lat="44.728012964219474" lon="10.226837578484238"><ele>149.33333333333331</ele><time>2026-04-25T10:19:12Z</time></trkpt><trkpt lat="44.72817058135111" lon="10.22679435995059"><ele>149.66666666666666</ele><time>2026-04-25T10:19:13Z</time></trkpt><trkpt lat="44.728320666757774" lon="10.226753695686995"><ele>150.0</ele><time>2026-04-25T10:19:14Z</time></trkpt><trkpt lat="44.72848829687204" lon="10.226709805592732"><ele>148.0</ele><time>2026-04-25T10:19:15Z</time></trkpt><trkpt lat="44.72865218635369" lon="10.226678546301965"><ele>146.0</ele><time>2026-04-25T10:19:16Z</time></trkpt><trkpt lat="44.728788707026766" lon="10.22664991591083"><ele>144.0</ele><time>2026-04-25T10:19:17Z</time></trkpt><trkpt lat="44.72894328597156" lon="10.226625480393237"><ele>144.0</ele><time>2026-04-25T10:19:18Z</time></trkpt><trkpt lat="44.7291027956726" lon="10.226609732181736"><ele>144.0</ele><time>2026-04-25T10:19:19Z</time></trkpt><trkpt lat="44.729265533721566" lon="10.226584011605189"><ele>144.0</ele><time>2026-04-25T10:19:20Z</time></trkpt><trkpt lat="44.72943114238636" lon="10.226548420575742"><ele>143.0</ele><time>2026-04-25T10:19:21Z</time></trkpt><trkpt lat="44.729601462994275" lon="10.226515619426861"><ele>142.0</ele><time>2026-04-25T10:19:22Z</time></trkpt><trkpt lat="44.72977289010762" lon="10.22648728301528"><ele>141.0</ele><time>2026-04-25T10:19:23Z</time></trkpt><trkpt lat="44.72994705769968" lon="10.226454382800593"><ele>140.66666666666666</ele><time>2026-04-25T10:19:24Z</time></trkpt><trkpt lat="44.73011379711727" lon="10.226417066519424"><ele>140.33333333333331</ele><time>2026-04-25T10:19:25Z</time></trkpt><trkpt lat="44.73028436659296" lon="10.22638476508331"><ele>140.0</ele><time>2026-04-25T10:19:26Z</time></trkpt><trkpt lat="44.73045910344457" lon="10.226349468411712"><ele>141.33333333333331</ele><time>2026-04-25T10:19:27Z</time></trkpt><trkpt lat="44.73063934377492" lon="10.226304331393193"><ele>142.66666666666666</ele><time>2026-04-25T10:19:28Z</time></trkpt><trkpt lat="44.73082253566531" lon="10.226240562299724"><ele>144.0</ele><time>2026-04-25T10:19:29Z</time></trkpt><trkpt lat="44.73100171286766" lon="10.2261439930099"><ele>144.33333333333334</ele><time>2026-04-25T10:19:30Z</time></trkpt><trkpt lat="44.73117164119409" lon="10.226036683329506"><ele>144.66666666666669</ele><time>2026-04-25T10:19:31Z</time></trkpt><trkpt lat="44.7313438977385" lon="10.225942008340411"><ele>145.0</ele><time>2026-04-25T10:19:32Z</time></trkpt><trkpt lat="44.73150470589001" lon="10.22584875566897"><ele>145.0</ele><time>2026-04-25T10:19:33Z</time></trkpt><trkpt lat="44.731668796004406" lon="10.225761362193929"><ele>145.0</ele><time>2026-04-25T10:19:34Z</time></trkpt><trkpt lat="44.73185004511988" lon="10.22568796722491"><ele>145.0</ele><time>2026-04-25T10:19:35Z</time></trkpt><trkpt lat="44.732054725674985" lon="10.22567594445763"><ele>144.66666666666669</ele><time>2026-04-25T10:19:36Z</time></trkpt><trkpt lat="44.73227090746317" lon="10.225651820968753"><ele>144.33333333333334</ele><time>2026-04-25T10:19:37Z</time></trkpt><trkpt lat="44.732496677081826" lon="10.225626970505868"><ele>144.0</ele><time>2026-04-25T10:19:38Z</time></trkpt><trkpt lat="44.73272827340352" lon="10.225598053733886"><ele>140.5</ele><time>2026-04-25T10:19:39Z</time></trkpt><trkpt lat="44.73297000695092" lon="10.225593500468205"><ele>137.0</ele><time>2026-04-25T10:19:40Z</time></trkpt><trkpt lat="44.73320615213229" lon="10.225564666529374"><ele>137.0</ele><time>2026-04-25T10:19:41Z</time></trkpt><trkpt lat="44.73344606305827" lon="10.225542130713292"><ele>137.0</ele><time>2026-04-25T10:19:42Z</time></trkpt><trkpt lat="44.733687968490216" lon="10.22551543597978"><ele>135.5</ele><time>2026-04-25T10:19:43Z</time></trkpt><trkpt lat="44.73393240060148" lon="10.22549507129136"><ele>134.0</ele><time>2026-04-25T10:19:44Z</time></trkpt><trkpt lat="44.73417838234101" lon="10.225481137970718"><ele>134.0</ele><time>2026-04-25T10:19:45Z</time></trkpt><trkpt lat="44.73441638241561" lon="10.22547183854723"><ele>134.0</ele><time>2026-04-25T10:19:46Z</time></trkpt><trkpt lat="44.7346457775722" lon="10.225457600450765"><ele>134.0</ele><time>2026-04-25T10:19:46.999Z</time></trkpt><trkpt lat="44.734872592940086" lon="10.225437481718295"><ele>134.0</ele><time>2026-04-25T10:19:47.999Z</time></trkpt><trkpt lat="44.735077706332994" lon="10.225417457129975"><ele>134.0</ele><time>2026-04-25T10:19:48.999Z</time></trkpt><trkpt lat="44.73526659736559" lon="10.225403690620448"><ele>133.66666666666666</ele><time>2026-04-25T10:19:49.999Z</time></trkpt><trkpt lat="44.7354349635334" lon="10.225396791716037"><ele>133.33333333333334</ele><time>2026-04-25T10:19:50.999Z</time></trkpt><trkpt lat="44.735582187864985" lon="10.225388970007923"><ele>133.0</ele><time>2026-04-25T10:19:51.999Z</time></trkpt><trkpt lat="44.735716081145995" lon="10.225380268694954"><ele>133.0</ele><time>2026-04-25T10:19:52.999Z</time></trkpt><trkpt lat="44.73583504828069" lon="10.225372770591274"><ele>133.0</ele><time>2026-04-25T10:19:53.999Z</time></trkpt><trkpt lat="44.735941292930214" lon="10.225365267506398"><ele>133.0</ele><time>2026-04-25T10:19:54.999Z</time></trkpt><trkpt lat="44.73602706089427" lon="10.22536058081603"><ele>133.0</ele><time>2026-04-25T10:19:55.999Z</time></trkpt><trkpt lat="44.73610003481038" lon="10.225354789502083"><ele>133.0</ele><time>2026-04-25T10:19:56.999Z</time></trkpt><trkpt lat="44.73621811395507" lon="10.225350300066186"><ele>132.8</ele><time>2026-04-25T10:19:58.999Z</time></trkpt><trkpt lat="44.73628881941387" lon="10.225347591741043"><ele>132.60000000000002</ele><time>2026-04-25T10:19:59.999Z</time></trkpt><trkpt lat="44.73637411047298" lon="10.225339737868284"><ele>132.39999999999998</ele><time>2026-04-25T10:20:00.999Z</time></trkpt><trkpt lat="44.736468500119855" lon="10.225330465451123"><ele>132.2</ele><time>2026-04-25T10:20:01.999Z</time></trkpt><trkpt lat="44.73656992787766" lon="10.225320623275577"><ele>132.0</ele><time>2026-04-25T10:20:02.999Z</time></trkpt><trkpt lat="44.736676200145354" lon="10.225316559850356"><ele>132.0</ele><time>2026-04-25T10:20:03.999Z</time></trkpt><trkpt lat="44.7367871650478" lon="10.22531060571452"><ele>132.0</ele><time>2026-04-25T10:20:04.999Z</time></trkpt><trkpt lat="44.73691506678103" lon="10.225303505860126"><ele>132.0</ele><time>2026-04-25T10:20:05.999Z</time></trkpt><trkpt lat="44.73704428842675" lon="10.225294236591898"><ele>132.0</ele><time>2026-04-25T10:20:06.999Z</time></trkpt><trkpt lat="44.73717904473473" lon="10.225283578232688"><ele>131.75</ele><time>2026-04-25T10:20:07.999Z</time></trkpt><trkpt lat="44.737316937931865" lon="10.225274940409234"><ele>131.5</ele><time>2026-04-25T10:20:08.999Z</time></trkpt><trkpt lat="44.73745937729591" lon="10.225270052035253"><ele>131.25</ele><time>2026-04-25T10:20:09.999Z</time></trkpt><trkpt lat="44.73760643919413" lon="10.225263516146962"><ele>131.0</ele><time>2026-04-25T10:20:10.999Z</time></trkpt><trkpt lat="44.73776024534089" lon="10.225251004345463"><ele>130.0</ele><time>2026-04-25T10:20:11.999Z</time></trkpt><trkpt lat="44.73791816915828" lon="10.225235856802108"><ele>129.0</ele><time>2026-04-25T10:20:12.999Z</time></trkpt><trkpt lat="44.738081901064014" lon="10.225222960494985"><ele>128.0</ele><time>2026-04-25T10:20:13.999Z</time></trkpt><trkpt lat="44.73824993684524" lon="10.225215123318304"><ele>128.0</ele><time>2026-04-25T10:20:14.999Z</time></trkpt><trkpt lat="44.73842938715044" lon="10.22520585009786"><ele>128.0</ele><time>2026-04-25T10:20:15.999Z</time></trkpt><trkpt lat="44.73864660169744" lon="10.22520272700146"><ele>128.0</ele><time>2026-04-25T10:20:16.999Z</time></trkpt><trkpt lat="44.738879554237776" lon="10.22518878966073"><ele>127.5</ele><time>2026-04-25T10:20:17.999Z</time></trkpt><trkpt lat="44.73911445026356" lon="10.225174832571664"><ele>127.0</ele><time>2026-04-25T10:20:18.999Z</time></trkpt><trkpt lat="44.739370406710364" lon="10.225149628337233"><ele>127.5</ele><time>2026-04-25T10:20:19.999Z</time></trkpt><trkpt lat="44.73963295154748" lon="10.225151374680088"><ele>128.0</ele><time>2026-04-25T10:20:20.999Z</time></trkpt><trkpt lat="44.739897017084964" lon="10.22513719133439"><ele>128.0</ele><time>2026-04-25T10:20:21.999Z</time></trkpt><trkpt lat="44.740157979022136" lon="10.225116968642505"><ele>128.0</ele><time>2026-04-25T10:20:22.999Z</time></trkpt><trkpt lat="44.74040611100354" lon="10.225098928621723"><ele>128.0</ele><time>2026-04-25T10:20:23.999Z</time></trkpt><trkpt lat="44.74063110724786" lon="10.225082747947866"><ele>128.0</ele><time>2026-04-25T10:20:24.999Z</time></trkpt><trkpt lat="44.7408535729336" lon="10.22507183004881"><ele>128.0</ele><time>2026-04-25T10:20:25.999Z</time></trkpt><trkpt lat="44.741084257440754" lon="10.225057325619371"><ele>127.5</ele><time>2026-04-25T10:20:26.999Z</time></trkpt><trkpt lat="44.74132014881714" lon="10.22504243418654"><ele>127.0</ele><time>2026-04-25T10:20:27.999Z</time></trkpt><trkpt lat="44.74154632144689" lon="10.225028548301538"><ele>127.0</ele><time>2026-04-25T10:20:28.999Z</time></trkpt><trkpt lat="44.74176102640991" lon="10.22501640813112"><ele>127.0</ele><time>2026-04-25T10:20:29.999Z</time></trkpt><trkpt lat="44.741954030923154" lon="10.225006712829709"><ele>127.0</ele><time>2026-04-25T10:20:30.999Z</time></trkpt><trkpt lat="44.74214246919087" lon="10.22499240265397"><ele>126.75</ele><time>2026-04-25T10:20:31.999Z</time></trkpt><trkpt lat="44.742312251705236" lon="10.224981547045175"><ele>126.5</ele><time>2026-04-25T10:20:32.999Z</time></trkpt><trkpt lat="44.7424610958276" lon="10.224975165932781"><ele>126.25</ele><time>2026-04-25T10:20:33.999Z</time></trkpt><trkpt lat="44.74258684787311" lon="10.224967378534597"><ele>126.0</ele><time>2026-04-25T10:20:34.999Z</time></trkpt><trkpt lat="44.74269386738398" lon="10.22495974166821"><ele>125.6</ele><time>2026-04-25T10:20:35.999Z</time></trkpt><trkpt lat="44.74279229996158" lon="10.224951003739033"><ele>125.19999999999999</ele><time>2026-04-25T10:20:36.999Z</time></trkpt><trkpt lat="44.742888220252695" lon="10.224944059486033"><ele>124.80000000000001</ele><time>2026-04-25T10:20:37.999Z</time></trkpt><trkpt lat="44.74297896333795" lon="10.224941727260452"><ele>124.4</ele><time>2026-04-25T10:20:38.999Z</time></trkpt><trkpt lat="44.743082512234224" lon="10.22493405758383"><ele>124.0</ele><time>2026-04-25T10:20:39.999Z</time></trkpt><trkpt lat="44.74319849182935" lon="10.224926951581994"><ele>124.0</ele><time>2026-04-25T10:20:40.999Z</time></trkpt><trkpt lat="44.743327821359536" lon="10.224922494647375"><ele>124.0</ele><time>2026-04-25T10:20:41.999Z</time></trkpt><trkpt lat="44.74345930317034" lon="10.224917094949527"><ele>124.0</ele><time>2026-04-25T10:20:42.999Z</time></trkpt><trkpt lat="44.74359584431129" lon="10.224904522996251"><ele>124.0</ele><time>2026-04-25T10:20:44Z</time></trkpt><trkpt lat="44.74372297941751" lon="10.224892981917982"><ele>124.0</ele><time>2026-04-25T10:20:45Z</time></trkpt><trkpt lat="44.743839786316684" lon="10.22489317577799"><ele>124.0</ele><time>2026-04-25T10:20:46Z</time></trkpt><trkpt lat="44.74394795877311" lon="10.224906364768438"><ele>124.0</ele><time>2026-04-25T10:20:47Z</time></trkpt><trkpt lat="44.74404709493676" lon="10.224931410175659"><ele>124.0</ele><time>2026-04-25T10:20:48Z</time></trkpt><trkpt lat="44.74413941194569" lon="10.224967372744523"><ele>124.0</ele><time>2026-04-25T10:20:49Z</time></trkpt><trkpt lat="44.744224584572166" lon="10.224991020424662"><ele>124.0</ele><time>2026-04-25T10:20:50Z</time></trkpt><trkpt lat="44.74429895691199" lon="10.224957716941123"><ele>124.0</ele><time>2026-04-25T10:20:51Z</time></trkpt><trkpt lat="44.74436110598026" lon="10.22485396207744"><ele>124.0</ele><time>2026-04-25T10:20:52Z</time></trkpt><trkpt lat="44.7444120367018" lon="10.224734685947725"><ele>124.0</ele><time>2026-04-25T10:20:53Z</time></trkpt><trkpt lat="44.74451360123026" lon="10.224645523906332"><ele>124.0</ele><time>2026-04-25T10:20:54Z</time></trkpt><trkpt lat="44.74465645447447" lon="10.224535881295042"><ele>123.66666666666667</ele><time>2026-04-25T10:20:55Z</time></trkpt><trkpt lat="44.74483697831302" lon="10.224403003452492"><ele>123.33333333333334</ele><time>2026-04-25T10:20:56Z</time></trkpt><trkpt lat="44.74502704254041" lon="10.224264200152108"><ele>123.0</ele><time>2026-04-25T10:20:57Z</time></trkpt><trkpt lat="44.74522916145902" lon="10.224113769162608"><ele>122.5</ele><time>2026-04-25T10:20:58Z</time></trkpt><trkpt lat="44.74545280544687" lon="10.22395988756809"><ele>122.0</ele><time>2026-04-25T10:20:59Z</time></trkpt><trkpt lat="44.74568160723422" lon="10.223817298101405"><ele>122.0</ele><time>2026-04-25T10:21:00Z</time></trkpt><trkpt lat="44.74590583273432" lon="10.223724902369415"><ele>122.0</ele><time>2026-04-25T10:21:01Z</time></trkpt><trkpt lat="44.74614959481117" lon="10.223690571769827"><ele>121.5</ele><time>2026-04-25T10:21:02Z</time></trkpt><trkpt lat="44.74639473221892" lon="10.223675049987472"><ele>121.0</ele><time>2026-04-25T10:21:03Z</time></trkpt><trkpt lat="44.74663868361458" lon="10.223675347523226"><ele>121.0</ele><time>2026-04-25T10:21:04Z</time></trkpt><trkpt lat="44.74685518988699" lon="10.223708581943496"><ele>121.0</ele><time>2026-04-25T10:21:05Z</time></trkpt><trkpt lat="44.74705887011394" lon="10.223736776218097"><ele>121.0</ele><time>2026-04-25T10:21:06Z</time></trkpt><trkpt lat="44.74724637153712" lon="10.223760694365204"><ele>121.0</ele><time>2026-04-25T10:21:07Z</time></trkpt><trkpt lat="44.7474016680183" lon="10.223776233705106"><ele>121.0</ele><time>2026-04-25T10:21:08Z</time></trkpt><trkpt lat="44.747545111839855" lon="10.223795068088195"><ele>121.0</ele><time>2026-04-25T10:21:09Z</time></trkpt><trkpt lat="44.74768150007665" lon="10.223811404267106"><ele>121.0</ele><time>2026-04-25T10:21:10Z</time></trkpt><trkpt lat="44.74781033219892" lon="10.22382782871909"><ele>120.5</ele><time>2026-04-25T10:21:11Z</time></trkpt><trkpt lat="44.74792884961295" lon="10.223842871763487"><ele>120.0</ele><time>2026-04-25T10:21:12Z</time></trkpt><trkpt lat="44.74803554341321" lon="10.22385544927787"><ele>119.5</ele><time>2026-04-25T10:21:13Z</time></trkpt><trkpt lat="44.748142667965915" lon="10.223867299851053"><ele>119.0</ele><time>2026-04-25T10:21:14Z</time></trkpt><trkpt lat="44.74827113424627" lon="10.223881756574913"><ele>119.0</ele><time>2026-04-25T10:21:15Z</time></trkpt><trkpt lat="44.74840473196608" lon="10.223898524637336"><ele>119.0</ele><time>2026-04-25T10:21:16Z</time></trkpt><trkpt lat="44.74854246802461" lon="10.223917272723783"><ele>119.0</ele><time>2026-04-25T10:21:17Z</time></trkpt><trkpt lat="44.74868626905019" lon="10.2239383507206"><ele>119.0</ele><time>2026-04-25T10:21:18Z</time></trkpt><trkpt lat="44.748835167837264" lon="10.22395757425613"><ele>119.0</ele><time>2026-04-25T10:21:19Z</time></trkpt><trkpt lat="44.74898222381985" lon="10.223973895080361"><ele>119.0</ele><time>2026-04-25T10:21:20Z</time></trkpt><trkpt lat="44.74912686699218" lon="10.223990269566306"><ele>119.0</ele><time>2026-04-25T10:21:21Z</time></trkpt><trkpt lat="44.74926808595178" lon="10.224009845815024"><ele>119.0</ele><time>2026-04-25T10:21:22Z</time></trkpt><trkpt lat="44.74940906247457" lon="10.224032779773053"><ele>118.5</ele><time>2026-04-25T10:21:23Z</time></trkpt><trkpt lat="44.74954837582185" lon="10.224054961267353"><ele>118.0</ele><time>2026-04-25T10:21:24Z</time></trkpt><trkpt lat="44.74968442884503" lon="10.224078124440211"><ele>117.5</ele><time>2026-04-25T10:21:25Z</time></trkpt><trkpt lat="44.74982824994837" lon="10.224084323281582"><ele>117.0</ele><time>2026-04-25T10:21:26Z</time></trkpt><trkpt lat="44.74996357485592" lon="10.224106476026636"><ele>117.0</ele><time>2026-04-25T10:21:27Z</time></trkpt><trkpt lat="44.7500955807767" lon="10.224127114033458"><ele>117.0</ele><time>2026-04-25T10:21:28Z</time></trkpt><trkpt lat="44.75022122587776" lon="10.224145672304468"><ele>117.0</ele><time>2026-04-25T10:21:29Z</time></trkpt><trkpt lat="44.75033837164439" lon="10.224161487344588"><ele>117.0</ele><time>2026-04-25T10:21:30Z</time></trkpt><trkpt lat="44.750452151575516" lon="10.224174523304443"><ele>117.0</ele><time>2026-04-25T10:21:31Z</time></trkpt><trkpt lat="44.750572689467205" lon="10.224189545479353"><ele>117.0</ele><time>2026-04-25T10:21:32Z</time></trkpt><trkpt lat="44.750695088573735" lon="10.224201282267833"><ele>117.0</ele><time>2026-04-25T10:21:33Z</time></trkpt><trkpt lat="44.75082532359047" lon="10.224214281007335"><ele>117.0</ele><time>2026-04-25T10:21:34Z</time></trkpt><trkpt lat="44.75095727557428" lon="10.224230172374284"><ele>117.0</ele><time>2026-04-25T10:21:35Z</time></trkpt><trkpt lat="44.75109309072704" lon="10.22424959893442"><ele>117.0</ele><time>2026-04-25T10:21:36Z</time></trkpt><trkpt lat="44.75123172890707" lon="10.22426913680418"><ele>117.0</ele><time>2026-04-25T10:21:37Z</time></trkpt><trkpt lat="44.75137164648486" lon="10.224290846641246"><ele>117.0</ele><time>2026-04-25T10:21:38Z</time></trkpt><trkpt lat="44.75150033569261" lon="10.224304522621145"><ele>117.0</ele><time>2026-04-25T10:21:39Z</time></trkpt><trkpt lat="44.75162106649604" lon="10.22431552999297"><ele>116.99999999999999</ele><time>2026-04-25T10:21:40Z</time></trkpt><trkpt lat="44.75173312132232" lon="10.22432546868878"><ele>116.99999999999999</ele><time>2026-04-25T10:21:41Z</time></trkpt><trkpt lat="44.75183730475375" lon="10.224333579712221"><ele>117.0</ele><time>2026-04-25T10:21:42Z</time></trkpt><trkpt lat="44.75191763876209" lon="10.224349881610252"><ele>117.0</ele><time>2026-04-25T10:21:43Z</time></trkpt><trkpt lat="44.751985328866006" lon="10.224368938808212"><ele>116.8</ele><time>2026-04-25T10:21:44Z</time></trkpt><trkpt lat="44.75210100202654" lon="10.224392557115557"><ele>116.6</ele><time>2026-04-25T10:21:46Z</time></trkpt><trkpt lat="44.75220645867315" lon="10.224408116742723"><ele>116.39999999999999</ele><time>2026-04-25T10:21:48Z</time></trkpt><trkpt lat="44.75228843747805" lon="10.224442070154376"><ele>116.19999999999999</ele><time>2026-04-25T10:21:49.999Z</time></trkpt><trkpt lat="44.752369522682926" lon="10.224534439397187"><ele>116.0</ele><time>2026-04-25T10:21:51.999Z</time></trkpt><trkpt lat="44.752424091618224" lon="10.224599638328119"><ele>116.0</ele><time>2026-04-25T10:21:52.999Z</time></trkpt><trkpt lat="44.7524954778382" lon="10.224658696566937"><ele>116.0</ele><time>2026-04-25T10:21:53.999Z</time></trkpt><trkpt lat="44.75257998100119" lon="10.224713786888147"><ele>116.0</ele><time>2026-04-25T10:21:54.999Z</time></trkpt><trkpt lat="44.75267015343629" lon="10.224788115867652"><ele>116.0</ele><time>2026-04-25T10:21:55.999Z</time></trkpt><trkpt lat="44.75274507708476" lon="10.224879475352916"><ele>116.0</ele><time>2026-04-25T10:21:56.999Z</time></trkpt><trkpt lat="44.75280444429389" lon="10.224997534939872"><ele>116.0</ele><time>2026-04-25T10:21:57.999Z</time></trkpt><trkpt lat="44.752862665222096" lon="10.225135090800716"><ele>116.0</ele><time>2026-04-25T10:21:58.999Z</time></trkpt><trkpt lat="44.7529397065262" lon="10.225295776419085"><ele>116.0</ele><time>2026-04-25T10:21:59.999Z</time></trkpt><trkpt lat="44.753020698061455" lon="10.225463404849123"><ele>116.0</ele><time>2026-04-25T10:22:00.999Z</time></trkpt><trkpt lat="44.75309838570661" lon="10.225630410725861"><ele>116.25</ele><time>2026-04-25T10:22:01.999Z</time></trkpt><trkpt lat="44.753181265706885" lon="10.225802344410136"><ele>116.5</ele><time>2026-04-25T10:22:02.999Z</time></trkpt><trkpt lat="44.753257814604915" lon="10.225961256511038"><ele>116.75</ele><time>2026-04-25T10:22:03.999Z</time></trkpt><trkpt lat="44.753324449232565" lon="10.226110199147824"><ele>117.0</ele><time>2026-04-25T10:22:04.999Z</time></trkpt><trkpt lat="44.75338375618473" lon="10.226245225961511"><ele>117.0</ele><time>2026-04-25T10:22:05.999Z</time></trkpt><trkpt lat="44.75344133447969" lon="10.226371530101618"><ele>116.99999999999999</ele><time>2026-04-25T10:22:06.999Z</time></trkpt><trkpt lat="44.753493024913354" lon="10.226489254828998"><ele>116.99999999999999</ele><time>2026-04-25T10:22:07.999Z</time></trkpt><trkpt lat="44.753536761441815" lon="10.226599856543208"><ele>117.0</ele><time>2026-04-25T10:22:08.999Z</time></trkpt><trkpt lat="44.753582623763066" lon="10.2267005277514"><ele>117.0</ele><time>2026-04-25T10:22:09.999Z</time></trkpt><trkpt lat="44.75363720865309" lon="10.226806993168577"><ele>116.6</ele><time>2026-04-25T10:22:10.999Z</time></trkpt><trkpt lat="44.75370040262833" lon="10.226916835770243"><ele>116.19999999999999</ele><time>2026-04-25T10:22:11.999Z</time></trkpt><trkpt lat="44.75376660822822" lon="10.227006012814224"><ele>115.8</ele><time>2026-04-25T10:22:12.999Z</time></trkpt><trkpt lat="44.753827722454176" lon="10.227092848201625"><ele>115.4</ele><time>2026-04-25T10:22:13.999Z</time></trkpt><trkpt lat="44.753879051249804" lon="10.227192442971866"><ele>115.0</ele><time>2026-04-25T10:22:14.999Z</time></trkpt><trkpt lat="44.75392725151011" lon="10.227305462738741"><ele>114.8</ele><time>2026-04-25T10:22:15.999Z</time></trkpt><trkpt lat="44.75398162688676" lon="10.22741663087827"><ele>114.6</ele><time>2026-04-25T10:22:16.999Z</time></trkpt><trkpt lat="44.75403361823259" lon="10.22752899324539"><ele>114.4</ele><time>2026-04-25T10:22:17.999Z</time></trkpt><trkpt lat="44.7540815317393" lon="10.227656345325087"><ele>114.2</ele><time>2026-04-25T10:22:18.999Z</time></trkpt><trkpt lat="44.754120850415134" lon="10.22779379368169"><ele>114.0</ele><time>2026-04-25T10:22:19.999Z</time></trkpt><trkpt lat="44.75416513115772" lon="10.227934179682245"><ele>114.0</ele><time>2026-04-25T10:22:20.999Z</time></trkpt><trkpt lat="44.75422245118726" lon="10.228069647044068"><ele>114.0</ele><time>2026-04-25T10:22:21.999Z</time></trkpt><trkpt lat="44.75429273175666" lon="10.228208745908276"><ele>114.0</ele><time>2026-04-25T10:22:22.999Z</time></trkpt><trkpt lat="44.75436604650976" lon="10.22835365512212"><ele>114.0</ele><time>2026-04-25T10:22:23.999Z</time></trkpt><trkpt lat="44.754439273895784" lon="10.228512754014906"><ele>113.75</ele><time>2026-04-25T10:22:24.999Z</time></trkpt><trkpt lat="44.754511317741944" lon="10.22867488646855"><ele>113.5</ele><time>2026-04-25T10:22:25.999Z</time></trkpt><trkpt lat="44.75458813211047" lon="10.2288385584108"><ele>113.25</ele><time>2026-04-25T10:22:26.999Z</time></trkpt><trkpt lat="44.75466528969562" lon="10.229004592648494"><ele>113.0</ele><time>2026-04-25T10:22:27.999Z</time></trkpt><trkpt lat="44.754738759750694" lon="10.229169338352744"><ele>112.75</ele><time>2026-04-25T10:22:28.999Z</time></trkpt><trkpt lat="44.75481170675971" lon="10.229333440716102"><ele>112.5</ele><time>2026-04-25T10:22:29.999Z</time></trkpt><trkpt lat="44.75488587293556" lon="10.229490521607104"><ele>112.25</ele><time>2026-04-25T10:22:30.999Z</time></trkpt><trkpt lat="44.754963681615635" lon="10.229648878286115"><ele>112.0</ele><time>2026-04-25T10:22:31.999Z</time></trkpt><trkpt lat="44.755037788209485" lon="10.229815425762164"><ele>112.0</ele><time>2026-04-25T10:22:32.999Z</time></trkpt><trkpt lat="44.755115603093905" lon="10.229985128039736"><ele>112.0</ele><time>2026-04-25T10:22:33.999Z</time></trkpt><trkpt lat="44.75519381987063" lon="10.230142464302032"><ele>112.0</ele><time>2026-04-25T10:22:34.999Z</time></trkpt><trkpt lat="44.75527495746907" lon="10.23030006733401"><ele>112.0</ele><time>2026-04-25T10:22:35.999Z</time></trkpt><trkpt lat="44.755357172063164" lon="10.230440665955507"><ele>112.0</ele><time>2026-04-25T10:22:36.999Z</time></trkpt><trkpt lat="44.755434399739414" lon="10.23057887762193"><ele>112.0</ele><time>2026-04-25T10:22:37.999Z</time></trkpt><trkpt lat="44.75550579498516" lon="10.230722636898864"><ele>112.0</ele><time>2026-04-25T10:22:38.999Z</time></trkpt><trkpt lat="44.75556412426143" lon="10.230881743673534"><ele>112.0</ele><time>2026-04-25T10:22:39.999Z</time></trkpt><trkpt lat="44.7556100336551" lon="10.231058060716347"><ele>112.0</ele><time>2026-04-25T10:22:40.999Z</time></trkpt><trkpt lat="44.75566428512217" lon="10.231237701095974"><ele>112.0</ele><time>2026-04-25T10:22:41.999Z</time></trkpt><trkpt lat="44.75574507017049" lon="10.231397876197939"><ele>112.0</ele><time>2026-04-25T10:22:42.999Z</time></trkpt><trkpt lat="44.755857463541176" lon="10.23152635063471"><ele>112.0</ele><time>2026-04-25T10:22:43.999Z</time></trkpt><trkpt lat="44.75599043100197" lon="10.231642408255025"><ele>110.33333333333334</ele><time>2026-04-25T10:22:44.999Z</time></trkpt><trkpt lat="44.756100044326075" lon="10.23178321705724"><ele>108.66666666666666</ele><time>2026-04-25T10:22:45.999Z</time></trkpt><trkpt lat="44.75620818068179" lon="10.23193431376692"><ele>107.0</ele><time>2026-04-25T10:22:46.999Z</time></trkpt><trkpt lat="44.75623135692906" lon="10.232199683611011"><ele>107.33333333333333</ele><time>2026-04-25T10:22:47.999Z</time></trkpt><trkpt lat="44.756290373796524" lon="10.232430502579902"><ele>107.66666666666666</ele><time>2026-04-25T10:22:48.999Z</time></trkpt><trkpt lat="44.75635728946249" lon="10.232644748986694"><ele>108.0</ele><time>2026-04-25T10:22:50Z</time></trkpt><trkpt lat="44.756437108389626" lon="10.232859666974193"><ele>108.0</ele><time>2026-04-25T10:22:51Z</time></trkpt><trkpt lat="44.75653058371186" lon="10.233063676823281"><ele>108.0</ele><time>2026-04-25T10:22:52Z</time></trkpt><trkpt lat="44.75663206250368" lon="10.233271954401967"><ele>108.0</ele><time>2026-04-25T10:22:53Z</time></trkpt><trkpt lat="44.75673197516996" lon="10.233483945048421"><ele>108.0</ele><time>2026-04-25T10:22:54Z</time></trkpt><trkpt lat="44.75682926308697" lon="10.233688655139591"><ele>108.0</ele><time>2026-04-25T10:22:55Z</time></trkpt><trkpt lat="44.75692435679413" lon="10.233891512378689"><ele>108.0</ele><time>2026-04-25T10:22:56Z</time></trkpt><trkpt lat="44.75702245633962" lon="10.234102475626957"><ele>109.0</ele><time>2026-04-25T10:22:57Z</time></trkpt><trkpt lat="44.75711652747776" lon="10.234310188254678"><ele>110.0</ele><time>2026-04-25T10:22:58Z</time></trkpt><trkpt lat="44.757210908754246" lon="10.234508948985777"><ele>111.0</ele><time>2026-04-25T10:22:59Z</time></trkpt><trkpt lat="44.75730527113367" lon="10.234705099632635"><ele>111.0</ele><time>2026-04-25T10:23:00Z</time></trkpt><trkpt lat="44.757398036599504" lon="10.234899517027825"><ele>111.0</ele><time>2026-04-25T10:23:01Z</time></trkpt><trkpt lat="44.75748635065577" lon="10.235099157114973"><ele>111.0</ele><time>2026-04-25T10:23:02Z</time></trkpt><trkpt lat="44.75757229329329" lon="10.235294564444292"><ele>111.0</ele><time>2026-04-25T10:23:03Z</time></trkpt><trkpt lat="44.757658507559505" lon="10.235495465394164"><ele>111.0</ele><time>2026-04-25T10:23:04Z</time></trkpt><trkpt lat="44.757751512576654" lon="10.235687705975973"><ele>111.0</ele><time>2026-04-25T10:23:05Z</time></trkpt><trkpt lat="44.75784519286936" lon="10.235878965805771"><ele>110.0</ele><time>2026-04-25T10:23:06Z</time></trkpt><trkpt lat="44.75793774514243" lon="10.236071364803584"><ele>109.0</ele><time>2026-04-25T10:23:07Z</time></trkpt><trkpt lat="44.75802607358764" lon="10.236268508117988"><ele>108.0</ele><time>2026-04-25T10:23:08Z</time></trkpt><trkpt lat="44.75811533725262" lon="10.236458816465348"><ele>108.0</ele><time>2026-04-25T10:23:09Z</time></trkpt><trkpt lat="44.758207735933944" lon="10.236660514195417"><ele>108.0</ele><time>2026-04-25T10:23:10Z</time></trkpt><trkpt lat="44.758290050703735" lon="10.236842009001547"><ele>108.0</ele><time>2026-04-25T10:23:11Z</time></trkpt><trkpt lat="44.758367260980705" lon="10.237006612559414"><ele>108.0</ele><time>2026-04-25T10:23:12Z</time></trkpt><trkpt lat="44.758439468414544" lon="10.23715702945954"><ele>108.0</ele><time>2026-04-25T10:23:13Z</time></trkpt><trkpt lat="44.758505409213896" lon="10.237299331846728"><ele>108.0</ele><time>2026-04-25T10:23:14Z</time></trkpt><trkpt lat="44.75856667189416" lon="10.23743925741727"><ele>108.0</ele><time>2026-04-25T10:23:15Z</time></trkpt><trkpt lat="44.758625209638744" lon="10.237582699568552"><ele>108.0</ele><time>2026-04-25T10:23:16Z</time></trkpt><trkpt lat="44.75868801850979" lon="10.237729029084017"><ele>108.0</ele><time>2026-04-25T10:23:17Z</time></trkpt><trkpt lat="44.758757016767234" lon="10.237873236022253"><ele>108.0</ele><time>2026-04-25T10:23:18Z</time></trkpt><trkpt lat="44.758828804825434" lon="10.238017914273076"><ele>108.0</ele><time>2026-04-25T10:23:19Z</time></trkpt><trkpt lat="44.75889708399613" lon="10.238154733363896"><ele>108.0</ele><time>2026-04-25T10:23:20Z</time></trkpt><trkpt lat="44.75895567910132" lon="10.238286620109099"><ele>108.0</ele><time>2026-04-25T10:23:21Z</time></trkpt><trkpt lat="44.759011900478654" lon="10.238416122288383"><ele>108.0</ele><time>2026-04-25T10:23:22Z</time></trkpt><trkpt lat="44.759072831767725" lon="10.238551335557053"><ele>108.0</ele><time>2026-04-25T10:23:23Z</time></trkpt><trkpt lat="44.7591412399241" lon="10.238698702850687"><ele>108.0</ele><time>2026-04-25T10:23:24Z</time></trkpt><trkpt lat="44.75920748738128" lon="10.238844126593483"><ele>108.0</ele><time>2026-04-25T10:23:25Z</time></trkpt><trkpt lat="44.759276230316" lon="10.238993695462728"><ele>108.0</ele><time>2026-04-25T10:23:26Z</time></trkpt><trkpt lat="44.75934807530642" lon="10.239148070247913"><ele>108.0</ele><time>2026-04-25T10:23:27Z</time></trkpt><trkpt lat="44.75941936166802" lon="10.239303254774088"><ele>107.75</ele><time>2026-04-25T10:23:28Z</time></trkpt><trkpt lat="44.75948997930308" lon="10.239460413155578"><ele>107.5</ele><time>2026-04-25T10:23:29Z</time></trkpt><trkpt lat="44.75956466502514" lon="10.23962059097989"><ele>107.25</ele><time>2026-04-25T10:23:30Z</time></trkpt><trkpt lat="44.75964273103665" lon="10.239791305987003"><ele>107.0</ele><time>2026-04-25T10:23:31Z</time></trkpt><trkpt lat="44.75972377485738" lon="10.239969326181063"><ele>108.66666666666666</ele><time>2026-04-25T10:23:32Z</time></trkpt><trkpt lat="44.75980845508594" lon="10.240151996893474"><ele>110.33333333333334</ele><time>2026-04-25T10:23:33Z</time></trkpt><trkpt lat="44.759894552231685" lon="10.240337011555232"><ele>112.0</ele><time>2026-04-25T10:23:34Z</time></trkpt><trkpt lat="44.759980276147346" lon="10.240523216434875"><ele>111.66666666666667</ele><time>2026-04-25T10:23:35Z</time></trkpt><trkpt lat="44.76006649791455" lon="10.240715288051403"><ele>111.33333333333334</ele><time>2026-04-25T10:23:36Z</time></trkpt><trkpt lat="44.76015309075974" lon="10.240907638178921"><ele>111.0</ele><time>2026-04-25T10:23:37Z</time></trkpt><trkpt lat="44.760243376208216" lon="10.241097905738869"><ele>110.66666666666666</ele><time>2026-04-25T10:23:38Z</time></trkpt><trkpt lat="44.76034157285546" lon="10.24129939761735"><ele>110.33333333333333</ele><time>2026-04-25T10:23:39Z</time></trkpt><trkpt lat="44.760431866701744" lon="10.241492500410224"><ele>110.0</ele><time>2026-04-25T10:23:40Z</time></trkpt><trkpt lat="44.76052264094331" lon="10.241686844790243"><ele>109.66666666666666</ele><time>2026-04-25T10:23:41Z</time></trkpt><trkpt lat="44.7606137558671" lon="10.241887024383258"><ele>109.33333333333334</ele><time>2026-04-25T10:23:42Z</time></trkpt><trkpt lat="44.76071139987752" lon="10.242085775976077"><ele>109.0</ele><time>2026-04-25T10:23:43Z</time></trkpt><trkpt lat="44.760807515272404" lon="10.2422855820201"><ele>109.0</ele><time>2026-04-25T10:23:44Z</time></trkpt><trkpt lat="44.760902638785254" lon="10.242492852492111"><ele>109.0</ele><time>2026-04-25T10:23:45Z</time></trkpt><trkpt lat="44.7609970544577" lon="10.242699107302588"><ele>109.0</ele><time>2026-04-25T10:23:46Z</time></trkpt><trkpt lat="44.761092956213254" lon="10.242906822362547"><ele>108.0</ele><time>2026-04-25T10:23:47Z</time></trkpt><trkpt lat="44.761186045686614" lon="10.243111821373997"><ele>107.0</ele><time>2026-04-25T10:23:48Z</time></trkpt><trkpt lat="44.761280441334634" lon="10.243323381505753"><ele>106.0</ele><time>2026-04-25T10:23:49Z</time></trkpt><trkpt lat="44.76137711925733" lon="10.243537496329395"><ele>105.0</ele><time>2026-04-25T10:23:50Z</time></trkpt><trkpt lat="44.76147333051753" lon="10.243752218018296"><ele>104.0</ele><time>2026-04-25T10:23:51Z</time></trkpt><trkpt lat="44.7615718066766" lon="10.243968817963282"><ele>103.0</ele><time>2026-04-25T10:23:52Z</time></trkpt><trkpt lat="44.761671097383996" lon="10.244181145573846"><ele>102.66666666666667</ele><time>2026-04-25T10:23:53Z</time></trkpt><trkpt lat="44.761766506718324" lon="10.24438409904139"><ele>102.33333333333334</ele><time>2026-04-25T10:23:54Z</time></trkpt><trkpt lat="44.761864797229755" lon="10.244589953135852"><ele>102.0</ele><time>2026-04-25T10:23:55Z</time></trkpt><trkpt lat="44.761964009204746" lon="10.24479475854209"><ele>102.0</ele><time>2026-04-25T10:23:56Z</time></trkpt><trkpt lat="44.76206287315271" lon="10.24500188727878"><ele>102.0</ele><time>2026-04-25T10:23:56.999Z</time></trkpt><trkpt lat="44.76216681128897" lon="10.245215071639409"><ele>102.0</ele><time>2026-04-25T10:23:57.999Z</time></trkpt><trkpt lat="44.76226941293028" lon="10.245426054474672"><ele>102.66666666666666</ele><time>2026-04-25T10:23:58.999Z</time></trkpt><trkpt lat="44.76237468970733" lon="10.245639213559764"><ele>103.33333333333333</ele><time>2026-04-25T10:23:59.999Z</time></trkpt><trkpt lat="44.76248027151573" lon="10.24585299714709"><ele>104.0</ele><time>2026-04-25T10:24:00.999Z</time></trkpt><trkpt lat="44.762580896147455" lon="10.246070645394148"><ele>104.0</ele><time>2026-04-25T10:24:01.999Z</time></trkpt><trkpt lat="44.76267508424548" lon="10.2462811605413"><ele>104.0</ele><time>2026-04-25T10:24:02.999Z</time></trkpt><trkpt lat="44.762768488961186" lon="10.24648150240792"><ele>104.0</ele><time>2026-04-25T10:24:03.999Z</time></trkpt><trkpt lat="44.7628640061013" lon="10.246677866260603"><ele>103.66666666666666</ele><time>2026-04-25T10:24:04.999Z</time></trkpt><trkpt lat="44.7629602247702" lon="10.246881391789904"><ele>103.33333333333334</ele><time>2026-04-25T10:24:05.999Z</time></trkpt><trkpt lat="44.763047250698456" lon="10.247075562760855"><ele>103.0</ele><time>2026-04-25T10:24:06.999Z</time></trkpt><trkpt lat="44.76314424371871" lon="10.247271128736989"><ele>103.66666666666667</ele><time>2026-04-25T10:24:07.999Z</time></trkpt><trkpt lat="44.76323570773453" lon="10.24747256779728"><ele>104.33333333333334</ele><time>2026-04-25T10:24:08.999Z</time></trkpt><trkpt lat="44.76332799975043" lon="10.24765770330207"><ele>105.0</ele><time>2026-04-25T10:24:09.999Z</time></trkpt><trkpt lat="44.7634164539572" lon="10.247838021789084"><ele>105.0</ele><time>2026-04-25T10:24:10.999Z</time></trkpt><trkpt lat="44.76350886363796" lon="10.248020933891627"><ele>105.0</ele><time>2026-04-25T10:24:11.999Z</time></trkpt><trkpt lat="44.763596776600245" lon="10.248206317174363"><ele>105.0</ele><time>2026-04-25T10:24:12.999Z</time></trkpt><trkpt lat="44.76368170120861" lon="10.248391073330113"><ele>103.66666666666666</ele><time>2026-04-25T10:24:13.999Z</time></trkpt><trkpt lat="44.76376659763096" lon="10.248580083286415"><ele>102.33333333333333</ele><time>2026-04-25T10:24:14.999Z</time></trkpt><trkpt lat="44.763850392959235" lon="10.248765476730698"><ele>101.0</ele><time>2026-04-25T10:24:15.999Z</time></trkpt><trkpt lat="44.7639320016076" lon="10.24893334792517"><ele>101.25</ele><time>2026-04-25T10:24:16.999Z</time></trkpt><trkpt lat="44.764010858537006" lon="10.24909574017329"><ele>101.5</ele><time>2026-04-25T10:24:17.999Z</time></trkpt><trkpt lat="44.76408322760768" lon="10.249253585265329"><ele>101.75</ele><time>2026-04-25T10:24:18.999Z</time></trkpt><trkpt lat="44.76415591195716" lon="10.24941609911514"><ele>102.0</ele><time>2026-04-25T10:24:19.999Z</time></trkpt><trkpt lat="44.76422732049189" lon="10.249585609114105"><ele>102.0</ele><time>2026-04-25T10:24:20.999Z</time></trkpt><trkpt lat="44.76430712096208" lon="10.249755251200309"><ele>102.0</ele><time>2026-04-25T10:24:21.999Z</time></trkpt><trkpt lat="44.76438666537666" lon="10.249917333770616"><ele>102.0</ele><time>2026-04-25T10:24:22.999Z</time></trkpt><trkpt lat="44.764465512103385" lon="10.250090723791564"><ele>102.0</ele><time>2026-04-25T10:24:23.999Z</time></trkpt><trkpt lat="44.76454483404573" lon="10.250264062096397"><ele>100.66666666666666</ele><time>2026-04-25T10:24:24.999Z</time></trkpt><trkpt lat="44.764629220021305" lon="10.250442614739521"><ele>99.33333333333333</ele><time>2026-04-25T10:24:25.999Z</time></trkpt><trkpt lat="44.76471380489563" lon="10.250626583795718"><ele>98.0</ele><time>2026-04-25T10:24:26.999Z</time></trkpt><trkpt lat="44.76479553187139" lon="10.250806980839947"><ele>98.0</ele><time>2026-04-25T10:24:27.999Z</time></trkpt><trkpt lat="44.76487724158089" lon="10.250990299369331"><ele>98.0</ele><time>2026-04-25T10:24:28.999Z</time></trkpt><trkpt lat="44.76495229438154" lon="10.251169380271314"><ele>98.0</ele><time>2026-04-25T10:24:29.999Z</time></trkpt><trkpt lat="44.765035459589186" lon="10.251352407457876"><ele>98.33333333333333</ele><time>2026-04-25T10:24:30.999Z</time></trkpt><trkpt lat="44.76512486154299" lon="10.251534780282162"><ele>98.66666666666666</ele><time>2026-04-25T10:24:31.999Z</time></trkpt><trkpt lat="44.765215271238986" lon="10.251727902904037"><ele>99.0</ele><time>2026-04-25T10:24:32.999Z</time></trkpt><trkpt lat="44.76530203901436" lon="10.251923793965204"><ele>98.66666666666666</ele><time>2026-04-25T10:24:33.999Z</time></trkpt><trkpt lat="44.76538876905356" lon="10.252120730758"><ele>98.33333333333333</ele><time>2026-04-25T10:24:34.999Z</time></trkpt><trkpt lat="44.76547538890875" lon="10.252318258187124"><ele>98.0</ele><time>2026-04-25T10:24:35.999Z</time></trkpt><trkpt lat="44.76556689686256" lon="10.25252422767732"><ele>98.0</ele><time>2026-04-25T10:24:36.999Z</time></trkpt><trkpt lat="44.76565754118533" lon="10.252726089740396"><ele>98.0</ele><time>2026-04-25T10:24:37.999Z</time></trkpt><trkpt lat="44.7657434767446" lon="10.252922770499245"><ele>98.0</ele><time>2026-04-25T10:24:38.999Z</time></trkpt><trkpt lat="44.765828773152684" lon="10.253113152325357"><ele>98.0</ele><time>2026-04-25T10:24:39.999Z</time></trkpt><trkpt lat="44.76591099294403" lon="10.253288541824906"><ele>98.0</ele><time>2026-04-25T10:24:40.999Z</time></trkpt><trkpt lat="44.765990720217694" lon="10.253452191864522"><ele>98.0</ele><time>2026-04-25T10:24:41.999Z</time></trkpt><trkpt lat="44.76605943820217" lon="10.253596455010774"><ele>98.0</ele><time>2026-04-25T10:24:42.999Z</time></trkpt><trkpt lat="44.766119644169336" lon="10.253724704977037"><ele>98.2</ele><time>2026-04-25T10:24:43.999Z</time></trkpt><trkpt lat="44.76616298999061" lon="10.253824390048969"><ele>98.4</ele><time>2026-04-25T10:24:44.999Z</time></trkpt><trkpt lat="44.76619957225848" lon="10.253905007344462"><ele>98.60000000000001</ele><time>2026-04-25T10:24:45.999Z</time></trkpt><trkpt lat="44.76626453759535" lon="10.254047405809809"><ele>98.80000000000001</ele><time>2026-04-25T10:24:47.999Z</time></trkpt><trkpt lat="44.76628968785433" lon="10.254130274412386"><ele>99.0</ele><time>2026-04-25T10:24:48.999Z</time></trkpt><trkpt lat="44.766357338637654" lon="10.25427774148661"><ele>98.25</ele><time>2026-04-25T10:24:50.999Z</time></trkpt><trkpt lat="44.76650457327128" lon="10.25412785421283"><ele>97.5</ele><time>2026-04-25T10:24:51.999Z</time></trkpt><trkpt lat="44.766594739645974" lon="10.254085405745458"><ele>96.75</ele><time>2026-04-25T10:24:52.999Z</time></trkpt><trkpt lat="44.766693253095504" lon="10.254069531803077"><ele>96.0</ele><time>2026-04-25T10:24:53.999Z</time></trkpt><trkpt lat="44.76678105245074" lon="10.254063581376396"><ele>96.0</ele><time>2026-04-25T10:24:54.999Z</time></trkpt><trkpt lat="44.766866935868336" lon="10.25409475057168"><ele>96.0</ele><time>2026-04-25T10:24:56Z</time></trkpt><trkpt lat="44.76696510089023" lon="10.25412834915135"><ele>96.0</ele><time>2026-04-25T10:24:57Z</time></trkpt><trkpt lat="44.76706048866749" lon="10.254156463070316"><ele>96.0</ele><time>2026-04-25T10:24:58Z</time></trkpt><trkpt lat="44.76715442496581" lon="10.254184569857497"><ele>96.0</ele><time>2026-04-25T10:24:59Z</time></trkpt><trkpt lat="44.767253143918396" lon="10.254214726610487"><ele>96.0</ele><time>2026-04-25T10:25:00Z</time></trkpt><trkpt lat="44.767357389230874" lon="10.254249487954798"><ele>96.0</ele><time>2026-04-25T10:25:01Z</time></trkpt><trkpt lat="44.76746527224935" lon="10.254284535855536"><ele>96.0</ele><time>2026-04-25T10:25:02Z</time></trkpt><trkpt lat="44.76757381129405" lon="10.254317691521466"><ele>96.0</ele><time>2026-04-25T10:25:03Z</time></trkpt><trkpt lat="44.76769133770542" lon="10.25434521676431"><ele>96.0</ele><time>2026-04-25T10:25:04Z</time></trkpt><trkpt lat="44.76780197697391" lon="10.254368089037651"><ele>96.0</ele><time>2026-04-25T10:25:05Z</time></trkpt><trkpt lat="44.767913306231165" lon="10.254397681007918"><ele>96.0</ele><time>2026-04-25T10:25:06Z</time></trkpt><trkpt lat="44.768026938025514" lon="10.254438724236817"><ele>96.0</ele><time>2026-04-25T10:25:07Z</time></trkpt><trkpt lat="44.768150716956995" lon="10.254475436665581"><ele>96.0</ele><time>2026-04-25T10:25:08Z</time></trkpt><trkpt lat="44.76827195411913" lon="10.2545062446705"><ele>96.0</ele><time>2026-04-25T10:25:09Z</time></trkpt><trkpt lat="44.76839219564732" lon="10.254541860905698"><ele>96.0</ele><time>2026-04-25T10:25:10Z</time></trkpt><trkpt lat="44.7685137085408" lon="10.254576655107101"><ele>96.0</ele><time>2026-04-25T10:25:11Z</time></trkpt><trkpt lat="44.768631177457586" lon="10.254606028060465"><ele>96.0</ele><time>2026-04-25T10:25:12Z</time></trkpt><trkpt lat="44.7687503003468" lon="10.254631927349457"><ele>95.0</ele><time>2026-04-25T10:25:13Z</time></trkpt><trkpt lat="44.76886993310952" lon="10.254663096559918"><ele>94.0</ele><time>2026-04-25T10:25:14Z</time></trkpt><trkpt lat="44.768992735980525" lon="10.254700042840309"><ele>93.0</ele><time>2026-04-25T10:25:15Z</time></trkpt><trkpt lat="44.769122092375056" lon="10.254737647716807"><ele>92.0</ele><time>2026-04-25T10:25:16Z</time></trkpt><trkpt lat="44.76925087284202" lon="10.25477516952595"><ele>92.0</ele><time>2026-04-25T10:25:17Z</time></trkpt><trkpt lat="44.769379231685946" lon="10.254809151943551"><ele>92.0</ele><time>2026-04-25T10:25:18Z</time></trkpt><trkpt lat="44.769508939085874" lon="10.254845300413146"><ele>92.0</ele><time>2026-04-25T10:25:19Z</time></trkpt><trkpt lat="44.76963225859408" lon="10.254875779614233"><ele>92.0</ele><time>2026-04-25T10:25:20Z</time></trkpt><trkpt lat="44.7697545513631" lon="10.254909913061194"><ele>92.0</ele><time>2026-04-25T10:25:21Z</time></trkpt><trkpt lat="44.769872305955296" lon="10.254944407757918"><ele>92.0</ele><time>2026-04-25T10:25:22Z</time></trkpt><trkpt lat="44.76999652425983" lon="10.254982856940016"><ele>92.0</ele><time>2026-04-25T10:25:23Z</time></trkpt><trkpt lat="44.770119597351965" lon="10.255016409132452"><ele>92.0</ele><time>2026-04-25T10:25:24Z</time></trkpt><trkpt lat="44.77023627156158" lon="10.255046236772511"><ele>92.0</ele><time>2026-04-25T10:25:25Z</time></trkpt><trkpt lat="44.770340456045055" lon="10.255071217894866"><ele>92.0</ele><time>2026-04-25T10:25:26Z</time></trkpt><trkpt lat="44.770437332971305" lon="10.255102036269724"><ele>92.0</ele><time>2026-04-25T10:25:27Z</time></trkpt><trkpt lat="44.77053193616184" lon="10.255130975178044"><ele>92.0</ele><time>2026-04-25T10:25:28Z</time></trkpt><trkpt lat="44.77061607953256" lon="10.25517437518268"><ele>92.0</ele><time>2026-04-25T10:25:29Z</time></trkpt><trkpt lat="44.77068502504984" lon="10.255198616646007"><ele>92.0</ele><time>2026-04-25T10:25:30Z</time></trkpt><trkpt lat="44.77068347929117" lon="10.255554130200672"><ele>92.0</ele><time>2026-04-25T10:25:32Z</time></trkpt><trkpt lat="44.77065737302776" lon="10.255760369174793"><ele>92.0</ele><time>2026-04-25T10:25:33Z</time></trkpt><trkpt lat="44.770630420326384" lon="10.255973290815179"><ele>92.0</ele><time>2026-04-25T10:25:34Z</time></trkpt><trkpt lat="44.770610113860535" lon="10.256189392449292"><ele>92.0</ele><time>2026-04-25T10:25:35Z</time></trkpt><trkpt lat="44.77058520954256" lon="10.256380013585828"><ele>92.0</ele><time>2026-04-25T10:25:36Z</time></trkpt><trkpt lat="44.77055913879592" lon="10.256553411331717"><ele>92.0</ele><time>2026-04-25T10:25:37Z</time></trkpt><trkpt lat="44.770547447278105" lon="10.256711378204477"><ele>92.0</ele><time>2026-04-25T10:25:38Z</time></trkpt><trkpt lat="44.77057702108395" lon="10.256852685852962"><ele>92.0</ele><time>2026-04-25T10:25:39Z</time></trkpt><trkpt lat="44.77065468114097" lon="10.256989671492555"><ele>92.0</ele><time>2026-04-25T10:25:40Z</time></trkpt><trkpt lat="44.77074539106916" lon="10.257167408948503"><ele>92.0</ele><time>2026-04-25T10:25:41Z</time></trkpt><trkpt lat="44.770851527030295" lon="10.257370583286212"><ele>91.66666666666667</ele><time>2026-04-25T10:25:42Z</time></trkpt><trkpt lat="44.770955111822126" lon="10.257584062031787"><ele>91.33333333333333</ele><time>2026-04-25T10:25:43Z</time></trkpt><trkpt lat="44.77106458806104" lon="10.257820527703531"><ele>91.0</ele><time>2026-04-25T10:25:44Z</time></trkpt><trkpt lat="44.771168963868405" lon="10.258047903460282"><ele>90.0</ele><time>2026-04-25T10:25:45Z</time></trkpt><trkpt lat="44.77128052197448" lon="10.258287616032016"><ele>89.0</ele><time>2026-04-25T10:25:46Z</time></trkpt><trkpt lat="44.77139416567832" lon="10.258530818794721"><ele>88.0</ele><time>2026-04-25T10:25:47Z</time></trkpt><trkpt lat="44.77151247698426" lon="10.25877685659319"><ele>89.0</ele><time>2026-04-25T10:25:48Z</time></trkpt><trkpt lat="44.77163759344549" lon="10.259027645120662"><ele>90.0</ele><time>2026-04-25T10:25:49Z</time></trkpt><trkpt lat="44.77176745692292" lon="10.259294543796118"><ele>91.0</ele><time>2026-04-25T10:25:50Z</time></trkpt><trkpt lat="44.77190443593067" lon="10.259578684066136"><ele>89.5</ele><time>2026-04-25T10:25:51Z</time></trkpt><trkpt lat="44.772032208773126" lon="10.259857592062007"><ele>88.0</ele><time>2026-04-25T10:25:52Z</time></trkpt><trkpt lat="44.772164483477006" lon="10.260143874304774"><ele>88.0</ele><time>2026-04-25T10:25:53Z</time></trkpt><trkpt lat="44.77229708333423" lon="10.260416950461522"><ele>88.0</ele><time>2026-04-25T10:25:54Z</time></trkpt><trkpt lat="44.77241988138869" lon="10.260681573561843"><ele>88.0</ele><time>2026-04-25T10:25:55Z</time></trkpt><trkpt lat="44.7725423036718" lon="10.260945761718123"><ele>88.0</ele><time>2026-04-25T10:25:56Z</time></trkpt><trkpt lat="44.77266399498602" lon="10.261204415275081"><ele>88.0</ele><time>2026-04-25T10:25:57Z</time></trkpt><trkpt lat="44.772784811926584" lon="10.261452176481514"><ele>88.0</ele><time>2026-04-25T10:25:58Z</time></trkpt><trkpt lat="44.772897804426584" lon="10.26169957437668"><ele>88.0</ele><time>2026-04-25T10:25:59Z</time></trkpt><trkpt lat="44.77300119847302" lon="10.261931066325355"><ele>88.0</ele><time>2026-04-25T10:26:00Z</time></trkpt><trkpt lat="44.77311571697513" lon="10.262169849854036"><ele>88.0</ele><time>2026-04-25T10:26:00.999Z</time></trkpt><trkpt lat="44.77322648597581" lon="10.262398013286171"><ele>88.0</ele><time>2026-04-25T10:26:01.999Z</time></trkpt><trkpt lat="44.77332981846443" lon="10.262616739681263"><ele>88.0</ele><time>2026-04-25T10:26:02.999Z</time></trkpt><trkpt lat="44.773425112238286" lon="10.262816698281876"><ele>88.0</ele><time>2026-04-25T10:26:03.999Z</time></trkpt><trkpt lat="44.77351301396601" lon="10.263000585592442"><ele>88.0</ele><time>2026-04-25T10:26:04.999Z</time></trkpt><trkpt lat="44.773596480883796" lon="10.263172550437124"><ele>88.0</ele><time>2026-04-25T10:26:05.999Z</time></trkpt><trkpt lat="44.77367518382859" lon="10.263333149594775"><ele>88.0</ele><time>2026-04-25T10:26:06.999Z</time></trkpt><trkpt lat="44.77373987287332" lon="10.26346675099107"><ele>87.5</ele><time>2026-04-25T10:26:07.999Z</time></trkpt><trkpt lat="44.77378909599292" lon="10.263571820089433"><ele>87.0</ele><time>2026-04-25T10:26:08.999Z</time></trkpt><trkpt lat="44.77389752590273" lon="10.263585705638901"><ele>86.5</ele><time>2026-04-25T10:26:10.999Z</time></trkpt><trkpt lat="44.773949774480485" lon="10.263515528337674"><ele>86.0</ele><time>2026-04-25T10:26:11.999Z</time></trkpt><trkpt lat="44.77398304256711" lon="10.263421368513278"><ele>85.5</ele><time>2026-04-25T10:26:12.999Z</time></trkpt><trkpt lat="44.77399151320123" lon="10.263316129190738"><ele>85.0</ele><time>2026-04-25T10:26:13.999Z</time></trkpt><trkpt lat="44.77400188976306" lon="10.263211401097234"><ele>85.0</ele><time>2026-04-25T10:26:15.999Z</time></trkpt><trkpt lat="44.7740005693805" lon="10.26311830013292"><ele>85.0</ele><time>2026-04-25T10:26:41.999Z</time></trkpt><trkpt lat="44.77386940603645" lon="10.263047176398619"><ele>85.0</ele><time>2026-04-25T10:26:43.999Z</time></trkpt><trkpt lat="44.773799030408945" lon="10.263032057453252"><ele>85.0</ele><time>2026-04-25T10:26:44.999Z</time></trkpt><trkpt lat="44.773700550948796" lon="10.262938563518938"><ele>85.0</ele><time>2026-04-25T10:26:46.999Z</time></trkpt><trkpt lat="44.773644983747545" lon="10.262804911842878"><ele>86.0</ele><time>2026-04-25T10:26:48.999Z</time></trkpt><trkpt lat="44.773598856117886" lon="10.262695699422904"><ele>86.0</ele><time>2026-04-25T10:26:50.999Z</time></trkpt><trkpt lat="44.77355193792591" lon="10.262607763532122"><ele>86.0</ele><time>2026-04-25T10:26:52.999Z</time></trkpt><trkpt lat="44.77362823105955" lon="10.262596140898937"><ele>86.0</ele><time>2026-04-25T10:26:53.999Z</time></trkpt></trkseg></trk></gpx>